<?xml version="1.0"?>
<gpx version="1.1" creator="Generated by Swisstopo App. See https://www.swisstopo.ch/app for more information." xmlns="http://www.topografix.com/GPX/1/1" xmlns:xsi="http://www.w3.org/2001/XMLSchema-instance" xmlns:swisstopo="https://prod-static.swisstopo-app.ch/xmlschemas/SwisstopoExtensions" xmlns:schemaLocation="http://www.topografix.com/GPX/1/1 http://www.topografix.com/GPX/1/1/gpx.xsd https://swisstopo-app.ch/xmlschemas/SwisstopoExtensions https://prod-static.swisstopo-app.ch/xmlschemas/SwisstopoExtensions.xsd">
	<metadata>
		<name>Oensingen - Moutier</name>
		<extensions>
			<swisstopo:tour_type>3</swisstopo:tour_type>
		</extensions>
		<time>2021-04-12T12:42:36+02:00</time>
	</metadata>
	<wpt lat="47.3063060932" lon="7.6914985195">
		<ele>483.4</ele>
		<name>Startpunkt</name>
		<extensions>
			<swisstopo:waypoint_id>1</swisstopo:waypoint_id>
			<swisstopo:waypoint_routepoint_id>1760484284</swisstopo:waypoint_routepoint_id>
			<swisstopo:waypoint_meters_into_tour>0.000000</swisstopo:waypoint_meters_into_tour>
			<swisstopo:waypoint_is_controlpoint>1</swisstopo:waypoint_is_controlpoint>
		</extensions>
	</wpt>
	<wpt lat="47.3992959623" lon="7.1859775196">
		<ele>614.3</ele>
		<name>Ziel</name>
		<extensions>
			<swisstopo:waypoint_id>2</swisstopo:waypoint_id>
			<swisstopo:waypoint_routepoint_id>1864006850</swisstopo:waypoint_routepoint_id>
			<swisstopo:waypoint_meters_into_tour>61641.826291</swisstopo:waypoint_meters_into_tour>
			<swisstopo:waypoint_is_controlpoint>1</swisstopo:waypoint_is_controlpoint>
			<swisstopo:waypoint_stage_before distance="61641.826291" duration="4739.000000" ascent="679.965612" descent="548.990233" />
		</extensions>
	</wpt>
	<trk>
		<name>Swisstopo Route</name>
		<trkseg>
			<trkpt lat="47.3063060932" lon="7.6914985195">
				<ele>483.4</ele>
				<time>2021-04-12T11:20:02+02:00</time>
				<extensions>
					<swisstopo:routepoint_id>1760484284</swisstopo:routepoint_id>
				</extensions>
			</trkpt>
			<trkpt lat="47.3063399752" lon="7.6913833503">
				<ele>483.2</ele>
				<time>2021-04-12T11:20:03+02:00</time>
				<extensions>
					<swisstopo:routepoint_id>429672822</swisstopo:routepoint_id>
				</extensions>
			</trkpt>
			<trkpt lat="47.3064141030" lon="7.6913121489">
				<ele>483.1</ele>
				<time>2021-04-12T11:20:04+02:00</time>
				<extensions>
					<swisstopo:routepoint_id>1671098140</swisstopo:routepoint_id>
				</extensions>
			</trkpt>
			<trkpt lat="47.3064841575" lon="7.6912411640">
				<ele>483.1</ele>
				<time>2021-04-12T11:20:05+02:00</time>
				<extensions>
					<swisstopo:routepoint_id>1355303514</swisstopo:routepoint_id>
				</extensions>
			</trkpt>
			<trkpt lat="47.3065481528" lon="7.6911666982">
				<ele>483.0</ele>
				<time>2021-04-12T11:20:06+02:00</time>
				<extensions>
					<swisstopo:routepoint_id>227116069</swisstopo:routepoint_id>
				</extensions>
			</trkpt>
			<trkpt lat="47.3066042908" lon="7.6910844641">
				<ele>483.0</ele>
				<time>2021-04-12T11:20:07+02:00</time>
				<extensions>
					<swisstopo:routepoint_id>1061330964</swisstopo:routepoint_id>
				</extensions>
			</trkpt>
			<trkpt lat="47.3066500609" lon="7.6909913482">
				<ele>482.9</ele>
				<time>2021-04-12T11:20:08+02:00</time>
				<extensions>
					<swisstopo:routepoint_id>790339966</swisstopo:routepoint_id>
				</extensions>
			</trkpt>
			<trkpt lat="47.3066857045" lon="7.6908853540">
				<ele>482.9</ele>
				<time>2021-04-12T11:20:09+02:00</time>
				<extensions>
					<swisstopo:routepoint_id>1057451867</swisstopo:routepoint_id>
				</extensions>
			</trkpt>
			<trkpt lat="47.3067134465" lon="7.6907674546">
				<ele>482.9</ele>
				<time>2021-04-12T11:20:10+02:00</time>
				<extensions>
					<swisstopo:routepoint_id>18866097</swisstopo:routepoint_id>
				</extensions>
			</trkpt>
			<trkpt lat="47.3067367758" lon="7.6906405042">
				<ele>482.8</ele>
				<time>2021-04-12T11:20:11+02:00</time>
				<extensions>
					<swisstopo:routepoint_id>1402396170</swisstopo:routepoint_id>
				</extensions>
			</trkpt>
			<trkpt lat="47.3067591269" lon="7.6905080719">
				<ele>482.7</ele>
				<time>2021-04-12T11:20:12+02:00</time>
				<extensions>
					<swisstopo:routepoint_id>1439403365</swisstopo:routepoint_id>
				</extensions>
			</trkpt>
			<trkpt lat="47.3067829379" lon="7.6903737047">
				<ele>482.7</ele>
				<time>2021-04-12T11:20:13+02:00</time>
				<extensions>
					<swisstopo:routepoint_id>649072100</swisstopo:routepoint_id>
				</extensions>
			</trkpt>
			<trkpt lat="47.3068096452" lon="7.6902403997">
				<ele>482.6</ele>
				<time>2021-04-12T11:20:14+02:00</time>
				<extensions>
					<swisstopo:routepoint_id>1885341587</swisstopo:routepoint_id>
				</extensions>
			</trkpt>
			<trkpt lat="47.3068402564" lon="7.6901098205">
				<ele>482.6</ele>
				<time>2021-04-12T11:20:15+02:00</time>
				<extensions>
					<swisstopo:routepoint_id>814841224</swisstopo:routepoint_id>
				</extensions>
			</trkpt>
			<trkpt lat="47.3068753493" lon="7.6899823389">
				<ele>482.6</ele>
				<time>2021-04-12T11:20:16+02:00</time>
				<extensions>
					<swisstopo:routepoint_id>533234849</swisstopo:routepoint_id>
				</extensions>
			</trkpt>
			<trkpt lat="47.3069150170" lon="7.6898575774">
				<ele>482.6</ele>
				<time>2021-04-12T11:20:17+02:00</time>
				<extensions>
					<swisstopo:routepoint_id>628848212</swisstopo:routepoint_id>
				</extensions>
			</trkpt>
			<trkpt lat="47.3069588049" lon="7.6897357495">
				<ele>482.6</ele>
				<time>2021-04-12T11:20:18+02:00</time>
				<extensions>
					<swisstopo:routepoint_id>1284872197</swisstopo:routepoint_id>
				</extensions>
			</trkpt>
			<trkpt lat="47.3070060263" lon="7.6896171744">
				<ele>482.6</ele>
				<time>2021-04-12T11:20:19+02:00</time>
				<extensions>
					<swisstopo:routepoint_id>1898944394</swisstopo:routepoint_id>
				</extensions>
			</trkpt>
			<trkpt lat="47.3070579473" lon="7.6895043767">
				<ele>482.7</ele>
				<time>2021-04-12T11:20:20+02:00</time>
				<extensions>
					<swisstopo:routepoint_id>1803951891</swisstopo:routepoint_id>
				</extensions>
			</trkpt>
			<trkpt lat="47.3071143534" lon="7.6893977505">
				<ele>482.7</ele>
				<time>2021-04-12T11:20:21+02:00</time>
				<extensions>
					<swisstopo:routepoint_id>845303691</swisstopo:routepoint_id>
				</extensions>
			</trkpt>
			<trkpt lat="47.3071741117" lon="7.6892939679">
				<ele>482.7</ele>
				<time>2021-04-12T11:20:22+02:00</time>
				<extensions>
					<swisstopo:routepoint_id>1414809732</swisstopo:routepoint_id>
				</extensions>
			</trkpt>
			<trkpt lat="47.3072349802" lon="7.6891907213">
				<ele>482.7</ele>
				<time>2021-04-12T11:20:23+02:00</time>
				<extensions>
					<swisstopo:routepoint_id>1768226140</swisstopo:routepoint_id>
				</extensions>
			</trkpt>
			<trkpt lat="47.3072966500" lon="7.6890870107">
				<ele>482.7</ele>
				<time>2021-04-12T11:20:24+02:00</time>
				<extensions>
					<swisstopo:routepoint_id>1698027794</swisstopo:routepoint_id>
				</extensions>
			</trkpt>
			<trkpt lat="47.3073590761" lon="7.6889844325">
				<ele>482.6</ele>
				<time>2021-04-12T11:20:25+02:00</time>
				<extensions>
					<swisstopo:routepoint_id>842948775</swisstopo:routepoint_id>
				</extensions>
			</trkpt>
			<trkpt lat="47.3074231476" lon="7.6888858325">
				<ele>482.6</ele>
				<time>2021-04-12T11:20:26+02:00</time>
				<extensions>
					<swisstopo:routepoint_id>490442166</swisstopo:routepoint_id>
				</extensions>
			</trkpt>
			<trkpt lat="47.3074895055" lon="7.6887939848">
				<ele>482.6</ele>
				<time>2021-04-12T11:20:27+02:00</time>
				<extensions>
					<swisstopo:routepoint_id>819246776</swisstopo:routepoint_id>
				</extensions>
			</trkpt>
			<trkpt lat="47.3075593486" lon="7.6887126466">
				<ele>482.6</ele>
				<time>2021-04-12T11:20:28+02:00</time>
				<extensions>
					<swisstopo:routepoint_id>1562903315</swisstopo:routepoint_id>
				</extensions>
			</trkpt>
			<trkpt lat="47.3076333361" lon="7.6886454171">
				<ele>482.7</ele>
				<time>2021-04-12T11:20:29+02:00</time>
				<extensions>
					<swisstopo:routepoint_id>1843528748</swisstopo:routepoint_id>
				</extensions>
			</trkpt>
			<trkpt lat="47.3077112867" lon="7.6885946547">
				<ele>482.8</ele>
				<time>2021-04-12T11:20:30+02:00</time>
				<extensions>
					<swisstopo:routepoint_id>293608720</swisstopo:routepoint_id>
				</extensions>
			</trkpt>
			<trkpt lat="47.3077923187" lon="7.6885593325">
				<ele>483.0</ele>
				<time>2021-04-12T11:20:31+02:00</time>
				<extensions>
					<swisstopo:routepoint_id>1911819881</swisstopo:routepoint_id>
				</extensions>
			</trkpt>
			<trkpt lat="47.3078748990" lon="7.6885372057">
				<ele>483.2</ele>
				<time>2021-04-12T11:20:32+02:00</time>
				<extensions>
					<swisstopo:routepoint_id>1306413553</swisstopo:routepoint_id>
				</extensions>
			</trkpt>
			<trkpt lat="47.3079587704" lon="7.6885259278">
				<ele>483.3</ele>
				<time>2021-04-12T11:20:33+02:00</time>
				<extensions>
					<swisstopo:routepoint_id>1019778343</swisstopo:routepoint_id>
				</extensions>
			</trkpt>
			<trkpt lat="47.3080443055" lon="7.6885230503">
				<ele>483.5</ele>
				<time>2021-04-12T11:20:34+02:00</time>
				<extensions>
					<swisstopo:routepoint_id>347624094</swisstopo:routepoint_id>
				</extensions>
			</trkpt>
			<trkpt lat="47.3081319600" lon="7.6885246616">
				<ele>483.6</ele>
				<time>2021-04-12T11:20:35+02:00</time>
				<extensions>
					<swisstopo:routepoint_id>1362628018</swisstopo:routepoint_id>
				</extensions>
			</trkpt>
			<trkpt lat="47.3082222500" lon="7.6885273770">
				<ele>483.7</ele>
				<time>2021-04-12T11:20:36+02:00</time>
				<extensions>
					<swisstopo:routepoint_id>923486918</swisstopo:routepoint_id>
				</extensions>
			</trkpt>
			<trkpt lat="47.3083145726" lon="7.6885277341">
				<ele>483.8</ele>
				<time>2021-04-12T11:20:37+02:00</time>
				<extensions>
					<swisstopo:routepoint_id>1180313957</swisstopo:routepoint_id>
				</extensions>
			</trkpt>
			<trkpt lat="47.3084081642" lon="7.6885235314">
				<ele>483.9</ele>
				<time>2021-04-12T11:20:38+02:00</time>
				<extensions>
					<swisstopo:routepoint_id>1230227960</swisstopo:routepoint_id>
				</extensions>
			</trkpt>
			<trkpt lat="47.3085022161" lon="7.6885147079">
				<ele>484.0</ele>
				<time>2021-04-12T11:20:39+02:00</time>
				<extensions>
					<swisstopo:routepoint_id>468770404</swisstopo:routepoint_id>
				</extensions>
			</trkpt>
			<trkpt lat="47.3085957255" lon="7.6885013366">
				<ele>484.0</ele>
				<time>2021-04-12T11:20:40+02:00</time>
				<extensions>
					<swisstopo:routepoint_id>1654162832</swisstopo:routepoint_id>
				</extensions>
			</trkpt>
			<trkpt lat="47.3086878501" lon="7.6884843169">
				<ele>484.1</ele>
				<time>2021-04-12T11:20:41+02:00</time>
				<extensions>
					<swisstopo:routepoint_id>191423362</swisstopo:routepoint_id>
				</extensions>
			</trkpt>
			<trkpt lat="47.3087778301" lon="7.6884643315">
				<ele>484.1</ele>
				<time>2021-04-12T11:20:42+02:00</time>
				<extensions>
					<swisstopo:routepoint_id>321941928</swisstopo:routepoint_id>
				</extensions>
			</trkpt>
			<trkpt lat="47.3088648454" lon="7.6884420123">
				<ele>484.2</ele>
				<time>2021-04-12T11:20:43+02:00</time>
				<extensions>
					<swisstopo:routepoint_id>1366677103</swisstopo:routepoint_id>
				</extensions>
			</trkpt>
			<trkpt lat="47.3089482109" lon="7.6884181910">
				<ele>484.3</ele>
				<time>2021-04-12T11:20:44+02:00</time>
				<extensions>
					<swisstopo:routepoint_id>256981809</swisstopo:routepoint_id>
				</extensions>
			</trkpt>
			<trkpt lat="47.3090268383" lon="7.6883939493">
				<ele>484.3</ele>
				<time>2021-04-12T11:20:45+02:00</time>
				<extensions>
					<swisstopo:routepoint_id>503649746</swisstopo:routepoint_id>
				</extensions>
			</trkpt>
			<trkpt lat="47.3091011277" lon="7.6883700126">
				<ele>484.3</ele>
				<time>2021-04-12T11:20:46+02:00</time>
				<extensions>
					<swisstopo:routepoint_id>1608228195</swisstopo:routepoint_id>
				</extensions>
			</trkpt>
			<trkpt lat="47.3091716116" lon="7.6883475001">
				<ele>484.3</ele>
				<time>2021-04-12T11:20:47+02:00</time>
				<extensions>
					<swisstopo:routepoint_id>1262092223</swisstopo:routepoint_id>
				</extensions>
			</trkpt>
			<trkpt lat="47.3092371937" lon="7.6883276357">
				<ele>484.3</ele>
				<time>2021-04-12T11:20:48+02:00</time>
				<extensions>
					<swisstopo:routepoint_id>1288010542</swisstopo:routepoint_id>
				</extensions>
			</trkpt>
			<trkpt lat="47.3092979232" lon="7.6883119045">
				<ele>484.3</ele>
				<time>2021-04-12T11:20:49+02:00</time>
				<extensions>
					<swisstopo:routepoint_id>958017634</swisstopo:routepoint_id>
				</extensions>
			</trkpt>
			<trkpt lat="47.3093538295" lon="7.6883027998">
				<ele>484.4</ele>
				<time>2021-04-12T11:20:50+02:00</time>
				<extensions>
					<swisstopo:routepoint_id>1717473079</swisstopo:routepoint_id>
				</extensions>
			</trkpt>
			<trkpt lat="47.3094046868" lon="7.6883029088">
				<ele>484.4</ele>
				<time>2021-04-12T11:20:51+02:00</time>
				<extensions>
					<swisstopo:routepoint_id>1242339426</swisstopo:routepoint_id>
				</extensions>
			</trkpt>
			<trkpt lat="47.3094502460" lon="7.6883146291">
				<ele>484.3</ele>
				<time>2021-04-12T11:20:52+02:00</time>
				<extensions>
					<swisstopo:routepoint_id>15233001</swisstopo:routepoint_id>
				</extensions>
			</trkpt>
			<trkpt lat="47.3094905198" lon="7.6883359105">
				<ele>484.3</ele>
				<time>2021-04-12T11:20:53+02:00</time>
				<extensions>
					<swisstopo:routepoint_id>470493814</swisstopo:routepoint_id>
				</extensions>
			</trkpt>
			<trkpt lat="47.3095257890" lon="7.6883617790">
				<ele>484.3</ele>
				<time>2021-04-12T11:20:54+02:00</time>
				<extensions>
					<swisstopo:routepoint_id>554743644</swisstopo:routepoint_id>
				</extensions>
			</trkpt>
			<trkpt lat="47.3095558090" lon="7.6883878207">
				<ele>484.3</ele>
				<time>2021-04-12T11:20:55+02:00</time>
				<extensions>
					<swisstopo:routepoint_id>1349913081</swisstopo:routepoint_id>
				</extensions>
			</trkpt>
			<trkpt lat="47.3095814494" lon="7.6884101822">
				<ele>484.4</ele>
				<time>2021-04-12T11:20:56+02:00</time>
				<extensions>
					<swisstopo:routepoint_id>1971905459</swisstopo:routepoint_id>
				</extensions>
			</trkpt>
			<trkpt lat="47.3096026457" lon="7.6884279774">
				<ele>484.4</ele>
				<time>2021-04-12T11:20:57+02:00</time>
				<extensions>
					<swisstopo:routepoint_id>1847408909</swisstopo:routepoint_id>
				</extensions>
			</trkpt>
			<trkpt lat="47.3096187794" lon="7.6884411263">
				<ele>484.3</ele>
				<time>2021-04-12T11:20:58+02:00</time>
				<extensions>
					<swisstopo:routepoint_id>1082965237</swisstopo:routepoint_id>
				</extensions>
			</trkpt>
			<trkpt lat="47.3096295388" lon="7.6884503402">
				<ele>484.3</ele>
				<time>2021-04-12T11:20:59+02:00</time>
				<extensions>
					<swisstopo:routepoint_id>1472829934</swisstopo:routepoint_id>
				</extensions>
			</trkpt>
			<trkpt lat="47.3096352360" lon="7.6884571498">
				<ele>484.2</ele>
				<time>2021-04-12T11:21:00+02:00</time>
				<extensions>
					<swisstopo:routepoint_id>1956185416</swisstopo:routepoint_id>
				</extensions>
			</trkpt>
			<trkpt lat="47.3096365085" lon="7.6884620786">
				<ele>484.1</ele>
				<time>2021-04-12T11:21:01+02:00</time>
				<extensions>
					<swisstopo:routepoint_id>1781134789</swisstopo:routepoint_id>
				</extensions>
			</trkpt>
			<trkpt lat="47.3096342312" lon="7.6884652244">
				<ele>484.0</ele>
				<time>2021-04-12T11:21:02+02:00</time>
				<extensions>
					<swisstopo:routepoint_id>1757843190</swisstopo:routepoint_id>
				</extensions>
			</trkpt>
			<trkpt lat="47.3096298778" lon="7.6884665562">
				<ele>483.9</ele>
				<time>2021-04-12T11:21:03+02:00</time>
				<extensions>
					<swisstopo:routepoint_id>1137962551</swisstopo:routepoint_id>
				</extensions>
			</trkpt>
			<trkpt lat="47.3096245850" lon="7.6884658782">
				<ele>483.8</ele>
				<time>2021-04-12T11:21:04+02:00</time>
				<extensions>
					<swisstopo:routepoint_id>247234475</swisstopo:routepoint_id>
				</extensions>
			</trkpt>
			<trkpt lat="47.3096193871" lon="7.6884630643">
				<ele>483.8</ele>
				<time>2021-04-12T11:21:05+02:00</time>
				<extensions>
					<swisstopo:routepoint_id>2036448027</swisstopo:routepoint_id>
				</extensions>
			</trkpt>
			<trkpt lat="47.3096154406" lon="7.6884580564">
				<ele>483.7</ele>
				<time>2021-04-12T11:21:06+02:00</time>
				<extensions>
					<swisstopo:routepoint_id>2135107550</swisstopo:routepoint_id>
				</extensions>
			</trkpt>
			<trkpt lat="47.3096125646" lon="7.6884511852">
				<ele>483.7</ele>
				<time>2021-04-12T11:21:07+02:00</time>
				<extensions>
					<swisstopo:routepoint_id>300851480</swisstopo:routepoint_id>
				</extensions>
			</trkpt>
			<trkpt lat="47.3096099540" lon="7.6884439640">
				<ele>483.7</ele>
				<time>2021-04-12T11:21:08+02:00</time>
				<extensions>
					<swisstopo:routepoint_id>1234319322</swisstopo:routepoint_id>
				</extensions>
			</trkpt>
			<trkpt lat="47.3096071842" lon="7.6884373841">
				<ele>483.8</ele>
				<time>2021-04-12T11:21:09+02:00</time>
				<extensions>
					<swisstopo:routepoint_id>512814834</swisstopo:routepoint_id>
				</extensions>
			</trkpt>
			<trkpt lat="47.3096042946" lon="7.6884316020">
				<ele>483.8</ele>
				<time>2021-04-12T11:21:10+02:00</time>
				<extensions>
					<swisstopo:routepoint_id>1027039627</swisstopo:routepoint_id>
				</extensions>
			</trkpt>
			<trkpt lat="47.3096013305" lon="7.6884265441">
				<ele>483.8</ele>
				<time>2021-04-12T11:21:11+02:00</time>
				<extensions>
					<swisstopo:routepoint_id>2128940050</swisstopo:routepoint_id>
				</extensions>
			</trkpt>
			<trkpt lat="47.3095982292" lon="7.6884219587">
				<ele>483.8</ele>
				<time>2021-04-12T11:21:12+02:00</time>
				<extensions>
					<swisstopo:routepoint_id>1870377683</swisstopo:routepoint_id>
				</extensions>
			</trkpt>
			<trkpt lat="47.3095951629" lon="7.6884178506">
				<ele>483.8</ele>
				<time>2021-04-12T11:21:13+02:00</time>
				<extensions>
					<swisstopo:routepoint_id>572093395</swisstopo:routepoint_id>
				</extensions>
			</trkpt>
			<trkpt lat="47.3095922928" lon="7.6884141988">
				<ele>483.8</ele>
				<time>2021-04-12T11:21:14+02:00</time>
				<extensions>
					<swisstopo:routepoint_id>889402146</swisstopo:routepoint_id>
				</extensions>
			</trkpt>
			<trkpt lat="47.3095895746" lon="7.6884109215">
				<ele>483.7</ele>
				<time>2021-04-12T11:21:15+02:00</time>
				<extensions>
					<swisstopo:routepoint_id>1695684702</swisstopo:routepoint_id>
				</extensions>
			</trkpt>
			<trkpt lat="47.3095870364" lon="7.6884081948">
				<ele>483.7</ele>
				<time>2021-04-12T11:21:16+02:00</time>
				<extensions>
					<swisstopo:routepoint_id>117307177</swisstopo:routepoint_id>
				</extensions>
			</trkpt>
			<trkpt lat="47.3095847668" lon="7.6884059293">
				<ele>483.7</ele>
				<time>2021-04-12T11:21:17+02:00</time>
				<extensions>
					<swisstopo:routepoint_id>191735893</swisstopo:routepoint_id>
				</extensions>
			</trkpt>
			<trkpt lat="47.3095829426" lon="7.6884038204">
				<ele>483.7</ele>
				<time>2021-04-12T11:21:18+02:00</time>
				<extensions>
					<swisstopo:routepoint_id>1279683151</swisstopo:routepoint_id>
				</extensions>
			</trkpt>
			<trkpt lat="47.3095819121" lon="7.6884013630">
				<ele>483.7</ele>
				<time>2021-04-12T11:21:19+02:00</time>
				<extensions>
					<swisstopo:routepoint_id>585994152</swisstopo:routepoint_id>
				</extensions>
			</trkpt>
			<trkpt lat="47.3095817926" lon="7.6883983082">
				<ele>483.7</ele>
				<time>2021-04-12T11:21:20+02:00</time>
				<extensions>
					<swisstopo:routepoint_id>443707522</swisstopo:routepoint_id>
				</extensions>
			</trkpt>
			<trkpt lat="47.3095825451" lon="7.6883943943">
				<ele>483.7</ele>
				<time>2021-04-12T11:21:21+02:00</time>
				<extensions>
					<swisstopo:routepoint_id>1329099870</swisstopo:routepoint_id>
				</extensions>
			</trkpt>
			<trkpt lat="47.3095841142" lon="7.6883893303">
				<ele>483.7</ele>
				<time>2021-04-12T11:21:22+02:00</time>
				<extensions>
					<swisstopo:routepoint_id>56618996</swisstopo:routepoint_id>
				</extensions>
			</trkpt>
			<trkpt lat="47.3095861643" lon="7.6883829630">
				<ele>483.7</ele>
				<time>2021-04-12T11:21:23+02:00</time>
				<extensions>
					<swisstopo:routepoint_id>260210151</swisstopo:routepoint_id>
				</extensions>
			</trkpt>
			<trkpt lat="47.3095886859" lon="7.6883749901">
				<ele>483.8</ele>
				<time>2021-04-12T11:21:24+02:00</time>
				<extensions>
					<swisstopo:routepoint_id>1075302565</swisstopo:routepoint_id>
				</extensions>
			</trkpt>
			<trkpt lat="47.3095913648" lon="7.6883651600">
				<ele>483.8</ele>
				<time>2021-04-12T11:21:25+02:00</time>
				<extensions>
					<swisstopo:routepoint_id>1535320450</swisstopo:routepoint_id>
				</extensions>
			</trkpt>
			<trkpt lat="47.3095933465" lon="7.6883528294">
				<ele>483.9</ele>
				<time>2021-04-12T11:21:26+02:00</time>
				<extensions>
					<swisstopo:routepoint_id>2114784445</swisstopo:routepoint_id>
				</extensions>
			</trkpt>
			<trkpt lat="47.3095936673" lon="7.6883374009">
				<ele>483.9</ele>
				<time>2021-04-12T11:21:27+02:00</time>
				<extensions>
					<swisstopo:routepoint_id>180325618</swisstopo:routepoint_id>
				</extensions>
			</trkpt>
			<trkpt lat="47.3095924622" lon="7.6883189817">
				<ele>483.9</ele>
				<time>2021-04-12T11:21:28+02:00</time>
				<extensions>
					<swisstopo:routepoint_id>633235809</swisstopo:routepoint_id>
				</extensions>
			</trkpt>
			<trkpt lat="47.3095904317" lon="7.6882984070">
				<ele>483.9</ele>
				<time>2021-04-12T11:21:29+02:00</time>
				<extensions>
					<swisstopo:routepoint_id>2012770978</swisstopo:routepoint_id>
				</extensions>
			</trkpt>
			<trkpt lat="47.3095870693" lon="7.6882754818">
				<ele>483.9</ele>
				<time>2021-04-12T11:21:30+02:00</time>
				<extensions>
					<swisstopo:routepoint_id>1479419702</swisstopo:routepoint_id>
				</extensions>
			</trkpt>
			<trkpt lat="47.3095819230" lon="7.6882465731">
				<ele>484.0</ele>
				<time>2021-04-12T11:21:31+02:00</time>
				<extensions>
					<swisstopo:routepoint_id>1041266548</swisstopo:routepoint_id>
				</extensions>
			</trkpt>
			<trkpt lat="47.3095741798" lon="7.6882078114">
				<ele>484.1</ele>
				<time>2021-04-12T11:21:32+02:00</time>
				<extensions>
					<swisstopo:routepoint_id>722632833</swisstopo:routepoint_id>
				</extensions>
			</trkpt>
			<trkpt lat="47.3095664211" lon="7.6881573855">
				<ele>484.1</ele>
				<time>2021-04-12T11:21:33+02:00</time>
				<extensions>
					<swisstopo:routepoint_id>1270000446</swisstopo:routepoint_id>
				</extensions>
			</trkpt>
			<trkpt lat="47.3095624784" lon="7.6880954735">
				<ele>484.0</ele>
				<time>2021-04-12T11:21:34+02:00</time>
				<extensions>
					<swisstopo:routepoint_id>1057528389</swisstopo:routepoint_id>
				</extensions>
			</trkpt>
			<trkpt lat="47.3095639683" lon="7.6880242958">
				<ele>483.9</ele>
				<time>2021-04-12T11:21:35+02:00</time>
				<extensions>
					<swisstopo:routepoint_id>1304971351</swisstopo:routepoint_id>
				</extensions>
			</trkpt>
			<trkpt lat="47.3095699572" lon="7.6879470157">
				<ele>483.8</ele>
				<time>2021-04-12T11:21:36+02:00</time>
				<extensions>
					<swisstopo:routepoint_id>403009446</swisstopo:routepoint_id>
				</extensions>
			</trkpt>
			<trkpt lat="47.3095788960" lon="7.6878672584">
				<ele>483.7</ele>
				<time>2021-04-12T11:21:37+02:00</time>
				<extensions>
					<swisstopo:routepoint_id>216336284</swisstopo:routepoint_id>
				</extensions>
			</trkpt>
			<trkpt lat="47.3095896998" lon="7.6877895420">
				<ele>483.6</ele>
				<time>2021-04-12T11:21:38+02:00</time>
				<extensions>
					<swisstopo:routepoint_id>274110817</swisstopo:routepoint_id>
				</extensions>
			</trkpt>
			<trkpt lat="47.3096014013" lon="7.6877178278">
				<ele>483.6</ele>
				<time>2021-04-12T11:21:39+02:00</time>
				<extensions>
					<swisstopo:routepoint_id>628078504</swisstopo:routepoint_id>
				</extensions>
			</trkpt>
			<trkpt lat="47.3096129512" lon="7.6876552616">
				<ele>483.5</ele>
				<time>2021-04-12T11:21:40+02:00</time>
				<extensions>
					<swisstopo:routepoint_id>1233291723</swisstopo:routepoint_id>
				</extensions>
			</trkpt>
			<trkpt lat="47.3096235852" lon="7.6876034251">
				<ele>483.5</ele>
				<time>2021-04-12T11:21:41+02:00</time>
				<extensions>
					<swisstopo:routepoint_id>421827617</swisstopo:routepoint_id>
				</extensions>
			</trkpt>
			<trkpt lat="47.3096326581" lon="7.6875626965">
				<ele>483.4</ele>
				<time>2021-04-12T11:21:42+02:00</time>
				<extensions>
					<swisstopo:routepoint_id>813240172</swisstopo:routepoint_id>
				</extensions>
			</trkpt>
			<trkpt lat="47.3096402684" lon="7.6875322037">
				<ele>483.4</ele>
				<time>2021-04-12T11:21:43+02:00</time>
				<extensions>
					<swisstopo:routepoint_id>1541641296</swisstopo:routepoint_id>
				</extensions>
			</trkpt>
			<trkpt lat="47.3096462698" lon="7.6875106126">
				<ele>483.4</ele>
				<time>2021-04-12T11:21:44+02:00</time>
				<extensions>
					<swisstopo:routepoint_id>975060817</swisstopo:routepoint_id>
				</extensions>
			</trkpt>
			<trkpt lat="47.3096513927" lon="7.6874953138">
				<ele>483.4</ele>
				<time>2021-04-12T11:21:45+02:00</time>
				<extensions>
					<swisstopo:routepoint_id>399441062</swisstopo:routepoint_id>
				</extensions>
			</trkpt>
			<trkpt lat="47.3096563105" lon="7.6874838326">
				<ele>483.4</ele>
				<time>2021-04-12T11:21:46+02:00</time>
				<extensions>
					<swisstopo:routepoint_id>372048512</swisstopo:routepoint_id>
				</extensions>
			</trkpt>
			<trkpt lat="47.3096616666" lon="7.6874744784">
				<ele>483.3</ele>
				<time>2021-04-12T11:21:47+02:00</time>
				<extensions>
					<swisstopo:routepoint_id>1694444767</swisstopo:routepoint_id>
				</extensions>
			</trkpt>
			<trkpt lat="47.3096683478" lon="7.6874654467">
				<ele>483.3</ele>
				<time>2021-04-12T11:21:48+02:00</time>
				<extensions>
					<swisstopo:routepoint_id>752556102</swisstopo:routepoint_id>
				</extensions>
			</trkpt>
			<trkpt lat="47.3096776113" lon="7.6874544923">
				<ele>483.3</ele>
				<time>2021-04-12T11:21:49+02:00</time>
				<extensions>
					<swisstopo:routepoint_id>1679209131</swisstopo:routepoint_id>
				</extensions>
			</trkpt>
			<trkpt lat="47.3096909574" lon="7.6874381608">
				<ele>483.3</ele>
				<time>2021-04-12T11:21:50+02:00</time>
				<extensions>
					<swisstopo:routepoint_id>237775843</swisstopo:routepoint_id>
				</extensions>
			</trkpt>
			<trkpt lat="47.3097093699" lon="7.6874127819">
				<ele>483.3</ele>
				<time>2021-04-12T11:21:51+02:00</time>
				<extensions>
					<swisstopo:routepoint_id>1979009881</swisstopo:routepoint_id>
				</extensions>
			</trkpt>
			<trkpt lat="47.3097329265" lon="7.6873751483">
				<ele>483.2</ele>
				<time>2021-04-12T11:21:52+02:00</time>
				<extensions>
					<swisstopo:routepoint_id>992345231</swisstopo:routepoint_id>
				</extensions>
			</trkpt>
			<trkpt lat="47.3097613636" lon="7.6873214583">
				<ele>483.1</ele>
				<time>2021-04-12T11:21:53+02:00</time>
				<extensions>
					<swisstopo:routepoint_id>988294815</swisstopo:routepoint_id>
				</extensions>
			</trkpt>
			<trkpt lat="47.3097948593" lon="7.6872490035">
				<ele>483.0</ele>
				<time>2021-04-12T11:21:54+02:00</time>
				<extensions>
					<swisstopo:routepoint_id>1632429807</swisstopo:routepoint_id>
				</extensions>
			</trkpt>
			<trkpt lat="47.3098341239" lon="7.6871580870">
				<ele>482.9</ele>
				<time>2021-04-12T11:21:55+02:00</time>
				<extensions>
					<swisstopo:routepoint_id>2144175824</swisstopo:routepoint_id>
				</extensions>
			</trkpt>
			<trkpt lat="47.3098804658" lon="7.6870522226">
				<ele>482.8</ele>
				<time>2021-04-12T11:21:56+02:00</time>
				<extensions>
					<swisstopo:routepoint_id>239993661</swisstopo:routepoint_id>
				</extensions>
			</trkpt>
			<trkpt lat="47.3099343081" lon="7.6869362283">
				<ele>482.8</ele>
				<time>2021-04-12T11:21:57+02:00</time>
				<extensions>
					<swisstopo:routepoint_id>599171361</swisstopo:routepoint_id>
				</extensions>
			</trkpt>
			<trkpt lat="47.3099949853" lon="7.6868136694">
				<ele>482.7</ele>
				<time>2021-04-12T11:21:58+02:00</time>
				<extensions>
					<swisstopo:routepoint_id>722243544</swisstopo:routepoint_id>
				</extensions>
			</trkpt>
			<trkpt lat="47.3100613397" lon="7.6866866120">
				<ele>482.7</ele>
				<time>2021-04-12T11:21:59+02:00</time>
				<extensions>
					<swisstopo:routepoint_id>1169671164</swisstopo:routepoint_id>
				</extensions>
			</trkpt>
			<trkpt lat="47.3101318637" lon="7.6865559698">
				<ele>482.8</ele>
				<time>2021-04-12T11:22:00+02:00</time>
				<extensions>
					<swisstopo:routepoint_id>597948710</swisstopo:routepoint_id>
				</extensions>
			</trkpt>
			<trkpt lat="47.3102054685" lon="7.6864224377">
				<ele>482.8</ele>
				<time>2021-04-12T11:22:01+02:00</time>
				<extensions>
					<swisstopo:routepoint_id>1647984657</swisstopo:routepoint_id>
				</extensions>
			</trkpt>
			<trkpt lat="47.3102812772" lon="7.6862862013">
				<ele>482.8</ele>
				<time>2021-04-12T11:22:02+02:00</time>
				<extensions>
					<swisstopo:routepoint_id>1581534840</swisstopo:routepoint_id>
				</extensions>
			</trkpt>
			<trkpt lat="47.3103584921" lon="7.6861473930">
				<ele>482.9</ele>
				<time>2021-04-12T11:22:03+02:00</time>
				<extensions>
					<swisstopo:routepoint_id>1450956961</swisstopo:routepoint_id>
				</extensions>
			</trkpt>
			<trkpt lat="47.3104365460" lon="7.6860065186">
				<ele>483.0</ele>
				<time>2021-04-12T11:22:04+02:00</time>
				<extensions>
					<swisstopo:routepoint_id>1556831842</swisstopo:routepoint_id>
				</extensions>
			</trkpt>
			<trkpt lat="47.3105147172" lon="7.6858641481">
				<ele>483.0</ele>
				<time>2021-04-12T11:22:05+02:00</time>
				<extensions>
					<swisstopo:routepoint_id>732013446</swisstopo:routepoint_id>
				</extensions>
			</trkpt>
			<trkpt lat="47.3105925281" lon="7.6857217695">
				<ele>483.1</ele>
				<time>2021-04-12T11:22:06+02:00</time>
				<extensions>
					<swisstopo:routepoint_id>16173259</swisstopo:routepoint_id>
				</extensions>
			</trkpt>
			<trkpt lat="47.3106694066" lon="7.6855803139">
				<ele>483.1</ele>
				<time>2021-04-12T11:22:07+02:00</time>
				<extensions>
					<swisstopo:routepoint_id>1241024491</swisstopo:routepoint_id>
				</extensions>
			</trkpt>
			<trkpt lat="47.3107448730" lon="7.6854403258">
				<ele>483.2</ele>
				<time>2021-04-12T11:22:08+02:00</time>
				<extensions>
					<swisstopo:routepoint_id>1537440573</swisstopo:routepoint_id>
				</extensions>
			</trkpt>
			<trkpt lat="47.3108190678" lon="7.6853018162">
				<ele>483.3</ele>
				<time>2021-04-12T11:22:09+02:00</time>
				<extensions>
					<swisstopo:routepoint_id>1240469707</swisstopo:routepoint_id>
				</extensions>
			</trkpt>
			<trkpt lat="47.3108915263" lon="7.6851649731">
				<ele>483.4</ele>
				<time>2021-04-12T11:22:10+02:00</time>
				<extensions>
					<swisstopo:routepoint_id>803120473</swisstopo:routepoint_id>
				</extensions>
			</trkpt>
			<trkpt lat="47.3109622337" lon="7.6850298191">
				<ele>483.4</ele>
				<time>2021-04-12T11:22:11+02:00</time>
				<extensions>
					<swisstopo:routepoint_id>1111068316</swisstopo:routepoint_id>
				</extensions>
			</trkpt>
			<trkpt lat="47.3110313897" lon="7.6848952575">
				<ele>483.5</ele>
				<time>2021-04-12T11:22:12+02:00</time>
				<extensions>
					<swisstopo:routepoint_id>1354876347</swisstopo:routepoint_id>
				</extensions>
			</trkpt>
			<trkpt lat="47.3110990819" lon="7.6847602876">
				<ele>483.5</ele>
				<time>2021-04-12T11:22:13+02:00</time>
				<extensions>
					<swisstopo:routepoint_id>1637654888</swisstopo:routepoint_id>
				</extensions>
			</trkpt>
			<trkpt lat="47.3111652006" lon="7.6846247847">
				<ele>483.5</ele>
				<time>2021-04-12T11:22:14+02:00</time>
				<extensions>
					<swisstopo:routepoint_id>1915282664</swisstopo:routepoint_id>
				</extensions>
			</trkpt>
			<trkpt lat="47.3112290875" lon="7.6844888783">
				<ele>483.5</ele>
				<time>2021-04-12T11:22:15+02:00</time>
				<extensions>
					<swisstopo:routepoint_id>1523348965</swisstopo:routepoint_id>
				</extensions>
			</trkpt>
			<trkpt lat="47.3112905876" lon="7.6843523984">
				<ele>483.5</ele>
				<time>2021-04-12T11:22:16+02:00</time>
				<extensions>
					<swisstopo:routepoint_id>626015221</swisstopo:routepoint_id>
				</extensions>
			</trkpt>
			<trkpt lat="47.3113495041" lon="7.6842155746">
				<ele>483.5</ele>
				<time>2021-04-12T11:22:17+02:00</time>
				<extensions>
					<swisstopo:routepoint_id>915432694</swisstopo:routepoint_id>
				</extensions>
			</trkpt>
			<trkpt lat="47.3114058695" lon="7.6840785478">
				<ele>483.5</ele>
				<time>2021-04-12T11:22:18+02:00</time>
				<extensions>
					<swisstopo:routepoint_id>1104440950</swisstopo:routepoint_id>
				</extensions>
			</trkpt>
			<trkpt lat="47.3114599216" lon="7.6839414375">
				<ele>483.5</ele>
				<time>2021-04-12T11:22:19+02:00</time>
				<extensions>
					<swisstopo:routepoint_id>1637885629</swisstopo:routepoint_id>
				</extensions>
			</trkpt>
			<trkpt lat="47.3115120312" lon="7.6838042875">
				<ele>483.4</ele>
				<time>2021-04-12T11:22:20+02:00</time>
				<extensions>
					<swisstopo:routepoint_id>1498379357</swisstopo:routepoint_id>
				</extensions>
			</trkpt>
			<trkpt lat="47.3115628567" lon="7.6836671252">
				<ele>483.4</ele>
				<time>2021-04-12T11:22:21+02:00</time>
				<extensions>
					<swisstopo:routepoint_id>1868608377</swisstopo:routepoint_id>
				</extensions>
			</trkpt>
			<trkpt lat="47.3116127505" lon="7.6835295744">
				<ele>483.4</ele>
				<time>2021-04-12T11:22:22+02:00</time>
				<extensions>
					<swisstopo:routepoint_id>900138511</swisstopo:routepoint_id>
				</extensions>
			</trkpt>
			<trkpt lat="47.3116619909" lon="7.6833917572">
				<ele>483.4</ele>
				<time>2021-04-12T11:22:23+02:00</time>
				<extensions>
					<swisstopo:routepoint_id>1753144909</swisstopo:routepoint_id>
				</extensions>
			</trkpt>
			<trkpt lat="47.3117107373" lon="7.6832537451">
				<ele>483.5</ele>
				<time>2021-04-12T11:22:24+02:00</time>
				<extensions>
					<swisstopo:routepoint_id>1630848723</swisstopo:routepoint_id>
				</extensions>
			</trkpt>
			<trkpt lat="47.3117580648" lon="7.6831155814">
				<ele>483.5</ele>
				<time>2021-04-12T11:22:25+02:00</time>
				<extensions>
					<swisstopo:routepoint_id>1340700800</swisstopo:routepoint_id>
				</extensions>
			</trkpt>
			<trkpt lat="47.3118014080" lon="7.6829754271">
				<ele>483.5</ele>
				<time>2021-04-12T11:22:26+02:00</time>
				<extensions>
					<swisstopo:routepoint_id>1759921276</swisstopo:routepoint_id>
				</extensions>
			</trkpt>
			<trkpt lat="47.3118375487" lon="7.6828315358">
				<ele>483.4</ele>
				<time>2021-04-12T11:22:27+02:00</time>
				<extensions>
					<swisstopo:routepoint_id>1704615601</swisstopo:routepoint_id>
				</extensions>
			</trkpt>
			<trkpt lat="47.3118651561" lon="7.6826837923">
				<ele>483.4</ele>
				<time>2021-04-12T11:22:28+02:00</time>
				<extensions>
					<swisstopo:routepoint_id>2042555027</swisstopo:routepoint_id>
				</extensions>
			</trkpt>
			<trkpt lat="47.3118851810" lon="7.6825336382">
				<ele>483.3</ele>
				<time>2021-04-12T11:22:29+02:00</time>
				<extensions>
					<swisstopo:routepoint_id>1696241494</swisstopo:routepoint_id>
				</extensions>
			</trkpt>
			<trkpt lat="47.3118985500" lon="7.6823813579">
				<ele>483.2</ele>
				<time>2021-04-12T11:22:30+02:00</time>
				<extensions>
					<swisstopo:routepoint_id>885375733</swisstopo:routepoint_id>
				</extensions>
			</trkpt>
			<trkpt lat="47.3119065542" lon="7.6822262772">
				<ele>483.1</ele>
				<time>2021-04-12T11:22:31+02:00</time>
				<extensions>
					<swisstopo:routepoint_id>595754468</swisstopo:routepoint_id>
				</extensions>
			</trkpt>
			<trkpt lat="47.3119109293" lon="7.6820685341">
				<ele>483.0</ele>
				<time>2021-04-12T11:22:32+02:00</time>
				<extensions>
					<swisstopo:routepoint_id>1276581362</swisstopo:routepoint_id>
				</extensions>
			</trkpt>
			<trkpt lat="47.3119131846" lon="7.6819088403">
				<ele>482.9</ele>
				<time>2021-04-12T11:22:33+02:00</time>
				<extensions>
					<swisstopo:routepoint_id>2141317604</swisstopo:routepoint_id>
				</extensions>
			</trkpt>
			<trkpt lat="47.3119142418" lon="7.6817466523">
				<ele>482.8</ele>
				<time>2021-04-12T11:22:34+02:00</time>
				<extensions>
					<swisstopo:routepoint_id>1594014002</swisstopo:routepoint_id>
				</extensions>
			</trkpt>
			<trkpt lat="47.3119147711" lon="7.6815822450">
				<ele>482.7</ele>
				<time>2021-04-12T11:22:35+02:00</time>
				<extensions>
					<swisstopo:routepoint_id>734835289</swisstopo:routepoint_id>
				</extensions>
			</trkpt>
			<trkpt lat="47.3119153493" lon="7.6814157943">
				<ele>482.6</ele>
				<time>2021-04-12T11:22:36+02:00</time>
				<extensions>
					<swisstopo:routepoint_id>198248326</swisstopo:routepoint_id>
				</extensions>
			</trkpt>
			<trkpt lat="47.3119160914" lon="7.6812478243">
				<ele>482.5</ele>
				<time>2021-04-12T11:22:37+02:00</time>
				<extensions>
					<swisstopo:routepoint_id>1212478585</swisstopo:routepoint_id>
				</extensions>
			</trkpt>
			<trkpt lat="47.3119167874" lon="7.6810785823">
				<ele>482.4</ele>
				<time>2021-04-12T11:22:38+02:00</time>
				<extensions>
					<swisstopo:routepoint_id>655251712</swisstopo:routepoint_id>
				</extensions>
			</trkpt>
			<trkpt lat="47.3119173868" lon="7.6809085212">
				<ele>482.4</ele>
				<time>2021-04-12T11:22:39+02:00</time>
				<extensions>
					<swisstopo:routepoint_id>519381768</swisstopo:routepoint_id>
				</extensions>
			</trkpt>
			<trkpt lat="47.3119183616" lon="7.6807391335">
				<ele>482.3</ele>
				<time>2021-04-12T11:22:40+02:00</time>
				<extensions>
					<swisstopo:routepoint_id>1875833368</swisstopo:routepoint_id>
				</extensions>
			</trkpt>
			<trkpt lat="47.3119198437" lon="7.6805719929">
				<ele>482.3</ele>
				<time>2021-04-12T11:22:41+02:00</time>
				<extensions>
					<swisstopo:routepoint_id>2071478016</swisstopo:routepoint_id>
				</extensions>
			</trkpt>
			<trkpt lat="47.3119217828" lon="7.6804073347">
				<ele>482.3</ele>
				<time>2021-04-12T11:22:42+02:00</time>
				<extensions>
					<swisstopo:routepoint_id>326129748</swisstopo:routepoint_id>
				</extensions>
			</trkpt>
			<trkpt lat="47.3119243071" lon="7.6802432797">
				<ele>482.2</ele>
				<time>2021-04-12T11:22:43+02:00</time>
				<extensions>
					<swisstopo:routepoint_id>884407492</swisstopo:routepoint_id>
				</extensions>
			</trkpt>
			<trkpt lat="47.3119277859" lon="7.6800787491">
				<ele>482.2</ele>
				<time>2021-04-12T11:22:44+02:00</time>
				<extensions>
					<swisstopo:routepoint_id>1502397157</swisstopo:routepoint_id>
				</extensions>
			</trkpt>
			<trkpt lat="47.3119322471" lon="7.6799124286">
				<ele>482.3</ele>
				<time>2021-04-12T11:22:45+02:00</time>
				<extensions>
					<swisstopo:routepoint_id>676296273</swisstopo:routepoint_id>
				</extensions>
			</trkpt>
			<trkpt lat="47.3119379424" lon="7.6797441611">
				<ele>482.3</ele>
				<time>2021-04-12T11:22:46+02:00</time>
				<extensions>
					<swisstopo:routepoint_id>2028000387</swisstopo:routepoint_id>
				</extensions>
			</trkpt>
			<trkpt lat="47.3119449272" lon="7.6795736713">
				<ele>482.4</ele>
				<time>2021-04-12T11:22:47+02:00</time>
				<extensions>
					<swisstopo:routepoint_id>1889542772</swisstopo:routepoint_id>
				</extensions>
			</trkpt>
			<trkpt lat="47.3119527701" lon="7.6794011417">
				<ele>482.6</ele>
				<time>2021-04-12T11:22:48+02:00</time>
				<extensions>
					<swisstopo:routepoint_id>557197168</swisstopo:routepoint_id>
				</extensions>
			</trkpt>
			<trkpt lat="47.3119612927" lon="7.6792261901">
				<ele>482.7</ele>
				<time>2021-04-12T11:22:49+02:00</time>
				<extensions>
					<swisstopo:routepoint_id>1784101656</swisstopo:routepoint_id>
				</extensions>
			</trkpt>
			<trkpt lat="47.3119702103" lon="7.6790491291">
				<ele>482.9</ele>
				<time>2021-04-12T11:22:50+02:00</time>
				<extensions>
					<swisstopo:routepoint_id>82369331</swisstopo:routepoint_id>
				</extensions>
			</trkpt>
			<trkpt lat="47.3119790494" lon="7.6788691583">
				<ele>483.1</ele>
				<time>2021-04-12T11:22:51+02:00</time>
				<extensions>
					<swisstopo:routepoint_id>1401877449</swisstopo:routepoint_id>
				</extensions>
			</trkpt>
			<trkpt lat="47.3119879862" lon="7.6786865692">
				<ele>483.3</ele>
				<time>2021-04-12T11:22:52+02:00</time>
				<extensions>
					<swisstopo:routepoint_id>1311194106</swisstopo:routepoint_id>
				</extensions>
			</trkpt>
			<trkpt lat="47.3119968333" lon="7.6784996374">
				<ele>483.5</ele>
				<time>2021-04-12T11:22:54+02:00</time>
				<extensions>
					<swisstopo:routepoint_id>1909637675</swisstopo:routepoint_id>
				</extensions>
			</trkpt>
			<trkpt lat="47.3120053777" lon="7.6783136905">
				<ele>483.7</ele>
				<time>2021-04-12T11:22:55+02:00</time>
				<extensions>
					<swisstopo:routepoint_id>1137299310</swisstopo:routepoint_id>
				</extensions>
			</trkpt>
			<trkpt lat="47.3120136445" lon="7.6781262108">
				<ele>483.9</ele>
				<time>2021-04-12T11:22:56+02:00</time>
				<extensions>
					<swisstopo:routepoint_id>1985044870</swisstopo:routepoint_id>
				</extensions>
			</trkpt>
			<trkpt lat="47.3120215853" lon="7.6779373534">
				<ele>484.1</ele>
				<time>2021-04-12T11:22:57+02:00</time>
				<extensions>
					<swisstopo:routepoint_id>1490673945</swisstopo:routepoint_id>
				</extensions>
			</trkpt>
			<trkpt lat="47.3120291463" lon="7.6777469818">
				<ele>484.3</ele>
				<time>2021-04-12T11:22:58+02:00</time>
				<extensions>
					<swisstopo:routepoint_id>1212767713</swisstopo:routepoint_id>
				</extensions>
			</trkpt>
			<trkpt lat="47.3120364675" lon="7.6775550542">
				<ele>484.5</ele>
				<time>2021-04-12T11:22:59+02:00</time>
				<extensions>
					<swisstopo:routepoint_id>1219658714</swisstopo:routepoint_id>
				</extensions>
			</trkpt>
			<trkpt lat="47.3120437070" lon="7.6773613932">
				<ele>484.6</ele>
				<time>2021-04-12T11:23:00+02:00</time>
				<extensions>
					<swisstopo:routepoint_id>1072595583</swisstopo:routepoint_id>
				</extensions>
			</trkpt>
			<trkpt lat="47.3120508375" lon="7.6771658301">
				<ele>484.9</ele>
				<time>2021-04-12T11:23:01+02:00</time>
				<extensions>
					<swisstopo:routepoint_id>1136230563</swisstopo:routepoint_id>
				</extensions>
			</trkpt>
			<trkpt lat="47.3120578392" lon="7.6769681619">
				<ele>485.1</ele>
				<time>2021-04-12T11:23:02+02:00</time>
				<extensions>
					<swisstopo:routepoint_id>1202483217</swisstopo:routepoint_id>
				</extensions>
			</trkpt>
			<trkpt lat="47.3120648476" lon="7.6767686405">
				<ele>485.3</ele>
				<time>2021-04-12T11:23:03+02:00</time>
				<extensions>
					<swisstopo:routepoint_id>166826202</swisstopo:routepoint_id>
				</extensions>
			</trkpt>
			<trkpt lat="47.3120721673" lon="7.6765678760">
				<ele>485.4</ele>
				<time>2021-04-12T11:23:04+02:00</time>
				<extensions>
					<swisstopo:routepoint_id>1381817679</swisstopo:routepoint_id>
				</extensions>
			</trkpt>
			<trkpt lat="47.3120794373" lon="7.6763659370">
				<ele>485.5</ele>
				<time>2021-04-12T11:23:05+02:00</time>
				<extensions>
					<swisstopo:routepoint_id>1321572295</swisstopo:routepoint_id>
				</extensions>
			</trkpt>
			<trkpt lat="47.3120867744" lon="7.6761630676">
				<ele>485.6</ele>
				<time>2021-04-12T11:23:06+02:00</time>
				<extensions>
					<swisstopo:routepoint_id>242201144</swisstopo:routepoint_id>
				</extensions>
			</trkpt>
			<trkpt lat="47.3120946199" lon="7.6759586815">
				<ele>485.6</ele>
				<time>2021-04-12T11:23:07+02:00</time>
				<extensions>
					<swisstopo:routepoint_id>1193116143</swisstopo:routepoint_id>
				</extensions>
			</trkpt>
			<trkpt lat="47.3121034990" lon="7.6757527391">
				<ele>485.6</ele>
				<time>2021-04-12T11:23:08+02:00</time>
				<extensions>
					<swisstopo:routepoint_id>1648203362</swisstopo:routepoint_id>
				</extensions>
			</trkpt>
			<trkpt lat="47.3121138277" lon="7.6755448224">
				<ele>485.6</ele>
				<time>2021-04-12T11:23:09+02:00</time>
				<extensions>
					<swisstopo:routepoint_id>962342481</swisstopo:routepoint_id>
				</extensions>
			</trkpt>
			<trkpt lat="47.3121256970" lon="7.6753351157">
				<ele>485.5</ele>
				<time>2021-04-12T11:23:10+02:00</time>
				<extensions>
					<swisstopo:routepoint_id>1390732610</swisstopo:routepoint_id>
				</extensions>
			</trkpt>
			<trkpt lat="47.3121389162" lon="7.6751232037">
				<ele>485.4</ele>
				<time>2021-04-12T11:23:11+02:00</time>
				<extensions>
					<swisstopo:routepoint_id>830962322</swisstopo:routepoint_id>
				</extensions>
			</trkpt>
			<trkpt lat="47.3121532123" lon="7.6749090430">
				<ele>485.2</ele>
				<time>2021-04-12T11:23:12+02:00</time>
				<extensions>
					<swisstopo:routepoint_id>897589413</swisstopo:routepoint_id>
				</extensions>
			</trkpt>
			<trkpt lat="47.3121681980" lon="7.6746932768">
				<ele>485.1</ele>
				<time>2021-04-12T11:23:13+02:00</time>
				<extensions>
					<swisstopo:routepoint_id>1860127763</swisstopo:routepoint_id>
				</extensions>
			</trkpt>
			<trkpt lat="47.3121837979" lon="7.6744767737">
				<ele>485.0</ele>
				<time>2021-04-12T11:23:14+02:00</time>
				<extensions>
					<swisstopo:routepoint_id>100379715</swisstopo:routepoint_id>
				</extensions>
			</trkpt>
			<trkpt lat="47.3121995687" lon="7.6742599993">
				<ele>485.0</ele>
				<time>2021-04-12T11:23:15+02:00</time>
				<extensions>
					<swisstopo:routepoint_id>1307207110</swisstopo:routepoint_id>
				</extensions>
			</trkpt>
			<trkpt lat="47.3122153312" lon="7.6740429985">
				<ele>484.9</ele>
				<time>2021-04-12T11:23:16+02:00</time>
				<extensions>
					<swisstopo:routepoint_id>1472188960</swisstopo:routepoint_id>
				</extensions>
			</trkpt>
			<trkpt lat="47.3122302743" lon="7.6738260797">
				<ele>484.8</ele>
				<time>2021-04-12T11:23:16+02:00</time>
				<extensions>
					<swisstopo:routepoint_id>1920753633</swisstopo:routepoint_id>
				</extensions>
			</trkpt>
			<trkpt lat="47.3122437281" lon="7.6736091478">
				<ele>484.8</ele>
				<time>2021-04-12T11:23:17+02:00</time>
				<extensions>
					<swisstopo:routepoint_id>1132128127</swisstopo:routepoint_id>
				</extensions>
			</trkpt>
			<trkpt lat="47.3122550655" lon="7.6733929703">
				<ele>484.8</ele>
				<time>2021-04-12T11:23:18+02:00</time>
				<extensions>
					<swisstopo:routepoint_id>972318069</swisstopo:routepoint_id>
				</extensions>
			</trkpt>
			<trkpt lat="47.3122637151" lon="7.6731769147">
				<ele>484.8</ele>
				<time>2021-04-12T11:23:19+02:00</time>
				<extensions>
					<swisstopo:routepoint_id>1546715660</swisstopo:routepoint_id>
				</extensions>
			</trkpt>
			<trkpt lat="47.3122697995" lon="7.6729610680">
				<ele>484.9</ele>
				<time>2021-04-12T11:23:20+02:00</time>
				<extensions>
					<swisstopo:routepoint_id>360550685</swisstopo:routepoint_id>
				</extensions>
			</trkpt>
			<trkpt lat="47.3122737376" lon="7.6727456763">
				<ele>484.9</ele>
				<time>2021-04-12T11:23:21+02:00</time>
				<extensions>
					<swisstopo:routepoint_id>1723994608</swisstopo:routepoint_id>
				</extensions>
			</trkpt>
			<trkpt lat="47.3122754354" lon="7.6725311092">
				<ele>485.0</ele>
				<time>2021-04-12T11:23:22+02:00</time>
				<extensions>
					<swisstopo:routepoint_id>1328011332</swisstopo:routepoint_id>
				</extensions>
			</trkpt>
			<trkpt lat="47.3122750981" lon="7.6723172390">
				<ele>485.0</ele>
				<time>2021-04-12T11:23:23+02:00</time>
				<extensions>
					<swisstopo:routepoint_id>1088913653</swisstopo:routepoint_id>
				</extensions>
			</trkpt>
			<trkpt lat="47.3122730105" lon="7.6721041919">
				<ele>485.1</ele>
				<time>2021-04-12T11:23:24+02:00</time>
				<extensions>
					<swisstopo:routepoint_id>516126237</swisstopo:routepoint_id>
				</extensions>
			</trkpt>
			<trkpt lat="47.3122695617" lon="7.6718926948">
				<ele>485.1</ele>
				<time>2021-04-12T11:23:25+02:00</time>
				<extensions>
					<swisstopo:routepoint_id>847215026</swisstopo:routepoint_id>
				</extensions>
			</trkpt>
			<trkpt lat="47.3122651148" lon="7.6716834366">
				<ele>485.2</ele>
				<time>2021-04-12T11:23:26+02:00</time>
				<extensions>
					<swisstopo:routepoint_id>1326362372</swisstopo:routepoint_id>
				</extensions>
			</trkpt>
			<trkpt lat="47.3122602133" lon="7.6714764594">
				<ele>485.3</ele>
				<time>2021-04-12T11:23:27+02:00</time>
				<extensions>
					<swisstopo:routepoint_id>1292130344</swisstopo:routepoint_id>
				</extensions>
			</trkpt>
			<trkpt lat="47.3122548835" lon="7.6712718434">
				<ele>485.4</ele>
				<time>2021-04-12T11:23:28+02:00</time>
				<extensions>
					<swisstopo:routepoint_id>1480053144</swisstopo:routepoint_id>
				</extensions>
			</trkpt>
			<trkpt lat="47.3122497140" lon="7.6710692724">
				<ele>485.5</ele>
				<time>2021-04-12T11:23:29+02:00</time>
				<extensions>
					<swisstopo:routepoint_id>950108007</swisstopo:routepoint_id>
				</extensions>
			</trkpt>
			<trkpt lat="47.3122449370" lon="7.6708680430">
				<ele>485.6</ele>
				<time>2021-04-12T11:23:30+02:00</time>
				<extensions>
					<swisstopo:routepoint_id>1924358204</swisstopo:routepoint_id>
				</extensions>
			</trkpt>
			<trkpt lat="47.3122403504" lon="7.6706674514">
				<ele>485.7</ele>
				<time>2021-04-12T11:23:31+02:00</time>
				<extensions>
					<swisstopo:routepoint_id>1584610808</swisstopo:routepoint_id>
				</extensions>
			</trkpt>
			<trkpt lat="47.3122360560" lon="7.6704672665">
				<ele>485.8</ele>
				<time>2021-04-12T11:23:32+02:00</time>
				<extensions>
					<swisstopo:routepoint_id>1609143609</swisstopo:routepoint_id>
				</extensions>
			</trkpt>
			<trkpt lat="47.3122320430" lon="7.6702671814">
				<ele>485.9</ele>
				<time>2021-04-12T11:23:33+02:00</time>
				<extensions>
					<swisstopo:routepoint_id>1615069792</swisstopo:routepoint_id>
				</extensions>
			</trkpt>
			<trkpt lat="47.3122282039" lon="7.6700668720">
				<ele>486.0</ele>
				<time>2021-04-12T11:23:34+02:00</time>
				<extensions>
					<swisstopo:routepoint_id>284696064</swisstopo:routepoint_id>
				</extensions>
			</trkpt>
			<trkpt lat="47.3122246900" lon="7.6698659531">
				<ele>486.1</ele>
				<time>2021-04-12T11:23:35+02:00</time>
				<extensions>
					<swisstopo:routepoint_id>293182132</swisstopo:routepoint_id>
				</extensions>
			</trkpt>
			<trkpt lat="47.3122214031" lon="7.6696639248">
				<ele>486.1</ele>
				<time>2021-04-12T11:23:36+02:00</time>
				<extensions>
					<swisstopo:routepoint_id>1184606306</swisstopo:routepoint_id>
				</extensions>
			</trkpt>
			<trkpt lat="47.3122184177" lon="7.6694605978">
				<ele>486.2</ele>
				<time>2021-04-12T11:23:37+02:00</time>
				<extensions>
					<swisstopo:routepoint_id>357293605</swisstopo:routepoint_id>
				</extensions>
			</trkpt>
			<trkpt lat="47.3122158441" lon="7.6692545608">
				<ele>486.2</ele>
				<time>2021-04-12T11:23:38+02:00</time>
				<extensions>
					<swisstopo:routepoint_id>669342223</swisstopo:routepoint_id>
				</extensions>
			</trkpt>
			<trkpt lat="47.3122137094" lon="7.6690444909">
				<ele>486.2</ele>
				<time>2021-04-12T11:23:39+02:00</time>
				<extensions>
					<swisstopo:routepoint_id>1115398975</swisstopo:routepoint_id>
				</extensions>
			</trkpt>
			<trkpt lat="47.3122118328" lon="7.6688294268">
				<ele>486.1</ele>
				<time>2021-04-12T11:23:40+02:00</time>
				<extensions>
					<swisstopo:routepoint_id>1125818162</swisstopo:routepoint_id>
				</extensions>
			</trkpt>
			<trkpt lat="47.3122099437" lon="7.6686083884">
				<ele>486.0</ele>
				<time>2021-04-12T11:23:41+02:00</time>
				<extensions>
					<swisstopo:routepoint_id>147435017</swisstopo:routepoint_id>
				</extensions>
			</trkpt>
			<trkpt lat="47.3122080088" lon="7.6683811433">
				<ele>485.9</ele>
				<time>2021-04-12T11:23:42+02:00</time>
				<extensions>
					<swisstopo:routepoint_id>1891685728</swisstopo:routepoint_id>
				</extensions>
			</trkpt>
			<trkpt lat="47.3122059958" lon="7.6681482428">
				<ele>485.8</ele>
				<time>2021-04-12T11:23:43+02:00</time>
				<extensions>
					<swisstopo:routepoint_id>66636661</swisstopo:routepoint_id>
				</extensions>
			</trkpt>
			<trkpt lat="47.3122034580" lon="7.6679102234">
				<ele>485.7</ele>
				<time>2021-04-12T11:23:44+02:00</time>
				<extensions>
					<swisstopo:routepoint_id>1123381340</swisstopo:routepoint_id>
				</extensions>
			</trkpt>
			<trkpt lat="47.3122005407" lon="7.6676680487">
				<ele>485.5</ele>
				<time>2021-04-12T11:23:45+02:00</time>
				<extensions>
					<swisstopo:routepoint_id>2141440603</swisstopo:routepoint_id>
				</extensions>
			</trkpt>
			<trkpt lat="47.3121974123" lon="7.6674228063">
				<ele>485.4</ele>
				<time>2021-04-12T11:23:46+02:00</time>
				<extensions>
					<swisstopo:routepoint_id>1513774548</swisstopo:routepoint_id>
				</extensions>
			</trkpt>
			<trkpt lat="47.3121940033" lon="7.6671750902">
				<ele>485.3</ele>
				<time>2021-04-12T11:23:47+02:00</time>
				<extensions>
					<swisstopo:routepoint_id>770062227</swisstopo:routepoint_id>
				</extensions>
			</trkpt>
			<trkpt lat="47.3121904447" lon="7.6669252582">
				<ele>485.2</ele>
				<time>2021-04-12T11:23:48+02:00</time>
				<extensions>
					<swisstopo:routepoint_id>1699392367</swisstopo:routepoint_id>
				</extensions>
			</trkpt>
			<trkpt lat="47.3121869465" lon="7.6666738128">
				<ele>485.0</ele>
				<time>2021-04-12T11:23:49+02:00</time>
				<extensions>
					<swisstopo:routepoint_id>155007069</swisstopo:routepoint_id>
				</extensions>
			</trkpt>
			<trkpt lat="47.3121835503" lon="7.6664212955">
				<ele>484.9</ele>
				<time>2021-04-12T11:23:50+02:00</time>
				<extensions>
					<swisstopo:routepoint_id>306144872</swisstopo:routepoint_id>
				</extensions>
			</trkpt>
			<trkpt lat="47.3121801828" lon="7.6661682760">
				<ele>484.8</ele>
				<time>2021-04-12T11:23:51+02:00</time>
				<extensions>
					<swisstopo:routepoint_id>6045492</swisstopo:routepoint_id>
				</extensions>
			</trkpt>
			<trkpt lat="47.3121768263" lon="7.6659151134">
				<ele>484.6</ele>
				<time>2021-04-12T11:23:52+02:00</time>
				<extensions>
					<swisstopo:routepoint_id>674852635</swisstopo:routepoint_id>
				</extensions>
			</trkpt>
			<trkpt lat="47.3121733724" lon="7.6656624519">
				<ele>484.5</ele>
				<time>2021-04-12T11:23:53+02:00</time>
				<extensions>
					<swisstopo:routepoint_id>1387096638</swisstopo:routepoint_id>
				</extensions>
			</trkpt>
			<trkpt lat="47.3121699730" lon="7.6654107108">
				<ele>484.3</ele>
				<time>2021-04-12T11:23:54+02:00</time>
				<extensions>
					<swisstopo:routepoint_id>1998206681</swisstopo:routepoint_id>
				</extensions>
			</trkpt>
			<trkpt lat="47.3121666932" lon="7.6651606823">
				<ele>484.2</ele>
				<time>2021-04-12T11:23:55+02:00</time>
				<extensions>
					<swisstopo:routepoint_id>1510415781</swisstopo:routepoint_id>
				</extensions>
			</trkpt>
			<trkpt lat="47.3121635190" lon="7.6649135571">
				<ele>484.0</ele>
				<time>2021-04-12T11:23:56+02:00</time>
				<extensions>
					<swisstopo:routepoint_id>153840080</swisstopo:routepoint_id>
				</extensions>
			</trkpt>
			<trkpt lat="47.3121600670" lon="7.6646698726">
				<ele>483.9</ele>
				<time>2021-04-12T11:23:57+02:00</time>
				<extensions>
					<swisstopo:routepoint_id>19913572</swisstopo:routepoint_id>
				</extensions>
			</trkpt>
			<trkpt lat="47.3121564264" lon="7.6644309400">
				<ele>483.8</ele>
				<time>2021-04-12T11:23:58+02:00</time>
				<extensions>
					<swisstopo:routepoint_id>1827439319</swisstopo:routepoint_id>
				</extensions>
			</trkpt>
			<trkpt lat="47.3121527389" lon="7.6641981646">
				<ele>483.7</ele>
				<time>2021-04-12T11:23:59+02:00</time>
				<extensions>
					<swisstopo:routepoint_id>461515039</swisstopo:routepoint_id>
				</extensions>
			</trkpt>
			<trkpt lat="47.3121492275" lon="7.6639720964">
				<ele>483.6</ele>
				<time>2021-04-12T11:24:00+02:00</time>
				<extensions>
					<swisstopo:routepoint_id>2119811156</swisstopo:routepoint_id>
				</extensions>
			</trkpt>
			<trkpt lat="47.3121463352" lon="7.6637538708">
				<ele>483.5</ele>
				<time>2021-04-12T11:24:01+02:00</time>
				<extensions>
					<swisstopo:routepoint_id>912395162</swisstopo:routepoint_id>
				</extensions>
			</trkpt>
			<trkpt lat="47.3121443806" lon="7.6635431984">
				<ele>483.5</ele>
				<time>2021-04-12T11:24:02+02:00</time>
				<extensions>
					<swisstopo:routepoint_id>1592248154</swisstopo:routepoint_id>
				</extensions>
			</trkpt>
			<trkpt lat="47.3121435462" lon="7.6633404230">
				<ele>483.4</ele>
				<time>2021-04-12T11:24:03+02:00</time>
				<extensions>
					<swisstopo:routepoint_id>1120999011</swisstopo:routepoint_id>
				</extensions>
			</trkpt>
			<trkpt lat="47.3121440023" lon="7.6631453284">
				<ele>483.5</ele>
				<time>2021-04-12T11:24:04+02:00</time>
				<extensions>
					<swisstopo:routepoint_id>756342746</swisstopo:routepoint_id>
				</extensions>
			</trkpt>
			<trkpt lat="47.3121457640" lon="7.6629570292">
				<ele>483.5</ele>
				<time>2021-04-12T11:24:05+02:00</time>
				<extensions>
					<swisstopo:routepoint_id>896825429</swisstopo:routepoint_id>
				</extensions>
			</trkpt>
			<trkpt lat="47.3121475873" lon="7.6627741799">
				<ele>483.6</ele>
				<time>2021-04-12T11:24:06+02:00</time>
				<extensions>
					<swisstopo:routepoint_id>1904750557</swisstopo:routepoint_id>
				</extensions>
			</trkpt>
			<trkpt lat="47.3121478299" lon="7.6625961212">
				<ele>483.6</ele>
				<time>2021-04-12T11:24:07+02:00</time>
				<extensions>
					<swisstopo:routepoint_id>603885670</swisstopo:routepoint_id>
				</extensions>
			</trkpt>
			<trkpt lat="47.3121461000" lon="7.6624218931">
				<ele>483.7</ele>
				<time>2021-04-12T11:24:08+02:00</time>
				<extensions>
					<swisstopo:routepoint_id>498739968</swisstopo:routepoint_id>
				</extensions>
			</trkpt>
			<trkpt lat="47.3121430204" lon="7.6622503742">
				<ele>483.9</ele>
				<time>2021-04-12T11:24:09+02:00</time>
				<extensions>
					<swisstopo:routepoint_id>693967935</swisstopo:routepoint_id>
				</extensions>
			</trkpt>
			<trkpt lat="47.3121388472" lon="7.6620805465">
				<ele>484.0</ele>
				<time>2021-04-12T11:24:10+02:00</time>
				<extensions>
					<swisstopo:routepoint_id>535396688</swisstopo:routepoint_id>
				</extensions>
			</trkpt>
			<trkpt lat="47.3121340982" lon="7.6619116661">
				<ele>484.2</ele>
				<time>2021-04-12T11:24:11+02:00</time>
				<extensions>
					<swisstopo:routepoint_id>455654286</swisstopo:routepoint_id>
				</extensions>
			</trkpt>
			<trkpt lat="47.3121293265" lon="7.6617431508">
				<ele>484.4</ele>
				<time>2021-04-12T11:24:12+02:00</time>
				<extensions>
					<swisstopo:routepoint_id>254899600</swisstopo:routepoint_id>
				</extensions>
			</trkpt>
			<trkpt lat="47.3121246936" lon="7.6615746249">
				<ele>484.6</ele>
				<time>2021-04-12T11:24:13+02:00</time>
				<extensions>
					<swisstopo:routepoint_id>2015185082</swisstopo:routepoint_id>
				</extensions>
			</trkpt>
			<trkpt lat="47.3121203129" lon="7.6614057244">
				<ele>484.7</ele>
				<time>2021-04-12T11:24:14+02:00</time>
				<extensions>
					<swisstopo:routepoint_id>1251076337</swisstopo:routepoint_id>
				</extensions>
			</trkpt>
			<trkpt lat="47.3121163449" lon="7.6612364940">
				<ele>484.9</ele>
				<time>2021-04-12T11:24:15+02:00</time>
				<extensions>
					<swisstopo:routepoint_id>827608182</swisstopo:routepoint_id>
				</extensions>
			</trkpt>
			<trkpt lat="47.3121127996" lon="7.6610671494">
				<ele>485.2</ele>
				<time>2021-04-12T11:24:16+02:00</time>
				<extensions>
					<swisstopo:routepoint_id>359133255</swisstopo:routepoint_id>
				</extensions>
			</trkpt>
			<trkpt lat="47.3121099034" lon="7.6608976755">
				<ele>485.4</ele>
				<time>2021-04-12T11:24:17+02:00</time>
				<extensions>
					<swisstopo:routepoint_id>1523568715</swisstopo:routepoint_id>
				</extensions>
			</trkpt>
			<trkpt lat="47.3121074097" lon="7.6607278340">
				<ele>485.7</ele>
				<time>2021-04-12T11:24:18+02:00</time>
				<extensions>
					<swisstopo:routepoint_id>24386177</swisstopo:routepoint_id>
				</extensions>
			</trkpt>
			<trkpt lat="47.3121047120" lon="7.6605574470">
				<ele>486.0</ele>
				<time>2021-04-12T11:24:19+02:00</time>
				<extensions>
					<swisstopo:routepoint_id>1836583909</swisstopo:routepoint_id>
				</extensions>
			</trkpt>
			<trkpt lat="47.3121015377" lon="7.6603865941">
				<ele>486.3</ele>
				<time>2021-04-12T11:24:20+02:00</time>
				<extensions>
					<swisstopo:routepoint_id>1683300232</swisstopo:routepoint_id>
				</extensions>
			</trkpt>
			<trkpt lat="47.3120978008" lon="7.6602154870">
				<ele>486.7</ele>
				<time>2021-04-12T11:24:21+02:00</time>
				<extensions>
					<swisstopo:routepoint_id>277433646</swisstopo:routepoint_id>
				</extensions>
			</trkpt>
			<trkpt lat="47.3120939795" lon="7.6600446869">
				<ele>487.1</ele>
				<time>2021-04-12T11:24:22+02:00</time>
				<extensions>
					<swisstopo:routepoint_id>640290685</swisstopo:routepoint_id>
				</extensions>
			</trkpt>
			<trkpt lat="47.3120902415" lon="7.6598743906">
				<ele>487.5</ele>
				<time>2021-04-12T11:24:23+02:00</time>
				<extensions>
					<swisstopo:routepoint_id>324987678</swisstopo:routepoint_id>
				</extensions>
			</trkpt>
			<trkpt lat="47.3120868252" lon="7.6597054597">
				<ele>488.0</ele>
				<time>2021-04-12T11:24:24+02:00</time>
				<extensions>
					<swisstopo:routepoint_id>1016989825</swisstopo:routepoint_id>
				</extensions>
			</trkpt>
			<trkpt lat="47.3120834208" lon="7.6595379087">
				<ele>488.5</ele>
				<time>2021-04-12T11:24:25+02:00</time>
				<extensions>
					<swisstopo:routepoint_id>725642302</swisstopo:routepoint_id>
				</extensions>
			</trkpt>
			<trkpt lat="47.3120798241" lon="7.6593719679">
				<ele>488.9</ele>
				<time>2021-04-12T11:24:26+02:00</time>
				<extensions>
					<swisstopo:routepoint_id>310538401</swisstopo:routepoint_id>
				</extensions>
			</trkpt>
			<trkpt lat="47.3120759921" lon="7.6592075656">
				<ele>489.4</ele>
				<time>2021-04-12T11:24:27+02:00</time>
				<extensions>
					<swisstopo:routepoint_id>833643397</swisstopo:routepoint_id>
				</extensions>
			</trkpt>
			<trkpt lat="47.3120721840" lon="7.6590446058">
				<ele>489.9</ele>
				<time>2021-04-12T11:24:28+02:00</time>
				<extensions>
					<swisstopo:routepoint_id>861260351</swisstopo:routepoint_id>
				</extensions>
			</trkpt>
			<trkpt lat="47.3120690020" lon="7.6588829649">
				<ele>490.3</ele>
				<time>2021-04-12T11:24:29+02:00</time>
				<extensions>
					<swisstopo:routepoint_id>1162938477</swisstopo:routepoint_id>
				</extensions>
			</trkpt>
			<trkpt lat="47.3120664884" lon="7.6587230301">
				<ele>490.8</ele>
				<time>2021-04-12T11:24:30+02:00</time>
				<extensions>
					<swisstopo:routepoint_id>1258311592</swisstopo:routepoint_id>
				</extensions>
			</trkpt>
			<trkpt lat="47.3120643620" lon="7.6585641745">
				<ele>491.2</ele>
				<time>2021-04-12T11:24:31+02:00</time>
				<extensions>
					<swisstopo:routepoint_id>23971088</swisstopo:routepoint_id>
				</extensions>
			</trkpt>
			<trkpt lat="47.3120623936" lon="7.6584063488">
				<ele>491.5</ele>
				<time>2021-04-12T11:24:32+02:00</time>
				<extensions>
					<swisstopo:routepoint_id>1302634027</swisstopo:routepoint_id>
				</extensions>
			</trkpt>
			<trkpt lat="47.3120603714" lon="7.6582492144">
				<ele>491.9</ele>
				<time>2021-04-12T11:24:33+02:00</time>
				<extensions>
					<swisstopo:routepoint_id>1921794271</swisstopo:routepoint_id>
				</extensions>
			</trkpt>
			<trkpt lat="47.3120584336" lon="7.6580925697">
				<ele>492.1</ele>
				<time>2021-04-12T11:24:34+02:00</time>
				<extensions>
					<swisstopo:routepoint_id>1442261817</swisstopo:routepoint_id>
				</extensions>
			</trkpt>
			<trkpt lat="47.3120564729" lon="7.6579358834">
				<ele>492.4</ele>
				<time>2021-04-12T11:24:35+02:00</time>
				<extensions>
					<swisstopo:routepoint_id>1446434630</swisstopo:routepoint_id>
				</extensions>
			</trkpt>
			<trkpt lat="47.3120547997" lon="7.6577786395">
				<ele>492.5</ele>
				<time>2021-04-12T11:24:36+02:00</time>
				<extensions>
					<swisstopo:routepoint_id>711942370</swisstopo:routepoint_id>
				</extensions>
			</trkpt>
			<trkpt lat="47.3120531827" lon="7.6576212602">
				<ele>492.7</ele>
				<time>2021-04-12T11:24:37+02:00</time>
				<extensions>
					<swisstopo:routepoint_id>1984015153</swisstopo:routepoint_id>
				</extensions>
			</trkpt>
			<trkpt lat="47.3120515924" lon="7.6574641153">
				<ele>492.8</ele>
				<time>2021-04-12T11:24:38+02:00</time>
				<extensions>
					<swisstopo:routepoint_id>1364089502</swisstopo:routepoint_id>
				</extensions>
			</trkpt>
			<trkpt lat="47.3120500524" lon="7.6573074614">
				<ele>492.8</ele>
				<time>2021-04-12T11:24:39+02:00</time>
				<extensions>
					<swisstopo:routepoint_id>1864328389</swisstopo:routepoint_id>
				</extensions>
			</trkpt>
			<trkpt lat="47.3120482231" lon="7.6571516510">
				<ele>492.9</ele>
				<time>2021-04-12T11:24:40+02:00</time>
				<extensions>
					<swisstopo:routepoint_id>1980824193</swisstopo:routepoint_id>
				</extensions>
			</trkpt>
			<trkpt lat="47.3120464098" lon="7.6569964868">
				<ele>492.9</ele>
				<time>2021-04-12T11:24:41+02:00</time>
				<extensions>
					<swisstopo:routepoint_id>1420715957</swisstopo:routepoint_id>
				</extensions>
			</trkpt>
			<trkpt lat="47.3120450767" lon="7.6568413925">
				<ele>492.9</ele>
				<time>2021-04-12T11:24:42+02:00</time>
				<extensions>
					<swisstopo:routepoint_id>102418306</swisstopo:routepoint_id>
				</extensions>
			</trkpt>
			<trkpt lat="47.3120445925" lon="7.6566862399">
				<ele>492.8</ele>
				<time>2021-04-12T11:24:43+02:00</time>
				<extensions>
					<swisstopo:routepoint_id>1210067695</swisstopo:routepoint_id>
				</extensions>
			</trkpt>
			<trkpt lat="47.3120451079" lon="7.6565304711">
				<ele>492.8</ele>
				<time>2021-04-12T11:24:44+02:00</time>
				<extensions>
					<swisstopo:routepoint_id>937612775</swisstopo:routepoint_id>
				</extensions>
			</trkpt>
			<trkpt lat="47.3120461844" lon="7.6563735802">
				<ele>492.8</ele>
				<time>2021-04-12T11:24:45+02:00</time>
				<extensions>
					<swisstopo:routepoint_id>222907739</swisstopo:routepoint_id>
				</extensions>
			</trkpt>
			<trkpt lat="47.3120469464" lon="7.6562151920">
				<ele>492.8</ele>
				<time>2021-04-12T11:24:46+02:00</time>
				<extensions>
					<swisstopo:routepoint_id>1198889005</swisstopo:routepoint_id>
				</extensions>
			</trkpt>
			<trkpt lat="47.3120461770" lon="7.6560550532">
				<ele>492.8</ele>
				<time>2021-04-12T11:24:47+02:00</time>
				<extensions>
					<swisstopo:routepoint_id>2035930881</swisstopo:routepoint_id>
				</extensions>
			</trkpt>
			<trkpt lat="47.3120435624" lon="7.6558932581">
				<ele>492.8</ele>
				<time>2021-04-12T11:24:48+02:00</time>
				<extensions>
					<swisstopo:routepoint_id>2033369316</swisstopo:routepoint_id>
				</extensions>
			</trkpt>
			<trkpt lat="47.3120395572" lon="7.6557292682">
				<ele>492.8</ele>
				<time>2021-04-12T11:24:49+02:00</time>
				<extensions>
					<swisstopo:routepoint_id>1930819301</swisstopo:routepoint_id>
				</extensions>
			</trkpt>
			<trkpt lat="47.3120350485" lon="7.6555631544">
				<ele>492.8</ele>
				<time>2021-04-12T11:24:50+02:00</time>
				<extensions>
					<swisstopo:routepoint_id>654602090</swisstopo:routepoint_id>
				</extensions>
			</trkpt>
			<trkpt lat="47.3120303772" lon="7.6553956559">
				<ele>492.9</ele>
				<time>2021-04-12T11:24:51+02:00</time>
				<extensions>
					<swisstopo:routepoint_id>338603049</swisstopo:routepoint_id>
				</extensions>
			</trkpt>
			<trkpt lat="47.3120256807" lon="7.6552269535">
				<ele>492.9</ele>
				<time>2021-04-12T11:24:52+02:00</time>
				<extensions>
					<swisstopo:routepoint_id>69779993</swisstopo:routepoint_id>
				</extensions>
			</trkpt>
			<trkpt lat="47.3120210444" lon="7.6550577124">
				<ele>493.0</ele>
				<time>2021-04-12T11:24:53+02:00</time>
				<extensions>
					<swisstopo:routepoint_id>266271089</swisstopo:routepoint_id>
				</extensions>
			</trkpt>
			<trkpt lat="47.3120162876" lon="7.6548876083">
				<ele>493.0</ele>
				<time>2021-04-12T11:24:54+02:00</time>
				<extensions>
					<swisstopo:routepoint_id>2009756122</swisstopo:routepoint_id>
				</extensions>
			</trkpt>
			<trkpt lat="47.3120114442" lon="7.6547169678">
				<ele>493.0</ele>
				<time>2021-04-12T11:24:55+02:00</time>
				<extensions>
					<swisstopo:routepoint_id>200858791</swisstopo:routepoint_id>
				</extensions>
			</trkpt>
			<trkpt lat="47.3120066861" lon="7.6545458248">
				<ele>493.0</ele>
				<time>2021-04-12T11:24:56+02:00</time>
				<extensions>
					<swisstopo:routepoint_id>2136890900</swisstopo:routepoint_id>
				</extensions>
			</trkpt>
			<trkpt lat="47.3120021777" lon="7.6543740753">
				<ele>493.1</ele>
				<time>2021-04-12T11:24:57+02:00</time>
				<extensions>
					<swisstopo:routepoint_id>208843872</swisstopo:routepoint_id>
				</extensions>
			</trkpt>
			<trkpt lat="47.3119977580" lon="7.6542019066">
				<ele>493.1</ele>
				<time>2021-04-12T11:24:58+02:00</time>
				<extensions>
					<swisstopo:routepoint_id>1050677506</swisstopo:routepoint_id>
				</extensions>
			</trkpt>
			<trkpt lat="47.3119932157" lon="7.6540297912">
				<ele>493.2</ele>
				<time>2021-04-12T11:24:59+02:00</time>
				<extensions>
					<swisstopo:routepoint_id>2126297708</swisstopo:routepoint_id>
				</extensions>
			</trkpt>
			<trkpt lat="47.3119884972" lon="7.6538576496">
				<ele>493.2</ele>
				<time>2021-04-12T11:25:00+02:00</time>
				<extensions>
					<swisstopo:routepoint_id>410208629</swisstopo:routepoint_id>
				</extensions>
			</trkpt>
			<trkpt lat="47.3119836993" lon="7.6536855447">
				<ele>493.3</ele>
				<time>2021-04-12T11:25:01+02:00</time>
				<extensions>
					<swisstopo:routepoint_id>953920733</swisstopo:routepoint_id>
				</extensions>
			</trkpt>
			<trkpt lat="47.3119787221" lon="7.6535136963">
				<ele>493.4</ele>
				<time>2021-04-12T11:25:02+02:00</time>
				<extensions>
					<swisstopo:routepoint_id>1580334676</swisstopo:routepoint_id>
				</extensions>
			</trkpt>
			<trkpt lat="47.3119738148" lon="7.6533422184">
				<ele>493.5</ele>
				<time>2021-04-12T11:25:03+02:00</time>
				<extensions>
					<swisstopo:routepoint_id>607153436</swisstopo:routepoint_id>
				</extensions>
			</trkpt>
			<trkpt lat="47.3119689903" lon="7.6531713894">
				<ele>493.7</ele>
				<time>2021-04-12T11:25:04+02:00</time>
				<extensions>
					<swisstopo:routepoint_id>1732991955</swisstopo:routepoint_id>
				</extensions>
			</trkpt>
			<trkpt lat="47.3119641969" lon="7.6530014948">
				<ele>493.8</ele>
				<time>2021-04-12T11:25:05+02:00</time>
				<extensions>
					<swisstopo:routepoint_id>75083424</swisstopo:routepoint_id>
				</extensions>
			</trkpt>
			<trkpt lat="47.3119589332" lon="7.6528334799">
				<ele>493.9</ele>
				<time>2021-04-12T11:25:06+02:00</time>
				<extensions>
					<swisstopo:routepoint_id>1354206379</swisstopo:routepoint_id>
				</extensions>
			</trkpt>
			<trkpt lat="47.3119534562" lon="7.6526672408">
				<ele>494.0</ele>
				<time>2021-04-12T11:25:07+02:00</time>
				<extensions>
					<swisstopo:routepoint_id>1114920947</swisstopo:routepoint_id>
				</extensions>
			</trkpt>
			<trkpt lat="47.3119476715" lon="7.6525024877">
				<ele>494.2</ele>
				<time>2021-04-12T11:25:08+02:00</time>
				<extensions>
					<swisstopo:routepoint_id>1681536154</swisstopo:routepoint_id>
				</extensions>
			</trkpt>
			<trkpt lat="47.3119407158" lon="7.6523389947">
				<ele>494.3</ele>
				<time>2021-04-12T11:25:09+02:00</time>
				<extensions>
					<swisstopo:routepoint_id>693345758</swisstopo:routepoint_id>
				</extensions>
			</trkpt>
			<trkpt lat="47.3119316700" lon="7.6521770167">
				<ele>494.5</ele>
				<time>2021-04-12T11:25:10+02:00</time>
				<extensions>
					<swisstopo:routepoint_id>815886084</swisstopo:routepoint_id>
				</extensions>
			</trkpt>
			<trkpt lat="47.3119194299" lon="7.6520169084">
				<ele>494.6</ele>
				<time>2021-04-12T11:25:11+02:00</time>
				<extensions>
					<swisstopo:routepoint_id>914327693</swisstopo:routepoint_id>
				</extensions>
			</trkpt>
			<trkpt lat="47.3119022652" lon="7.6518584418">
				<ele>494.6</ele>
				<time>2021-04-12T11:25:12+02:00</time>
				<extensions>
					<swisstopo:routepoint_id>1860041966</swisstopo:routepoint_id>
				</extensions>
			</trkpt>
			<trkpt lat="47.3118778349" lon="7.6517010357">
				<ele>494.7</ele>
				<time>2021-04-12T11:25:13+02:00</time>
				<extensions>
					<swisstopo:routepoint_id>805873183</swisstopo:routepoint_id>
				</extensions>
			</trkpt>
			<trkpt lat="47.3118457345" lon="7.6515449753">
				<ele>494.6</ele>
				<time>2021-04-12T11:25:14+02:00</time>
				<extensions>
					<swisstopo:routepoint_id>131225052</swisstopo:routepoint_id>
				</extensions>
			</trkpt>
			<trkpt lat="47.3118068727" lon="7.6513900894">
				<ele>494.5</ele>
				<time>2021-04-12T11:25:15+02:00</time>
				<extensions>
					<swisstopo:routepoint_id>33743495</swisstopo:routepoint_id>
				</extensions>
			</trkpt>
			<trkpt lat="47.3117627771" lon="7.6512361505">
				<ele>494.3</ele>
				<time>2021-04-12T11:25:16+02:00</time>
				<extensions>
					<swisstopo:routepoint_id>191237657</swisstopo:routepoint_id>
				</extensions>
			</trkpt>
			<trkpt lat="47.3117148528" lon="7.6510823552">
				<ele>494.1</ele>
				<time>2021-04-12T11:25:17+02:00</time>
				<extensions>
					<swisstopo:routepoint_id>1495765287</swisstopo:routepoint_id>
				</extensions>
			</trkpt>
			<trkpt lat="47.3116646042" lon="7.6509281770">
				<ele>493.9</ele>
				<time>2021-04-12T11:25:18+02:00</time>
				<extensions>
					<swisstopo:routepoint_id>883606827</swisstopo:routepoint_id>
				</extensions>
			</trkpt>
			<trkpt lat="47.3116128415" lon="7.6507729027">
				<ele>493.6</ele>
				<time>2021-04-12T11:25:19+02:00</time>
				<extensions>
					<swisstopo:routepoint_id>930522384</swisstopo:routepoint_id>
				</extensions>
			</trkpt>
			<trkpt lat="47.3115607794" lon="7.6506160945">
				<ele>493.3</ele>
				<time>2021-04-12T11:25:20+02:00</time>
				<extensions>
					<swisstopo:routepoint_id>1313790434</swisstopo:routepoint_id>
				</extensions>
			</trkpt>
			<trkpt lat="47.3115088143" lon="7.6504576641">
				<ele>493.1</ele>
				<time>2021-04-12T11:25:21+02:00</time>
				<extensions>
					<swisstopo:routepoint_id>448965784</swisstopo:routepoint_id>
				</extensions>
			</trkpt>
			<trkpt lat="47.3114575059" lon="7.6502973441">
				<ele>492.8</ele>
				<time>2021-04-12T11:25:22+02:00</time>
				<extensions>
					<swisstopo:routepoint_id>1657879777</swisstopo:routepoint_id>
				</extensions>
			</trkpt>
			<trkpt lat="47.3114079365" lon="7.6501346705">
				<ele>492.6</ele>
				<time>2021-04-12T11:25:23+02:00</time>
				<extensions>
					<swisstopo:routepoint_id>385092214</swisstopo:routepoint_id>
				</extensions>
			</trkpt>
			<trkpt lat="47.3113615173" lon="7.6499709942">
				<ele>492.4</ele>
				<time>2021-04-12T11:25:24+02:00</time>
				<extensions>
					<swisstopo:routepoint_id>1876612287</swisstopo:routepoint_id>
				</extensions>
			</trkpt>
			<trkpt lat="47.3113186311" lon="7.6498053308">
				<ele>492.2</ele>
				<time>2021-04-12T11:25:25+02:00</time>
				<extensions>
					<swisstopo:routepoint_id>130384120</swisstopo:routepoint_id>
				</extensions>
			</trkpt>
			<trkpt lat="47.3112795728" lon="7.6496373153">
				<ele>492.0</ele>
				<time>2021-04-12T11:25:26+02:00</time>
				<extensions>
					<swisstopo:routepoint_id>932584900</swisstopo:routepoint_id>
				</extensions>
			</trkpt>
			<trkpt lat="47.3112439756" lon="7.6494671436">
				<ele>491.9</ele>
				<time>2021-04-12T11:25:27+02:00</time>
				<extensions>
					<swisstopo:routepoint_id>1618758494</swisstopo:routepoint_id>
				</extensions>
			</trkpt>
			<trkpt lat="47.3112114461" lon="7.6492957912">
				<ele>491.8</ele>
				<time>2021-04-12T11:25:28+02:00</time>
				<extensions>
					<swisstopo:routepoint_id>3684815</swisstopo:routepoint_id>
				</extensions>
			</trkpt>
			<trkpt lat="47.3111811281" lon="7.6491235331">
				<ele>491.8</ele>
				<time>2021-04-12T11:25:29+02:00</time>
				<extensions>
					<swisstopo:routepoint_id>1801143589</swisstopo:routepoint_id>
				</extensions>
			</trkpt>
			<trkpt lat="47.3111522770" lon="7.6489506956">
				<ele>491.8</ele>
				<time>2021-04-12T11:25:30+02:00</time>
				<extensions>
					<swisstopo:routepoint_id>890812211</swisstopo:routepoint_id>
				</extensions>
			</trkpt>
			<trkpt lat="47.3111248846" lon="7.6487779577">
				<ele>491.8</ele>
				<time>2021-04-12T11:25:31+02:00</time>
				<extensions>
					<swisstopo:routepoint_id>1772327040</swisstopo:routepoint_id>
				</extensions>
			</trkpt>
			<trkpt lat="47.3110987494" lon="7.6486065263">
				<ele>491.8</ele>
				<time>2021-04-12T11:25:32+02:00</time>
				<extensions>
					<swisstopo:routepoint_id>1902377390</swisstopo:routepoint_id>
				</extensions>
			</trkpt>
			<trkpt lat="47.3110737397" lon="7.6484372616">
				<ele>491.8</ele>
				<time>2021-04-12T11:25:33+02:00</time>
				<extensions>
					<swisstopo:routepoint_id>1520257194</swisstopo:routepoint_id>
				</extensions>
			</trkpt>
			<trkpt lat="47.3110495754" lon="7.6482709106">
				<ele>491.8</ele>
				<time>2021-04-12T11:25:34+02:00</time>
				<extensions>
					<swisstopo:routepoint_id>202227552</swisstopo:routepoint_id>
				</extensions>
			</trkpt>
			<trkpt lat="47.3110262793" lon="7.6481072326">
				<ele>491.8</ele>
				<time>2021-04-12T11:25:35+02:00</time>
				<extensions>
					<swisstopo:routepoint_id>1519336910</swisstopo:routepoint_id>
				</extensions>
			</trkpt>
			<trkpt lat="47.3110029669" lon="7.6479463401">
				<ele>491.8</ele>
				<time>2021-04-12T11:25:36+02:00</time>
				<extensions>
					<swisstopo:routepoint_id>1914883540</swisstopo:routepoint_id>
				</extensions>
			</trkpt>
			<trkpt lat="47.3109766673" lon="7.6477887829">
				<ele>491.7</ele>
				<time>2021-04-12T11:25:37+02:00</time>
				<extensions>
					<swisstopo:routepoint_id>1257722838</swisstopo:routepoint_id>
				</extensions>
			</trkpt>
			<trkpt lat="47.3109432345" lon="7.6476368747">
				<ele>491.6</ele>
				<time>2021-04-12T11:25:38+02:00</time>
				<extensions>
					<swisstopo:routepoint_id>866200845</swisstopo:routepoint_id>
				</extensions>
			</trkpt>
			<trkpt lat="47.3108994822" lon="7.6474927172">
				<ele>491.5</ele>
				<time>2021-04-12T11:25:39+02:00</time>
				<extensions>
					<swisstopo:routepoint_id>445958902</swisstopo:routepoint_id>
				</extensions>
			</trkpt>
			<trkpt lat="47.3108441369" lon="7.6473564572">
				<ele>491.3</ele>
				<time>2021-04-12T11:25:40+02:00</time>
				<extensions>
					<swisstopo:routepoint_id>513337884</swisstopo:routepoint_id>
				</extensions>
			</trkpt>
			<trkpt lat="47.3107774341" lon="7.6472263626">
				<ele>491.0</ele>
				<time>2021-04-12T11:25:41+02:00</time>
				<extensions>
					<swisstopo:routepoint_id>1228006389</swisstopo:routepoint_id>
				</extensions>
			</trkpt>
			<trkpt lat="47.3107003071" lon="7.6471002967">
				<ele>490.7</ele>
				<time>2021-04-12T11:25:42+02:00</time>
				<extensions>
					<swisstopo:routepoint_id>1785532253</swisstopo:routepoint_id>
				</extensions>
			</trkpt>
			<trkpt lat="47.3106138621" lon="7.6469764347">
				<ele>490.3</ele>
				<time>2021-04-12T11:25:43+02:00</time>
				<extensions>
					<swisstopo:routepoint_id>504092993</swisstopo:routepoint_id>
				</extensions>
			</trkpt>
			<trkpt lat="47.3105191506" lon="7.6468532002">
				<ele>490.0</ele>
				<time>2021-04-12T11:25:44+02:00</time>
				<extensions>
					<swisstopo:routepoint_id>467945936</swisstopo:routepoint_id>
				</extensions>
			</trkpt>
			<trkpt lat="47.3104175577" lon="7.6467294587">
				<ele>489.6</ele>
				<time>2021-04-12T11:25:45+02:00</time>
				<extensions>
					<swisstopo:routepoint_id>682231038</swisstopo:routepoint_id>
				</extensions>
			</trkpt>
			<trkpt lat="47.3103100853" lon="7.6466041845">
				<ele>489.3</ele>
				<time>2021-04-12T11:25:46+02:00</time>
				<extensions>
					<swisstopo:routepoint_id>841864333</swisstopo:routepoint_id>
				</extensions>
			</trkpt>
			<trkpt lat="47.3101978927" lon="7.6464763571">
				<ele>489.0</ele>
				<time>2021-04-12T11:25:47+02:00</time>
				<extensions>
					<swisstopo:routepoint_id>1591578295</swisstopo:routepoint_id>
				</extensions>
			</trkpt>
			<trkpt lat="47.3100821141" lon="7.6463452594">
				<ele>488.7</ele>
				<time>2021-04-12T11:25:48+02:00</time>
				<extensions>
					<swisstopo:routepoint_id>600097033</swisstopo:routepoint_id>
				</extensions>
			</trkpt>
			<trkpt lat="47.3099640781" lon="7.6462104276">
				<ele>488.4</ele>
				<time>2021-04-12T11:25:49+02:00</time>
				<extensions>
					<swisstopo:routepoint_id>1247627319</swisstopo:routepoint_id>
				</extensions>
			</trkpt>
			<trkpt lat="47.3098447175" lon="7.6460714931">
				<ele>488.1</ele>
				<time>2021-04-12T11:25:50+02:00</time>
				<extensions>
					<swisstopo:routepoint_id>842021125</swisstopo:routepoint_id>
				</extensions>
			</trkpt>
			<trkpt lat="47.3097249656" lon="7.6459281801">
				<ele>487.9</ele>
				<time>2021-04-12T11:25:51+02:00</time>
				<extensions>
					<swisstopo:routepoint_id>2079297792</swisstopo:routepoint_id>
				</extensions>
			</trkpt>
			<trkpt lat="47.3096054614" lon="7.6457800863">
				<ele>487.8</ele>
				<time>2021-04-12T11:25:52+02:00</time>
				<extensions>
					<swisstopo:routepoint_id>756602513</swisstopo:routepoint_id>
				</extensions>
			</trkpt>
			<trkpt lat="47.3094868837" lon="7.6456272330">
				<ele>487.6</ele>
				<time>2021-04-12T11:25:53+02:00</time>
				<extensions>
					<swisstopo:routepoint_id>967762104</swisstopo:routepoint_id>
				</extensions>
			</trkpt>
			<trkpt lat="47.3093696882" lon="7.6454697352">
				<ele>487.5</ele>
				<time>2021-04-12T11:25:54+02:00</time>
				<extensions>
					<swisstopo:routepoint_id>136539550</swisstopo:routepoint_id>
				</extensions>
			</trkpt>
			<trkpt lat="47.3092542468" lon="7.6453078518">
				<ele>487.5</ele>
				<time>2021-04-12T11:25:55+02:00</time>
				<extensions>
					<swisstopo:routepoint_id>1307681854</swisstopo:routepoint_id>
				</extensions>
			</trkpt>
			<trkpt lat="47.3091407688" lon="7.6451416867">
				<ele>487.5</ele>
				<time>2021-04-12T11:25:56+02:00</time>
				<extensions>
					<swisstopo:routepoint_id>861276780</swisstopo:routepoint_id>
				</extensions>
			</trkpt>
			<trkpt lat="47.3090292964" lon="7.6449713052">
				<ele>487.5</ele>
				<time>2021-04-12T11:25:57+02:00</time>
				<extensions>
					<swisstopo:routepoint_id>1439060680</swisstopo:routepoint_id>
				</extensions>
			</trkpt>
			<trkpt lat="47.3089198723" lon="7.6447967574">
				<ele>487.5</ele>
				<time>2021-04-12T11:25:58+02:00</time>
				<extensions>
					<swisstopo:routepoint_id>1332016246</swisstopo:routepoint_id>
				</extensions>
			</trkpt>
			<trkpt lat="47.3088128927" lon="7.6446179823">
				<ele>487.5</ele>
				<time>2021-04-12T11:25:59+02:00</time>
				<extensions>
					<swisstopo:routepoint_id>1827510194</swisstopo:routepoint_id>
				</extensions>
			</trkpt>
			<trkpt lat="47.3087087244" lon="7.6444355827">
				<ele>487.5</ele>
				<time>2021-04-12T11:26:00+02:00</time>
				<extensions>
					<swisstopo:routepoint_id>1652711164</swisstopo:routepoint_id>
				</extensions>
			</trkpt>
			<trkpt lat="47.3086073690" lon="7.6442494315">
				<ele>487.5</ele>
				<time>2021-04-12T11:26:01+02:00</time>
				<extensions>
					<swisstopo:routepoint_id>1563043050</swisstopo:routepoint_id>
				</extensions>
			</trkpt>
			<trkpt lat="47.3085087434" lon="7.6440598643">
				<ele>487.5</ele>
				<time>2021-04-12T11:26:02+02:00</time>
				<extensions>
					<swisstopo:routepoint_id>2044571246</swisstopo:routepoint_id>
				</extensions>
			</trkpt>
			<trkpt lat="47.3084126468" lon="7.6438670715">
				<ele>487.6</ele>
				<time>2021-04-12T11:26:03+02:00</time>
				<extensions>
					<swisstopo:routepoint_id>1223095875</swisstopo:routepoint_id>
				</extensions>
			</trkpt>
			<trkpt lat="47.3083191679" lon="7.6436710668">
				<ele>487.6</ele>
				<time>2021-04-12T11:26:04+02:00</time>
				<extensions>
					<swisstopo:routepoint_id>858902041</swisstopo:routepoint_id>
				</extensions>
			</trkpt>
			<trkpt lat="47.3082280577" lon="7.6434721419">
				<ele>487.6</ele>
				<time>2021-04-12T11:26:05+02:00</time>
				<extensions>
					<swisstopo:routepoint_id>181527953</swisstopo:routepoint_id>
				</extensions>
			</trkpt>
			<trkpt lat="47.3081394050" lon="7.6432701675">
				<ele>487.7</ele>
				<time>2021-04-12T11:26:06+02:00</time>
				<extensions>
					<swisstopo:routepoint_id>1513527331</swisstopo:routepoint_id>
				</extensions>
			</trkpt>
			<trkpt lat="47.3080532269" lon="7.6430651240">
				<ele>487.7</ele>
				<time>2021-04-12T11:26:07+02:00</time>
				<extensions>
					<swisstopo:routepoint_id>910053402</swisstopo:routepoint_id>
				</extensions>
			</trkpt>
			<trkpt lat="47.3079694256" lon="7.6428568959">
				<ele>487.8</ele>
				<time>2021-04-12T11:26:08+02:00</time>
				<extensions>
					<swisstopo:routepoint_id>888993480</swisstopo:routepoint_id>
				</extensions>
			</trkpt>
			<trkpt lat="47.3078878681" lon="7.6426454060">
				<ele>487.9</ele>
				<time>2021-04-12T11:26:09+02:00</time>
				<extensions>
					<swisstopo:routepoint_id>1269686181</swisstopo:routepoint_id>
				</extensions>
			</trkpt>
			<trkpt lat="47.3078080803" lon="7.6424309169">
				<ele>488.0</ele>
				<time>2021-04-12T11:26:10+02:00</time>
				<extensions>
					<swisstopo:routepoint_id>70643828</swisstopo:routepoint_id>
				</extensions>
			</trkpt>
			<trkpt lat="47.3077303978" lon="7.6422137344">
				<ele>488.2</ele>
				<time>2021-04-12T11:26:11+02:00</time>
				<extensions>
					<swisstopo:routepoint_id>1899844052</swisstopo:routepoint_id>
				</extensions>
			</trkpt>
			<trkpt lat="47.3076551126" lon="7.6419939874">
				<ele>488.3</ele>
				<time>2021-04-12T11:26:12+02:00</time>
				<extensions>
					<swisstopo:routepoint_id>1892118368</swisstopo:routepoint_id>
				</extensions>
			</trkpt>
			<trkpt lat="47.3075824085" lon="7.6417722464">
				<ele>488.5</ele>
				<time>2021-04-12T11:26:13+02:00</time>
				<extensions>
					<swisstopo:routepoint_id>895566200</swisstopo:routepoint_id>
				</extensions>
			</trkpt>
			<trkpt lat="47.3075124235" lon="7.6415486831">
				<ele>488.6</ele>
				<time>2021-04-12T11:26:14+02:00</time>
				<extensions>
					<swisstopo:routepoint_id>68241577</swisstopo:routepoint_id>
				</extensions>
			</trkpt>
			<trkpt lat="47.3074452112" lon="7.6413233657">
				<ele>488.8</ele>
				<time>2021-04-12T11:26:15+02:00</time>
				<extensions>
					<swisstopo:routepoint_id>179917141</swisstopo:routepoint_id>
				</extensions>
			</trkpt>
			<trkpt lat="47.3073807946" lon="7.6410964291">
				<ele>489.0</ele>
				<time>2021-04-12T11:26:16+02:00</time>
				<extensions>
					<swisstopo:routepoint_id>210413811</swisstopo:routepoint_id>
				</extensions>
			</trkpt>
			<trkpt lat="47.3073191610" lon="7.6408682553">
				<ele>489.2</ele>
				<time>2021-04-12T11:26:17+02:00</time>
				<extensions>
					<swisstopo:routepoint_id>1666838515</swisstopo:routepoint_id>
				</extensions>
			</trkpt>
			<trkpt lat="47.3072603215" lon="7.6406395042">
				<ele>489.5</ele>
				<time>2021-04-12T11:26:18+02:00</time>
				<extensions>
					<swisstopo:routepoint_id>630746490</swisstopo:routepoint_id>
				</extensions>
			</trkpt>
			<trkpt lat="47.3072042649" lon="7.6404105856">
				<ele>489.7</ele>
				<time>2021-04-12T11:26:19+02:00</time>
				<extensions>
					<swisstopo:routepoint_id>976975838</swisstopo:routepoint_id>
				</extensions>
			</trkpt>
			<trkpt lat="47.3071509973" lon="7.6401818415">
				<ele>489.9</ele>
				<time>2021-04-12T11:26:20+02:00</time>
				<extensions>
					<swisstopo:routepoint_id>372944304</swisstopo:routepoint_id>
				</extensions>
			</trkpt>
			<trkpt lat="47.3071002828" lon="7.6399533948">
				<ele>490.1</ele>
				<time>2021-04-12T11:26:21+02:00</time>
				<extensions>
					<swisstopo:routepoint_id>1717635382</swisstopo:routepoint_id>
				</extensions>
			</trkpt>
			<trkpt lat="47.3070518425" lon="7.6397254191">
				<ele>490.4</ele>
				<time>2021-04-12T11:26:22+02:00</time>
				<extensions>
					<swisstopo:routepoint_id>1822682300</swisstopo:routepoint_id>
				</extensions>
			</trkpt>
			<trkpt lat="47.3070053083" lon="7.6394981183">
				<ele>490.7</ele>
				<time>2021-04-12T11:26:23+02:00</time>
				<extensions>
					<swisstopo:routepoint_id>2114675292</swisstopo:routepoint_id>
				</extensions>
			</trkpt>
			<trkpt lat="47.3069605303" lon="7.6392720979">
				<ele>490.9</ele>
				<time>2021-04-12T11:26:24+02:00</time>
				<extensions>
					<swisstopo:routepoint_id>493274794</swisstopo:routepoint_id>
				</extensions>
			</trkpt>
			<trkpt lat="47.3069171606" lon="7.6390470432">
				<ele>491.2</ele>
				<time>2021-04-12T11:26:25+02:00</time>
				<extensions>
					<swisstopo:routepoint_id>1182585338</swisstopo:routepoint_id>
				</extensions>
			</trkpt>
			<trkpt lat="47.3068745603" lon="7.6388232731">
				<ele>491.4</ele>
				<time>2021-04-12T11:26:26+02:00</time>
				<extensions>
					<swisstopo:routepoint_id>750622781</swisstopo:routepoint_id>
				</extensions>
			</trkpt>
			<trkpt lat="47.3068320393" lon="7.6386005734">
				<ele>491.6</ele>
				<time>2021-04-12T11:26:27+02:00</time>
				<extensions>
					<swisstopo:routepoint_id>1398137789</swisstopo:routepoint_id>
				</extensions>
			</trkpt>
			<trkpt lat="47.3067887738" lon="7.6383791740">
				<ele>491.8</ele>
				<time>2021-04-12T11:26:28+02:00</time>
				<extensions>
					<swisstopo:routepoint_id>735754249</swisstopo:routepoint_id>
				</extensions>
			</trkpt>
			<trkpt lat="47.3067437446" lon="7.6381590593">
				<ele>491.8</ele>
				<time>2021-04-12T11:26:29+02:00</time>
				<extensions>
					<swisstopo:routepoint_id>610823517</swisstopo:routepoint_id>
				</extensions>
			</trkpt>
			<trkpt lat="47.3066961036" lon="7.6379400621">
				<ele>491.9</ele>
				<time>2021-04-12T11:26:30+02:00</time>
				<extensions>
					<swisstopo:routepoint_id>1139017559</swisstopo:routepoint_id>
				</extensions>
			</trkpt>
			<trkpt lat="47.3066452238" lon="7.6377225437">
				<ele>491.8</ele>
				<time>2021-04-12T11:26:31+02:00</time>
				<extensions>
					<swisstopo:routepoint_id>798884755</swisstopo:routepoint_id>
				</extensions>
			</trkpt>
			<trkpt lat="47.3065906593" lon="7.6375069481">
				<ele>491.8</ele>
				<time>2021-04-12T11:26:32+02:00</time>
				<extensions>
					<swisstopo:routepoint_id>788316241</swisstopo:routepoint_id>
				</extensions>
			</trkpt>
			<trkpt lat="47.3065321680" lon="7.6372934242">
				<ele>491.7</ele>
				<time>2021-04-12T11:26:33+02:00</time>
				<extensions>
					<swisstopo:routepoint_id>1404444144</swisstopo:routepoint_id>
				</extensions>
			</trkpt>
			<trkpt lat="47.3064694275" lon="7.6370824142">
				<ele>491.6</ele>
				<time>2021-04-12T11:26:34+02:00</time>
				<extensions>
					<swisstopo:routepoint_id>1499964031</swisstopo:routepoint_id>
				</extensions>
			</trkpt>
			<trkpt lat="47.3064021919" lon="7.6368744718">
				<ele>491.5</ele>
				<time>2021-04-12T11:26:35+02:00</time>
				<extensions>
					<swisstopo:routepoint_id>584936884</swisstopo:routepoint_id>
				</extensions>
			</trkpt>
			<trkpt lat="47.3063305536" lon="7.6366700595">
				<ele>491.4</ele>
				<time>2021-04-12T11:26:36+02:00</time>
				<extensions>
					<swisstopo:routepoint_id>2001557069</swisstopo:routepoint_id>
				</extensions>
			</trkpt>
			<trkpt lat="47.3062543996" lon="7.6364698081">
				<ele>491.4</ele>
				<time>2021-04-12T11:26:37+02:00</time>
				<extensions>
					<swisstopo:routepoint_id>1985812075</swisstopo:routepoint_id>
				</extensions>
			</trkpt>
			<trkpt lat="47.3061738804" lon="7.6362744514">
				<ele>491.4</ele>
				<time>2021-04-12T11:26:38+02:00</time>
				<extensions>
					<swisstopo:routepoint_id>1500186498</swisstopo:routepoint_id>
				</extensions>
			</trkpt>
			<trkpt lat="47.3060892930" lon="7.6360844981">
				<ele>491.4</ele>
				<time>2021-04-12T11:26:39+02:00</time>
				<extensions>
					<swisstopo:routepoint_id>28972459</swisstopo:routepoint_id>
				</extensions>
			</trkpt>
			<trkpt lat="47.3060009249" lon="7.6359002668">
				<ele>491.5</ele>
				<time>2021-04-12T11:26:40+02:00</time>
				<extensions>
					<swisstopo:routepoint_id>1608814191</swisstopo:routepoint_id>
				</extensions>
			</trkpt>
			<trkpt lat="47.3059092350" lon="7.6357221822">
				<ele>491.6</ele>
				<time>2021-04-12T11:26:41+02:00</time>
				<extensions>
					<swisstopo:routepoint_id>373508760</swisstopo:routepoint_id>
				</extensions>
			</trkpt>
			<trkpt lat="47.3058146004" lon="7.6355505818">
				<ele>491.7</ele>
				<time>2021-04-12T11:26:42+02:00</time>
				<extensions>
					<swisstopo:routepoint_id>467029139</swisstopo:routepoint_id>
				</extensions>
			</trkpt>
			<trkpt lat="47.3057175376" lon="7.6353861463">
				<ele>491.8</ele>
				<time>2021-04-12T11:26:43+02:00</time>
				<extensions>
					<swisstopo:routepoint_id>306009388</swisstopo:routepoint_id>
				</extensions>
			</trkpt>
			<trkpt lat="47.3056187221" lon="7.6352290640">
				<ele>491.8</ele>
				<time>2021-04-12T11:26:44+02:00</time>
				<extensions>
					<swisstopo:routepoint_id>2023933198</swisstopo:routepoint_id>
				</extensions>
			</trkpt>
			<trkpt lat="47.3055183900" lon="7.6350794166">
				<ele>491.9</ele>
				<time>2021-04-12T11:26:45+02:00</time>
				<extensions>
					<swisstopo:routepoint_id>104290306</swisstopo:routepoint_id>
				</extensions>
			</trkpt>
			<trkpt lat="47.3054168762" lon="7.6349367586">
				<ele>492.0</ele>
				<time>2021-04-12T11:26:46+02:00</time>
				<extensions>
					<swisstopo:routepoint_id>460516990</swisstopo:routepoint_id>
				</extensions>
			</trkpt>
			<trkpt lat="47.3053141191" lon="7.6348008717">
				<ele>492.0</ele>
				<time>2021-04-12T11:26:47+02:00</time>
				<extensions>
					<swisstopo:routepoint_id>377987142</swisstopo:routepoint_id>
				</extensions>
			</trkpt>
			<trkpt lat="47.3052104041" lon="7.6346704217">
				<ele>492.0</ele>
				<time>2021-04-12T11:26:48+02:00</time>
				<extensions>
					<swisstopo:routepoint_id>573267768</swisstopo:routepoint_id>
				</extensions>
			</trkpt>
			<trkpt lat="47.3051059332" lon="7.6345443402">
				<ele>492.0</ele>
				<time>2021-04-12T11:26:49+02:00</time>
				<extensions>
					<swisstopo:routepoint_id>1299736334</swisstopo:routepoint_id>
				</extensions>
			</trkpt>
			<trkpt lat="47.3050009912" lon="7.6344210733">
				<ele>492.0</ele>
				<time>2021-04-12T11:26:50+02:00</time>
				<extensions>
					<swisstopo:routepoint_id>464908254</swisstopo:routepoint_id>
				</extensions>
			</trkpt>
			<trkpt lat="47.3048958943" lon="7.6342996428">
				<ele>492.0</ele>
				<time>2021-04-12T11:26:51+02:00</time>
				<extensions>
					<swisstopo:routepoint_id>1167517192</swisstopo:routepoint_id>
				</extensions>
			</trkpt>
			<trkpt lat="47.3047908572" lon="7.6341794320">
				<ele>492.0</ele>
				<time>2021-04-12T11:26:52+02:00</time>
				<extensions>
					<swisstopo:routepoint_id>903363305</swisstopo:routepoint_id>
				</extensions>
			</trkpt>
			<trkpt lat="47.3046861973" lon="7.6340603059">
				<ele>492.0</ele>
				<time>2021-04-12T11:26:53+02:00</time>
				<extensions>
					<swisstopo:routepoint_id>117682845</swisstopo:routepoint_id>
				</extensions>
			</trkpt>
			<trkpt lat="47.3045824431" lon="7.6339417533">
				<ele>492.1</ele>
				<time>2021-04-12T11:26:54+02:00</time>
				<extensions>
					<swisstopo:routepoint_id>63137028</swisstopo:routepoint_id>
				</extensions>
			</trkpt>
			<trkpt lat="47.3044798343" lon="7.6338233438">
				<ele>492.2</ele>
				<time>2021-04-12T11:26:55+02:00</time>
				<extensions>
					<swisstopo:routepoint_id>287107978</swisstopo:routepoint_id>
				</extensions>
			</trkpt>
			<trkpt lat="47.3043783127" lon="7.6337045660">
				<ele>492.3</ele>
				<time>2021-04-12T11:26:56+02:00</time>
				<extensions>
					<swisstopo:routepoint_id>28031437</swisstopo:routepoint_id>
				</extensions>
			</trkpt>
			<trkpt lat="47.3042779221" lon="7.6335850889">
				<ele>492.3</ele>
				<time>2021-04-12T11:26:57+02:00</time>
				<extensions>
					<swisstopo:routepoint_id>825442966</swisstopo:routepoint_id>
				</extensions>
			</trkpt>
			<trkpt lat="47.3041783380" lon="7.6334651086">
				<ele>492.4</ele>
				<time>2021-04-12T11:26:58+02:00</time>
				<extensions>
					<swisstopo:routepoint_id>475569942</swisstopo:routepoint_id>
				</extensions>
			</trkpt>
			<trkpt lat="47.3040796485" lon="7.6333452873">
				<ele>492.5</ele>
				<time>2021-04-12T11:26:59+02:00</time>
				<extensions>
					<swisstopo:routepoint_id>2117364707</swisstopo:routepoint_id>
				</extensions>
			</trkpt>
			<trkpt lat="47.3039818596" lon="7.6332256105">
				<ele>492.5</ele>
				<time>2021-04-12T11:27:00+02:00</time>
				<extensions>
					<swisstopo:routepoint_id>597116112</swisstopo:routepoint_id>
				</extensions>
			</trkpt>
			<trkpt lat="47.3038850748" lon="7.6331058239">
				<ele>492.5</ele>
				<time>2021-04-12T11:27:01+02:00</time>
				<extensions>
					<swisstopo:routepoint_id>539411953</swisstopo:routepoint_id>
				</extensions>
			</trkpt>
			<trkpt lat="47.3037891433" lon="7.6329856827">
				<ele>492.5</ele>
				<time>2021-04-12T11:27:02+02:00</time>
				<extensions>
					<swisstopo:routepoint_id>1368220084</swisstopo:routepoint_id>
				</extensions>
			</trkpt>
			<trkpt lat="47.3036939642" lon="7.6328653530">
				<ele>492.5</ele>
				<time>2021-04-12T11:27:03+02:00</time>
				<extensions>
					<swisstopo:routepoint_id>420059712</swisstopo:routepoint_id>
				</extensions>
			</trkpt>
			<trkpt lat="47.3035996637" lon="7.6327449182">
				<ele>492.4</ele>
				<time>2021-04-12T11:27:04+02:00</time>
				<extensions>
					<swisstopo:routepoint_id>1164831895</swisstopo:routepoint_id>
				</extensions>
			</trkpt>
			<trkpt lat="47.3035062426" lon="7.6326241691">
				<ele>492.4</ele>
				<time>2021-04-12T11:27:05+02:00</time>
				<extensions>
					<swisstopo:routepoint_id>868733213</swisstopo:routepoint_id>
				</extensions>
			</trkpt>
			<trkpt lat="47.3034141459" lon="7.6325020621">
				<ele>492.4</ele>
				<time>2021-04-12T11:27:06+02:00</time>
				<extensions>
					<swisstopo:routepoint_id>57794938</swisstopo:routepoint_id>
				</extensions>
			</trkpt>
			<trkpt lat="47.3033237364" lon="7.6323783425">
				<ele>492.4</ele>
				<time>2021-04-12T11:27:07+02:00</time>
				<extensions>
					<swisstopo:routepoint_id>696914522</swisstopo:routepoint_id>
				</extensions>
			</trkpt>
			<trkpt lat="47.3032355377" lon="7.6322527627">
				<ele>492.4</ele>
				<time>2021-04-12T11:27:08+02:00</time>
				<extensions>
					<swisstopo:routepoint_id>666560516</swisstopo:routepoint_id>
				</extensions>
			</trkpt>
			<trkpt lat="47.3031498413" lon="7.6321248575">
				<ele>492.5</ele>
				<time>2021-04-12T11:27:09+02:00</time>
				<extensions>
					<swisstopo:routepoint_id>1607889660</swisstopo:routepoint_id>
				</extensions>
			</trkpt>
			<trkpt lat="47.3030669759" lon="7.6319937734">
				<ele>492.5</ele>
				<time>2021-04-12T11:27:10+02:00</time>
				<extensions>
					<swisstopo:routepoint_id>2014785419</swisstopo:routepoint_id>
				</extensions>
			</trkpt>
			<trkpt lat="47.3029873745" lon="7.6318588274">
				<ele>492.6</ele>
				<time>2021-04-12T11:27:11+02:00</time>
				<extensions>
					<swisstopo:routepoint_id>976391237</swisstopo:routepoint_id>
				</extensions>
			</trkpt>
			<trkpt lat="47.3029112328" lon="7.6317197045">
				<ele>492.7</ele>
				<time>2021-04-12T11:27:12+02:00</time>
				<extensions>
					<swisstopo:routepoint_id>1284973532</swisstopo:routepoint_id>
				</extensions>
			</trkpt>
			<trkpt lat="47.3028383117" lon="7.6315758945">
				<ele>492.8</ele>
				<time>2021-04-12T11:27:13+02:00</time>
				<extensions>
					<swisstopo:routepoint_id>1454598092</swisstopo:routepoint_id>
				</extensions>
			</trkpt>
			<trkpt lat="47.3027691939" lon="7.6314271334">
				<ele>493.0</ele>
				<time>2021-04-12T11:27:14+02:00</time>
				<extensions>
					<swisstopo:routepoint_id>476294796</swisstopo:routepoint_id>
				</extensions>
			</trkpt>
			<trkpt lat="47.3027042402" lon="7.6312735814">
				<ele>493.1</ele>
				<time>2021-04-12T11:27:15+02:00</time>
				<extensions>
					<swisstopo:routepoint_id>1415084003</swisstopo:routepoint_id>
				</extensions>
			</trkpt>
			<trkpt lat="47.3026432495" lon="7.6311152734">
				<ele>493.3</ele>
				<time>2021-04-12T11:27:16+02:00</time>
				<extensions>
					<swisstopo:routepoint_id>2082931543</swisstopo:routepoint_id>
				</extensions>
			</trkpt>
			<trkpt lat="47.3025863763" lon="7.6309526455">
				<ele>493.4</ele>
				<time>2021-04-12T11:27:17+02:00</time>
				<extensions>
					<swisstopo:routepoint_id>1699513454</swisstopo:routepoint_id>
				</extensions>
			</trkpt>
			<trkpt lat="47.3025333600" lon="7.6307865041">
				<ele>493.6</ele>
				<time>2021-04-12T11:27:18+02:00</time>
				<extensions>
					<swisstopo:routepoint_id>42632631</swisstopo:routepoint_id>
				</extensions>
			</trkpt>
			<trkpt lat="47.3024841608" lon="7.6306175364">
				<ele>493.7</ele>
				<time>2021-04-12T11:27:19+02:00</time>
				<extensions>
					<swisstopo:routepoint_id>1414574766</swisstopo:routepoint_id>
				</extensions>
			</trkpt>
			<trkpt lat="47.3024387633" lon="7.6304461031">
				<ele>493.9</ele>
				<time>2021-04-12T11:27:20+02:00</time>
				<extensions>
					<swisstopo:routepoint_id>2114119872</swisstopo:routepoint_id>
				</extensions>
			</trkpt>
			<trkpt lat="47.3023968995" lon="7.6302728389">
				<ele>494.0</ele>
				<time>2021-04-12T11:27:21+02:00</time>
				<extensions>
					<swisstopo:routepoint_id>1895749089</swisstopo:routepoint_id>
				</extensions>
			</trkpt>
			<trkpt lat="47.3023584930" lon="7.6300986521">
				<ele>494.2</ele>
				<time>2021-04-12T11:27:22+02:00</time>
				<extensions>
					<swisstopo:routepoint_id>1787551931</swisstopo:routepoint_id>
				</extensions>
			</trkpt>
			<trkpt lat="47.3023228216" lon="7.6299237583">
				<ele>494.3</ele>
				<time>2021-04-12T11:27:23+02:00</time>
				<extensions>
					<swisstopo:routepoint_id>89082787</swisstopo:routepoint_id>
				</extensions>
			</trkpt>
			<trkpt lat="47.3022894936" lon="7.6297485103">
				<ele>494.3</ele>
				<time>2021-04-12T11:27:24+02:00</time>
				<extensions>
					<swisstopo:routepoint_id>418299150</swisstopo:routepoint_id>
				</extensions>
			</trkpt>
			<trkpt lat="47.3022578280" lon="7.6295736373">
				<ele>494.4</ele>
				<time>2021-04-12T11:27:25+02:00</time>
				<extensions>
					<swisstopo:routepoint_id>1639837419</swisstopo:routepoint_id>
				</extensions>
			</trkpt>
			<trkpt lat="47.3022273093" lon="7.6293998287">
				<ele>494.6</ele>
				<time>2021-04-12T11:27:26+02:00</time>
				<extensions>
					<swisstopo:routepoint_id>2089859182</swisstopo:routepoint_id>
				</extensions>
			</trkpt>
			<trkpt lat="47.3021973590" lon="7.6292278640">
				<ele>494.7</ele>
				<time>2021-04-12T11:27:27+02:00</time>
				<extensions>
					<swisstopo:routepoint_id>20741542</swisstopo:routepoint_id>
				</extensions>
			</trkpt>
			<trkpt lat="47.3021673809" lon="7.6290579505">
				<ele>494.8</ele>
				<time>2021-04-12T11:27:28+02:00</time>
				<extensions>
					<swisstopo:routepoint_id>710745580</swisstopo:routepoint_id>
				</extensions>
			</trkpt>
			<trkpt lat="47.3021366613" lon="7.6288900131">
				<ele>494.9</ele>
				<time>2021-04-12T11:27:29+02:00</time>
				<extensions>
					<swisstopo:routepoint_id>1196918446</swisstopo:routepoint_id>
				</extensions>
			</trkpt>
			<trkpt lat="47.3021047114" lon="7.6287231243">
				<ele>495.0</ele>
				<time>2021-04-12T11:27:30+02:00</time>
				<extensions>
					<swisstopo:routepoint_id>1129000473</swisstopo:routepoint_id>
				</extensions>
			</trkpt>
			<trkpt lat="47.3020712828" lon="7.6285566030">
				<ele>495.1</ele>
				<time>2021-04-12T11:27:31+02:00</time>
				<extensions>
					<swisstopo:routepoint_id>2092928466</swisstopo:routepoint_id>
				</extensions>
			</trkpt>
			<trkpt lat="47.3020360883" lon="7.6283893630">
				<ele>495.2</ele>
				<time>2021-04-12T11:27:32+02:00</time>
				<extensions>
					<swisstopo:routepoint_id>66590202</swisstopo:routepoint_id>
				</extensions>
			</trkpt>
			<trkpt lat="47.3019980256" lon="7.6282218290">
				<ele>495.2</ele>
				<time>2021-04-12T11:27:33+02:00</time>
				<extensions>
					<swisstopo:routepoint_id>342544927</swisstopo:routepoint_id>
				</extensions>
			</trkpt>
			<trkpt lat="47.3019565199" lon="7.6280538006">
				<ele>495.3</ele>
				<time>2021-04-12T11:27:34+02:00</time>
				<extensions>
					<swisstopo:routepoint_id>1896414129</swisstopo:routepoint_id>
				</extensions>
			</trkpt>
			<trkpt lat="47.3019116276" lon="7.6278854898">
				<ele>495.4</ele>
				<time>2021-04-12T11:27:35+02:00</time>
				<extensions>
					<swisstopo:routepoint_id>79977329</swisstopo:routepoint_id>
				</extensions>
			</trkpt>
			<trkpt lat="47.3018635789" lon="7.6277169006">
				<ele>495.4</ele>
				<time>2021-04-12T11:27:36+02:00</time>
				<extensions>
					<swisstopo:routepoint_id>2001689128</swisstopo:routepoint_id>
				</extensions>
			</trkpt>
			<trkpt lat="47.3018125394" lon="7.6275481359">
				<ele>495.4</ele>
				<time>2021-04-12T11:27:37+02:00</time>
				<extensions>
					<swisstopo:routepoint_id>2057844041</swisstopo:routepoint_id>
				</extensions>
			</trkpt>
			<trkpt lat="47.3017582448" lon="7.6273793361">
				<ele>495.4</ele>
				<time>2021-04-12T11:27:38+02:00</time>
				<extensions>
					<swisstopo:routepoint_id>960662152</swisstopo:routepoint_id>
				</extensions>
			</trkpt>
			<trkpt lat="47.3017007582" lon="7.6272108786">
				<ele>495.4</ele>
				<time>2021-04-12T11:27:39+02:00</time>
				<extensions>
					<swisstopo:routepoint_id>1066730518</swisstopo:routepoint_id>
				</extensions>
			</trkpt>
			<trkpt lat="47.3016404216" lon="7.6270436409">
				<ele>495.5</ele>
				<time>2021-04-12T11:27:40+02:00</time>
				<extensions>
					<swisstopo:routepoint_id>1346330870</swisstopo:routepoint_id>
				</extensions>
			</trkpt>
			<trkpt lat="47.3015775536" lon="7.6268777100">
				<ele>495.5</ele>
				<time>2021-04-12T11:27:41+02:00</time>
				<extensions>
					<swisstopo:routepoint_id>1895227298</swisstopo:routepoint_id>
				</extensions>
			</trkpt>
			<trkpt lat="47.3015127021" lon="7.6267126297">
				<ele>495.6</ele>
				<time>2021-04-12T11:27:42+02:00</time>
				<extensions>
					<swisstopo:routepoint_id>1607745182</swisstopo:routepoint_id>
				</extensions>
			</trkpt>
			<trkpt lat="47.3014465088" lon="7.6265477678">
				<ele>495.6</ele>
				<time>2021-04-12T11:27:43+02:00</time>
				<extensions>
					<swisstopo:routepoint_id>1734027320</swisstopo:routepoint_id>
				</extensions>
			</trkpt>
			<trkpt lat="47.3013798388" lon="7.6263826645">
				<ele>495.7</ele>
				<time>2021-04-12T11:27:44+02:00</time>
				<extensions>
					<swisstopo:routepoint_id>296593803</swisstopo:routepoint_id>
				</extensions>
			</trkpt>
			<trkpt lat="47.3013131872" lon="7.6262168710">
				<ele>495.9</ele>
				<time>2021-04-12T11:27:45+02:00</time>
				<extensions>
					<swisstopo:routepoint_id>542502334</swisstopo:routepoint_id>
				</extensions>
			</trkpt>
			<trkpt lat="47.3012472803" lon="7.6260500294">
				<ele>496.0</ele>
				<time>2021-04-12T11:27:46+02:00</time>
				<extensions>
					<swisstopo:routepoint_id>1768646023</swisstopo:routepoint_id>
				</extensions>
			</trkpt>
			<trkpt lat="47.3011824260" lon="7.6258811171">
				<ele>496.2</ele>
				<time>2021-04-12T11:27:47+02:00</time>
				<extensions>
					<swisstopo:routepoint_id>165066787</swisstopo:routepoint_id>
				</extensions>
			</trkpt>
			<trkpt lat="47.3011196260" lon="7.6257096057">
				<ele>496.5</ele>
				<time>2021-04-12T11:27:48+02:00</time>
				<extensions>
					<swisstopo:routepoint_id>1876100832</swisstopo:routepoint_id>
				</extensions>
			</trkpt>
			<trkpt lat="47.3010597800" lon="7.6255350485">
				<ele>496.7</ele>
				<time>2021-04-12T11:27:49+02:00</time>
				<extensions>
					<swisstopo:routepoint_id>124294523</swisstopo:routepoint_id>
				</extensions>
			</trkpt>
			<trkpt lat="47.3010034216" lon="7.6253570579">
				<ele>497.0</ele>
				<time>2021-04-12T11:27:50+02:00</time>
				<extensions>
					<swisstopo:routepoint_id>1663943177</swisstopo:routepoint_id>
				</extensions>
			</trkpt>
			<trkpt lat="47.3009511586" lon="7.6251758618">
				<ele>497.3</ele>
				<time>2021-04-12T11:27:51+02:00</time>
				<extensions>
					<swisstopo:routepoint_id>1360924605</swisstopo:routepoint_id>
				</extensions>
			</trkpt>
			<trkpt lat="47.3009033596" lon="7.6249913845">
				<ele>497.6</ele>
				<time>2021-04-12T11:27:52+02:00</time>
				<extensions>
					<swisstopo:routepoint_id>211512038</swisstopo:routepoint_id>
				</extensions>
			</trkpt>
			<trkpt lat="47.3008599992" lon="7.6248029976">
				<ele>497.8</ele>
				<time>2021-04-12T11:27:53+02:00</time>
				<extensions>
					<swisstopo:routepoint_id>797386881</swisstopo:routepoint_id>
				</extensions>
			</trkpt>
			<trkpt lat="47.3008211951" lon="7.6246104499">
				<ele>498.1</ele>
				<time>2021-04-12T11:27:54+02:00</time>
				<extensions>
					<swisstopo:routepoint_id>1383351687</swisstopo:routepoint_id>
				</extensions>
			</trkpt>
			<trkpt lat="47.3007874304" lon="7.6244138253">
				<ele>498.4</ele>
				<time>2021-04-12T11:27:55+02:00</time>
				<extensions>
					<swisstopo:routepoint_id>1333840987</swisstopo:routepoint_id>
				</extensions>
			</trkpt>
			<trkpt lat="47.3007588001" lon="7.6242130190">
				<ele>498.7</ele>
				<time>2021-04-12T11:27:56+02:00</time>
				<extensions>
					<swisstopo:routepoint_id>283677476</swisstopo:routepoint_id>
				</extensions>
			</trkpt>
			<trkpt lat="47.3007348300" lon="7.6240087128">
				<ele>499.0</ele>
				<time>2021-04-12T11:27:57+02:00</time>
				<extensions>
					<swisstopo:routepoint_id>353642792</swisstopo:routepoint_id>
				</extensions>
			</trkpt>
			<trkpt lat="47.3007153385" lon="7.6238021398">
				<ele>499.2</ele>
				<time>2021-04-12T11:27:58+02:00</time>
				<extensions>
					<swisstopo:routepoint_id>1587153895</swisstopo:routepoint_id>
				</extensions>
			</trkpt>
			<trkpt lat="47.3006995492" lon="7.6235941283">
				<ele>499.5</ele>
				<time>2021-04-12T11:27:59+02:00</time>
				<extensions>
					<swisstopo:routepoint_id>1401133878</swisstopo:routepoint_id>
				</extensions>
			</trkpt>
			<trkpt lat="47.3006866833" lon="7.6233857765">
				<ele>499.7</ele>
				<time>2021-04-12T11:28:00+02:00</time>
				<extensions>
					<swisstopo:routepoint_id>1698898191</swisstopo:routepoint_id>
				</extensions>
			</trkpt>
			<trkpt lat="47.3006758550" lon="7.6231783932">
				<ele>499.9</ele>
				<time>2021-04-12T11:28:01+02:00</time>
				<extensions>
					<swisstopo:routepoint_id>439325625</swisstopo:routepoint_id>
				</extensions>
			</trkpt>
			<trkpt lat="47.3006664561" lon="7.6229718516">
				<ele>500.1</ele>
				<time>2021-04-12T11:28:02+02:00</time>
				<extensions>
					<swisstopo:routepoint_id>697000989</swisstopo:routepoint_id>
				</extensions>
			</trkpt>
			<trkpt lat="47.3006578862" lon="7.6227662229">
				<ele>500.3</ele>
				<time>2021-04-12T11:28:03+02:00</time>
				<extensions>
					<swisstopo:routepoint_id>2119811385</swisstopo:routepoint_id>
				</extensions>
			</trkpt>
			<trkpt lat="47.3006494721" lon="7.6225615331">
				<ele>500.5</ele>
				<time>2021-04-12T11:28:04+02:00</time>
				<extensions>
					<swisstopo:routepoint_id>916243965</swisstopo:routepoint_id>
				</extensions>
			</trkpt>
			<trkpt lat="47.3006409074" lon="7.6223572663">
				<ele>500.6</ele>
				<time>2021-04-12T11:28:05+02:00</time>
				<extensions>
					<swisstopo:routepoint_id>1854570765</swisstopo:routepoint_id>
				</extensions>
			</trkpt>
			<trkpt lat="47.3006318187" lon="7.6221533647">
				<ele>500.7</ele>
				<time>2021-04-12T11:28:06+02:00</time>
				<extensions>
					<swisstopo:routepoint_id>1193194797</swisstopo:routepoint_id>
				</extensions>
			</trkpt>
			<trkpt lat="47.3006220426" lon="7.6219494649">
				<ele>500.8</ele>
				<time>2021-04-12T11:28:07+02:00</time>
				<extensions>
					<swisstopo:routepoint_id>822657493</swisstopo:routepoint_id>
				</extensions>
			</trkpt>
			<trkpt lat="47.3006109905" lon="7.6217457196">
				<ele>500.9</ele>
				<time>2021-04-12T11:28:08+02:00</time>
				<extensions>
					<swisstopo:routepoint_id>904765465</swisstopo:routepoint_id>
				</extensions>
			</trkpt>
			<trkpt lat="47.3005974994" lon="7.6215421330">
				<ele>501.0</ele>
				<time>2021-04-12T11:28:09+02:00</time>
				<extensions>
					<swisstopo:routepoint_id>61465848</swisstopo:routepoint_id>
				</extensions>
			</trkpt>
			<trkpt lat="47.3005802191" lon="7.6213387652">
				<ele>501.2</ele>
				<time>2021-04-12T11:28:10+02:00</time>
				<extensions>
					<swisstopo:routepoint_id>116873129</swisstopo:routepoint_id>
				</extensions>
			</trkpt>
			<trkpt lat="47.3005581164" lon="7.6211354762">
				<ele>501.3</ele>
				<time>2021-04-12T11:28:11+02:00</time>
				<extensions>
					<swisstopo:routepoint_id>1486625745</swisstopo:routepoint_id>
				</extensions>
			</trkpt>
			<trkpt lat="47.3005304119" lon="7.6209323660">
				<ele>501.4</ele>
				<time>2021-04-12T11:28:12+02:00</time>
				<extensions>
					<swisstopo:routepoint_id>1894147017</swisstopo:routepoint_id>
				</extensions>
			</trkpt>
			<trkpt lat="47.3004961038" lon="7.6207302599">
				<ele>501.5</ele>
				<time>2021-04-12T11:28:13+02:00</time>
				<extensions>
					<swisstopo:routepoint_id>631331591</swisstopo:routepoint_id>
				</extensions>
			</trkpt>
			<trkpt lat="47.3004544883" lon="7.6205291659">
				<ele>501.6</ele>
				<time>2021-04-12T11:28:14+02:00</time>
				<extensions>
					<swisstopo:routepoint_id>73350110</swisstopo:routepoint_id>
				</extensions>
			</trkpt>
			<trkpt lat="47.3004056478" lon="7.6203301286">
				<ele>501.7</ele>
				<time>2021-04-12T11:28:15+02:00</time>
				<extensions>
					<swisstopo:routepoint_id>139685392</swisstopo:routepoint_id>
				</extensions>
			</trkpt>
			<trkpt lat="47.3003498509" lon="7.6201336765">
				<ele>501.8</ele>
				<time>2021-04-12T11:28:16+02:00</time>
				<extensions>
					<swisstopo:routepoint_id>492757173</swisstopo:routepoint_id>
				</extensions>
			</trkpt>
			<trkpt lat="47.3002865909" lon="7.6199408192">
				<ele>501.9</ele>
				<time>2021-04-12T11:28:17+02:00</time>
				<extensions>
					<swisstopo:routepoint_id>1072863779</swisstopo:routepoint_id>
				</extensions>
			</trkpt>
			<trkpt lat="47.3002158171" lon="7.6197523312">
				<ele>502.0</ele>
				<time>2021-04-12T11:28:18+02:00</time>
				<extensions>
					<swisstopo:routepoint_id>1348833441</swisstopo:routepoint_id>
				</extensions>
			</trkpt>
			<trkpt lat="47.3001373861" lon="7.6195686990">
				<ele>502.1</ele>
				<time>2021-04-12T11:28:19+02:00</time>
				<extensions>
					<swisstopo:routepoint_id>1006265155</swisstopo:routepoint_id>
				</extensions>
			</trkpt>
			<trkpt lat="47.3000513581" lon="7.6193903602">
				<ele>502.2</ele>
				<time>2021-04-12T11:28:20+02:00</time>
				<extensions>
					<swisstopo:routepoint_id>864739960</swisstopo:routepoint_id>
				</extensions>
			</trkpt>
			<trkpt lat="47.2999583335" lon="7.6192177736">
				<ele>502.3</ele>
				<time>2021-04-12T11:28:21+02:00</time>
				<extensions>
					<swisstopo:routepoint_id>1662668471</swisstopo:routepoint_id>
				</extensions>
			</trkpt>
			<trkpt lat="47.2998592697" lon="7.6190499683">
				<ele>502.3</ele>
				<time>2021-04-12T11:28:22+02:00</time>
				<extensions>
					<swisstopo:routepoint_id>1411777333</swisstopo:routepoint_id>
				</extensions>
			</trkpt>
			<trkpt lat="47.2997556291" lon="7.6188858481">
				<ele>502.3</ele>
				<time>2021-04-12T11:28:23+02:00</time>
				<extensions>
					<swisstopo:routepoint_id>194820028</swisstopo:routepoint_id>
				</extensions>
			</trkpt>
			<trkpt lat="47.2996492874" lon="7.6187239544">
				<ele>502.3</ele>
				<time>2021-04-12T11:28:24+02:00</time>
				<extensions>
					<swisstopo:routepoint_id>1575132568</swisstopo:routepoint_id>
				</extensions>
			</trkpt>
			<trkpt lat="47.2995422866" lon="7.6185627733">
				<ele>502.3</ele>
				<time>2021-04-12T11:28:25+02:00</time>
				<extensions>
					<swisstopo:routepoint_id>1222153807</swisstopo:routepoint_id>
				</extensions>
			</trkpt>
			<trkpt lat="47.2994361105" lon="7.6184001252">
				<ele>502.3</ele>
				<time>2021-04-12T11:28:26+02:00</time>
				<extensions>
					<swisstopo:routepoint_id>57950694</swisstopo:routepoint_id>
				</extensions>
			</trkpt>
			<trkpt lat="47.2993327271" lon="7.6182344594">
				<ele>502.3</ele>
				<time>2021-04-12T11:28:27+02:00</time>
				<extensions>
					<swisstopo:routepoint_id>1167221967</swisstopo:routepoint_id>
				</extensions>
			</trkpt>
			<trkpt lat="47.2992337668" lon="7.6180641453">
				<ele>502.4</ele>
				<time>2021-04-12T11:28:28+02:00</time>
				<extensions>
					<swisstopo:routepoint_id>236484024</swisstopo:routepoint_id>
				</extensions>
			</trkpt>
			<trkpt lat="47.2991406372" lon="7.6178884023">
				<ele>502.4</ele>
				<time>2021-04-12T11:28:29+02:00</time>
				<extensions>
					<swisstopo:routepoint_id>1742244418</swisstopo:routepoint_id>
				</extensions>
			</trkpt>
			<trkpt lat="47.2990543413" lon="7.6177070253">
				<ele>502.5</ele>
				<time>2021-04-12T11:28:30+02:00</time>
				<extensions>
					<swisstopo:routepoint_id>962406481</swisstopo:routepoint_id>
				</extensions>
			</trkpt>
			<trkpt lat="47.2989755404" lon="7.6175202544">
				<ele>502.7</ele>
				<time>2021-04-12T11:28:31+02:00</time>
				<extensions>
					<swisstopo:routepoint_id>318896963</swisstopo:routepoint_id>
				</extensions>
			</trkpt>
			<trkpt lat="47.2989044395" lon="7.6173286885">
				<ele>502.8</ele>
				<time>2021-04-12T11:28:32+02:00</time>
				<extensions>
					<swisstopo:routepoint_id>1729557876</swisstopo:routepoint_id>
				</extensions>
			</trkpt>
			<trkpt lat="47.2988412099" lon="7.6171334361">
				<ele>503.0</ele>
				<time>2021-04-12T11:28:33+02:00</time>
				<extensions>
					<swisstopo:routepoint_id>340576140</swisstopo:routepoint_id>
				</extensions>
			</trkpt>
			<trkpt lat="47.2987854662" lon="7.6169353311">
				<ele>503.1</ele>
				<time>2021-04-12T11:28:34+02:00</time>
				<extensions>
					<swisstopo:routepoint_id>1019265725</swisstopo:routepoint_id>
				</extensions>
			</trkpt>
			<trkpt lat="47.2987368136" lon="7.6167351987">
				<ele>503.3</ele>
				<time>2021-04-12T11:28:35+02:00</time>
				<extensions>
					<swisstopo:routepoint_id>321987956</swisstopo:routepoint_id>
				</extensions>
			</trkpt>
			<trkpt lat="47.2986941624" lon="7.6165332102">
				<ele>503.5</ele>
				<time>2021-04-12T11:28:36+02:00</time>
				<extensions>
					<swisstopo:routepoint_id>2140269699</swisstopo:routepoint_id>
				</extensions>
			</trkpt>
			<trkpt lat="47.2986563880" lon="7.6163293093">
				<ele>503.7</ele>
				<time>2021-04-12T11:28:37+02:00</time>
				<extensions>
					<swisstopo:routepoint_id>1161743843</swisstopo:routepoint_id>
				</extensions>
			</trkpt>
			<trkpt lat="47.2986221833" lon="7.6161240842">
				<ele>503.9</ele>
				<time>2021-04-12T11:28:38+02:00</time>
				<extensions>
					<swisstopo:routepoint_id>507450777</swisstopo:routepoint_id>
				</extensions>
			</trkpt>
			<trkpt lat="47.2985903351" lon="7.6159181177">
				<ele>504.2</ele>
				<time>2021-04-12T11:28:39+02:00</time>
				<extensions>
					<swisstopo:routepoint_id>1067646802</swisstopo:routepoint_id>
				</extensions>
			</trkpt>
			<trkpt lat="47.2985601872" lon="7.6157115991">
				<ele>504.4</ele>
				<time>2021-04-12T11:28:40+02:00</time>
				<extensions>
					<swisstopo:routepoint_id>1713930529</swisstopo:routepoint_id>
				</extensions>
			</trkpt>
			<trkpt lat="47.2985305153" lon="7.6155045458">
				<ele>504.7</ele>
				<time>2021-04-12T11:28:41+02:00</time>
				<extensions>
					<swisstopo:routepoint_id>1832243692</swisstopo:routepoint_id>
				</extensions>
			</trkpt>
			<trkpt lat="47.2985000330" lon="7.6152971320">
				<ele>505.0</ele>
				<time>2021-04-12T11:28:42+02:00</time>
				<extensions>
					<swisstopo:routepoint_id>1751717111</swisstopo:routepoint_id>
				</extensions>
			</trkpt>
			<trkpt lat="47.2984674996" lon="7.6150895410">
				<ele>505.2</ele>
				<time>2021-04-12T11:28:43+02:00</time>
				<extensions>
					<swisstopo:routepoint_id>1256167854</swisstopo:routepoint_id>
				</extensions>
			</trkpt>
			<trkpt lat="47.2984315147" lon="7.6148821118">
				<ele>505.5</ele>
				<time>2021-04-12T11:28:44+02:00</time>
				<extensions>
					<swisstopo:routepoint_id>501388521</swisstopo:routepoint_id>
				</extensions>
			</trkpt>
			<trkpt lat="47.2983907546" lon="7.6146751041">
				<ele>505.8</ele>
				<time>2021-04-12T11:28:45+02:00</time>
				<extensions>
					<swisstopo:routepoint_id>111041619</swisstopo:routepoint_id>
				</extensions>
			</trkpt>
			<trkpt lat="47.2983445019" lon="7.6144693072">
				<ele>506.0</ele>
				<time>2021-04-12T11:28:46+02:00</time>
				<extensions>
					<swisstopo:routepoint_id>113201290</swisstopo:routepoint_id>
				</extensions>
			</trkpt>
			<trkpt lat="47.2982916175" lon="7.6142657463">
				<ele>506.1</ele>
				<time>2021-04-12T11:28:47+02:00</time>
				<extensions>
					<swisstopo:routepoint_id>2051053435</swisstopo:routepoint_id>
				</extensions>
			</trkpt>
			<trkpt lat="47.2982310322" lon="7.6140654183">
				<ele>506.2</ele>
				<time>2021-04-12T11:28:48+02:00</time>
				<extensions>
					<swisstopo:routepoint_id>647580401</swisstopo:routepoint_id>
				</extensions>
			</trkpt>
			<trkpt lat="47.2981625880" lon="7.6138689858">
				<ele>506.3</ele>
				<time>2021-04-12T11:28:49+02:00</time>
				<extensions>
					<swisstopo:routepoint_id>436676611</swisstopo:routepoint_id>
				</extensions>
			</trkpt>
			<trkpt lat="47.2980859533" lon="7.6136762163">
				<ele>506.3</ele>
				<time>2021-04-12T11:28:50+02:00</time>
				<extensions>
					<swisstopo:routepoint_id>1272179278</swisstopo:routepoint_id>
				</extensions>
			</trkpt>
			<trkpt lat="47.2980009795" lon="7.6134871598">
				<ele>506.3</ele>
				<time>2021-04-12T11:28:51+02:00</time>
				<extensions>
					<swisstopo:routepoint_id>1169935814</swisstopo:routepoint_id>
				</extensions>
			</trkpt>
			<trkpt lat="47.2979078392" lon="7.6133021191">
				<ele>506.2</ele>
				<time>2021-04-12T11:28:52+02:00</time>
				<extensions>
					<swisstopo:routepoint_id>750953966</swisstopo:routepoint_id>
				</extensions>
			</trkpt>
			<trkpt lat="47.2978072209" lon="7.6131215244">
				<ele>506.1</ele>
				<time>2021-04-12T11:28:53+02:00</time>
				<extensions>
					<swisstopo:routepoint_id>521913143</swisstopo:routepoint_id>
				</extensions>
			</trkpt>
			<trkpt lat="47.2976999665" lon="7.6129455845">
				<ele>506.1</ele>
				<time>2021-04-12T11:28:54+02:00</time>
				<extensions>
					<swisstopo:routepoint_id>1470980053</swisstopo:routepoint_id>
				</extensions>
			</trkpt>
			<trkpt lat="47.2975868718" lon="7.6127733990">
				<ele>506.0</ele>
				<time>2021-04-12T11:28:55+02:00</time>
				<extensions>
					<swisstopo:routepoint_id>930006507</swisstopo:routepoint_id>
				</extensions>
			</trkpt>
			<trkpt lat="47.2974687086" lon="7.6126041966">
				<ele>505.9</ele>
				<time>2021-04-12T11:28:56+02:00</time>
				<extensions>
					<swisstopo:routepoint_id>1233380283</swisstopo:routepoint_id>
				</extensions>
			</trkpt>
			<trkpt lat="47.2973463901" lon="7.6124371808">
				<ele>505.8</ele>
				<time>2021-04-12T11:28:57+02:00</time>
				<extensions>
					<swisstopo:routepoint_id>1910255537</swisstopo:routepoint_id>
				</extensions>
			</trkpt>
			<trkpt lat="47.2972206666" lon="7.6122718004">
				<ele>505.7</ele>
				<time>2021-04-12T11:28:58+02:00</time>
				<extensions>
					<swisstopo:routepoint_id>784287709</swisstopo:routepoint_id>
				</extensions>
			</trkpt>
			<trkpt lat="47.2970927649" lon="7.6121072771">
				<ele>505.7</ele>
				<time>2021-04-12T11:28:59+02:00</time>
				<extensions>
					<swisstopo:routepoint_id>268899877</swisstopo:routepoint_id>
				</extensions>
			</trkpt>
			<trkpt lat="47.2969639994" lon="7.6119426745">
				<ele>505.7</ele>
				<time>2021-04-12T11:29:00+02:00</time>
				<extensions>
					<swisstopo:routepoint_id>1094639451</swisstopo:routepoint_id>
				</extensions>
			</trkpt>
			<trkpt lat="47.2968356596" lon="7.6117768506">
				<ele>505.7</ele>
				<time>2021-04-12T11:29:01+02:00</time>
				<extensions>
					<swisstopo:routepoint_id>112849108</swisstopo:routepoint_id>
				</extensions>
			</trkpt>
			<trkpt lat="47.2967097730" lon="7.6116084319">
				<ele>505.8</ele>
				<time>2021-04-12T11:29:02+02:00</time>
				<extensions>
					<swisstopo:routepoint_id>426897855</swisstopo:routepoint_id>
				</extensions>
			</trkpt>
			<trkpt lat="47.2965876188" lon="7.6114362203">
				<ele>505.9</ele>
				<time>2021-04-12T11:29:03+02:00</time>
				<extensions>
					<swisstopo:routepoint_id>129384358</swisstopo:routepoint_id>
				</extensions>
			</trkpt>
			<trkpt lat="47.2964709537" lon="7.6112591664">
				<ele>506.1</ele>
				<time>2021-04-12T11:29:04+02:00</time>
				<extensions>
					<swisstopo:routepoint_id>1309454142</swisstopo:routepoint_id>
				</extensions>
			</trkpt>
			<trkpt lat="47.2963607493" lon="7.6110765349">
				<ele>506.3</ele>
				<time>2021-04-12T11:29:05+02:00</time>
				<extensions>
					<swisstopo:routepoint_id>583350138</swisstopo:routepoint_id>
				</extensions>
			</trkpt>
			<trkpt lat="47.2962575803" lon="7.6108876259">
				<ele>506.6</ele>
				<time>2021-04-12T11:29:06+02:00</time>
				<extensions>
					<swisstopo:routepoint_id>1102920811</swisstopo:routepoint_id>
				</extensions>
			</trkpt>
			<trkpt lat="47.2961620323" lon="7.6106923828">
				<ele>506.9</ele>
				<time>2021-04-12T11:29:07+02:00</time>
				<extensions>
					<swisstopo:routepoint_id>1858713220</swisstopo:routepoint_id>
				</extensions>
			</trkpt>
			<trkpt lat="47.2960742108" lon="7.6104909255">
				<ele>507.2</ele>
				<time>2021-04-12T11:29:08+02:00</time>
				<extensions>
					<swisstopo:routepoint_id>2095959278</swisstopo:routepoint_id>
				</extensions>
			</trkpt>
			<trkpt lat="47.2959940481" lon="7.6102832397">
				<ele>507.6</ele>
				<time>2021-04-12T11:29:09+02:00</time>
				<extensions>
					<swisstopo:routepoint_id>1613323605</swisstopo:routepoint_id>
				</extensions>
			</trkpt>
			<trkpt lat="47.2959215183" lon="7.6100694051">
				<ele>507.9</ele>
				<time>2021-04-12T11:29:10+02:00</time>
				<extensions>
					<swisstopo:routepoint_id>1001302213</swisstopo:routepoint_id>
				</extensions>
			</trkpt>
			<trkpt lat="47.2958564403" lon="7.6098496732">
				<ele>508.3</ele>
				<time>2021-04-12T11:29:11+02:00</time>
				<extensions>
					<swisstopo:routepoint_id>1204435999</swisstopo:routepoint_id>
				</extensions>
			</trkpt>
			<trkpt lat="47.2957984882" lon="7.6096242669">
				<ele>508.6</ele>
				<time>2021-04-12T11:29:12+02:00</time>
				<extensions>
					<swisstopo:routepoint_id>774978571</swisstopo:routepoint_id>
				</extensions>
			</trkpt>
			<trkpt lat="47.2957471462" lon="7.6093933233">
				<ele>509.0</ele>
				<time>2021-04-12T11:29:13+02:00</time>
				<extensions>
					<swisstopo:routepoint_id>576523742</swisstopo:routepoint_id>
				</extensions>
			</trkpt>
			<trkpt lat="47.2957020791" lon="7.6091566078">
				<ele>509.3</ele>
				<time>2021-04-12T11:29:14+02:00</time>
				<extensions>
					<swisstopo:routepoint_id>188316530</swisstopo:routepoint_id>
				</extensions>
			</trkpt>
			<trkpt lat="47.2956626717" lon="7.6089148620">
				<ele>509.6</ele>
				<time>2021-04-12T11:29:15+02:00</time>
				<extensions>
					<swisstopo:routepoint_id>1792507679</swisstopo:routepoint_id>
				</extensions>
			</trkpt>
			<trkpt lat="47.2956280199" lon="7.6086686946">
				<ele>509.8</ele>
				<time>2021-04-12T11:29:16+02:00</time>
				<extensions>
					<swisstopo:routepoint_id>1775960837</swisstopo:routepoint_id>
				</extensions>
			</trkpt>
			<trkpt lat="47.2955969398" lon="7.6084187082">
				<ele>510.1</ele>
				<time>2021-04-12T11:29:17+02:00</time>
				<extensions>
					<swisstopo:routepoint_id>698577806</swisstopo:routepoint_id>
				</extensions>
			</trkpt>
			<trkpt lat="47.2955686214" lon="7.6081654432">
				<ele>510.4</ele>
				<time>2021-04-12T11:29:18+02:00</time>
				<extensions>
					<swisstopo:routepoint_id>704087293</swisstopo:routepoint_id>
				</extensions>
			</trkpt>
			<trkpt lat="47.2955420749" lon="7.6079094105">
				<ele>510.6</ele>
				<time>2021-04-12T11:29:19+02:00</time>
				<extensions>
					<swisstopo:routepoint_id>960238481</swisstopo:routepoint_id>
				</extensions>
			</trkpt>
			<trkpt lat="47.2955165120" lon="7.6076513050">
				<ele>510.8</ele>
				<time>2021-04-12T11:29:20+02:00</time>
				<extensions>
					<swisstopo:routepoint_id>388542962</swisstopo:routepoint_id>
				</extensions>
			</trkpt>
			<trkpt lat="47.2954914637" lon="7.6073914785">
				<ele>511.0</ele>
				<time>2021-04-12T11:29:21+02:00</time>
				<extensions>
					<swisstopo:routepoint_id>1891275454</swisstopo:routepoint_id>
				</extensions>
			</trkpt>
			<trkpt lat="47.2954662977" lon="7.6071301756">
				<ele>511.2</ele>
				<time>2021-04-12T11:29:22+02:00</time>
				<extensions>
					<swisstopo:routepoint_id>1761096131</swisstopo:routepoint_id>
				</extensions>
			</trkpt>
			<trkpt lat="47.2954405811" lon="7.6068675788">
				<ele>511.4</ele>
				<time>2021-04-12T11:29:23+02:00</time>
				<extensions>
					<swisstopo:routepoint_id>2123050763</swisstopo:routepoint_id>
				</extensions>
			</trkpt>
			<trkpt lat="47.2954141325" lon="7.6066047542">
				<ele>511.6</ele>
				<time>2021-04-12T11:29:24+02:00</time>
				<extensions>
					<swisstopo:routepoint_id>1673378836</swisstopo:routepoint_id>
				</extensions>
			</trkpt>
			<trkpt lat="47.2953870366" lon="7.6063422304">
				<ele>511.9</ele>
				<time>2021-04-12T11:29:25+02:00</time>
				<extensions>
					<swisstopo:routepoint_id>1032255540</swisstopo:routepoint_id>
				</extensions>
			</trkpt>
			<trkpt lat="47.2953597358" lon="7.6060806655">
				<ele>512.1</ele>
				<time>2021-04-12T11:29:26+02:00</time>
				<extensions>
					<swisstopo:routepoint_id>1745960314</swisstopo:routepoint_id>
				</extensions>
			</trkpt>
			<trkpt lat="47.2953321285" lon="7.6058200182">
				<ele>512.3</ele>
				<time>2021-04-12T11:29:27+02:00</time>
				<extensions>
					<swisstopo:routepoint_id>1138444790</swisstopo:routepoint_id>
				</extensions>
			</trkpt>
			<trkpt lat="47.2953042158" lon="7.6055607026">
				<ele>512.5</ele>
				<time>2021-04-12T11:29:28+02:00</time>
				<extensions>
					<swisstopo:routepoint_id>1909774407</swisstopo:routepoint_id>
				</extensions>
			</trkpt>
			<trkpt lat="47.2952758405" lon="7.6053027303">
				<ele>512.6</ele>
				<time>2021-04-12T11:29:29+02:00</time>
				<extensions>
					<swisstopo:routepoint_id>1287870387</swisstopo:routepoint_id>
				</extensions>
			</trkpt>
			<trkpt lat="47.2952470383" lon="7.6050460148">
				<ele>512.8</ele>
				<time>2021-04-12T11:29:30+02:00</time>
				<extensions>
					<swisstopo:routepoint_id>749916196</swisstopo:routepoint_id>
				</extensions>
			</trkpt>
			<trkpt lat="47.2952178686" lon="7.6047903847">
				<ele>513.0</ele>
				<time>2021-04-12T11:29:31+02:00</time>
				<extensions>
					<swisstopo:routepoint_id>259981929</swisstopo:routepoint_id>
				</extensions>
			</trkpt>
			<trkpt lat="47.2951879460" lon="7.6045353805">
				<ele>513.2</ele>
				<time>2021-04-12T11:29:32+02:00</time>
				<extensions>
					<swisstopo:routepoint_id>1534542705</swisstopo:routepoint_id>
				</extensions>
			</trkpt>
			<trkpt lat="47.2951571574" lon="7.6042800330">
				<ele>513.3</ele>
				<time>2021-04-12T11:29:33+02:00</time>
				<extensions>
					<swisstopo:routepoint_id>1928126112</swisstopo:routepoint_id>
				</extensions>
			</trkpt>
			<trkpt lat="47.2951256803" lon="7.6040233875">
				<ele>513.5</ele>
				<time>2021-04-12T11:29:34+02:00</time>
				<extensions>
					<swisstopo:routepoint_id>487331154</swisstopo:routepoint_id>
				</extensions>
			</trkpt>
			<trkpt lat="47.2950932372" lon="7.6037644430">
				<ele>513.7</ele>
				<time>2021-04-12T11:29:35+02:00</time>
				<extensions>
					<swisstopo:routepoint_id>72075620</swisstopo:routepoint_id>
				</extensions>
			</trkpt>
			<trkpt lat="47.2950599928" lon="7.6035036577">
				<ele>513.8</ele>
				<time>2021-04-12T11:29:36+02:00</time>
				<extensions>
					<swisstopo:routepoint_id>194168432</swisstopo:routepoint_id>
				</extensions>
			</trkpt>
			<trkpt lat="47.2950261460" lon="7.6032413147">
				<ele>514.0</ele>
				<time>2021-04-12T11:29:37+02:00</time>
				<extensions>
					<swisstopo:routepoint_id>1361176831</swisstopo:routepoint_id>
				</extensions>
			</trkpt>
			<trkpt lat="47.2949916193" lon="7.6029771186">
				<ele>514.1</ele>
				<time>2021-04-12T11:29:38+02:00</time>
				<extensions>
					<swisstopo:routepoint_id>155707126</swisstopo:routepoint_id>
				</extensions>
			</trkpt>
			<trkpt lat="47.2949564679" lon="7.6027116398">
				<ele>514.3</ele>
				<time>2021-04-12T11:29:39+02:00</time>
				<extensions>
					<swisstopo:routepoint_id>1334584636</swisstopo:routepoint_id>
				</extensions>
			</trkpt>
			<trkpt lat="47.2949207997" lon="7.6024454751">
				<ele>514.5</ele>
				<time>2021-04-12T11:29:40+02:00</time>
				<extensions>
					<swisstopo:routepoint_id>2044767984</swisstopo:routepoint_id>
				</extensions>
			</trkpt>
			<trkpt lat="47.2948849511" lon="7.6021788818">
				<ele>514.7</ele>
				<time>2021-04-12T11:29:41+02:00</time>
				<extensions>
					<swisstopo:routepoint_id>234704147</swisstopo:routepoint_id>
				</extensions>
			</trkpt>
			<trkpt lat="47.2948491285" lon="7.6019131217">
				<ele>514.9</ele>
				<time>2021-04-12T11:29:42+02:00</time>
				<extensions>
					<swisstopo:routepoint_id>1892622737</swisstopo:routepoint_id>
				</extensions>
			</trkpt>
			<trkpt lat="47.2948128321" lon="7.6016488120">
				<ele>515.1</ele>
				<time>2021-04-12T11:29:43+02:00</time>
				<extensions>
					<swisstopo:routepoint_id>782561395</swisstopo:routepoint_id>
				</extensions>
			</trkpt>
			<trkpt lat="47.2947762791" lon="7.6013861225">
				<ele>515.3</ele>
				<time>2021-04-12T11:29:44+02:00</time>
				<extensions>
					<swisstopo:routepoint_id>1319511537</swisstopo:routepoint_id>
				</extensions>
			</trkpt>
			<trkpt lat="47.2947396616" lon="7.6011251974">
				<ele>515.6</ele>
				<time>2021-04-12T11:29:45+02:00</time>
				<extensions>
					<swisstopo:routepoint_id>2114263437</swisstopo:routepoint_id>
				</extensions>
			</trkpt>
			<trkpt lat="47.2947033016" lon="7.6008658531">
				<ele>515.8</ele>
				<time>2021-04-12T11:29:46+02:00</time>
				<extensions>
					<swisstopo:routepoint_id>13678750</swisstopo:routepoint_id>
				</extensions>
			</trkpt>
			<trkpt lat="47.2946673102" lon="7.6006082246">
				<ele>516.1</ele>
				<time>2021-04-12T11:29:47+02:00</time>
				<extensions>
					<swisstopo:routepoint_id>118001021</swisstopo:routepoint_id>
				</extensions>
			</trkpt>
			<trkpt lat="47.2946318507" lon="7.6003521065">
				<ele>516.4</ele>
				<time>2021-04-12T11:29:48+02:00</time>
				<extensions>
					<swisstopo:routepoint_id>1115753766</swisstopo:routepoint_id>
				</extensions>
			</trkpt>
			<trkpt lat="47.2945967186" lon="7.6000979429">
				<ele>516.7</ele>
				<time>2021-04-12T11:29:49+02:00</time>
				<extensions>
					<swisstopo:routepoint_id>646339558</swisstopo:routepoint_id>
				</extensions>
			</trkpt>
			<trkpt lat="47.2945619856" lon="7.5998454198">
				<ele>517.0</ele>
				<time>2021-04-12T11:29:50+02:00</time>
				<extensions>
					<swisstopo:routepoint_id>1056664780</swisstopo:routepoint_id>
				</extensions>
			</trkpt>
			<trkpt lat="47.2945277811" lon="7.5995941751">
				<ele>517.3</ele>
				<time>2021-04-12T11:29:51+02:00</time>
				<extensions>
					<swisstopo:routepoint_id>1822680417</swisstopo:routepoint_id>
				</extensions>
			</trkpt>
			<trkpt lat="47.2944938628" lon="7.5993445910">
				<ele>517.5</ele>
				<time>2021-04-12T11:29:52+02:00</time>
				<extensions>
					<swisstopo:routepoint_id>2083027711</swisstopo:routepoint_id>
				</extensions>
			</trkpt>
			<trkpt lat="47.2944605118" lon="7.5990966283">
				<ele>517.8</ele>
				<time>2021-04-12T11:29:53+02:00</time>
				<extensions>
					<swisstopo:routepoint_id>1168325383</swisstopo:routepoint_id>
				</extensions>
			</trkpt>
			<trkpt lat="47.2944276707" lon="7.5988496940">
				<ele>518.0</ele>
				<time>2021-04-12T11:29:54+02:00</time>
				<extensions>
					<swisstopo:routepoint_id>1601727560</swisstopo:routepoint_id>
				</extensions>
			</trkpt>
			<trkpt lat="47.2943950270" lon="7.5986040350">
				<ele>518.3</ele>
				<time>2021-04-12T11:29:55+02:00</time>
				<extensions>
					<swisstopo:routepoint_id>1527585775</swisstopo:routepoint_id>
				</extensions>
			</trkpt>
			<trkpt lat="47.2943626045" lon="7.5983592850">
				<ele>518.5</ele>
				<time>2021-04-12T11:29:56+02:00</time>
				<extensions>
					<swisstopo:routepoint_id>967120540</swisstopo:routepoint_id>
				</extensions>
			</trkpt>
			<trkpt lat="47.2943302464" lon="7.5981157151">
				<ele>518.8</ele>
				<time>2021-04-12T11:29:57+02:00</time>
				<extensions>
					<swisstopo:routepoint_id>91191637</swisstopo:routepoint_id>
				</extensions>
			</trkpt>
			<trkpt lat="47.2942976889" lon="7.5978735466">
				<ele>519.0</ele>
				<time>2021-04-12T11:29:58+02:00</time>
				<extensions>
					<swisstopo:routepoint_id>1502002748</swisstopo:routepoint_id>
				</extensions>
			</trkpt>
			<trkpt lat="47.2942642739" lon="7.5976297817">
				<ele>519.2</ele>
				<time>2021-04-12T11:29:59+02:00</time>
				<extensions>
					<swisstopo:routepoint_id>489915151</swisstopo:routepoint_id>
				</extensions>
			</trkpt>
			<trkpt lat="47.2942306400" lon="7.5973913931">
				<ele>519.4</ele>
				<time>2021-04-12T11:30:00+02:00</time>
				<extensions>
					<swisstopo:routepoint_id>551640259</swisstopo:routepoint_id>
				</extensions>
			</trkpt>
			<trkpt lat="47.2941960672" lon="7.5971543885">
				<ele>519.6</ele>
				<time>2021-04-12T11:30:01+02:00</time>
				<extensions>
					<swisstopo:routepoint_id>730928914</swisstopo:routepoint_id>
				</extensions>
			</trkpt>
			<trkpt lat="47.2941600241" lon="7.5969187927">
				<ele>519.9</ele>
				<time>2021-04-12T11:30:02+02:00</time>
				<extensions>
					<swisstopo:routepoint_id>1115796758</swisstopo:routepoint_id>
				</extensions>
			</trkpt>
			<trkpt lat="47.2941218723" lon="7.5966847190">
				<ele>520.1</ele>
				<time>2021-04-12T11:30:03+02:00</time>
				<extensions>
					<swisstopo:routepoint_id>1368906102</swisstopo:routepoint_id>
				</extensions>
			</trkpt>
			<trkpt lat="47.2940811642" lon="7.5964521541">
				<ele>520.2</ele>
				<time>2021-04-12T11:30:04+02:00</time>
				<extensions>
					<swisstopo:routepoint_id>1212546003</swisstopo:routepoint_id>
				</extensions>
			</trkpt>
			<trkpt lat="47.2940379414" lon="7.5962212695">
				<ele>520.4</ele>
				<time>2021-04-12T11:30:05+02:00</time>
				<extensions>
					<swisstopo:routepoint_id>1788346038</swisstopo:routepoint_id>
				</extensions>
			</trkpt>
			<trkpt lat="47.2939919154" lon="7.5959918846">
				<ele>520.6</ele>
				<time>2021-04-12T11:30:06+02:00</time>
				<extensions>
					<swisstopo:routepoint_id>550737254</swisstopo:routepoint_id>
				</extensions>
			</trkpt>
			<trkpt lat="47.2939431731" lon="7.5957636810">
				<ele>520.7</ele>
				<time>2021-04-12T11:30:07+02:00</time>
				<extensions>
					<swisstopo:routepoint_id>586509408</swisstopo:routepoint_id>
				</extensions>
			</trkpt>
			<trkpt lat="47.2938918933" lon="7.5955372025">
				<ele>520.9</ele>
				<time>2021-04-12T11:30:08+02:00</time>
				<extensions>
					<swisstopo:routepoint_id>513680526</swisstopo:routepoint_id>
				</extensions>
			</trkpt>
			<trkpt lat="47.2938383668" lon="7.5953129042">
				<ele>521.1</ele>
				<time>2021-04-12T11:30:09+02:00</time>
				<extensions>
					<swisstopo:routepoint_id>544339542</swisstopo:routepoint_id>
				</extensions>
			</trkpt>
			<trkpt lat="47.2937827244" lon="7.5950917855">
				<ele>521.3</ele>
				<time>2021-04-12T11:30:10+02:00</time>
				<extensions>
					<swisstopo:routepoint_id>434346174</swisstopo:routepoint_id>
				</extensions>
			</trkpt>
			<trkpt lat="47.2937252755" lon="7.5948742019">
				<ele>521.5</ele>
				<time>2021-04-12T11:30:11+02:00</time>
				<extensions>
					<swisstopo:routepoint_id>759230265</swisstopo:routepoint_id>
				</extensions>
			</trkpt>
			<trkpt lat="47.2936662962" lon="7.5946601312">
				<ele>521.8</ele>
				<time>2021-04-12T11:30:12+02:00</time>
				<extensions>
					<swisstopo:routepoint_id>35233381</swisstopo:routepoint_id>
				</extensions>
			</trkpt>
			<trkpt lat="47.2936056871" lon="7.5944490301">
				<ele>522.0</ele>
				<time>2021-04-12T11:30:13+02:00</time>
				<extensions>
					<swisstopo:routepoint_id>1609431542</swisstopo:routepoint_id>
				</extensions>
			</trkpt>
			<trkpt lat="47.2935433740" lon="7.5942406665">
				<ele>522.2</ele>
				<time>2021-04-12T11:30:14+02:00</time>
				<extensions>
					<swisstopo:routepoint_id>11908782</swisstopo:routepoint_id>
				</extensions>
			</trkpt>
			<trkpt lat="47.2934796426" lon="7.5940343513">
				<ele>522.4</ele>
				<time>2021-04-12T11:30:15+02:00</time>
				<extensions>
					<swisstopo:routepoint_id>434919903</swisstopo:routepoint_id>
				</extensions>
			</trkpt>
			<trkpt lat="47.2934147993" lon="7.5938289080">
				<ele>522.6</ele>
				<time>2021-04-12T11:30:16+02:00</time>
				<extensions>
					<swisstopo:routepoint_id>1811958980</swisstopo:routepoint_id>
				</extensions>
			</trkpt>
			<trkpt lat="47.2933490053" lon="7.5936240829">
				<ele>522.7</ele>
				<time>2021-04-12T11:30:17+02:00</time>
				<extensions>
					<swisstopo:routepoint_id>128978753</swisstopo:routepoint_id>
				</extensions>
			</trkpt>
			<trkpt lat="47.2932824052" lon="7.5934197004">
				<ele>522.9</ele>
				<time>2021-04-12T11:30:18+02:00</time>
				<extensions>
					<swisstopo:routepoint_id>934901848</swisstopo:routepoint_id>
				</extensions>
			</trkpt>
			<trkpt lat="47.2932149220" lon="7.5932158022">
				<ele>523.0</ele>
				<time>2021-04-12T11:30:19+02:00</time>
				<extensions>
					<swisstopo:routepoint_id>1904997884</swisstopo:routepoint_id>
				</extensions>
			</trkpt>
			<trkpt lat="47.2931469836" lon="7.5930129549">
				<ele>523.1</ele>
				<time>2021-04-12T11:30:20+02:00</time>
				<extensions>
					<swisstopo:routepoint_id>465743265</swisstopo:routepoint_id>
				</extensions>
			</trkpt>
			<trkpt lat="47.2930791061" lon="7.5928129590">
				<ele>523.2</ele>
				<time>2021-04-12T11:30:21+02:00</time>
				<extensions>
					<swisstopo:routepoint_id>169161540</swisstopo:routepoint_id>
				</extensions>
			</trkpt>
			<trkpt lat="47.2930117236" lon="7.5926181004">
				<ele>523.2</ele>
				<time>2021-04-12T11:30:22+02:00</time>
				<extensions>
					<swisstopo:routepoint_id>1977137799</swisstopo:routepoint_id>
				</extensions>
			</trkpt>
			<trkpt lat="47.2929454481" lon="7.5924301521">
				<ele>523.2</ele>
				<time>2021-04-12T11:30:23+02:00</time>
				<extensions>
					<swisstopo:routepoint_id>1740517762</swisstopo:routepoint_id>
				</extensions>
			</trkpt>
			<trkpt lat="47.2928807237" lon="7.5922497138">
				<ele>523.3</ele>
				<time>2021-04-12T11:30:24+02:00</time>
				<extensions>
					<swisstopo:routepoint_id>2007270147</swisstopo:routepoint_id>
				</extensions>
			</trkpt>
			<trkpt lat="47.2928173466" lon="7.5920755017">
				<ele>523.3</ele>
				<time>2021-04-12T11:30:25+02:00</time>
				<extensions>
					<swisstopo:routepoint_id>1368749906</swisstopo:routepoint_id>
				</extensions>
			</trkpt>
			<trkpt lat="47.2927547190" lon="7.5919057628">
				<ele>523.4</ele>
				<time>2021-04-12T11:30:26+02:00</time>
				<extensions>
					<swisstopo:routepoint_id>734843478</swisstopo:routepoint_id>
				</extensions>
			</trkpt>
			<trkpt lat="47.2926921132" lon="7.5917373275">
				<ele>523.4</ele>
				<time>2021-04-12T11:30:27+02:00</time>
				<extensions>
					<swisstopo:routepoint_id>335880849</swisstopo:routepoint_id>
				</extensions>
			</trkpt>
			<trkpt lat="47.2926284299" lon="7.5915659207">
				<ele>523.4</ele>
				<time>2021-04-12T11:30:28+02:00</time>
				<extensions>
					<swisstopo:routepoint_id>1562404827</swisstopo:routepoint_id>
				</extensions>
			</trkpt>
			<trkpt lat="47.2925625343" lon="7.5913871019">
				<ele>523.5</ele>
				<time>2021-04-12T11:30:29+02:00</time>
				<extensions>
					<swisstopo:routepoint_id>2055375520</swisstopo:routepoint_id>
				</extensions>
			</trkpt>
			<trkpt lat="47.2924939524" lon="7.5911985020">
				<ele>523.6</ele>
				<time>2021-04-12T11:30:30+02:00</time>
				<extensions>
					<swisstopo:routepoint_id>274418998</swisstopo:routepoint_id>
				</extensions>
			</trkpt>
			<trkpt lat="47.2924226377" lon="7.5909997235">
				<ele>523.7</ele>
				<time>2021-04-12T11:30:31+02:00</time>
				<extensions>
					<swisstopo:routepoint_id>1512709277</swisstopo:routepoint_id>
				</extensions>
			</trkpt>
			<trkpt lat="47.2923489822" lon="7.5907914118">
				<ele>523.9</ele>
				<time>2021-04-12T11:30:32+02:00</time>
				<extensions>
					<swisstopo:routepoint_id>45921706</swisstopo:routepoint_id>
				</extensions>
			</trkpt>
			<trkpt lat="47.2922732763" lon="7.5905744280">
				<ele>524.1</ele>
				<time>2021-04-12T11:30:33+02:00</time>
				<extensions>
					<swisstopo:routepoint_id>859483469</swisstopo:routepoint_id>
				</extensions>
			</trkpt>
			<trkpt lat="47.2921961613" lon="7.5903502353">
				<ele>524.3</ele>
				<time>2021-04-12T11:30:34+02:00</time>
				<extensions>
					<swisstopo:routepoint_id>1363653761</swisstopo:routepoint_id>
				</extensions>
			</trkpt>
			<trkpt lat="47.2921179694" lon="7.5901208333">
				<ele>524.5</ele>
				<time>2021-04-12T11:30:35+02:00</time>
				<extensions>
					<swisstopo:routepoint_id>983280343</swisstopo:routepoint_id>
				</extensions>
			</trkpt>
			<trkpt lat="47.2920391088" lon="7.5898880923">
				<ele>524.7</ele>
				<time>2021-04-12T11:30:36+02:00</time>
				<extensions>
					<swisstopo:routepoint_id>1106061136</swisstopo:routepoint_id>
				</extensions>
			</trkpt>
			<trkpt lat="47.2919598799" lon="7.5896527925">
				<ele>525.0</ele>
				<time>2021-04-12T11:30:37+02:00</time>
				<extensions>
					<swisstopo:routepoint_id>951064320</swisstopo:routepoint_id>
				</extensions>
			</trkpt>
			<trkpt lat="47.2918809562" lon="7.5894167227">
				<ele>525.2</ele>
				<time>2021-04-12T11:30:38+02:00</time>
				<extensions>
					<swisstopo:routepoint_id>817241619</swisstopo:routepoint_id>
				</extensions>
			</trkpt>
			<trkpt lat="47.2918023361" lon="7.5891808190">
				<ele>525.5</ele>
				<time>2021-04-12T11:30:39+02:00</time>
				<extensions>
					<swisstopo:routepoint_id>74484321</swisstopo:routepoint_id>
				</extensions>
			</trkpt>
			<trkpt lat="47.2917240131" lon="7.5889462122">
				<ele>525.7</ele>
				<time>2021-04-12T11:30:40+02:00</time>
				<extensions>
					<swisstopo:routepoint_id>2022500493</swisstopo:routepoint_id>
				</extensions>
			</trkpt>
			<trkpt lat="47.2916458230" lon="7.5887135615">
				<ele>525.9</ele>
				<time>2021-04-12T11:30:41+02:00</time>
				<extensions>
					<swisstopo:routepoint_id>1794621135</swisstopo:routepoint_id>
				</extensions>
			</trkpt>
			<trkpt lat="47.2915677781" lon="7.5884833165">
				<ele>526.1</ele>
				<time>2021-04-12T11:30:42+02:00</time>
				<extensions>
					<swisstopo:routepoint_id>789593830</swisstopo:routepoint_id>
				</extensions>
			</trkpt>
			<trkpt lat="47.2914901075" lon="7.5882569395">
				<ele>526.3</ele>
				<time>2021-04-12T11:30:43+02:00</time>
				<extensions>
					<swisstopo:routepoint_id>1402045997</swisstopo:routepoint_id>
				</extensions>
			</trkpt>
			<trkpt lat="47.2914132596" lon="7.5880361432">
				<ele>526.6</ele>
				<time>2021-04-12T11:30:44+02:00</time>
				<extensions>
					<swisstopo:routepoint_id>1996496695</swisstopo:routepoint_id>
				</extensions>
			</trkpt>
			<trkpt lat="47.2913384878" lon="7.5878232655">
				<ele>526.8</ele>
				<time>2021-04-12T11:30:45+02:00</time>
				<extensions>
					<swisstopo:routepoint_id>687968490</swisstopo:routepoint_id>
				</extensions>
			</trkpt>
			<trkpt lat="47.2912670734" lon="7.5876211074">
				<ele>527.0</ele>
				<time>2021-04-12T11:30:46+02:00</time>
				<extensions>
					<swisstopo:routepoint_id>634455982</swisstopo:routepoint_id>
				</extensions>
			</trkpt>
			<trkpt lat="47.2912002621" lon="7.5874324752">
				<ele>527.3</ele>
				<time>2021-04-12T11:30:47+02:00</time>
				<extensions>
					<swisstopo:routepoint_id>1045382119</swisstopo:routepoint_id>
				</extensions>
			</trkpt>
			<trkpt lat="47.2911386127" lon="7.5872601831">
				<ele>527.5</ele>
				<time>2021-04-12T11:30:48+02:00</time>
				<extensions>
					<swisstopo:routepoint_id>1173557926</swisstopo:routepoint_id>
				</extensions>
			</trkpt>
			<trkpt lat="47.2910817660" lon="7.5871059460">
				<ele>527.8</ele>
				<time>2021-04-12T11:30:49+02:00</time>
				<extensions>
					<swisstopo:routepoint_id>1498248234</swisstopo:routepoint_id>
				</extensions>
			</trkpt>
			<trkpt lat="47.2910299420" lon="7.5869712328">
				<ele>528.1</ele>
				<time>2021-04-12T11:30:50+02:00</time>
				<extensions>
					<swisstopo:routepoint_id>1812307763</swisstopo:routepoint_id>
				</extensions>
			</trkpt>
			<trkpt lat="47.2909844720" lon="7.5868560265">
				<ele>528.3</ele>
				<time>2021-04-12T11:30:51+02:00</time>
				<extensions>
					<swisstopo:routepoint_id>1696007340</swisstopo:routepoint_id>
				</extensions>
			</trkpt>
			<trkpt lat="47.2909463113" lon="7.5867599643">
				<ele>528.5</ele>
				<time>2021-04-12T11:30:52+02:00</time>
				<extensions>
					<swisstopo:routepoint_id>1244916749</swisstopo:routepoint_id>
				</extensions>
			</trkpt>
			<trkpt lat="47.2909157809" lon="7.5866825047">
				<ele>528.8</ele>
				<time>2021-04-12T11:30:53+02:00</time>
				<extensions>
					<swisstopo:routepoint_id>382627722</swisstopo:routepoint_id>
				</extensions>
			</trkpt>
			<trkpt lat="47.2908929815" lon="7.5866217951">
				<ele>529.0</ele>
				<time>2021-04-12T11:30:54+02:00</time>
				<extensions>
					<swisstopo:routepoint_id>1258084536</swisstopo:routepoint_id>
				</extensions>
			</trkpt>
			<trkpt lat="47.2908779827" lon="7.5865766988">
				<ele>529.1</ele>
				<time>2021-04-12T11:30:55+02:00</time>
				<extensions>
					<swisstopo:routepoint_id>502808190</swisstopo:routepoint_id>
				</extensions>
			</trkpt>
			<trkpt lat="47.2908701433" lon="7.5865469973">
				<ele>529.2</ele>
				<time>2021-04-12T11:30:56+02:00</time>
				<extensions>
					<swisstopo:routepoint_id>349098385</swisstopo:routepoint_id>
				</extensions>
			</trkpt>
			<trkpt lat="47.2908678147" lon="7.5865319588">
				<ele>529.3</ele>
				<time>2021-04-12T11:30:57+02:00</time>
				<extensions>
					<swisstopo:routepoint_id>371233091</swisstopo:routepoint_id>
				</extensions>
			</trkpt>
			<trkpt lat="47.2908696457" lon="7.5865302214">
				<ele>529.3</ele>
				<time>2021-04-12T11:30:58+02:00</time>
				<extensions>
					<swisstopo:routepoint_id>874565902</swisstopo:routepoint_id>
				</extensions>
			</trkpt>
			<trkpt lat="47.2908745797" lon="7.5865388077">
				<ele>529.3</ele>
				<time>2021-04-12T11:30:59+02:00</time>
				<extensions>
					<swisstopo:routepoint_id>1451034846</swisstopo:routepoint_id>
				</extensions>
			</trkpt>
			<trkpt lat="47.2908818427" lon="7.5865546720">
				<ele>529.3</ele>
				<time>2021-04-12T11:31:00+02:00</time>
				<extensions>
					<swisstopo:routepoint_id>718361390</swisstopo:routepoint_id>
				</extensions>
			</trkpt>
			<trkpt lat="47.2908903919" lon="7.5865759426">
				<ele>529.3</ele>
				<time>2021-04-12T11:31:01+02:00</time>
				<extensions>
					<swisstopo:routepoint_id>346818296</swisstopo:routepoint_id>
				</extensions>
			</trkpt>
			<trkpt lat="47.2908994566" lon="7.5866006203">
				<ele>529.3</ele>
				<time>2021-04-12T11:31:02+02:00</time>
				<extensions>
					<swisstopo:routepoint_id>704482914</swisstopo:routepoint_id>
				</extensions>
			</trkpt>
			<trkpt lat="47.2909085912" lon="7.5866269457">
				<ele>529.3</ele>
				<time>2021-04-12T11:31:03+02:00</time>
				<extensions>
					<swisstopo:routepoint_id>1166989687</swisstopo:routepoint_id>
				</extensions>
			</trkpt>
			<trkpt lat="47.2909173624" lon="7.5866538726">
				<ele>529.4</ele>
				<time>2021-04-12T11:31:04+02:00</time>
				<extensions>
					<swisstopo:routepoint_id>627521358</swisstopo:routepoint_id>
				</extensions>
			</trkpt>
			<trkpt lat="47.2909256160" lon="7.5866804600">
				<ele>529.4</ele>
				<time>2021-04-12T11:31:05+02:00</time>
				<extensions>
					<swisstopo:routepoint_id>459273489</swisstopo:routepoint_id>
				</extensions>
			</trkpt>
			<trkpt lat="47.2909331411" lon="7.5867056909">
				<ele>529.5</ele>
				<time>2021-04-12T11:31:06+02:00</time>
				<extensions>
					<swisstopo:routepoint_id>953302305</swisstopo:routepoint_id>
				</extensions>
			</trkpt>
			<trkpt lat="47.2909397407" lon="7.5867288776">
				<ele>529.6</ele>
				<time>2021-04-12T11:31:07+02:00</time>
				<extensions>
					<swisstopo:routepoint_id>1923833515</swisstopo:routepoint_id>
				</extensions>
			</trkpt>
			<trkpt lat="47.2909453955" lon="7.5867493607">
				<ele>529.7</ele>
				<time>2021-04-12T11:31:08+02:00</time>
				<extensions>
					<swisstopo:routepoint_id>1356097373</swisstopo:routepoint_id>
				</extensions>
			</trkpt>
			<trkpt lat="47.2909499702" lon="7.5867673273">
				<ele>529.8</ele>
				<time>2021-04-12T11:31:09+02:00</time>
				<extensions>
					<swisstopo:routepoint_id>684602400</swisstopo:routepoint_id>
				</extensions>
			</trkpt>
			<trkpt lat="47.2909536618" lon="7.5867829038">
				<ele>529.8</ele>
				<time>2021-04-12T11:31:10+02:00</time>
				<extensions>
					<swisstopo:routepoint_id>2042639821</swisstopo:routepoint_id>
				</extensions>
			</trkpt>
			<trkpt lat="47.2909565449" lon="7.5867961822">
				<ele>529.9</ele>
				<time>2021-04-12T11:31:11+02:00</time>
				<extensions>
					<swisstopo:routepoint_id>973890605</swisstopo:routepoint_id>
				</extensions>
			</trkpt>
			<trkpt lat="47.2909587323" lon="7.5868070602">
				<ele>530.0</ele>
				<time>2021-04-12T11:31:12+02:00</time>
				<extensions>
					<swisstopo:routepoint_id>59040801</swisstopo:routepoint_id>
				</extensions>
			</trkpt>
			<trkpt lat="47.2909602646" lon="7.5868157659">
				<ele>530.1</ele>
				<time>2021-04-12T11:31:13+02:00</time>
				<extensions>
					<swisstopo:routepoint_id>161297493</swisstopo:routepoint_id>
				</extensions>
			</trkpt>
			<trkpt lat="47.2909613878" lon="7.5868225818">
				<ele>530.1</ele>
				<time>2021-04-12T11:31:14+02:00</time>
				<extensions>
					<swisstopo:routepoint_id>802602337</swisstopo:routepoint_id>
				</extensions>
			</trkpt>
			<trkpt lat="47.2909622011" lon="7.5868277945">
				<ele>530.2</ele>
				<time>2021-04-12T11:31:15+02:00</time>
				<extensions>
					<swisstopo:routepoint_id>992691152</swisstopo:routepoint_id>
				</extensions>
			</trkpt>
			<trkpt lat="47.2909626747" lon="7.5868317661">
				<ele>530.3</ele>
				<time>2021-04-12T11:31:16+02:00</time>
				<extensions>
					<swisstopo:routepoint_id>359738121</swisstopo:routepoint_id>
				</extensions>
			</trkpt>
			<trkpt lat="47.2909629485" lon="7.5868347729">
				<ele>530.4</ele>
				<time>2021-04-12T11:31:17+02:00</time>
				<extensions>
					<swisstopo:routepoint_id>952133342</swisstopo:routepoint_id>
				</extensions>
			</trkpt>
			<trkpt lat="47.2909631353" lon="7.5868371706">
				<ele>530.4</ele>
				<time>2021-04-12T11:31:18+02:00</time>
				<extensions>
					<swisstopo:routepoint_id>1604425197</swisstopo:routepoint_id>
				</extensions>
			</trkpt>
			<trkpt lat="47.2909632242" lon="7.5868389252">
				<ele>530.5</ele>
				<time>2021-04-12T11:31:19+02:00</time>
				<extensions>
					<swisstopo:routepoint_id>1769614247</swisstopo:routepoint_id>
				</extensions>
			</trkpt>
			<trkpt lat="47.2909632293" lon="7.5868401150">
				<ele>530.5</ele>
				<time>2021-04-12T11:31:20+02:00</time>
				<extensions>
					<swisstopo:routepoint_id>1405622026</swisstopo:routepoint_id>
				</extensions>
			</trkpt>
			<trkpt lat="47.2909632161" lon="7.5868407803">
				<ele>530.6</ele>
				<time>2021-04-12T11:31:21+02:00</time>
				<extensions>
					<swisstopo:routepoint_id>1969273982</swisstopo:routepoint_id>
				</extensions>
			</trkpt>
			<trkpt lat="47.2909632445" lon="7.5868410207">
				<ele>530.6</ele>
				<time>2021-04-12T11:31:22+02:00</time>
				<extensions>
					<swisstopo:routepoint_id>569847910</swisstopo:routepoint_id>
				</extensions>
			</trkpt>
			<trkpt lat="47.2909632476" lon="7.5868409063">
				<ele>530.6</ele>
				<time>2021-04-12T11:31:23+02:00</time>
				<extensions>
					<swisstopo:routepoint_id>1804241397</swisstopo:routepoint_id>
				</extensions>
			</trkpt>
			<trkpt lat="47.2909633357" lon="7.5868403749">
				<ele>530.7</ele>
				<time>2021-04-12T11:31:24+02:00</time>
				<extensions>
					<swisstopo:routepoint_id>1416063739</swisstopo:routepoint_id>
				</extensions>
			</trkpt>
			<trkpt lat="47.2909634741" lon="7.5868396525">
				<ele>530.7</ele>
				<time>2021-04-12T11:31:25+02:00</time>
				<extensions>
					<swisstopo:routepoint_id>1369485319</swisstopo:routepoint_id>
				</extensions>
			</trkpt>
			<trkpt lat="47.2909636018" lon="7.5868388301">
				<ele>530.7</ele>
				<time>2021-04-12T11:31:26+02:00</time>
				<extensions>
					<swisstopo:routepoint_id>210027887</swisstopo:routepoint_id>
				</extensions>
			</trkpt>
			<trkpt lat="47.2909638035" lon="7.5868378831">
				<ele>530.7</ele>
				<time>2021-04-12T11:31:27+02:00</time>
				<extensions>
					<swisstopo:routepoint_id>1623064788</swisstopo:routepoint_id>
				</extensions>
			</trkpt>
			<trkpt lat="47.2909638412" lon="7.5868367469">
				<ele>530.7</ele>
				<time>2021-04-12T11:31:28+02:00</time>
				<extensions>
					<swisstopo:routepoint_id>1512607722</swisstopo:routepoint_id>
				</extensions>
			</trkpt>
			<trkpt lat="47.2909638722" lon="7.5868356518">
				<ele>530.7</ele>
				<time>2021-04-12T11:31:29+02:00</time>
				<extensions>
					<swisstopo:routepoint_id>486570468</swisstopo:routepoint_id>
				</extensions>
			</trkpt>
			<trkpt lat="47.2909640185" lon="7.5868344984">
				<ele>530.7</ele>
				<time>2021-04-12T11:31:30+02:00</time>
				<extensions>
					<swisstopo:routepoint_id>172127900</swisstopo:routepoint_id>
				</extensions>
			</trkpt>
			<trkpt lat="47.2909642493" lon="7.5868335064">
				<ele>530.6</ele>
				<time>2021-04-12T11:31:31+02:00</time>
				<extensions>
					<swisstopo:routepoint_id>293142791</swisstopo:routepoint_id>
				</extensions>
			</trkpt>
			<trkpt lat="47.2909645294" lon="7.5868326802">
				<ele>530.6</ele>
				<time>2021-04-12T11:31:32+02:00</time>
				<extensions>
					<swisstopo:routepoint_id>523402119</swisstopo:routepoint_id>
				</extensions>
			</trkpt>
			<trkpt lat="47.2909649152" lon="7.5868319648">
				<ele>530.6</ele>
				<time>2021-04-12T11:31:33+02:00</time>
				<extensions>
					<swisstopo:routepoint_id>726395921</swisstopo:routepoint_id>
				</extensions>
			</trkpt>
			<trkpt lat="47.2909652912" lon="7.5868314777">
				<ele>530.5</ele>
				<time>2021-04-12T11:31:34+02:00</time>
				<extensions>
					<swisstopo:routepoint_id>91711052</swisstopo:routepoint_id>
				</extensions>
			</trkpt>
			<trkpt lat="47.2909655632" lon="7.5868311368">
				<ele>530.5</ele>
				<time>2021-04-12T11:31:35+02:00</time>
				<extensions>
					<swisstopo:routepoint_id>1641876065</swisstopo:routepoint_id>
				</extensions>
			</trkpt>
			<trkpt lat="47.2909658889" lon="7.5868308966">
				<ele>530.5</ele>
				<time>2021-04-12T11:31:36+02:00</time>
				<extensions>
					<swisstopo:routepoint_id>1993644152</swisstopo:routepoint_id>
				</extensions>
			</trkpt>
			<trkpt lat="47.2909663396" lon="7.5868307874">
				<ele>530.5</ele>
				<time>2021-04-12T11:31:37+02:00</time>
				<extensions>
					<swisstopo:routepoint_id>2137402170</swisstopo:routepoint_id>
				</extensions>
			</trkpt>
			<trkpt lat="47.2909668238" lon="7.5868306135">
				<ele>530.4</ele>
				<time>2021-04-12T11:31:38+02:00</time>
				<extensions>
					<swisstopo:routepoint_id>211824174</swisstopo:routepoint_id>
				</extensions>
			</trkpt>
			<trkpt lat="47.2909673010" lon="7.5868303637">
				<ele>530.4</ele>
				<time>2021-04-12T11:31:39+02:00</time>
				<extensions>
					<swisstopo:routepoint_id>1748489339</swisstopo:routepoint_id>
				</extensions>
			</trkpt>
			<trkpt lat="47.2909677951" lon="7.5868301344">
				<ele>530.4</ele>
				<time>2021-04-12T11:31:40+02:00</time>
				<extensions>
					<swisstopo:routepoint_id>694095025</swisstopo:routepoint_id>
				</extensions>
			</trkpt>
			<trkpt lat="47.2909682477" lon="7.5868299515">
				<ele>530.4</ele>
				<time>2021-04-12T11:31:41+02:00</time>
				<extensions>
					<swisstopo:routepoint_id>523914671</swisstopo:routepoint_id>
				</extensions>
			</trkpt>
			<trkpt lat="47.2909687047" lon="7.5868299064">
				<ele>530.4</ele>
				<time>2021-04-12T11:31:42+02:00</time>
				<extensions>
					<swisstopo:routepoint_id>750922797</swisstopo:routepoint_id>
				</extensions>
			</trkpt>
			<trkpt lat="47.2909691992" lon="7.5868299380">
				<ele>530.4</ele>
				<time>2021-04-12T11:31:43+02:00</time>
				<extensions>
					<swisstopo:routepoint_id>2145539407</swisstopo:routepoint_id>
				</extensions>
			</trkpt>
			<trkpt lat="47.2909696497" lon="7.5868300350">
				<ele>530.3</ele>
				<time>2021-04-12T11:31:44+02:00</time>
				<extensions>
					<swisstopo:routepoint_id>1682896672</swisstopo:routepoint_id>
				</extensions>
			</trkpt>
			<trkpt lat="47.2909699613" lon="7.5868301340">
				<ele>530.3</ele>
				<time>2021-04-12T11:31:45+02:00</time>
				<extensions>
					<swisstopo:routepoint_id>2084735314</swisstopo:routepoint_id>
				</extensions>
			</trkpt>
			<trkpt lat="47.2909702089" lon="7.5868302535">
				<ele>530.3</ele>
				<time>2021-04-12T11:31:46+02:00</time>
				<extensions>
					<swisstopo:routepoint_id>1950721593</swisstopo:routepoint_id>
				</extensions>
			</trkpt>
			<trkpt lat="47.2909702963" lon="7.5868302864">
				<ele>530.3</ele>
				<time>2021-04-12T11:31:47+02:00</time>
				<extensions>
					<swisstopo:routepoint_id>144974802</swisstopo:routepoint_id>
				</extensions>
			</trkpt>
			<trkpt lat="47.2909702877" lon="7.5868303146">
				<ele>530.3</ele>
				<time>2021-04-12T11:31:48+02:00</time>
				<extensions>
					<swisstopo:routepoint_id>1345041516</swisstopo:routepoint_id>
				</extensions>
			</trkpt>
			<trkpt lat="47.2909702340" lon="7.5868304234">
				<ele>530.3</ele>
				<time>2021-04-12T11:31:49+02:00</time>
				<extensions>
					<swisstopo:routepoint_id>1699891090</swisstopo:routepoint_id>
				</extensions>
			</trkpt>
			<trkpt lat="47.2909701168" lon="7.5868305935">
				<ele>530.3</ele>
				<time>2021-04-12T11:31:50+02:00</time>
				<extensions>
					<swisstopo:routepoint_id>2094593589</swisstopo:routepoint_id>
				</extensions>
			</trkpt>
			<trkpt lat="47.2909698892" lon="7.5868307883">
				<ele>530.3</ele>
				<time>2021-04-12T11:31:51+02:00</time>
				<extensions>
					<swisstopo:routepoint_id>135025052</swisstopo:routepoint_id>
				</extensions>
			</trkpt>
			<trkpt lat="47.2909695442" lon="7.5868308209">
				<ele>530.3</ele>
				<time>2021-04-12T11:31:52+02:00</time>
				<extensions>
					<swisstopo:routepoint_id>1623317732</swisstopo:routepoint_id>
				</extensions>
			</trkpt>
			<trkpt lat="47.2909692008" lon="7.5868308344">
				<ele>530.3</ele>
				<time>2021-04-12T11:31:53+02:00</time>
				<extensions>
					<swisstopo:routepoint_id>1468870236</swisstopo:routepoint_id>
				</extensions>
			</trkpt>
			<trkpt lat="47.2909688974" lon="7.5868308506">
				<ele>530.3</ele>
				<time>2021-04-12T11:31:54+02:00</time>
				<extensions>
					<swisstopo:routepoint_id>1977534187</swisstopo:routepoint_id>
				</extensions>
			</trkpt>
			<trkpt lat="47.2909686638" lon="7.5868308041">
				<ele>530.3</ele>
				<time>2021-04-12T11:31:55+02:00</time>
				<extensions>
					<swisstopo:routepoint_id>1960159937</swisstopo:routepoint_id>
				</extensions>
			</trkpt>
			<trkpt lat="47.2909685940" lon="7.5868307401">
				<ele>530.4</ele>
				<time>2021-04-12T11:31:56+02:00</time>
				<extensions>
					<swisstopo:routepoint_id>2008916179</swisstopo:routepoint_id>
				</extensions>
			</trkpt>
			<trkpt lat="47.2909686133" lon="7.5868306603">
				<ele>530.4</ele>
				<time>2021-04-12T11:31:57+02:00</time>
				<extensions>
					<swisstopo:routepoint_id>1116322319</swisstopo:routepoint_id>
				</extensions>
			</trkpt>
			<trkpt lat="47.2909686768" lon="7.5868305132">
				<ele>530.4</ele>
				<time>2021-04-12T11:31:58+02:00</time>
				<extensions>
					<swisstopo:routepoint_id>1612075241</swisstopo:routepoint_id>
				</extensions>
			</trkpt>
			<trkpt lat="47.2909687842" lon="7.5868303071">
				<ele>530.5</ele>
				<time>2021-04-12T11:31:59+02:00</time>
				<extensions>
					<swisstopo:routepoint_id>1494884935</swisstopo:routepoint_id>
				</extensions>
			</trkpt>
			<trkpt lat="47.2909689878" lon="7.5868301080">
				<ele>530.5</ele>
				<time>2021-04-12T11:32:00+02:00</time>
				<extensions>
					<swisstopo:routepoint_id>1119916292</swisstopo:routepoint_id>
				</extensions>
			</trkpt>
			<trkpt lat="47.2909693451" lon="7.5868299442">
				<ele>530.5</ele>
				<time>2021-04-12T11:32:01+02:00</time>
				<extensions>
					<swisstopo:routepoint_id>1886437336</swisstopo:routepoint_id>
				</extensions>
			</trkpt>
			<trkpt lat="47.2909699204" lon="7.5868297274">
				<ele>530.6</ele>
				<time>2021-04-12T11:32:02+02:00</time>
				<extensions>
					<swisstopo:routepoint_id>2051225491</swisstopo:routepoint_id>
				</extensions>
			</trkpt>
			<trkpt lat="47.2909705461" lon="7.5868294085">
				<ele>530.6</ele>
				<time>2021-04-12T11:32:03+02:00</time>
				<extensions>
					<swisstopo:routepoint_id>1391841946</swisstopo:routepoint_id>
				</extensions>
			</trkpt>
			<trkpt lat="47.2909712056" lon="7.5868290008">
				<ele>530.6</ele>
				<time>2021-04-12T11:32:04+02:00</time>
				<extensions>
					<swisstopo:routepoint_id>148219651</swisstopo:routepoint_id>
				</extensions>
			</trkpt>
			<trkpt lat="47.2909718885" lon="7.5868285102">
				<ele>530.7</ele>
				<time>2021-04-12T11:32:05+02:00</time>
				<extensions>
					<swisstopo:routepoint_id>46643837</swisstopo:routepoint_id>
				</extensions>
			</trkpt>
			<trkpt lat="47.2909726022" lon="7.5868280421">
				<ele>530.7</ele>
				<time>2021-04-12T11:32:06+02:00</time>
				<extensions>
					<swisstopo:routepoint_id>111437304</swisstopo:routepoint_id>
				</extensions>
			</trkpt>
			<trkpt lat="47.2909732919" lon="7.5868276153">
				<ele>530.8</ele>
				<time>2021-04-12T11:32:07+02:00</time>
				<extensions>
					<swisstopo:routepoint_id>321028144</swisstopo:routepoint_id>
				</extensions>
			</trkpt>
			<trkpt lat="47.2909740401" lon="7.5868272241">
				<ele>530.8</ele>
				<time>2021-04-12T11:32:08+02:00</time>
				<extensions>
					<swisstopo:routepoint_id>1041094944</swisstopo:routepoint_id>
				</extensions>
			</trkpt>
			<trkpt lat="47.2909747963" lon="7.5868270006">
				<ele>530.9</ele>
				<time>2021-04-12T11:32:09+02:00</time>
				<extensions>
					<swisstopo:routepoint_id>2133451699</swisstopo:routepoint_id>
				</extensions>
			</trkpt>
			<trkpt lat="47.2909754502" lon="7.5868269756">
				<ele>530.9</ele>
				<time>2021-04-12T11:32:10+02:00</time>
				<extensions>
					<swisstopo:routepoint_id>388251134</swisstopo:routepoint_id>
				</extensions>
			</trkpt>
			<trkpt lat="47.2909759579" lon="7.5868270896">
				<ele>530.9</ele>
				<time>2021-04-12T11:32:11+02:00</time>
				<extensions>
					<swisstopo:routepoint_id>1281489552</swisstopo:routepoint_id>
				</extensions>
			</trkpt>
			<trkpt lat="47.2909763048" lon="7.5868272304">
				<ele>531.0</ele>
				<time>2021-04-12T11:32:12+02:00</time>
				<extensions>
					<swisstopo:routepoint_id>881404701</swisstopo:routepoint_id>
				</extensions>
			</trkpt>
			<trkpt lat="47.2909765541" lon="7.5868273457">
				<ele>531.0</ele>
				<time>2021-04-12T11:32:13+02:00</time>
				<extensions>
					<swisstopo:routepoint_id>426612701</swisstopo:routepoint_id>
				</extensions>
			</trkpt>
			<trkpt lat="47.2909767732" lon="7.5868274527">
				<ele>531.0</ele>
				<time>2021-04-12T11:32:14+02:00</time>
				<extensions>
					<swisstopo:routepoint_id>1779252021</swisstopo:routepoint_id>
				</extensions>
			</trkpt>
			<trkpt lat="47.2909769731" lon="7.5868275499">
				<ele>531.0</ele>
				<time>2021-04-12T11:32:15+02:00</time>
				<extensions>
					<swisstopo:routepoint_id>178932472</swisstopo:routepoint_id>
				</extensions>
			</trkpt>
			<trkpt lat="47.2909772367" lon="7.5868276951">
				<ele>531.1</ele>
				<time>2021-04-12T11:32:16+02:00</time>
				<extensions>
					<swisstopo:routepoint_id>840951104</swisstopo:routepoint_id>
				</extensions>
			</trkpt>
			<trkpt lat="47.2909774804" lon="7.5868278718">
				<ele>531.1</ele>
				<time>2021-04-12T11:32:17+02:00</time>
				<extensions>
					<swisstopo:routepoint_id>1275324021</swisstopo:routepoint_id>
				</extensions>
			</trkpt>
			<trkpt lat="47.2909776892" lon="7.5868280219">
				<ele>531.1</ele>
				<time>2021-04-12T11:32:18+02:00</time>
				<extensions>
					<swisstopo:routepoint_id>336540240</swisstopo:routepoint_id>
				</extensions>
			</trkpt>
			<trkpt lat="47.2909778247" lon="7.5868281038">
				<ele>531.1</ele>
				<time>2021-04-12T11:32:19+02:00</time>
				<extensions>
					<swisstopo:routepoint_id>1907371129</swisstopo:routepoint_id>
				</extensions>
			</trkpt>
			<trkpt lat="47.2909771759" lon="7.5863430142">
				<ele>531.8</ele>
				<time>2021-04-12T11:35:49+02:00</time>
				<extensions>
					<swisstopo:routepoint_id>1698166334</swisstopo:routepoint_id>
				</extensions>
			</trkpt>
			<trkpt lat="47.2909665254" lon="7.5862891461">
				<ele>531.8</ele>
				<time>2021-04-12T11:35:50+02:00</time>
				<extensions>
					<swisstopo:routepoint_id>1023906908</swisstopo:routepoint_id>
				</extensions>
			</trkpt>
			<trkpt lat="47.2909557562" lon="7.5862382154">
				<ele>531.9</ele>
				<time>2021-04-12T11:35:51+02:00</time>
				<extensions>
					<swisstopo:routepoint_id>1016939345</swisstopo:routepoint_id>
				</extensions>
			</trkpt>
			<trkpt lat="47.2909451164" lon="7.5861908093">
				<ele>531.9</ele>
				<time>2021-04-12T11:35:52+02:00</time>
				<extensions>
					<swisstopo:routepoint_id>2024708589</swisstopo:routepoint_id>
				</extensions>
			</trkpt>
			<trkpt lat="47.2909348287" lon="7.5861471287">
				<ele>532.0</ele>
				<time>2021-04-12T11:35:53+02:00</time>
				<extensions>
					<swisstopo:routepoint_id>251384961</swisstopo:routepoint_id>
				</extensions>
			</trkpt>
			<trkpt lat="47.2909250540" lon="7.5861069065">
				<ele>532.0</ele>
				<time>2021-04-12T11:35:54+02:00</time>
				<extensions>
					<swisstopo:routepoint_id>926705878</swisstopo:routepoint_id>
				</extensions>
			</trkpt>
			<trkpt lat="47.2909157975" lon="7.5860697193">
				<ele>532.1</ele>
				<time>2021-04-12T11:35:55+02:00</time>
				<extensions>
					<swisstopo:routepoint_id>1594283502</swisstopo:routepoint_id>
				</extensions>
			</trkpt>
			<trkpt lat="47.2909070148" lon="7.5860351848">
				<ele>532.1</ele>
				<time>2021-04-12T11:35:56+02:00</time>
				<extensions>
					<swisstopo:routepoint_id>969354495</swisstopo:routepoint_id>
				</extensions>
			</trkpt>
			<trkpt lat="47.2908987409" lon="7.5860026921">
				<ele>532.2</ele>
				<time>2021-04-12T11:35:57+02:00</time>
				<extensions>
					<swisstopo:routepoint_id>1130051323</swisstopo:routepoint_id>
				</extensions>
			</trkpt>
			<trkpt lat="47.2908909137" lon="7.5859717546">
				<ele>532.2</ele>
				<time>2021-04-12T11:35:58+02:00</time>
				<extensions>
					<swisstopo:routepoint_id>427211593</swisstopo:routepoint_id>
				</extensions>
			</trkpt>
			<trkpt lat="47.2908833772" lon="7.5859419566">
				<ele>532.3</ele>
				<time>2021-04-12T11:35:59+02:00</time>
				<extensions>
					<swisstopo:routepoint_id>1107411630</swisstopo:routepoint_id>
				</extensions>
			</trkpt>
			<trkpt lat="47.2908760590" lon="7.5859129953">
				<ele>532.3</ele>
				<time>2021-04-12T11:36:00+02:00</time>
				<extensions>
					<swisstopo:routepoint_id>26496861</swisstopo:routepoint_id>
				</extensions>
			</trkpt>
			<trkpt lat="47.2908689810" lon="7.5858846195">
				<ele>532.3</ele>
				<time>2021-04-12T11:36:01+02:00</time>
				<extensions>
					<swisstopo:routepoint_id>803627898</swisstopo:routepoint_id>
				</extensions>
			</trkpt>
			<trkpt lat="47.2908620225" lon="7.5858565518">
				<ele>532.4</ele>
				<time>2021-04-12T11:36:02+02:00</time>
				<extensions>
					<swisstopo:routepoint_id>1049425703</swisstopo:routepoint_id>
				</extensions>
			</trkpt>
			<trkpt lat="47.2908551688" lon="7.5858285497">
				<ele>532.4</ele>
				<time>2021-04-12T11:36:03+02:00</time>
				<extensions>
					<swisstopo:routepoint_id>414597510</swisstopo:routepoint_id>
				</extensions>
			</trkpt>
			<trkpt lat="47.2908484662" lon="7.5858005496">
				<ele>532.4</ele>
				<time>2021-04-12T11:36:04+02:00</time>
				<extensions>
					<swisstopo:routepoint_id>1703399702</swisstopo:routepoint_id>
				</extensions>
			</trkpt>
			<trkpt lat="47.2908418053" lon="7.5857723041">
				<ele>532.5</ele>
				<time>2021-04-12T11:36:05+02:00</time>
				<extensions>
					<swisstopo:routepoint_id>934293357</swisstopo:routepoint_id>
				</extensions>
			</trkpt>
			<trkpt lat="47.2908350667" lon="7.5857434892">
				<ele>532.5</ele>
				<time>2021-04-12T11:36:06+02:00</time>
				<extensions>
					<swisstopo:routepoint_id>268024235</swisstopo:routepoint_id>
				</extensions>
			</trkpt>
			<trkpt lat="47.2908281386" lon="7.5857136451">
				<ele>532.5</ele>
				<time>2021-04-12T11:36:07+02:00</time>
				<extensions>
					<swisstopo:routepoint_id>1410109886</swisstopo:routepoint_id>
				</extensions>
			</trkpt>
			<trkpt lat="47.2908209566" lon="7.5856824156">
				<ele>532.6</ele>
				<time>2021-04-12T11:36:08+02:00</time>
				<extensions>
					<swisstopo:routepoint_id>87325710</swisstopo:routepoint_id>
				</extensions>
			</trkpt>
			<trkpt lat="47.2908135201" lon="7.5856496039">
				<ele>532.6</ele>
				<time>2021-04-12T11:36:09+02:00</time>
				<extensions>
					<swisstopo:routepoint_id>951877069</swisstopo:routepoint_id>
				</extensions>
			</trkpt>
			<trkpt lat="47.2908058587" lon="7.5856151943">
				<ele>532.6</ele>
				<time>2021-04-12T11:36:10+02:00</time>
				<extensions>
					<swisstopo:routepoint_id>1592212180</swisstopo:routepoint_id>
				</extensions>
			</trkpt>
			<trkpt lat="47.2907979359" lon="7.5855792629">
				<ele>532.6</ele>
				<time>2021-04-12T11:36:11+02:00</time>
				<extensions>
					<swisstopo:routepoint_id>516383993</swisstopo:routepoint_id>
				</extensions>
			</trkpt>
			<trkpt lat="47.2907898564" lon="7.5855420663">
				<ele>532.6</ele>
				<time>2021-04-12T11:36:12+02:00</time>
				<extensions>
					<swisstopo:routepoint_id>884352824</swisstopo:routepoint_id>
				</extensions>
			</trkpt>
			<trkpt lat="47.2907816789" lon="7.5855035900">
				<ele>532.7</ele>
				<time>2021-04-12T11:36:13+02:00</time>
				<extensions>
					<swisstopo:routepoint_id>583592081</swisstopo:routepoint_id>
				</extensions>
			</trkpt>
			<trkpt lat="47.2907733042" lon="7.5854638671">
				<ele>532.7</ele>
				<time>2021-04-12T11:36:14+02:00</time>
				<extensions>
					<swisstopo:routepoint_id>874289518</swisstopo:routepoint_id>
				</extensions>
			</trkpt>
			<trkpt lat="47.2907647631" lon="7.5854228344">
				<ele>532.7</ele>
				<time>2021-04-12T11:36:15+02:00</time>
				<extensions>
					<swisstopo:routepoint_id>1100816252</swisstopo:routepoint_id>
				</extensions>
			</trkpt>
			<trkpt lat="47.2907561429" lon="7.5853803593">
				<ele>532.7</ele>
				<time>2021-04-12T11:36:16+02:00</time>
				<extensions>
					<swisstopo:routepoint_id>847128459</swisstopo:routepoint_id>
				</extensions>
			</trkpt>
			<trkpt lat="47.2907474215" lon="7.5853361564">
				<ele>532.7</ele>
				<time>2021-04-12T11:36:17+02:00</time>
				<extensions>
					<swisstopo:routepoint_id>2018914450</swisstopo:routepoint_id>
				</extensions>
			</trkpt>
			<trkpt lat="47.2907386149" lon="7.5852899707">
				<ele>532.8</ele>
				<time>2021-04-12T11:36:18+02:00</time>
				<extensions>
					<swisstopo:routepoint_id>1653538550</swisstopo:routepoint_id>
				</extensions>
			</trkpt>
			<trkpt lat="47.2907296835" lon="7.5852417991">
				<ele>532.8</ele>
				<time>2021-04-12T11:36:19+02:00</time>
				<extensions>
					<swisstopo:routepoint_id>436534023</swisstopo:routepoint_id>
				</extensions>
			</trkpt>
			<trkpt lat="47.2907205051" lon="7.5851911010">
				<ele>532.8</ele>
				<time>2021-04-12T11:36:20+02:00</time>
				<extensions>
					<swisstopo:routepoint_id>1023186409</swisstopo:routepoint_id>
				</extensions>
			</trkpt>
			<trkpt lat="47.2907108720" lon="7.5851372777">
				<ele>532.8</ele>
				<time>2021-04-12T11:36:21+02:00</time>
				<extensions>
					<swisstopo:routepoint_id>1792414534</swisstopo:routepoint_id>
				</extensions>
			</trkpt>
			<trkpt lat="47.2907006290" lon="7.5850800235">
				<ele>532.9</ele>
				<time>2021-04-12T11:36:22+02:00</time>
				<extensions>
					<swisstopo:routepoint_id>210472822</swisstopo:routepoint_id>
				</extensions>
			</trkpt>
			<trkpt lat="47.2906897948" lon="7.5850190619">
				<ele>532.9</ele>
				<time>2021-04-12T11:36:23+02:00</time>
				<extensions>
					<swisstopo:routepoint_id>511152745</swisstopo:routepoint_id>
				</extensions>
			</trkpt>
			<trkpt lat="47.2906783346" lon="7.5849544640">
				<ele>532.9</ele>
				<time>2021-04-12T11:36:24+02:00</time>
				<extensions>
					<swisstopo:routepoint_id>1009597215</swisstopo:routepoint_id>
				</extensions>
			</trkpt>
			<trkpt lat="47.2906661500" lon="7.5848863577">
				<ele>533.0</ele>
				<time>2021-04-12T11:36:25+02:00</time>
				<extensions>
					<swisstopo:routepoint_id>1032097558</swisstopo:routepoint_id>
				</extensions>
			</trkpt>
			<trkpt lat="47.2906532335" lon="7.5848143817">
				<ele>533.0</ele>
				<time>2021-04-12T11:36:26+02:00</time>
				<extensions>
					<swisstopo:routepoint_id>1238240487</swisstopo:routepoint_id>
				</extensions>
			</trkpt>
			<trkpt lat="47.2906393293" lon="7.5847373437">
				<ele>533.1</ele>
				<time>2021-04-12T11:36:27+02:00</time>
				<extensions>
					<swisstopo:routepoint_id>1991325579</swisstopo:routepoint_id>
				</extensions>
			</trkpt>
			<trkpt lat="47.2906240046" lon="7.5846534687">
				<ele>533.1</ele>
				<time>2021-04-12T11:36:28+02:00</time>
				<extensions>
					<swisstopo:routepoint_id>1823851405</swisstopo:routepoint_id>
				</extensions>
			</trkpt>
			<trkpt lat="47.2906067618" lon="7.5845616621">
				<ele>533.2</ele>
				<time>2021-04-12T11:36:29+02:00</time>
				<extensions>
					<swisstopo:routepoint_id>288986557</swisstopo:routepoint_id>
				</extensions>
			</trkpt>
			<trkpt lat="47.2905873344" lon="7.5844613781">
				<ele>533.3</ele>
				<time>2021-04-12T11:36:30+02:00</time>
				<extensions>
					<swisstopo:routepoint_id>1536537632</swisstopo:routepoint_id>
				</extensions>
			</trkpt>
			<trkpt lat="47.2905656860" lon="7.5843531111">
				<ele>533.4</ele>
				<time>2021-04-12T11:36:31+02:00</time>
				<extensions>
					<swisstopo:routepoint_id>1097125849</swisstopo:routepoint_id>
				</extensions>
			</trkpt>
			<trkpt lat="47.2905419196" lon="7.5842374495">
				<ele>533.5</ele>
				<time>2021-04-12T11:36:32+02:00</time>
				<extensions>
					<swisstopo:routepoint_id>1099551001</swisstopo:routepoint_id>
				</extensions>
			</trkpt>
			<trkpt lat="47.2905161075" lon="7.5841147178">
				<ele>533.6</ele>
				<time>2021-04-12T11:36:33+02:00</time>
				<extensions>
					<swisstopo:routepoint_id>1056891372</swisstopo:routepoint_id>
				</extensions>
			</trkpt>
			<trkpt lat="47.2904880328" lon="7.5839845896">
				<ele>533.8</ele>
				<time>2021-04-12T11:36:34+02:00</time>
				<extensions>
					<swisstopo:routepoint_id>1336044867</swisstopo:routepoint_id>
				</extensions>
			</trkpt>
			<trkpt lat="47.2904575419" lon="7.5838465721">
				<ele>533.9</ele>
				<time>2021-04-12T11:36:35+02:00</time>
				<extensions>
					<swisstopo:routepoint_id>817066637</swisstopo:routepoint_id>
				</extensions>
			</trkpt>
			<trkpt lat="47.2904244337" lon="7.5837005548">
				<ele>534.1</ele>
				<time>2021-04-12T11:36:36+02:00</time>
				<extensions>
					<swisstopo:routepoint_id>1428529141</swisstopo:routepoint_id>
				</extensions>
			</trkpt>
			<trkpt lat="47.2903884280" lon="7.5835464980">
				<ele>534.2</ele>
				<time>2021-04-12T11:36:37+02:00</time>
				<extensions>
					<swisstopo:routepoint_id>422099327</swisstopo:routepoint_id>
				</extensions>
			</trkpt>
			<trkpt lat="47.2903495135" lon="7.5833848548">
				<ele>534.4</ele>
				<time>2021-04-12T11:36:38+02:00</time>
				<extensions>
					<swisstopo:routepoint_id>1084902848</swisstopo:routepoint_id>
				</extensions>
			</trkpt>
			<trkpt lat="47.2903079043" lon="7.5832161834">
				<ele>534.5</ele>
				<time>2021-04-12T11:36:39+02:00</time>
				<extensions>
					<swisstopo:routepoint_id>1826003306</swisstopo:routepoint_id>
				</extensions>
			</trkpt>
			<trkpt lat="47.2902637594" lon="7.5830411256">
				<ele>534.7</ele>
				<time>2021-04-12T11:36:40+02:00</time>
				<extensions>
					<swisstopo:routepoint_id>2096248312</swisstopo:routepoint_id>
				</extensions>
			</trkpt>
			<trkpt lat="47.2902173026" lon="7.5828602596">
				<ele>534.8</ele>
				<time>2021-04-12T11:36:41+02:00</time>
				<extensions>
					<swisstopo:routepoint_id>28667102</swisstopo:routepoint_id>
				</extensions>
			</trkpt>
			<trkpt lat="47.2901688600" lon="7.5826739729">
				<ele>535.0</ele>
				<time>2021-04-12T11:36:42+02:00</time>
				<extensions>
					<swisstopo:routepoint_id>771646386</swisstopo:routepoint_id>
				</extensions>
			</trkpt>
			<trkpt lat="47.2901187782" lon="7.5824830923">
				<ele>535.1</ele>
				<time>2021-04-12T11:36:43+02:00</time>
				<extensions>
					<swisstopo:routepoint_id>407065269</swisstopo:routepoint_id>
				</extensions>
			</trkpt>
			<trkpt lat="47.2900675649" lon="7.5822889653">
				<ele>535.3</ele>
				<time>2021-04-12T11:36:44+02:00</time>
				<extensions>
					<swisstopo:routepoint_id>1810560388</swisstopo:routepoint_id>
				</extensions>
			</trkpt>
			<trkpt lat="47.2900153106" lon="7.5820923966">
				<ele>535.4</ele>
				<time>2021-04-12T11:36:45+02:00</time>
				<extensions>
					<swisstopo:routepoint_id>245163126</swisstopo:routepoint_id>
				</extensions>
			</trkpt>
			<trkpt lat="47.2899621991" lon="7.5818935211">
				<ele>535.6</ele>
				<time>2021-04-12T11:36:46+02:00</time>
				<extensions>
					<swisstopo:routepoint_id>1583023736</swisstopo:routepoint_id>
				</extensions>
			</trkpt>
			<trkpt lat="47.2899083982" lon="7.5816925358">
				<ele>535.8</ele>
				<time>2021-04-12T11:36:47+02:00</time>
				<extensions>
					<swisstopo:routepoint_id>705028269</swisstopo:routepoint_id>
				</extensions>
			</trkpt>
			<trkpt lat="47.2898539997" lon="7.5814890559">
				<ele>535.9</ele>
				<time>2021-04-12T11:36:48+02:00</time>
				<extensions>
					<swisstopo:routepoint_id>1742836584</swisstopo:routepoint_id>
				</extensions>
			</trkpt>
			<trkpt lat="47.2897990545" lon="7.5812832109">
				<ele>536.1</ele>
				<time>2021-04-12T11:36:49+02:00</time>
				<extensions>
					<swisstopo:routepoint_id>177522208</swisstopo:routepoint_id>
				</extensions>
			</trkpt>
			<trkpt lat="47.2897438002" lon="7.5810752378">
				<ele>536.3</ele>
				<time>2021-04-12T11:36:50+02:00</time>
				<extensions>
					<swisstopo:routepoint_id>760964173</swisstopo:routepoint_id>
				</extensions>
			</trkpt>
			<trkpt lat="47.2896881544" lon="7.5808653700">
				<ele>536.6</ele>
				<time>2021-04-12T11:36:51+02:00</time>
				<extensions>
					<swisstopo:routepoint_id>1259737726</swisstopo:routepoint_id>
				</extensions>
			</trkpt>
			<trkpt lat="47.2896322435" lon="7.5806544182">
				<ele>536.8</ele>
				<time>2021-04-12T11:36:52+02:00</time>
				<extensions>
					<swisstopo:routepoint_id>370685109</swisstopo:routepoint_id>
				</extensions>
			</trkpt>
			<trkpt lat="47.2895761621" lon="7.5804422537">
				<ele>537.0</ele>
				<time>2021-04-12T11:36:53+02:00</time>
				<extensions>
					<swisstopo:routepoint_id>254567016</swisstopo:routepoint_id>
				</extensions>
			</trkpt>
			<trkpt lat="47.2895198472" lon="7.5802291055">
				<ele>537.2</ele>
				<time>2021-04-12T11:36:54+02:00</time>
				<extensions>
					<swisstopo:routepoint_id>720413088</swisstopo:routepoint_id>
				</extensions>
			</trkpt>
			<trkpt lat="47.2894634193" lon="7.5800151732">
				<ele>537.4</ele>
				<time>2021-04-12T11:36:55+02:00</time>
				<extensions>
					<swisstopo:routepoint_id>469968230</swisstopo:routepoint_id>
				</extensions>
			</trkpt>
			<trkpt lat="47.2894067982" lon="7.5798005368">
				<ele>537.6</ele>
				<time>2021-04-12T11:36:56+02:00</time>
				<extensions>
					<swisstopo:routepoint_id>311187944</swisstopo:routepoint_id>
				</extensions>
			</trkpt>
			<trkpt lat="47.2893499391" lon="7.5795850917">
				<ele>537.8</ele>
				<time>2021-04-12T11:36:57+02:00</time>
				<extensions>
					<swisstopo:routepoint_id>1013094363</swisstopo:routepoint_id>
				</extensions>
			</trkpt>
			<trkpt lat="47.2892929123" lon="7.5793688709">
				<ele>538.1</ele>
				<time>2021-04-12T11:36:58+02:00</time>
				<extensions>
					<swisstopo:routepoint_id>1826605525</swisstopo:routepoint_id>
				</extensions>
			</trkpt>
			<trkpt lat="47.2892356851" lon="7.5791515378">
				<ele>538.3</ele>
				<time>2021-04-12T11:36:59+02:00</time>
				<extensions>
					<swisstopo:routepoint_id>1480324810</swisstopo:routepoint_id>
				</extensions>
			</trkpt>
			<trkpt lat="47.2891782046" lon="7.5789331820">
				<ele>538.5</ele>
				<time>2021-04-12T11:37:00+02:00</time>
				<extensions>
					<swisstopo:routepoint_id>1221031175</swisstopo:routepoint_id>
				</extensions>
			</trkpt>
			<trkpt lat="47.2891203797" lon="7.5787140941">
				<ele>538.7</ele>
				<time>2021-04-12T11:37:01+02:00</time>
				<extensions>
					<swisstopo:routepoint_id>517227493</swisstopo:routepoint_id>
				</extensions>
			</trkpt>
			<trkpt lat="47.2890620752" lon="7.5784950695">
				<ele>538.9</ele>
				<time>2021-04-12T11:37:02+02:00</time>
				<extensions>
					<swisstopo:routepoint_id>28671795</swisstopo:routepoint_id>
				</extensions>
			</trkpt>
			<trkpt lat="47.2890036210" lon="7.5782765301">
				<ele>539.0</ele>
				<time>2021-04-12T11:37:03+02:00</time>
				<extensions>
					<swisstopo:routepoint_id>850521637</swisstopo:routepoint_id>
				</extensions>
			</trkpt>
			<trkpt lat="47.2889452657" lon="7.5780585986">
				<ele>539.2</ele>
				<time>2021-04-12T11:37:04+02:00</time>
				<extensions>
					<swisstopo:routepoint_id>1065998627</swisstopo:routepoint_id>
				</extensions>
			</trkpt>
			<trkpt lat="47.2888867971" lon="7.5778389857">
				<ele>539.3</ele>
				<time>2021-04-12T11:37:06+02:00</time>
				<extensions>
					<swisstopo:routepoint_id>1930340715</swisstopo:routepoint_id>
				</extensions>
			</trkpt>
			<trkpt lat="47.2888301578" lon="7.5776241865">
				<ele>539.5</ele>
				<time>2021-04-12T11:37:07+02:00</time>
				<extensions>
					<swisstopo:routepoint_id>1200941776</swisstopo:routepoint_id>
				</extensions>
			</trkpt>
			<trkpt lat="47.2887745736" lon="7.5774109235">
				<ele>539.6</ele>
				<time>2021-04-12T11:37:08+02:00</time>
				<extensions>
					<swisstopo:routepoint_id>29631079</swisstopo:routepoint_id>
				</extensions>
			</trkpt>
			<trkpt lat="47.2887198531" lon="7.5771995647">
				<ele>539.7</ele>
				<time>2021-04-12T11:37:09+02:00</time>
				<extensions>
					<swisstopo:routepoint_id>1940822296</swisstopo:routepoint_id>
				</extensions>
			</trkpt>
			<trkpt lat="47.2886655405" lon="7.5769898672">
				<ele>539.9</ele>
				<time>2021-04-12T11:37:10+02:00</time>
				<extensions>
					<swisstopo:routepoint_id>1271214589</swisstopo:routepoint_id>
				</extensions>
			</trkpt>
			<trkpt lat="47.2886112337" lon="7.5767816819">
				<ele>540.0</ele>
				<time>2021-04-12T11:37:11+02:00</time>
				<extensions>
					<swisstopo:routepoint_id>2136276967</swisstopo:routepoint_id>
				</extensions>
			</trkpt>
			<trkpt lat="47.2885562524" lon="7.5765751288">
				<ele>540.2</ele>
				<time>2021-04-12T11:37:12+02:00</time>
				<extensions>
					<swisstopo:routepoint_id>627890176</swisstopo:routepoint_id>
				</extensions>
			</trkpt>
			<trkpt lat="47.2884999664" lon="7.5763703382">
				<ele>540.4</ele>
				<time>2021-04-12T11:37:13+02:00</time>
				<extensions>
					<swisstopo:routepoint_id>215546674</swisstopo:routepoint_id>
				</extensions>
			</trkpt>
			<trkpt lat="47.2884414008" lon="7.5761673726">
				<ele>540.6</ele>
				<time>2021-04-12T11:37:14+02:00</time>
				<extensions>
					<swisstopo:routepoint_id>2035521076</swisstopo:routepoint_id>
				</extensions>
			</trkpt>
			<trkpt lat="47.2883801584" lon="7.5759663466">
				<ele>540.9</ele>
				<time>2021-04-12T11:37:15+02:00</time>
				<extensions>
					<swisstopo:routepoint_id>1588227622</swisstopo:routepoint_id>
				</extensions>
			</trkpt>
			<trkpt lat="47.2883163189" lon="7.5757674455">
				<ele>541.1</ele>
				<time>2021-04-12T11:37:16+02:00</time>
				<extensions>
					<swisstopo:routepoint_id>119910744</swisstopo:routepoint_id>
				</extensions>
			</trkpt>
			<trkpt lat="47.2882498912" lon="7.5755709015">
				<ele>541.4</ele>
				<time>2021-04-12T11:37:17+02:00</time>
				<extensions>
					<swisstopo:routepoint_id>1000213522</swisstopo:routepoint_id>
				</extensions>
			</trkpt>
			<trkpt lat="47.2881805243" lon="7.5753768579">
				<ele>541.7</ele>
				<time>2021-04-12T11:37:18+02:00</time>
				<extensions>
					<swisstopo:routepoint_id>86675538</swisstopo:routepoint_id>
				</extensions>
			</trkpt>
			<trkpt lat="47.2881083867" lon="7.5751855874">
				<ele>542.0</ele>
				<time>2021-04-12T11:37:19+02:00</time>
				<extensions>
					<swisstopo:routepoint_id>761854500</swisstopo:routepoint_id>
				</extensions>
			</trkpt>
			<trkpt lat="47.2880336412" lon="7.5749968103">
				<ele>542.3</ele>
				<time>2021-04-12T11:37:20+02:00</time>
				<extensions>
					<swisstopo:routepoint_id>1191078086</swisstopo:routepoint_id>
				</extensions>
			</trkpt>
			<trkpt lat="47.2879570490" lon="7.5748095407">
				<ele>542.6</ele>
				<time>2021-04-12T11:37:21+02:00</time>
				<extensions>
					<swisstopo:routepoint_id>1754317715</swisstopo:routepoint_id>
				</extensions>
			</trkpt>
			<trkpt lat="47.2878796337" lon="7.5746220066">
				<ele>542.8</ele>
				<time>2021-04-12T11:37:22+02:00</time>
				<extensions>
					<swisstopo:routepoint_id>2014846342</swisstopo:routepoint_id>
				</extensions>
			</trkpt>
			<trkpt lat="47.2878022711" lon="7.5744332517">
				<ele>543.2</ele>
				<time>2021-04-12T11:37:23+02:00</time>
				<extensions>
					<swisstopo:routepoint_id>2000324098</swisstopo:routepoint_id>
				</extensions>
			</trkpt>
			<trkpt lat="47.2877261806" lon="7.5742424584">
				<ele>543.5</ele>
				<time>2021-04-12T11:37:24+02:00</time>
				<extensions>
					<swisstopo:routepoint_id>590621301</swisstopo:routepoint_id>
				</extensions>
			</trkpt>
			<trkpt lat="47.2876528429" lon="7.5740482612">
				<ele>543.8</ele>
				<time>2021-04-12T11:37:25+02:00</time>
				<extensions>
					<swisstopo:routepoint_id>902789473</swisstopo:routepoint_id>
				</extensions>
			</trkpt>
			<trkpt lat="47.2875828756" lon="7.5738493589">
				<ele>544.1</ele>
				<time>2021-04-12T11:37:26+02:00</time>
				<extensions>
					<swisstopo:routepoint_id>1210706656</swisstopo:routepoint_id>
				</extensions>
			</trkpt>
			<trkpt lat="47.2875170515" lon="7.5736441433">
				<ele>544.4</ele>
				<time>2021-04-12T11:37:27+02:00</time>
				<extensions>
					<swisstopo:routepoint_id>939212067</swisstopo:routepoint_id>
				</extensions>
			</trkpt>
			<trkpt lat="47.2874563000" lon="7.5734312356">
				<ele>544.7</ele>
				<time>2021-04-12T11:37:28+02:00</time>
				<extensions>
					<swisstopo:routepoint_id>1332404619</swisstopo:routepoint_id>
				</extensions>
			</trkpt>
			<trkpt lat="47.2874016619" lon="7.5732110043">
				<ele>545.1</ele>
				<time>2021-04-12T11:37:29+02:00</time>
				<extensions>
					<swisstopo:routepoint_id>1912444264</swisstopo:routepoint_id>
				</extensions>
			</trkpt>
			<trkpt lat="47.2873537134" lon="7.5729831691">
				<ele>545.5</ele>
				<time>2021-04-12T11:37:30+02:00</time>
				<extensions>
					<swisstopo:routepoint_id>1063000399</swisstopo:routepoint_id>
				</extensions>
			</trkpt>
			<trkpt lat="47.2873131017" lon="7.5727484063">
				<ele>545.8</ele>
				<time>2021-04-12T11:37:31+02:00</time>
				<extensions>
					<swisstopo:routepoint_id>931246600</swisstopo:routepoint_id>
				</extensions>
			</trkpt>
			<trkpt lat="47.2872798472" lon="7.5725077918">
				<ele>546.2</ele>
				<time>2021-04-12T11:37:32+02:00</time>
				<extensions>
					<swisstopo:routepoint_id>600786864</swisstopo:routepoint_id>
				</extensions>
			</trkpt>
			<trkpt lat="47.2872536798" lon="7.5722627288">
				<ele>546.6</ele>
				<time>2021-04-12T11:37:33+02:00</time>
				<extensions>
					<swisstopo:routepoint_id>2104198701</swisstopo:routepoint_id>
				</extensions>
			</trkpt>
			<trkpt lat="47.2872338075" lon="7.5720143385">
				<ele>547.0</ele>
				<time>2021-04-12T11:37:34+02:00</time>
				<extensions>
					<swisstopo:routepoint_id>506868911</swisstopo:routepoint_id>
				</extensions>
			</trkpt>
			<trkpt lat="47.2872193132" lon="7.5717633112">
				<ele>547.4</ele>
				<time>2021-04-12T11:37:35+02:00</time>
				<extensions>
					<swisstopo:routepoint_id>2025643175</swisstopo:routepoint_id>
				</extensions>
			</trkpt>
			<trkpt lat="47.2872086624" lon="7.5715098331">
				<ele>547.8</ele>
				<time>2021-04-12T11:37:36+02:00</time>
				<extensions>
					<swisstopo:routepoint_id>926586334</swisstopo:routepoint_id>
				</extensions>
			</trkpt>
			<trkpt lat="47.2872004116" lon="7.5712537184">
				<ele>548.2</ele>
				<time>2021-04-12T11:37:36+02:00</time>
				<extensions>
					<swisstopo:routepoint_id>1732591141</swisstopo:routepoint_id>
				</extensions>
			</trkpt>
			<trkpt lat="47.2871937362" lon="7.5709941515">
				<ele>548.7</ele>
				<time>2021-04-12T11:37:37+02:00</time>
				<extensions>
					<swisstopo:routepoint_id>1928537114</swisstopo:routepoint_id>
				</extensions>
			</trkpt>
			<trkpt lat="47.2871879904" lon="7.5707315598">
				<ele>549.1</ele>
				<time>2021-04-12T11:37:38+02:00</time>
				<extensions>
					<swisstopo:routepoint_id>952590827</swisstopo:routepoint_id>
				</extensions>
			</trkpt>
			<trkpt lat="47.2871826773" lon="7.5704664853">
				<ele>549.5</ele>
				<time>2021-04-12T11:37:39+02:00</time>
				<extensions>
					<swisstopo:routepoint_id>703441004</swisstopo:routepoint_id>
				</extensions>
			</trkpt>
			<trkpt lat="47.2871773172" lon="7.5701995604">
				<ele>549.9</ele>
				<time>2021-04-12T11:37:40+02:00</time>
				<extensions>
					<swisstopo:routepoint_id>835477493</swisstopo:routepoint_id>
				</extensions>
			</trkpt>
			<trkpt lat="47.2871717677" lon="7.5699312480">
				<ele>550.4</ele>
				<time>2021-04-12T11:37:41+02:00</time>
				<extensions>
					<swisstopo:routepoint_id>1622140765</swisstopo:routepoint_id>
				</extensions>
			</trkpt>
			<trkpt lat="47.2871654871" lon="7.5696623479">
				<ele>550.8</ele>
				<time>2021-04-12T11:37:42+02:00</time>
				<extensions>
					<swisstopo:routepoint_id>1014938690</swisstopo:routepoint_id>
				</extensions>
			</trkpt>
			<trkpt lat="47.2871580326" lon="7.5693938287">
				<ele>551.3</ele>
				<time>2021-04-12T11:37:43+02:00</time>
				<extensions>
					<swisstopo:routepoint_id>611954709</swisstopo:routepoint_id>
				</extensions>
			</trkpt>
			<trkpt lat="47.2871494901" lon="7.5691269230">
				<ele>551.7</ele>
				<time>2021-04-12T11:37:44+02:00</time>
				<extensions>
					<swisstopo:routepoint_id>823608680</swisstopo:routepoint_id>
				</extensions>
			</trkpt>
			<trkpt lat="47.2871402840" lon="7.5688624287">
				<ele>552.1</ele>
				<time>2021-04-12T11:37:45+02:00</time>
				<extensions>
					<swisstopo:routepoint_id>1858979845</swisstopo:routepoint_id>
				</extensions>
			</trkpt>
			<trkpt lat="47.2871304268" lon="7.5686012202">
				<ele>552.6</ele>
				<time>2021-04-12T11:37:46+02:00</time>
				<extensions>
					<swisstopo:routepoint_id>134674712</swisstopo:routepoint_id>
				</extensions>
			</trkpt>
			<trkpt lat="47.2871194015" lon="7.5683440163">
				<ele>553.0</ele>
				<time>2021-04-12T11:37:47+02:00</time>
				<extensions>
					<swisstopo:routepoint_id>30120646</swisstopo:routepoint_id>
				</extensions>
			</trkpt>
			<trkpt lat="47.2871062194" lon="7.5680908048">
				<ele>553.4</ele>
				<time>2021-04-12T11:37:48+02:00</time>
				<extensions>
					<swisstopo:routepoint_id>1579040277</swisstopo:routepoint_id>
				</extensions>
			</trkpt>
			<trkpt lat="47.2870900157" lon="7.5678422065">
				<ele>553.8</ele>
				<time>2021-04-12T11:37:49+02:00</time>
				<extensions>
					<swisstopo:routepoint_id>327025913</swisstopo:routepoint_id>
				</extensions>
			</trkpt>
			<trkpt lat="47.2870698424" lon="7.5675988038">
				<ele>554.2</ele>
				<time>2021-04-12T11:37:50+02:00</time>
				<extensions>
					<swisstopo:routepoint_id>913867118</swisstopo:routepoint_id>
				</extensions>
			</trkpt>
			<trkpt lat="47.2870450276" lon="7.5673607361">
				<ele>554.6</ele>
				<time>2021-04-12T11:37:51+02:00</time>
				<extensions>
					<swisstopo:routepoint_id>561608882</swisstopo:routepoint_id>
				</extensions>
			</trkpt>
			<trkpt lat="47.2870148526" lon="7.5671278203">
				<ele>555.0</ele>
				<time>2021-04-12T11:37:52+02:00</time>
				<extensions>
					<swisstopo:routepoint_id>769851209</swisstopo:routepoint_id>
				</extensions>
			</trkpt>
			<trkpt lat="47.2869783663" lon="7.5668998813">
				<ele>555.5</ele>
				<time>2021-04-12T11:37:53+02:00</time>
				<extensions>
					<swisstopo:routepoint_id>300296488</swisstopo:routepoint_id>
				</extensions>
			</trkpt>
			<trkpt lat="47.2869351995" lon="7.5666762335">
				<ele>556.0</ele>
				<time>2021-04-12T11:37:54+02:00</time>
				<extensions>
					<swisstopo:routepoint_id>496503366</swisstopo:routepoint_id>
				</extensions>
			</trkpt>
			<trkpt lat="47.2868855510" lon="7.5664569410">
				<ele>556.6</ele>
				<time>2021-04-12T11:37:55+02:00</time>
				<extensions>
					<swisstopo:routepoint_id>1758103767</swisstopo:routepoint_id>
				</extensions>
			</trkpt>
			<trkpt lat="47.2868295373" lon="7.5662422996">
				<ele>557.3</ele>
				<time>2021-04-12T11:37:56+02:00</time>
				<extensions>
					<swisstopo:routepoint_id>1222512896</swisstopo:routepoint_id>
				</extensions>
			</trkpt>
			<trkpt lat="47.2867673368" lon="7.5660319861">
				<ele>558.0</ele>
				<time>2021-04-12T11:37:57+02:00</time>
				<extensions>
					<swisstopo:routepoint_id>1798192223</swisstopo:routepoint_id>
				</extensions>
			</trkpt>
			<trkpt lat="47.2867001367" lon="7.5658267495">
				<ele>558.8</ele>
				<time>2021-04-12T11:37:58+02:00</time>
				<extensions>
					<swisstopo:routepoint_id>679327730</swisstopo:routepoint_id>
				</extensions>
			</trkpt>
			<trkpt lat="47.2866293051" lon="7.5656257971">
				<ele>559.6</ele>
				<time>2021-04-12T11:37:59+02:00</time>
				<extensions>
					<swisstopo:routepoint_id>1438090658</swisstopo:routepoint_id>
				</extensions>
			</trkpt>
			<trkpt lat="47.2865560319" lon="7.5654292537">
				<ele>560.4</ele>
				<time>2021-04-12T11:38:00+02:00</time>
				<extensions>
					<swisstopo:routepoint_id>61242021</swisstopo:routepoint_id>
				</extensions>
			</trkpt>
			<trkpt lat="47.2864812562" lon="7.5652366408">
				<ele>561.3</ele>
				<time>2021-04-12T11:38:01+02:00</time>
				<extensions>
					<swisstopo:routepoint_id>649980034</swisstopo:routepoint_id>
				</extensions>
			</trkpt>
			<trkpt lat="47.2864054002" lon="7.5650474305">
				<ele>562.2</ele>
				<time>2021-04-12T11:38:02+02:00</time>
				<extensions>
					<swisstopo:routepoint_id>2112602796</swisstopo:routepoint_id>
				</extensions>
			</trkpt>
			<trkpt lat="47.2863288291" lon="7.5648606947">
				<ele>563.1</ele>
				<time>2021-04-12T11:38:03+02:00</time>
				<extensions>
					<swisstopo:routepoint_id>20572874</swisstopo:routepoint_id>
				</extensions>
			</trkpt>
			<trkpt lat="47.2862519226" lon="7.5646760734">
				<ele>564.0</ele>
				<time>2021-04-12T11:38:04+02:00</time>
				<extensions>
					<swisstopo:routepoint_id>23426151</swisstopo:routepoint_id>
				</extensions>
			</trkpt>
			<trkpt lat="47.2861753749" lon="7.5644927758">
				<ele>565.0</ele>
				<time>2021-04-12T11:38:05+02:00</time>
				<extensions>
					<swisstopo:routepoint_id>733812456</swisstopo:routepoint_id>
				</extensions>
			</trkpt>
			<trkpt lat="47.2860996736" lon="7.5643107021">
				<ele>565.9</ele>
				<time>2021-04-12T11:38:06+02:00</time>
				<extensions>
					<swisstopo:routepoint_id>187363271</swisstopo:routepoint_id>
				</extensions>
			</trkpt>
			<trkpt lat="47.2860247967" lon="7.5641296104">
				<ele>566.8</ele>
				<time>2021-04-12T11:38:07+02:00</time>
				<extensions>
					<swisstopo:routepoint_id>803469195</swisstopo:routepoint_id>
				</extensions>
			</trkpt>
			<trkpt lat="47.2859512171" lon="7.5639488187">
				<ele>567.8</ele>
				<time>2021-04-12T11:38:08+02:00</time>
				<extensions>
					<swisstopo:routepoint_id>529588029</swisstopo:routepoint_id>
				</extensions>
			</trkpt>
			<trkpt lat="47.2858786219" lon="7.5637683826">
				<ele>568.7</ele>
				<time>2021-04-12T11:38:09+02:00</time>
				<extensions>
					<swisstopo:routepoint_id>1613770235</swisstopo:routepoint_id>
				</extensions>
			</trkpt>
			<trkpt lat="47.2858067728" lon="7.5635885140">
				<ele>569.7</ele>
				<time>2021-04-12T11:38:10+02:00</time>
				<extensions>
					<swisstopo:routepoint_id>2065361682</swisstopo:routepoint_id>
				</extensions>
			</trkpt>
			<trkpt lat="47.2857355539" lon="7.5634096794">
				<ele>570.6</ele>
				<time>2021-04-12T11:38:11+02:00</time>
				<extensions>
					<swisstopo:routepoint_id>608119266</swisstopo:routepoint_id>
				</extensions>
			</trkpt>
			<trkpt lat="47.2856656619" lon="7.5632323202">
				<ele>571.5</ele>
				<time>2021-04-12T11:38:12+02:00</time>
				<extensions>
					<swisstopo:routepoint_id>785827589</swisstopo:routepoint_id>
				</extensions>
			</trkpt>
			<trkpt lat="47.2855971609" lon="7.5630580208">
				<ele>572.4</ele>
				<time>2021-04-12T11:38:13+02:00</time>
				<extensions>
					<swisstopo:routepoint_id>379859273</swisstopo:routepoint_id>
				</extensions>
			</trkpt>
			<trkpt lat="47.2855296807" lon="7.5628901698">
				<ele>573.4</ele>
				<time>2021-04-12T11:38:14+02:00</time>
				<extensions>
					<swisstopo:routepoint_id>1973402427</swisstopo:routepoint_id>
				</extensions>
			</trkpt>
			<trkpt lat="47.2854636114" lon="7.5627331677">
				<ele>574.3</ele>
				<time>2021-04-12T11:38:15+02:00</time>
				<extensions>
					<swisstopo:routepoint_id>1237146321</swisstopo:routepoint_id>
				</extensions>
			</trkpt>
			<trkpt lat="47.2854018081" lon="7.5625909433">
				<ele>575.1</ele>
				<time>2021-04-12T11:38:16+02:00</time>
				<extensions>
					<swisstopo:routepoint_id>781546793</swisstopo:routepoint_id>
				</extensions>
			</trkpt>
			<trkpt lat="47.2853474364" lon="7.5624654087">
				<ele>575.7</ele>
				<time>2021-04-12T11:38:17+02:00</time>
				<extensions>
					<swisstopo:routepoint_id>1446964899</swisstopo:routepoint_id>
				</extensions>
			</trkpt>
			<trkpt lat="47.2853014859" lon="7.5623583903">
				<ele>576.3</ele>
				<time>2021-04-12T11:38:18+02:00</time>
				<extensions>
					<swisstopo:routepoint_id>1034238865</swisstopo:routepoint_id>
				</extensions>
			</trkpt>
			<trkpt lat="47.2852644026" lon="7.5622701620">
				<ele>576.7</ele>
				<time>2021-04-12T11:38:19+02:00</time>
				<extensions>
					<swisstopo:routepoint_id>719965237</swisstopo:routepoint_id>
				</extensions>
			</trkpt>
			<trkpt lat="47.2852360832" lon="7.5622010117">
				<ele>577.1</ele>
				<time>2021-04-12T11:38:20+02:00</time>
				<extensions>
					<swisstopo:routepoint_id>1532871061</swisstopo:routepoint_id>
				</extensions>
			</trkpt>
			<trkpt lat="47.2852161366" lon="7.5621499626">
				<ele>577.3</ele>
				<time>2021-04-12T11:38:21+02:00</time>
				<extensions>
					<swisstopo:routepoint_id>1750092815</swisstopo:routepoint_id>
				</extensions>
			</trkpt>
			<trkpt lat="47.2852030251" lon="7.5621151085">
				<ele>577.5</ele>
				<time>2021-04-12T11:38:22+02:00</time>
				<extensions>
					<swisstopo:routepoint_id>1873912393</swisstopo:routepoint_id>
				</extensions>
			</trkpt>
			<trkpt lat="47.2851953250" lon="7.5620932468">
				<ele>577.6</ele>
				<time>2021-04-12T11:38:23+02:00</time>
				<extensions>
					<swisstopo:routepoint_id>1997905896</swisstopo:routepoint_id>
				</extensions>
			</trkpt>
			<trkpt lat="47.2851918794" lon="7.5620814511">
				<ele>577.6</ele>
				<time>2021-04-12T11:38:24+02:00</time>
				<extensions>
					<swisstopo:routepoint_id>750089580</swisstopo:routepoint_id>
				</extensions>
			</trkpt>
			<trkpt lat="47.2851914198" lon="7.5620763999">
				<ele>577.6</ele>
				<time>2021-04-12T11:38:25+02:00</time>
				<extensions>
					<swisstopo:routepoint_id>1026563170</swisstopo:routepoint_id>
				</extensions>
			</trkpt>
			<trkpt lat="47.2851928585" lon="7.5620755198">
				<ele>577.6</ele>
				<time>2021-04-12T11:38:26+02:00</time>
				<extensions>
					<swisstopo:routepoint_id>563578192</swisstopo:routepoint_id>
				</extensions>
			</trkpt>
			<trkpt lat="47.2851952371" lon="7.5620765316">
				<ele>577.6</ele>
				<time>2021-04-12T11:38:27+02:00</time>
				<extensions>
					<swisstopo:routepoint_id>1655789674</swisstopo:routepoint_id>
				</extensions>
			</trkpt>
			<trkpt lat="47.2851978499" lon="7.5620777866">
				<ele>577.6</ele>
				<time>2021-04-12T11:38:28+02:00</time>
				<extensions>
					<swisstopo:routepoint_id>1763953092</swisstopo:routepoint_id>
				</extensions>
			</trkpt>
			<trkpt lat="47.2851998360" lon="7.5620773837">
				<ele>577.5</ele>
				<time>2021-04-12T11:38:29+02:00</time>
				<extensions>
					<swisstopo:routepoint_id>747870409</swisstopo:routepoint_id>
				</extensions>
			</trkpt>
			<trkpt lat="47.2852003026" lon="7.5620730036">
				<ele>577.6</ele>
				<time>2021-04-12T11:38:30+02:00</time>
				<extensions>
					<swisstopo:routepoint_id>236178172</swisstopo:routepoint_id>
				</extensions>
			</trkpt>
			<trkpt lat="47.2851983850" lon="7.5620619003">
				<ele>577.6</ele>
				<time>2021-04-12T11:38:31+02:00</time>
				<extensions>
					<swisstopo:routepoint_id>896757148</swisstopo:routepoint_id>
				</extensions>
			</trkpt>
			<trkpt lat="47.2851931204" lon="7.5620415772">
				<ele>577.7</ele>
				<time>2021-04-12T11:38:32+02:00</time>
				<extensions>
					<swisstopo:routepoint_id>757151790</swisstopo:routepoint_id>
				</extensions>
			</trkpt>
			<trkpt lat="47.2851838183" lon="7.5620106440">
				<ele>577.9</ele>
				<time>2021-04-12T11:38:33+02:00</time>
				<extensions>
					<swisstopo:routepoint_id>1609526055</swisstopo:routepoint_id>
				</extensions>
			</trkpt>
			<trkpt lat="47.2851705717" lon="7.5619683085">
				<ele>578.1</ele>
				<time>2021-04-12T11:38:34+02:00</time>
				<extensions>
					<swisstopo:routepoint_id>1600388773</swisstopo:routepoint_id>
				</extensions>
			</trkpt>
			<trkpt lat="47.2851534678" lon="7.5619139808">
				<ele>578.4</ele>
				<time>2021-04-12T11:38:35+02:00</time>
				<extensions>
					<swisstopo:routepoint_id>501429136</swisstopo:routepoint_id>
				</extensions>
			</trkpt>
			<trkpt lat="47.2851325885" lon="7.5618474291">
				<ele>578.8</ele>
				<time>2021-04-12T11:38:36+02:00</time>
				<extensions>
					<swisstopo:routepoint_id>793657924</swisstopo:routepoint_id>
				</extensions>
			</trkpt>
			<trkpt lat="47.2851081200" lon="7.5617693268">
				<ele>579.1</ele>
				<time>2021-04-12T11:38:37+02:00</time>
				<extensions>
					<swisstopo:routepoint_id>987797151</swisstopo:routepoint_id>
				</extensions>
			</trkpt>
			<trkpt lat="47.2850808489" lon="7.5616798919">
				<ele>579.6</ele>
				<time>2021-04-12T11:38:38+02:00</time>
				<extensions>
					<swisstopo:routepoint_id>1858125547</swisstopo:routepoint_id>
				</extensions>
			</trkpt>
			<trkpt lat="47.2850507187" lon="7.5615793544">
				<ele>580.0</ele>
				<time>2021-04-12T11:38:39+02:00</time>
				<extensions>
					<swisstopo:routepoint_id>808873755</swisstopo:routepoint_id>
				</extensions>
			</trkpt>
			<trkpt lat="47.2850176455" lon="7.5614678230">
				<ele>580.5</ele>
				<time>2021-04-12T11:38:40+02:00</time>
				<extensions>
					<swisstopo:routepoint_id>1169714775</swisstopo:routepoint_id>
				</extensions>
			</trkpt>
			<trkpt lat="47.2849816176" lon="7.5613452849">
				<ele>581.1</ele>
				<time>2021-04-12T11:38:41+02:00</time>
				<extensions>
					<swisstopo:routepoint_id>1330918787</swisstopo:routepoint_id>
				</extensions>
			</trkpt>
			<trkpt lat="47.2849428744" lon="7.5612117219">
				<ele>581.6</ele>
				<time>2021-04-12T11:38:42+02:00</time>
				<extensions>
					<swisstopo:routepoint_id>562385957</swisstopo:routepoint_id>
				</extensions>
			</trkpt>
			<trkpt lat="47.2849016901" lon="7.5610675747">
				<ele>582.2</ele>
				<time>2021-04-12T11:38:43+02:00</time>
				<extensions>
					<swisstopo:routepoint_id>945248852</swisstopo:routepoint_id>
				</extensions>
			</trkpt>
			<trkpt lat="47.2848584800" lon="7.5609135918">
				<ele>582.9</ele>
				<time>2021-04-12T11:38:44+02:00</time>
				<extensions>
					<swisstopo:routepoint_id>1860918705</swisstopo:routepoint_id>
				</extensions>
			</trkpt>
			<trkpt lat="47.2848138789" lon="7.5607505514">
				<ele>583.6</ele>
				<time>2021-04-12T11:38:45+02:00</time>
				<extensions>
					<swisstopo:routepoint_id>508840027</swisstopo:routepoint_id>
				</extensions>
			</trkpt>
			<trkpt lat="47.2847670576" lon="7.5605787170">
				<ele>584.3</ele>
				<time>2021-04-12T11:38:46+02:00</time>
				<extensions>
					<swisstopo:routepoint_id>794451435</swisstopo:routepoint_id>
				</extensions>
			</trkpt>
			<trkpt lat="47.2847177678" lon="7.5603990185">
				<ele>585.0</ele>
				<time>2021-04-12T11:38:47+02:00</time>
				<extensions>
					<swisstopo:routepoint_id>1439434646</swisstopo:routepoint_id>
				</extensions>
			</trkpt>
			<trkpt lat="47.2846661723" lon="7.5602120945">
				<ele>585.8</ele>
				<time>2021-04-12T11:38:48+02:00</time>
				<extensions>
					<swisstopo:routepoint_id>1174811867</swisstopo:routepoint_id>
				</extensions>
			</trkpt>
			<trkpt lat="47.2846124178" lon="7.5600186870">
				<ele>586.6</ele>
				<time>2021-04-12T11:38:49+02:00</time>
				<extensions>
					<swisstopo:routepoint_id>1098398151</swisstopo:routepoint_id>
				</extensions>
			</trkpt>
			<trkpt lat="47.2845565387" lon="7.5598205501">
				<ele>587.4</ele>
				<time>2021-04-12T11:38:50+02:00</time>
				<extensions>
					<swisstopo:routepoint_id>1008294245</swisstopo:routepoint_id>
				</extensions>
			</trkpt>
			<trkpt lat="47.2844988905" lon="7.5596190341">
				<ele>588.2</ele>
				<time>2021-04-12T11:38:51+02:00</time>
				<extensions>
					<swisstopo:routepoint_id>607917238</swisstopo:routepoint_id>
				</extensions>
			</trkpt>
			<trkpt lat="47.2844399175" lon="7.5594150762">
				<ele>589.0</ele>
				<time>2021-04-12T11:38:52+02:00</time>
				<extensions>
					<swisstopo:routepoint_id>1685310287</swisstopo:routepoint_id>
				</extensions>
			</trkpt>
			<trkpt lat="47.2843797617" lon="7.5592088262">
				<ele>589.9</ele>
				<time>2021-04-12T11:38:53+02:00</time>
				<extensions>
					<swisstopo:routepoint_id>1848173326</swisstopo:routepoint_id>
				</extensions>
			</trkpt>
			<trkpt lat="47.2843183521" lon="7.5590007506">
				<ele>590.7</ele>
				<time>2021-04-12T11:38:54+02:00</time>
				<extensions>
					<swisstopo:routepoint_id>1045619874</swisstopo:routepoint_id>
				</extensions>
			</trkpt>
			<trkpt lat="47.2842561167" lon="7.5587909171">
				<ele>591.6</ele>
				<time>2021-04-12T11:38:55+02:00</time>
				<extensions>
					<swisstopo:routepoint_id>874538917</swisstopo:routepoint_id>
				</extensions>
			</trkpt>
			<trkpt lat="47.2841930888" lon="7.5585796502">
				<ele>592.5</ele>
				<time>2021-04-12T11:38:56+02:00</time>
				<extensions>
					<swisstopo:routepoint_id>997497951</swisstopo:routepoint_id>
				</extensions>
			</trkpt>
			<trkpt lat="47.2841293965" lon="7.5583670352">
				<ele>593.4</ele>
				<time>2021-04-12T11:38:57+02:00</time>
				<extensions>
					<swisstopo:routepoint_id>1690713975</swisstopo:routepoint_id>
				</extensions>
			</trkpt>
			<trkpt lat="47.2840652401" lon="7.5581530430">
				<ele>594.3</ele>
				<time>2021-04-12T11:38:58+02:00</time>
				<extensions>
					<swisstopo:routepoint_id>326160721</swisstopo:routepoint_id>
				</extensions>
			</trkpt>
			<trkpt lat="47.2840010012" lon="7.5579377176">
				<ele>595.2</ele>
				<time>2021-04-12T11:38:59+02:00</time>
				<extensions>
					<swisstopo:routepoint_id>1404970703</swisstopo:routepoint_id>
				</extensions>
			</trkpt>
			<trkpt lat="47.2839366277" lon="7.5577213458">
				<ele>596.1</ele>
				<time>2021-04-12T11:39:00+02:00</time>
				<extensions>
					<swisstopo:routepoint_id>1759906556</swisstopo:routepoint_id>
				</extensions>
			</trkpt>
			<trkpt lat="47.2838722501" lon="7.5575046940">
				<ele>596.9</ele>
				<time>2021-04-12T11:39:01+02:00</time>
				<extensions>
					<swisstopo:routepoint_id>1457216561</swisstopo:routepoint_id>
				</extensions>
			</trkpt>
			<trkpt lat="47.2838080841" lon="7.5572885018">
				<ele>597.8</ele>
				<time>2021-04-12T11:39:02+02:00</time>
				<extensions>
					<swisstopo:routepoint_id>1535230339</swisstopo:routepoint_id>
				</extensions>
			</trkpt>
			<trkpt lat="47.2837443361" lon="7.5570733401">
				<ele>598.7</ele>
				<time>2021-04-12T11:39:03+02:00</time>
				<extensions>
					<swisstopo:routepoint_id>600288868</swisstopo:routepoint_id>
				</extensions>
			</trkpt>
			<trkpt lat="47.2836811830" lon="7.5568593198">
				<ele>599.6</ele>
				<time>2021-04-12T11:39:04+02:00</time>
				<extensions>
					<swisstopo:routepoint_id>176830870</swisstopo:routepoint_id>
				</extensions>
			</trkpt>
			<trkpt lat="47.2836184909" lon="7.5566466051">
				<ele>600.5</ele>
				<time>2021-04-12T11:39:05+02:00</time>
				<extensions>
					<swisstopo:routepoint_id>2026548289</swisstopo:routepoint_id>
				</extensions>
			</trkpt>
			<trkpt lat="47.2835558325" lon="7.5564354158">
				<ele>601.5</ele>
				<time>2021-04-12T11:39:06+02:00</time>
				<extensions>
					<swisstopo:routepoint_id>1106451803</swisstopo:routepoint_id>
				</extensions>
			</trkpt>
			<trkpt lat="47.2834930405" lon="7.5562260272">
				<ele>602.4</ele>
				<time>2021-04-12T11:39:07+02:00</time>
				<extensions>
					<swisstopo:routepoint_id>1074553648</swisstopo:routepoint_id>
				</extensions>
			</trkpt>
			<trkpt lat="47.2834304913" lon="7.5560184581">
				<ele>603.4</ele>
				<time>2021-04-12T11:39:08+02:00</time>
				<extensions>
					<swisstopo:routepoint_id>1833174313</swisstopo:routepoint_id>
				</extensions>
			</trkpt>
			<trkpt lat="47.2833683519" lon="7.5558129730">
				<ele>604.4</ele>
				<time>2021-04-12T11:39:09+02:00</time>
				<extensions>
					<swisstopo:routepoint_id>212795082</swisstopo:routepoint_id>
				</extensions>
			</trkpt>
			<trkpt lat="47.2833067211" lon="7.5556089599">
				<ele>605.4</ele>
				<time>2021-04-12T11:39:10+02:00</time>
				<extensions>
					<swisstopo:routepoint_id>886670919</swisstopo:routepoint_id>
				</extensions>
			</trkpt>
			<trkpt lat="47.2832457671" lon="7.5554066146">
				<ele>606.4</ele>
				<time>2021-04-12T11:39:11+02:00</time>
				<extensions>
					<swisstopo:routepoint_id>889109100</swisstopo:routepoint_id>
				</extensions>
			</trkpt>
			<trkpt lat="47.2831856174" lon="7.5552062382">
				<ele>607.4</ele>
				<time>2021-04-12T11:39:12+02:00</time>
				<extensions>
					<swisstopo:routepoint_id>1065427874</swisstopo:routepoint_id>
				</extensions>
			</trkpt>
			<trkpt lat="47.2831262246" lon="7.5550076382">
				<ele>608.4</ele>
				<time>2021-04-12T11:39:13+02:00</time>
				<extensions>
					<swisstopo:routepoint_id>927629632</swisstopo:routepoint_id>
				</extensions>
			</trkpt>
			<trkpt lat="47.2830674489" lon="7.5548105725">
				<ele>609.4</ele>
				<time>2021-04-12T11:39:14+02:00</time>
				<extensions>
					<swisstopo:routepoint_id>2087431451</swisstopo:routepoint_id>
				</extensions>
			</trkpt>
			<trkpt lat="47.2830093377" lon="7.5546147505">
				<ele>610.4</ele>
				<time>2021-04-12T11:39:15+02:00</time>
				<extensions>
					<swisstopo:routepoint_id>20055918</swisstopo:routepoint_id>
				</extensions>
			</trkpt>
			<trkpt lat="47.2829517175" lon="7.5544198429">
				<ele>611.4</ele>
				<time>2021-04-12T11:39:16+02:00</time>
				<extensions>
					<swisstopo:routepoint_id>2072364894</swisstopo:routepoint_id>
				</extensions>
			</trkpt>
			<trkpt lat="47.2828945297" lon="7.5542255157">
				<ele>612.5</ele>
				<time>2021-04-12T11:39:17+02:00</time>
				<extensions>
					<swisstopo:routepoint_id>199502765</swisstopo:routepoint_id>
				</extensions>
			</trkpt>
			<trkpt lat="47.2828376922" lon="7.5540314963">
				<ele>613.5</ele>
				<time>2021-04-12T11:39:18+02:00</time>
				<extensions>
					<swisstopo:routepoint_id>820998388</swisstopo:routepoint_id>
				</extensions>
			</trkpt>
			<trkpt lat="47.2827810748" lon="7.5538375745">
				<ele>614.5</ele>
				<time>2021-04-12T11:39:19+02:00</time>
				<extensions>
					<swisstopo:routepoint_id>937475141</swisstopo:routepoint_id>
				</extensions>
			</trkpt>
			<trkpt lat="47.2827244001" lon="7.5536435720">
				<ele>615.5</ele>
				<time>2021-04-12T11:39:20+02:00</time>
				<extensions>
					<swisstopo:routepoint_id>57176748</swisstopo:routepoint_id>
				</extensions>
			</trkpt>
			<trkpt lat="47.2826673996" lon="7.5534501272">
				<ele>616.4</ele>
				<time>2021-04-12T11:39:21+02:00</time>
				<extensions>
					<swisstopo:routepoint_id>1044413427</swisstopo:routepoint_id>
				</extensions>
			</trkpt>
			<trkpt lat="47.2826101814" lon="7.5532571744">
				<ele>617.4</ele>
				<time>2021-04-12T11:39:22+02:00</time>
				<extensions>
					<swisstopo:routepoint_id>2072620658</swisstopo:routepoint_id>
				</extensions>
			</trkpt>
			<trkpt lat="47.2825530338" lon="7.5530644073">
				<ele>618.4</ele>
				<time>2021-04-12T11:39:23+02:00</time>
				<extensions>
					<swisstopo:routepoint_id>203161019</swisstopo:routepoint_id>
				</extensions>
			</trkpt>
			<trkpt lat="47.2824960386" lon="7.5528715419">
				<ele>619.4</ele>
				<time>2021-04-12T11:39:24+02:00</time>
				<extensions>
					<swisstopo:routepoint_id>28247603</swisstopo:routepoint_id>
				</extensions>
			</trkpt>
			<trkpt lat="47.2824392876" lon="7.5526780328">
				<ele>620.4</ele>
				<time>2021-04-12T11:39:25+02:00</time>
				<extensions>
					<swisstopo:routepoint_id>163577634</swisstopo:routepoint_id>
				</extensions>
			</trkpt>
			<trkpt lat="47.2823829657" lon="7.5524831169">
				<ele>621.4</ele>
				<time>2021-04-12T11:39:26+02:00</time>
				<extensions>
					<swisstopo:routepoint_id>470226478</swisstopo:routepoint_id>
				</extensions>
			</trkpt>
			<trkpt lat="47.2823276720" lon="7.5522861485">
				<ele>622.4</ele>
				<time>2021-04-12T11:39:27+02:00</time>
				<extensions>
					<swisstopo:routepoint_id>356594786</swisstopo:routepoint_id>
				</extensions>
			</trkpt>
			<trkpt lat="47.2822741918" lon="7.5520865651">
				<ele>623.5</ele>
				<time>2021-04-12T11:39:28+02:00</time>
				<extensions>
					<swisstopo:routepoint_id>1809193172</swisstopo:routepoint_id>
				</extensions>
			</trkpt>
			<trkpt lat="47.2822228888" lon="7.5518841337">
				<ele>624.6</ele>
				<time>2021-04-12T11:39:29+02:00</time>
				<extensions>
					<swisstopo:routepoint_id>888683931</swisstopo:routepoint_id>
				</extensions>
			</trkpt>
			<trkpt lat="47.2821740511" lon="7.5516787937">
				<ele>625.6</ele>
				<time>2021-04-12T11:39:30+02:00</time>
				<extensions>
					<swisstopo:routepoint_id>362063432</swisstopo:routepoint_id>
				</extensions>
			</trkpt>
			<trkpt lat="47.2821278054" lon="7.5514714559">
				<ele>626.7</ele>
				<time>2021-04-12T11:39:31+02:00</time>
				<extensions>
					<swisstopo:routepoint_id>1378929673</swisstopo:routepoint_id>
				</extensions>
			</trkpt>
			<trkpt lat="47.2820842694" lon="7.5512628566">
				<ele>627.7</ele>
				<time>2021-04-12T11:39:32+02:00</time>
				<extensions>
					<swisstopo:routepoint_id>27495687</swisstopo:routepoint_id>
				</extensions>
			</trkpt>
			<trkpt lat="47.2820437270" lon="7.5510529261">
				<ele>628.7</ele>
				<time>2021-04-12T11:39:33+02:00</time>
				<extensions>
					<swisstopo:routepoint_id>411027304</swisstopo:routepoint_id>
				</extensions>
			</trkpt>
			<trkpt lat="47.2820059423" lon="7.5508417841">
				<ele>629.7</ele>
				<time>2021-04-12T11:39:34+02:00</time>
				<extensions>
					<swisstopo:routepoint_id>1828489576</swisstopo:routepoint_id>
				</extensions>
			</trkpt>
			<trkpt lat="47.2819708136" lon="7.5506295930">
				<ele>630.7</ele>
				<time>2021-04-12T11:39:35+02:00</time>
				<extensions>
					<swisstopo:routepoint_id>933315262</swisstopo:routepoint_id>
				</extensions>
			</trkpt>
			<trkpt lat="47.2819385919" lon="7.5504154529">
				<ele>631.6</ele>
				<time>2021-04-12T11:39:36+02:00</time>
				<extensions>
					<swisstopo:routepoint_id>1009050746</swisstopo:routepoint_id>
				</extensions>
			</trkpt>
			<trkpt lat="47.2819084875" lon="7.5501993119">
				<ele>632.5</ele>
				<time>2021-04-12T11:39:37+02:00</time>
				<extensions>
					<swisstopo:routepoint_id>437527663</swisstopo:routepoint_id>
				</extensions>
			</trkpt>
			<trkpt lat="47.2818795934" lon="7.5499819165">
				<ele>633.4</ele>
				<time>2021-04-12T11:39:38+02:00</time>
				<extensions>
					<swisstopo:routepoint_id>543424713</swisstopo:routepoint_id>
				</extensions>
			</trkpt>
			<trkpt lat="47.2818514127" lon="7.5497630884">
				<ele>634.2</ele>
				<time>2021-04-12T11:39:39+02:00</time>
				<extensions>
					<swisstopo:routepoint_id>91200700</swisstopo:routepoint_id>
				</extensions>
			</trkpt>
			<trkpt lat="47.2818228488" lon="7.5495427935">
				<ele>635.1</ele>
				<time>2021-04-12T11:39:40+02:00</time>
				<extensions>
					<swisstopo:routepoint_id>1654324589</swisstopo:routepoint_id>
				</extensions>
			</trkpt>
			<trkpt lat="47.2817930330" lon="7.5493208515">
				<ele>635.9</ele>
				<time>2021-04-12T11:39:41+02:00</time>
				<extensions>
					<swisstopo:routepoint_id>762589614</swisstopo:routepoint_id>
				</extensions>
			</trkpt>
			<trkpt lat="47.2817615690" lon="7.5490976812">
				<ele>636.6</ele>
				<time>2021-04-12T11:39:42+02:00</time>
				<extensions>
					<swisstopo:routepoint_id>661237202</swisstopo:routepoint_id>
				</extensions>
			</trkpt>
			<trkpt lat="47.2817284217" lon="7.5488736503">
				<ele>637.4</ele>
				<time>2021-04-12T11:39:43+02:00</time>
				<extensions>
					<swisstopo:routepoint_id>185780789</swisstopo:routepoint_id>
				</extensions>
			</trkpt>
			<trkpt lat="47.2816940080" lon="7.5486492663">
				<ele>638.2</ele>
				<time>2021-04-12T11:39:44+02:00</time>
				<extensions>
					<swisstopo:routepoint_id>2123981632</swisstopo:routepoint_id>
				</extensions>
			</trkpt>
			<trkpt lat="47.2816583517" lon="7.5484260731">
				<ele>638.9</ele>
				<time>2021-04-12T11:39:45+02:00</time>
				<extensions>
					<swisstopo:routepoint_id>138624943</swisstopo:routepoint_id>
				</extensions>
			</trkpt>
			<trkpt lat="47.2816217596" lon="7.5482051944">
				<ele>639.7</ele>
				<time>2021-04-12T11:39:46+02:00</time>
				<extensions>
					<swisstopo:routepoint_id>1997143653</swisstopo:routepoint_id>
				</extensions>
			</trkpt>
			<trkpt lat="47.2815846026" lon="7.5479877579">
				<ele>640.4</ele>
				<time>2021-04-12T11:39:47+02:00</time>
				<extensions>
					<swisstopo:routepoint_id>823973361</swisstopo:routepoint_id>
				</extensions>
			</trkpt>
			<trkpt lat="47.2815473398" lon="7.5477744712">
				<ele>641.2</ele>
				<time>2021-04-12T11:39:48+02:00</time>
				<extensions>
					<swisstopo:routepoint_id>1545722471</swisstopo:routepoint_id>
				</extensions>
			</trkpt>
			<trkpt lat="47.2815099386" lon="7.5475658954">
				<ele>641.9</ele>
				<time>2021-04-12T11:39:49+02:00</time>
				<extensions>
					<swisstopo:routepoint_id>847892338</swisstopo:routepoint_id>
				</extensions>
			</trkpt>
			<trkpt lat="47.2814727532" lon="7.5473622813">
				<ele>642.7</ele>
				<time>2021-04-12T11:39:50+02:00</time>
				<extensions>
					<swisstopo:routepoint_id>1972526921</swisstopo:routepoint_id>
				</extensions>
			</trkpt>
			<trkpt lat="47.2814360319" lon="7.5471627168">
				<ele>643.5</ele>
				<time>2021-04-12T11:39:51+02:00</time>
				<extensions>
					<swisstopo:routepoint_id>1554902508</swisstopo:routepoint_id>
				</extensions>
			</trkpt>
			<trkpt lat="47.2813999951" lon="7.5469668526">
				<ele>644.2</ele>
				<time>2021-04-12T11:39:52+02:00</time>
				<extensions>
					<swisstopo:routepoint_id>517951613</swisstopo:routepoint_id>
				</extensions>
			</trkpt>
			<trkpt lat="47.2813648066" lon="7.5467740516">
				<ele>645.0</ele>
				<time>2021-04-12T11:39:53+02:00</time>
				<extensions>
					<swisstopo:routepoint_id>1461538400</swisstopo:routepoint_id>
				</extensions>
			</trkpt>
			<trkpt lat="47.2813301520" lon="7.5465840277">
				<ele>645.7</ele>
				<time>2021-04-12T11:39:54+02:00</time>
				<extensions>
					<swisstopo:routepoint_id>1157934414</swisstopo:routepoint_id>
				</extensions>
			</trkpt>
			<trkpt lat="47.2812962631" lon="7.5463963308">
				<ele>646.5</ele>
				<time>2021-04-12T11:39:55+02:00</time>
				<extensions>
					<swisstopo:routepoint_id>906886984</swisstopo:routepoint_id>
				</extensions>
			</trkpt>
			<trkpt lat="47.2812630615" lon="7.5462114545">
				<ele>647.2</ele>
				<time>2021-04-12T11:39:56+02:00</time>
				<extensions>
					<swisstopo:routepoint_id>1358097329</swisstopo:routepoint_id>
				</extensions>
			</trkpt>
			<trkpt lat="47.2812305143" lon="7.5460288647">
				<ele>648.0</ele>
				<time>2021-04-12T11:39:57+02:00</time>
				<extensions>
					<swisstopo:routepoint_id>2085608187</swisstopo:routepoint_id>
				</extensions>
			</trkpt>
			<trkpt lat="47.2811985112" lon="7.5458482336">
				<ele>648.7</ele>
				<time>2021-04-12T11:39:58+02:00</time>
				<extensions>
					<swisstopo:routepoint_id>1588712575</swisstopo:routepoint_id>
				</extensions>
			</trkpt>
			<trkpt lat="47.2811669474" lon="7.5456693284">
				<ele>649.5</ele>
				<time>2021-04-12T11:39:59+02:00</time>
				<extensions>
					<swisstopo:routepoint_id>1828064874</swisstopo:routepoint_id>
				</extensions>
			</trkpt>
			<trkpt lat="47.2811356307" lon="7.5454918270">
				<ele>650.2</ele>
				<time>2021-04-12T11:40:00+02:00</time>
				<extensions>
					<swisstopo:routepoint_id>237799689</swisstopo:routepoint_id>
				</extensions>
			</trkpt>
			<trkpt lat="47.2811046836" lon="7.5453158130">
				<ele>651.0</ele>
				<time>2021-04-12T11:40:01+02:00</time>
				<extensions>
					<swisstopo:routepoint_id>232305956</swisstopo:routepoint_id>
				</extensions>
			</trkpt>
			<trkpt lat="47.2810742650" lon="7.5451406375">
				<ele>651.7</ele>
				<time>2021-04-12T11:40:02+02:00</time>
				<extensions>
					<swisstopo:routepoint_id>240932246</swisstopo:routepoint_id>
				</extensions>
			</trkpt>
			<trkpt lat="47.2810442346" lon="7.5449665391">
				<ele>652.4</ele>
				<time>2021-04-12T11:40:03+02:00</time>
				<extensions>
					<swisstopo:routepoint_id>1341583927</swisstopo:routepoint_id>
				</extensions>
			</trkpt>
			<trkpt lat="47.2810135730" lon="7.5447943099">
				<ele>653.1</ele>
				<time>2021-04-12T11:40:04+02:00</time>
				<extensions>
					<swisstopo:routepoint_id>1570251236</swisstopo:routepoint_id>
				</extensions>
			</trkpt>
			<trkpt lat="47.2809826459" lon="7.5446233017">
				<ele>653.7</ele>
				<time>2021-04-12T11:40:05+02:00</time>
				<extensions>
					<swisstopo:routepoint_id>785985469</swisstopo:routepoint_id>
				</extensions>
			</trkpt>
			<trkpt lat="47.2809519290" lon="7.5444533338">
				<ele>654.4</ele>
				<time>2021-04-12T11:40:06+02:00</time>
				<extensions>
					<swisstopo:routepoint_id>885864786</swisstopo:routepoint_id>
				</extensions>
			</trkpt>
			<trkpt lat="47.2809214426" lon="7.5442844686">
				<ele>655.0</ele>
				<time>2021-04-12T11:40:07+02:00</time>
				<extensions>
					<swisstopo:routepoint_id>225333651</swisstopo:routepoint_id>
				</extensions>
			</trkpt>
			<trkpt lat="47.2808913657" lon="7.5441161660">
				<ele>655.7</ele>
				<time>2021-04-12T11:40:08+02:00</time>
				<extensions>
					<swisstopo:routepoint_id>1169002696</swisstopo:routepoint_id>
				</extensions>
			</trkpt>
			<trkpt lat="47.2808617949" lon="7.5439476736">
				<ele>656.3</ele>
				<time>2021-04-12T11:40:09+02:00</time>
				<extensions>
					<swisstopo:routepoint_id>100425269</swisstopo:routepoint_id>
				</extensions>
			</trkpt>
			<trkpt lat="47.2808331546" lon="7.5437778218">
				<ele>656.9</ele>
				<time>2021-04-12T11:40:10+02:00</time>
				<extensions>
					<swisstopo:routepoint_id>2072833188</swisstopo:routepoint_id>
				</extensions>
			</trkpt>
			<trkpt lat="47.2808051550" lon="7.5436058255">
				<ele>657.4</ele>
				<time>2021-04-12T11:40:11+02:00</time>
				<extensions>
					<swisstopo:routepoint_id>1627669082</swisstopo:routepoint_id>
				</extensions>
			</trkpt>
			<trkpt lat="47.2807780561" lon="7.5434316639">
				<ele>658.0</ele>
				<time>2021-04-12T11:40:12+02:00</time>
				<extensions>
					<swisstopo:routepoint_id>1587565688</swisstopo:routepoint_id>
				</extensions>
			</trkpt>
			<trkpt lat="47.2807519183" lon="7.5432550460">
				<ele>658.5</ele>
				<time>2021-04-12T11:40:13+02:00</time>
				<extensions>
					<swisstopo:routepoint_id>1879687888</swisstopo:routepoint_id>
				</extensions>
			</trkpt>
			<trkpt lat="47.2807269423" lon="7.5430759299">
				<ele>659.1</ele>
				<time>2021-04-12T11:40:14+02:00</time>
				<extensions>
					<swisstopo:routepoint_id>282402599</swisstopo:routepoint_id>
				</extensions>
			</trkpt>
			<trkpt lat="47.2807034090" lon="7.5428945130">
				<ele>659.6</ele>
				<time>2021-04-12T11:40:15+02:00</time>
				<extensions>
					<swisstopo:routepoint_id>401621523</swisstopo:routepoint_id>
				</extensions>
			</trkpt>
			<trkpt lat="47.2806816322" lon="7.5427114628">
				<ele>660.1</ele>
				<time>2021-04-12T11:40:16+02:00</time>
				<extensions>
					<swisstopo:routepoint_id>511834540</swisstopo:routepoint_id>
				</extensions>
			</trkpt>
			<trkpt lat="47.2806615754" lon="7.5425269602">
				<ele>660.6</ele>
				<time>2021-04-12T11:40:17+02:00</time>
				<extensions>
					<swisstopo:routepoint_id>1731107545</swisstopo:routepoint_id>
				</extensions>
			</trkpt>
			<trkpt lat="47.2806430397" lon="7.5423415749">
				<ele>661.2</ele>
				<time>2021-04-12T11:40:18+02:00</time>
				<extensions>
					<swisstopo:routepoint_id>616059259</swisstopo:routepoint_id>
				</extensions>
			</trkpt>
			<trkpt lat="47.2806257057" lon="7.5421561821">
				<ele>661.6</ele>
				<time>2021-04-12T11:40:19+02:00</time>
				<extensions>
					<swisstopo:routepoint_id>1089303826</swisstopo:routepoint_id>
				</extensions>
			</trkpt>
			<trkpt lat="47.2806094935" lon="7.5419712787">
				<ele>662.1</ele>
				<time>2021-04-12T11:40:20+02:00</time>
				<extensions>
					<swisstopo:routepoint_id>631312907</swisstopo:routepoint_id>
				</extensions>
			</trkpt>
			<trkpt lat="47.2805940024" lon="7.5417870241">
				<ele>662.5</ele>
				<time>2021-04-12T11:40:21+02:00</time>
				<extensions>
					<swisstopo:routepoint_id>1906811769</swisstopo:routepoint_id>
				</extensions>
			</trkpt>
			<trkpt lat="47.2805791200" lon="7.5416030322">
				<ele>663.0</ele>
				<time>2021-04-12T11:40:22+02:00</time>
				<extensions>
					<swisstopo:routepoint_id>886937402</swisstopo:routepoint_id>
				</extensions>
			</trkpt>
			<trkpt lat="47.2805642611" lon="7.5414186231">
				<ele>663.5</ele>
				<time>2021-04-12T11:40:23+02:00</time>
				<extensions>
					<swisstopo:routepoint_id>1072921587</swisstopo:routepoint_id>
				</extensions>
			</trkpt>
			<trkpt lat="47.2805492746" lon="7.5412342895">
				<ele>664.0</ele>
				<time>2021-04-12T11:40:24+02:00</time>
				<extensions>
					<swisstopo:routepoint_id>172928850</swisstopo:routepoint_id>
				</extensions>
			</trkpt>
			<trkpt lat="47.2805331525" lon="7.5410504066">
				<ele>664.4</ele>
				<time>2021-04-12T11:40:25+02:00</time>
				<extensions>
					<swisstopo:routepoint_id>869807559</swisstopo:routepoint_id>
				</extensions>
			</trkpt>
			<trkpt lat="47.2805158995" lon="7.5408666542">
				<ele>664.9</ele>
				<time>2021-04-12T11:40:26+02:00</time>
				<extensions>
					<swisstopo:routepoint_id>934458984</swisstopo:routepoint_id>
				</extensions>
			</trkpt>
			<trkpt lat="47.2804983293" lon="7.5406837391">
				<ele>665.3</ele>
				<time>2021-04-12T11:40:27+02:00</time>
				<extensions>
					<swisstopo:routepoint_id>904233577</swisstopo:routepoint_id>
				</extensions>
			</trkpt>
			<trkpt lat="47.2804806135" lon="7.5405021644">
				<ele>665.7</ele>
				<time>2021-04-12T11:40:28+02:00</time>
				<extensions>
					<swisstopo:routepoint_id>1859442467</swisstopo:routepoint_id>
				</extensions>
			</trkpt>
			<trkpt lat="47.2804627033" lon="7.5403219200">
				<ele>666.2</ele>
				<time>2021-04-12T11:40:29+02:00</time>
				<extensions>
					<swisstopo:routepoint_id>1467511725</swisstopo:routepoint_id>
				</extensions>
			</trkpt>
			<trkpt lat="47.2804445066" lon="7.5401430666">
				<ele>666.6</ele>
				<time>2021-04-12T11:40:30+02:00</time>
				<extensions>
					<swisstopo:routepoint_id>619876280</swisstopo:routepoint_id>
				</extensions>
			</trkpt>
			<trkpt lat="47.2804258358" lon="7.5399655521">
				<ele>667.1</ele>
				<time>2021-04-12T11:40:31+02:00</time>
				<extensions>
					<swisstopo:routepoint_id>817466363</swisstopo:routepoint_id>
				</extensions>
			</trkpt>
			<trkpt lat="47.2804065578" lon="7.5397893468">
				<ele>667.6</ele>
				<time>2021-04-12T11:40:32+02:00</time>
				<extensions>
					<swisstopo:routepoint_id>1704273082</swisstopo:routepoint_id>
				</extensions>
			</trkpt>
			<trkpt lat="47.2803868336" lon="7.5396141598">
				<ele>668.0</ele>
				<time>2021-04-12T11:40:33+02:00</time>
				<extensions>
					<swisstopo:routepoint_id>580805488</swisstopo:routepoint_id>
				</extensions>
			</trkpt>
			<trkpt lat="47.2803667404" lon="7.5394397183">
				<ele>668.4</ele>
				<time>2021-04-12T11:40:34+02:00</time>
				<extensions>
					<swisstopo:routepoint_id>1284661201</swisstopo:routepoint_id>
				</extensions>
			</trkpt>
			<trkpt lat="47.2803462733" lon="7.5392658505">
				<ele>668.8</ele>
				<time>2021-04-12T11:40:35+02:00</time>
				<extensions>
					<swisstopo:routepoint_id>500218269</swisstopo:routepoint_id>
				</extensions>
			</trkpt>
			<trkpt lat="47.2803253161" lon="7.5390922719">
				<ele>669.2</ele>
				<time>2021-04-12T11:40:36+02:00</time>
				<extensions>
					<swisstopo:routepoint_id>1917452725</swisstopo:routepoint_id>
				</extensions>
			</trkpt>
			<trkpt lat="47.2803038346" lon="7.5389186594">
				<ele>669.5</ele>
				<time>2021-04-12T11:40:37+02:00</time>
				<extensions>
					<swisstopo:routepoint_id>1488342193</swisstopo:routepoint_id>
				</extensions>
			</trkpt>
			<trkpt lat="47.2802823395" lon="7.5387458893">
				<ele>669.8</ele>
				<time>2021-04-12T11:40:38+02:00</time>
				<extensions>
					<swisstopo:routepoint_id>677717495</swisstopo:routepoint_id>
				</extensions>
			</trkpt>
			<trkpt lat="47.2802613453" lon="7.5385745955">
				<ele>670.0</ele>
				<time>2021-04-12T11:40:39+02:00</time>
				<extensions>
					<swisstopo:routepoint_id>144674777</swisstopo:routepoint_id>
				</extensions>
			</trkpt>
			<trkpt lat="47.2802409953" lon="7.5384052653">
				<ele>670.2</ele>
				<time>2021-04-12T11:40:40+02:00</time>
				<extensions>
					<swisstopo:routepoint_id>597488635</swisstopo:routepoint_id>
				</extensions>
			</trkpt>
			<trkpt lat="47.2802215545" lon="7.5382379977">
				<ele>670.4</ele>
				<time>2021-04-12T11:40:41+02:00</time>
				<extensions>
					<swisstopo:routepoint_id>357955073</swisstopo:routepoint_id>
				</extensions>
			</trkpt>
			<trkpt lat="47.2802035644" lon="7.5380728072">
				<ele>670.5</ele>
				<time>2021-04-12T11:40:42+02:00</time>
				<extensions>
					<swisstopo:routepoint_id>1049216664</swisstopo:routepoint_id>
				</extensions>
			</trkpt>
			<trkpt lat="47.2801866053" lon="7.5379104219">
				<ele>670.7</ele>
				<time>2021-04-12T11:40:43+02:00</time>
				<extensions>
					<swisstopo:routepoint_id>1196246331</swisstopo:routepoint_id>
				</extensions>
			</trkpt>
			<trkpt lat="47.2801689090" lon="7.5377520294">
				<ele>670.8</ele>
				<time>2021-04-12T11:40:44+02:00</time>
				<extensions>
					<swisstopo:routepoint_id>570181903</swisstopo:routepoint_id>
				</extensions>
			</trkpt>
			<trkpt lat="47.2801490386" lon="7.5375989318">
				<ele>670.9</ele>
				<time>2021-04-12T11:40:45+02:00</time>
				<extensions>
					<swisstopo:routepoint_id>975210807</swisstopo:routepoint_id>
				</extensions>
			</trkpt>
			<trkpt lat="47.2801278193" lon="7.5374515036">
				<ele>670.9</ele>
				<time>2021-04-12T11:40:46+02:00</time>
				<extensions>
					<swisstopo:routepoint_id>772839345</swisstopo:routepoint_id>
				</extensions>
			</trkpt>
			<trkpt lat="47.2801063104" lon="7.5373100025">
				<ele>671.0</ele>
				<time>2021-04-12T11:40:47+02:00</time>
				<extensions>
					<swisstopo:routepoint_id>1129774359</swisstopo:routepoint_id>
				</extensions>
			</trkpt>
			<trkpt lat="47.2800851270" lon="7.5371744640">
				<ele>671.0</ele>
				<time>2021-04-12T11:40:48+02:00</time>
				<extensions>
					<swisstopo:routepoint_id>67244939</swisstopo:routepoint_id>
				</extensions>
			</trkpt>
			<trkpt lat="47.2800649754" lon="7.5370453051">
				<ele>671.1</ele>
				<time>2021-04-12T11:40:49+02:00</time>
				<extensions>
					<swisstopo:routepoint_id>609291451</swisstopo:routepoint_id>
				</extensions>
			</trkpt>
			<trkpt lat="47.2800466004" lon="7.5369230547">
				<ele>671.1</ele>
				<time>2021-04-12T11:40:50+02:00</time>
				<extensions>
					<swisstopo:routepoint_id>1159388061</swisstopo:routepoint_id>
				</extensions>
			</trkpt>
			<trkpt lat="47.2800304561" lon="7.5368083626">
				<ele>671.1</ele>
				<time>2021-04-12T11:40:51+02:00</time>
				<extensions>
					<swisstopo:routepoint_id>1716011996</swisstopo:routepoint_id>
				</extensions>
			</trkpt>
			<trkpt lat="47.2800164189" lon="7.5367019624">
				<ele>671.1</ele>
				<time>2021-04-12T11:40:52+02:00</time>
				<extensions>
					<swisstopo:routepoint_id>308237562</swisstopo:routepoint_id>
				</extensions>
			</trkpt>
			<trkpt lat="47.2800047011" lon="7.5366051338">
				<ele>671.1</ele>
				<time>2021-04-12T11:40:53+02:00</time>
				<extensions>
					<swisstopo:routepoint_id>818147970</swisstopo:routepoint_id>
				</extensions>
			</trkpt>
			<trkpt lat="47.2799964154" lon="7.5365196193">
				<ele>671.0</ele>
				<time>2021-04-12T11:40:54+02:00</time>
				<extensions>
					<swisstopo:routepoint_id>275140049</swisstopo:routepoint_id>
				</extensions>
			</trkpt>
			<trkpt lat="47.2799930294" lon="7.5364474054">
				<ele>671.0</ele>
				<time>2021-04-12T11:40:55+02:00</time>
				<extensions>
					<swisstopo:routepoint_id>746511552</swisstopo:routepoint_id>
				</extensions>
			</trkpt>
			<trkpt lat="47.2799932451" lon="7.5363894188">
				<ele>670.9</ele>
				<time>2021-04-12T11:40:56+02:00</time>
				<extensions>
					<swisstopo:routepoint_id>1020188690</swisstopo:routepoint_id>
				</extensions>
			</trkpt>
			<trkpt lat="47.2799941465" lon="7.5363464957">
				<ele>670.9</ele>
				<time>2021-04-12T11:40:57+02:00</time>
				<extensions>
					<swisstopo:routepoint_id>801875182</swisstopo:routepoint_id>
				</extensions>
			</trkpt>
			<trkpt lat="47.2799958518" lon="7.5363201896">
				<ele>670.8</ele>
				<time>2021-04-12T11:40:58+02:00</time>
				<extensions>
					<swisstopo:routepoint_id>1656298949</swisstopo:routepoint_id>
				</extensions>
			</trkpt>
			<trkpt lat="47.2799981519" lon="7.5363088040">
				<ele>670.6</ele>
				<time>2021-04-12T11:40:59+02:00</time>
				<extensions>
					<swisstopo:routepoint_id>1733403429</swisstopo:routepoint_id>
				</extensions>
			</trkpt>
			<trkpt lat="47.2800007697" lon="7.5363087511">
				<ele>670.5</ele>
				<time>2021-04-12T11:41:00+02:00</time>
				<extensions>
					<swisstopo:routepoint_id>548276001</swisstopo:routepoint_id>
				</extensions>
			</trkpt>
			<trkpt lat="47.2800033688" lon="7.5363168598">
				<ele>670.4</ele>
				<time>2021-04-12T11:41:01+02:00</time>
				<extensions>
					<swisstopo:routepoint_id>22419530</swisstopo:routepoint_id>
				</extensions>
			</trkpt>
			<trkpt lat="47.2800059833" lon="7.5363308849">
				<ele>670.2</ele>
				<time>2021-04-12T11:41:02+02:00</time>
				<extensions>
					<swisstopo:routepoint_id>995402485</swisstopo:routepoint_id>
				</extensions>
			</trkpt>
			<trkpt lat="47.2800085320" lon="7.5363488627">
				<ele>670.1</ele>
				<time>2021-04-12T11:41:03+02:00</time>
				<extensions>
					<swisstopo:routepoint_id>831955265</swisstopo:routepoint_id>
				</extensions>
			</trkpt>
			<trkpt lat="47.2800109446" lon="7.5363689479">
				<ele>670.0</ele>
				<time>2021-04-12T11:41:04+02:00</time>
				<extensions>
					<swisstopo:routepoint_id>406113238</swisstopo:routepoint_id>
				</extensions>
			</trkpt>
			<trkpt lat="47.2800132020" lon="7.5363896697">
				<ele>669.9</ele>
				<time>2021-04-12T11:41:05+02:00</time>
				<extensions>
					<swisstopo:routepoint_id>842160900</swisstopo:routepoint_id>
				</extensions>
			</trkpt>
			<trkpt lat="47.2800152618" lon="7.5364100001">
				<ele>669.9</ele>
				<time>2021-04-12T11:41:06+02:00</time>
				<extensions>
					<swisstopo:routepoint_id>133528923</swisstopo:routepoint_id>
				</extensions>
			</trkpt>
			<trkpt lat="47.2800171049" lon="7.5364293555">
				<ele>669.8</ele>
				<time>2021-04-12T11:41:07+02:00</time>
				<extensions>
					<swisstopo:routepoint_id>100197746</swisstopo:routepoint_id>
				</extensions>
			</trkpt>
			<trkpt lat="47.2800188010" lon="7.5364473099">
				<ele>669.7</ele>
				<time>2021-04-12T11:41:08+02:00</time>
				<extensions>
					<swisstopo:routepoint_id>396337774</swisstopo:routepoint_id>
				</extensions>
			</trkpt>
			<trkpt lat="47.2800204564" lon="7.5364636952">
				<ele>669.7</ele>
				<time>2021-04-12T11:41:09+02:00</time>
				<extensions>
					<swisstopo:routepoint_id>1902178271</swisstopo:routepoint_id>
				</extensions>
			</trkpt>
			<trkpt lat="47.2800219932" lon="7.5364783021">
				<ele>669.6</ele>
				<time>2021-04-12T11:41:10+02:00</time>
				<extensions>
					<swisstopo:routepoint_id>321147808</swisstopo:routepoint_id>
				</extensions>
			</trkpt>
			<trkpt lat="47.2800232477" lon="7.5364910339">
				<ele>669.6</ele>
				<time>2021-04-12T11:41:11+02:00</time>
				<extensions>
					<swisstopo:routepoint_id>904804145</swisstopo:routepoint_id>
				</extensions>
			</trkpt>
			<trkpt lat="47.2800242121" lon="7.5365018037">
				<ele>669.6</ele>
				<time>2021-04-12T11:41:12+02:00</time>
				<extensions>
					<swisstopo:routepoint_id>711560608</swisstopo:routepoint_id>
				</extensions>
			</trkpt>
			<trkpt lat="47.2800248007" lon="7.5365106825">
				<ele>669.5</ele>
				<time>2021-04-12T11:41:13+02:00</time>
				<extensions>
					<swisstopo:routepoint_id>2010192160</swisstopo:routepoint_id>
				</extensions>
			</trkpt>
			<trkpt lat="47.2800250428" lon="7.5365178415">
				<ele>669.5</ele>
				<time>2021-04-12T11:41:14+02:00</time>
				<extensions>
					<swisstopo:routepoint_id>1086898516</swisstopo:routepoint_id>
				</extensions>
			</trkpt>
			<trkpt lat="47.2800250952" lon="7.5365235196">
				<ele>669.5</ele>
				<time>2021-04-12T11:41:15+02:00</time>
				<extensions>
					<swisstopo:routepoint_id>1007457030</swisstopo:routepoint_id>
				</extensions>
			</trkpt>
			<trkpt lat="47.2800250109" lon="7.5365278551">
				<ele>669.4</ele>
				<time>2021-04-12T11:41:16+02:00</time>
				<extensions>
					<swisstopo:routepoint_id>1569230262</swisstopo:routepoint_id>
				</extensions>
			</trkpt>
			<trkpt lat="47.2800249915" lon="7.5365311418">
				<ele>669.4</ele>
				<time>2021-04-12T11:41:17+02:00</time>
				<extensions>
					<swisstopo:routepoint_id>806344627</swisstopo:routepoint_id>
				</extensions>
			</trkpt>
			<trkpt lat="47.2800249843" lon="7.5365333399">
				<ele>669.4</ele>
				<time>2021-04-12T11:41:18+02:00</time>
				<extensions>
					<swisstopo:routepoint_id>1612333419</swisstopo:routepoint_id>
				</extensions>
			</trkpt>
			<trkpt lat="47.2800251358" lon="7.5365347443">
				<ele>669.4</ele>
				<time>2021-04-12T11:41:19+02:00</time>
				<extensions>
					<swisstopo:routepoint_id>1539115287</swisstopo:routepoint_id>
				</extensions>
			</trkpt>
			<trkpt lat="47.2800254421" lon="7.5365356123">
				<ele>669.3</ele>
				<time>2021-04-12T11:41:20+02:00</time>
				<extensions>
					<swisstopo:routepoint_id>1470100494</swisstopo:routepoint_id>
				</extensions>
			</trkpt>
			<trkpt lat="47.2800259467" lon="7.5365362156">
				<ele>669.3</ele>
				<time>2021-04-12T11:41:21+02:00</time>
				<extensions>
					<swisstopo:routepoint_id>1179643923</swisstopo:routepoint_id>
				</extensions>
			</trkpt>
			<trkpt lat="47.2800264306" lon="7.5365365260">
				<ele>669.3</ele>
				<time>2021-04-12T11:41:22+02:00</time>
				<extensions>
					<swisstopo:routepoint_id>706384757</swisstopo:routepoint_id>
				</extensions>
			</trkpt>
			<trkpt lat="47.2800267930" lon="7.5365365743">
				<ele>669.3</ele>
				<time>2021-04-12T11:41:23+02:00</time>
				<extensions>
					<swisstopo:routepoint_id>919010283</swisstopo:routepoint_id>
				</extensions>
			</trkpt>
			<trkpt lat="47.2800270042" lon="7.5365363944">
				<ele>669.3</ele>
				<time>2021-04-12T11:41:24+02:00</time>
				<extensions>
					<swisstopo:routepoint_id>1103437157</swisstopo:routepoint_id>
				</extensions>
			</trkpt>
			<trkpt lat="47.2800271309" lon="7.5365360695">
				<ele>669.3</ele>
				<time>2021-04-12T11:41:25+02:00</time>
				<extensions>
					<swisstopo:routepoint_id>1947005854</swisstopo:routepoint_id>
				</extensions>
			</trkpt>
			<trkpt lat="47.2800271926" lon="7.5365357116">
				<ele>669.3</ele>
				<time>2021-04-12T11:41:26+02:00</time>
				<extensions>
					<swisstopo:routepoint_id>2119058839</swisstopo:routepoint_id>
				</extensions>
			</trkpt>
			<trkpt lat="47.2800271244" lon="7.5365352140">
				<ele>669.3</ele>
				<time>2021-04-12T11:41:27+02:00</time>
				<extensions>
					<swisstopo:routepoint_id>1153105225</swisstopo:routepoint_id>
				</extensions>
			</trkpt>
			<trkpt lat="47.2800270105" lon="7.5365344267">
				<ele>669.2</ele>
				<time>2021-04-12T11:41:28+02:00</time>
				<extensions>
					<swisstopo:routepoint_id>1347086047</swisstopo:routepoint_id>
				</extensions>
			</trkpt>
			<trkpt lat="47.2800269285" lon="7.5365335147">
				<ele>669.2</ele>
				<time>2021-04-12T11:41:29+02:00</time>
				<extensions>
					<swisstopo:routepoint_id>1702585255</swisstopo:routepoint_id>
				</extensions>
			</trkpt>
			<trkpt lat="47.2800269487" lon="7.5365328238">
				<ele>669.3</ele>
				<time>2021-04-12T11:41:30+02:00</time>
				<extensions>
					<swisstopo:routepoint_id>130784510</swisstopo:routepoint_id>
				</extensions>
			</trkpt>
			<trkpt lat="47.2800271277" lon="7.5365324551">
				<ele>669.3</ele>
				<time>2021-04-12T11:41:31+02:00</time>
				<extensions>
					<swisstopo:routepoint_id>1219488689</swisstopo:routepoint_id>
				</extensions>
			</trkpt>
			<trkpt lat="47.2800275891" lon="7.5365323990">
				<ele>669.3</ele>
				<time>2021-04-12T11:41:32+02:00</time>
				<extensions>
					<swisstopo:routepoint_id>362469055</swisstopo:routepoint_id>
				</extensions>
			</trkpt>
			<trkpt lat="47.2800283200" lon="7.5365326284">
				<ele>669.3</ele>
				<time>2021-04-12T11:41:33+02:00</time>
				<extensions>
					<swisstopo:routepoint_id>1753784493</swisstopo:routepoint_id>
				</extensions>
			</trkpt>
			<trkpt lat="47.2800292618" lon="7.5365331542">
				<ele>669.3</ele>
				<time>2021-04-12T11:41:34+02:00</time>
				<extensions>
					<swisstopo:routepoint_id>1642918776</swisstopo:routepoint_id>
				</extensions>
			</trkpt>
			<trkpt lat="47.2800303873" lon="7.5365338679">
				<ele>669.4</ele>
				<time>2021-04-12T11:41:35+02:00</time>
				<extensions>
					<swisstopo:routepoint_id>191135106</swisstopo:routepoint_id>
				</extensions>
			</trkpt>
			<trkpt lat="47.2800315535" lon="7.5365346116">
				<ele>669.4</ele>
				<time>2021-04-12T11:41:36+02:00</time>
				<extensions>
					<swisstopo:routepoint_id>1919674277</swisstopo:routepoint_id>
				</extensions>
			</trkpt>
			<trkpt lat="47.2800327734" lon="7.5365352668">
				<ele>669.4</ele>
				<time>2021-04-12T11:41:37+02:00</time>
				<extensions>
					<swisstopo:routepoint_id>171261011</swisstopo:routepoint_id>
				</extensions>
			</trkpt>
			<trkpt lat="47.2800340287" lon="7.5365358533">
				<ele>669.4</ele>
				<time>2021-04-12T11:41:38+02:00</time>
				<extensions>
					<swisstopo:routepoint_id>755724897</swisstopo:routepoint_id>
				</extensions>
			</trkpt>
			<trkpt lat="47.2800352231" lon="7.5365363407">
				<ele>669.4</ele>
				<time>2021-04-12T11:41:39+02:00</time>
				<extensions>
					<swisstopo:routepoint_id>1250055521</swisstopo:routepoint_id>
				</extensions>
			</trkpt>
			<trkpt lat="47.2800363874" lon="7.5365367387">
				<ele>669.5</ele>
				<time>2021-04-12T11:41:40+02:00</time>
				<extensions>
					<swisstopo:routepoint_id>850622846</swisstopo:routepoint_id>
				</extensions>
			</trkpt>
			<trkpt lat="47.2800376121" lon="7.5365370469">
				<ele>669.5</ele>
				<time>2021-04-12T11:41:41+02:00</time>
				<extensions>
					<swisstopo:routepoint_id>619534643</swisstopo:routepoint_id>
				</extensions>
			</trkpt>
			<trkpt lat="47.2800388724" lon="7.5365372853">
				<ele>669.5</ele>
				<time>2021-04-12T11:41:42+02:00</time>
				<extensions>
					<swisstopo:routepoint_id>1518024245</swisstopo:routepoint_id>
				</extensions>
			</trkpt>
			<trkpt lat="47.2800401465" lon="7.5365374678">
				<ele>669.5</ele>
				<time>2021-04-12T11:41:43+02:00</time>
				<extensions>
					<swisstopo:routepoint_id>1327759355</swisstopo:routepoint_id>
				</extensions>
			</trkpt>
			<trkpt lat="47.2800413504" lon="7.5365376337">
				<ele>669.6</ele>
				<time>2021-04-12T11:41:44+02:00</time>
				<extensions>
					<swisstopo:routepoint_id>1148903508</swisstopo:routepoint_id>
				</extensions>
			</trkpt>
			<trkpt lat="47.2800425041" lon="7.5365377909">
				<ele>669.6</ele>
				<time>2021-04-12T11:41:45+02:00</time>
				<extensions>
					<swisstopo:routepoint_id>1595788779</swisstopo:routepoint_id>
				</extensions>
			</trkpt>
			<trkpt lat="47.2800436382" lon="7.5365379874">
				<ele>669.6</ele>
				<time>2021-04-12T11:41:46+02:00</time>
				<extensions>
					<swisstopo:routepoint_id>498741270</swisstopo:routepoint_id>
				</extensions>
			</trkpt>
			<trkpt lat="47.2800447228" lon="7.5365381755">
				<ele>669.6</ele>
				<time>2021-04-12T11:41:47+02:00</time>
				<extensions>
					<swisstopo:routepoint_id>715850649</swisstopo:routepoint_id>
				</extensions>
			</trkpt>
			<trkpt lat="47.2800457250" lon="7.5365383433">
				<ele>669.6</ele>
				<time>2021-04-12T11:41:48+02:00</time>
				<extensions>
					<swisstopo:routepoint_id>1098467249</swisstopo:routepoint_id>
				</extensions>
			</trkpt>
			<trkpt lat="47.2800467590" lon="7.5365385230">
				<ele>669.7</ele>
				<time>2021-04-12T11:41:49+02:00</time>
				<extensions>
					<swisstopo:routepoint_id>22140684</swisstopo:routepoint_id>
				</extensions>
			</trkpt>
			<trkpt lat="47.2800476263" lon="7.5365385146">
				<ele>669.7</ele>
				<time>2021-04-12T11:41:50+02:00</time>
				<extensions>
					<swisstopo:routepoint_id>603805057</swisstopo:routepoint_id>
				</extensions>
			</trkpt>
			<trkpt lat="47.2800477914" lon="7.5365376943">
				<ele>669.7</ele>
				<time>2021-04-12T11:41:51+02:00</time>
				<extensions>
					<swisstopo:routepoint_id>1291360924</swisstopo:routepoint_id>
				</extensions>
			</trkpt>
			<trkpt lat="47.2800469024" lon="7.5365355180">
				<ele>669.7</ele>
				<time>2021-04-12T11:41:52+02:00</time>
				<extensions>
					<swisstopo:routepoint_id>1433313086</swisstopo:routepoint_id>
				</extensions>
			</trkpt>
			<trkpt lat="47.2800445130" lon="7.5365307712">
				<ele>669.8</ele>
				<time>2021-04-12T11:41:53+02:00</time>
				<extensions>
					<swisstopo:routepoint_id>1368968003</swisstopo:routepoint_id>
				</extensions>
			</trkpt>
			<trkpt lat="47.2800398861" lon="7.5365210340">
				<ele>669.8</ele>
				<time>2021-04-12T11:41:54+02:00</time>
				<extensions>
					<swisstopo:routepoint_id>105432463</swisstopo:routepoint_id>
				</extensions>
			</trkpt>
			<trkpt lat="47.2800331176" lon="7.5365027588">
				<ele>669.8</ele>
				<time>2021-04-12T11:41:55+02:00</time>
				<extensions>
					<swisstopo:routepoint_id>329396866</swisstopo:routepoint_id>
				</extensions>
			</trkpt>
			<trkpt lat="47.2800250134" lon="7.5364729298">
				<ele>669.9</ele>
				<time>2021-04-12T11:41:56+02:00</time>
				<extensions>
					<swisstopo:routepoint_id>2107768543</swisstopo:routepoint_id>
				</extensions>
			</trkpt>
			<trkpt lat="47.2800164920" lon="7.5364301936">
				<ele>669.9</ele>
				<time>2021-04-12T11:41:57+02:00</time>
				<extensions>
					<swisstopo:routepoint_id>375661289</swisstopo:routepoint_id>
				</extensions>
			</trkpt>
			<trkpt lat="47.2800084872" lon="7.5363744343">
				<ele>670.0</ele>
				<time>2021-04-12T11:41:58+02:00</time>
				<extensions>
					<swisstopo:routepoint_id>137362043</swisstopo:routepoint_id>
				</extensions>
			</trkpt>
			<trkpt lat="47.2800018326" lon="7.5363070191">
				<ele>670.0</ele>
				<time>2021-04-12T11:41:59+02:00</time>
				<extensions>
					<swisstopo:routepoint_id>98936176</swisstopo:routepoint_id>
				</extensions>
			</trkpt>
			<trkpt lat="47.2799970697" lon="7.5362314304">
				<ele>670.1</ele>
				<time>2021-04-12T11:42:00+02:00</time>
				<extensions>
					<swisstopo:routepoint_id>667967254</swisstopo:routepoint_id>
				</extensions>
			</trkpt>
			<trkpt lat="47.2799941513" lon="7.5361513703">
				<ele>670.1</ele>
				<time>2021-04-12T11:42:01+02:00</time>
				<extensions>
					<swisstopo:routepoint_id>1628615109</swisstopo:routepoint_id>
				</extensions>
			</trkpt>
			<trkpt lat="47.2799927126" lon="7.5360704027">
				<ele>670.2</ele>
				<time>2021-04-12T11:42:02+02:00</time>
				<extensions>
					<swisstopo:routepoint_id>307572301</swisstopo:routepoint_id>
				</extensions>
			</trkpt>
			<trkpt lat="47.2799924611" lon="7.5359917407">
				<ele>670.2</ele>
				<time>2021-04-12T11:42:03+02:00</time>
				<extensions>
					<swisstopo:routepoint_id>374524578</swisstopo:routepoint_id>
				</extensions>
			</trkpt>
			<trkpt lat="47.2799933623" lon="7.5359179565">
				<ele>670.3</ele>
				<time>2021-04-12T11:42:04+02:00</time>
				<extensions>
					<swisstopo:routepoint_id>360013089</swisstopo:routepoint_id>
				</extensions>
			</trkpt>
			<trkpt lat="47.2799950803" lon="7.5358506861">
				<ele>670.3</ele>
				<time>2021-04-12T11:42:05+02:00</time>
				<extensions>
					<swisstopo:routepoint_id>1278553224</swisstopo:routepoint_id>
				</extensions>
			</trkpt>
			<trkpt lat="47.2799972863" lon="7.5357909617">
				<ele>670.4</ele>
				<time>2021-04-12T11:42:06+02:00</time>
				<extensions>
					<swisstopo:routepoint_id>922663886</swisstopo:routepoint_id>
				</extensions>
			</trkpt>
			<trkpt lat="47.2799998265" lon="7.5357391684">
				<ele>670.4</ele>
				<time>2021-04-12T11:42:07+02:00</time>
				<extensions>
					<swisstopo:routepoint_id>232517015</swisstopo:routepoint_id>
				</extensions>
			</trkpt>
			<trkpt lat="47.2800025637" lon="7.5356955355">
				<ele>670.5</ele>
				<time>2021-04-12T11:42:08+02:00</time>
				<extensions>
					<swisstopo:routepoint_id>1640717212</swisstopo:routepoint_id>
				</extensions>
			</trkpt>
			<trkpt lat="47.2800053585" lon="7.5356600435">
				<ele>670.5</ele>
				<time>2021-04-12T11:42:09+02:00</time>
				<extensions>
					<swisstopo:routepoint_id>1844154604</swisstopo:routepoint_id>
				</extensions>
			</trkpt>
			<trkpt lat="47.2800079177" lon="7.5356322552">
				<ele>670.5</ele>
				<time>2021-04-12T11:42:10+02:00</time>
				<extensions>
					<swisstopo:routepoint_id>74952277</swisstopo:routepoint_id>
				</extensions>
			</trkpt>
			<trkpt lat="47.2800101349" lon="7.5356120961">
				<ele>670.6</ele>
				<time>2021-04-12T11:42:11+02:00</time>
				<extensions>
					<swisstopo:routepoint_id>1297502397</swisstopo:routepoint_id>
				</extensions>
			</trkpt>
			<trkpt lat="47.2800120413" lon="7.5355990745">
				<ele>670.6</ele>
				<time>2021-04-12T11:42:12+02:00</time>
				<extensions>
					<swisstopo:routepoint_id>1573834741</swisstopo:routepoint_id>
				</extensions>
			</trkpt>
			<trkpt lat="47.2800137780" lon="7.5355923777">
				<ele>670.6</ele>
				<time>2021-04-12T11:42:13+02:00</time>
				<extensions>
					<swisstopo:routepoint_id>884411888</swisstopo:routepoint_id>
				</extensions>
			</trkpt>
			<trkpt lat="47.2800152977" lon="7.5355906040">
				<ele>670.5</ele>
				<time>2021-04-12T11:42:14+02:00</time>
				<extensions>
					<swisstopo:routepoint_id>1576280729</swisstopo:routepoint_id>
				</extensions>
			</trkpt>
			<trkpt lat="47.2800164597" lon="7.5355923385">
				<ele>670.5</ele>
				<time>2021-04-12T11:42:15+02:00</time>
				<extensions>
					<swisstopo:routepoint_id>1191942911</swisstopo:routepoint_id>
				</extensions>
			</trkpt>
			<trkpt lat="47.2800172335" lon="7.5355965970">
				<ele>670.5</ele>
				<time>2021-04-12T11:42:16+02:00</time>
				<extensions>
					<swisstopo:routepoint_id>1257045961</swisstopo:routepoint_id>
				</extensions>
			</trkpt>
			<trkpt lat="47.2800177270" lon="7.5356026584">
				<ele>670.6</ele>
				<time>2021-04-12T11:42:17+02:00</time>
				<extensions>
					<swisstopo:routepoint_id>227347341</swisstopo:routepoint_id>
				</extensions>
			</trkpt>
			<trkpt lat="47.2800179704" lon="7.5356098357">
				<ele>670.6</ele>
				<time>2021-04-12T11:42:18+02:00</time>
				<extensions>
					<swisstopo:routepoint_id>653352174</swisstopo:routepoint_id>
				</extensions>
			</trkpt>
			<trkpt lat="47.2800179583" lon="7.5356176147">
				<ele>670.6</ele>
				<time>2021-04-12T11:42:19+02:00</time>
				<extensions>
					<swisstopo:routepoint_id>806101307</swisstopo:routepoint_id>
				</extensions>
			</trkpt>
			<trkpt lat="47.2800177077" lon="7.5356255794">
				<ele>670.6</ele>
				<time>2021-04-12T11:42:20+02:00</time>
				<extensions>
					<swisstopo:routepoint_id>1817821473</swisstopo:routepoint_id>
				</extensions>
			</trkpt>
			<trkpt lat="47.2800171925" lon="7.5356334148">
				<ele>670.6</ele>
				<time>2021-04-12T11:42:21+02:00</time>
				<extensions>
					<swisstopo:routepoint_id>2023134489</swisstopo:routepoint_id>
				</extensions>
			</trkpt>
			<trkpt lat="47.2800164465" lon="7.5356407346">
				<ele>670.5</ele>
				<time>2021-04-12T11:42:22+02:00</time>
				<extensions>
					<swisstopo:routepoint_id>1712773672</swisstopo:routepoint_id>
				</extensions>
			</trkpt>
			<trkpt lat="47.2800156467" lon="7.5356471479">
				<ele>670.5</ele>
				<time>2021-04-12T11:42:23+02:00</time>
				<extensions>
					<swisstopo:routepoint_id>1716300916</swisstopo:routepoint_id>
				</extensions>
			</trkpt>
			<trkpt lat="47.2800149837" lon="7.5356522129">
				<ele>670.5</ele>
				<time>2021-04-12T11:42:24+02:00</time>
				<extensions>
					<swisstopo:routepoint_id>869148708</swisstopo:routepoint_id>
				</extensions>
			</trkpt>
			<trkpt lat="47.2800145463" lon="7.5356556545">
				<ele>670.5</ele>
				<time>2021-04-12T11:42:25+02:00</time>
				<extensions>
					<swisstopo:routepoint_id>598568462</swisstopo:routepoint_id>
				</extensions>
			</trkpt>
			<trkpt lat="47.2800142547" lon="7.5356573563">
				<ele>670.5</ele>
				<time>2021-04-12T11:42:26+02:00</time>
				<extensions>
					<swisstopo:routepoint_id>1326738286</swisstopo:routepoint_id>
				</extensions>
			</trkpt>
			<trkpt lat="47.2800142154" lon="7.5356572261">
				<ele>670.5</ele>
				<time>2021-04-12T11:42:27+02:00</time>
				<extensions>
					<swisstopo:routepoint_id>1167666001</swisstopo:routepoint_id>
				</extensions>
			</trkpt>
			<trkpt lat="47.2800143685" lon="7.5356553874">
				<ele>670.5</ele>
				<time>2021-04-12T11:42:28+02:00</time>
				<extensions>
					<swisstopo:routepoint_id>1256912521</swisstopo:routepoint_id>
				</extensions>
			</trkpt>
			<trkpt lat="47.2800147349" lon="7.5356519891">
				<ele>670.5</ele>
				<time>2021-04-12T11:42:29+02:00</time>
				<extensions>
					<swisstopo:routepoint_id>132104908</swisstopo:routepoint_id>
				</extensions>
			</trkpt>
			<trkpt lat="47.2800151951" lon="7.5356475630">
				<ele>670.5</ele>
				<time>2021-04-12T11:42:30+02:00</time>
				<extensions>
					<swisstopo:routepoint_id>1936581405</swisstopo:routepoint_id>
				</extensions>
			</trkpt>
			<trkpt lat="47.2800157152" lon="7.5356426561">
				<ele>670.5</ele>
				<time>2021-04-12T11:42:31+02:00</time>
				<extensions>
					<swisstopo:routepoint_id>861519903</swisstopo:routepoint_id>
				</extensions>
			</trkpt>
			<trkpt lat="47.2800161229" lon="7.5356377690">
				<ele>670.5</ele>
				<time>2021-04-12T11:42:32+02:00</time>
				<extensions>
					<swisstopo:routepoint_id>1230261647</swisstopo:routepoint_id>
				</extensions>
			</trkpt>
			<trkpt lat="47.2800163402" lon="7.5356332639">
				<ele>670.5</ele>
				<time>2021-04-12T11:42:33+02:00</time>
				<extensions>
					<swisstopo:routepoint_id>1034947813</swisstopo:routepoint_id>
				</extensions>
			</trkpt>
			<trkpt lat="47.2800166221" lon="7.5356291293">
				<ele>670.5</ele>
				<time>2021-04-12T11:42:34+02:00</time>
				<extensions>
					<swisstopo:routepoint_id>1897836038</swisstopo:routepoint_id>
				</extensions>
			</trkpt>
			<trkpt lat="47.2800170373" lon="7.5356251256">
				<ele>670.5</ele>
				<time>2021-04-12T11:42:35+02:00</time>
				<extensions>
					<swisstopo:routepoint_id>355681775</swisstopo:routepoint_id>
				</extensions>
			</trkpt>
			<trkpt lat="47.2800176310" lon="7.5356210421">
				<ele>670.6</ele>
				<time>2021-04-12T11:42:36+02:00</time>
				<extensions>
					<swisstopo:routepoint_id>1496602824</swisstopo:routepoint_id>
				</extensions>
			</trkpt>
			<trkpt lat="47.2800183134" lon="7.5356167052">
				<ele>670.6</ele>
				<time>2021-04-12T11:42:37+02:00</time>
				<extensions>
					<swisstopo:routepoint_id>2075189304</swisstopo:routepoint_id>
				</extensions>
			</trkpt>
			<trkpt lat="47.2800190800" lon="7.5356119980">
				<ele>670.6</ele>
				<time>2021-04-12T11:42:38+02:00</time>
				<extensions>
					<swisstopo:routepoint_id>424721401</swisstopo:routepoint_id>
				</extensions>
			</trkpt>
			<trkpt lat="47.2800198863" lon="7.5356069827">
				<ele>670.6</ele>
				<time>2021-04-12T11:42:39+02:00</time>
				<extensions>
					<swisstopo:routepoint_id>56943979</swisstopo:routepoint_id>
				</extensions>
			</trkpt>
			<trkpt lat="47.2800206701" lon="7.5356021328">
				<ele>670.6</ele>
				<time>2021-04-12T11:42:40+02:00</time>
				<extensions>
					<swisstopo:routepoint_id>1427232138</swisstopo:routepoint_id>
				</extensions>
			</trkpt>
			<trkpt lat="47.2800213540" lon="7.5355980327">
				<ele>670.6</ele>
				<time>2021-04-12T11:42:41+02:00</time>
				<extensions>
					<swisstopo:routepoint_id>98206376</swisstopo:routepoint_id>
				</extensions>
			</trkpt>
			<trkpt lat="47.2800219574" lon="7.5355948201">
				<ele>670.6</ele>
				<time>2021-04-12T11:42:42+02:00</time>
				<extensions>
					<swisstopo:routepoint_id>1287120536</swisstopo:routepoint_id>
				</extensions>
			</trkpt>
			<trkpt lat="47.2800224714" lon="7.5355922083">
				<ele>670.6</ele>
				<time>2021-04-12T11:42:43+02:00</time>
				<extensions>
					<swisstopo:routepoint_id>1032072321</swisstopo:routepoint_id>
				</extensions>
			</trkpt>
			<trkpt lat="47.2800229127" lon="7.5355899052">
				<ele>670.6</ele>
				<time>2021-04-12T11:42:44+02:00</time>
				<extensions>
					<swisstopo:routepoint_id>814082228</swisstopo:routepoint_id>
				</extensions>
			</trkpt>
			<trkpt lat="47.2800233327" lon="7.5355876542">
				<ele>670.7</ele>
				<time>2021-04-12T11:42:45+02:00</time>
				<extensions>
					<swisstopo:routepoint_id>661690959</swisstopo:routepoint_id>
				</extensions>
			</trkpt>
			<trkpt lat="47.2800237832" lon="7.5355855295">
				<ele>670.7</ele>
				<time>2021-04-12T11:42:46+02:00</time>
				<extensions>
					<swisstopo:routepoint_id>1369623747</swisstopo:routepoint_id>
				</extensions>
			</trkpt>
			<trkpt lat="47.2800242994" lon="7.5355835820">
				<ele>670.7</ele>
				<time>2021-04-12T11:42:47+02:00</time>
				<extensions>
					<swisstopo:routepoint_id>389103636</swisstopo:routepoint_id>
				</extensions>
			</trkpt>
			<trkpt lat="47.2800247207" lon="7.5355815469">
				<ele>670.7</ele>
				<time>2021-04-12T11:42:48+02:00</time>
				<extensions>
					<swisstopo:routepoint_id>577105137</swisstopo:routepoint_id>
				</extensions>
			</trkpt>
			<trkpt lat="47.2800252148" lon="7.5355786094">
				<ele>670.7</ele>
				<time>2021-04-12T11:42:49+02:00</time>
				<extensions>
					<swisstopo:routepoint_id>1369887707</swisstopo:routepoint_id>
				</extensions>
			</trkpt>
			<trkpt lat="47.2800262114" lon="7.5355731626">
				<ele>670.7</ele>
				<time>2021-04-12T11:42:50+02:00</time>
				<extensions>
					<swisstopo:routepoint_id>530512062</swisstopo:routepoint_id>
				</extensions>
			</trkpt>
			<trkpt lat="47.2800283817" lon="7.5355624432">
				<ele>670.7</ele>
				<time>2021-04-12T11:42:51+02:00</time>
				<extensions>
					<swisstopo:routepoint_id>2111607337</swisstopo:routepoint_id>
				</extensions>
			</trkpt>
			<trkpt lat="47.2800325556" lon="7.5355430814">
				<ele>670.7</ele>
				<time>2021-04-12T11:42:52+02:00</time>
				<extensions>
					<swisstopo:routepoint_id>469762637</swisstopo:routepoint_id>
				</extensions>
			</trkpt>
			<trkpt lat="47.2800396729" lon="7.5355119302">
				<ele>670.8</ele>
				<time>2021-04-12T11:42:53+02:00</time>
				<extensions>
					<swisstopo:routepoint_id>1150753687</swisstopo:routepoint_id>
				</extensions>
			</trkpt>
			<trkpt lat="47.2800505856" lon="7.5354664123">
				<ele>670.8</ele>
				<time>2021-04-12T11:42:54+02:00</time>
				<extensions>
					<swisstopo:routepoint_id>479492527</swisstopo:routepoint_id>
				</extensions>
			</trkpt>
			<trkpt lat="47.2800654239" lon="7.5354041214">
				<ele>670.8</ele>
				<time>2021-04-12T11:42:55+02:00</time>
				<extensions>
					<swisstopo:routepoint_id>1472257745</swisstopo:routepoint_id>
				</extensions>
			</trkpt>
			<trkpt lat="47.2800838400" lon="7.5353239094">
				<ele>670.9</ele>
				<time>2021-04-12T11:42:56+02:00</time>
				<extensions>
					<swisstopo:routepoint_id>929339481</swisstopo:routepoint_id>
				</extensions>
			</trkpt>
			<trkpt lat="47.2801060882" lon="7.5352267578">
				<ele>670.9</ele>
				<time>2021-04-12T11:42:57+02:00</time>
				<extensions>
					<swisstopo:routepoint_id>760092536</swisstopo:routepoint_id>
				</extensions>
			</trkpt>
			<trkpt lat="47.2801323085" lon="7.5351136094">
				<ele>671.0</ele>
				<time>2021-04-12T11:42:58+02:00</time>
				<extensions>
					<swisstopo:routepoint_id>1642520196</swisstopo:routepoint_id>
				</extensions>
			</trkpt>
			<trkpt lat="47.2801619531" lon="7.5349849857">
				<ele>671.1</ele>
				<time>2021-04-12T11:42:59+02:00</time>
				<extensions>
					<swisstopo:routepoint_id>2082135634</swisstopo:routepoint_id>
				</extensions>
			</trkpt>
			<trkpt lat="47.2801943166" lon="7.5348403106">
				<ele>671.2</ele>
				<time>2021-04-12T11:43:00+02:00</time>
				<extensions>
					<swisstopo:routepoint_id>1207572773</swisstopo:routepoint_id>
				</extensions>
			</trkpt>
			<trkpt lat="47.2802290474" lon="7.5346801973">
				<ele>671.3</ele>
				<time>2021-04-12T11:43:01+02:00</time>
				<extensions>
					<swisstopo:routepoint_id>1955131661</swisstopo:routepoint_id>
				</extensions>
			</trkpt>
			<trkpt lat="47.2802656884" lon="7.5345061265">
				<ele>671.4</ele>
				<time>2021-04-12T11:43:02+02:00</time>
				<extensions>
					<swisstopo:routepoint_id>1250543680</swisstopo:routepoint_id>
				</extensions>
			</trkpt>
			<trkpt lat="47.2803040080" lon="7.5343215849">
				<ele>671.6</ele>
				<time>2021-04-12T11:43:03+02:00</time>
				<extensions>
					<swisstopo:routepoint_id>465176571</swisstopo:routepoint_id>
				</extensions>
			</trkpt>
			<trkpt lat="47.2803432758" lon="7.5341303454">
				<ele>671.7</ele>
				<time>2021-04-12T11:43:04+02:00</time>
				<extensions>
					<swisstopo:routepoint_id>1382153717</swisstopo:routepoint_id>
				</extensions>
			</trkpt>
			<trkpt lat="47.2803828283" lon="7.5339355420">
				<ele>671.9</ele>
				<time>2021-04-12T11:43:05+02:00</time>
				<extensions>
					<swisstopo:routepoint_id>526912020</swisstopo:routepoint_id>
				</extensions>
			</trkpt>
			<trkpt lat="47.2804219129" lon="7.5337399120">
				<ele>672.1</ele>
				<time>2021-04-12T11:43:06+02:00</time>
				<extensions>
					<swisstopo:routepoint_id>1735243559</swisstopo:routepoint_id>
				</extensions>
			</trkpt>
			<trkpt lat="47.2804599077" lon="7.5335452718">
				<ele>672.3</ele>
				<time>2021-04-12T11:43:07+02:00</time>
				<extensions>
					<swisstopo:routepoint_id>1410569853</swisstopo:routepoint_id>
				</extensions>
			</trkpt>
			<trkpt lat="47.2804958966" lon="7.5333533567">
				<ele>672.5</ele>
				<time>2021-04-12T11:43:08+02:00</time>
				<extensions>
					<swisstopo:routepoint_id>1375540138</swisstopo:routepoint_id>
				</extensions>
			</trkpt>
			<trkpt lat="47.2805293728" lon="7.5331648553">
				<ele>672.7</ele>
				<time>2021-04-12T11:43:09+02:00</time>
				<extensions>
					<swisstopo:routepoint_id>1041639411</swisstopo:routepoint_id>
				</extensions>
			</trkpt>
			<trkpt lat="47.2805593783" lon="7.5329806124">
				<ele>673.0</ele>
				<time>2021-04-12T11:43:10+02:00</time>
				<extensions>
					<swisstopo:routepoint_id>546890333</swisstopo:routepoint_id>
				</extensions>
			</trkpt>
			<trkpt lat="47.2805854081" lon="7.5328014156">
				<ele>673.2</ele>
				<time>2021-04-12T11:43:11+02:00</time>
				<extensions>
					<swisstopo:routepoint_id>355817571</swisstopo:routepoint_id>
				</extensions>
			</trkpt>
			<trkpt lat="47.2806074962" lon="7.5326282505">
				<ele>673.5</ele>
				<time>2021-04-12T11:43:12+02:00</time>
				<extensions>
					<swisstopo:routepoint_id>1631442549</swisstopo:routepoint_id>
				</extensions>
			</trkpt>
			<trkpt lat="47.2806265073" lon="7.5324610376">
				<ele>673.8</ele>
				<time>2021-04-12T11:43:13+02:00</time>
				<extensions>
					<swisstopo:routepoint_id>583716147</swisstopo:routepoint_id>
				</extensions>
			</trkpt>
			<trkpt lat="47.2806435786" lon="7.5322992783">
				<ele>674.1</ele>
				<time>2021-04-12T11:43:14+02:00</time>
				<extensions>
					<swisstopo:routepoint_id>811983133</swisstopo:routepoint_id>
				</extensions>
			</trkpt>
			<trkpt lat="47.2806600852" lon="7.5321429389">
				<ele>674.4</ele>
				<time>2021-04-12T11:43:15+02:00</time>
				<extensions>
					<swisstopo:routepoint_id>1889423293</swisstopo:routepoint_id>
				</extensions>
			</trkpt>
			<trkpt lat="47.2806771254" lon="7.5319924727">
				<ele>674.6</ele>
				<time>2021-04-12T11:43:16+02:00</time>
				<extensions>
					<swisstopo:routepoint_id>696597262</swisstopo:routepoint_id>
				</extensions>
			</trkpt>
			<trkpt lat="47.2806952788" lon="7.5318473979">
				<ele>674.9</ele>
				<time>2021-04-12T11:43:17+02:00</time>
				<extensions>
					<swisstopo:routepoint_id>1776822637</swisstopo:routepoint_id>
				</extensions>
			</trkpt>
			<trkpt lat="47.2807148819" lon="7.5317067481">
				<ele>675.2</ele>
				<time>2021-04-12T11:43:18+02:00</time>
				<extensions>
					<swisstopo:routepoint_id>150464877</swisstopo:routepoint_id>
				</extensions>
			</trkpt>
			<trkpt lat="47.2807359327" lon="7.5315697163">
				<ele>675.5</ele>
				<time>2021-04-12T11:43:19+02:00</time>
				<extensions>
					<swisstopo:routepoint_id>1274935220</swisstopo:routepoint_id>
				</extensions>
			</trkpt>
			<trkpt lat="47.2807583442" lon="7.5314355404">
				<ele>675.9</ele>
				<time>2021-04-12T11:43:20+02:00</time>
				<extensions>
					<swisstopo:routepoint_id>244412774</swisstopo:routepoint_id>
				</extensions>
			</trkpt>
			<trkpt lat="47.2807816023" lon="7.5313035377">
				<ele>676.1</ele>
				<time>2021-04-12T11:43:21+02:00</time>
				<extensions>
					<swisstopo:routepoint_id>1856759554</swisstopo:routepoint_id>
				</extensions>
			</trkpt>
			<trkpt lat="47.2808058655" lon="7.5311739899">
				<ele>676.4</ele>
				<time>2021-04-12T11:43:22+02:00</time>
				<extensions>
					<swisstopo:routepoint_id>1472949521</swisstopo:routepoint_id>
				</extensions>
			</trkpt>
			<trkpt lat="47.2808309334" lon="7.5310463366">
				<ele>676.7</ele>
				<time>2021-04-12T11:43:23+02:00</time>
				<extensions>
					<swisstopo:routepoint_id>1818600478</swisstopo:routepoint_id>
				</extensions>
			</trkpt>
			<trkpt lat="47.2808567391" lon="7.5309197383">
				<ele>677.0</ele>
				<time>2021-04-12T11:43:24+02:00</time>
				<extensions>
					<swisstopo:routepoint_id>83485995</swisstopo:routepoint_id>
				</extensions>
			</trkpt>
			<trkpt lat="47.2808829963" lon="7.5307937094">
				<ele>677.3</ele>
				<time>2021-04-12T11:43:25+02:00</time>
				<extensions>
					<swisstopo:routepoint_id>842296474</swisstopo:routepoint_id>
				</extensions>
			</trkpt>
			<trkpt lat="47.2809093531" lon="7.5306681495">
				<ele>677.7</ele>
				<time>2021-04-12T11:43:26+02:00</time>
				<extensions>
					<swisstopo:routepoint_id>264637494</swisstopo:routepoint_id>
				</extensions>
			</trkpt>
			<trkpt lat="47.2809358593" lon="7.5305431949">
				<ele>678.0</ele>
				<time>2021-04-12T11:43:27+02:00</time>
				<extensions>
					<swisstopo:routepoint_id>323728721</swisstopo:routepoint_id>
				</extensions>
			</trkpt>
			<trkpt lat="47.2809624265" lon="7.5304187521">
				<ele>678.4</ele>
				<time>2021-04-12T11:43:28+02:00</time>
				<extensions>
					<swisstopo:routepoint_id>1332535996</swisstopo:routepoint_id>
				</extensions>
			</trkpt>
			<trkpt lat="47.2809888446" lon="7.5302953814">
				<ele>678.9</ele>
				<time>2021-04-12T11:43:29+02:00</time>
				<extensions>
					<swisstopo:routepoint_id>1973013856</swisstopo:routepoint_id>
				</extensions>
			</trkpt>
			<trkpt lat="47.2810149907" lon="7.5301733544">
				<ele>679.3</ele>
				<time>2021-04-12T11:43:30+02:00</time>
				<extensions>
					<swisstopo:routepoint_id>1148884465</swisstopo:routepoint_id>
				</extensions>
			</trkpt>
			<trkpt lat="47.2810409101" lon="7.5300520825">
				<ele>679.8</ele>
				<time>2021-04-12T11:43:31+02:00</time>
				<extensions>
					<swisstopo:routepoint_id>1275733078</swisstopo:routepoint_id>
				</extensions>
			</trkpt>
			<trkpt lat="47.2810663515" lon="7.5299312513">
				<ele>680.3</ele>
				<time>2021-04-12T11:43:32+02:00</time>
				<extensions>
					<swisstopo:routepoint_id>769110298</swisstopo:routepoint_id>
				</extensions>
			</trkpt>
			<trkpt lat="47.2810912477" lon="7.5298109070">
				<ele>680.9</ele>
				<time>2021-04-12T11:43:33+02:00</time>
				<extensions>
					<swisstopo:routepoint_id>732707193</swisstopo:routepoint_id>
				</extensions>
			</trkpt>
			<trkpt lat="47.2811153196" lon="7.5296915382">
				<ele>681.4</ele>
				<time>2021-04-12T11:43:34+02:00</time>
				<extensions>
					<swisstopo:routepoint_id>938560853</swisstopo:routepoint_id>
				</extensions>
			</trkpt>
			<trkpt lat="47.2811378249" lon="7.5295736706">
				<ele>682.0</ele>
				<time>2021-04-12T11:43:35+02:00</time>
				<extensions>
					<swisstopo:routepoint_id>1124869156</swisstopo:routepoint_id>
				</extensions>
			</trkpt>
			<trkpt lat="47.2811572811" lon="7.5294578684">
				<ele>682.6</ele>
				<time>2021-04-12T11:43:36+02:00</time>
				<extensions>
					<swisstopo:routepoint_id>1377360351</swisstopo:routepoint_id>
				</extensions>
			</trkpt>
			<trkpt lat="47.2811720848" lon="7.5293437118">
				<ele>683.2</ele>
				<time>2021-04-12T11:43:37+02:00</time>
				<extensions>
					<swisstopo:routepoint_id>1569188244</swisstopo:routepoint_id>
				</extensions>
			</trkpt>
			<trkpt lat="47.2811811767" lon="7.5292311908">
				<ele>683.8</ele>
				<time>2021-04-12T11:43:38+02:00</time>
				<extensions>
					<swisstopo:routepoint_id>100148101</swisstopo:routepoint_id>
				</extensions>
			</trkpt>
			<trkpt lat="47.2811843077" lon="7.5291207529">
				<ele>684.2</ele>
				<time>2021-04-12T11:43:39+02:00</time>
				<extensions>
					<swisstopo:routepoint_id>1709437906</swisstopo:routepoint_id>
				</extensions>
			</trkpt>
			<trkpt lat="47.2811807692" lon="7.5290115834">
				<ele>684.4</ele>
				<time>2021-04-12T11:43:40+02:00</time>
				<extensions>
					<swisstopo:routepoint_id>1486656576</swisstopo:routepoint_id>
				</extensions>
			</trkpt>
			<trkpt lat="47.2811710468" lon="7.5289046062">
				<ele>684.4</ele>
				<time>2021-04-12T11:43:41+02:00</time>
				<extensions>
					<swisstopo:routepoint_id>264839987</swisstopo:routepoint_id>
				</extensions>
			</trkpt>
			<trkpt lat="47.2811552522" lon="7.5287993439">
				<ele>684.3</ele>
				<time>2021-04-12T11:43:42+02:00</time>
				<extensions>
					<swisstopo:routepoint_id>1579544925</swisstopo:routepoint_id>
				</extensions>
			</trkpt>
			<trkpt lat="47.2811341236" lon="7.5286959607">
				<ele>684.0</ele>
				<time>2021-04-12T11:43:43+02:00</time>
				<extensions>
					<swisstopo:routepoint_id>218710261</swisstopo:routepoint_id>
				</extensions>
			</trkpt>
			<trkpt lat="47.2811083742" lon="7.5285942016">
				<ele>683.7</ele>
				<time>2021-04-12T11:43:44+02:00</time>
				<extensions>
					<swisstopo:routepoint_id>1518836610</swisstopo:routepoint_id>
				</extensions>
			</trkpt>
			<trkpt lat="47.2810791316" lon="7.5284931354">
				<ele>683.3</ele>
				<time>2021-04-12T11:43:45+02:00</time>
				<extensions>
					<swisstopo:routepoint_id>2096276028</swisstopo:routepoint_id>
				</extensions>
			</trkpt>
			<trkpt lat="47.2810472019" lon="7.5283920829">
				<ele>682.8</ele>
				<time>2021-04-12T11:43:46+02:00</time>
				<extensions>
					<swisstopo:routepoint_id>494489914</swisstopo:routepoint_id>
				</extensions>
			</trkpt>
			<trkpt lat="47.2810129530" lon="7.5282900492">
				<ele>682.3</ele>
				<time>2021-04-12T11:43:47+02:00</time>
				<extensions>
					<swisstopo:routepoint_id>130270708</swisstopo:routepoint_id>
				</extensions>
			</trkpt>
			<trkpt lat="47.2809775171" lon="7.5281864306">
				<ele>681.8</ele>
				<time>2021-04-12T11:43:48+02:00</time>
				<extensions>
					<swisstopo:routepoint_id>1173953063</swisstopo:routepoint_id>
				</extensions>
			</trkpt>
			<trkpt lat="47.2809414121" lon="7.5280805136">
				<ele>681.2</ele>
				<time>2021-04-12T11:43:49+02:00</time>
				<extensions>
					<swisstopo:routepoint_id>1696864852</swisstopo:routepoint_id>
				</extensions>
			</trkpt>
			<trkpt lat="47.2809051287" lon="7.5279708115">
				<ele>680.6</ele>
				<time>2021-04-12T11:43:50+02:00</time>
				<extensions>
					<swisstopo:routepoint_id>624735404</swisstopo:routepoint_id>
				</extensions>
			</trkpt>
			<trkpt lat="47.2808687178" lon="7.5278572741">
				<ele>680.1</ele>
				<time>2021-04-12T11:43:51+02:00</time>
				<extensions>
					<swisstopo:routepoint_id>880384845</swisstopo:routepoint_id>
				</extensions>
			</trkpt>
			<trkpt lat="47.2808310730" lon="7.5277409937">
				<ele>679.6</ele>
				<time>2021-04-12T11:43:52+02:00</time>
				<extensions>
					<swisstopo:routepoint_id>465762085</swisstopo:routepoint_id>
				</extensions>
			</trkpt>
			<trkpt lat="47.2807901402" lon="7.5276227643">
				<ele>679.2</ele>
				<time>2021-04-12T11:43:53+02:00</time>
				<extensions>
					<swisstopo:routepoint_id>485469280</swisstopo:routepoint_id>
				</extensions>
			</trkpt>
			<trkpt lat="47.2807450247" lon="7.5275039575">
				<ele>678.8</ele>
				<time>2021-04-12T11:43:54+02:00</time>
				<extensions>
					<swisstopo:routepoint_id>991814007</swisstopo:routepoint_id>
				</extensions>
			</trkpt>
			<trkpt lat="47.2806945716" lon="7.5273863362">
				<ele>678.5</ele>
				<time>2021-04-12T11:43:55+02:00</time>
				<extensions>
					<swisstopo:routepoint_id>649947635</swisstopo:routepoint_id>
				</extensions>
			</trkpt>
			<trkpt lat="47.2806378951" lon="7.5272700094">
				<ele>678.3</ele>
				<time>2021-04-12T11:43:56+02:00</time>
				<extensions>
					<swisstopo:routepoint_id>1568072803</swisstopo:routepoint_id>
				</extensions>
			</trkpt>
			<trkpt lat="47.2805748069" lon="7.5271545864">
				<ele>678.1</ele>
				<time>2021-04-12T11:43:57+02:00</time>
				<extensions>
					<swisstopo:routepoint_id>680284037</swisstopo:routepoint_id>
				</extensions>
			</trkpt>
			<trkpt lat="47.2805051427" lon="7.5270390441">
				<ele>678.0</ele>
				<time>2021-04-12T11:43:58+02:00</time>
				<extensions>
					<swisstopo:routepoint_id>330873231</swisstopo:routepoint_id>
				</extensions>
			</trkpt>
			<trkpt lat="47.2804298554" lon="7.5269209653">
				<ele>677.9</ele>
				<time>2021-04-12T11:43:59+02:00</time>
				<extensions>
					<swisstopo:routepoint_id>1151231334</swisstopo:routepoint_id>
				</extensions>
			</trkpt>
			<trkpt lat="47.2803515753" lon="7.5267994217">
				<ele>678.0</ele>
				<time>2021-04-12T11:44:00+02:00</time>
				<extensions>
					<swisstopo:routepoint_id>2064854715</swisstopo:routepoint_id>
				</extensions>
			</trkpt>
			<trkpt lat="47.2802737021" lon="7.5266733080">
				<ele>678.0</ele>
				<time>2021-04-12T11:44:01+02:00</time>
				<extensions>
					<swisstopo:routepoint_id>677459485</swisstopo:routepoint_id>
				</extensions>
			</trkpt>
			<trkpt lat="47.2801983094" lon="7.5265416098">
				<ele>678.1</ele>
				<time>2021-04-12T11:44:02+02:00</time>
				<extensions>
					<swisstopo:routepoint_id>103268001</swisstopo:routepoint_id>
				</extensions>
			</trkpt>
			<trkpt lat="47.2801256523" lon="7.5264055922">
				<ele>678.3</ele>
				<time>2021-04-12T11:44:03+02:00</time>
				<extensions>
					<swisstopo:routepoint_id>458506031</swisstopo:routepoint_id>
				</extensions>
			</trkpt>
			<trkpt lat="47.2800572256" lon="7.5262656970">
				<ele>678.4</ele>
				<time>2021-04-12T11:44:04+02:00</time>
				<extensions>
					<swisstopo:routepoint_id>939537581</swisstopo:routepoint_id>
				</extensions>
			</trkpt>
			<trkpt lat="47.2799919891" lon="7.5261236848">
				<ele>678.6</ele>
				<time>2021-04-12T11:44:05+02:00</time>
				<extensions>
					<swisstopo:routepoint_id>360867476</swisstopo:routepoint_id>
				</extensions>
			</trkpt>
			<trkpt lat="47.2799289567" lon="7.5259810460">
				<ele>678.8</ele>
				<time>2021-04-12T11:44:06+02:00</time>
				<extensions>
					<swisstopo:routepoint_id>605850004</swisstopo:routepoint_id>
				</extensions>
			</trkpt>
			<trkpt lat="47.2798681537" lon="7.5258383231">
				<ele>679.0</ele>
				<time>2021-04-12T11:44:07+02:00</time>
				<extensions>
					<swisstopo:routepoint_id>1301046801</swisstopo:routepoint_id>
				</extensions>
			</trkpt>
			<trkpt lat="47.2798093848" lon="7.5256964608">
				<ele>679.3</ele>
				<time>2021-04-12T11:44:08+02:00</time>
				<extensions>
					<swisstopo:routepoint_id>1015090653</swisstopo:routepoint_id>
				</extensions>
			</trkpt>
			<trkpt lat="47.2797524694" lon="7.5255557691">
				<ele>679.5</ele>
				<time>2021-04-12T11:44:09+02:00</time>
				<extensions>
					<swisstopo:routepoint_id>1018513203</swisstopo:routepoint_id>
				</extensions>
			</trkpt>
			<trkpt lat="47.2796974103" lon="7.5254167335">
				<ele>679.8</ele>
				<time>2021-04-12T11:44:10+02:00</time>
				<extensions>
					<swisstopo:routepoint_id>559252584</swisstopo:routepoint_id>
				</extensions>
			</trkpt>
			<trkpt lat="47.2796429750" lon="7.5252780174">
				<ele>680.1</ele>
				<time>2021-04-12T11:44:11+02:00</time>
				<extensions>
					<swisstopo:routepoint_id>1969740016</swisstopo:routepoint_id>
				</extensions>
			</trkpt>
			<trkpt lat="47.2795905565" lon="7.5251434766">
				<ele>680.5</ele>
				<time>2021-04-12T11:44:12+02:00</time>
				<extensions>
					<swisstopo:routepoint_id>1960030407</swisstopo:routepoint_id>
				</extensions>
			</trkpt>
			<trkpt lat="47.2795387829" lon="7.5250110102">
				<ele>680.8</ele>
				<time>2021-04-12T11:44:13+02:00</time>
				<extensions>
					<swisstopo:routepoint_id>1979389116</swisstopo:routepoint_id>
				</extensions>
			</trkpt>
			<trkpt lat="47.2794880570" lon="7.5248803198">
				<ele>681.2</ele>
				<time>2021-04-12T11:44:14+02:00</time>
				<extensions>
					<swisstopo:routepoint_id>923696935</swisstopo:routepoint_id>
				</extensions>
			</trkpt>
			<trkpt lat="47.2794387052" lon="7.5247515919">
				<ele>681.6</ele>
				<time>2021-04-12T11:44:15+02:00</time>
				<extensions>
					<swisstopo:routepoint_id>415102382</swisstopo:routepoint_id>
				</extensions>
			</trkpt>
			<trkpt lat="47.2793905150" lon="7.5246242439">
				<ele>681.9</ele>
				<time>2021-04-12T11:44:16+02:00</time>
				<extensions>
					<swisstopo:routepoint_id>1598848818</swisstopo:routepoint_id>
				</extensions>
			</trkpt>
			<trkpt lat="47.2793434376" lon="7.5244975380">
				<ele>682.2</ele>
				<time>2021-04-12T11:44:17+02:00</time>
				<extensions>
					<swisstopo:routepoint_id>389209215</swisstopo:routepoint_id>
				</extensions>
			</trkpt>
			<trkpt lat="47.2792966239" lon="7.5243708745">
				<ele>682.4</ele>
				<time>2021-04-12T11:44:18+02:00</time>
				<extensions>
					<swisstopo:routepoint_id>204087743</swisstopo:routepoint_id>
				</extensions>
			</trkpt>
			<trkpt lat="47.2792488336" lon="7.5242441634">
				<ele>682.7</ele>
				<time>2021-04-12T11:44:19+02:00</time>
				<extensions>
					<swisstopo:routepoint_id>571312342</swisstopo:routepoint_id>
				</extensions>
			</trkpt>
			<trkpt lat="47.2791995637" lon="7.5241177158">
				<ele>682.9</ele>
				<time>2021-04-12T11:44:20+02:00</time>
				<extensions>
					<swisstopo:routepoint_id>647146257</swisstopo:routepoint_id>
				</extensions>
			</trkpt>
			<trkpt lat="47.2791485522" lon="7.5239918876">
				<ele>683.1</ele>
				<time>2021-04-12T11:44:21+02:00</time>
				<extensions>
					<swisstopo:routepoint_id>1729952991</swisstopo:routepoint_id>
				</extensions>
			</trkpt>
			<trkpt lat="47.2790944553" lon="7.5238677404">
				<ele>683.3</ele>
				<time>2021-04-12T11:44:22+02:00</time>
				<extensions>
					<swisstopo:routepoint_id>538823004</swisstopo:routepoint_id>
				</extensions>
			</trkpt>
			<trkpt lat="47.2790369575" lon="7.5237461182">
				<ele>683.4</ele>
				<time>2021-04-12T11:44:23+02:00</time>
				<extensions>
					<swisstopo:routepoint_id>59688829</swisstopo:routepoint_id>
				</extensions>
			</trkpt>
			<trkpt lat="47.2789764043" lon="7.5236269844">
				<ele>683.6</ele>
				<time>2021-04-12T11:44:24+02:00</time>
				<extensions>
					<swisstopo:routepoint_id>315285854</swisstopo:routepoint_id>
				</extensions>
			</trkpt>
			<trkpt lat="47.2789136665" lon="7.5235096638">
				<ele>683.8</ele>
				<time>2021-04-12T11:44:25+02:00</time>
				<extensions>
					<swisstopo:routepoint_id>1167191029</swisstopo:routepoint_id>
				</extensions>
			</trkpt>
			<trkpt lat="47.2788491851" lon="7.5233938329">
				<ele>683.9</ele>
				<time>2021-04-12T11:44:26+02:00</time>
				<extensions>
					<swisstopo:routepoint_id>1863992705</swisstopo:routepoint_id>
				</extensions>
			</trkpt>
			<trkpt lat="47.2787828039" lon="7.5232800909">
				<ele>684.1</ele>
				<time>2021-04-12T11:44:27+02:00</time>
				<extensions>
					<swisstopo:routepoint_id>633950499</swisstopo:routepoint_id>
				</extensions>
			</trkpt>
			<trkpt lat="47.2787138714" lon="7.5231690909">
				<ele>684.2</ele>
				<time>2021-04-12T11:44:28+02:00</time>
				<extensions>
					<swisstopo:routepoint_id>1139663926</swisstopo:routepoint_id>
				</extensions>
			</trkpt>
			<trkpt lat="47.2786431532" lon="7.5230600719">
				<ele>684.4</ele>
				<time>2021-04-12T11:44:30+02:00</time>
				<extensions>
					<swisstopo:routepoint_id>924956689</swisstopo:routepoint_id>
				</extensions>
			</trkpt>
			<trkpt lat="47.2785709693" lon="7.5229535766">
				<ele>684.6</ele>
				<time>2021-04-12T11:44:30+02:00</time>
				<extensions>
					<swisstopo:routepoint_id>112951390</swisstopo:routepoint_id>
				</extensions>
			</trkpt>
			<trkpt lat="47.2784970031" lon="7.5228503924">
				<ele>684.7</ele>
				<time>2021-04-12T11:44:31+02:00</time>
				<extensions>
					<swisstopo:routepoint_id>2145951429</swisstopo:routepoint_id>
				</extensions>
			</trkpt>
			<trkpt lat="47.2784223572" lon="7.5227496513">
				<ele>684.8</ele>
				<time>2021-04-12T11:44:32+02:00</time>
				<extensions>
					<swisstopo:routepoint_id>17815838</swisstopo:routepoint_id>
				</extensions>
			</trkpt>
			<trkpt lat="47.2783472603" lon="7.5226511057">
				<ele>685.0</ele>
				<time>2021-04-12T11:44:33+02:00</time>
				<extensions>
					<swisstopo:routepoint_id>930562333</swisstopo:routepoint_id>
				</extensions>
			</trkpt>
			<trkpt lat="47.2782711419" lon="7.5225558214">
				<ele>685.1</ele>
				<time>2021-04-12T11:44:34+02:00</time>
				<extensions>
					<swisstopo:routepoint_id>1985213277</swisstopo:routepoint_id>
				</extensions>
			</trkpt>
			<trkpt lat="47.2781946855" lon="7.5224624474">
				<ele>685.2</ele>
				<time>2021-04-12T11:44:35+02:00</time>
				<extensions>
					<swisstopo:routepoint_id>26123100</swisstopo:routepoint_id>
				</extensions>
			</trkpt>
			<trkpt lat="47.2781180207" lon="7.5223702685">
				<ele>685.3</ele>
				<time>2021-04-12T11:44:36+02:00</time>
				<extensions>
					<swisstopo:routepoint_id>964277712</swisstopo:routepoint_id>
				</extensions>
			</trkpt>
			<trkpt lat="47.2780412451" lon="7.5222792288">
				<ele>685.4</ele>
				<time>2021-04-12T11:44:37+02:00</time>
				<extensions>
					<swisstopo:routepoint_id>1703905322</swisstopo:routepoint_id>
				</extensions>
			</trkpt>
			<trkpt lat="47.2779647680" lon="7.5221891037">
				<ele>685.4</ele>
				<time>2021-04-12T11:44:38+02:00</time>
				<extensions>
					<swisstopo:routepoint_id>842314109</swisstopo:routepoint_id>
				</extensions>
			</trkpt>
			<trkpt lat="47.2778884899" lon="7.5220992309">
				<ele>685.4</ele>
				<time>2021-04-12T11:44:39+02:00</time>
				<extensions>
					<swisstopo:routepoint_id>561028939</swisstopo:routepoint_id>
				</extensions>
			</trkpt>
			<trkpt lat="47.2778125538" lon="7.5220085336">
				<ele>685.5</ele>
				<time>2021-04-12T11:44:40+02:00</time>
				<extensions>
					<swisstopo:routepoint_id>1760167443</swisstopo:routepoint_id>
				</extensions>
			</trkpt>
			<trkpt lat="47.2777368628" lon="7.5219167489">
				<ele>685.6</ele>
				<time>2021-04-12T11:44:41+02:00</time>
				<extensions>
					<swisstopo:routepoint_id>1546977076</swisstopo:routepoint_id>
				</extensions>
			</trkpt>
			<trkpt lat="47.2776614888" lon="7.5218237949">
				<ele>685.6</ele>
				<time>2021-04-12T11:44:42+02:00</time>
				<extensions>
					<swisstopo:routepoint_id>459202103</swisstopo:routepoint_id>
				</extensions>
			</trkpt>
			<trkpt lat="47.2775870903" lon="7.5217291045">
				<ele>685.7</ele>
				<time>2021-04-12T11:44:43+02:00</time>
				<extensions>
					<swisstopo:routepoint_id>1901001450</swisstopo:routepoint_id>
				</extensions>
			</trkpt>
			<trkpt lat="47.2775137590" lon="7.5216325104">
				<ele>685.8</ele>
				<time>2021-04-12T11:44:44+02:00</time>
				<extensions>
					<swisstopo:routepoint_id>2017153731</swisstopo:routepoint_id>
				</extensions>
			</trkpt>
			<trkpt lat="47.2774405031" lon="7.5215363020">
				<ele>685.9</ele>
				<time>2021-04-12T11:44:45+02:00</time>
				<extensions>
					<swisstopo:routepoint_id>2125905375</swisstopo:routepoint_id>
				</extensions>
			</trkpt>
			<trkpt lat="47.2773663068" lon="7.5214410967">
				<ele>686.0</ele>
				<time>2021-04-12T11:44:46+02:00</time>
				<extensions>
					<swisstopo:routepoint_id>258718839</swisstopo:routepoint_id>
				</extensions>
			</trkpt>
			<trkpt lat="47.2772913030" lon="7.5213447910">
				<ele>686.1</ele>
				<time>2021-04-12T11:44:47+02:00</time>
				<extensions>
					<swisstopo:routepoint_id>1780625545</swisstopo:routepoint_id>
				</extensions>
			</trkpt>
			<trkpt lat="47.2772166934" lon="7.5212448499">
				<ele>686.2</ele>
				<time>2021-04-12T11:44:48+02:00</time>
				<extensions>
					<swisstopo:routepoint_id>1788913870</swisstopo:routepoint_id>
				</extensions>
			</trkpt>
			<trkpt lat="47.2771435080" lon="7.5211401551">
				<ele>686.2</ele>
				<time>2021-04-12T11:44:49+02:00</time>
				<extensions>
					<swisstopo:routepoint_id>1504355090</swisstopo:routepoint_id>
				</extensions>
			</trkpt>
			<trkpt lat="47.2770720317" lon="7.5210296575">
				<ele>686.3</ele>
				<time>2021-04-12T11:44:50+02:00</time>
				<extensions>
					<swisstopo:routepoint_id>1371021499</swisstopo:routepoint_id>
				</extensions>
			</trkpt>
			<trkpt lat="47.2770027727" lon="7.5209125470">
				<ele>686.4</ele>
				<time>2021-04-12T11:44:51+02:00</time>
				<extensions>
					<swisstopo:routepoint_id>258801383</swisstopo:routepoint_id>
				</extensions>
			</trkpt>
			<trkpt lat="47.2769356988" lon="7.5207886394">
				<ele>686.5</ele>
				<time>2021-04-12T11:44:52+02:00</time>
				<extensions>
					<swisstopo:routepoint_id>1020458906</swisstopo:routepoint_id>
				</extensions>
			</trkpt>
			<trkpt lat="47.2768699779" lon="7.5206581524">
				<ele>686.7</ele>
				<time>2021-04-12T11:44:53+02:00</time>
				<extensions>
					<swisstopo:routepoint_id>1048428200</swisstopo:routepoint_id>
				</extensions>
			</trkpt>
			<trkpt lat="47.2768055329" lon="7.5205211847">
				<ele>686.8</ele>
				<time>2021-04-12T11:44:54+02:00</time>
				<extensions>
					<swisstopo:routepoint_id>829433765</swisstopo:routepoint_id>
				</extensions>
			</trkpt>
			<trkpt lat="47.2767421732" lon="7.5203784884">
				<ele>687.0</ele>
				<time>2021-04-12T11:44:55+02:00</time>
				<extensions>
					<swisstopo:routepoint_id>976935678</swisstopo:routepoint_id>
				</extensions>
			</trkpt>
			<trkpt lat="47.2766794039" lon="7.5202313906">
				<ele>687.1</ele>
				<time>2021-04-12T11:44:56+02:00</time>
				<extensions>
					<swisstopo:routepoint_id>1845458831</swisstopo:routepoint_id>
				</extensions>
			</trkpt>
			<trkpt lat="47.2766170621" lon="7.5200810246">
				<ele>687.3</ele>
				<time>2021-04-12T11:44:57+02:00</time>
				<extensions>
					<swisstopo:routepoint_id>520258996</swisstopo:routepoint_id>
				</extensions>
			</trkpt>
			<trkpt lat="47.2765552970" lon="7.5199283315">
				<ele>687.5</ele>
				<time>2021-04-12T11:44:58+02:00</time>
				<extensions>
					<swisstopo:routepoint_id>1587018835</swisstopo:routepoint_id>
				</extensions>
			</trkpt>
			<trkpt lat="47.2764938211" lon="7.5197741424">
				<ele>687.7</ele>
				<time>2021-04-12T11:44:59+02:00</time>
				<extensions>
					<swisstopo:routepoint_id>1278664105</swisstopo:routepoint_id>
				</extensions>
			</trkpt>
			<trkpt lat="47.2764325952" lon="7.5196190327">
				<ele>688.0</ele>
				<time>2021-04-12T11:45:00+02:00</time>
				<extensions>
					<swisstopo:routepoint_id>638757206</swisstopo:routepoint_id>
				</extensions>
			</trkpt>
			<trkpt lat="47.2763713595" lon="7.5194634479">
				<ele>688.2</ele>
				<time>2021-04-12T11:45:01+02:00</time>
				<extensions>
					<swisstopo:routepoint_id>321609889</swisstopo:routepoint_id>
				</extensions>
			</trkpt>
			<trkpt lat="47.2763099560" lon="7.5193077808">
				<ele>688.4</ele>
				<time>2021-04-12T11:45:02+02:00</time>
				<extensions>
					<swisstopo:routepoint_id>81064924</swisstopo:routepoint_id>
				</extensions>
			</trkpt>
			<trkpt lat="47.2762483205" lon="7.5191520726">
				<ele>688.6</ele>
				<time>2021-04-12T11:45:03+02:00</time>
				<extensions>
					<swisstopo:routepoint_id>953545470</swisstopo:routepoint_id>
				</extensions>
			</trkpt>
			<trkpt lat="47.2761861788" lon="7.5189964672">
				<ele>688.8</ele>
				<time>2021-04-12T11:45:04+02:00</time>
				<extensions>
					<swisstopo:routepoint_id>1715740376</swisstopo:routepoint_id>
				</extensions>
			</trkpt>
			<trkpt lat="47.2761238958" lon="7.5188408438">
				<ele>689.1</ele>
				<time>2021-04-12T11:45:05+02:00</time>
				<extensions>
					<swisstopo:routepoint_id>38087516</swisstopo:routepoint_id>
				</extensions>
			</trkpt>
			<trkpt lat="47.2760617041" lon="7.5186853844">
				<ele>689.4</ele>
				<time>2021-04-12T11:45:06+02:00</time>
				<extensions>
					<swisstopo:routepoint_id>186754606</swisstopo:routepoint_id>
				</extensions>
			</trkpt>
			<trkpt lat="47.2759998291" lon="7.5185305173">
				<ele>689.7</ele>
				<time>2021-04-12T11:45:07+02:00</time>
				<extensions>
					<swisstopo:routepoint_id>1311054775</swisstopo:routepoint_id>
				</extensions>
			</trkpt>
			<trkpt lat="47.2759379205" lon="7.5183765988">
				<ele>690.0</ele>
				<time>2021-04-12T11:45:08+02:00</time>
				<extensions>
					<swisstopo:routepoint_id>1715385205</swisstopo:routepoint_id>
				</extensions>
			</trkpt>
			<trkpt lat="47.2758762248" lon="7.5182239811">
				<ele>690.3</ele>
				<time>2021-04-12T11:45:09+02:00</time>
				<extensions>
					<swisstopo:routepoint_id>511179460</swisstopo:routepoint_id>
				</extensions>
			</trkpt>
			<trkpt lat="47.2758146739" lon="7.5180729826">
				<ele>690.6</ele>
				<time>2021-04-12T11:45:10+02:00</time>
				<extensions>
					<swisstopo:routepoint_id>1458596220</swisstopo:routepoint_id>
				</extensions>
			</trkpt>
			<trkpt lat="47.2757532301" lon="7.5179234653">
				<ele>690.9</ele>
				<time>2021-04-12T11:45:11+02:00</time>
				<extensions>
					<swisstopo:routepoint_id>1100839035</swisstopo:routepoint_id>
				</extensions>
			</trkpt>
			<trkpt lat="47.2756915864" lon="7.5177753531">
				<ele>691.2</ele>
				<time>2021-04-12T11:45:12+02:00</time>
				<extensions>
					<swisstopo:routepoint_id>1230042340</swisstopo:routepoint_id>
				</extensions>
			</trkpt>
			<trkpt lat="47.2756296080" lon="7.5176288908">
				<ele>691.5</ele>
				<time>2021-04-12T11:45:13+02:00</time>
				<extensions>
					<swisstopo:routepoint_id>1644022358</swisstopo:routepoint_id>
				</extensions>
			</trkpt>
			<trkpt lat="47.2755671104" lon="7.5174835934">
				<ele>691.8</ele>
				<time>2021-04-12T11:45:14+02:00</time>
				<extensions>
					<swisstopo:routepoint_id>1559168604</swisstopo:routepoint_id>
				</extensions>
			</trkpt>
			<trkpt lat="47.2755040596" lon="7.5173390078">
				<ele>692.2</ele>
				<time>2021-04-12T11:45:15+02:00</time>
				<extensions>
					<swisstopo:routepoint_id>1351266734</swisstopo:routepoint_id>
				</extensions>
			</trkpt>
			<trkpt lat="47.2754405544" lon="7.5171945713">
				<ele>692.5</ele>
				<time>2021-04-12T11:45:16+02:00</time>
				<extensions>
					<swisstopo:routepoint_id>1100431313</swisstopo:routepoint_id>
				</extensions>
			</trkpt>
			<trkpt lat="47.2753764276" lon="7.5170504740">
				<ele>692.9</ele>
				<time>2021-04-12T11:45:17+02:00</time>
				<extensions>
					<swisstopo:routepoint_id>819909627</swisstopo:routepoint_id>
				</extensions>
			</trkpt>
			<trkpt lat="47.2753118291" lon="7.5169059008">
				<ele>693.2</ele>
				<time>2021-04-12T11:45:18+02:00</time>
				<extensions>
					<swisstopo:routepoint_id>1966021837</swisstopo:routepoint_id>
				</extensions>
			</trkpt>
			<trkpt lat="47.2752466489" lon="7.5167609139">
				<ele>693.5</ele>
				<time>2021-04-12T11:45:19+02:00</time>
				<extensions>
					<swisstopo:routepoint_id>1745621717</swisstopo:routepoint_id>
				</extensions>
			</trkpt>
			<trkpt lat="47.2751807301" lon="7.5166151294">
				<ele>693.7</ele>
				<time>2021-04-12T11:45:20+02:00</time>
				<extensions>
					<swisstopo:routepoint_id>1890095952</swisstopo:routepoint_id>
				</extensions>
			</trkpt>
			<trkpt lat="47.2751139893" lon="7.5164683086">
				<ele>694.0</ele>
				<time>2021-04-12T11:45:21+02:00</time>
				<extensions>
					<swisstopo:routepoint_id>1264558840</swisstopo:routepoint_id>
				</extensions>
			</trkpt>
			<trkpt lat="47.2750465500" lon="7.5163203809">
				<ele>694.2</ele>
				<time>2021-04-12T11:45:22+02:00</time>
				<extensions>
					<swisstopo:routepoint_id>1942253168</swisstopo:routepoint_id>
				</extensions>
			</trkpt>
			<trkpt lat="47.2749785878" lon="7.5161713245">
				<ele>694.5</ele>
				<time>2021-04-12T11:45:23+02:00</time>
				<extensions>
					<swisstopo:routepoint_id>1697560176</swisstopo:routepoint_id>
				</extensions>
			</trkpt>
			<trkpt lat="47.2749102951" lon="7.5160207344">
				<ele>694.7</ele>
				<time>2021-04-12T11:45:24+02:00</time>
				<extensions>
					<swisstopo:routepoint_id>1573627637</swisstopo:routepoint_id>
				</extensions>
			</trkpt>
			<trkpt lat="47.2748415966" lon="7.5158685772">
				<ele>694.9</ele>
				<time>2021-04-12T11:45:25+02:00</time>
				<extensions>
					<swisstopo:routepoint_id>1698582254</swisstopo:routepoint_id>
				</extensions>
			</trkpt>
			<trkpt lat="47.2747722879" lon="7.5157152888">
				<ele>695.1</ele>
				<time>2021-04-12T11:45:26+02:00</time>
				<extensions>
					<swisstopo:routepoint_id>1571823407</swisstopo:routepoint_id>
				</extensions>
			</trkpt>
			<trkpt lat="47.2747022714" lon="7.5155608996">
				<ele>695.3</ele>
				<time>2021-04-12T11:45:27+02:00</time>
				<extensions>
					<swisstopo:routepoint_id>1439659702</swisstopo:routepoint_id>
				</extensions>
			</trkpt>
			<trkpt lat="47.2746316345" lon="7.5154056378">
				<ele>695.5</ele>
				<time>2021-04-12T11:45:28+02:00</time>
				<extensions>
					<swisstopo:routepoint_id>662360765</swisstopo:routepoint_id>
				</extensions>
			</trkpt>
			<trkpt lat="47.2745606168" lon="7.5152497571">
				<ele>695.6</ele>
				<time>2021-04-12T11:45:29+02:00</time>
				<extensions>
					<swisstopo:routepoint_id>1889634954</swisstopo:routepoint_id>
				</extensions>
			</trkpt>
			<trkpt lat="47.2744894904" lon="7.5150933860">
				<ele>695.8</ele>
				<time>2021-04-12T11:45:30+02:00</time>
				<extensions>
					<swisstopo:routepoint_id>2106500042</swisstopo:routepoint_id>
				</extensions>
			</trkpt>
			<trkpt lat="47.2744183183" lon="7.5149361035">
				<ele>695.9</ele>
				<time>2021-04-12T11:45:31+02:00</time>
				<extensions>
					<swisstopo:routepoint_id>530801452</swisstopo:routepoint_id>
				</extensions>
			</trkpt>
			<trkpt lat="47.2743468920" lon="7.5147772439">
				<ele>696.0</ele>
				<time>2021-04-12T11:45:32+02:00</time>
				<extensions>
					<swisstopo:routepoint_id>532934126</swisstopo:routepoint_id>
				</extensions>
			</trkpt>
			<trkpt lat="47.2742747981" lon="7.5146161528">
				<ele>696.1</ele>
				<time>2021-04-12T11:45:33+02:00</time>
				<extensions>
					<swisstopo:routepoint_id>2017047692</swisstopo:routepoint_id>
				</extensions>
			</trkpt>
			<trkpt lat="47.2742019260" lon="7.5144528785">
				<ele>696.1</ele>
				<time>2021-04-12T11:45:34+02:00</time>
				<extensions>
					<swisstopo:routepoint_id>343707902</swisstopo:routepoint_id>
				</extensions>
			</trkpt>
			<trkpt lat="47.2741285119" lon="7.5142879630">
				<ele>696.2</ele>
				<time>2021-04-12T11:45:35+02:00</time>
				<extensions>
					<swisstopo:routepoint_id>2115182131</swisstopo:routepoint_id>
				</extensions>
			</trkpt>
			<trkpt lat="47.2740547154" lon="7.5141220096">
				<ele>696.2</ele>
				<time>2021-04-12T11:45:36+02:00</time>
				<extensions>
					<swisstopo:routepoint_id>421783279</swisstopo:routepoint_id>
				</extensions>
			</trkpt>
			<trkpt lat="47.2739807983" lon="7.5139555658">
				<ele>696.2</ele>
				<time>2021-04-12T11:45:37+02:00</time>
				<extensions>
					<swisstopo:routepoint_id>68051406</swisstopo:routepoint_id>
				</extensions>
			</trkpt>
			<trkpt lat="47.2739067668" lon="7.5137890288">
				<ele>696.2</ele>
				<time>2021-04-12T11:45:38+02:00</time>
				<extensions>
					<swisstopo:routepoint_id>1278680438</swisstopo:routepoint_id>
				</extensions>
			</trkpt>
			<trkpt lat="47.2738328107" lon="7.5136226180">
				<ele>696.2</ele>
				<time>2021-04-12T11:45:39+02:00</time>
				<extensions>
					<swisstopo:routepoint_id>913265937</swisstopo:routepoint_id>
				</extensions>
			</trkpt>
			<trkpt lat="47.2737589954" lon="7.5134565795">
				<ele>696.2</ele>
				<time>2021-04-12T11:45:40+02:00</time>
				<extensions>
					<swisstopo:routepoint_id>1194978050</swisstopo:routepoint_id>
				</extensions>
			</trkpt>
			<trkpt lat="47.2736853847" lon="7.5132913664">
				<ele>696.3</ele>
				<time>2021-04-12T11:45:41+02:00</time>
				<extensions>
					<swisstopo:routepoint_id>729019606</swisstopo:routepoint_id>
				</extensions>
			</trkpt>
			<trkpt lat="47.2736119871" lon="7.5131270031">
				<ele>696.3</ele>
				<time>2021-04-12T11:45:42+02:00</time>
				<extensions>
					<swisstopo:routepoint_id>1238311907</swisstopo:routepoint_id>
				</extensions>
			</trkpt>
			<trkpt lat="47.2735387841" lon="7.5129633627">
				<ele>696.3</ele>
				<time>2021-04-12T11:45:43+02:00</time>
				<extensions>
					<swisstopo:routepoint_id>1044197872</swisstopo:routepoint_id>
				</extensions>
			</trkpt>
			<trkpt lat="47.2734657105" lon="7.5128004560">
				<ele>696.3</ele>
				<time>2021-04-12T11:45:44+02:00</time>
				<extensions>
					<swisstopo:routepoint_id>597271420</swisstopo:routepoint_id>
				</extensions>
			</trkpt>
			<trkpt lat="47.2733926096" lon="7.5126379571">
				<ele>696.3</ele>
				<time>2021-04-12T11:45:45+02:00</time>
				<extensions>
					<swisstopo:routepoint_id>1002189862</swisstopo:routepoint_id>
				</extensions>
			</trkpt>
			<trkpt lat="47.2733195952" lon="7.5124760008">
				<ele>696.4</ele>
				<time>2021-04-12T11:45:46+02:00</time>
				<extensions>
					<swisstopo:routepoint_id>1090767213</swisstopo:routepoint_id>
				</extensions>
			</trkpt>
			<trkpt lat="47.2732465598" lon="7.5123144222">
				<ele>696.4</ele>
				<time>2021-04-12T11:45:47+02:00</time>
				<extensions>
					<swisstopo:routepoint_id>1604138099</swisstopo:routepoint_id>
				</extensions>
			</trkpt>
			<trkpt lat="47.2731735537" lon="7.5121529768">
				<ele>696.4</ele>
				<time>2021-04-12T11:45:48+02:00</time>
				<extensions>
					<swisstopo:routepoint_id>1239325455</swisstopo:routepoint_id>
				</extensions>
			</trkpt>
			<trkpt lat="47.2731005482" lon="7.5119916391">
				<ele>696.5</ele>
				<time>2021-04-12T11:45:49+02:00</time>
				<extensions>
					<swisstopo:routepoint_id>899029932</swisstopo:routepoint_id>
				</extensions>
			</trkpt>
			<trkpt lat="47.2730276831" lon="7.5118302118">
				<ele>696.5</ele>
				<time>2021-04-12T11:45:50+02:00</time>
				<extensions>
					<swisstopo:routepoint_id>301126832</swisstopo:routepoint_id>
				</extensions>
			</trkpt>
			<trkpt lat="47.2729553057" lon="7.5116685156">
				<ele>696.6</ele>
				<time>2021-04-12T11:45:51+02:00</time>
				<extensions>
					<swisstopo:routepoint_id>1567193092</swisstopo:routepoint_id>
				</extensions>
			</trkpt>
			<trkpt lat="47.2728832286" lon="7.5115068006">
				<ele>696.6</ele>
				<time>2021-04-12T11:45:52+02:00</time>
				<extensions>
					<swisstopo:routepoint_id>927366789</swisstopo:routepoint_id>
				</extensions>
			</trkpt>
			<trkpt lat="47.2728108609" lon="7.5113452629">
				<ele>696.7</ele>
				<time>2021-04-12T11:45:53+02:00</time>
				<extensions>
					<swisstopo:routepoint_id>1964796444</swisstopo:routepoint_id>
				</extensions>
			</trkpt>
			<trkpt lat="47.2727380997" lon="7.5111840126">
				<ele>696.8</ele>
				<time>2021-04-12T11:45:54+02:00</time>
				<extensions>
					<swisstopo:routepoint_id>477794389</swisstopo:routepoint_id>
				</extensions>
			</trkpt>
			<trkpt lat="47.2726651402" lon="7.5110226165">
				<ele>696.8</ele>
				<time>2021-04-12T11:45:55+02:00</time>
				<extensions>
					<swisstopo:routepoint_id>848939790</swisstopo:routepoint_id>
				</extensions>
			</trkpt>
			<trkpt lat="47.2725920144" lon="7.5108610471">
				<ele>696.9</ele>
				<time>2021-04-12T11:45:56+02:00</time>
				<extensions>
					<swisstopo:routepoint_id>249699862</swisstopo:routepoint_id>
				</extensions>
			</trkpt>
			<trkpt lat="47.2725185133" lon="7.5106994481">
				<ele>697.0</ele>
				<time>2021-04-12T11:45:57+02:00</time>
				<extensions>
					<swisstopo:routepoint_id>522534396</swisstopo:routepoint_id>
				</extensions>
			</trkpt>
			<trkpt lat="47.2724448046" lon="7.5105381110">
				<ele>697.1</ele>
				<time>2021-04-12T11:45:58+02:00</time>
				<extensions>
					<swisstopo:routepoint_id>1174960989</swisstopo:routepoint_id>
				</extensions>
			</trkpt>
			<trkpt lat="47.2723710216" lon="7.5103768547">
				<ele>697.2</ele>
				<time>2021-04-12T11:45:59+02:00</time>
				<extensions>
					<swisstopo:routepoint_id>1457207958</swisstopo:routepoint_id>
				</extensions>
			</trkpt>
			<trkpt lat="47.2722974298" lon="7.5102157018">
				<ele>697.3</ele>
				<time>2021-04-12T11:46:00+02:00</time>
				<extensions>
					<swisstopo:routepoint_id>1390639718</swisstopo:routepoint_id>
				</extensions>
			</trkpt>
			<trkpt lat="47.2722240267" lon="7.5100545072">
				<ele>697.4</ele>
				<time>2021-04-12T11:46:01+02:00</time>
				<extensions>
					<swisstopo:routepoint_id>1417210125</swisstopo:routepoint_id>
				</extensions>
			</trkpt>
			<trkpt lat="47.2721509955" lon="7.5098937304">
				<ele>697.5</ele>
				<time>2021-04-12T11:46:02+02:00</time>
				<extensions>
					<swisstopo:routepoint_id>1309441998</swisstopo:routepoint_id>
				</extensions>
			</trkpt>
			<trkpt lat="47.2720783124" lon="7.5097331328">
				<ele>697.6</ele>
				<time>2021-04-12T11:46:03+02:00</time>
				<extensions>
					<swisstopo:routepoint_id>379245930</swisstopo:routepoint_id>
				</extensions>
			</trkpt>
			<trkpt lat="47.2720063416" lon="7.5095722792">
				<ele>697.7</ele>
				<time>2021-04-12T11:46:04+02:00</time>
				<extensions>
					<swisstopo:routepoint_id>254881214</swisstopo:routepoint_id>
				</extensions>
			</trkpt>
			<trkpt lat="47.2719352597" lon="7.5094107160">
				<ele>697.8</ele>
				<time>2021-04-12T11:46:05+02:00</time>
				<extensions>
					<swisstopo:routepoint_id>1706171580</swisstopo:routepoint_id>
				</extensions>
			</trkpt>
			<trkpt lat="47.2718653431" lon="7.5092480771">
				<ele>697.9</ele>
				<time>2021-04-12T11:46:06+02:00</time>
				<extensions>
					<swisstopo:routepoint_id>276606669</swisstopo:routepoint_id>
				</extensions>
			</trkpt>
			<trkpt lat="47.2717973187" lon="7.5090843063">
				<ele>698.0</ele>
				<time>2021-04-12T11:46:07+02:00</time>
				<extensions>
					<swisstopo:routepoint_id>1773673775</swisstopo:routepoint_id>
				</extensions>
			</trkpt>
			<trkpt lat="47.2717319170" lon="7.5089187565">
				<ele>698.1</ele>
				<time>2021-04-12T11:46:08+02:00</time>
				<extensions>
					<swisstopo:routepoint_id>914632418</swisstopo:routepoint_id>
				</extensions>
			</trkpt>
			<trkpt lat="47.2716700381" lon="7.5087513490">
				<ele>698.2</ele>
				<time>2021-04-12T11:46:09+02:00</time>
				<extensions>
					<swisstopo:routepoint_id>539104100</swisstopo:routepoint_id>
				</extensions>
			</trkpt>
			<trkpt lat="47.2716120901" lon="7.5085820924">
				<ele>698.4</ele>
				<time>2021-04-12T11:46:10+02:00</time>
				<extensions>
					<swisstopo:routepoint_id>489102007</swisstopo:routepoint_id>
				</extensions>
			</trkpt>
			<trkpt lat="47.2715582744" lon="7.5084110975">
				<ele>698.6</ele>
				<time>2021-04-12T11:46:11+02:00</time>
				<extensions>
					<swisstopo:routepoint_id>1917514580</swisstopo:routepoint_id>
				</extensions>
			</trkpt>
			<trkpt lat="47.2715090576" lon="7.5082382710">
				<ele>698.8</ele>
				<time>2021-04-12T11:46:12+02:00</time>
				<extensions>
					<swisstopo:routepoint_id>380455531</swisstopo:routepoint_id>
				</extensions>
			</trkpt>
			<trkpt lat="47.2714645273" lon="7.5080634019">
				<ele>698.9</ele>
				<time>2021-04-12T11:46:13+02:00</time>
				<extensions>
					<swisstopo:routepoint_id>1257292398</swisstopo:routepoint_id>
				</extensions>
			</trkpt>
			<trkpt lat="47.2714248538" lon="7.5078867577">
				<ele>699.1</ele>
				<time>2021-04-12T11:46:14+02:00</time>
				<extensions>
					<swisstopo:routepoint_id>74246706</swisstopo:routepoint_id>
				</extensions>
			</trkpt>
			<trkpt lat="47.2713900432" lon="7.5077080536">
				<ele>699.2</ele>
				<time>2021-04-12T11:46:15+02:00</time>
				<extensions>
					<swisstopo:routepoint_id>176388835</swisstopo:routepoint_id>
				</extensions>
			</trkpt>
			<trkpt lat="47.2713600787" lon="7.5075272667">
				<ele>699.4</ele>
				<time>2021-04-12T11:46:16+02:00</time>
				<extensions>
					<swisstopo:routepoint_id>1039716985</swisstopo:routepoint_id>
				</extensions>
			</trkpt>
			<trkpt lat="47.2713344971" lon="7.5073443851">
				<ele>699.6</ele>
				<time>2021-04-12T11:46:17+02:00</time>
				<extensions>
					<swisstopo:routepoint_id>448931256</swisstopo:routepoint_id>
				</extensions>
			</trkpt>
			<trkpt lat="47.2713126580" lon="7.5071596695">
				<ele>699.7</ele>
				<time>2021-04-12T11:46:18+02:00</time>
				<extensions>
					<swisstopo:routepoint_id>1077567681</swisstopo:routepoint_id>
				</extensions>
			</trkpt>
			<trkpt lat="47.2712939825" lon="7.5069735480">
				<ele>699.9</ele>
				<time>2021-04-12T11:46:19+02:00</time>
				<extensions>
					<swisstopo:routepoint_id>950419416</swisstopo:routepoint_id>
				</extensions>
			</trkpt>
			<trkpt lat="47.2712778677" lon="7.5067862445">
				<ele>700.1</ele>
				<time>2021-04-12T11:46:20+02:00</time>
				<extensions>
					<swisstopo:routepoint_id>715758326</swisstopo:routepoint_id>
				</extensions>
			</trkpt>
			<trkpt lat="47.2712634983" lon="7.5065979258">
				<ele>700.3</ele>
				<time>2021-04-12T11:46:21+02:00</time>
				<extensions>
					<swisstopo:routepoint_id>1694278235</swisstopo:routepoint_id>
				</extensions>
			</trkpt>
			<trkpt lat="47.2712503176" lon="7.5064088518">
				<ele>700.5</ele>
				<time>2021-04-12T11:46:22+02:00</time>
				<extensions>
					<swisstopo:routepoint_id>101136425</swisstopo:routepoint_id>
				</extensions>
			</trkpt>
			<trkpt lat="47.2712377917" lon="7.5062191705">
				<ele>700.7</ele>
				<time>2021-04-12T11:46:23+02:00</time>
				<extensions>
					<swisstopo:routepoint_id>1140330198</swisstopo:routepoint_id>
				</extensions>
			</trkpt>
			<trkpt lat="47.2712255255" lon="7.5060294913">
				<ele>700.9</ele>
				<time>2021-04-12T11:46:24+02:00</time>
				<extensions>
					<swisstopo:routepoint_id>1385571958</swisstopo:routepoint_id>
				</extensions>
			</trkpt>
			<trkpt lat="47.2712132906" lon="7.5058401152">
				<ele>701.0</ele>
				<time>2021-04-12T11:46:25+02:00</time>
				<extensions>
					<swisstopo:routepoint_id>2142713685</swisstopo:routepoint_id>
				</extensions>
			</trkpt>
			<trkpt lat="47.2712008526" lon="7.5056510126">
				<ele>701.2</ele>
				<time>2021-04-12T11:46:26+02:00</time>
				<extensions>
					<swisstopo:routepoint_id>1435627252</swisstopo:routepoint_id>
				</extensions>
			</trkpt>
			<trkpt lat="47.2711877493" lon="7.5054616892">
				<ele>701.4</ele>
				<time>2021-04-12T11:46:27+02:00</time>
				<extensions>
					<swisstopo:routepoint_id>1608450319</swisstopo:routepoint_id>
				</extensions>
			</trkpt>
			<trkpt lat="47.2711741971" lon="7.5052720131">
				<ele>701.6</ele>
				<time>2021-04-12T11:46:28+02:00</time>
				<extensions>
					<swisstopo:routepoint_id>700362997</swisstopo:routepoint_id>
				</extensions>
			</trkpt>
			<trkpt lat="47.2711601920" lon="7.5050820126">
				<ele>701.7</ele>
				<time>2021-04-12T11:46:29+02:00</time>
				<extensions>
					<swisstopo:routepoint_id>643021372</swisstopo:routepoint_id>
				</extensions>
			</trkpt>
			<trkpt lat="47.2711446282" lon="7.5048925372">
				<ele>702.0</ele>
				<time>2021-04-12T11:46:30+02:00</time>
				<extensions>
					<swisstopo:routepoint_id>1122487500</swisstopo:routepoint_id>
				</extensions>
			</trkpt>
			<trkpt lat="47.2711285326" lon="7.5047032360">
				<ele>702.3</ele>
				<time>2021-04-12T11:46:31+02:00</time>
				<extensions>
					<swisstopo:routepoint_id>3573605</swisstopo:routepoint_id>
				</extensions>
			</trkpt>
			<trkpt lat="47.2711125036" lon="7.5045129403">
				<ele>702.6</ele>
				<time>2021-04-12T11:46:32+02:00</time>
				<extensions>
					<swisstopo:routepoint_id>2079520766</swisstopo:routepoint_id>
				</extensions>
			</trkpt>
			<trkpt lat="47.2710962066" lon="7.5043216336">
				<ele>702.8</ele>
				<time>2021-04-12T11:46:33+02:00</time>
				<extensions>
					<swisstopo:routepoint_id>209159237</swisstopo:routepoint_id>
				</extensions>
			</trkpt>
			<trkpt lat="47.2710793308" lon="7.5041285094">
				<ele>703.0</ele>
				<time>2021-04-12T11:46:34+02:00</time>
				<extensions>
					<swisstopo:routepoint_id>2056049767</swisstopo:routepoint_id>
				</extensions>
			</trkpt>
			<trkpt lat="47.2710618010" lon="7.5039321710">
				<ele>703.2</ele>
				<time>2021-04-12T11:46:35+02:00</time>
				<extensions>
					<swisstopo:routepoint_id>869070092</swisstopo:routepoint_id>
				</extensions>
			</trkpt>
			<trkpt lat="47.2710438726" lon="7.5037319973">
				<ele>703.4</ele>
				<time>2021-04-12T11:46:36+02:00</time>
				<extensions>
					<swisstopo:routepoint_id>1424752997</swisstopo:routepoint_id>
				</extensions>
			</trkpt>
			<trkpt lat="47.2710256569" lon="7.5035276659">
				<ele>703.6</ele>
				<time>2021-04-12T11:46:37+02:00</time>
				<extensions>
					<swisstopo:routepoint_id>1380956529</swisstopo:routepoint_id>
				</extensions>
			</trkpt>
			<trkpt lat="47.2710072156" lon="7.5033187453">
				<ele>703.8</ele>
				<time>2021-04-12T11:46:38+02:00</time>
				<extensions>
					<swisstopo:routepoint_id>1880609774</swisstopo:routepoint_id>
				</extensions>
			</trkpt>
			<trkpt lat="47.2709884020" lon="7.5031054496">
				<ele>704.1</ele>
				<time>2021-04-12T11:46:39+02:00</time>
				<extensions>
					<swisstopo:routepoint_id>744155072</swisstopo:routepoint_id>
				</extensions>
			</trkpt>
			<trkpt lat="47.2709691582" lon="7.5028881960">
				<ele>704.3</ele>
				<time>2021-04-12T11:46:40+02:00</time>
				<extensions>
					<swisstopo:routepoint_id>69534976</swisstopo:routepoint_id>
				</extensions>
			</trkpt>
			<trkpt lat="47.2709495728" lon="7.5026670108">
				<ele>704.5</ele>
				<time>2021-04-12T11:46:41+02:00</time>
				<extensions>
					<swisstopo:routepoint_id>443237664</swisstopo:routepoint_id>
				</extensions>
			</trkpt>
			<trkpt lat="47.2709297129" lon="7.5024424351">
				<ele>704.8</ele>
				<time>2021-04-12T11:46:42+02:00</time>
				<extensions>
					<swisstopo:routepoint_id>2022131052</swisstopo:routepoint_id>
				</extensions>
			</trkpt>
			<trkpt lat="47.2709095624" lon="7.5022155166">
				<ele>705.1</ele>
				<time>2021-04-12T11:46:43+02:00</time>
				<extensions>
					<swisstopo:routepoint_id>2027877189</swisstopo:routepoint_id>
				</extensions>
			</trkpt>
			<trkpt lat="47.2708891366" lon="7.5019874161">
				<ele>705.4</ele>
				<time>2021-04-12T11:46:44+02:00</time>
				<extensions>
					<swisstopo:routepoint_id>1966437633</swisstopo:routepoint_id>
				</extensions>
			</trkpt>
			<trkpt lat="47.2708684885" lon="7.5017588960">
				<ele>705.7</ele>
				<time>2021-04-12T11:46:45+02:00</time>
				<extensions>
					<swisstopo:routepoint_id>143970501</swisstopo:routepoint_id>
				</extensions>
			</trkpt>
			<trkpt lat="47.2708480393" lon="7.5015308198">
				<ele>706.1</ele>
				<time>2021-04-12T11:46:46+02:00</time>
				<extensions>
					<swisstopo:routepoint_id>1645623785</swisstopo:routepoint_id>
				</extensions>
			</trkpt>
			<trkpt lat="47.2708275724" lon="7.5013040066">
				<ele>706.4</ele>
				<time>2021-04-12T11:46:47+02:00</time>
				<extensions>
					<swisstopo:routepoint_id>557064782</swisstopo:routepoint_id>
				</extensions>
			</trkpt>
			<trkpt lat="47.2708072515" lon="7.5010794004">
				<ele>706.8</ele>
				<time>2021-04-12T11:46:48+02:00</time>
				<extensions>
					<swisstopo:routepoint_id>1706573801</swisstopo:routepoint_id>
				</extensions>
			</trkpt>
			<trkpt lat="47.2707872676" lon="7.5008572033">
				<ele>707.1</ele>
				<time>2021-04-12T11:46:49+02:00</time>
				<extensions>
					<swisstopo:routepoint_id>594284075</swisstopo:routepoint_id>
				</extensions>
			</trkpt>
			<trkpt lat="47.2707675748" lon="7.5006372690">
				<ele>707.5</ele>
				<time>2021-04-12T11:46:50+02:00</time>
				<extensions>
					<swisstopo:routepoint_id>186006328</swisstopo:routepoint_id>
				</extensions>
			</trkpt>
			<trkpt lat="47.2707478870" lon="7.5004193747">
				<ele>707.8</ele>
				<time>2021-04-12T11:46:51+02:00</time>
				<extensions>
					<swisstopo:routepoint_id>1619648311</swisstopo:routepoint_id>
				</extensions>
			</trkpt>
			<trkpt lat="47.2707282107" lon="7.5002033262">
				<ele>708.2</ele>
				<time>2021-04-12T11:46:52+02:00</time>
				<extensions>
					<swisstopo:routepoint_id>2073937252</swisstopo:routepoint_id>
				</extensions>
			</trkpt>
			<trkpt lat="47.2707085925" lon="7.4999888519">
				<ele>708.5</ele>
				<time>2021-04-12T11:46:53+02:00</time>
				<extensions>
					<swisstopo:routepoint_id>856319907</swisstopo:routepoint_id>
				</extensions>
			</trkpt>
			<trkpt lat="47.2706889838" lon="7.4997753054">
				<ele>708.9</ele>
				<time>2021-04-12T11:46:54+02:00</time>
				<extensions>
					<swisstopo:routepoint_id>1880758402</swisstopo:routepoint_id>
				</extensions>
			</trkpt>
			<trkpt lat="47.2706691368" lon="7.4995626143">
				<ele>709.3</ele>
				<time>2021-04-12T11:46:55+02:00</time>
				<extensions>
					<swisstopo:routepoint_id>1094662221</swisstopo:routepoint_id>
				</extensions>
			</trkpt>
			<trkpt lat="47.2706488117" lon="7.4993494044">
				<ele>709.7</ele>
				<time>2021-04-12T11:46:56+02:00</time>
				<extensions>
					<swisstopo:routepoint_id>495544498</swisstopo:routepoint_id>
				</extensions>
			</trkpt>
			<trkpt lat="47.2706274392" lon="7.4991347503">
				<ele>710.1</ele>
				<time>2021-04-12T11:46:57+02:00</time>
				<extensions>
					<swisstopo:routepoint_id>674794820</swisstopo:routepoint_id>
				</extensions>
			</trkpt>
			<trkpt lat="47.2706037770" lon="7.4989181412">
				<ele>710.5</ele>
				<time>2021-04-12T11:46:58+02:00</time>
				<extensions>
					<swisstopo:routepoint_id>415399933</swisstopo:routepoint_id>
				</extensions>
			</trkpt>
			<trkpt lat="47.2705770766" lon="7.4986992587">
				<ele>710.9</ele>
				<time>2021-04-12T11:46:59+02:00</time>
				<extensions>
					<swisstopo:routepoint_id>157337534</swisstopo:routepoint_id>
				</extensions>
			</trkpt>
			<trkpt lat="47.2705469454" lon="7.4984782815">
				<ele>711.3</ele>
				<time>2021-04-12T11:47:00+02:00</time>
				<extensions>
					<swisstopo:routepoint_id>819564481</swisstopo:routepoint_id>
				</extensions>
			</trkpt>
			<trkpt lat="47.2705130275" lon="7.4982556334">
				<ele>711.7</ele>
				<time>2021-04-12T11:47:01+02:00</time>
				<extensions>
					<swisstopo:routepoint_id>460120309</swisstopo:routepoint_id>
				</extensions>
			</trkpt>
			<trkpt lat="47.2704750491" lon="7.4980314844">
				<ele>712.1</ele>
				<time>2021-04-12T11:47:02+02:00</time>
				<extensions>
					<swisstopo:routepoint_id>153420516</swisstopo:routepoint_id>
				</extensions>
			</trkpt>
			<trkpt lat="47.2704334862" lon="7.4978063005">
				<ele>712.5</ele>
				<time>2021-04-12T11:47:03+02:00</time>
				<extensions>
					<swisstopo:routepoint_id>1558236012</swisstopo:routepoint_id>
				</extensions>
			</trkpt>
			<trkpt lat="47.2703892446" lon="7.4975810251">
				<ele>712.9</ele>
				<time>2021-04-12T11:47:04+02:00</time>
				<extensions>
					<swisstopo:routepoint_id>709578519</swisstopo:routepoint_id>
				</extensions>
			</trkpt>
			<trkpt lat="47.2703430608" lon="7.4973563602">
				<ele>713.3</ele>
				<time>2021-04-12T11:47:05+02:00</time>
				<extensions>
					<swisstopo:routepoint_id>909477042</swisstopo:routepoint_id>
				</extensions>
			</trkpt>
			<trkpt lat="47.2702957655" lon="7.4971328765">
				<ele>713.7</ele>
				<time>2021-04-12T11:47:06+02:00</time>
				<extensions>
					<swisstopo:routepoint_id>1939529195</swisstopo:routepoint_id>
				</extensions>
			</trkpt>
			<trkpt lat="47.2702481879" lon="7.4969112164">
				<ele>714.1</ele>
				<time>2021-04-12T11:47:07+02:00</time>
				<extensions>
					<swisstopo:routepoint_id>1012902552</swisstopo:routepoint_id>
				</extensions>
			</trkpt>
			<trkpt lat="47.2702007349" lon="7.4966913659">
				<ele>714.5</ele>
				<time>2021-04-12T11:47:08+02:00</time>
				<extensions>
					<swisstopo:routepoint_id>750321695</swisstopo:routepoint_id>
				</extensions>
			</trkpt>
			<trkpt lat="47.2701534683" lon="7.4964729334">
				<ele>714.9</ele>
				<time>2021-04-12T11:47:09+02:00</time>
				<extensions>
					<swisstopo:routepoint_id>632752681</swisstopo:routepoint_id>
				</extensions>
			</trkpt>
			<trkpt lat="47.2701065984" lon="7.4962556014">
				<ele>715.3</ele>
				<time>2021-04-12T11:47:10+02:00</time>
				<extensions>
					<swisstopo:routepoint_id>335289623</swisstopo:routepoint_id>
				</extensions>
			</trkpt>
			<trkpt lat="47.2700603894" lon="7.4960393913">
				<ele>715.7</ele>
				<time>2021-04-12T11:47:11+02:00</time>
				<extensions>
					<swisstopo:routepoint_id>215604033</swisstopo:routepoint_id>
				</extensions>
			</trkpt>
			<trkpt lat="47.2700145931" lon="7.4958242988">
				<ele>716.1</ele>
				<time>2021-04-12T11:47:12+02:00</time>
				<extensions>
					<swisstopo:routepoint_id>852070142</swisstopo:routepoint_id>
				</extensions>
			</trkpt>
			<trkpt lat="47.2699688259" lon="7.4956092080">
				<ele>716.4</ele>
				<time>2021-04-12T11:47:13+02:00</time>
				<extensions>
					<swisstopo:routepoint_id>1321918398</swisstopo:routepoint_id>
				</extensions>
			</trkpt>
			<trkpt lat="47.2699229714" lon="7.4953930329">
				<ele>716.8</ele>
				<time>2021-04-12T11:47:14+02:00</time>
				<extensions>
					<swisstopo:routepoint_id>1764186971</swisstopo:routepoint_id>
				</extensions>
			</trkpt>
			<trkpt lat="47.2698767857" lon="7.4951753362">
				<ele>717.1</ele>
				<time>2021-04-12T11:47:15+02:00</time>
				<extensions>
					<swisstopo:routepoint_id>383707468</swisstopo:routepoint_id>
				</extensions>
			</trkpt>
			<trkpt lat="47.2698303363" lon="7.4949558108">
				<ele>717.5</ele>
				<time>2021-04-12T11:47:16+02:00</time>
				<extensions>
					<swisstopo:routepoint_id>78022735</swisstopo:routepoint_id>
				</extensions>
			</trkpt>
			<trkpt lat="47.2697836331" lon="7.4947340841">
				<ele>717.9</ele>
				<time>2021-04-12T11:47:17+02:00</time>
				<extensions>
					<swisstopo:routepoint_id>1363082475</swisstopo:routepoint_id>
				</extensions>
			</trkpt>
			<trkpt lat="47.2697367255" lon="7.4945096390">
				<ele>718.2</ele>
				<time>2021-04-12T11:47:18+02:00</time>
				<extensions>
					<swisstopo:routepoint_id>2119094776</swisstopo:routepoint_id>
				</extensions>
			</trkpt>
			<trkpt lat="47.2696896244" lon="7.4942827605">
				<ele>718.6</ele>
				<time>2021-04-12T11:47:19+02:00</time>
				<extensions>
					<swisstopo:routepoint_id>1757098384</swisstopo:routepoint_id>
				</extensions>
			</trkpt>
			<trkpt lat="47.2696421236" lon="7.4940528399">
				<ele>719.1</ele>
				<time>2021-04-12T11:47:20+02:00</time>
				<extensions>
					<swisstopo:routepoint_id>1504909991</swisstopo:routepoint_id>
				</extensions>
			</trkpt>
			<trkpt lat="47.2695944911" lon="7.4938202402">
				<ele>719.5</ele>
				<time>2021-04-12T11:47:21+02:00</time>
				<extensions>
					<swisstopo:routepoint_id>2107308018</swisstopo:routepoint_id>
				</extensions>
			</trkpt>
			<trkpt lat="47.2695466566" lon="7.4935850911">
				<ele>719.9</ele>
				<time>2021-04-12T11:47:22+02:00</time>
				<extensions>
					<swisstopo:routepoint_id>1225552202</swisstopo:routepoint_id>
				</extensions>
			</trkpt>
			<trkpt lat="47.2694983199" lon="7.4933472907">
				<ele>720.4</ele>
				<time>2021-04-12T11:47:23+02:00</time>
				<extensions>
					<swisstopo:routepoint_id>1340200637</swisstopo:routepoint_id>
				</extensions>
			</trkpt>
			<trkpt lat="47.2694495724" lon="7.4931074519">
				<ele>720.8</ele>
				<time>2021-04-12T11:47:24+02:00</time>
				<extensions>
					<swisstopo:routepoint_id>1943616323</swisstopo:routepoint_id>
				</extensions>
			</trkpt>
			<trkpt lat="47.2694005670" lon="7.4928660823">
				<ele>721.3</ele>
				<time>2021-04-12T11:47:25+02:00</time>
				<extensions>
					<swisstopo:routepoint_id>985786144</swisstopo:routepoint_id>
				</extensions>
			</trkpt>
			<trkpt lat="47.2693513636" lon="7.4926238578">
				<ele>721.8</ele>
				<time>2021-04-12T11:47:26+02:00</time>
				<extensions>
					<swisstopo:routepoint_id>271385603</swisstopo:routepoint_id>
				</extensions>
			</trkpt>
			<trkpt lat="47.2693022759" lon="7.4923812143">
				<ele>722.2</ele>
				<time>2021-04-12T11:47:27+02:00</time>
				<extensions>
					<swisstopo:routepoint_id>2070047040</swisstopo:routepoint_id>
				</extensions>
			</trkpt>
			<trkpt lat="47.2692536837" lon="7.4921386630">
				<ele>722.7</ele>
				<time>2021-04-12T11:47:28+02:00</time>
				<extensions>
					<swisstopo:routepoint_id>2045519880</swisstopo:routepoint_id>
				</extensions>
			</trkpt>
			<trkpt lat="47.2692056148" lon="7.4918966419">
				<ele>723.2</ele>
				<time>2021-04-12T11:47:29+02:00</time>
				<extensions>
					<swisstopo:routepoint_id>2134401984</swisstopo:routepoint_id>
				</extensions>
			</trkpt>
			<trkpt lat="47.2691577975" lon="7.4916554869">
				<ele>723.7</ele>
				<time>2021-04-12T11:47:30+02:00</time>
				<extensions>
					<swisstopo:routepoint_id>1327305600</swisstopo:routepoint_id>
				</extensions>
			</trkpt>
			<trkpt lat="47.2691101753" lon="7.4914155761">
				<ele>724.1</ele>
				<time>2021-04-12T11:47:31+02:00</time>
				<extensions>
					<swisstopo:routepoint_id>2112577811</swisstopo:routepoint_id>
				</extensions>
			</trkpt>
			<trkpt lat="47.2690628291" lon="7.4911769361">
				<ele>724.6</ele>
				<time>2021-04-12T11:47:32+02:00</time>
				<extensions>
					<swisstopo:routepoint_id>1748133626</swisstopo:routepoint_id>
				</extensions>
			</trkpt>
			<trkpt lat="47.2690157345" lon="7.4909395980">
				<ele>725.1</ele>
				<time>2021-04-12T11:47:33+02:00</time>
				<extensions>
					<swisstopo:routepoint_id>1158077575</swisstopo:routepoint_id>
				</extensions>
			</trkpt>
			<trkpt lat="47.2689687535" lon="7.4907035061">
				<ele>725.6</ele>
				<time>2021-04-12T11:47:34+02:00</time>
				<extensions>
					<swisstopo:routepoint_id>1165510264</swisstopo:routepoint_id>
				</extensions>
			</trkpt>
			<trkpt lat="47.2689212031" lon="7.4904689661">
				<ele>726.1</ele>
				<time>2021-04-12T11:47:35+02:00</time>
				<extensions>
					<swisstopo:routepoint_id>1532662761</swisstopo:routepoint_id>
				</extensions>
			</trkpt>
			<trkpt lat="47.2688716635" lon="7.4902359692">
				<ele>726.6</ele>
				<time>2021-04-12T11:47:36+02:00</time>
				<extensions>
					<swisstopo:routepoint_id>396678362</swisstopo:routepoint_id>
				</extensions>
			</trkpt>
			<trkpt lat="47.2688181744" lon="7.4900044244">
				<ele>727.2</ele>
				<time>2021-04-12T11:47:37+02:00</time>
				<extensions>
					<swisstopo:routepoint_id>1183989846</swisstopo:routepoint_id>
				</extensions>
			</trkpt>
			<trkpt lat="47.2687598063" lon="7.4897751220">
				<ele>727.7</ele>
				<time>2021-04-12T11:47:38+02:00</time>
				<extensions>
					<swisstopo:routepoint_id>733868620</swisstopo:routepoint_id>
				</extensions>
			</trkpt>
			<trkpt lat="47.2686955753" lon="7.4895483559">
				<ele>728.3</ele>
				<time>2021-04-12T11:47:39+02:00</time>
				<extensions>
					<swisstopo:routepoint_id>1131311619</swisstopo:routepoint_id>
				</extensions>
			</trkpt>
			<trkpt lat="47.2686247479" lon="7.4893250740">
				<ele>728.9</ele>
				<time>2021-04-12T11:47:40+02:00</time>
				<extensions>
					<swisstopo:routepoint_id>134169995</swisstopo:routepoint_id>
				</extensions>
			</trkpt>
			<trkpt lat="47.2685477151" lon="7.4891055246">
				<ele>729.4</ele>
				<time>2021-04-12T11:47:41+02:00</time>
				<extensions>
					<swisstopo:routepoint_id>137276615</swisstopo:routepoint_id>
				</extensions>
			</trkpt>
			<trkpt lat="47.2684656231" lon="7.4888889640">
				<ele>729.9</ele>
				<time>2021-04-12T11:47:42+02:00</time>
				<extensions>
					<swisstopo:routepoint_id>810631427</swisstopo:routepoint_id>
				</extensions>
			</trkpt>
			<trkpt lat="47.2683791631" lon="7.4886741034">
				<ele>730.5</ele>
				<time>2021-04-12T11:47:43+02:00</time>
				<extensions>
					<swisstopo:routepoint_id>646137021</swisstopo:routepoint_id>
				</extensions>
			</trkpt>
			<trkpt lat="47.2682897741" lon="7.4884600136">
				<ele>731.2</ele>
				<time>2021-04-12T11:47:44+02:00</time>
				<extensions>
					<swisstopo:routepoint_id>1947592715</swisstopo:routepoint_id>
				</extensions>
			</trkpt>
			<trkpt lat="47.2681983493" lon="7.4882462907">
				<ele>731.8</ele>
				<time>2021-04-12T11:47:45+02:00</time>
				<extensions>
					<swisstopo:routepoint_id>1245013431</swisstopo:routepoint_id>
				</extensions>
			</trkpt>
			<trkpt lat="47.2681054374" lon="7.4880326850">
				<ele>732.5</ele>
				<time>2021-04-12T11:47:46+02:00</time>
				<extensions>
					<swisstopo:routepoint_id>2007562096</swisstopo:routepoint_id>
				</extensions>
			</trkpt>
			<trkpt lat="47.2680118376" lon="7.4878192343">
				<ele>733.1</ele>
				<time>2021-04-12T11:47:47+02:00</time>
				<extensions>
					<swisstopo:routepoint_id>1980569455</swisstopo:routepoint_id>
				</extensions>
			</trkpt>
			<trkpt lat="47.2679181900" lon="7.4876058042">
				<ele>733.8</ele>
				<time>2021-04-12T11:47:48+02:00</time>
				<extensions>
					<swisstopo:routepoint_id>1434301685</swisstopo:routepoint_id>
				</extensions>
			</trkpt>
			<trkpt lat="47.2678250460" lon="7.4873926064">
				<ele>734.5</ele>
				<time>2021-04-12T11:47:49+02:00</time>
				<extensions>
					<swisstopo:routepoint_id>804482220</swisstopo:routepoint_id>
				</extensions>
			</trkpt>
			<trkpt lat="47.2677325280" lon="7.4871796186">
				<ele>735.2</ele>
				<time>2021-04-12T11:47:50+02:00</time>
				<extensions>
					<swisstopo:routepoint_id>375630028</swisstopo:routepoint_id>
				</extensions>
			</trkpt>
			<trkpt lat="47.2676406435" lon="7.4869664719">
				<ele>735.8</ele>
				<time>2021-04-12T11:47:51+02:00</time>
				<extensions>
					<swisstopo:routepoint_id>1759442063</swisstopo:routepoint_id>
				</extensions>
			</trkpt>
			<trkpt lat="47.2675495242" lon="7.4867535024">
				<ele>736.5</ele>
				<time>2021-04-12T11:47:52+02:00</time>
				<extensions>
					<swisstopo:routepoint_id>92933651</swisstopo:routepoint_id>
				</extensions>
			</trkpt>
			<trkpt lat="47.2674594344" lon="7.4865409007">
				<ele>737.2</ele>
				<time>2021-04-12T11:47:53+02:00</time>
				<extensions>
					<swisstopo:routepoint_id>715260988</swisstopo:routepoint_id>
				</extensions>
			</trkpt>
			<trkpt lat="47.2673703477" lon="7.4863289357">
				<ele>737.9</ele>
				<time>2021-04-12T11:47:54+02:00</time>
				<extensions>
					<swisstopo:routepoint_id>1925453057</swisstopo:routepoint_id>
				</extensions>
			</trkpt>
			<trkpt lat="47.2672823003" lon="7.4861176003">
				<ele>738.6</ele>
				<time>2021-04-12T11:47:55+02:00</time>
				<extensions>
					<swisstopo:routepoint_id>658452356</swisstopo:routepoint_id>
				</extensions>
			</trkpt>
			<trkpt lat="47.2671952452" lon="7.4859065367">
				<ele>739.2</ele>
				<time>2021-04-12T11:47:56+02:00</time>
				<extensions>
					<swisstopo:routepoint_id>625514301</swisstopo:routepoint_id>
				</extensions>
			</trkpt>
			<trkpt lat="47.2671088945" lon="7.4856954552">
				<ele>739.9</ele>
				<time>2021-04-12T11:47:57+02:00</time>
				<extensions>
					<swisstopo:routepoint_id>1086404842</swisstopo:routepoint_id>
				</extensions>
			</trkpt>
			<trkpt lat="47.2670230753" lon="7.4854835704">
				<ele>740.6</ele>
				<time>2021-04-12T11:47:58+02:00</time>
				<extensions>
					<swisstopo:routepoint_id>1300212700</swisstopo:routepoint_id>
				</extensions>
			</trkpt>
			<trkpt lat="47.2669374072" lon="7.4852709952">
				<ele>741.2</ele>
				<time>2021-04-12T11:47:59+02:00</time>
				<extensions>
					<swisstopo:routepoint_id>2028740675</swisstopo:routepoint_id>
				</extensions>
			</trkpt>
			<trkpt lat="47.2668517862" lon="7.4850570633">
				<ele>741.9</ele>
				<time>2021-04-12T11:48:00+02:00</time>
				<extensions>
					<swisstopo:routepoint_id>1446661306</swisstopo:routepoint_id>
				</extensions>
			</trkpt>
			<trkpt lat="47.2667661361" lon="7.4848416576">
				<ele>742.5</ele>
				<time>2021-04-12T11:48:01+02:00</time>
				<extensions>
					<swisstopo:routepoint_id>226718608</swisstopo:routepoint_id>
				</extensions>
			</trkpt>
			<trkpt lat="47.2666801706" lon="7.4846247710">
				<ele>743.2</ele>
				<time>2021-04-12T11:48:02+02:00</time>
				<extensions>
					<swisstopo:routepoint_id>823654878</swisstopo:routepoint_id>
				</extensions>
			</trkpt>
			<trkpt lat="47.2665937017" lon="7.4844064459">
				<ele>743.9</ele>
				<time>2021-04-12T11:48:03+02:00</time>
				<extensions>
					<swisstopo:routepoint_id>487945984</swisstopo:routepoint_id>
				</extensions>
			</trkpt>
			<trkpt lat="47.2665067293" lon="7.4841868724">
				<ele>744.5</ele>
				<time>2021-04-12T11:48:04+02:00</time>
				<extensions>
					<swisstopo:routepoint_id>1815588842</swisstopo:routepoint_id>
				</extensions>
			</trkpt>
			<trkpt lat="47.2664192212" lon="7.4839660836">
				<ele>745.2</ele>
				<time>2021-04-12T11:48:05+02:00</time>
				<extensions>
					<swisstopo:routepoint_id>1006527271</swisstopo:routepoint_id>
				</extensions>
			</trkpt>
			<trkpt lat="47.2663314913" lon="7.4837444503">
				<ele>745.9</ele>
				<time>2021-04-12T11:48:06+02:00</time>
				<extensions>
					<swisstopo:routepoint_id>975156278</swisstopo:routepoint_id>
				</extensions>
			</trkpt>
			<trkpt lat="47.2662435989" lon="7.4835218657">
				<ele>746.5</ele>
				<time>2021-04-12T11:48:07+02:00</time>
				<extensions>
					<swisstopo:routepoint_id>2003854089</swisstopo:routepoint_id>
				</extensions>
			</trkpt>
			<trkpt lat="47.2661563142" lon="7.4832986835">
				<ele>747.2</ele>
				<time>2021-04-12T11:48:08+02:00</time>
				<extensions>
					<swisstopo:routepoint_id>1937121569</swisstopo:routepoint_id>
				</extensions>
			</trkpt>
			<trkpt lat="47.2660706536" lon="7.4830748837">
				<ele>747.9</ele>
				<time>2021-04-12T11:48:09+02:00</time>
				<extensions>
					<swisstopo:routepoint_id>1350121663</swisstopo:routepoint_id>
				</extensions>
			</trkpt>
			<trkpt lat="47.2659877701" lon="7.4828504449">
				<ele>748.6</ele>
				<time>2021-04-12T11:48:10+02:00</time>
				<extensions>
					<swisstopo:routepoint_id>1182575839</swisstopo:routepoint_id>
				</extensions>
			</trkpt>
			<trkpt lat="47.2659086870" lon="7.4826251880">
				<ele>749.2</ele>
				<time>2021-04-12T11:48:11+02:00</time>
				<extensions>
					<swisstopo:routepoint_id>590973088</swisstopo:routepoint_id>
				</extensions>
			</trkpt>
			<trkpt lat="47.2658343620" lon="7.4823986257">
				<ele>749.9</ele>
				<time>2021-04-12T11:48:12+02:00</time>
				<extensions>
					<swisstopo:routepoint_id>372822641</swisstopo:routepoint_id>
				</extensions>
			</trkpt>
			<trkpt lat="47.2657653096" lon="7.4821703428">
				<ele>750.5</ele>
				<time>2021-04-12T11:48:13+02:00</time>
				<extensions>
					<swisstopo:routepoint_id>1820328988</swisstopo:routepoint_id>
				</extensions>
			</trkpt>
			<trkpt lat="47.2657015414" lon="7.4819400044">
				<ele>751.2</ele>
				<time>2021-04-12T11:48:14+02:00</time>
				<extensions>
					<swisstopo:routepoint_id>1217266154</swisstopo:routepoint_id>
				</extensions>
			</trkpt>
			<trkpt lat="47.2656423557" lon="7.4817079615">
				<ele>751.8</ele>
				<time>2021-04-12T11:48:15+02:00</time>
				<extensions>
					<swisstopo:routepoint_id>1663028956</swisstopo:routepoint_id>
				</extensions>
			</trkpt>
			<trkpt lat="47.2655869183" lon="7.4814746100">
				<ele>752.4</ele>
				<time>2021-04-12T11:48:16+02:00</time>
				<extensions>
					<swisstopo:routepoint_id>1027997787</swisstopo:routepoint_id>
				</extensions>
			</trkpt>
			<trkpt lat="47.2655342842" lon="7.4812403999">
				<ele>753.0</ele>
				<time>2021-04-12T11:48:17+02:00</time>
				<extensions>
					<swisstopo:routepoint_id>1052865994</swisstopo:routepoint_id>
				</extensions>
			</trkpt>
			<trkpt lat="47.2654834947" lon="7.4810055630">
				<ele>753.6</ele>
				<time>2021-04-12T11:48:18+02:00</time>
				<extensions>
					<swisstopo:routepoint_id>253509878</swisstopo:routepoint_id>
				</extensions>
			</trkpt>
			<trkpt lat="47.2654336427" lon="7.4807702283">
				<ele>754.2</ele>
				<time>2021-04-12T11:48:19+02:00</time>
				<extensions>
					<swisstopo:routepoint_id>132963898</swisstopo:routepoint_id>
				</extensions>
			</trkpt>
			<trkpt lat="47.2653843320" lon="7.4805342364">
				<ele>754.7</ele>
				<time>2021-04-12T11:48:20+02:00</time>
				<extensions>
					<swisstopo:routepoint_id>1341240806</swisstopo:routepoint_id>
				</extensions>
			</trkpt>
			<trkpt lat="47.2653352158" lon="7.4802978584">
				<ele>755.3</ele>
				<time>2021-04-12T11:48:21+02:00</time>
				<extensions>
					<swisstopo:routepoint_id>98383883</swisstopo:routepoint_id>
				</extensions>
			</trkpt>
			<trkpt lat="47.2652859473" lon="7.4800615507">
				<ele>755.9</ele>
				<time>2021-04-12T11:48:22+02:00</time>
				<extensions>
					<swisstopo:routepoint_id>2122997038</swisstopo:routepoint_id>
				</extensions>
			</trkpt>
			<trkpt lat="47.2652364542" lon="7.4798257718">
				<ele>756.5</ele>
				<time>2021-04-12T11:48:23+02:00</time>
				<extensions>
					<swisstopo:routepoint_id>770422761</swisstopo:routepoint_id>
				</extensions>
			</trkpt>
			<trkpt lat="47.2651867042" lon="7.4795908453">
				<ele>757.1</ele>
				<time>2021-04-12T11:48:24+02:00</time>
				<extensions>
					<swisstopo:routepoint_id>1316436364</swisstopo:routepoint_id>
				</extensions>
			</trkpt>
			<trkpt lat="47.2651368289" lon="7.4793568423">
				<ele>757.7</ele>
				<time>2021-04-12T11:48:25+02:00</time>
				<extensions>
					<swisstopo:routepoint_id>1969438354</swisstopo:routepoint_id>
				</extensions>
			</trkpt>
			<trkpt lat="47.2650869770" lon="7.4791242910">
				<ele>758.3</ele>
				<time>2021-04-12T11:48:26+02:00</time>
				<extensions>
					<swisstopo:routepoint_id>1184964467</swisstopo:routepoint_id>
				</extensions>
			</trkpt>
			<trkpt lat="47.2650371197" lon="7.4788931956">
				<ele>758.9</ele>
				<time>2021-04-12T11:48:27+02:00</time>
				<extensions>
					<swisstopo:routepoint_id>2081938238</swisstopo:routepoint_id>
				</extensions>
			</trkpt>
			<trkpt lat="47.2649869191" lon="7.4786635156">
				<ele>759.5</ele>
				<time>2021-04-12T11:48:28+02:00</time>
				<extensions>
					<swisstopo:routepoint_id>37421848</swisstopo:routepoint_id>
				</extensions>
			</trkpt>
			<trkpt lat="47.2649366338" lon="7.4784355176">
				<ele>760.1</ele>
				<time>2021-04-12T11:48:29+02:00</time>
				<extensions>
					<swisstopo:routepoint_id>1883774412</swisstopo:routepoint_id>
				</extensions>
			</trkpt>
			<trkpt lat="47.2648862688" lon="7.4782103611">
				<ele>760.7</ele>
				<time>2021-04-12T11:48:30+02:00</time>
				<extensions>
					<swisstopo:routepoint_id>245134763</swisstopo:routepoint_id>
				</extensions>
			</trkpt>
			<trkpt lat="47.2648359283" lon="7.4779885207">
				<ele>761.2</ele>
				<time>2021-04-12T11:48:31+02:00</time>
				<extensions>
					<swisstopo:routepoint_id>1106326795</swisstopo:routepoint_id>
				</extensions>
			</trkpt>
			<trkpt lat="47.2647857261" lon="7.4777705179">
				<ele>761.8</ele>
				<time>2021-04-12T11:48:32+02:00</time>
				<extensions>
					<swisstopo:routepoint_id>1121027839</swisstopo:routepoint_id>
				</extensions>
			</trkpt>
			<trkpt lat="47.2647358881" lon="7.4775562899">
				<ele>762.3</ele>
				<time>2021-04-12T11:48:33+02:00</time>
				<extensions>
					<swisstopo:routepoint_id>1240854942</swisstopo:routepoint_id>
				</extensions>
			</trkpt>
			<trkpt lat="47.2646866566" lon="7.4773457026">
				<ele>762.8</ele>
				<time>2021-04-12T11:48:34+02:00</time>
				<extensions>
					<swisstopo:routepoint_id>835314177</swisstopo:routepoint_id>
				</extensions>
			</trkpt>
			<trkpt lat="47.2646380445" lon="7.4771379028">
				<ele>763.3</ele>
				<time>2021-04-12T11:48:35+02:00</time>
				<extensions>
					<swisstopo:routepoint_id>1024772400</swisstopo:routepoint_id>
				</extensions>
			</trkpt>
			<trkpt lat="47.2645898748" lon="7.4769329359">
				<ele>763.9</ele>
				<time>2021-04-12T11:48:36+02:00</time>
				<extensions>
					<swisstopo:routepoint_id>530877860</swisstopo:routepoint_id>
				</extensions>
			</trkpt>
			<trkpt lat="47.2645420348" lon="7.4767303264">
				<ele>764.5</ele>
				<time>2021-04-12T11:48:37+02:00</time>
				<extensions>
					<swisstopo:routepoint_id>1817123382</swisstopo:routepoint_id>
				</extensions>
			</trkpt>
			<trkpt lat="47.2644947478" lon="7.4765289659">
				<ele>765.1</ele>
				<time>2021-04-12T11:48:38+02:00</time>
				<extensions>
					<swisstopo:routepoint_id>1027737287</swisstopo:routepoint_id>
				</extensions>
			</trkpt>
			<trkpt lat="47.2644474604" lon="7.4763287502">
				<ele>765.8</ele>
				<time>2021-04-12T11:48:39+02:00</time>
				<extensions>
					<swisstopo:routepoint_id>969609788</swisstopo:routepoint_id>
				</extensions>
			</trkpt>
			<trkpt lat="47.2644005562" lon="7.4761286518">
				<ele>766.5</ele>
				<time>2021-04-12T11:48:40+02:00</time>
				<extensions>
					<swisstopo:routepoint_id>1125793480</swisstopo:routepoint_id>
				</extensions>
			</trkpt>
			<trkpt lat="47.2643542287" lon="7.4759289496">
				<ele>767.1</ele>
				<time>2021-04-12T11:48:41+02:00</time>
				<extensions>
					<swisstopo:routepoint_id>1880088290</swisstopo:routepoint_id>
				</extensions>
			</trkpt>
			<trkpt lat="47.2643081337" lon="7.4757300948">
				<ele>767.6</ele>
				<time>2021-04-12T11:48:42+02:00</time>
				<extensions>
					<swisstopo:routepoint_id>569508072</swisstopo:routepoint_id>
				</extensions>
			</trkpt>
			<trkpt lat="47.2642625602" lon="7.4755318115">
				<ele>768.1</ele>
				<time>2021-04-12T11:48:43+02:00</time>
				<extensions>
					<swisstopo:routepoint_id>387551425</swisstopo:routepoint_id>
				</extensions>
			</trkpt>
			<trkpt lat="47.2642176846" lon="7.4753340159">
				<ele>768.6</ele>
				<time>2021-04-12T11:48:44+02:00</time>
				<extensions>
					<swisstopo:routepoint_id>258898624</swisstopo:routepoint_id>
				</extensions>
			</trkpt>
			<trkpt lat="47.2641733890" lon="7.4751384768">
				<ele>768.9</ele>
				<time>2021-04-12T11:48:45+02:00</time>
				<extensions>
					<swisstopo:routepoint_id>507304746</swisstopo:routepoint_id>
				</extensions>
			</trkpt>
			<trkpt lat="47.2641297952" lon="7.4749448155">
				<ele>769.0</ele>
				<time>2021-04-12T11:48:46+02:00</time>
				<extensions>
					<swisstopo:routepoint_id>760787432</swisstopo:routepoint_id>
				</extensions>
			</trkpt>
			<trkpt lat="47.2640866007" lon="7.4747526454">
				<ele>769.0</ele>
				<time>2021-04-12T11:48:47+02:00</time>
				<extensions>
					<swisstopo:routepoint_id>436735386</swisstopo:routepoint_id>
				</extensions>
			</trkpt>
			<trkpt lat="47.2640432869" lon="7.4745620149">
				<ele>768.9</ele>
				<time>2021-04-12T11:48:48+02:00</time>
				<extensions>
					<swisstopo:routepoint_id>112527056</swisstopo:routepoint_id>
				</extensions>
			</trkpt>
			<trkpt lat="47.2640001418" lon="7.4743724586">
				<ele>768.6</ele>
				<time>2021-04-12T11:48:49+02:00</time>
				<extensions>
					<swisstopo:routepoint_id>1456620832</swisstopo:routepoint_id>
				</extensions>
			</trkpt>
			<trkpt lat="47.2639573404" lon="7.4741835028">
				<ele>768.2</ele>
				<time>2021-04-12T11:48:50+02:00</time>
				<extensions>
					<swisstopo:routepoint_id>112747624</swisstopo:routepoint_id>
				</extensions>
			</trkpt>
			<trkpt lat="47.2639146178" lon="7.4739947828">
				<ele>767.8</ele>
				<time>2021-04-12T11:48:51+02:00</time>
				<extensions>
					<swisstopo:routepoint_id>868739914</swisstopo:routepoint_id>
				</extensions>
			</trkpt>
			<trkpt lat="47.2638715622" lon="7.4738061401">
				<ele>767.2</ele>
				<time>2021-04-12T11:48:52+02:00</time>
				<extensions>
					<swisstopo:routepoint_id>170418645</swisstopo:routepoint_id>
				</extensions>
			</trkpt>
			<trkpt lat="47.2638279353" lon="7.4736176198">
				<ele>766.6</ele>
				<time>2021-04-12T11:48:53+02:00</time>
				<extensions>
					<swisstopo:routepoint_id>1630465064</swisstopo:routepoint_id>
				</extensions>
			</trkpt>
			<trkpt lat="47.2637841603" lon="7.4734290690">
				<ele>765.9</ele>
				<time>2021-04-12T11:48:54+02:00</time>
				<extensions>
					<swisstopo:routepoint_id>1334994928</swisstopo:routepoint_id>
				</extensions>
			</trkpt>
			<trkpt lat="47.2637402196" lon="7.4732398534">
				<ele>765.1</ele>
				<time>2021-04-12T11:48:55+02:00</time>
				<extensions>
					<swisstopo:routepoint_id>350611040</swisstopo:routepoint_id>
				</extensions>
			</trkpt>
			<trkpt lat="47.2636959319" lon="7.4730499514">
				<ele>764.3</ele>
				<time>2021-04-12T11:48:56+02:00</time>
				<extensions>
					<swisstopo:routepoint_id>24621912</swisstopo:routepoint_id>
				</extensions>
			</trkpt>
			<trkpt lat="47.2636502578" lon="7.4728605683">
				<ele>763.5</ele>
				<time>2021-04-12T11:48:57+02:00</time>
				<extensions>
					<swisstopo:routepoint_id>1503614760</swisstopo:routepoint_id>
				</extensions>
			</trkpt>
			<trkpt lat="47.2636009339" lon="7.4726735381">
				<ele>762.6</ele>
				<time>2021-04-12T11:48:58+02:00</time>
				<extensions>
					<swisstopo:routepoint_id>1813197071</swisstopo:routepoint_id>
				</extensions>
			</trkpt>
			<trkpt lat="47.2635459118" lon="7.4724905607">
				<ele>761.5</ele>
				<time>2021-04-12T11:48:59+02:00</time>
				<extensions>
					<swisstopo:routepoint_id>1610221367</swisstopo:routepoint_id>
				</extensions>
			</trkpt>
			<trkpt lat="47.2634842342" lon="7.4723123618">
				<ele>760.5</ele>
				<time>2021-04-12T11:49:00+02:00</time>
				<extensions>
					<swisstopo:routepoint_id>401595675</swisstopo:routepoint_id>
				</extensions>
			</trkpt>
			<trkpt lat="47.2634162035" lon="7.4721391384">
				<ele>759.4</ele>
				<time>2021-04-12T11:49:01+02:00</time>
				<extensions>
					<swisstopo:routepoint_id>77407204</swisstopo:routepoint_id>
				</extensions>
			</trkpt>
			<trkpt lat="47.2633433770" lon="7.4719700671">
				<ele>758.3</ele>
				<time>2021-04-12T11:49:02+02:00</time>
				<extensions>
					<swisstopo:routepoint_id>1755271193</swisstopo:routepoint_id>
				</extensions>
			</trkpt>
			<trkpt lat="47.2632693234" lon="7.4718026755">
				<ele>757.2</ele>
				<time>2021-04-12T11:49:03+02:00</time>
				<extensions>
					<swisstopo:routepoint_id>860081912</swisstopo:routepoint_id>
				</extensions>
			</trkpt>
			<trkpt lat="47.2631988182" lon="7.4716347332">
				<ele>756.2</ele>
				<time>2021-04-12T11:49:04+02:00</time>
				<extensions>
					<swisstopo:routepoint_id>684267027</swisstopo:routepoint_id>
				</extensions>
			</trkpt>
			<trkpt lat="47.2631352208" lon="7.4714640455">
				<ele>755.2</ele>
				<time>2021-04-12T11:49:05+02:00</time>
				<extensions>
					<swisstopo:routepoint_id>700993104</swisstopo:routepoint_id>
				</extensions>
			</trkpt>
			<trkpt lat="47.2630810212" lon="7.4712893044">
				<ele>754.2</ele>
				<time>2021-04-12T11:49:06+02:00</time>
				<extensions>
					<swisstopo:routepoint_id>495811486</swisstopo:routepoint_id>
				</extensions>
			</trkpt>
			<trkpt lat="47.2630374494" lon="7.4711105413">
				<ele>753.4</ele>
				<time>2021-04-12T11:49:07+02:00</time>
				<extensions>
					<swisstopo:routepoint_id>867094842</swisstopo:routepoint_id>
				</extensions>
			</trkpt>
			<trkpt lat="47.2630042649" lon="7.4709286741">
				<ele>752.6</ele>
				<time>2021-04-12T11:49:08+02:00</time>
				<extensions>
					<swisstopo:routepoint_id>438980952</swisstopo:routepoint_id>
				</extensions>
			</trkpt>
			<trkpt lat="47.2629796313" lon="7.4707452111">
				<ele>751.9</ele>
				<time>2021-04-12T11:49:09+02:00</time>
				<extensions>
					<swisstopo:routepoint_id>1346532819</swisstopo:routepoint_id>
				</extensions>
			</trkpt>
			<trkpt lat="47.2629611036" lon="7.4705615283">
				<ele>751.2</ele>
				<time>2021-04-12T11:49:10+02:00</time>
				<extensions>
					<swisstopo:routepoint_id>994416847</swisstopo:routepoint_id>
				</extensions>
			</trkpt>
			<trkpt lat="47.2629455639" lon="7.4703789340">
				<ele>750.5</ele>
				<time>2021-04-12T11:49:11+02:00</time>
				<extensions>
					<swisstopo:routepoint_id>1446206575</swisstopo:routepoint_id>
				</extensions>
			</trkpt>
			<trkpt lat="47.2629296416" lon="7.4701985191">
				<ele>749.8</ele>
				<time>2021-04-12T11:49:12+02:00</time>
				<extensions>
					<swisstopo:routepoint_id>1173989279</swisstopo:routepoint_id>
				</extensions>
			</trkpt>
			<trkpt lat="47.2629104342" lon="7.4700217067">
				<ele>749.1</ele>
				<time>2021-04-12T11:49:13+02:00</time>
				<extensions>
					<swisstopo:routepoint_id>158063517</swisstopo:routepoint_id>
				</extensions>
			</trkpt>
			<trkpt lat="47.2628843986" lon="7.4698491843">
				<ele>748.4</ele>
				<time>2021-04-12T11:49:14+02:00</time>
				<extensions>
					<swisstopo:routepoint_id>136258880</swisstopo:routepoint_id>
				</extensions>
			</trkpt>
			<trkpt lat="47.2628492611" lon="7.4696831855">
				<ele>747.7</ele>
				<time>2021-04-12T11:49:15+02:00</time>
				<extensions>
					<swisstopo:routepoint_id>885428458</swisstopo:routepoint_id>
				</extensions>
			</trkpt>
			<trkpt lat="47.2628025839" lon="7.4695268672">
				<ele>747.1</ele>
				<time>2021-04-12T11:49:16+02:00</time>
				<extensions>
					<swisstopo:routepoint_id>1481903543</swisstopo:routepoint_id>
				</extensions>
			</trkpt>
			<trkpt lat="47.2627432438" lon="7.4693833436">
				<ele>746.4</ele>
				<time>2021-04-12T11:49:17+02:00</time>
				<extensions>
					<swisstopo:routepoint_id>1984992942</swisstopo:routepoint_id>
				</extensions>
			</trkpt>
			<trkpt lat="47.2626720111" lon="7.4692528202">
				<ele>745.7</ele>
				<time>2021-04-12T11:49:18+02:00</time>
				<extensions>
					<swisstopo:routepoint_id>617920049</swisstopo:routepoint_id>
				</extensions>
			</trkpt>
			<trkpt lat="47.2625908457" lon="7.4691338439">
				<ele>745.1</ele>
				<time>2021-04-12T11:49:19+02:00</time>
				<extensions>
					<swisstopo:routepoint_id>151346651</swisstopo:routepoint_id>
				</extensions>
			</trkpt>
			<trkpt lat="47.2625019294" lon="7.4690249409">
				<ele>744.4</ele>
				<time>2021-04-12T11:49:20+02:00</time>
				<extensions>
					<swisstopo:routepoint_id>1062525309</swisstopo:routepoint_id>
				</extensions>
			</trkpt>
			<trkpt lat="47.2624076617" lon="7.4689245565">
				<ele>743.8</ele>
				<time>2021-04-12T11:49:21+02:00</time>
				<extensions>
					<swisstopo:routepoint_id>1536343558</swisstopo:routepoint_id>
				</extensions>
			</trkpt>
			<trkpt lat="47.2623107909" lon="7.4688316652">
				<ele>743.2</ele>
				<time>2021-04-12T11:49:22+02:00</time>
				<extensions>
					<swisstopo:routepoint_id>2130291425</swisstopo:routepoint_id>
				</extensions>
			</trkpt>
			<trkpt lat="47.2622140891" lon="7.4687456280">
				<ele>742.7</ele>
				<time>2021-04-12T11:49:23+02:00</time>
				<extensions>
					<swisstopo:routepoint_id>960617191</swisstopo:routepoint_id>
				</extensions>
			</trkpt>
			<trkpt lat="47.2621205332" lon="7.4686648386">
				<ele>742.2</ele>
				<time>2021-04-12T11:49:24+02:00</time>
				<extensions>
					<swisstopo:routepoint_id>311070991</swisstopo:routepoint_id>
				</extensions>
			</trkpt>
			<trkpt lat="47.2620336214" lon="7.4685865771">
				<ele>741.7</ele>
				<time>2021-04-12T11:49:25+02:00</time>
				<extensions>
					<swisstopo:routepoint_id>1194948939</swisstopo:routepoint_id>
				</extensions>
			</trkpt>
			<trkpt lat="47.2619574789" lon="7.4685074594">
				<ele>741.3</ele>
				<time>2021-04-12T11:49:26+02:00</time>
				<extensions>
					<swisstopo:routepoint_id>239751029</swisstopo:routepoint_id>
				</extensions>
			</trkpt>
			<trkpt lat="47.2618958713" lon="7.4684250955">
				<ele>740.8</ele>
				<time>2021-04-12T11:49:27+02:00</time>
				<extensions>
					<swisstopo:routepoint_id>816222631</swisstopo:routepoint_id>
				</extensions>
			</trkpt>
			<trkpt lat="47.2618517969" lon="7.4683383814">
				<ele>740.3</ele>
				<time>2021-04-12T11:49:28+02:00</time>
				<extensions>
					<swisstopo:routepoint_id>128222181</swisstopo:routepoint_id>
				</extensions>
			</trkpt>
			<trkpt lat="47.2618271534" lon="7.4682486817">
				<ele>739.9</ele>
				<time>2021-04-12T11:49:29+02:00</time>
				<extensions>
					<swisstopo:routepoint_id>1104098126</swisstopo:routepoint_id>
				</extensions>
			</trkpt>
			<trkpt lat="47.2618235641" lon="7.4681595027">
				<ele>739.4</ele>
				<time>2021-04-12T11:49:30+02:00</time>
				<extensions>
					<swisstopo:routepoint_id>171009955</swisstopo:routepoint_id>
				</extensions>
			</trkpt>
			<trkpt lat="47.2618418995" lon="7.4680781012">
				<ele>738.8</ele>
				<time>2021-04-12T11:49:31+02:00</time>
				<extensions>
					<swisstopo:routepoint_id>831193999</swisstopo:routepoint_id>
				</extensions>
			</trkpt>
			<trkpt lat="47.2618815815" lon="7.4680084524">
				<ele>738.3</ele>
				<time>2021-04-12T11:49:32+02:00</time>
				<extensions>
					<swisstopo:routepoint_id>496417458</swisstopo:routepoint_id>
				</extensions>
			</trkpt>
			<trkpt lat="47.2619400128" lon="7.4679583736">
				<ele>737.6</ele>
				<time>2021-04-12T11:49:33+02:00</time>
				<extensions>
					<swisstopo:routepoint_id>314248011</swisstopo:routepoint_id>
				</extensions>
			</trkpt>
			<trkpt lat="47.2620155683" lon="7.4679311218">
				<ele>736.9</ele>
				<time>2021-04-12T11:49:34+02:00</time>
				<extensions>
					<swisstopo:routepoint_id>904032904</swisstopo:routepoint_id>
				</extensions>
			</trkpt>
			<trkpt lat="47.2621045695" lon="7.4679253182">
				<ele>736.1</ele>
				<time>2021-04-12T11:49:35+02:00</time>
				<extensions>
					<swisstopo:routepoint_id>634215003</swisstopo:routepoint_id>
				</extensions>
			</trkpt>
			<trkpt lat="47.2622031567" lon="7.4679398659">
				<ele>735.4</ele>
				<time>2021-04-12T11:49:36+02:00</time>
				<extensions>
					<swisstopo:routepoint_id>1290215360</swisstopo:routepoint_id>
				</extensions>
			</trkpt>
			<trkpt lat="47.2623083879" lon="7.4679722605">
				<ele>734.6</ele>
				<time>2021-04-12T11:49:37+02:00</time>
				<extensions>
					<swisstopo:routepoint_id>1507171761</swisstopo:routepoint_id>
				</extensions>
			</trkpt>
			<trkpt lat="47.2624190989" lon="7.4680190829">
				<ele>733.8</ele>
				<time>2021-04-12T11:49:38+02:00</time>
				<extensions>
					<swisstopo:routepoint_id>1466170762</swisstopo:routepoint_id>
				</extensions>
			</trkpt>
			<trkpt lat="47.2625341584" lon="7.4680757580">
				<ele>733.0</ele>
				<time>2021-04-12T11:49:39+02:00</time>
				<extensions>
					<swisstopo:routepoint_id>1704631256</swisstopo:routepoint_id>
				</extensions>
			</trkpt>
			<trkpt lat="47.2626521429" lon="7.4681365814">
				<ele>732.3</ele>
				<time>2021-04-12T11:49:40+02:00</time>
				<extensions>
					<swisstopo:routepoint_id>158184965</swisstopo:routepoint_id>
				</extensions>
			</trkpt>
			<trkpt lat="47.2627726821" lon="7.4681927271">
				<ele>731.7</ele>
				<time>2021-04-12T11:49:41+02:00</time>
				<extensions>
					<swisstopo:routepoint_id>29951769</swisstopo:routepoint_id>
				</extensions>
			</trkpt>
			<trkpt lat="47.2628945533" lon="7.4682365496">
				<ele>731.2</ele>
				<time>2021-04-12T11:49:42+02:00</time>
				<extensions>
					<swisstopo:routepoint_id>888208185</swisstopo:routepoint_id>
				</extensions>
			</trkpt>
			<trkpt lat="47.2630154172" lon="7.4682601971">
				<ele>731.0</ele>
				<time>2021-04-12T11:49:43+02:00</time>
				<extensions>
					<swisstopo:routepoint_id>956134998</swisstopo:routepoint_id>
				</extensions>
			</trkpt>
			<trkpt lat="47.2631322021" lon="7.4682586894">
				<ele>730.8</ele>
				<time>2021-04-12T11:49:44+02:00</time>
				<extensions>
					<swisstopo:routepoint_id>140780885</swisstopo:routepoint_id>
				</extensions>
			</trkpt>
			<trkpt lat="47.2632440475" lon="7.4682326511">
				<ele>730.6</ele>
				<time>2021-04-12T11:49:45+02:00</time>
				<extensions>
					<swisstopo:routepoint_id>1724838848</swisstopo:routepoint_id>
				</extensions>
			</trkpt>
			<trkpt lat="47.2633515050" lon="7.4681858751">
				<ele>730.3</ele>
				<time>2021-04-12T11:49:46+02:00</time>
				<extensions>
					<swisstopo:routepoint_id>484767483</swisstopo:routepoint_id>
				</extensions>
			</trkpt>
			<trkpt lat="47.2634557106" lon="7.4681238608">
				<ele>730.0</ele>
				<time>2021-04-12T11:49:47+02:00</time>
				<extensions>
					<swisstopo:routepoint_id>2081613710</swisstopo:routepoint_id>
				</extensions>
			</trkpt>
			<trkpt lat="47.2635575643" lon="7.4680528051">
				<ele>729.8</ele>
				<time>2021-04-12T11:49:48+02:00</time>
				<extensions>
					<swisstopo:routepoint_id>1025530693</swisstopo:routepoint_id>
				</extensions>
			</trkpt>
			<trkpt lat="47.2636571004" lon="7.4679800430">
				<ele>729.5</ele>
				<time>2021-04-12T11:49:49+02:00</time>
				<extensions>
					<swisstopo:routepoint_id>390606429</swisstopo:routepoint_id>
				</extensions>
			</trkpt>
			<trkpt lat="47.2637544161" lon="7.4679126006">
				<ele>729.3</ele>
				<time>2021-04-12T11:49:50+02:00</time>
				<extensions>
					<swisstopo:routepoint_id>64743324</swisstopo:routepoint_id>
				</extensions>
			</trkpt>
			<trkpt lat="47.2638512295" lon="7.4678546818">
				<ele>729.2</ele>
				<time>2021-04-12T11:49:51+02:00</time>
				<extensions>
					<swisstopo:routepoint_id>1514321086</swisstopo:routepoint_id>
				</extensions>
			</trkpt>
			<trkpt lat="47.2639482932" lon="7.4678057146">
				<ele>729.0</ele>
				<time>2021-04-12T11:49:52+02:00</time>
				<extensions>
					<swisstopo:routepoint_id>1365791805</swisstopo:routepoint_id>
				</extensions>
			</trkpt>
			<trkpt lat="47.2640451009" lon="7.4677616038">
				<ele>728.8</ele>
				<time>2021-04-12T11:49:53+02:00</time>
				<extensions>
					<swisstopo:routepoint_id>410163852</swisstopo:routepoint_id>
				</extensions>
			</trkpt>
			<trkpt lat="47.2641405868" lon="7.4677151320">
				<ele>728.6</ele>
				<time>2021-04-12T11:49:54+02:00</time>
				<extensions>
					<swisstopo:routepoint_id>201353694</swisstopo:routepoint_id>
				</extensions>
			</trkpt>
			<trkpt lat="47.2642322074" lon="7.4676583424">
				<ele>728.3</ele>
				<time>2021-04-12T11:49:55+02:00</time>
				<extensions>
					<swisstopo:routepoint_id>1864791033</swisstopo:routepoint_id>
				</extensions>
			</trkpt>
			<trkpt lat="47.2643180672" lon="7.4675867316">
				<ele>728.1</ele>
				<time>2021-04-12T11:49:56+02:00</time>
				<extensions>
					<swisstopo:routepoint_id>1166547313</swisstopo:routepoint_id>
				</extensions>
			</trkpt>
			<trkpt lat="47.2643955751" lon="7.4674976982">
				<ele>727.9</ele>
				<time>2021-04-12T11:49:57+02:00</time>
				<extensions>
					<swisstopo:routepoint_id>1782476128</swisstopo:routepoint_id>
				</extensions>
			</trkpt>
			<trkpt lat="47.2644631739" lon="7.4673901964">
				<ele>727.7</ele>
				<time>2021-04-12T11:49:58+02:00</time>
				<extensions>
					<swisstopo:routepoint_id>679407646</swisstopo:routepoint_id>
				</extensions>
			</trkpt>
			<trkpt lat="47.2645204575" lon="7.4672651427">
				<ele>727.4</ele>
				<time>2021-04-12T11:49:59+02:00</time>
				<extensions>
					<swisstopo:routepoint_id>633755223</swisstopo:routepoint_id>
				</extensions>
			</trkpt>
			<trkpt lat="47.2645686728" lon="7.4671265148">
				<ele>727.1</ele>
				<time>2021-04-12T11:50:00+02:00</time>
				<extensions>
					<swisstopo:routepoint_id>5143841</swisstopo:routepoint_id>
				</extensions>
			</trkpt>
			<trkpt lat="47.2646096478" lon="7.4669778232">
				<ele>726.9</ele>
				<time>2021-04-12T11:50:01+02:00</time>
				<extensions>
					<swisstopo:routepoint_id>553189807</swisstopo:routepoint_id>
				</extensions>
			</trkpt>
			<trkpt lat="47.2646451521" lon="7.4668224957">
				<ele>726.6</ele>
				<time>2021-04-12T11:50:02+02:00</time>
				<extensions>
					<swisstopo:routepoint_id>1004378386</swisstopo:routepoint_id>
				</extensions>
			</trkpt>
			<trkpt lat="47.2646774508" lon="7.4666633411">
				<ele>726.4</ele>
				<time>2021-04-12T11:50:03+02:00</time>
				<extensions>
					<swisstopo:routepoint_id>1366068082</swisstopo:routepoint_id>
				</extensions>
			</trkpt>
			<trkpt lat="47.2647093911" lon="7.4665038637">
				<ele>726.2</ele>
				<time>2021-04-12T11:50:04+02:00</time>
				<extensions>
					<swisstopo:routepoint_id>758584097</swisstopo:routepoint_id>
				</extensions>
			</trkpt>
			<trkpt lat="47.2647438462" lon="7.4663479375">
				<ele>726.0</ele>
				<time>2021-04-12T11:50:05+02:00</time>
				<extensions>
					<swisstopo:routepoint_id>2059989687</swisstopo:routepoint_id>
				</extensions>
			</trkpt>
			<trkpt lat="47.2647838345" lon="7.4661993653">
				<ele>725.8</ele>
				<time>2021-04-12T11:50:06+02:00</time>
				<extensions>
					<swisstopo:routepoint_id>515312475</swisstopo:routepoint_id>
				</extensions>
			</trkpt>
			<trkpt lat="47.2648319213" lon="7.4660600763">
				<ele>725.6</ele>
				<time>2021-04-12T11:50:07+02:00</time>
				<extensions>
					<swisstopo:routepoint_id>55218974</swisstopo:routepoint_id>
				</extensions>
			</trkpt>
			<trkpt lat="47.2648886116" lon="7.4659320377">
				<ele>725.3</ele>
				<time>2021-04-12T11:50:08+02:00</time>
				<extensions>
					<swisstopo:routepoint_id>352360514</swisstopo:routepoint_id>
				</extensions>
			</trkpt>
			<trkpt lat="47.2649543453" lon="7.4658143366">
				<ele>725.0</ele>
				<time>2021-04-12T11:50:09+02:00</time>
				<extensions>
					<swisstopo:routepoint_id>1510744019</swisstopo:routepoint_id>
				</extensions>
			</trkpt>
			<trkpt lat="47.2650283590" lon="7.4657060082">
				<ele>724.7</ele>
				<time>2021-04-12T11:50:10+02:00</time>
				<extensions>
					<swisstopo:routepoint_id>1375568852</swisstopo:routepoint_id>
				</extensions>
			</trkpt>
			<trkpt lat="47.2651096688" lon="7.4656046986">
				<ele>724.3</ele>
				<time>2021-04-12T11:50:11+02:00</time>
				<extensions>
					<swisstopo:routepoint_id>1524235609</swisstopo:routepoint_id>
				</extensions>
			</trkpt>
			<trkpt lat="47.2651971773" lon="7.4655087740">
				<ele>723.9</ele>
				<time>2021-04-12T11:50:12+02:00</time>
				<extensions>
					<swisstopo:routepoint_id>495455400</swisstopo:routepoint_id>
				</extensions>
			</trkpt>
			<trkpt lat="47.2652895082" lon="7.4654168007">
				<ele>723.4</ele>
				<time>2021-04-12T11:50:13+02:00</time>
				<extensions>
					<swisstopo:routepoint_id>1324808381</swisstopo:routepoint_id>
				</extensions>
			</trkpt>
			<trkpt lat="47.2653855427" lon="7.4653265187">
				<ele>723.0</ele>
				<time>2021-04-12T11:50:14+02:00</time>
				<extensions>
					<swisstopo:routepoint_id>944007371</swisstopo:routepoint_id>
				</extensions>
			</trkpt>
			<trkpt lat="47.2654833948" lon="7.4652367328">
				<ele>722.5</ele>
				<time>2021-04-12T11:50:15+02:00</time>
				<extensions>
					<swisstopo:routepoint_id>322700361</swisstopo:routepoint_id>
				</extensions>
			</trkpt>
			<trkpt lat="47.2655809365" lon="7.4651454885">
				<ele>721.9</ele>
				<time>2021-04-12T11:50:16+02:00</time>
				<extensions>
					<swisstopo:routepoint_id>1228758652</swisstopo:routepoint_id>
				</extensions>
			</trkpt>
			<trkpt lat="47.2656769722" lon="7.4650524667">
				<ele>721.4</ele>
				<time>2021-04-12T11:50:17+02:00</time>
				<extensions>
					<swisstopo:routepoint_id>1543914612</swisstopo:routepoint_id>
				</extensions>
			</trkpt>
			<trkpt lat="47.2657710778" lon="7.4649564112">
				<ele>721.0</ele>
				<time>2021-04-12T11:50:18+02:00</time>
				<extensions>
					<swisstopo:routepoint_id>527977183</swisstopo:routepoint_id>
				</extensions>
			</trkpt>
			<trkpt lat="47.2658637252" lon="7.4648591290">
				<ele>720.7</ele>
				<time>2021-04-12T11:50:19+02:00</time>
				<extensions>
					<swisstopo:routepoint_id>310085277</swisstopo:routepoint_id>
				</extensions>
			</trkpt>
			<trkpt lat="47.2659547684" lon="7.4647616555">
				<ele>720.4</ele>
				<time>2021-04-12T11:50:20+02:00</time>
				<extensions>
					<swisstopo:routepoint_id>1807922917</swisstopo:routepoint_id>
				</extensions>
			</trkpt>
			<trkpt lat="47.2660440279" lon="7.4646639279">
				<ele>720.3</ele>
				<time>2021-04-12T11:50:21+02:00</time>
				<extensions>
					<swisstopo:routepoint_id>1014344616</swisstopo:routepoint_id>
				</extensions>
			</trkpt>
			<trkpt lat="47.2661312884" lon="7.4645659106">
				<ele>720.2</ele>
				<time>2021-04-12T11:50:22+02:00</time>
				<extensions>
					<swisstopo:routepoint_id>1364771226</swisstopo:routepoint_id>
				</extensions>
			</trkpt>
			<trkpt lat="47.2662168158" lon="7.4644685777">
				<ele>720.1</ele>
				<time>2021-04-12T11:50:23+02:00</time>
				<extensions>
					<swisstopo:routepoint_id>437161775</swisstopo:routepoint_id>
				</extensions>
			</trkpt>
			<trkpt lat="47.2663006894" lon="7.4643722229">
				<ele>720.0</ele>
				<time>2021-04-12T11:50:24+02:00</time>
				<extensions>
					<swisstopo:routepoint_id>836396038</swisstopo:routepoint_id>
				</extensions>
			</trkpt>
			<trkpt lat="47.2663828860" lon="7.4642772698">
				<ele>720.0</ele>
				<time>2021-04-12T11:50:25+02:00</time>
				<extensions>
					<swisstopo:routepoint_id>2027741051</swisstopo:routepoint_id>
				</extensions>
			</trkpt>
			<trkpt lat="47.2664628842" lon="7.4641842651">
				<ele>720.1</ele>
				<time>2021-04-12T11:50:26+02:00</time>
				<extensions>
					<swisstopo:routepoint_id>1825849914</swisstopo:routepoint_id>
				</extensions>
			</trkpt>
			<trkpt lat="47.2665401266" lon="7.4640932151">
				<ele>720.1</ele>
				<time>2021-04-12T11:50:27+02:00</time>
				<extensions>
					<swisstopo:routepoint_id>1665672615</swisstopo:routepoint_id>
				</extensions>
			</trkpt>
			<trkpt lat="47.2666142846" lon="7.4640042084">
				<ele>720.2</ele>
				<time>2021-04-12T11:50:28+02:00</time>
				<extensions>
					<swisstopo:routepoint_id>362818013</swisstopo:routepoint_id>
				</extensions>
			</trkpt>
			<trkpt lat="47.2666848191" lon="7.4639165389">
				<ele>720.3</ele>
				<time>2021-04-12T11:50:29+02:00</time>
				<extensions>
					<swisstopo:routepoint_id>1176270658</swisstopo:routepoint_id>
				</extensions>
			</trkpt>
			<trkpt lat="47.2667509302" lon="7.4638286935">
				<ele>720.5</ele>
				<time>2021-04-12T11:50:30+02:00</time>
				<extensions>
					<swisstopo:routepoint_id>1993978371</swisstopo:routepoint_id>
				</extensions>
			</trkpt>
			<trkpt lat="47.2668108127" lon="7.4637393183">
				<ele>720.6</ele>
				<time>2021-04-12T11:50:31+02:00</time>
				<extensions>
					<swisstopo:routepoint_id>1312169962</swisstopo:routepoint_id>
				</extensions>
			</trkpt>
			<trkpt lat="47.2668626733" lon="7.4636472236">
				<ele>720.7</ele>
				<time>2021-04-12T11:50:32+02:00</time>
				<extensions>
					<swisstopo:routepoint_id>1130980291</swisstopo:routepoint_id>
				</extensions>
			</trkpt>
			<trkpt lat="47.2669047814" lon="7.4635516818">
				<ele>720.8</ele>
				<time>2021-04-12T11:50:33+02:00</time>
				<extensions>
					<swisstopo:routepoint_id>1007991240</swisstopo:routepoint_id>
				</extensions>
			</trkpt>
			<trkpt lat="47.2669362561" lon="7.4634521884">
				<ele>720.8</ele>
				<time>2021-04-12T11:50:34+02:00</time>
				<extensions>
					<swisstopo:routepoint_id>1957763144</swisstopo:routepoint_id>
				</extensions>
			</trkpt>
			<trkpt lat="47.2669575915" lon="7.4633494689">
				<ele>720.9</ele>
				<time>2021-04-12T11:50:35+02:00</time>
				<extensions>
					<swisstopo:routepoint_id>380721874</swisstopo:routepoint_id>
				</extensions>
			</trkpt>
			<trkpt lat="47.2669715201" lon="7.4632449507">
				<ele>720.9</ele>
				<time>2021-04-12T11:50:36+02:00</time>
				<extensions>
					<swisstopo:routepoint_id>1438751905</swisstopo:routepoint_id>
				</extensions>
			</trkpt>
			<trkpt lat="47.2669811369" lon="7.4631416445">
				<ele>720.7</ele>
				<time>2021-04-12T11:50:37+02:00</time>
				<extensions>
					<swisstopo:routepoint_id>437402115</swisstopo:routepoint_id>
				</extensions>
			</trkpt>
			<trkpt lat="47.2669910470" lon="7.4630395338">
				<ele>720.4</ele>
				<time>2021-04-12T11:50:38+02:00</time>
				<extensions>
					<swisstopo:routepoint_id>580823124</swisstopo:routepoint_id>
				</extensions>
			</trkpt>
			<trkpt lat="47.2670053888" lon="7.4629388074">
				<ele>720.1</ele>
				<time>2021-04-12T11:50:39+02:00</time>
				<extensions>
					<swisstopo:routepoint_id>1581069453</swisstopo:routepoint_id>
				</extensions>
			</trkpt>
			<trkpt lat="47.2670272615" lon="7.4628391316">
				<ele>719.7</ele>
				<time>2021-04-12T11:50:40+02:00</time>
				<extensions>
					<swisstopo:routepoint_id>71648593</swisstopo:routepoint_id>
				</extensions>
			</trkpt>
			<trkpt lat="47.2670580999" lon="7.4627417243">
				<ele>719.2</ele>
				<time>2021-04-12T11:50:41+02:00</time>
				<extensions>
					<swisstopo:routepoint_id>1607060231</swisstopo:routepoint_id>
				</extensions>
			</trkpt>
			<trkpt lat="47.2670989378" lon="7.4626464781">
				<ele>718.6</ele>
				<time>2021-04-12T11:50:42+02:00</time>
				<extensions>
					<swisstopo:routepoint_id>959474098</swisstopo:routepoint_id>
				</extensions>
			</trkpt>
			<trkpt lat="47.2671502637" lon="7.4625533717">
				<ele>717.9</ele>
				<time>2021-04-12T11:50:43+02:00</time>
				<extensions>
					<swisstopo:routepoint_id>426459763</swisstopo:routepoint_id>
				</extensions>
			</trkpt>
			<trkpt lat="47.2672121642" lon="7.4624631458">
				<ele>717.3</ele>
				<time>2021-04-12T11:50:44+02:00</time>
				<extensions>
					<swisstopo:routepoint_id>1356306702</swisstopo:routepoint_id>
				</extensions>
			</trkpt>
			<trkpt lat="47.2672846480" lon="7.4623767561">
				<ele>716.6</ele>
				<time>2021-04-12T11:50:45+02:00</time>
				<extensions>
					<swisstopo:routepoint_id>2055311256</swisstopo:routepoint_id>
				</extensions>
			</trkpt>
			<trkpt lat="47.2673673026" lon="7.4622954409">
				<ele>715.9</ele>
				<time>2021-04-12T11:50:46+02:00</time>
				<extensions>
					<swisstopo:routepoint_id>1341817597</swisstopo:routepoint_id>
				</extensions>
			</trkpt>
			<trkpt lat="47.2674604221" lon="7.4622207492">
				<ele>715.1</ele>
				<time>2021-04-12T11:50:47+02:00</time>
				<extensions>
					<swisstopo:routepoint_id>1202575632</swisstopo:routepoint_id>
				</extensions>
			</trkpt>
			<trkpt lat="47.2675629479" lon="7.4621522995">
				<ele>714.4</ele>
				<time>2021-04-12T11:50:48+02:00</time>
				<extensions>
					<swisstopo:routepoint_id>1720045107</swisstopo:routepoint_id>
				</extensions>
			</trkpt>
			<trkpt lat="47.2676732935" lon="7.4620884095">
				<ele>713.6</ele>
				<time>2021-04-12T11:50:49+02:00</time>
				<extensions>
					<swisstopo:routepoint_id>1520741082</swisstopo:routepoint_id>
				</extensions>
			</trkpt>
			<trkpt lat="47.2677896573" lon="7.4620267930">
				<ele>712.8</ele>
				<time>2021-04-12T11:50:50+02:00</time>
				<extensions>
					<swisstopo:routepoint_id>1892482227</swisstopo:routepoint_id>
				</extensions>
			</trkpt>
			<trkpt lat="47.2679103607" lon="7.4619656979">
				<ele>712.1</ele>
				<time>2021-04-12T11:50:51+02:00</time>
				<extensions>
					<swisstopo:routepoint_id>568493472</swisstopo:routepoint_id>
				</extensions>
			</trkpt>
			<trkpt lat="47.2680345514" lon="7.4619046627">
				<ele>711.4</ele>
				<time>2021-04-12T11:50:52+02:00</time>
				<extensions>
					<swisstopo:routepoint_id>515038401</swisstopo:routepoint_id>
				</extensions>
			</trkpt>
			<trkpt lat="47.2681611191" lon="7.4618430604">
				<ele>710.8</ele>
				<time>2021-04-12T11:50:53+02:00</time>
				<extensions>
					<swisstopo:routepoint_id>1891308197</swisstopo:routepoint_id>
				</extensions>
			</trkpt>
			<trkpt lat="47.2682889928" lon="7.4617802237">
				<ele>710.4</ele>
				<time>2021-04-12T11:50:54+02:00</time>
				<extensions>
					<swisstopo:routepoint_id>163924085</swisstopo:routepoint_id>
				</extensions>
			</trkpt>
			<trkpt lat="47.2684167607" lon="7.4617141099">
				<ele>710.1</ele>
				<time>2021-04-12T11:50:55+02:00</time>
				<extensions>
					<swisstopo:routepoint_id>1998061141</swisstopo:routepoint_id>
				</extensions>
			</trkpt>
			<trkpt lat="47.2685429565" lon="7.4616424843">
				<ele>709.9</ele>
				<time>2021-04-12T11:50:56+02:00</time>
				<extensions>
					<swisstopo:routepoint_id>1211808648</swisstopo:routepoint_id>
				</extensions>
			</trkpt>
			<trkpt lat="47.2686660403" lon="7.4615634923">
				<ele>709.7</ele>
				<time>2021-04-12T11:50:57+02:00</time>
				<extensions>
					<swisstopo:routepoint_id>133038788</swisstopo:routepoint_id>
				</extensions>
			</trkpt>
			<trkpt lat="47.2687841959" lon="7.4614759045">
				<ele>709.5</ele>
				<time>2021-04-12T11:50:58+02:00</time>
				<extensions>
					<swisstopo:routepoint_id>452433389</swisstopo:routepoint_id>
				</extensions>
			</trkpt>
			<trkpt lat="47.2688977754" lon="7.4613794588">
				<ele>709.2</ele>
				<time>2021-04-12T11:50:59+02:00</time>
				<extensions>
					<swisstopo:routepoint_id>1955858543</swisstopo:routepoint_id>
				</extensions>
			</trkpt>
			<trkpt lat="47.2690080506" lon="7.4612756327">
				<ele>708.9</ele>
				<time>2021-04-12T11:51:00+02:00</time>
				<extensions>
					<swisstopo:routepoint_id>582347572</swisstopo:routepoint_id>
				</extensions>
			</trkpt>
			<trkpt lat="47.2691162731" lon="7.4611652593">
				<ele>708.6</ele>
				<time>2021-04-12T11:51:01+02:00</time>
				<extensions>
					<swisstopo:routepoint_id>1432663225</swisstopo:routepoint_id>
				</extensions>
			</trkpt>
			<trkpt lat="47.2692230342" lon="7.4610489020">
				<ele>708.3</ele>
				<time>2021-04-12T11:51:02+02:00</time>
				<extensions>
					<swisstopo:routepoint_id>1184172411</swisstopo:routepoint_id>
				</extensions>
			</trkpt>
			<trkpt lat="47.2693287288" lon="7.4609279334">
				<ele>708.0</ele>
				<time>2021-04-12T11:51:03+02:00</time>
				<extensions>
					<swisstopo:routepoint_id>1654754928</swisstopo:routepoint_id>
				</extensions>
			</trkpt>
			<trkpt lat="47.2694339879" lon="7.4608049196">
				<ele>707.6</ele>
				<time>2021-04-12T11:51:04+02:00</time>
				<extensions>
					<swisstopo:routepoint_id>1552846246</swisstopo:routepoint_id>
				</extensions>
			</trkpt>
			<trkpt lat="47.2695395828" lon="7.4606826697">
				<ele>707.3</ele>
				<time>2021-04-12T11:51:05+02:00</time>
				<extensions>
					<swisstopo:routepoint_id>318094531</swisstopo:routepoint_id>
				</extensions>
			</trkpt>
			<trkpt lat="47.2696458736" lon="7.4605627037">
				<ele>707.0</ele>
				<time>2021-04-12T11:51:06+02:00</time>
				<extensions>
					<swisstopo:routepoint_id>1127985134</swisstopo:routepoint_id>
				</extensions>
			</trkpt>
			<trkpt lat="47.2697530818" lon="7.4604452999">
				<ele>706.7</ele>
				<time>2021-04-12T11:51:07+02:00</time>
				<extensions>
					<swisstopo:routepoint_id>60511422</swisstopo:routepoint_id>
				</extensions>
			</trkpt>
			<trkpt lat="47.2698605552" lon="7.4603292201">
				<ele>706.3</ele>
				<time>2021-04-12T11:51:08+02:00</time>
				<extensions>
					<swisstopo:routepoint_id>1255704523</swisstopo:routepoint_id>
				</extensions>
			</trkpt>
			<trkpt lat="47.2699683656" lon="7.4602129487">
				<ele>705.9</ele>
				<time>2021-04-12T11:51:09+02:00</time>
				<extensions>
					<swisstopo:routepoint_id>1304118992</swisstopo:routepoint_id>
				</extensions>
			</trkpt>
			<trkpt lat="47.2700758620" lon="7.4600943188">
				<ele>705.5</ele>
				<time>2021-04-12T11:51:10+02:00</time>
				<extensions>
					<swisstopo:routepoint_id>1109797262</swisstopo:routepoint_id>
				</extensions>
			</trkpt>
			<trkpt lat="47.2701825697" lon="7.4599722718">
				<ele>705.1</ele>
				<time>2021-04-12T11:51:11+02:00</time>
				<extensions>
					<swisstopo:routepoint_id>1467108239</swisstopo:routepoint_id>
				</extensions>
			</trkpt>
			<trkpt lat="47.2702877459" lon="7.4598458303">
				<ele>704.6</ele>
				<time>2021-04-12T11:51:12+02:00</time>
				<extensions>
					<swisstopo:routepoint_id>280938019</swisstopo:routepoint_id>
				</extensions>
			</trkpt>
			<trkpt lat="47.2703895468" lon="7.4597137623">
				<ele>704.2</ele>
				<time>2021-04-12T11:51:13+02:00</time>
				<extensions>
					<swisstopo:routepoint_id>1556229227</swisstopo:routepoint_id>
				</extensions>
			</trkpt>
			<trkpt lat="47.2704870910" lon="7.4595759110">
				<ele>703.7</ele>
				<time>2021-04-12T11:51:14+02:00</time>
				<extensions>
					<swisstopo:routepoint_id>1341281376</swisstopo:routepoint_id>
				</extensions>
			</trkpt>
			<trkpt lat="47.2705799812" lon="7.4594328446">
				<ele>703.2</ele>
				<time>2021-04-12T11:51:15+02:00</time>
				<extensions>
					<swisstopo:routepoint_id>780243873</swisstopo:routepoint_id>
				</extensions>
			</trkpt>
			<trkpt lat="47.2706675543" lon="7.4592845474">
				<ele>702.7</ele>
				<time>2021-04-12T11:51:16+02:00</time>
				<extensions>
					<swisstopo:routepoint_id>1023624929</swisstopo:routepoint_id>
				</extensions>
			</trkpt>
			<trkpt lat="47.2707510174" lon="7.4591290677">
				<ele>702.3</ele>
				<time>2021-04-12T11:51:17+02:00</time>
				<extensions>
					<swisstopo:routepoint_id>572685586</swisstopo:routepoint_id>
				</extensions>
			</trkpt>
			<trkpt lat="47.2708281783" lon="7.4589703440">
				<ele>701.8</ele>
				<time>2021-04-12T11:51:18+02:00</time>
				<extensions>
					<swisstopo:routepoint_id>104938048</swisstopo:routepoint_id>
				</extensions>
			</trkpt>
			<trkpt lat="47.2709014740" lon="7.4588071959">
				<ele>701.5</ele>
				<time>2021-04-12T11:51:19+02:00</time>
				<extensions>
					<swisstopo:routepoint_id>609698549</swisstopo:routepoint_id>
				</extensions>
			</trkpt>
			<trkpt lat="47.2709719085" lon="7.4586407487">
				<ele>701.1</ele>
				<time>2021-04-12T11:51:20+02:00</time>
				<extensions>
					<swisstopo:routepoint_id>1559033206</swisstopo:routepoint_id>
				</extensions>
			</trkpt>
			<trkpt lat="47.2710401669" lon="7.4584723436">
				<ele>700.8</ele>
				<time>2021-04-12T11:51:21+02:00</time>
				<extensions>
					<swisstopo:routepoint_id>1223116195</swisstopo:routepoint_id>
				</extensions>
			</trkpt>
			<trkpt lat="47.2711067093" lon="7.4583033231">
				<ele>700.5</ele>
				<time>2021-04-12T11:51:22+02:00</time>
				<extensions>
					<swisstopo:routepoint_id>1200420281</swisstopo:routepoint_id>
				</extensions>
			</trkpt>
			<trkpt lat="47.2711724419" lon="7.4581355080">
				<ele>700.2</ele>
				<time>2021-04-12T11:51:23+02:00</time>
				<extensions>
					<swisstopo:routepoint_id>2002282849</swisstopo:routepoint_id>
				</extensions>
			</trkpt>
			<trkpt lat="47.2712393532" lon="7.4579722501">
				<ele>699.9</ele>
				<time>2021-04-12T11:51:24+02:00</time>
				<extensions>
					<swisstopo:routepoint_id>1299094653</swisstopo:routepoint_id>
				</extensions>
			</trkpt>
			<trkpt lat="47.2713094945" lon="7.4578171578">
				<ele>699.5</ele>
				<time>2021-04-12T11:51:25+02:00</time>
				<extensions>
					<swisstopo:routepoint_id>417593922</swisstopo:routepoint_id>
				</extensions>
			</trkpt>
			<trkpt lat="47.2713836533" lon="7.4576725851">
				<ele>699.2</ele>
				<time>2021-04-12T11:51:26+02:00</time>
				<extensions>
					<swisstopo:routepoint_id>524488658</swisstopo:routepoint_id>
				</extensions>
			</trkpt>
			<trkpt lat="47.2714602396" lon="7.4575389571">
				<ele>698.8</ele>
				<time>2021-04-12T11:51:27+02:00</time>
				<extensions>
					<swisstopo:routepoint_id>1807987718</swisstopo:routepoint_id>
				</extensions>
			</trkpt>
			<trkpt lat="47.2715352223" lon="7.4574156803">
				<ele>698.5</ele>
				<time>2021-04-12T11:51:28+02:00</time>
				<extensions>
					<swisstopo:routepoint_id>2103455023</swisstopo:routepoint_id>
				</extensions>
			</trkpt>
			<trkpt lat="47.2716051318" lon="7.4573041016">
				<ele>698.2</ele>
				<time>2021-04-12T11:51:29+02:00</time>
				<extensions>
					<swisstopo:routepoint_id>892774647</swisstopo:routepoint_id>
				</extensions>
			</trkpt>
			<trkpt lat="47.2716673688" lon="7.4572080396">
				<ele>697.9</ele>
				<time>2021-04-12T11:51:30+02:00</time>
				<extensions>
					<swisstopo:routepoint_id>395250540</swisstopo:routepoint_id>
				</extensions>
			</trkpt>
			<trkpt lat="47.2717208493" lon="7.4571302180">
				<ele>697.5</ele>
				<time>2021-04-12T11:51:31+02:00</time>
				<extensions>
					<swisstopo:routepoint_id>808905609</swisstopo:routepoint_id>
				</extensions>
			</trkpt>
			<trkpt lat="47.2717644825" lon="7.4570725681">
				<ele>697.2</ele>
				<time>2021-04-12T11:51:32+02:00</time>
				<extensions>
					<swisstopo:routepoint_id>1705084953</swisstopo:routepoint_id>
				</extensions>
			</trkpt>
			<trkpt lat="47.2717965648" lon="7.4570344581">
				<ele>696.9</ele>
				<time>2021-04-12T11:51:33+02:00</time>
				<extensions>
					<swisstopo:routepoint_id>1341019503</swisstopo:routepoint_id>
				</extensions>
			</trkpt>
			<trkpt lat="47.2718177180" lon="7.4570138240">
				<ele>696.7</ele>
				<time>2021-04-12T11:51:34+02:00</time>
				<extensions>
					<swisstopo:routepoint_id>673911656</swisstopo:routepoint_id>
				</extensions>
			</trkpt>
			<trkpt lat="47.2718296358" lon="7.4570072367">
				<ele>696.6</ele>
				<time>2021-04-12T11:51:35+02:00</time>
				<extensions>
					<swisstopo:routepoint_id>604448114</swisstopo:routepoint_id>
				</extensions>
			</trkpt>
			<trkpt lat="47.2718344175" lon="7.4570112353">
				<ele>696.5</ele>
				<time>2021-04-12T11:51:36+02:00</time>
				<extensions>
					<swisstopo:routepoint_id>1361801688</swisstopo:routepoint_id>
				</extensions>
			</trkpt>
			<trkpt lat="47.2718336171" lon="7.4570229007">
				<ele>696.5</ele>
				<time>2021-04-12T11:51:37+02:00</time>
				<extensions>
					<swisstopo:routepoint_id>2067744137</swisstopo:routepoint_id>
				</extensions>
			</trkpt>
			<trkpt lat="47.2718288079" lon="7.4570397232">
				<ele>696.5</ele>
				<time>2021-04-12T11:51:38+02:00</time>
				<extensions>
					<swisstopo:routepoint_id>1995334805</swisstopo:routepoint_id>
				</extensions>
			</trkpt>
			<trkpt lat="47.2718213283" lon="7.4570596609">
				<ele>696.5</ele>
				<time>2021-04-12T11:51:39+02:00</time>
				<extensions>
					<swisstopo:routepoint_id>487436083</swisstopo:routepoint_id>
				</extensions>
			</trkpt>
			<trkpt lat="47.2718123604" lon="7.4570814046">
				<ele>696.6</ele>
				<time>2021-04-12T11:51:40+02:00</time>
				<extensions>
					<swisstopo:routepoint_id>1835617323</swisstopo:routepoint_id>
				</extensions>
			</trkpt>
			<trkpt lat="47.2718025911" lon="7.4571037523">
				<ele>696.7</ele>
				<time>2021-04-12T11:51:41+02:00</time>
				<extensions>
					<swisstopo:routepoint_id>470274859</swisstopo:routepoint_id>
				</extensions>
			</trkpt>
			<trkpt lat="47.2717927852" lon="7.4571257842">
				<ele>696.8</ele>
				<time>2021-04-12T11:51:42+02:00</time>
				<extensions>
					<swisstopo:routepoint_id>1169734253</swisstopo:routepoint_id>
				</extensions>
			</trkpt>
			<trkpt lat="47.2717833198" lon="7.4571468140">
				<ele>696.8</ele>
				<time>2021-04-12T11:51:43+02:00</time>
				<extensions>
					<swisstopo:routepoint_id>1658285533</swisstopo:routepoint_id>
				</extensions>
			</trkpt>
			<trkpt lat="47.2717743272" lon="7.4571661261">
				<ele>696.9</ele>
				<time>2021-04-12T11:51:44+02:00</time>
				<extensions>
					<swisstopo:routepoint_id>762182365</swisstopo:routepoint_id>
				</extensions>
			</trkpt>
			<trkpt lat="47.2717663023" lon="7.4571835408">
				<ele>697.0</ele>
				<time>2021-04-12T11:51:45+02:00</time>
				<extensions>
					<swisstopo:routepoint_id>259054200</swisstopo:routepoint_id>
				</extensions>
			</trkpt>
			<trkpt lat="47.2717593365" lon="7.4571988791">
				<ele>697.1</ele>
				<time>2021-04-12T11:51:46+02:00</time>
				<extensions>
					<swisstopo:routepoint_id>974586931</swisstopo:routepoint_id>
				</extensions>
			</trkpt>
			<trkpt lat="47.2717534886" lon="7.4572123094">
				<ele>697.2</ele>
				<time>2021-04-12T11:51:47+02:00</time>
				<extensions>
					<swisstopo:routepoint_id>1024773648</swisstopo:routepoint_id>
				</extensions>
			</trkpt>
			<trkpt lat="47.2717486183" lon="7.4572238645">
				<ele>697.2</ele>
				<time>2021-04-12T11:51:48+02:00</time>
				<extensions>
					<swisstopo:routepoint_id>551852996</swisstopo:routepoint_id>
				</extensions>
			</trkpt>
			<trkpt lat="47.2717445297" lon="7.4572334239">
				<ele>697.3</ele>
				<time>2021-04-12T11:51:49+02:00</time>
				<extensions>
					<swisstopo:routepoint_id>11432379</swisstopo:routepoint_id>
				</extensions>
			</trkpt>
			<trkpt lat="47.2717409022" lon="7.4572410405">
				<ele>697.4</ele>
				<time>2021-04-12T11:51:50+02:00</time>
				<extensions>
					<swisstopo:routepoint_id>1017949270</swisstopo:routepoint_id>
				</extensions>
			</trkpt>
			<trkpt lat="47.2717376815" lon="7.4572468384">
				<ele>697.5</ele>
				<time>2021-04-12T11:51:51+02:00</time>
				<extensions>
					<swisstopo:routepoint_id>1818648888</swisstopo:routepoint_id>
				</extensions>
			</trkpt>
			<trkpt lat="47.2717350323" lon="7.4572510158">
				<ele>697.5</ele>
				<time>2021-04-12T11:51:52+02:00</time>
				<extensions>
					<swisstopo:routepoint_id>897112865</swisstopo:routepoint_id>
				</extensions>
			</trkpt>
			<trkpt lat="47.2717328661" lon="7.4572537785">
				<ele>697.6</ele>
				<time>2021-04-12T11:51:53+02:00</time>
				<extensions>
					<swisstopo:routepoint_id>293236468</swisstopo:routepoint_id>
				</extensions>
			</trkpt>
			<trkpt lat="47.2717310877" lon="7.4572555366">
				<ele>697.7</ele>
				<time>2021-04-12T11:51:54+02:00</time>
				<extensions>
					<swisstopo:routepoint_id>2097831458</swisstopo:routepoint_id>
				</extensions>
			</trkpt>
			<trkpt lat="47.2717295743" lon="7.4572565431">
				<ele>697.7</ele>
				<time>2021-04-12T11:51:55+02:00</time>
				<extensions>
					<swisstopo:routepoint_id>866798160</swisstopo:routepoint_id>
				</extensions>
			</trkpt>
			<trkpt lat="47.2717283323" lon="7.4572570149">
				<ele>697.8</ele>
				<time>2021-04-12T11:51:56+02:00</time>
				<extensions>
					<swisstopo:routepoint_id>1895097519</swisstopo:routepoint_id>
				</extensions>
			</trkpt>
			<trkpt lat="47.2717273929" lon="7.4572572281">
				<ele>697.9</ele>
				<time>2021-04-12T11:51:57+02:00</time>
				<extensions>
					<swisstopo:routepoint_id>1574033176</swisstopo:routepoint_id>
				</extensions>
			</trkpt>
			<trkpt lat="47.2717266463" lon="7.4572571228">
				<ele>697.9</ele>
				<time>2021-04-12T11:51:58+02:00</time>
				<extensions>
					<swisstopo:routepoint_id>2072025286</swisstopo:routepoint_id>
				</extensions>
			</trkpt>
			<trkpt lat="47.2717260444" lon="7.4572567827">
				<ele>698.0</ele>
				<time>2021-04-12T11:51:59+02:00</time>
				<extensions>
					<swisstopo:routepoint_id>934162050</swisstopo:routepoint_id>
				</extensions>
			</trkpt>
			<trkpt lat="47.2717255225" lon="7.4572564524">
				<ele>698.1</ele>
				<time>2021-04-12T11:52:00+02:00</time>
				<extensions>
					<swisstopo:routepoint_id>208631133</swisstopo:routepoint_id>
				</extensions>
			</trkpt>
			<trkpt lat="47.2717250575" lon="7.4572562010">
				<ele>698.1</ele>
				<time>2021-04-12T11:52:01+02:00</time>
				<extensions>
					<swisstopo:routepoint_id>1770140427</swisstopo:routepoint_id>
				</extensions>
			</trkpt>
			<trkpt lat="47.2717248138" lon="7.4572560028">
				<ele>698.2</ele>
				<time>2021-04-12T11:52:02+02:00</time>
				<extensions>
					<swisstopo:routepoint_id>1659194698</swisstopo:routepoint_id>
				</extensions>
			</trkpt>
			<trkpt lat="47.2717246260" lon="7.4572559746">
				<ele>698.2</ele>
				<time>2021-04-12T11:52:03+02:00</time>
				<extensions>
					<swisstopo:routepoint_id>1010132991</swisstopo:routepoint_id>
				</extensions>
			</trkpt>
			<trkpt lat="47.2717244899" lon="7.4572560596">
				<ele>698.3</ele>
				<time>2021-04-12T11:52:04+02:00</time>
				<extensions>
					<swisstopo:routepoint_id>1446950202</swisstopo:routepoint_id>
				</extensions>
			</trkpt>
			<trkpt lat="47.2717243507" lon="7.4572561178">
				<ele>698.3</ele>
				<time>2021-04-12T11:52:05+02:00</time>
				<extensions>
					<swisstopo:routepoint_id>787226386</swisstopo:routepoint_id>
				</extensions>
			</trkpt>
			<trkpt lat="47.2717242193" lon="7.4572562070">
				<ele>698.3</ele>
				<time>2021-04-12T11:52:06+02:00</time>
				<extensions>
					<swisstopo:routepoint_id>267120335</swisstopo:routepoint_id>
				</extensions>
			</trkpt>
			<trkpt lat="47.2717239363" lon="7.4572562660">
				<ele>698.3</ele>
				<time>2021-04-12T11:52:07+02:00</time>
				<extensions>
					<swisstopo:routepoint_id>1250648115</swisstopo:routepoint_id>
				</extensions>
			</trkpt>
			<trkpt lat="47.2717236186" lon="7.4572564275">
				<ele>698.3</ele>
				<time>2021-04-12T11:52:08+02:00</time>
				<extensions>
					<swisstopo:routepoint_id>72931969</swisstopo:routepoint_id>
				</extensions>
			</trkpt>
			<trkpt lat="47.2717230785" lon="7.4572565930">
				<ele>698.3</ele>
				<time>2021-04-12T11:52:09+02:00</time>
				<extensions>
					<swisstopo:routepoint_id>1701924193</swisstopo:routepoint_id>
				</extensions>
			</trkpt>
			<trkpt lat="47.2717223662" lon="7.4572565786">
				<ele>698.3</ele>
				<time>2021-04-12T11:52:10+02:00</time>
				<extensions>
					<swisstopo:routepoint_id>1905217358</swisstopo:routepoint_id>
				</extensions>
			</trkpt>
			<trkpt lat="47.2717217825" lon="7.4572566566">
				<ele>698.2</ele>
				<time>2021-04-12T11:52:11+02:00</time>
				<extensions>
					<swisstopo:routepoint_id>2006959136</swisstopo:routepoint_id>
				</extensions>
			</trkpt>
			<trkpt lat="47.2717213472" lon="7.4572568787">
				<ele>698.2</ele>
				<time>2021-04-12T11:52:12+02:00</time>
				<extensions>
					<swisstopo:routepoint_id>436555323</swisstopo:routepoint_id>
				</extensions>
			</trkpt>
			<trkpt lat="47.2717210079" lon="7.4572571178">
				<ele>698.2</ele>
				<time>2021-04-12T11:52:13+02:00</time>
				<extensions>
					<swisstopo:routepoint_id>1381175509</swisstopo:routepoint_id>
				</extensions>
			</trkpt>
			<trkpt lat="47.2717207887" lon="7.4572572548">
				<ele>698.2</ele>
				<time>2021-04-12T11:52:14+02:00</time>
				<extensions>
					<swisstopo:routepoint_id>1266039340</swisstopo:routepoint_id>
				</extensions>
			</trkpt>
			<trkpt lat="47.2717208250" lon="7.4572573602">
				<ele>698.1</ele>
				<time>2021-04-12T11:52:15+02:00</time>
				<extensions>
					<swisstopo:routepoint_id>1055212904</swisstopo:routepoint_id>
				</extensions>
			</trkpt>
			<trkpt lat="47.2717209034" lon="7.4572576167">
				<ele>698.1</ele>
				<time>2021-04-12T11:52:16+02:00</time>
				<extensions>
					<swisstopo:routepoint_id>1043320602</swisstopo:routepoint_id>
				</extensions>
			</trkpt>
			<trkpt lat="47.2717209742" lon="7.4572580644">
				<ele>698.1</ele>
				<time>2021-04-12T11:52:17+02:00</time>
				<extensions>
					<swisstopo:routepoint_id>885380059</swisstopo:routepoint_id>
				</extensions>
			</trkpt>
			<trkpt lat="47.2717210758" lon="7.4572586058">
				<ele>698.1</ele>
				<time>2021-04-12T11:52:18+02:00</time>
				<extensions>
					<swisstopo:routepoint_id>668461550</swisstopo:routepoint_id>
				</extensions>
			</trkpt>
			<trkpt lat="47.2717213018" lon="7.4572591722">
				<ele>698.1</ele>
				<time>2021-04-12T11:52:19+02:00</time>
				<extensions>
					<swisstopo:routepoint_id>1346313393</swisstopo:routepoint_id>
				</extensions>
			</trkpt>
			<trkpt lat="47.2717216235" lon="7.4572597106">
				<ele>698.2</ele>
				<time>2021-04-12T11:52:20+02:00</time>
				<extensions>
					<swisstopo:routepoint_id>1601491359</swisstopo:routepoint_id>
				</extensions>
			</trkpt>
			<trkpt lat="47.2717220519" lon="7.4572602285">
				<ele>698.2</ele>
				<time>2021-04-12T11:52:21+02:00</time>
				<extensions>
					<swisstopo:routepoint_id>1852722862</swisstopo:routepoint_id>
				</extensions>
			</trkpt>
			<trkpt lat="47.2717224762" lon="7.4572607483">
				<ele>698.3</ele>
				<time>2021-04-12T11:52:22+02:00</time>
				<extensions>
					<swisstopo:routepoint_id>200260134</swisstopo:routepoint_id>
				</extensions>
			</trkpt>
			<trkpt lat="47.2717228371" lon="7.4572611986">
				<ele>698.3</ele>
				<time>2021-04-12T11:52:23+02:00</time>
				<extensions>
					<swisstopo:routepoint_id>665197289</swisstopo:routepoint_id>
				</extensions>
			</trkpt>
			<trkpt lat="47.2717231825" lon="7.4572615992">
				<ele>698.4</ele>
				<time>2021-04-12T11:52:24+02:00</time>
				<extensions>
					<swisstopo:routepoint_id>170969941</swisstopo:routepoint_id>
				</extensions>
			</trkpt>
			<trkpt lat="47.2717237696" lon="7.4572619251">
				<ele>698.4</ele>
				<time>2021-04-12T11:52:25+02:00</time>
				<extensions>
					<swisstopo:routepoint_id>158678701</swisstopo:routepoint_id>
				</extensions>
			</trkpt>
			<trkpt lat="47.2717245171" lon="7.4572620221">
				<ele>698.4</ele>
				<time>2021-04-12T11:52:26+02:00</time>
				<extensions>
					<swisstopo:routepoint_id>1885721780</swisstopo:routepoint_id>
				</extensions>
			</trkpt>
			<trkpt lat="47.2717254013" lon="7.4572619141">
				<ele>698.5</ele>
				<time>2021-04-12T11:52:27+02:00</time>
				<extensions>
					<swisstopo:routepoint_id>762294034</swisstopo:routepoint_id>
				</extensions>
			</trkpt>
			<trkpt lat="47.2717262469" lon="7.4572616708">
				<ele>698.5</ele>
				<time>2021-04-12T11:52:28+02:00</time>
				<extensions>
					<swisstopo:routepoint_id>2135875083</swisstopo:routepoint_id>
				</extensions>
			</trkpt>
			<trkpt lat="47.2717270318" lon="7.4572612413">
				<ele>698.5</ele>
				<time>2021-04-12T11:52:29+02:00</time>
				<extensions>
					<swisstopo:routepoint_id>315876729</swisstopo:routepoint_id>
				</extensions>
			</trkpt>
			<trkpt lat="47.2717278107" lon="7.4572605743">
				<ele>698.5</ele>
				<time>2021-04-12T11:52:30+02:00</time>
				<extensions>
					<swisstopo:routepoint_id>360608919</swisstopo:routepoint_id>
				</extensions>
			</trkpt>
			<trkpt lat="47.2717286521" lon="7.4572596525">
				<ele>698.5</ele>
				<time>2021-04-12T11:52:31+02:00</time>
				<extensions>
					<swisstopo:routepoint_id>555249799</swisstopo:routepoint_id>
				</extensions>
			</trkpt>
			<trkpt lat="47.2717295763" lon="7.4572585466">
				<ele>698.5</ele>
				<time>2021-04-12T11:52:32+02:00</time>
				<extensions>
					<swisstopo:routepoint_id>1266925578</swisstopo:routepoint_id>
				</extensions>
			</trkpt>
			<trkpt lat="47.2717305683" lon="7.4572573104">
				<ele>698.5</ele>
				<time>2021-04-12T11:52:33+02:00</time>
				<extensions>
					<swisstopo:routepoint_id>917829441</swisstopo:routepoint_id>
				</extensions>
			</trkpt>
			<trkpt lat="47.2717315800" lon="7.4572560877">
				<ele>698.5</ele>
				<time>2021-04-12T11:52:34+02:00</time>
				<extensions>
					<swisstopo:routepoint_id>584378486</swisstopo:routepoint_id>
				</extensions>
			</trkpt>
			<trkpt lat="47.2717325783" lon="7.4572548422">
				<ele>698.6</ele>
				<time>2021-04-12T11:52:35+02:00</time>
				<extensions>
					<swisstopo:routepoint_id>1206496471</swisstopo:routepoint_id>
				</extensions>
			</trkpt>
			<trkpt lat="47.2717335907" lon="7.4572536748">
				<ele>698.6</ele>
				<time>2021-04-12T11:52:36+02:00</time>
				<extensions>
					<swisstopo:routepoint_id>1045593123</swisstopo:routepoint_id>
				</extensions>
			</trkpt>
			<trkpt lat="47.2717347010" lon="7.4572526874">
				<ele>698.6</ele>
				<time>2021-04-12T11:52:37+02:00</time>
				<extensions>
					<swisstopo:routepoint_id>424934860</swisstopo:routepoint_id>
				</extensions>
			</trkpt>
			<trkpt lat="47.2717357367" lon="7.4572518459">
				<ele>698.6</ele>
				<time>2021-04-12T11:52:38+02:00</time>
				<extensions>
					<swisstopo:routepoint_id>1497065745</swisstopo:routepoint_id>
				</extensions>
			</trkpt>
			<trkpt lat="47.2717365652" lon="7.4572511581">
				<ele>698.7</ele>
				<time>2021-04-12T11:52:39+02:00</time>
				<extensions>
					<swisstopo:routepoint_id>1265567963</swisstopo:routepoint_id>
				</extensions>
			</trkpt>
			<trkpt lat="47.2717371494" lon="7.4572505517">
				<ele>698.7</ele>
				<time>2021-04-12T11:52:40+02:00</time>
				<extensions>
					<swisstopo:routepoint_id>1722714253</swisstopo:routepoint_id>
				</extensions>
			</trkpt>
			<trkpt lat="47.2717374278" lon="7.4572501369">
				<ele>698.7</ele>
				<time>2021-04-12T11:52:41+02:00</time>
				<extensions>
					<swisstopo:routepoint_id>1283921317</swisstopo:routepoint_id>
				</extensions>
			</trkpt>
			<trkpt lat="47.2717374240" lon="7.4572497813">
				<ele>698.8</ele>
				<time>2021-04-12T11:52:42+02:00</time>
				<extensions>
					<swisstopo:routepoint_id>949889763</swisstopo:routepoint_id>
				</extensions>
			</trkpt>
			<trkpt lat="47.2717371308" lon="7.4572494903">
				<ele>698.8</ele>
				<time>2021-04-12T11:52:43+02:00</time>
				<extensions>
					<swisstopo:routepoint_id>403814943</swisstopo:routepoint_id>
				</extensions>
			</trkpt>
			<trkpt lat="47.2717366310" lon="7.4572492182">
				<ele>698.8</ele>
				<time>2021-04-12T11:52:44+02:00</time>
				<extensions>
					<swisstopo:routepoint_id>869422481</swisstopo:routepoint_id>
				</extensions>
			</trkpt>
			<trkpt lat="47.2717361006" lon="7.4572488286">
				<ele>698.8</ele>
				<time>2021-04-12T11:52:45+02:00</time>
				<extensions>
					<swisstopo:routepoint_id>904903979</swisstopo:routepoint_id>
				</extensions>
			</trkpt>
			<trkpt lat="47.2717356481" lon="7.4572484911">
				<ele>698.8</ele>
				<time>2021-04-12T11:52:46+02:00</time>
				<extensions>
					<swisstopo:routepoint_id>241986999</swisstopo:routepoint_id>
				</extensions>
			</trkpt>
			<trkpt lat="47.2717351561" lon="7.4572483406">
				<ele>698.9</ele>
				<time>2021-04-12T11:52:47+02:00</time>
				<extensions>
					<swisstopo:routepoint_id>1888948422</swisstopo:routepoint_id>
				</extensions>
			</trkpt>
			<trkpt lat="47.2717346850" lon="7.4572483876">
				<ele>698.9</ele>
				<time>2021-04-12T11:52:48+02:00</time>
				<extensions>
					<swisstopo:routepoint_id>1305374953</swisstopo:routepoint_id>
				</extensions>
			</trkpt>
			<trkpt lat="47.2717343841" lon="7.4572486102">
				<ele>698.9</ele>
				<time>2021-04-12T11:52:49+02:00</time>
				<extensions>
					<swisstopo:routepoint_id>743897319</swisstopo:routepoint_id>
				</extensions>
			</trkpt>
			<trkpt lat="47.2717342841" lon="7.4572490183">
				<ele>699.0</ele>
				<time>2021-04-12T11:52:50+02:00</time>
				<extensions>
					<swisstopo:routepoint_id>32447599</swisstopo:routepoint_id>
				</extensions>
			</trkpt>
			<trkpt lat="47.2717342851" lon="7.4572495456">
				<ele>699.0</ele>
				<time>2021-04-12T11:52:51+02:00</time>
				<extensions>
					<swisstopo:routepoint_id>2033433702</swisstopo:routepoint_id>
				</extensions>
			</trkpt>
			<trkpt lat="47.2717343294" lon="7.4572502318">
				<ele>699.0</ele>
				<time>2021-04-12T11:52:52+02:00</time>
				<extensions>
					<swisstopo:routepoint_id>865471156</swisstopo:routepoint_id>
				</extensions>
			</trkpt>
			<trkpt lat="47.2717340774" lon="7.4572509192">
				<ele>698.9</ele>
				<time>2021-04-12T11:52:53+02:00</time>
				<extensions>
					<swisstopo:routepoint_id>1066977761</swisstopo:routepoint_id>
				</extensions>
			</trkpt>
			<trkpt lat="47.2717337542" lon="7.4572515274">
				<ele>698.9</ele>
				<time>2021-04-12T11:52:54+02:00</time>
				<extensions>
					<swisstopo:routepoint_id>1206776677</swisstopo:routepoint_id>
				</extensions>
			</trkpt>
			<trkpt lat="47.2717334797" lon="7.4572520545">
				<ele>698.9</ele>
				<time>2021-04-12T11:52:55+02:00</time>
				<extensions>
					<swisstopo:routepoint_id>1460048071</swisstopo:routepoint_id>
				</extensions>
			</trkpt>
			<trkpt lat="47.2717332292" lon="7.4572525514">
				<ele>698.8</ele>
				<time>2021-04-12T11:52:56+02:00</time>
				<extensions>
					<swisstopo:routepoint_id>1879778675</swisstopo:routepoint_id>
				</extensions>
			</trkpt>
			<trkpt lat="47.2717323730" lon="7.4572536710">
				<ele>698.7</ele>
				<time>2021-04-12T11:52:57+02:00</time>
				<extensions>
					<swisstopo:routepoint_id>1808259708</swisstopo:routepoint_id>
				</extensions>
			</trkpt>
			<trkpt lat="47.2717299600" lon="7.4572567173">
				<ele>698.6</ele>
				<time>2021-04-12T11:52:58+02:00</time>
				<extensions>
					<swisstopo:routepoint_id>232340012</swisstopo:routepoint_id>
				</extensions>
			</trkpt>
			<trkpt lat="47.2717252356" lon="7.4572621918">
				<ele>698.6</ele>
				<time>2021-04-12T11:52:59+02:00</time>
				<extensions>
					<swisstopo:routepoint_id>813311438</swisstopo:routepoint_id>
				</extensions>
			</trkpt>
			<trkpt lat="47.2717187686" lon="7.4572680840">
				<ele>698.5</ele>
				<time>2021-04-12T11:53:00+02:00</time>
				<extensions>
					<swisstopo:routepoint_id>591925311</swisstopo:routepoint_id>
				</extensions>
			</trkpt>
			<trkpt lat="47.2717133906" lon="7.4572736002">
				<ele>698.4</ele>
				<time>2021-04-12T11:53:01+02:00</time>
				<extensions>
					<swisstopo:routepoint_id>1344449073</swisstopo:routepoint_id>
				</extensions>
			</trkpt>
			<trkpt lat="47.2717104618" lon="7.4572791676">
				<ele>698.3</ele>
				<time>2021-04-12T11:53:02+02:00</time>
				<extensions>
					<swisstopo:routepoint_id>332636177</swisstopo:routepoint_id>
				</extensions>
			</trkpt>
			<trkpt lat="47.2717122225" lon="7.4572859005">
				<ele>698.2</ele>
				<time>2021-04-12T11:53:03+02:00</time>
				<extensions>
					<swisstopo:routepoint_id>716293698</swisstopo:routepoint_id>
				</extensions>
			</trkpt>
			<trkpt lat="47.2717194866" lon="7.4572926646">
				<ele>698.1</ele>
				<time>2021-04-12T11:53:04+02:00</time>
				<extensions>
					<swisstopo:routepoint_id>2102340851</swisstopo:routepoint_id>
				</extensions>
			</trkpt>
			<trkpt lat="47.2717347855" lon="7.4572948009">
				<ele>698.0</ele>
				<time>2021-04-12T11:53:05+02:00</time>
				<extensions>
					<swisstopo:routepoint_id>1494238666</swisstopo:routepoint_id>
				</extensions>
			</trkpt>
			<trkpt lat="47.2717598681" lon="7.4572867439">
				<ele>697.7</ele>
				<time>2021-04-12T11:53:06+02:00</time>
				<extensions>
					<swisstopo:routepoint_id>995491444</swisstopo:routepoint_id>
				</extensions>
			</trkpt>
			<trkpt lat="47.2717955043" lon="7.4572650764">
				<ele>697.3</ele>
				<time>2021-04-12T11:53:07+02:00</time>
				<extensions>
					<swisstopo:routepoint_id>179605531</swisstopo:routepoint_id>
				</extensions>
			</trkpt>
			<trkpt lat="47.2718422033" lon="7.4572266149">
				<ele>697.0</ele>
				<time>2021-04-12T11:53:08+02:00</time>
				<extensions>
					<swisstopo:routepoint_id>1415635482</swisstopo:routepoint_id>
				</extensions>
			</trkpt>
			<trkpt lat="47.2719009366" lon="7.4571701506">
				<ele>696.6</ele>
				<time>2021-04-12T11:53:09+02:00</time>
				<extensions>
					<swisstopo:routepoint_id>614220861</swisstopo:routepoint_id>
				</extensions>
			</trkpt>
			<trkpt lat="47.2719722706" lon="7.4570954625">
				<ele>696.3</ele>
				<time>2021-04-12T11:53:10+02:00</time>
				<extensions>
					<swisstopo:routepoint_id>256119698</swisstopo:routepoint_id>
				</extensions>
			</trkpt>
			<trkpt lat="47.2720558672" lon="7.4570039598">
				<ele>695.9</ele>
				<time>2021-04-12T11:53:11+02:00</time>
				<extensions>
					<swisstopo:routepoint_id>1046535698</swisstopo:routepoint_id>
				</extensions>
			</trkpt>
			<trkpt lat="47.2721502963" lon="7.4568984932">
				<ele>695.6</ele>
				<time>2021-04-12T11:53:12+02:00</time>
				<extensions>
					<swisstopo:routepoint_id>1234407356</swisstopo:routepoint_id>
				</extensions>
			</trkpt>
			<trkpt lat="47.2722531534" lon="7.4567820732">
				<ele>695.3</ele>
				<time>2021-04-12T11:53:13+02:00</time>
				<extensions>
					<swisstopo:routepoint_id>1992402272</swisstopo:routepoint_id>
				</extensions>
			</trkpt>
			<trkpt lat="47.2723617449" lon="7.4566568450">
				<ele>695.0</ele>
				<time>2021-04-12T11:53:14+02:00</time>
				<extensions>
					<swisstopo:routepoint_id>592477833</swisstopo:routepoint_id>
				</extensions>
			</trkpt>
			<trkpt lat="47.2724743991" lon="7.4565239933">
				<ele>694.7</ele>
				<time>2021-04-12T11:53:15+02:00</time>
				<extensions>
					<swisstopo:routepoint_id>2040751739</swisstopo:routepoint_id>
				</extensions>
			</trkpt>
			<trkpt lat="47.2725885088" lon="7.4563836664">
				<ele>694.5</ele>
				<time>2021-04-12T11:53:16+02:00</time>
				<extensions>
					<swisstopo:routepoint_id>1453151136</swisstopo:routepoint_id>
				</extensions>
			</trkpt>
			<trkpt lat="47.2727019536" lon="7.4562357113">
				<ele>694.2</ele>
				<time>2021-04-12T11:53:17+02:00</time>
				<extensions>
					<swisstopo:routepoint_id>1927109068</swisstopo:routepoint_id>
				</extensions>
			</trkpt>
			<trkpt lat="47.2728133813" lon="7.4560809484">
				<ele>693.9</ele>
				<time>2021-04-12T11:53:18+02:00</time>
				<extensions>
					<swisstopo:routepoint_id>573741822</swisstopo:routepoint_id>
				</extensions>
			</trkpt>
			<trkpt lat="47.2729223355" lon="7.4559212188">
				<ele>693.6</ele>
				<time>2021-04-12T11:53:19+02:00</time>
				<extensions>
					<swisstopo:routepoint_id>677227324</swisstopo:routepoint_id>
				</extensions>
			</trkpt>
			<trkpt lat="47.2730287387" lon="7.4557589343">
				<ele>693.3</ele>
				<time>2021-04-12T11:53:20+02:00</time>
				<extensions>
					<swisstopo:routepoint_id>496305368</swisstopo:routepoint_id>
				</extensions>
			</trkpt>
			<trkpt lat="47.2731322571" lon="7.4555959435">
				<ele>693.0</ele>
				<time>2021-04-12T11:53:21+02:00</time>
				<extensions>
					<swisstopo:routepoint_id>577835028</swisstopo:routepoint_id>
				</extensions>
			</trkpt>
			<trkpt lat="47.2732330815" lon="7.4554337477">
				<ele>692.6</ele>
				<time>2021-04-12T11:53:22+02:00</time>
				<extensions>
					<swisstopo:routepoint_id>752263862</swisstopo:routepoint_id>
				</extensions>
			</trkpt>
			<trkpt lat="47.2733312102" lon="7.4552735711">
				<ele>692.3</ele>
				<time>2021-04-12T11:53:23+02:00</time>
				<extensions>
					<swisstopo:routepoint_id>1062498745</swisstopo:routepoint_id>
				</extensions>
			</trkpt>
			<trkpt lat="47.2734269437" lon="7.4551165333">
				<ele>691.9</ele>
				<time>2021-04-12T11:53:24+02:00</time>
				<extensions>
					<swisstopo:routepoint_id>1089882410</swisstopo:routepoint_id>
				</extensions>
			</trkpt>
			<trkpt lat="47.2735202701" lon="7.4549623923">
				<ele>691.6</ele>
				<time>2021-04-12T11:53:25+02:00</time>
				<extensions>
					<swisstopo:routepoint_id>1765639607</swisstopo:routepoint_id>
				</extensions>
			</trkpt>
			<trkpt lat="47.2736101748" lon="7.4548098569">
				<ele>691.3</ele>
				<time>2021-04-12T11:53:26+02:00</time>
				<extensions>
					<swisstopo:routepoint_id>1175840603</swisstopo:routepoint_id>
				</extensions>
			</trkpt>
			<trkpt lat="47.2736948525" lon="7.4546568640">
				<ele>691.0</ele>
				<time>2021-04-12T11:53:27+02:00</time>
				<extensions>
					<swisstopo:routepoint_id>1208494927</swisstopo:routepoint_id>
				</extensions>
			</trkpt>
			<trkpt lat="47.2737719752" lon="7.4545007038">
				<ele>690.7</ele>
				<time>2021-04-12T11:53:28+02:00</time>
				<extensions>
					<swisstopo:routepoint_id>273904763</swisstopo:routepoint_id>
				</extensions>
			</trkpt>
			<trkpt lat="47.2738395147" lon="7.4543384185">
				<ele>690.5</ele>
				<time>2021-04-12T11:53:29+02:00</time>
				<extensions>
					<swisstopo:routepoint_id>1459896220</swisstopo:routepoint_id>
				</extensions>
			</trkpt>
			<trkpt lat="47.2738965700" lon="7.4541691564">
				<ele>690.3</ele>
				<time>2021-04-12T11:53:30+02:00</time>
				<extensions>
					<swisstopo:routepoint_id>1475102565</swisstopo:routepoint_id>
				</extensions>
			</trkpt>
			<trkpt lat="47.2739442918" lon="7.4539939862">
				<ele>690.1</ele>
				<time>2021-04-12T11:53:31+02:00</time>
				<extensions>
					<swisstopo:routepoint_id>1497588987</swisstopo:routepoint_id>
				</extensions>
			</trkpt>
			<trkpt lat="47.2739846523" lon="7.4538141326">
				<ele>689.9</ele>
				<time>2021-04-12T11:53:32+02:00</time>
				<extensions>
					<swisstopo:routepoint_id>1469761669</swisstopo:routepoint_id>
				</extensions>
			</trkpt>
			<trkpt lat="47.2740193559" lon="7.4536301872">
				<ele>689.7</ele>
				<time>2021-04-12T11:53:33+02:00</time>
				<extensions>
					<swisstopo:routepoint_id>1927463089</swisstopo:routepoint_id>
				</extensions>
			</trkpt>
			<trkpt lat="47.2740498644" lon="7.4534430651">
				<ele>689.5</ele>
				<time>2021-04-12T11:53:34+02:00</time>
				<extensions>
					<swisstopo:routepoint_id>81321828</swisstopo:routepoint_id>
				</extensions>
			</trkpt>
			<trkpt lat="47.2740775727" lon="7.4532539390">
				<ele>689.4</ele>
				<time>2021-04-12T11:53:35+02:00</time>
				<extensions>
					<swisstopo:routepoint_id>976363704</swisstopo:routepoint_id>
				</extensions>
			</trkpt>
			<trkpt lat="47.2741034695" lon="7.4530637768">
				<ele>689.2</ele>
				<time>2021-04-12T11:53:36+02:00</time>
				<extensions>
					<swisstopo:routepoint_id>822226401</swisstopo:routepoint_id>
				</extensions>
			</trkpt>
			<trkpt lat="47.2741284081" lon="7.4528734751">
				<ele>689.0</ele>
				<time>2021-04-12T11:53:37+02:00</time>
				<extensions>
					<swisstopo:routepoint_id>101853162</swisstopo:routepoint_id>
				</extensions>
			</trkpt>
			<trkpt lat="47.2741525647" lon="7.4526834176">
				<ele>688.9</ele>
				<time>2021-04-12T11:53:38+02:00</time>
				<extensions>
					<swisstopo:routepoint_id>301627075</swisstopo:routepoint_id>
				</extensions>
			</trkpt>
			<trkpt lat="47.2741763920" lon="7.4524943054">
				<ele>688.7</ele>
				<time>2021-04-12T11:53:39+02:00</time>
				<extensions>
					<swisstopo:routepoint_id>1384842605</swisstopo:routepoint_id>
				</extensions>
			</trkpt>
			<trkpt lat="47.2742002003" lon="7.4523073408">
				<ele>688.5</ele>
				<time>2021-04-12T11:53:40+02:00</time>
				<extensions>
					<swisstopo:routepoint_id>621896049</swisstopo:routepoint_id>
				</extensions>
			</trkpt>
			<trkpt lat="47.2742244448" lon="7.4521230152">
				<ele>688.3</ele>
				<time>2021-04-12T11:53:41+02:00</time>
				<extensions>
					<swisstopo:routepoint_id>403985594</swisstopo:routepoint_id>
				</extensions>
			</trkpt>
			<trkpt lat="47.2742494109" lon="7.4519415530">
				<ele>688.0</ele>
				<time>2021-04-12T11:53:42+02:00</time>
				<extensions>
					<swisstopo:routepoint_id>1590070191</swisstopo:routepoint_id>
				</extensions>
			</trkpt>
			<trkpt lat="47.2742766239" lon="7.4517638969">
				<ele>687.6</ele>
				<time>2021-04-12T11:53:43+02:00</time>
				<extensions>
					<swisstopo:routepoint_id>1023196869</swisstopo:routepoint_id>
				</extensions>
			</trkpt>
			<trkpt lat="47.2743089233" lon="7.4515914938">
				<ele>687.2</ele>
				<time>2021-04-12T11:53:44+02:00</time>
				<extensions>
					<swisstopo:routepoint_id>1968215754</swisstopo:routepoint_id>
				</extensions>
			</trkpt>
			<trkpt lat="47.2743487396" lon="7.4514253619">
				<ele>686.7</ele>
				<time>2021-04-12T11:53:45+02:00</time>
				<extensions>
					<swisstopo:routepoint_id>2111562737</swisstopo:routepoint_id>
				</extensions>
			</trkpt>
			<trkpt lat="47.2743971165" lon="7.4512647610">
				<ele>686.1</ele>
				<time>2021-04-12T11:53:46+02:00</time>
				<extensions>
					<swisstopo:routepoint_id>1867654084</swisstopo:routepoint_id>
				</extensions>
			</trkpt>
			<trkpt lat="47.2744538066" lon="7.4511083520">
				<ele>685.6</ele>
				<time>2021-04-12T11:53:47+02:00</time>
				<extensions>
					<swisstopo:routepoint_id>2041205236</swisstopo:routepoint_id>
				</extensions>
			</trkpt>
			<trkpt lat="47.2745171496" lon="7.4509547587">
				<ele>684.9</ele>
				<time>2021-04-12T11:53:48+02:00</time>
				<extensions>
					<swisstopo:routepoint_id>485140627</swisstopo:routepoint_id>
				</extensions>
			</trkpt>
			<trkpt lat="47.2745857801" lon="7.4508027651">
				<ele>684.3</ele>
				<time>2021-04-12T11:53:49+02:00</time>
				<extensions>
					<swisstopo:routepoint_id>1910593977</swisstopo:routepoint_id>
				</extensions>
			</trkpt>
			<trkpt lat="47.2746585406" lon="7.4506519290">
				<ele>683.6</ele>
				<time>2021-04-12T11:53:50+02:00</time>
				<extensions>
					<swisstopo:routepoint_id>29997848</swisstopo:routepoint_id>
				</extensions>
			</trkpt>
			<trkpt lat="47.2747344410" lon="7.4505018727">
				<ele>683.0</ele>
				<time>2021-04-12T11:53:51+02:00</time>
				<extensions>
					<swisstopo:routepoint_id>1662657938</swisstopo:routepoint_id>
				</extensions>
			</trkpt>
			<trkpt lat="47.2748118422" lon="7.4503517925">
				<ele>682.3</ele>
				<time>2021-04-12T11:53:52+02:00</time>
				<extensions>
					<swisstopo:routepoint_id>1234749202</swisstopo:routepoint_id>
				</extensions>
			</trkpt>
			<trkpt lat="47.2748888586" lon="7.4502003437">
				<ele>681.6</ele>
				<time>2021-04-12T11:53:53+02:00</time>
				<extensions>
					<swisstopo:routepoint_id>1295357053</swisstopo:routepoint_id>
				</extensions>
			</trkpt>
			<trkpt lat="47.2749644774" lon="7.4500466023">
				<ele>680.9</ele>
				<time>2021-04-12T11:53:54+02:00</time>
				<extensions>
					<swisstopo:routepoint_id>2024260132</swisstopo:routepoint_id>
				</extensions>
			</trkpt>
			<trkpt lat="47.2750381258" lon="7.4498905249">
				<ele>680.2</ele>
				<time>2021-04-12T11:53:55+02:00</time>
				<extensions>
					<swisstopo:routepoint_id>1304102750</swisstopo:routepoint_id>
				</extensions>
			</trkpt>
			<trkpt lat="47.2751094068" lon="7.4497319885">
				<ele>679.4</ele>
				<time>2021-04-12T11:53:56+02:00</time>
				<extensions>
					<swisstopo:routepoint_id>836817968</swisstopo:routepoint_id>
				</extensions>
			</trkpt>
			<trkpt lat="47.2751786734" lon="7.4495710057">
				<ele>678.7</ele>
				<time>2021-04-12T11:53:57+02:00</time>
				<extensions>
					<swisstopo:routepoint_id>529183973</swisstopo:routepoint_id>
				</extensions>
			</trkpt>
			<trkpt lat="47.2752460880" lon="7.4494079593">
				<ele>678.0</ele>
				<time>2021-04-12T11:53:58+02:00</time>
				<extensions>
					<swisstopo:routepoint_id>1265251984</swisstopo:routepoint_id>
				</extensions>
			</trkpt>
			<trkpt lat="47.2753126448" lon="7.4492445889">
				<ele>677.2</ele>
				<time>2021-04-12T11:53:59+02:00</time>
				<extensions>
					<swisstopo:routepoint_id>707022494</swisstopo:routepoint_id>
				</extensions>
			</trkpt>
			<trkpt lat="47.2753814714" lon="7.4490839307">
				<ele>676.4</ele>
				<time>2021-04-12T11:54:00+02:00</time>
				<extensions>
					<swisstopo:routepoint_id>900037807</swisstopo:routepoint_id>
				</extensions>
			</trkpt>
			<trkpt lat="47.2754567184" lon="7.4489324353">
				<ele>675.6</ele>
				<time>2021-04-12T11:54:01+02:00</time>
				<extensions>
					<swisstopo:routepoint_id>60612781</swisstopo:routepoint_id>
				</extensions>
			</trkpt>
			<trkpt lat="47.2755415189" lon="7.4487961483">
				<ele>674.8</ele>
				<time>2021-04-12T11:54:02+02:00</time>
				<extensions>
					<swisstopo:routepoint_id>811761589</swisstopo:routepoint_id>
				</extensions>
			</trkpt>
			<trkpt lat="47.2756364619" lon="7.4486767292">
				<ele>674.0</ele>
				<time>2021-04-12T11:54:03+02:00</time>
				<extensions>
					<swisstopo:routepoint_id>313416932</swisstopo:routepoint_id>
				</extensions>
			</trkpt>
			<trkpt lat="47.2757398154" lon="7.4485710927">
				<ele>673.2</ele>
				<time>2021-04-12T11:54:04+02:00</time>
				<extensions>
					<swisstopo:routepoint_id>1968473680</swisstopo:routepoint_id>
				</extensions>
			</trkpt>
			<trkpt lat="47.2758467932" lon="7.4484698772">
				<ele>672.3</ele>
				<time>2021-04-12T11:54:05+02:00</time>
				<extensions>
					<swisstopo:routepoint_id>4074078</swisstopo:routepoint_id>
				</extensions>
			</trkpt>
			<trkpt lat="47.2759501333" lon="7.4483623722">
				<ele>671.5</ele>
				<time>2021-04-12T11:54:06+02:00</time>
				<extensions>
					<swisstopo:routepoint_id>1901035889</swisstopo:routepoint_id>
				</extensions>
			</trkpt>
			<trkpt lat="47.2760440832" lon="7.4482424897">
				<ele>670.7</ele>
				<time>2021-04-12T11:54:07+02:00</time>
				<extensions>
					<swisstopo:routepoint_id>448486357</swisstopo:routepoint_id>
				</extensions>
			</trkpt>
			<trkpt lat="47.2761278619" lon="7.4481096856">
				<ele>669.9</ele>
				<time>2021-04-12T11:54:08+02:00</time>
				<extensions>
					<swisstopo:routepoint_id>42601129</swisstopo:routepoint_id>
				</extensions>
			</trkpt>
			<trkpt lat="47.2762028896" lon="7.4479664886">
				<ele>669.2</ele>
				<time>2021-04-12T11:54:09+02:00</time>
				<extensions>
					<swisstopo:routepoint_id>885120652</swisstopo:routepoint_id>
				</extensions>
			</trkpt>
			<trkpt lat="47.2762720258" lon="7.4478155189">
				<ele>668.5</ele>
				<time>2021-04-12T11:54:10+02:00</time>
				<extensions>
					<swisstopo:routepoint_id>603575395</swisstopo:routepoint_id>
				</extensions>
			</trkpt>
			<trkpt lat="47.2763403854" lon="7.4476623601">
				<ele>667.7</ele>
				<time>2021-04-12T11:54:11+02:00</time>
				<extensions>
					<swisstopo:routepoint_id>1726398984</swisstopo:routepoint_id>
				</extensions>
			</trkpt>
			<trkpt lat="47.2764138362" lon="7.4475136414">
				<ele>667.1</ele>
				<time>2021-04-12T11:54:12+02:00</time>
				<extensions>
					<swisstopo:routepoint_id>936169471</swisstopo:routepoint_id>
				</extensions>
			</trkpt>
			<trkpt lat="47.2764957102" lon="7.4473756462">
				<ele>666.3</ele>
				<time>2021-04-12T11:54:13+02:00</time>
				<extensions>
					<swisstopo:routepoint_id>1735101175</swisstopo:routepoint_id>
				</extensions>
			</trkpt>
			<trkpt lat="47.2765871289" lon="7.4472544968">
				<ele>665.6</ele>
				<time>2021-04-12T11:54:14+02:00</time>
				<extensions>
					<swisstopo:routepoint_id>1165005612</swisstopo:routepoint_id>
				</extensions>
			</trkpt>
			<trkpt lat="47.2766875286" lon="7.4471526369">
				<ele>664.8</ele>
				<time>2021-04-12T11:54:15+02:00</time>
				<extensions>
					<swisstopo:routepoint_id>1640911185</swisstopo:routepoint_id>
				</extensions>
			</trkpt>
			<trkpt lat="47.2767961695" lon="7.4470677655">
				<ele>663.9</ele>
				<time>2021-04-12T11:54:16+02:00</time>
				<extensions>
					<swisstopo:routepoint_id>809291521</swisstopo:routepoint_id>
				</extensions>
			</trkpt>
			<trkpt lat="47.2769074306" lon="7.4469916647">
				<ele>662.6</ele>
				<time>2021-04-12T11:54:17+02:00</time>
				<extensions>
					<swisstopo:routepoint_id>1748656996</swisstopo:routepoint_id>
				</extensions>
			</trkpt>
			<trkpt lat="47.2770157881" lon="7.4469119490">
				<ele>661.0</ele>
				<time>2021-04-12T11:54:18+02:00</time>
				<extensions>
					<swisstopo:routepoint_id>1364422577</swisstopo:routepoint_id>
				</extensions>
			</trkpt>
			<trkpt lat="47.2771146915" lon="7.4468194591">
				<ele>659.4</ele>
				<time>2021-04-12T11:54:19+02:00</time>
				<extensions>
					<swisstopo:routepoint_id>1019868973</swisstopo:routepoint_id>
				</extensions>
			</trkpt>
			<trkpt lat="47.2771993362" lon="7.4467104650">
				<ele>657.9</ele>
				<time>2021-04-12T11:54:20+02:00</time>
				<extensions>
					<swisstopo:routepoint_id>1870842504</swisstopo:routepoint_id>
				</extensions>
			</trkpt>
			<trkpt lat="47.2772660897" lon="7.4465837930">
				<ele>656.6</ele>
				<time>2021-04-12T11:54:21+02:00</time>
				<extensions>
					<swisstopo:routepoint_id>1941889001</swisstopo:routepoint_id>
				</extensions>
			</trkpt>
			<trkpt lat="47.2773160706" lon="7.4464403570">
				<ele>655.4</ele>
				<time>2021-04-12T11:54:22+02:00</time>
				<extensions>
					<swisstopo:routepoint_id>2019456348</swisstopo:routepoint_id>
				</extensions>
			</trkpt>
			<trkpt lat="47.2773518788" lon="7.4462825854">
				<ele>654.5</ele>
				<time>2021-04-12T11:54:23+02:00</time>
				<extensions>
					<swisstopo:routepoint_id>23800001</swisstopo:routepoint_id>
				</extensions>
			</trkpt>
			<trkpt lat="47.2773764623" lon="7.4461127797">
				<ele>653.8</ele>
				<time>2021-04-12T11:54:24+02:00</time>
				<extensions>
					<swisstopo:routepoint_id>574658465</swisstopo:routepoint_id>
				</extensions>
			</trkpt>
			<trkpt lat="47.2773930858" lon="7.4459342475">
				<ele>653.3</ele>
				<time>2021-04-12T11:54:25+02:00</time>
				<extensions>
					<swisstopo:routepoint_id>1050860696</swisstopo:routepoint_id>
				</extensions>
			</trkpt>
			<trkpt lat="47.2774080073" lon="7.4457511621">
				<ele>652.9</ele>
				<time>2021-04-12T11:54:26+02:00</time>
				<extensions>
					<swisstopo:routepoint_id>910204744</swisstopo:routepoint_id>
				</extensions>
			</trkpt>
			<trkpt lat="47.2774293659" lon="7.4455688291">
				<ele>652.6</ele>
				<time>2021-04-12T11:54:27+02:00</time>
				<extensions>
					<swisstopo:routepoint_id>1285114827</swisstopo:routepoint_id>
				</extensions>
			</trkpt>
			<trkpt lat="47.2774631455" lon="7.4453933882">
				<ele>652.3</ele>
				<time>2021-04-12T11:54:28+02:00</time>
				<extensions>
					<swisstopo:routepoint_id>1681859510</swisstopo:routepoint_id>
				</extensions>
			</trkpt>
			<trkpt lat="47.2775119785" lon="7.4452268216">
				<ele>652.0</ele>
				<time>2021-04-12T11:54:29+02:00</time>
				<extensions>
					<swisstopo:routepoint_id>1833022756</swisstopo:routepoint_id>
				</extensions>
			</trkpt>
			<trkpt lat="47.2775755782" lon="7.4450694144">
				<ele>651.7</ele>
				<time>2021-04-12T11:54:30+02:00</time>
				<extensions>
					<swisstopo:routepoint_id>1960543877</swisstopo:routepoint_id>
				</extensions>
			</trkpt>
			<trkpt lat="47.2776524102" lon="7.4449219889">
				<ele>651.2</ele>
				<time>2021-04-12T11:54:31+02:00</time>
				<extensions>
					<swisstopo:routepoint_id>2019344818</swisstopo:routepoint_id>
				</extensions>
			</trkpt>
			<trkpt lat="47.2777412582" lon="7.4447839644">
				<ele>650.7</ele>
				<time>2021-04-12T11:54:32+02:00</time>
				<extensions>
					<swisstopo:routepoint_id>296798938</swisstopo:routepoint_id>
				</extensions>
			</trkpt>
			<trkpt lat="47.2778402950" lon="7.4446544054">
				<ele>650.0</ele>
				<time>2021-04-12T11:54:33+02:00</time>
				<extensions>
					<swisstopo:routepoint_id>1842722632</swisstopo:routepoint_id>
				</extensions>
			</trkpt>
			<trkpt lat="47.2779480975" lon="7.4445352760">
				<ele>649.3</ele>
				<time>2021-04-12T11:54:34+02:00</time>
				<extensions>
					<swisstopo:routepoint_id>1777602637</swisstopo:routepoint_id>
				</extensions>
			</trkpt>
			<trkpt lat="47.2780645526" lon="7.4444290405">
				<ele>648.4</ele>
				<time>2021-04-12T11:54:35+02:00</time>
				<extensions>
					<swisstopo:routepoint_id>375022995</swisstopo:routepoint_id>
				</extensions>
			</trkpt>
			<trkpt lat="47.2781888636" lon="7.4443382804">
				<ele>647.5</ele>
				<time>2021-04-12T11:54:36+02:00</time>
				<extensions>
					<swisstopo:routepoint_id>146973020</swisstopo:routepoint_id>
				</extensions>
			</trkpt>
			<trkpt lat="47.2783206561" lon="7.4442657932">
				<ele>646.6</ele>
				<time>2021-04-12T11:54:37+02:00</time>
				<extensions>
					<swisstopo:routepoint_id>569353090</swisstopo:routepoint_id>
				</extensions>
			</trkpt>
			<trkpt lat="47.2784585918" lon="7.4442123553">
				<ele>645.7</ele>
				<time>2021-04-12T11:54:38+02:00</time>
				<extensions>
					<swisstopo:routepoint_id>2077736245</swisstopo:routepoint_id>
				</extensions>
			</trkpt>
			<trkpt lat="47.2786012142" lon="7.4441759950">
				<ele>644.7</ele>
				<time>2021-04-12T11:54:39+02:00</time>
				<extensions>
					<swisstopo:routepoint_id>281485848</swisstopo:routepoint_id>
				</extensions>
			</trkpt>
			<trkpt lat="47.2787472005" lon="7.4441532889">
				<ele>643.8</ele>
				<time>2021-04-12T11:54:40+02:00</time>
				<extensions>
					<swisstopo:routepoint_id>26172995</swisstopo:routepoint_id>
				</extensions>
			</trkpt>
			<trkpt lat="47.2788955843" lon="7.4441408620">
				<ele>642.8</ele>
				<time>2021-04-12T11:54:41+02:00</time>
				<extensions>
					<swisstopo:routepoint_id>1802862977</swisstopo:routepoint_id>
				</extensions>
			</trkpt>
			<trkpt lat="47.2790457231" lon="7.4441351223">
				<ele>641.8</ele>
				<time>2021-04-12T11:54:42+02:00</time>
				<extensions>
					<swisstopo:routepoint_id>1871278916</swisstopo:routepoint_id>
				</extensions>
			</trkpt>
			<trkpt lat="47.2791970538" lon="7.4441343095">
				<ele>640.7</ele>
				<time>2021-04-12T11:54:43+02:00</time>
				<extensions>
					<swisstopo:routepoint_id>686730897</swisstopo:routepoint_id>
				</extensions>
			</trkpt>
			<trkpt lat="47.2793489423" lon="7.4441370896">
				<ele>639.5</ele>
				<time>2021-04-12T11:54:44+02:00</time>
				<extensions>
					<swisstopo:routepoint_id>1309066901</swisstopo:routepoint_id>
				</extensions>
			</trkpt>
			<trkpt lat="47.2795002639" lon="7.4441434254">
				<ele>638.4</ele>
				<time>2021-04-12T11:54:45+02:00</time>
				<extensions>
					<swisstopo:routepoint_id>517441592</swisstopo:routepoint_id>
				</extensions>
			</trkpt>
			<trkpt lat="47.2796508604" lon="7.4441535600">
				<ele>637.2</ele>
				<time>2021-04-12T11:54:46+02:00</time>
				<extensions>
					<swisstopo:routepoint_id>1479550041</swisstopo:routepoint_id>
				</extensions>
			</trkpt>
			<trkpt lat="47.2798000550" lon="7.4441683746">
				<ele>636.0</ele>
				<time>2021-04-12T11:54:47+02:00</time>
				<extensions>
					<swisstopo:routepoint_id>1084390474</swisstopo:routepoint_id>
				</extensions>
			</trkpt>
			<trkpt lat="47.2799481930" lon="7.4441890260">
				<ele>634.8</ele>
				<time>2021-04-12T11:54:48+02:00</time>
				<extensions>
					<swisstopo:routepoint_id>1804468076</swisstopo:routepoint_id>
				</extensions>
			</trkpt>
			<trkpt lat="47.2800961353" lon="7.4442164571">
				<ele>633.7</ele>
				<time>2021-04-12T11:54:49+02:00</time>
				<extensions>
					<swisstopo:routepoint_id>930890398</swisstopo:routepoint_id>
				</extensions>
			</trkpt>
			<trkpt lat="47.2802424692" lon="7.4442517299">
				<ele>632.6</ele>
				<time>2021-04-12T11:54:50+02:00</time>
				<extensions>
					<swisstopo:routepoint_id>1056550791</swisstopo:routepoint_id>
				</extensions>
			</trkpt>
			<trkpt lat="47.2803863766" lon="7.4442951731">
				<ele>631.6</ele>
				<time>2021-04-12T11:54:51+02:00</time>
				<extensions>
					<swisstopo:routepoint_id>2054350941</swisstopo:routepoint_id>
				</extensions>
			</trkpt>
			<trkpt lat="47.2805273876" lon="7.4443434646">
				<ele>630.6</ele>
				<time>2021-04-12T11:54:52+02:00</time>
				<extensions>
					<swisstopo:routepoint_id>234188921</swisstopo:routepoint_id>
				</extensions>
			</trkpt>
			<trkpt lat="47.2806664063" lon="7.4443881477">
				<ele>629.8</ele>
				<time>2021-04-12T11:54:53+02:00</time>
				<extensions>
					<swisstopo:routepoint_id>1823153943</swisstopo:routepoint_id>
				</extensions>
			</trkpt>
			<trkpt lat="47.2808039225" lon="7.4444204496">
				<ele>628.9</ele>
				<time>2021-04-12T11:54:54+02:00</time>
				<extensions>
					<swisstopo:routepoint_id>1451644605</swisstopo:routepoint_id>
				</extensions>
			</trkpt>
			<trkpt lat="47.2809398095" lon="7.4444369593">
				<ele>628.1</ele>
				<time>2021-04-12T11:54:55+02:00</time>
				<extensions>
					<swisstopo:routepoint_id>229162668</swisstopo:routepoint_id>
				</extensions>
			</trkpt>
			<trkpt lat="47.2810738478" lon="7.4444359448">
				<ele>627.4</ele>
				<time>2021-04-12T11:54:56+02:00</time>
				<extensions>
					<swisstopo:routepoint_id>1098782005</swisstopo:routepoint_id>
				</extensions>
			</trkpt>
			<trkpt lat="47.2812057979" lon="7.4444180468">
				<ele>626.6</ele>
				<time>2021-04-12T11:54:57+02:00</time>
				<extensions>
					<swisstopo:routepoint_id>1017277482</swisstopo:routepoint_id>
				</extensions>
			</trkpt>
			<trkpt lat="47.2813352714" lon="7.4443837465">
				<ele>625.9</ele>
				<time>2021-04-12T11:54:58+02:00</time>
				<extensions>
					<swisstopo:routepoint_id>1265326207</swisstopo:routepoint_id>
				</extensions>
			</trkpt>
			<trkpt lat="47.2814611854" lon="7.4443325603">
				<ele>625.2</ele>
				<time>2021-04-12T11:54:59+02:00</time>
				<extensions>
					<swisstopo:routepoint_id>1954488455</swisstopo:routepoint_id>
				</extensions>
			</trkpt>
			<trkpt lat="47.2815829637" lon="7.4442646409">
				<ele>624.6</ele>
				<time>2021-04-12T11:55:00+02:00</time>
				<extensions>
					<swisstopo:routepoint_id>1177598673</swisstopo:routepoint_id>
				</extensions>
			</trkpt>
			<trkpt lat="47.2816995380" lon="7.4441803677">
				<ele>623.9</ele>
				<time>2021-04-12T11:55:01+02:00</time>
				<extensions>
					<swisstopo:routepoint_id>691606359</swisstopo:routepoint_id>
				</extensions>
			</trkpt>
			<trkpt lat="47.2818101283" lon="7.4440803750">
				<ele>623.3</ele>
				<time>2021-04-12T11:55:02+02:00</time>
				<extensions>
					<swisstopo:routepoint_id>1646578149</swisstopo:routepoint_id>
				</extensions>
			</trkpt>
			<trkpt lat="47.2819140935" lon="7.4439662863">
				<ele>622.6</ele>
				<time>2021-04-12T11:55:03+02:00</time>
				<extensions>
					<swisstopo:routepoint_id>1564675001</swisstopo:routepoint_id>
				</extensions>
			</trkpt>
			<trkpt lat="47.2820109844" lon="7.4438394773">
				<ele>622.0</ele>
				<time>2021-04-12T11:55:04+02:00</time>
				<extensions>
					<swisstopo:routepoint_id>1555484292</swisstopo:routepoint_id>
				</extensions>
			</trkpt>
			<trkpt lat="47.2821007845" lon="7.4437009724">
				<ele>621.3</ele>
				<time>2021-04-12T11:55:05+02:00</time>
				<extensions>
					<swisstopo:routepoint_id>1706060713</swisstopo:routepoint_id>
				</extensions>
			</trkpt>
			<trkpt lat="47.2821833714" lon="7.4435523986">
				<ele>620.7</ele>
				<time>2021-04-12T11:55:06+02:00</time>
				<extensions>
					<swisstopo:routepoint_id>560748647</swisstopo:routepoint_id>
				</extensions>
			</trkpt>
			<trkpt lat="47.2822590869" lon="7.4433964992">
				<ele>620.1</ele>
				<time>2021-04-12T11:55:07+02:00</time>
				<extensions>
					<swisstopo:routepoint_id>1344267093</swisstopo:routepoint_id>
				</extensions>
			</trkpt>
			<trkpt lat="47.2823285864" lon="7.4432352149">
				<ele>619.4</ele>
				<time>2021-04-12T11:55:08+02:00</time>
				<extensions>
					<swisstopo:routepoint_id>1569065611</swisstopo:routepoint_id>
				</extensions>
			</trkpt>
			<trkpt lat="47.2823923575" lon="7.4430701826">
				<ele>618.8</ele>
				<time>2021-04-12T11:55:09+02:00</time>
				<extensions>
					<swisstopo:routepoint_id>186538917</swisstopo:routepoint_id>
				</extensions>
			</trkpt>
			<trkpt lat="47.2824503126" lon="7.4429021926">
				<ele>618.2</ele>
				<time>2021-04-12T11:55:10+02:00</time>
				<extensions>
					<swisstopo:routepoint_id>1980937046</swisstopo:routepoint_id>
				</extensions>
			</trkpt>
			<trkpt lat="47.2825015126" lon="7.4427318520">
				<ele>617.6</ele>
				<time>2021-04-12T11:55:11+02:00</time>
				<extensions>
					<swisstopo:routepoint_id>1169952681</swisstopo:routepoint_id>
				</extensions>
			</trkpt>
			<trkpt lat="47.2825453832" lon="7.4425604110">
				<ele>617.0</ele>
				<time>2021-04-12T11:55:12+02:00</time>
				<extensions>
					<swisstopo:routepoint_id>1034437635</swisstopo:routepoint_id>
				</extensions>
			</trkpt>
			<trkpt lat="47.2825817428" lon="7.4423894664">
				<ele>616.5</ele>
				<time>2021-04-12T11:55:13+02:00</time>
				<extensions>
					<swisstopo:routepoint_id>1913208980</swisstopo:routepoint_id>
				</extensions>
			</trkpt>
			<trkpt lat="47.2826103414" lon="7.4422209549">
				<ele>616.0</ele>
				<time>2021-04-12T11:55:14+02:00</time>
				<extensions>
					<swisstopo:routepoint_id>1030680329</swisstopo:routepoint_id>
				</extensions>
			</trkpt>
			<trkpt lat="47.2826317375" lon="7.4420568850">
				<ele>615.6</ele>
				<time>2021-04-12T11:55:15+02:00</time>
				<extensions>
					<swisstopo:routepoint_id>1041192801</swisstopo:routepoint_id>
				</extensions>
			</trkpt>
			<trkpt lat="47.2826460444" lon="7.4418967749">
				<ele>615.2</ele>
				<time>2021-04-12T11:55:16+02:00</time>
				<extensions>
					<swisstopo:routepoint_id>1630650651</swisstopo:routepoint_id>
				</extensions>
			</trkpt>
			<trkpt lat="47.2826529007" lon="7.4417397869">
				<ele>614.8</ele>
				<time>2021-04-12T11:55:17+02:00</time>
				<extensions>
					<swisstopo:routepoint_id>159188343</swisstopo:routepoint_id>
				</extensions>
			</trkpt>
			<trkpt lat="47.2826518433" lon="7.4415846122">
				<ele>614.3</ele>
				<time>2021-04-12T11:55:18+02:00</time>
				<extensions>
					<swisstopo:routepoint_id>1861340286</swisstopo:routepoint_id>
				</extensions>
			</trkpt>
			<trkpt lat="47.2826430333" lon="7.4414303924">
				<ele>613.9</ele>
				<time>2021-04-12T11:55:19+02:00</time>
				<extensions>
					<swisstopo:routepoint_id>1151900953</swisstopo:routepoint_id>
				</extensions>
			</trkpt>
			<trkpt lat="47.2826272738" lon="7.4412769121">
				<ele>613.5</ele>
				<time>2021-04-12T11:55:20+02:00</time>
				<extensions>
					<swisstopo:routepoint_id>434239366</swisstopo:routepoint_id>
				</extensions>
			</trkpt>
			<trkpt lat="47.2826060380" lon="7.4411246919">
				<ele>613.1</ele>
				<time>2021-04-12T11:55:21+02:00</time>
				<extensions>
					<swisstopo:routepoint_id>1111591856</swisstopo:routepoint_id>
				</extensions>
			</trkpt>
			<trkpt lat="47.2825809198" lon="7.4409749193">
				<ele>612.8</ele>
				<time>2021-04-12T11:55:22+02:00</time>
				<extensions>
					<swisstopo:routepoint_id>1564078539</swisstopo:routepoint_id>
				</extensions>
			</trkpt>
			<trkpt lat="47.2825532905" lon="7.4408291874">
				<ele>612.5</ele>
				<time>2021-04-12T11:55:23+02:00</time>
				<extensions>
					<swisstopo:routepoint_id>120682046</swisstopo:routepoint_id>
				</extensions>
			</trkpt>
			<trkpt lat="47.2825247060" lon="7.4406900078">
				<ele>612.3</ele>
				<time>2021-04-12T11:55:24+02:00</time>
				<extensions>
					<swisstopo:routepoint_id>1078584354</swisstopo:routepoint_id>
				</extensions>
			</trkpt>
			<trkpt lat="47.2824967529" lon="7.4405608225">
				<ele>612.1</ele>
				<time>2021-04-12T11:55:25+02:00</time>
				<extensions>
					<swisstopo:routepoint_id>857773351</swisstopo:routepoint_id>
				</extensions>
			</trkpt>
			<trkpt lat="47.2824707439" lon="7.4404446033">
				<ele>611.9</ele>
				<time>2021-04-12T11:55:26+02:00</time>
				<extensions>
					<swisstopo:routepoint_id>538987946</swisstopo:routepoint_id>
				</extensions>
			</trkpt>
			<trkpt lat="47.2824474347" lon="7.4403432023">
				<ele>611.8</ele>
				<time>2021-04-12T11:55:27+02:00</time>
				<extensions>
					<swisstopo:routepoint_id>684385376</swisstopo:routepoint_id>
				</extensions>
			</trkpt>
			<trkpt lat="47.2824273148" lon="7.4402572403">
				<ele>611.8</ele>
				<time>2021-04-12T11:55:28+02:00</time>
				<extensions>
					<swisstopo:routepoint_id>542601100</swisstopo:routepoint_id>
				</extensions>
			</trkpt>
			<trkpt lat="47.2824104220" lon="7.4401863307">
				<ele>611.8</ele>
				<time>2021-04-12T11:55:29+02:00</time>
				<extensions>
					<swisstopo:routepoint_id>1281122538</swisstopo:routepoint_id>
				</extensions>
			</trkpt>
			<trkpt lat="47.2823966851" lon="7.4401297619">
				<ele>611.9</ele>
				<time>2021-04-12T11:55:30+02:00</time>
				<extensions>
					<swisstopo:routepoint_id>1155451344</swisstopo:routepoint_id>
				</extensions>
			</trkpt>
			<trkpt lat="47.2823858501" lon="7.4400868190">
				<ele>611.9</ele>
				<time>2021-04-12T11:55:31+02:00</time>
				<extensions>
					<swisstopo:routepoint_id>2123602434</swisstopo:routepoint_id>
				</extensions>
			</trkpt>
			<trkpt lat="47.2823776947" lon="7.4400565733">
				<ele>612.0</ele>
				<time>2021-04-12T11:55:32+02:00</time>
				<extensions>
					<swisstopo:routepoint_id>207895098</swisstopo:routepoint_id>
				</extensions>
			</trkpt>
			<trkpt lat="47.2823719682" lon="7.4400376398">
				<ele>612.1</ele>
				<time>2021-04-12T11:55:33+02:00</time>
				<extensions>
					<swisstopo:routepoint_id>137018417</swisstopo:routepoint_id>
				</extensions>
			</trkpt>
			<trkpt lat="47.2823681613" lon="7.4400287159">
				<ele>612.2</ele>
				<time>2021-04-12T11:55:34+02:00</time>
				<extensions>
					<swisstopo:routepoint_id>766064935</swisstopo:routepoint_id>
				</extensions>
			</trkpt>
			<trkpt lat="47.2823660661" lon="7.4400289721">
				<ele>612.3</ele>
				<time>2021-04-12T11:55:35+02:00</time>
				<extensions>
					<swisstopo:routepoint_id>1088898780</swisstopo:routepoint_id>
				</extensions>
			</trkpt>
			<trkpt lat="47.2823652907" lon="7.4400363541">
				<ele>612.4</ele>
				<time>2021-04-12T11:55:36+02:00</time>
				<extensions>
					<swisstopo:routepoint_id>266155726</swisstopo:routepoint_id>
				</extensions>
			</trkpt>
			<trkpt lat="47.2823654864" lon="7.4400486047">
				<ele>612.5</ele>
				<time>2021-04-12T11:55:37+02:00</time>
				<extensions>
					<swisstopo:routepoint_id>70850181</swisstopo:routepoint_id>
				</extensions>
			</trkpt>
			<trkpt lat="47.2823664477" lon="7.4400639056">
				<ele>612.6</ele>
				<time>2021-04-12T11:55:38+02:00</time>
				<extensions>
					<swisstopo:routepoint_id>1073051629</swisstopo:routepoint_id>
				</extensions>
			</trkpt>
			<trkpt lat="47.2823678111" lon="7.4400807750">
				<ele>612.7</ele>
				<time>2021-04-12T11:55:39+02:00</time>
				<extensions>
					<swisstopo:routepoint_id>211061097</swisstopo:routepoint_id>
				</extensions>
			</trkpt>
			<trkpt lat="47.2823692844" lon="7.4400981027">
				<ele>612.8</ele>
				<time>2021-04-12T11:55:40+02:00</time>
				<extensions>
					<swisstopo:routepoint_id>1808356082</swisstopo:routepoint_id>
				</extensions>
			</trkpt>
			<trkpt lat="47.2823706923" lon="7.4401151104">
				<ele>612.9</ele>
				<time>2021-04-12T11:55:41+02:00</time>
				<extensions>
					<swisstopo:routepoint_id>1852097830</swisstopo:routepoint_id>
				</extensions>
			</trkpt>
			<trkpt lat="47.2823720259" lon="7.4401311591">
				<ele>612.9</ele>
				<time>2021-04-12T11:55:42+02:00</time>
				<extensions>
					<swisstopo:routepoint_id>432765545</swisstopo:routepoint_id>
				</extensions>
			</trkpt>
			<trkpt lat="47.2823732338" lon="7.4401458970">
				<ele>613.0</ele>
				<time>2021-04-12T11:55:43+02:00</time>
				<extensions>
					<swisstopo:routepoint_id>2110886073</swisstopo:routepoint_id>
				</extensions>
			</trkpt>
			<trkpt lat="47.2823743473" lon="7.4401590974">
				<ele>613.1</ele>
				<time>2021-04-12T11:55:44+02:00</time>
				<extensions>
					<swisstopo:routepoint_id>1232380471</swisstopo:routepoint_id>
				</extensions>
			</trkpt>
			<trkpt lat="47.2823752446" lon="7.4401706296">
				<ele>613.1</ele>
				<time>2021-04-12T11:55:45+02:00</time>
				<extensions>
					<swisstopo:routepoint_id>138800782</swisstopo:routepoint_id>
				</extensions>
			</trkpt>
			<trkpt lat="47.2823760718" lon="7.4401805288">
				<ele>613.2</ele>
				<time>2021-04-12T11:55:46+02:00</time>
				<extensions>
					<swisstopo:routepoint_id>657502432</swisstopo:routepoint_id>
				</extensions>
			</trkpt>
			<trkpt lat="47.2823767131" lon="7.4401887498">
				<ele>613.3</ele>
				<time>2021-04-12T11:55:47+02:00</time>
				<extensions>
					<swisstopo:routepoint_id>1840010809</swisstopo:routepoint_id>
				</extensions>
			</trkpt>
			<trkpt lat="47.2823772927" lon="7.4401954739">
				<ele>613.3</ele>
				<time>2021-04-12T11:55:48+02:00</time>
				<extensions>
					<swisstopo:routepoint_id>1297150063</swisstopo:routepoint_id>
				</extensions>
			</trkpt>
			<trkpt lat="47.2823777666" lon="7.4402007590">
				<ele>613.3</ele>
				<time>2021-04-12T11:55:49+02:00</time>
				<extensions>
					<swisstopo:routepoint_id>2094608144</swisstopo:routepoint_id>
				</extensions>
			</trkpt>
			<trkpt lat="47.2823781417" lon="7.4402047074">
				<ele>613.4</ele>
				<time>2021-04-12T11:55:50+02:00</time>
				<extensions>
					<swisstopo:routepoint_id>379650937</swisstopo:routepoint_id>
				</extensions>
			</trkpt>
			<trkpt lat="47.2823783175" lon="7.4402074371">
				<ele>613.4</ele>
				<time>2021-04-12T11:55:51+02:00</time>
				<extensions>
					<swisstopo:routepoint_id>619382922</swisstopo:routepoint_id>
				</extensions>
			</trkpt>
			<trkpt lat="47.2823784399" lon="7.4402091820">
				<ele>613.5</ele>
				<time>2021-04-12T11:55:52+02:00</time>
				<extensions>
					<swisstopo:routepoint_id>1115533045</swisstopo:routepoint_id>
				</extensions>
			</trkpt>
			<trkpt lat="47.2823785349" lon="7.4402101259">
				<ele>613.5</ele>
				<time>2021-04-12T11:55:53+02:00</time>
				<extensions>
					<swisstopo:routepoint_id>1231649005</swisstopo:routepoint_id>
				</extensions>
			</trkpt>
			<trkpt lat="47.2823786617" lon="7.4402104934">
				<ele>613.6</ele>
				<time>2021-04-12T11:55:54+02:00</time>
				<extensions>
					<swisstopo:routepoint_id>729953602</swisstopo:routepoint_id>
				</extensions>
			</trkpt>
			<trkpt lat="47.2823788465" lon="7.4402104172">
				<ele>613.6</ele>
				<time>2021-04-12T11:55:55+02:00</time>
				<extensions>
					<swisstopo:routepoint_id>1903597150</swisstopo:routepoint_id>
				</extensions>
			</trkpt>
			<trkpt lat="47.2823790059" lon="7.4402100287">
				<ele>613.6</ele>
				<time>2021-04-12T11:55:56+02:00</time>
				<extensions>
					<swisstopo:routepoint_id>545927044</swisstopo:routepoint_id>
				</extensions>
			</trkpt>
			<trkpt lat="47.2823791036" lon="7.4402094073">
				<ele>613.7</ele>
				<time>2021-04-12T11:55:57+02:00</time>
				<extensions>
					<swisstopo:routepoint_id>1345688524</swisstopo:routepoint_id>
				</extensions>
			</trkpt>
			<trkpt lat="47.2823792397" lon="7.4402084736">
				<ele>613.7</ele>
				<time>2021-04-12T11:55:58+02:00</time>
				<extensions>
					<swisstopo:routepoint_id>1836736311</swisstopo:routepoint_id>
				</extensions>
			</trkpt>
			<trkpt lat="47.2823792747" lon="7.4402069640">
				<ele>613.8</ele>
				<time>2021-04-12T11:55:59+02:00</time>
				<extensions>
					<swisstopo:routepoint_id>2097236999</swisstopo:routepoint_id>
				</extensions>
			</trkpt>
			<trkpt lat="47.2823792866" lon="7.4402046537">
				<ele>613.8</ele>
				<time>2021-04-12T11:56:00+02:00</time>
				<extensions>
					<swisstopo:routepoint_id>1613143982</swisstopo:routepoint_id>
				</extensions>
			</trkpt>
			<trkpt lat="47.2823793203" lon="7.4402018424">
				<ele>613.8</ele>
				<time>2021-04-12T11:56:01+02:00</time>
				<extensions>
					<swisstopo:routepoint_id>129862099</swisstopo:routepoint_id>
				</extensions>
			</trkpt>
			<trkpt lat="47.2823793455" lon="7.4401988062">
				<ele>613.8</ele>
				<time>2021-04-12T11:56:02+02:00</time>
				<extensions>
					<swisstopo:routepoint_id>748912541</swisstopo:routepoint_id>
				</extensions>
			</trkpt>
			<trkpt lat="47.2823793567" lon="7.4401958487">
				<ele>613.8</ele>
				<time>2021-04-12T11:56:03+02:00</time>
				<extensions>
					<swisstopo:routepoint_id>571421520</swisstopo:routepoint_id>
				</extensions>
			</trkpt>
			<trkpt lat="47.2823794653" lon="7.4401932546">
				<ele>613.8</ele>
				<time>2021-04-12T11:56:04+02:00</time>
				<extensions>
					<swisstopo:routepoint_id>334617256</swisstopo:routepoint_id>
				</extensions>
			</trkpt>
			<trkpt lat="47.2823794775" lon="7.4401911650">
				<ele>613.8</ele>
				<time>2021-04-12T11:56:05+02:00</time>
				<extensions>
					<swisstopo:routepoint_id>1800033746</swisstopo:routepoint_id>
				</extensions>
			</trkpt>
			<trkpt lat="47.2823794731" lon="7.4401895595">
				<ele>613.9</ele>
				<time>2021-04-12T11:56:06+02:00</time>
				<extensions>
					<swisstopo:routepoint_id>1565033733</swisstopo:routepoint_id>
				</extensions>
			</trkpt>
			<trkpt lat="47.2823795443" lon="7.4401880932">
				<ele>613.9</ele>
				<time>2021-04-12T11:56:07+02:00</time>
				<extensions>
					<swisstopo:routepoint_id>1142242075</swisstopo:routepoint_id>
				</extensions>
			</trkpt>
			<trkpt lat="47.2823796338" lon="7.4401863093">
				<ele>613.9</ele>
				<time>2021-04-12T11:56:08+02:00</time>
				<extensions>
					<swisstopo:routepoint_id>1306233992</swisstopo:routepoint_id>
				</extensions>
			</trkpt>
			<trkpt lat="47.2823795848" lon="7.4401839990">
				<ele>613.9</ele>
				<time>2021-04-12T11:56:09+02:00</time>
				<extensions>
					<swisstopo:routepoint_id>149380263</swisstopo:routepoint_id>
				</extensions>
			</trkpt>
			<trkpt lat="47.2823795184" lon="7.4401807141">
				<ele>613.9</ele>
				<time>2021-04-12T11:56:10+02:00</time>
				<extensions>
					<swisstopo:routepoint_id>225696898</swisstopo:routepoint_id>
				</extensions>
			</trkpt>
			<trkpt lat="47.2823797288" lon="7.4401758271">
				<ele>613.9</ele>
				<time>2021-04-12T11:56:11+02:00</time>
				<extensions>
					<swisstopo:routepoint_id>831644084</swisstopo:routepoint_id>
				</extensions>
			</trkpt>
			<trkpt lat="47.2823801226" lon="7.4401703668">
				<ele>613.9</ele>
				<time>2021-04-12T11:56:12+02:00</time>
				<extensions>
					<swisstopo:routepoint_id>1618545112</swisstopo:routepoint_id>
				</extensions>
			</trkpt>
			<trkpt lat="47.2823805944" lon="7.4401655674">
				<ele>613.9</ele>
				<time>2021-04-12T11:56:13+02:00</time>
				<extensions>
					<swisstopo:routepoint_id>712340835</swisstopo:routepoint_id>
				</extensions>
			</trkpt>
			<trkpt lat="47.2823810884" lon="7.4401618123">
				<ele>613.9</ele>
				<time>2021-04-12T11:56:14+02:00</time>
				<extensions>
					<swisstopo:routepoint_id>91081820</swisstopo:routepoint_id>
				</extensions>
			</trkpt>
			<trkpt lat="47.2823816425" lon="7.4401588506">
				<ele>613.9</ele>
				<time>2021-04-12T11:56:15+02:00</time>
				<extensions>
					<swisstopo:routepoint_id>1803792076</swisstopo:routepoint_id>
				</extensions>
			</trkpt>
			<trkpt lat="47.2823823875" lon="7.4401554906">
				<ele>613.8</ele>
				<time>2021-04-12T11:56:16+02:00</time>
				<extensions>
					<swisstopo:routepoint_id>306776633</swisstopo:routepoint_id>
				</extensions>
			</trkpt>
			<trkpt lat="47.2823834171" lon="7.4401500439">
				<ele>613.8</ele>
				<time>2021-04-12T11:56:17+02:00</time>
				<extensions>
					<swisstopo:routepoint_id>2034118031</swisstopo:routepoint_id>
				</extensions>
			</trkpt>
			<trkpt lat="47.2823849331" lon="7.4401423111">
				<ele>613.8</ele>
				<time>2021-04-12T11:56:18+02:00</time>
				<extensions>
					<swisstopo:routepoint_id>1629570424</swisstopo:routepoint_id>
				</extensions>
			</trkpt>
			<trkpt lat="47.2823867321" lon="7.4401333546">
				<ele>613.7</ele>
				<time>2021-04-12T11:56:19+02:00</time>
				<extensions>
					<swisstopo:routepoint_id>1331165977</swisstopo:routepoint_id>
				</extensions>
			</trkpt>
			<trkpt lat="47.2823885350" lon="7.4401249186">
				<ele>613.7</ele>
				<time>2021-04-12T11:56:20+02:00</time>
				<extensions>
					<swisstopo:routepoint_id>421940993</swisstopo:routepoint_id>
				</extensions>
			</trkpt>
			<trkpt lat="47.2823899076" lon="7.4401177980">
				<ele>613.7</ele>
				<time>2021-04-12T11:56:21+02:00</time>
				<extensions>
					<swisstopo:routepoint_id>571266957</swisstopo:routepoint_id>
				</extensions>
			</trkpt>
			<trkpt lat="47.2823908287" lon="7.4401121435">
				<ele>613.7</ele>
				<time>2021-04-12T11:56:22+02:00</time>
				<extensions>
					<swisstopo:routepoint_id>2031844209</swisstopo:routepoint_id>
				</extensions>
			</trkpt>
			<trkpt lat="47.2823914147" lon="7.4401078600">
				<ele>613.7</ele>
				<time>2021-04-12T11:56:23+02:00</time>
				<extensions>
					<swisstopo:routepoint_id>2068149716</swisstopo:routepoint_id>
				</extensions>
			</trkpt>
			<trkpt lat="47.2823916935" lon="7.4401043581">
				<ele>613.7</ele>
				<time>2021-04-12T11:56:24+02:00</time>
				<extensions>
					<swisstopo:routepoint_id>221966470</swisstopo:routepoint_id>
				</extensions>
			</trkpt>
			<trkpt lat="47.2823921608" lon="7.4400998482">
				<ele>613.7</ele>
				<time>2021-04-12T11:56:25+02:00</time>
				<extensions>
					<swisstopo:routepoint_id>411366451</swisstopo:routepoint_id>
				</extensions>
			</trkpt>
			<trkpt lat="47.2823930065" lon="7.4400906462">
				<ele>613.7</ele>
				<time>2021-04-12T11:56:26+02:00</time>
				<extensions>
					<swisstopo:routepoint_id>1086082264</swisstopo:routepoint_id>
				</extensions>
			</trkpt>
			<trkpt lat="47.2823941374" lon="7.4400725149">
				<ele>613.7</ele>
				<time>2021-04-12T11:56:27+02:00</time>
				<extensions>
					<swisstopo:routepoint_id>173611548</swisstopo:routepoint_id>
				</extensions>
			</trkpt>
			<trkpt lat="47.2823952413" lon="7.4400422486">
				<ele>613.6</ele>
				<time>2021-04-12T11:56:28+02:00</time>
				<extensions>
					<swisstopo:routepoint_id>1606494610</swisstopo:routepoint_id>
				</extensions>
			</trkpt>
			<trkpt lat="47.2823965424" lon="7.4399977477">
				<ele>613.6</ele>
				<time>2021-04-12T11:56:29+02:00</time>
				<extensions>
					<swisstopo:routepoint_id>43016539</swisstopo:routepoint_id>
				</extensions>
			</trkpt>
			<trkpt lat="47.2823979892" lon="7.4399382334">
				<ele>613.6</ele>
				<time>2021-04-12T11:56:30+02:00</time>
				<extensions>
					<swisstopo:routepoint_id>1424465581</swisstopo:routepoint_id>
				</extensions>
			</trkpt>
			<trkpt lat="47.2823996583" lon="7.4398644823">
				<ele>613.6</ele>
				<time>2021-04-12T11:56:31+02:00</time>
				<extensions>
					<swisstopo:routepoint_id>845323111</swisstopo:routepoint_id>
				</extensions>
			</trkpt>
			<trkpt lat="47.2824017028" lon="7.4397757661">
				<ele>613.5</ele>
				<time>2021-04-12T11:56:32+02:00</time>
				<extensions>
					<swisstopo:routepoint_id>1741201672</swisstopo:routepoint_id>
				</extensions>
			</trkpt>
			<trkpt lat="47.2824042422" lon="7.4396714898">
				<ele>613.5</ele>
				<time>2021-04-12T11:56:33+02:00</time>
				<extensions>
					<swisstopo:routepoint_id>616843635</swisstopo:routepoint_id>
				</extensions>
			</trkpt>
			<trkpt lat="47.2824075142" lon="7.4395515298">
				<ele>613.4</ele>
				<time>2021-04-12T11:56:34+02:00</time>
				<extensions>
					<swisstopo:routepoint_id>1387409376</swisstopo:routepoint_id>
				</extensions>
			</trkpt>
			<trkpt lat="47.2824115634" lon="7.4394163481">
				<ele>613.3</ele>
				<time>2021-04-12T11:56:35+02:00</time>
				<extensions>
					<swisstopo:routepoint_id>811943306</swisstopo:routepoint_id>
				</extensions>
			</trkpt>
			<trkpt lat="47.2824163849" lon="7.4392670294">
				<ele>613.1</ele>
				<time>2021-04-12T11:56:36+02:00</time>
				<extensions>
					<swisstopo:routepoint_id>1220050904</swisstopo:routepoint_id>
				</extensions>
			</trkpt>
			<trkpt lat="47.2824221694" lon="7.4391052845">
				<ele>613.0</ele>
				<time>2021-04-12T11:56:37+02:00</time>
				<extensions>
					<swisstopo:routepoint_id>1221681972</swisstopo:routepoint_id>
				</extensions>
			</trkpt>
			<trkpt lat="47.2824287339" lon="7.4389331776">
				<ele>612.8</ele>
				<time>2021-04-12T11:56:38+02:00</time>
				<extensions>
					<swisstopo:routepoint_id>717754437</swisstopo:routepoint_id>
				</extensions>
			</trkpt>
			<trkpt lat="47.2824359092" lon="7.4387528725">
				<ele>612.5</ele>
				<time>2021-04-12T11:56:39+02:00</time>
				<extensions>
					<swisstopo:routepoint_id>883177460</swisstopo:routepoint_id>
				</extensions>
			</trkpt>
			<trkpt lat="47.2824438266" lon="7.4385666122">
				<ele>612.3</ele>
				<time>2021-04-12T11:56:40+02:00</time>
				<extensions>
					<swisstopo:routepoint_id>156602156</swisstopo:routepoint_id>
				</extensions>
			</trkpt>
			<trkpt lat="47.2824524761" lon="7.4383761759">
				<ele>612.1</ele>
				<time>2021-04-12T11:56:41+02:00</time>
				<extensions>
					<swisstopo:routepoint_id>1344968317</swisstopo:routepoint_id>
				</extensions>
			</trkpt>
			<trkpt lat="47.2824619493" lon="7.4381831425">
				<ele>611.8</ele>
				<time>2021-04-12T11:56:42+02:00</time>
				<extensions>
					<swisstopo:routepoint_id>469635497</swisstopo:routepoint_id>
				</extensions>
			</trkpt>
			<trkpt lat="47.2824728747" lon="7.4379884387">
				<ele>611.6</ele>
				<time>2021-04-12T11:56:43+02:00</time>
				<extensions>
					<swisstopo:routepoint_id>1161395354</swisstopo:routepoint_id>
				</extensions>
			</trkpt>
			<trkpt lat="47.2824854005" lon="7.4377936813">
				<ele>611.3</ele>
				<time>2021-04-12T11:56:44+02:00</time>
				<extensions>
					<swisstopo:routepoint_id>1092847095</swisstopo:routepoint_id>
				</extensions>
			</trkpt>
			<trkpt lat="47.2824997524" lon="7.4375999155">
				<ele>611.0</ele>
				<time>2021-04-12T11:56:45+02:00</time>
				<extensions>
					<swisstopo:routepoint_id>53492874</swisstopo:routepoint_id>
				</extensions>
			</trkpt>
			<trkpt lat="47.2825173088" lon="7.4374079083">
				<ele>610.8</ele>
				<time>2021-04-12T11:56:46+02:00</time>
				<extensions>
					<swisstopo:routepoint_id>1406568872</swisstopo:routepoint_id>
				</extensions>
			</trkpt>
			<trkpt lat="47.2825387857" lon="7.4372178445">
				<ele>610.6</ele>
				<time>2021-04-12T11:56:47+02:00</time>
				<extensions>
					<swisstopo:routepoint_id>703045528</swisstopo:routepoint_id>
				</extensions>
			</trkpt>
			<trkpt lat="47.2825637042" lon="7.4370313240">
				<ele>610.4</ele>
				<time>2021-04-12T11:56:48+02:00</time>
				<extensions>
					<swisstopo:routepoint_id>631163302</swisstopo:routepoint_id>
				</extensions>
			</trkpt>
			<trkpt lat="47.2825914915" lon="7.4368497432">
				<ele>610.2</ele>
				<time>2021-04-12T11:56:49+02:00</time>
				<extensions>
					<swisstopo:routepoint_id>1539884181</swisstopo:routepoint_id>
				</extensions>
			</trkpt>
			<trkpt lat="47.2826209405" lon="7.4366750196">
				<ele>610.0</ele>
				<time>2021-04-12T11:56:50+02:00</time>
				<extensions>
					<swisstopo:routepoint_id>1508000070</swisstopo:routepoint_id>
				</extensions>
			</trkpt>
			<trkpt lat="47.2826506415" lon="7.4365085713">
				<ele>609.8</ele>
				<time>2021-04-12T11:56:51+02:00</time>
				<extensions>
					<swisstopo:routepoint_id>355174596</swisstopo:routepoint_id>
				</extensions>
			</trkpt>
			<trkpt lat="47.2826797676" lon="7.4363514437">
				<ele>609.6</ele>
				<time>2021-04-12T11:56:52+02:00</time>
				<extensions>
					<swisstopo:routepoint_id>1562379959</swisstopo:routepoint_id>
				</extensions>
			</trkpt>
			<trkpt lat="47.2827083373" lon="7.4362033085">
				<ele>609.4</ele>
				<time>2021-04-12T11:56:53+02:00</time>
				<extensions>
					<swisstopo:routepoint_id>1637419044</swisstopo:routepoint_id>
				</extensions>
			</trkpt>
			<trkpt lat="47.2827368928" lon="7.4360625281">
				<ele>609.2</ele>
				<time>2021-04-12T11:56:54+02:00</time>
				<extensions>
					<swisstopo:routepoint_id>98936203</swisstopo:routepoint_id>
				</extensions>
			</trkpt>
			<trkpt lat="47.2827669617" lon="7.4359270197">
				<ele>609.0</ele>
				<time>2021-04-12T11:56:55+02:00</time>
				<extensions>
					<swisstopo:routepoint_id>668421043</swisstopo:routepoint_id>
				</extensions>
			</trkpt>
			<trkpt lat="47.2827996636" lon="7.4357941777">
				<ele>608.8</ele>
				<time>2021-04-12T11:56:56+02:00</time>
				<extensions>
					<swisstopo:routepoint_id>665512244</swisstopo:routepoint_id>
				</extensions>
			</trkpt>
			<trkpt lat="47.2828361047" lon="7.4356607682">
				<ele>608.5</ele>
				<time>2021-04-12T11:56:57+02:00</time>
				<extensions>
					<swisstopo:routepoint_id>1169451332</swisstopo:routepoint_id>
				</extensions>
			</trkpt>
			<trkpt lat="47.2828772618" lon="7.4355235780">
				<ele>608.2</ele>
				<time>2021-04-12T11:56:58+02:00</time>
				<extensions>
					<swisstopo:routepoint_id>1198199580</swisstopo:routepoint_id>
				</extensions>
			</trkpt>
			<trkpt lat="47.2829239368" lon="7.4353802433">
				<ele>607.8</ele>
				<time>2021-04-12T11:56:59+02:00</time>
				<extensions>
					<swisstopo:routepoint_id>1186183141</swisstopo:routepoint_id>
				</extensions>
			</trkpt>
			<trkpt lat="47.2829765382" lon="7.4352298949">
				<ele>607.4</ele>
				<time>2021-04-12T11:57:00+02:00</time>
				<extensions>
					<swisstopo:routepoint_id>1089355686</swisstopo:routepoint_id>
				</extensions>
			</trkpt>
			<trkpt lat="47.2830347138" lon="7.4350722940">
				<ele>606.9</ele>
				<time>2021-04-12T11:57:01+02:00</time>
				<extensions>
					<swisstopo:routepoint_id>1502923927</swisstopo:routepoint_id>
				</extensions>
			</trkpt>
			<trkpt lat="47.2830973722" lon="7.4349086621">
				<ele>606.4</ele>
				<time>2021-04-12T11:57:02+02:00</time>
				<extensions>
					<swisstopo:routepoint_id>939785075</swisstopo:routepoint_id>
				</extensions>
			</trkpt>
			<trkpt lat="47.2831634330" lon="7.4347413528">
				<ele>605.9</ele>
				<time>2021-04-12T11:57:03+02:00</time>
				<extensions>
					<swisstopo:routepoint_id>225531840</swisstopo:routepoint_id>
				</extensions>
			</trkpt>
			<trkpt lat="47.2832312340" lon="7.4345742573">
				<ele>605.3</ele>
				<time>2021-04-12T11:57:04+02:00</time>
				<extensions>
					<swisstopo:routepoint_id>204997925</swisstopo:routepoint_id>
				</extensions>
			</trkpt>
			<trkpt lat="47.2832987050" lon="7.4344109826">
				<ele>604.8</ele>
				<time>2021-04-12T11:57:05+02:00</time>
				<extensions>
					<swisstopo:routepoint_id>836355687</swisstopo:routepoint_id>
				</extensions>
			</trkpt>
			<trkpt lat="47.2833642142" lon="7.4342548730">
				<ele>604.3</ele>
				<time>2021-04-12T11:57:06+02:00</time>
				<extensions>
					<swisstopo:routepoint_id>1349561794</swisstopo:routepoint_id>
				</extensions>
			</trkpt>
			<trkpt lat="47.2834268765" lon="7.4341078149">
				<ele>603.9</ele>
				<time>2021-04-12T11:57:07+02:00</time>
				<extensions>
					<swisstopo:routepoint_id>362792144</swisstopo:routepoint_id>
				</extensions>
			</trkpt>
			<trkpt lat="47.2834869658" lon="7.4339705379">
				<ele>603.5</ele>
				<time>2021-04-12T11:57:08+02:00</time>
				<extensions>
					<swisstopo:routepoint_id>741490375</swisstopo:routepoint_id>
				</extensions>
			</trkpt>
			<trkpt lat="47.2835451843" lon="7.4338404195">
				<ele>603.1</ele>
				<time>2021-04-12T11:57:09+02:00</time>
				<extensions>
					<swisstopo:routepoint_id>381129084</swisstopo:routepoint_id>
				</extensions>
			</trkpt>
			<trkpt lat="47.2836014032" lon="7.4337131886">
				<ele>602.7</ele>
				<time>2021-04-12T11:57:10+02:00</time>
				<extensions>
					<swisstopo:routepoint_id>1840279434</swisstopo:routepoint_id>
				</extensions>
			</trkpt>
			<trkpt lat="47.2836547289" lon="7.4335829533">
				<ele>602.4</ele>
				<time>2021-04-12T11:57:11+02:00</time>
				<extensions>
					<swisstopo:routepoint_id>1516963144</swisstopo:routepoint_id>
				</extensions>
			</trkpt>
			<trkpt lat="47.2837053500" lon="7.4334452847">
				<ele>602.0</ele>
				<time>2021-04-12T11:57:12+02:00</time>
				<extensions>
					<swisstopo:routepoint_id>673704024</swisstopo:routepoint_id>
				</extensions>
			</trkpt>
			<trkpt lat="47.2837536138" lon="7.4332966861">
				<ele>601.7</ele>
				<time>2021-04-12T11:57:13+02:00</time>
				<extensions>
					<swisstopo:routepoint_id>1409744384</swisstopo:routepoint_id>
				</extensions>
			</trkpt>
			<trkpt lat="47.2837998502" lon="7.4331362195">
				<ele>601.4</ele>
				<time>2021-04-12T11:57:14+02:00</time>
				<extensions>
					<swisstopo:routepoint_id>386784537</swisstopo:routepoint_id>
				</extensions>
			</trkpt>
			<trkpt lat="47.2838441264" lon="7.4329640126">
				<ele>601.1</ele>
				<time>2021-04-12T11:57:15+02:00</time>
				<extensions>
					<swisstopo:routepoint_id>254713890</swisstopo:routepoint_id>
				</extensions>
			</trkpt>
			<trkpt lat="47.2838857540" lon="7.4327812451">
				<ele>600.8</ele>
				<time>2021-04-12T11:57:16+02:00</time>
				<extensions>
					<swisstopo:routepoint_id>1041440759</swisstopo:routepoint_id>
				</extensions>
			</trkpt>
			<trkpt lat="47.2839245498" lon="7.4325895743">
				<ele>600.5</ele>
				<time>2021-04-12T11:57:17+02:00</time>
				<extensions>
					<swisstopo:routepoint_id>1503113463</swisstopo:routepoint_id>
				</extensions>
			</trkpt>
			<trkpt lat="47.2839607870" lon="7.4323902913">
				<ele>600.2</ele>
				<time>2021-04-12T11:57:18+02:00</time>
				<extensions>
					<swisstopo:routepoint_id>1977832980</swisstopo:routepoint_id>
				</extensions>
			</trkpt>
			<trkpt lat="47.2839948615" lon="7.4321851912">
				<ele>599.9</ele>
				<time>2021-04-12T11:57:19+02:00</time>
				<extensions>
					<swisstopo:routepoint_id>539522947</swisstopo:routepoint_id>
				</extensions>
			</trkpt>
			<trkpt lat="47.2840272830" lon="7.4319755488">
				<ele>599.7</ele>
				<time>2021-04-12T11:57:20+02:00</time>
				<extensions>
					<swisstopo:routepoint_id>1086212595</swisstopo:routepoint_id>
				</extensions>
			</trkpt>
			<trkpt lat="47.2840584641" lon="7.4317626610">
				<ele>599.4</ele>
				<time>2021-04-12T11:57:21+02:00</time>
				<extensions>
					<swisstopo:routepoint_id>216601018</swisstopo:routepoint_id>
				</extensions>
			</trkpt>
			<trkpt lat="47.2840890340" lon="7.4315479193">
				<ele>599.1</ele>
				<time>2021-04-12T11:57:22+02:00</time>
				<extensions>
					<swisstopo:routepoint_id>428527861</swisstopo:routepoint_id>
				</extensions>
			</trkpt>
			<trkpt lat="47.2841190741" lon="7.4313325416">
				<ele>598.9</ele>
				<time>2021-04-12T11:57:23+02:00</time>
				<extensions>
					<swisstopo:routepoint_id>1755091436</swisstopo:routepoint_id>
				</extensions>
			</trkpt>
			<trkpt lat="47.2841483843" lon="7.4311183235">
				<ele>598.6</ele>
				<time>2021-04-12T11:57:24+02:00</time>
				<extensions>
					<swisstopo:routepoint_id>2133873307</swisstopo:routepoint_id>
				</extensions>
			</trkpt>
			<trkpt lat="47.2841759602" lon="7.4309057636">
				<ele>598.3</ele>
				<time>2021-04-12T11:57:25+02:00</time>
				<extensions>
					<swisstopo:routepoint_id>1031765849</swisstopo:routepoint_id>
				</extensions>
			</trkpt>
			<trkpt lat="47.2841992516" lon="7.4306953991">
				<ele>598.0</ele>
				<time>2021-04-12T11:57:26+02:00</time>
				<extensions>
					<swisstopo:routepoint_id>2105658265</swisstopo:routepoint_id>
				</extensions>
			</trkpt>
			<trkpt lat="47.2842153474" lon="7.4304876452">
				<ele>597.7</ele>
				<time>2021-04-12T11:57:27+02:00</time>
				<extensions>
					<swisstopo:routepoint_id>1415440942</swisstopo:routepoint_id>
				</extensions>
			</trkpt>
			<trkpt lat="47.2842214632" lon="7.4302829978">
				<ele>597.5</ele>
				<time>2021-04-12T11:57:28+02:00</time>
				<extensions>
					<swisstopo:routepoint_id>1639554375</swisstopo:routepoint_id>
				</extensions>
			</trkpt>
			<trkpt lat="47.2842159097" lon="7.4300819686">
				<ele>597.2</ele>
				<time>2021-04-12T11:57:29+02:00</time>
				<extensions>
					<swisstopo:routepoint_id>1627705968</swisstopo:routepoint_id>
				</extensions>
			</trkpt>
			<trkpt lat="47.2841983405" lon="7.4298860986">
				<ele>597.0</ele>
				<time>2021-04-12T11:57:30+02:00</time>
				<extensions>
					<swisstopo:routepoint_id>60025043</swisstopo:routepoint_id>
				</extensions>
			</trkpt>
			<trkpt lat="47.2841700080" lon="7.4296954844">
				<ele>596.7</ele>
				<time>2021-04-12T11:57:31+02:00</time>
				<extensions>
					<swisstopo:routepoint_id>1671067258</swisstopo:routepoint_id>
				</extensions>
			</trkpt>
			<trkpt lat="47.2841327124" lon="7.4295094811">
				<ele>596.5</ele>
				<time>2021-04-12T11:57:32+02:00</time>
				<extensions>
					<swisstopo:routepoint_id>836269740</swisstopo:routepoint_id>
				</extensions>
			</trkpt>
			<trkpt lat="47.2840892085" lon="7.4293275908">
				<ele>596.3</ele>
				<time>2021-04-12T11:57:33+02:00</time>
				<extensions>
					<swisstopo:routepoint_id>2052534212</swisstopo:routepoint_id>
				</extensions>
			</trkpt>
			<trkpt lat="47.2840416070" lon="7.4291495885">
				<ele>596.0</ele>
				<time>2021-04-12T11:57:34+02:00</time>
				<extensions>
					<swisstopo:routepoint_id>1912679323</swisstopo:routepoint_id>
				</extensions>
			</trkpt>
			<trkpt lat="47.2839915618" lon="7.4289755501">
				<ele>595.8</ele>
				<time>2021-04-12T11:57:35+02:00</time>
				<extensions>
					<swisstopo:routepoint_id>718669718</swisstopo:routepoint_id>
				</extensions>
			</trkpt>
			<trkpt lat="47.2839402106" lon="7.4288053829">
				<ele>595.6</ele>
				<time>2021-04-12T11:57:36+02:00</time>
				<extensions>
					<swisstopo:routepoint_id>1233919698</swisstopo:routepoint_id>
				</extensions>
			</trkpt>
			<trkpt lat="47.2838884100" lon="7.4286389028">
				<ele>595.4</ele>
				<time>2021-04-12T11:57:37+02:00</time>
				<extensions>
					<swisstopo:routepoint_id>238785207</swisstopo:routepoint_id>
				</extensions>
			</trkpt>
			<trkpt lat="47.2838372219" lon="7.4284762869">
				<ele>595.2</ele>
				<time>2021-04-12T11:57:38+02:00</time>
				<extensions>
					<swisstopo:routepoint_id>1763521453</swisstopo:routepoint_id>
				</extensions>
			</trkpt>
			<trkpt lat="47.2837885185" lon="7.4283169602">
				<ele>595.1</ele>
				<time>2021-04-12T11:57:39+02:00</time>
				<extensions>
					<swisstopo:routepoint_id>2083248324</swisstopo:routepoint_id>
				</extensions>
			</trkpt>
			<trkpt lat="47.2837447875" lon="7.4281603450">
				<ele>594.9</ele>
				<time>2021-04-12T11:57:40+02:00</time>
				<extensions>
					<swisstopo:routepoint_id>581200780</swisstopo:routepoint_id>
				</extensions>
			</trkpt>
			<trkpt lat="47.2837086057" lon="7.4280061362">
				<ele>594.7</ele>
				<time>2021-04-12T11:57:41+02:00</time>
				<extensions>
					<swisstopo:routepoint_id>1485882904</swisstopo:routepoint_id>
				</extensions>
			</trkpt>
			<trkpt lat="47.2836819051" lon="7.4278550124">
				<ele>594.5</ele>
				<time>2021-04-12T11:57:42+02:00</time>
				<extensions>
					<swisstopo:routepoint_id>146636565</swisstopo:routepoint_id>
				</extensions>
			</trkpt>
			<trkpt lat="47.2836658497" lon="7.4277066285">
				<ele>594.3</ele>
				<time>2021-04-12T11:57:43+02:00</time>
				<extensions>
					<swisstopo:routepoint_id>1357004846</swisstopo:routepoint_id>
				</extensions>
			</trkpt>
			<trkpt lat="47.2836603538" lon="7.4275615864">
				<ele>594.1</ele>
				<time>2021-04-12T11:57:44+02:00</time>
				<extensions>
					<swisstopo:routepoint_id>904115582</swisstopo:routepoint_id>
				</extensions>
			</trkpt>
			<trkpt lat="47.2836656546" lon="7.4274211322">
				<ele>593.9</ele>
				<time>2021-04-12T11:57:45+02:00</time>
				<extensions>
					<swisstopo:routepoint_id>2023784149</swisstopo:routepoint_id>
				</extensions>
			</trkpt>
			<trkpt lat="47.2836814218" lon="7.4272853640">
				<ele>593.8</ele>
				<time>2021-04-12T11:57:46+02:00</time>
				<extensions>
					<swisstopo:routepoint_id>1894191057</swisstopo:routepoint_id>
				</extensions>
			</trkpt>
			<trkpt lat="47.2837060796" lon="7.4271536136">
				<ele>593.6</ele>
				<time>2021-04-12T11:57:47+02:00</time>
				<extensions>
					<swisstopo:routepoint_id>1371511871</swisstopo:routepoint_id>
				</extensions>
			</trkpt>
			<trkpt lat="47.2837369190" lon="7.4270250438">
				<ele>593.4</ele>
				<time>2021-04-12T11:57:48+02:00</time>
				<extensions>
					<swisstopo:routepoint_id>2058032646</swisstopo:routepoint_id>
				</extensions>
			</trkpt>
			<trkpt lat="47.2837703212" lon="7.4268989019">
				<ele>593.3</ele>
				<time>2021-04-12T11:57:49+02:00</time>
				<extensions>
					<swisstopo:routepoint_id>1983062740</swisstopo:routepoint_id>
				</extensions>
			</trkpt>
			<trkpt lat="47.2838028335" lon="7.4267740308">
				<ele>593.1</ele>
				<time>2021-04-12T11:57:50+02:00</time>
				<extensions>
					<swisstopo:routepoint_id>389269740</swisstopo:routepoint_id>
				</extensions>
			</trkpt>
			<trkpt lat="47.2838309763" lon="7.4266503736">
				<ele>592.9</ele>
				<time>2021-04-12T11:57:51+02:00</time>
				<extensions>
					<swisstopo:routepoint_id>1221331418</swisstopo:routepoint_id>
				</extensions>
			</trkpt>
			<trkpt lat="47.2838518205" lon="7.4265280033">
				<ele>592.7</ele>
				<time>2021-04-12T11:57:52+02:00</time>
				<extensions>
					<swisstopo:routepoint_id>1268444300</swisstopo:routepoint_id>
				</extensions>
			</trkpt>
			<trkpt lat="47.2838625423" lon="7.4264059833">
				<ele>592.5</ele>
				<time>2021-04-12T11:57:53+02:00</time>
				<extensions>
					<swisstopo:routepoint_id>673186331</swisstopo:routepoint_id>
				</extensions>
			</trkpt>
			<trkpt lat="47.2838620433" lon="7.4262841697">
				<ele>592.4</ele>
				<time>2021-04-12T11:57:54+02:00</time>
				<extensions>
					<swisstopo:routepoint_id>1298812721</swisstopo:routepoint_id>
				</extensions>
			</trkpt>
			<trkpt lat="47.2838509510" lon="7.4261627026">
				<ele>592.2</ele>
				<time>2021-04-12T11:57:55+02:00</time>
				<extensions>
					<swisstopo:routepoint_id>2121613739</swisstopo:routepoint_id>
				</extensions>
			</trkpt>
			<trkpt lat="47.2838307080" lon="7.4260419968">
				<ele>591.9</ele>
				<time>2021-04-12T11:57:56+02:00</time>
				<extensions>
					<swisstopo:routepoint_id>1143636585</swisstopo:routepoint_id>
				</extensions>
			</trkpt>
			<trkpt lat="47.2838033436" lon="7.4259205098">
				<ele>591.7</ele>
				<time>2021-04-12T11:57:57+02:00</time>
				<extensions>
					<swisstopo:routepoint_id>1121443445</swisstopo:routepoint_id>
				</extensions>
			</trkpt>
			<trkpt lat="47.2837703792" lon="7.4257981876">
				<ele>591.5</ele>
				<time>2021-04-12T11:57:58+02:00</time>
				<extensions>
					<swisstopo:routepoint_id>1783494043</swisstopo:routepoint_id>
				</extensions>
			</trkpt>
			<trkpt lat="47.2837329504" lon="7.4256755819">
				<ele>591.3</ele>
				<time>2021-04-12T11:57:59+02:00</time>
				<extensions>
					<swisstopo:routepoint_id>607635875</swisstopo:routepoint_id>
				</extensions>
			</trkpt>
			<trkpt lat="47.2836928361" lon="7.4255520061">
				<ele>591.0</ele>
				<time>2021-04-12T11:58:00+02:00</time>
				<extensions>
					<swisstopo:routepoint_id>1251409640</swisstopo:routepoint_id>
				</extensions>
			</trkpt>
			<trkpt lat="47.2836521319" lon="7.4254269622">
				<ele>590.8</ele>
				<time>2021-04-12T11:58:01+02:00</time>
				<extensions>
					<swisstopo:routepoint_id>2134464409</swisstopo:routepoint_id>
				</extensions>
			</trkpt>
			<trkpt lat="47.2836123924" lon="7.4253000424">
				<ele>590.5</ele>
				<time>2021-04-12T11:58:02+02:00</time>
				<extensions>
					<swisstopo:routepoint_id>228998928</swisstopo:routepoint_id>
				</extensions>
			</trkpt>
			<trkpt lat="47.2835746489" lon="7.4251705948">
				<ele>590.3</ele>
				<time>2021-04-12T11:58:03+02:00</time>
				<extensions>
					<swisstopo:routepoint_id>494287472</swisstopo:routepoint_id>
				</extensions>
			</trkpt>
			<trkpt lat="47.2835390448" lon="7.4250382454">
				<ele>590.1</ele>
				<time>2021-04-12T11:58:04+02:00</time>
				<extensions>
					<swisstopo:routepoint_id>1022795308</swisstopo:routepoint_id>
				</extensions>
			</trkpt>
			<trkpt lat="47.2835052273" lon="7.4249033433">
				<ele>589.9</ele>
				<time>2021-04-12T11:58:05+02:00</time>
				<extensions>
					<swisstopo:routepoint_id>1661630968</swisstopo:routepoint_id>
				</extensions>
			</trkpt>
			<trkpt lat="47.2834721805" lon="7.4247667074">
				<ele>589.7</ele>
				<time>2021-04-12T11:58:06+02:00</time>
				<extensions>
					<swisstopo:routepoint_id>1154333588</swisstopo:routepoint_id>
				</extensions>
			</trkpt>
			<trkpt lat="47.2834385989" lon="7.4246292252">
				<ele>589.5</ele>
				<time>2021-04-12T11:58:07+02:00</time>
				<extensions>
					<swisstopo:routepoint_id>517346518</swisstopo:routepoint_id>
				</extensions>
			</trkpt>
			<trkpt lat="47.2834040315" lon="7.4244912037">
				<ele>589.3</ele>
				<time>2021-04-12T11:58:08+02:00</time>
				<extensions>
					<swisstopo:routepoint_id>2029124970</swisstopo:routepoint_id>
				</extensions>
			</trkpt>
			<trkpt lat="47.2833682283" lon="7.4243525854">
				<ele>589.1</ele>
				<time>2021-04-12T11:58:09+02:00</time>
				<extensions>
					<swisstopo:routepoint_id>1463056430</swisstopo:routepoint_id>
				</extensions>
			</trkpt>
			<trkpt lat="47.2833316044" lon="7.4242132803">
				<ele>588.9</ele>
				<time>2021-04-12T11:58:10+02:00</time>
				<extensions>
					<swisstopo:routepoint_id>901660860</swisstopo:routepoint_id>
				</extensions>
			</trkpt>
			<trkpt lat="47.2832945569" lon="7.4240739251">
				<ele>588.7</ele>
				<time>2021-04-12T11:58:11+02:00</time>
				<extensions>
					<swisstopo:routepoint_id>1569460788</swisstopo:routepoint_id>
				</extensions>
			</trkpt>
			<trkpt lat="47.2832572043" lon="7.4239342533">
				<ele>588.6</ele>
				<time>2021-04-12T11:58:12+02:00</time>
				<extensions>
					<swisstopo:routepoint_id>385827815</swisstopo:routepoint_id>
				</extensions>
			</trkpt>
			<trkpt lat="47.2832198462" lon="7.4237941232">
				<ele>588.4</ele>
				<time>2021-04-12T11:58:13+02:00</time>
				<extensions>
					<swisstopo:routepoint_id>1354956412</swisstopo:routepoint_id>
				</extensions>
			</trkpt>
			<trkpt lat="47.2831826364" lon="7.4236533550">
				<ele>588.3</ele>
				<time>2021-04-12T11:58:14+02:00</time>
				<extensions>
					<swisstopo:routepoint_id>835823696</swisstopo:routepoint_id>
				</extensions>
			</trkpt>
			<trkpt lat="47.2831461189" lon="7.4235118110">
				<ele>588.1</ele>
				<time>2021-04-12T11:58:15+02:00</time>
				<extensions>
					<swisstopo:routepoint_id>998323645</swisstopo:routepoint_id>
				</extensions>
			</trkpt>
			<trkpt lat="47.2831104857" lon="7.4233695470">
				<ele>588.0</ele>
				<time>2021-04-12T11:58:16+02:00</time>
				<extensions>
					<swisstopo:routepoint_id>535767504</swisstopo:routepoint_id>
				</extensions>
			</trkpt>
			<trkpt lat="47.2830757742" lon="7.4232265019">
				<ele>587.8</ele>
				<time>2021-04-12T11:58:17+02:00</time>
				<extensions>
					<swisstopo:routepoint_id>245507857</swisstopo:routepoint_id>
				</extensions>
			</trkpt>
			<trkpt lat="47.2830417479" lon="7.4230827141">
				<ele>587.6</ele>
				<time>2021-04-12T11:58:18+02:00</time>
				<extensions>
					<swisstopo:routepoint_id>934466712</swisstopo:routepoint_id>
				</extensions>
			</trkpt>
			<trkpt lat="47.2830080105" lon="7.4229386647">
				<ele>587.5</ele>
				<time>2021-04-12T11:58:19+02:00</time>
				<extensions>
					<swisstopo:routepoint_id>1034118073</swisstopo:routepoint_id>
				</extensions>
			</trkpt>
			<trkpt lat="47.2829743010" lon="7.4227943017">
				<ele>587.3</ele>
				<time>2021-04-12T11:58:20+02:00</time>
				<extensions>
					<swisstopo:routepoint_id>837297740</swisstopo:routepoint_id>
				</extensions>
			</trkpt>
			<trkpt lat="47.2829406286" lon="7.4226500031">
				<ele>587.2</ele>
				<time>2021-04-12T11:58:21+02:00</time>
				<extensions>
					<swisstopo:routepoint_id>2777389</swisstopo:routepoint_id>
				</extensions>
			</trkpt>
			<trkpt lat="47.2829063475" lon="7.4225044638">
				<ele>587.0</ele>
				<time>2021-04-12T11:58:22+02:00</time>
				<extensions>
					<swisstopo:routepoint_id>1582420336</swisstopo:routepoint_id>
				</extensions>
			</trkpt>
			<trkpt lat="47.2828720695" lon="7.4223616038">
				<ele>586.8</ele>
				<time>2021-04-12T11:58:23+02:00</time>
				<extensions>
					<swisstopo:routepoint_id>1301102704</swisstopo:routepoint_id>
				</extensions>
			</trkpt>
			<trkpt lat="47.2828372766" lon="7.4222189420">
				<ele>586.7</ele>
				<time>2021-04-12T11:58:24+02:00</time>
				<extensions>
					<swisstopo:routepoint_id>1954652374</swisstopo:routepoint_id>
				</extensions>
			</trkpt>
			<trkpt lat="47.2828019454" lon="7.4220763998">
				<ele>586.5</ele>
				<time>2021-04-12T11:58:25+02:00</time>
				<extensions>
					<swisstopo:routepoint_id>1785101659</swisstopo:routepoint_id>
				</extensions>
			</trkpt>
			<trkpt lat="47.2827662917" lon="7.4219341432">
				<ele>586.3</ele>
				<time>2021-04-12T11:58:26+02:00</time>
				<extensions>
					<swisstopo:routepoint_id>1857034223</swisstopo:routepoint_id>
				</extensions>
			</trkpt>
			<trkpt lat="47.2827304959" lon="7.4217919755">
				<ele>586.2</ele>
				<time>2021-04-12T11:58:27+02:00</time>
				<extensions>
					<swisstopo:routepoint_id>1794344110</swisstopo:routepoint_id>
				</extensions>
			</trkpt>
			<trkpt lat="47.2826945743" lon="7.4216496547">
				<ele>586.0</ele>
				<time>2021-04-12T11:58:28+02:00</time>
				<extensions>
					<swisstopo:routepoint_id>428601949</swisstopo:routepoint_id>
				</extensions>
			</trkpt>
			<trkpt lat="47.2826585905" lon="7.4215074604">
				<ele>585.7</ele>
				<time>2021-04-12T11:58:29+02:00</time>
				<extensions>
					<swisstopo:routepoint_id>852804805</swisstopo:routepoint_id>
				</extensions>
			</trkpt>
			<trkpt lat="47.2826224452" lon="7.4213649817">
				<ele>585.5</ele>
				<time>2021-04-12T11:58:30+02:00</time>
				<extensions>
					<swisstopo:routepoint_id>784497557</swisstopo:routepoint_id>
				</extensions>
			</trkpt>
			<trkpt lat="47.2825859997" lon="7.4212222256">
				<ele>585.3</ele>
				<time>2021-04-12T11:58:31+02:00</time>
				<extensions>
					<swisstopo:routepoint_id>1648331566</swisstopo:routepoint_id>
				</extensions>
			</trkpt>
			<trkpt lat="47.2825493787" lon="7.4210793339">
				<ele>585.1</ele>
				<time>2021-04-12T11:58:32+02:00</time>
				<extensions>
					<swisstopo:routepoint_id>969583462</swisstopo:routepoint_id>
				</extensions>
			</trkpt>
			<trkpt lat="47.2825123710" lon="7.4209363805">
				<ele>584.9</ele>
				<time>2021-04-12T11:58:33+02:00</time>
				<extensions>
					<swisstopo:routepoint_id>683332398</swisstopo:routepoint_id>
				</extensions>
			</trkpt>
			<trkpt lat="47.2824747211" lon="7.4207932311">
				<ele>584.6</ele>
				<time>2021-04-12T11:58:34+02:00</time>
				<extensions>
					<swisstopo:routepoint_id>25069030</swisstopo:routepoint_id>
				</extensions>
			</trkpt>
			<trkpt lat="47.2824367755" lon="7.4206500113">
				<ele>584.4</ele>
				<time>2021-04-12T11:58:35+02:00</time>
				<extensions>
					<swisstopo:routepoint_id>428392398</swisstopo:routepoint_id>
				</extensions>
			</trkpt>
			<trkpt lat="47.2823986724" lon="7.4205068813">
				<ele>584.2</ele>
				<time>2021-04-12T11:58:36+02:00</time>
				<extensions>
					<swisstopo:routepoint_id>1625848442</swisstopo:routepoint_id>
				</extensions>
			</trkpt>
			<trkpt lat="47.2823607031" lon="7.4203635885">
				<ele>584.0</ele>
				<time>2021-04-12T11:58:37+02:00</time>
				<extensions>
					<swisstopo:routepoint_id>1052840266</swisstopo:routepoint_id>
				</extensions>
			</trkpt>
			<trkpt lat="47.2823229836" lon="7.4202196823">
				<ele>583.8</ele>
				<time>2021-04-12T11:58:38+02:00</time>
				<extensions>
					<swisstopo:routepoint_id>1968583029</swisstopo:routepoint_id>
				</extensions>
			</trkpt>
			<trkpt lat="47.2822854278" lon="7.4200751714">
				<ele>583.7</ele>
				<time>2021-04-12T11:58:39+02:00</time>
				<extensions>
					<swisstopo:routepoint_id>1841902721</swisstopo:routepoint_id>
				</extensions>
			</trkpt>
			<trkpt lat="47.2822483582" lon="7.4199288958">
				<ele>583.5</ele>
				<time>2021-04-12T11:58:40+02:00</time>
				<extensions>
					<swisstopo:routepoint_id>882260342</swisstopo:routepoint_id>
				</extensions>
			</trkpt>
			<trkpt lat="47.2822126406" lon="7.4197796085">
				<ele>583.4</ele>
				<time>2021-04-12T11:58:41+02:00</time>
				<extensions>
					<swisstopo:routepoint_id>1922469106</swisstopo:routepoint_id>
				</extensions>
			</trkpt>
			<trkpt lat="47.2821788799" lon="7.4196264214">
				<ele>583.2</ele>
				<time>2021-04-12T11:58:42+02:00</time>
				<extensions>
					<swisstopo:routepoint_id>2046795427</swisstopo:routepoint_id>
				</extensions>
			</trkpt>
			<trkpt lat="47.2821477761" lon="7.4194683470">
				<ele>583.1</ele>
				<time>2021-04-12T11:58:43+02:00</time>
				<extensions>
					<swisstopo:routepoint_id>2097683943</swisstopo:routepoint_id>
				</extensions>
			</trkpt>
			<trkpt lat="47.2821197908" lon="7.4193044272">
				<ele>582.9</ele>
				<time>2021-04-12T11:58:44+02:00</time>
				<extensions>
					<swisstopo:routepoint_id>534997202</swisstopo:routepoint_id>
				</extensions>
			</trkpt>
			<trkpt lat="47.2820952605" lon="7.4191334906">
				<ele>582.7</ele>
				<time>2021-04-12T11:58:45+02:00</time>
				<extensions>
					<swisstopo:routepoint_id>183944025</swisstopo:routepoint_id>
				</extensions>
			</trkpt>
			<trkpt lat="47.2820750170" lon="7.4189543862">
				<ele>582.5</ele>
				<time>2021-04-12T11:58:46+02:00</time>
				<extensions>
					<swisstopo:routepoint_id>1318260142</swisstopo:routepoint_id>
				</extensions>
			</trkpt>
			<trkpt lat="47.2820588971" lon="7.4187667506">
				<ele>582.3</ele>
				<time>2021-04-12T11:58:47+02:00</time>
				<extensions>
					<swisstopo:routepoint_id>409420495</swisstopo:routepoint_id>
				</extensions>
			</trkpt>
			<trkpt lat="47.2820466417" lon="7.4185702039">
				<ele>582.0</ele>
				<time>2021-04-12T11:58:48+02:00</time>
				<extensions>
					<swisstopo:routepoint_id>592654477</swisstopo:routepoint_id>
				</extensions>
			</trkpt>
			<trkpt lat="47.2820372927" lon="7.4183644780">
				<ele>581.8</ele>
				<time>2021-04-12T11:58:49+02:00</time>
				<extensions>
					<swisstopo:routepoint_id>714640153</swisstopo:routepoint_id>
				</extensions>
			</trkpt>
			<trkpt lat="47.2820308617" lon="7.4181496086">
				<ele>581.5</ele>
				<time>2021-04-12T11:58:50+02:00</time>
				<extensions>
					<swisstopo:routepoint_id>81013800</swisstopo:routepoint_id>
				</extensions>
			</trkpt>
			<trkpt lat="47.2820266124" lon="7.4179259130">
				<ele>581.2</ele>
				<time>2021-04-12T11:58:51+02:00</time>
				<extensions>
					<swisstopo:routepoint_id>94304402</swisstopo:routepoint_id>
				</extensions>
			</trkpt>
			<trkpt lat="47.2820235655" lon="7.4176949660">
				<ele>580.9</ele>
				<time>2021-04-12T11:58:52+02:00</time>
				<extensions>
					<swisstopo:routepoint_id>131152928</swisstopo:routepoint_id>
				</extensions>
			</trkpt>
			<trkpt lat="47.2820210672" lon="7.4174576861">
				<ele>580.5</ele>
				<time>2021-04-12T11:58:53+02:00</time>
				<extensions>
					<swisstopo:routepoint_id>969039074</swisstopo:routepoint_id>
				</extensions>
			</trkpt>
			<trkpt lat="47.2820182142" lon="7.4172154672">
				<ele>580.2</ele>
				<time>2021-04-12T11:58:54+02:00</time>
				<extensions>
					<swisstopo:routepoint_id>123737870</swisstopo:routepoint_id>
				</extensions>
			</trkpt>
			<trkpt lat="47.2820148357" lon="7.4169687984">
				<ele>579.8</ele>
				<time>2021-04-12T11:58:55+02:00</time>
				<extensions>
					<swisstopo:routepoint_id>898210794</swisstopo:routepoint_id>
				</extensions>
			</trkpt>
			<trkpt lat="47.2820109652" lon="7.4167187051">
				<ele>579.4</ele>
				<time>2021-04-12T11:58:56+02:00</time>
				<extensions>
					<swisstopo:routepoint_id>1566259995</swisstopo:routepoint_id>
				</extensions>
			</trkpt>
			<trkpt lat="47.2820061218" lon="7.4164664720">
				<ele>579.0</ele>
				<time>2021-04-12T11:58:57+02:00</time>
				<extensions>
					<swisstopo:routepoint_id>277191039</swisstopo:routepoint_id>
				</extensions>
			</trkpt>
			<trkpt lat="47.2820003042" lon="7.4162132089">
				<ele>578.6</ele>
				<time>2021-04-12T11:58:58+02:00</time>
				<extensions>
					<swisstopo:routepoint_id>857762130</swisstopo:routepoint_id>
				</extensions>
			</trkpt>
			<trkpt lat="47.2819934833" lon="7.4159605236">
				<ele>578.2</ele>
				<time>2021-04-12T11:58:59+02:00</time>
				<extensions>
					<swisstopo:routepoint_id>350396599</swisstopo:routepoint_id>
				</extensions>
			</trkpt>
			<trkpt lat="47.2819857792" lon="7.4157098917">
				<ele>577.8</ele>
				<time>2021-04-12T11:59:00+02:00</time>
				<extensions>
					<swisstopo:routepoint_id>715479319</swisstopo:routepoint_id>
				</extensions>
			</trkpt>
			<trkpt lat="47.2819771818" lon="7.4154622174">
				<ele>577.4</ele>
				<time>2021-04-12T11:59:01+02:00</time>
				<extensions>
					<swisstopo:routepoint_id>1299974880</swisstopo:routepoint_id>
				</extensions>
			</trkpt>
			<trkpt lat="47.2819664992" lon="7.4152187201">
				<ele>577.0</ele>
				<time>2021-04-12T11:59:02+02:00</time>
				<extensions>
					<swisstopo:routepoint_id>179183582</swisstopo:routepoint_id>
				</extensions>
			</trkpt>
			<trkpt lat="47.2819521371" lon="7.4149796627">
				<ele>576.6</ele>
				<time>2021-04-12T11:59:03+02:00</time>
				<extensions>
					<swisstopo:routepoint_id>766389580</swisstopo:routepoint_id>
				</extensions>
			</trkpt>
			<trkpt lat="47.2819327834" lon="7.4147454095">
				<ele>576.2</ele>
				<time>2021-04-12T11:59:04+02:00</time>
				<extensions>
					<swisstopo:routepoint_id>102756354</swisstopo:routepoint_id>
				</extensions>
			</trkpt>
			<trkpt lat="47.2819074207" lon="7.4145159220">
				<ele>575.8</ele>
				<time>2021-04-12T11:59:05+02:00</time>
				<extensions>
					<swisstopo:routepoint_id>449189490</swisstopo:routepoint_id>
				</extensions>
			</trkpt>
			<trkpt lat="47.2818750763" lon="7.4142916197">
				<ele>575.4</ele>
				<time>2021-04-12T11:59:06+02:00</time>
				<extensions>
					<swisstopo:routepoint_id>1122739225</swisstopo:routepoint_id>
				</extensions>
			</trkpt>
			<trkpt lat="47.2818349719" lon="7.4140730707">
				<ele>575.0</ele>
				<time>2021-04-12T11:59:07+02:00</time>
				<extensions>
					<swisstopo:routepoint_id>2086832033</swisstopo:routepoint_id>
				</extensions>
			</trkpt>
			<trkpt lat="47.2817867223" lon="7.4138605067">
				<ele>574.5</ele>
				<time>2021-04-12T11:59:08+02:00</time>
				<extensions>
					<swisstopo:routepoint_id>683055827</swisstopo:routepoint_id>
				</extensions>
			</trkpt>
			<trkpt lat="47.2817302551" lon="7.4136539727">
				<ele>574.1</ele>
				<time>2021-04-12T11:59:09+02:00</time>
				<extensions>
					<swisstopo:routepoint_id>1819191174</swisstopo:routepoint_id>
				</extensions>
			</trkpt>
			<trkpt lat="47.2816650822" lon="7.4134527059">
				<ele>573.7</ele>
				<time>2021-04-12T11:59:10+02:00</time>
				<extensions>
					<swisstopo:routepoint_id>1421379079</swisstopo:routepoint_id>
				</extensions>
			</trkpt>
			<trkpt lat="47.2815908750" lon="7.4132567395">
				<ele>573.3</ele>
				<time>2021-04-12T11:59:11+02:00</time>
				<extensions>
					<swisstopo:routepoint_id>510091525</swisstopo:routepoint_id>
				</extensions>
			</trkpt>
			<trkpt lat="47.2815078358" lon="7.4130666626">
				<ele>572.9</ele>
				<time>2021-04-12T11:59:12+02:00</time>
				<extensions>
					<swisstopo:routepoint_id>353541851</swisstopo:routepoint_id>
				</extensions>
			</trkpt>
			<trkpt lat="47.2814162808" lon="7.4128825911">
				<ele>572.5</ele>
				<time>2021-04-12T11:59:13+02:00</time>
				<extensions>
					<swisstopo:routepoint_id>2038122155</swisstopo:routepoint_id>
				</extensions>
			</trkpt>
			<trkpt lat="47.2813173418" lon="7.4127036625">
				<ele>572.2</ele>
				<time>2021-04-12T11:59:14+02:00</time>
				<extensions>
					<swisstopo:routepoint_id>207405788</swisstopo:routepoint_id>
				</extensions>
			</trkpt>
			<trkpt lat="47.2812131719" lon="7.4125289171">
				<ele>571.9</ele>
				<time>2021-04-12T11:59:15+02:00</time>
				<extensions>
					<swisstopo:routepoint_id>503119835</swisstopo:routepoint_id>
				</extensions>
			</trkpt>
			<trkpt lat="47.2811058757" lon="7.4123578932">
				<ele>571.7</ele>
				<time>2021-04-12T11:59:16+02:00</time>
				<extensions>
					<swisstopo:routepoint_id>1291948606</swisstopo:routepoint_id>
				</extensions>
			</trkpt>
			<trkpt lat="47.2809963826" lon="7.4121896747">
				<ele>571.4</ele>
				<time>2021-04-12T11:59:17+02:00</time>
				<extensions>
					<swisstopo:routepoint_id>573066225</swisstopo:routepoint_id>
				</extensions>
			</trkpt>
			<trkpt lat="47.2808857199" lon="7.4120250312">
				<ele>571.2</ele>
				<time>2021-04-12T11:59:18+02:00</time>
				<extensions>
					<swisstopo:routepoint_id>59886780</swisstopo:routepoint_id>
				</extensions>
			</trkpt>
			<trkpt lat="47.2807748328" lon="7.4118641790">
				<ele>571.0</ele>
				<time>2021-04-12T11:59:19+02:00</time>
				<extensions>
					<swisstopo:routepoint_id>1494764664</swisstopo:routepoint_id>
				</extensions>
			</trkpt>
			<trkpt lat="47.2806650552" lon="7.4117068078">
				<ele>570.9</ele>
				<time>2021-04-12T11:59:20+02:00</time>
				<extensions>
					<swisstopo:routepoint_id>1246005242</swisstopo:routepoint_id>
				</extensions>
			</trkpt>
			<trkpt lat="47.2805575399" lon="7.4115517155">
				<ele>570.7</ele>
				<time>2021-04-12T11:59:21+02:00</time>
				<extensions>
					<swisstopo:routepoint_id>1497060397</swisstopo:routepoint_id>
				</extensions>
			</trkpt>
			<trkpt lat="47.2804537466" lon="7.4113974742">
				<ele>570.4</ele>
				<time>2021-04-12T11:59:22+02:00</time>
				<extensions>
					<swisstopo:routepoint_id>1175684127</swisstopo:routepoint_id>
				</extensions>
			</trkpt>
			<trkpt lat="47.2803554091" lon="7.4112419407">
				<ele>570.2</ele>
				<time>2021-04-12T11:59:23+02:00</time>
				<extensions>
					<swisstopo:routepoint_id>726086442</swisstopo:routepoint_id>
				</extensions>
			</trkpt>
			<trkpt lat="47.2802634265" lon="7.4110831357">
				<ele>569.9</ele>
				<time>2021-04-12T11:59:24+02:00</time>
				<extensions>
					<swisstopo:routepoint_id>1332748440</swisstopo:routepoint_id>
				</extensions>
			</trkpt>
			<trkpt lat="47.2801782479" lon="7.4109196372">
				<ele>569.7</ele>
				<time>2021-04-12T11:59:25+02:00</time>
				<extensions>
					<swisstopo:routepoint_id>1248592870</swisstopo:routepoint_id>
				</extensions>
			</trkpt>
			<trkpt lat="47.2801000478" lon="7.4107503017">
				<ele>569.4</ele>
				<time>2021-04-12T11:59:26+02:00</time>
				<extensions>
					<swisstopo:routepoint_id>2037651253</swisstopo:routepoint_id>
				</extensions>
			</trkpt>
			<trkpt lat="47.2800283381" lon="7.4105751251">
				<ele>569.1</ele>
				<time>2021-04-12T11:59:27+02:00</time>
				<extensions>
					<swisstopo:routepoint_id>882890462</swisstopo:routepoint_id>
				</extensions>
			</trkpt>
			<trkpt lat="47.2799624460" lon="7.4103944443">
				<ele>568.7</ele>
				<time>2021-04-12T11:59:28+02:00</time>
				<extensions>
					<swisstopo:routepoint_id>1775477711</swisstopo:routepoint_id>
				</extensions>
			</trkpt>
			<trkpt lat="47.2799022671" lon="7.4102089415">
				<ele>568.4</ele>
				<time>2021-04-12T11:59:29+02:00</time>
				<extensions>
					<swisstopo:routepoint_id>1168613712</swisstopo:routepoint_id>
				</extensions>
			</trkpt>
			<trkpt lat="47.2798483517" lon="7.4100180906">
				<ele>568.0</ele>
				<time>2021-04-12T11:59:30+02:00</time>
				<extensions>
					<swisstopo:routepoint_id>5222122</swisstopo:routepoint_id>
				</extensions>
			</trkpt>
			<trkpt lat="47.2798016472" lon="7.4098218552">
				<ele>567.5</ele>
				<time>2021-04-12T11:59:31+02:00</time>
				<extensions>
					<swisstopo:routepoint_id>1868858574</swisstopo:routepoint_id>
				</extensions>
			</trkpt>
			<trkpt lat="47.2797628706" lon="7.4096206177">
				<ele>567.1</ele>
				<time>2021-04-12T11:59:32+02:00</time>
				<extensions>
					<swisstopo:routepoint_id>810232196</swisstopo:routepoint_id>
				</extensions>
			</trkpt>
			<trkpt lat="47.2797324757" lon="7.4094144842">
				<ele>566.6</ele>
				<time>2021-04-12T11:59:33+02:00</time>
				<extensions>
					<swisstopo:routepoint_id>378712545</swisstopo:routepoint_id>
				</extensions>
			</trkpt>
			<trkpt lat="47.2797111600" lon="7.4092035768">
				<ele>566.2</ele>
				<time>2021-04-12T11:59:34+02:00</time>
				<extensions>
					<swisstopo:routepoint_id>2027697754</swisstopo:routepoint_id>
				</extensions>
			</trkpt>
			<trkpt lat="47.2796992245" lon="7.4089885745">
				<ele>565.7</ele>
				<time>2021-04-12T11:59:35+02:00</time>
				<extensions>
					<swisstopo:routepoint_id>1098157235</swisstopo:routepoint_id>
				</extensions>
			</trkpt>
			<trkpt lat="47.2796965060" lon="7.4087700988">
				<ele>565.2</ele>
				<time>2021-04-12T11:59:36+02:00</time>
				<extensions>
					<swisstopo:routepoint_id>1254186327</swisstopo:routepoint_id>
				</extensions>
			</trkpt>
			<trkpt lat="47.2797024294" lon="7.4085488774">
				<ele>564.7</ele>
				<time>2021-04-12T11:59:37+02:00</time>
				<extensions>
					<swisstopo:routepoint_id>1557602584</swisstopo:routepoint_id>
				</extensions>
			</trkpt>
			<trkpt lat="47.2797155380" lon="7.4083258279">
				<ele>564.3</ele>
				<time>2021-04-12T11:59:38+02:00</time>
				<extensions>
					<swisstopo:routepoint_id>800972358</swisstopo:routepoint_id>
				</extensions>
			</trkpt>
			<trkpt lat="47.2797342001" lon="7.4081015838">
				<ele>563.8</ele>
				<time>2021-04-12T11:59:39+02:00</time>
				<extensions>
					<swisstopo:routepoint_id>1514921510</swisstopo:routepoint_id>
				</extensions>
			</trkpt>
			<trkpt lat="47.2797566894" lon="7.4078767860">
				<ele>563.4</ele>
				<time>2021-04-12T11:59:40+02:00</time>
				<extensions>
					<swisstopo:routepoint_id>719699738</swisstopo:routepoint_id>
				</extensions>
			</trkpt>
			<trkpt lat="47.2797816866" lon="7.4076521068">
				<ele>563.0</ele>
				<time>2021-04-12T11:59:41+02:00</time>
				<extensions>
					<swisstopo:routepoint_id>1365596662</swisstopo:routepoint_id>
				</extensions>
			</trkpt>
			<trkpt lat="47.2798078710" lon="7.4074282672">
				<ele>562.6</ele>
				<time>2021-04-12T11:59:42+02:00</time>
				<extensions>
					<swisstopo:routepoint_id>1425362745</swisstopo:routepoint_id>
				</extensions>
			</trkpt>
			<trkpt lat="47.2798338552" lon="7.4072059648">
				<ele>562.3</ele>
				<time>2021-04-12T11:59:43+02:00</time>
				<extensions>
					<swisstopo:routepoint_id>891572930</swisstopo:routepoint_id>
				</extensions>
			</trkpt>
			<trkpt lat="47.2798582222" lon="7.4069852821">
				<ele>561.9</ele>
				<time>2021-04-12T11:59:44+02:00</time>
				<extensions>
					<swisstopo:routepoint_id>1672829391</swisstopo:routepoint_id>
				</extensions>
			</trkpt>
			<trkpt lat="47.2798788174" lon="7.4067663059">
				<ele>561.5</ele>
				<time>2021-04-12T11:59:45+02:00</time>
				<extensions>
					<swisstopo:routepoint_id>387668013</swisstopo:routepoint_id>
				</extensions>
			</trkpt>
			<trkpt lat="47.2798933296" lon="7.4065495749">
				<ele>561.1</ele>
				<time>2021-04-12T11:59:46+02:00</time>
				<extensions>
					<swisstopo:routepoint_id>70909493</swisstopo:routepoint_id>
				</extensions>
			</trkpt>
			<trkpt lat="47.2799003979" lon="7.4063351514">
				<ele>560.7</ele>
				<time>2021-04-12T11:59:47+02:00</time>
				<extensions>
					<swisstopo:routepoint_id>2069908413</swisstopo:routepoint_id>
				</extensions>
			</trkpt>
			<trkpt lat="47.2798992983" lon="7.4061227706">
				<ele>560.2</ele>
				<time>2021-04-12T11:59:48+02:00</time>
				<extensions>
					<swisstopo:routepoint_id>1863099538</swisstopo:routepoint_id>
				</extensions>
			</trkpt>
			<trkpt lat="47.2798902139" lon="7.4059124680">
				<ele>559.8</ele>
				<time>2021-04-12T11:59:49+02:00</time>
				<extensions>
					<swisstopo:routepoint_id>654878259</swisstopo:routepoint_id>
				</extensions>
			</trkpt>
			<trkpt lat="47.2798741346" lon="7.4057043215">
				<ele>559.4</ele>
				<time>2021-04-12T11:59:50+02:00</time>
				<extensions>
					<swisstopo:routepoint_id>685208138</swisstopo:routepoint_id>
				</extensions>
			</trkpt>
			<trkpt lat="47.2798522094" lon="7.4054981760">
				<ele>559.0</ele>
				<time>2021-04-12T11:59:51+02:00</time>
				<extensions>
					<swisstopo:routepoint_id>1485860152</swisstopo:routepoint_id>
				</extensions>
			</trkpt>
			<trkpt lat="47.2798258892" lon="7.4052939809">
				<ele>558.7</ele>
				<time>2021-04-12T11:59:52+02:00</time>
				<extensions>
					<swisstopo:routepoint_id>1911727348</swisstopo:routepoint_id>
				</extensions>
			</trkpt>
			<trkpt lat="47.2797962763" lon="7.4050917842">
				<ele>558.3</ele>
				<time>2021-04-12T11:59:53+02:00</time>
				<extensions>
					<swisstopo:routepoint_id>1898695069</swisstopo:routepoint_id>
				</extensions>
			</trkpt>
			<trkpt lat="47.2797645006" lon="7.4048913854">
				<ele>558.0</ele>
				<time>2021-04-12T11:59:54+02:00</time>
				<extensions>
					<swisstopo:routepoint_id>1908513910</swisstopo:routepoint_id>
				</extensions>
			</trkpt>
			<trkpt lat="47.2797310113" lon="7.4046929909">
				<ele>557.8</ele>
				<time>2021-04-12T11:59:55+02:00</time>
				<extensions>
					<swisstopo:routepoint_id>1577533778</swisstopo:routepoint_id>
				</extensions>
			</trkpt>
			<trkpt lat="47.2796965926" lon="7.4044964711">
				<ele>557.5</ele>
				<time>2021-04-12T11:59:56+02:00</time>
				<extensions>
					<swisstopo:routepoint_id>777100984</swisstopo:routepoint_id>
				</extensions>
			</trkpt>
			<trkpt lat="47.2796619677" lon="7.4043019196">
				<ele>557.2</ele>
				<time>2021-04-12T11:59:57+02:00</time>
				<extensions>
					<swisstopo:routepoint_id>1888180681</swisstopo:routepoint_id>
				</extensions>
			</trkpt>
			<trkpt lat="47.2796274486" lon="7.4041093535">
				<ele>557.0</ele>
				<time>2021-04-12T11:59:58+02:00</time>
				<extensions>
					<swisstopo:routepoint_id>1286853848</swisstopo:routepoint_id>
				</extensions>
			</trkpt>
			<trkpt lat="47.2795928769" lon="7.4039187638">
				<ele>556.7</ele>
				<time>2021-04-12T11:59:59+02:00</time>
				<extensions>
					<swisstopo:routepoint_id>844814399</swisstopo:routepoint_id>
				</extensions>
			</trkpt>
			<trkpt lat="47.2795580678" lon="7.4037301776">
				<ele>556.4</ele>
				<time>2021-04-12T12:00:00+02:00</time>
				<extensions>
					<swisstopo:routepoint_id>1781213676</swisstopo:routepoint_id>
				</extensions>
			</trkpt>
			<trkpt lat="47.2795230507" lon="7.4035432832">
				<ele>556.0</ele>
				<time>2021-04-12T12:00:01+02:00</time>
				<extensions>
					<swisstopo:routepoint_id>936213352</swisstopo:routepoint_id>
				</extensions>
			</trkpt>
			<trkpt lat="47.2794880290" lon="7.4033576273">
				<ele>555.7</ele>
				<time>2021-04-12T12:00:02+02:00</time>
				<extensions>
					<swisstopo:routepoint_id>325125495</swisstopo:routepoint_id>
				</extensions>
			</trkpt>
			<trkpt lat="47.2794538775" lon="7.4031725380">
				<ele>555.4</ele>
				<time>2021-04-12T12:00:03+02:00</time>
				<extensions>
					<swisstopo:routepoint_id>1185796497</swisstopo:routepoint_id>
				</extensions>
			</trkpt>
			<trkpt lat="47.2794216940" lon="7.4029876525">
				<ele>555.1</ele>
				<time>2021-04-12T12:00:04+02:00</time>
				<extensions>
					<swisstopo:routepoint_id>1033480919</swisstopo:routepoint_id>
				</extensions>
			</trkpt>
			<trkpt lat="47.2793922575" lon="7.4028021004">
				<ele>554.8</ele>
				<time>2021-04-12T12:00:05+02:00</time>
				<extensions>
					<swisstopo:routepoint_id>866068697</swisstopo:routepoint_id>
				</extensions>
			</trkpt>
			<trkpt lat="47.2793668198" lon="7.4026160357">
				<ele>554.5</ele>
				<time>2021-04-12T12:00:06+02:00</time>
				<extensions>
					<swisstopo:routepoint_id>372431113</swisstopo:routepoint_id>
				</extensions>
			</trkpt>
			<trkpt lat="47.2793460183" lon="7.4024291234">
				<ele>554.3</ele>
				<time>2021-04-12T12:00:07+02:00</time>
				<extensions>
					<swisstopo:routepoint_id>1682368833</swisstopo:routepoint_id>
				</extensions>
			</trkpt>
			<trkpt lat="47.2793302344" lon="7.4022411292">
				<ele>554.0</ele>
				<time>2021-04-12T12:00:08+02:00</time>
				<extensions>
					<swisstopo:routepoint_id>1803279829</swisstopo:routepoint_id>
				</extensions>
			</trkpt>
			<trkpt lat="47.2793192368" lon="7.4020523565">
				<ele>553.7</ele>
				<time>2021-04-12T12:00:09+02:00</time>
				<extensions>
					<swisstopo:routepoint_id>287375892</swisstopo:routepoint_id>
				</extensions>
			</trkpt>
			<trkpt lat="47.2793123798" lon="7.4018625413">
				<ele>553.4</ele>
				<time>2021-04-12T12:00:10+02:00</time>
				<extensions>
					<swisstopo:routepoint_id>235894741</swisstopo:routepoint_id>
				</extensions>
			</trkpt>
			<trkpt lat="47.2793087379" lon="7.4016719575">
				<ele>553.1</ele>
				<time>2021-04-12T12:00:11+02:00</time>
				<extensions>
					<swisstopo:routepoint_id>428099625</swisstopo:routepoint_id>
				</extensions>
			</trkpt>
			<trkpt lat="47.2793076376" lon="7.4014806617">
				<ele>552.8</ele>
				<time>2021-04-12T12:00:12+02:00</time>
				<extensions>
					<swisstopo:routepoint_id>1000179925</swisstopo:routepoint_id>
				</extensions>
			</trkpt>
			<trkpt lat="47.2793086816" lon="7.4012887893">
				<ele>552.5</ele>
				<time>2021-04-12T12:00:13+02:00</time>
				<extensions>
					<swisstopo:routepoint_id>1669494406</swisstopo:routepoint_id>
				</extensions>
			</trkpt>
			<trkpt lat="47.2793115150" lon="7.4010968384">
				<ele>552.2</ele>
				<time>2021-04-12T12:00:14+02:00</time>
				<extensions>
					<swisstopo:routepoint_id>171149940</swisstopo:routepoint_id>
				</extensions>
			</trkpt>
			<trkpt lat="47.2793151470" lon="7.4009051230">
				<ele>551.9</ele>
				<time>2021-04-12T12:00:15+02:00</time>
				<extensions>
					<swisstopo:routepoint_id>1036438247</swisstopo:routepoint_id>
				</extensions>
			</trkpt>
			<trkpt lat="47.2793189495" lon="7.4007138673">
				<ele>551.6</ele>
				<time>2021-04-12T12:00:16+02:00</time>
				<extensions>
					<swisstopo:routepoint_id>1177756512</swisstopo:routepoint_id>
				</extensions>
			</trkpt>
			<trkpt lat="47.2793227543" lon="7.4005239884">
				<ele>551.2</ele>
				<time>2021-04-12T12:00:17+02:00</time>
				<extensions>
					<swisstopo:routepoint_id>1196922785</swisstopo:routepoint_id>
				</extensions>
			</trkpt>
			<trkpt lat="47.2793258507" lon="7.4003358256">
				<ele>550.9</ele>
				<time>2021-04-12T12:00:18+02:00</time>
				<extensions>
					<swisstopo:routepoint_id>1201926046</swisstopo:routepoint_id>
				</extensions>
			</trkpt>
			<trkpt lat="47.2793274807" lon="7.4001492691">
				<ele>550.5</ele>
				<time>2021-04-12T12:00:19+02:00</time>
				<extensions>
					<swisstopo:routepoint_id>1539871440</swisstopo:routepoint_id>
				</extensions>
			</trkpt>
			<trkpt lat="47.2793271248" lon="7.3999641629">
				<ele>550.1</ele>
				<time>2021-04-12T12:00:20+02:00</time>
				<extensions>
					<swisstopo:routepoint_id>1293862083</swisstopo:routepoint_id>
				</extensions>
			</trkpt>
			<trkpt lat="47.2793242027" lon="7.3997805100">
				<ele>549.7</ele>
				<time>2021-04-12T12:00:21+02:00</time>
				<extensions>
					<swisstopo:routepoint_id>520619459</swisstopo:routepoint_id>
				</extensions>
			</trkpt>
			<trkpt lat="47.2793181928" lon="7.3995975706">
				<ele>549.4</ele>
				<time>2021-04-12T12:00:22+02:00</time>
				<extensions>
					<swisstopo:routepoint_id>1202869535</swisstopo:routepoint_id>
				</extensions>
			</trkpt>
			<trkpt lat="47.2793091435" lon="7.3994154407">
				<ele>549.0</ele>
				<time>2021-04-12T12:00:23+02:00</time>
				<extensions>
					<swisstopo:routepoint_id>217221887</swisstopo:routepoint_id>
				</extensions>
			</trkpt>
			<trkpt lat="47.2792972508" lon="7.3992339165">
				<ele>548.6</ele>
				<time>2021-04-12T12:00:24+02:00</time>
				<extensions>
					<swisstopo:routepoint_id>126054909</swisstopo:routepoint_id>
				</extensions>
			</trkpt>
			<trkpt lat="47.2792827257" lon="7.3990529872">
				<ele>548.3</ele>
				<time>2021-04-12T12:00:25+02:00</time>
				<extensions>
					<swisstopo:routepoint_id>1185979621</swisstopo:routepoint_id>
				</extensions>
			</trkpt>
			<trkpt lat="47.2792656270" lon="7.3988724873">
				<ele>547.9</ele>
				<time>2021-04-12T12:00:26+02:00</time>
				<extensions>
					<swisstopo:routepoint_id>1963762340</swisstopo:routepoint_id>
				</extensions>
			</trkpt>
			<trkpt lat="47.2792459166" lon="7.3986923924">
				<ele>547.5</ele>
				<time>2021-04-12T12:00:27+02:00</time>
				<extensions>
					<swisstopo:routepoint_id>277477637</swisstopo:routepoint_id>
				</extensions>
			</trkpt>
			<trkpt lat="47.2792234397" lon="7.3985127443">
				<ele>547.0</ele>
				<time>2021-04-12T12:00:28+02:00</time>
				<extensions>
					<swisstopo:routepoint_id>1379647422</swisstopo:routepoint_id>
				</extensions>
			</trkpt>
			<trkpt lat="47.2791975296" lon="7.3983335251">
				<ele>546.6</ele>
				<time>2021-04-12T12:00:29+02:00</time>
				<extensions>
					<swisstopo:routepoint_id>1353284895</swisstopo:routepoint_id>
				</extensions>
			</trkpt>
			<trkpt lat="47.2791679902" lon="7.3981552271">
				<ele>546.2</ele>
				<time>2021-04-12T12:00:30+02:00</time>
				<extensions>
					<swisstopo:routepoint_id>659924888</swisstopo:routepoint_id>
				</extensions>
			</trkpt>
			<trkpt lat="47.2791351411" lon="7.3979785116">
				<ele>545.8</ele>
				<time>2021-04-12T12:00:31+02:00</time>
				<extensions>
					<swisstopo:routepoint_id>1752039508</swisstopo:routepoint_id>
				</extensions>
			</trkpt>
			<trkpt lat="47.2790994514" lon="7.3978046396">
				<ele>545.3</ele>
				<time>2021-04-12T12:00:32+02:00</time>
				<extensions>
					<swisstopo:routepoint_id>232243292</swisstopo:routepoint_id>
				</extensions>
			</trkpt>
			<trkpt lat="47.2790614863" lon="7.3976336911">
				<ele>544.9</ele>
				<time>2021-04-12T12:00:33+02:00</time>
				<extensions>
					<swisstopo:routepoint_id>1335222045</swisstopo:routepoint_id>
				</extensions>
			</trkpt>
			<trkpt lat="47.2790219651" lon="7.3974656961">
				<ele>544.4</ele>
				<time>2021-04-12T12:00:34+02:00</time>
				<extensions>
					<swisstopo:routepoint_id>2020282812</swisstopo:routepoint_id>
				</extensions>
			</trkpt>
			<trkpt lat="47.2789819582" lon="7.3973001138">
				<ele>544.0</ele>
				<time>2021-04-12T12:00:35+02:00</time>
				<extensions>
					<swisstopo:routepoint_id>1029278567</swisstopo:routepoint_id>
				</extensions>
			</trkpt>
			<trkpt lat="47.2789420616" lon="7.3971370567">
				<ele>543.6</ele>
				<time>2021-04-12T12:00:36+02:00</time>
				<extensions>
					<swisstopo:routepoint_id>1104098984</swisstopo:routepoint_id>
				</extensions>
			</trkpt>
			<trkpt lat="47.2789027162" lon="7.3969764219">
				<ele>543.3</ele>
				<time>2021-04-12T12:00:37+02:00</time>
				<extensions>
					<swisstopo:routepoint_id>185430361</swisstopo:routepoint_id>
				</extensions>
			</trkpt>
			<trkpt lat="47.2788641587" lon="7.3968183265">
				<ele>543.0</ele>
				<time>2021-04-12T12:00:38+02:00</time>
				<extensions>
					<swisstopo:routepoint_id>529305530</swisstopo:routepoint_id>
				</extensions>
			</trkpt>
			<trkpt lat="47.2788262696" lon="7.3966625414">
				<ele>542.8</ele>
				<time>2021-04-12T12:00:39+02:00</time>
				<extensions>
					<swisstopo:routepoint_id>1160776836</swisstopo:routepoint_id>
				</extensions>
			</trkpt>
			<trkpt lat="47.2787892583" lon="7.3965088103">
				<ele>542.5</ele>
				<time>2021-04-12T12:00:40+02:00</time>
				<extensions>
					<swisstopo:routepoint_id>1434833304</swisstopo:routepoint_id>
				</extensions>
			</trkpt>
			<trkpt lat="47.2787533686" lon="7.3963570271">
				<ele>542.3</ele>
				<time>2021-04-12T12:00:41+02:00</time>
				<extensions>
					<swisstopo:routepoint_id>1149468165</swisstopo:routepoint_id>
				</extensions>
			</trkpt>
			<trkpt lat="47.2787179648" lon="7.3962078445">
				<ele>542.1</ele>
				<time>2021-04-12T12:00:42+02:00</time>
				<extensions>
					<swisstopo:routepoint_id>348560743</swisstopo:routepoint_id>
				</extensions>
			</trkpt>
			<trkpt lat="47.2786828439" lon="7.3960614697">
				<ele>541.9</ele>
				<time>2021-04-12T12:00:43+02:00</time>
				<extensions>
					<swisstopo:routepoint_id>2072502232</swisstopo:routepoint_id>
				</extensions>
			</trkpt>
			<trkpt lat="47.2786486523" lon="7.3959170376">
				<ele>541.7</ele>
				<time>2021-04-12T12:00:44+02:00</time>
				<extensions>
					<swisstopo:routepoint_id>360258884</swisstopo:routepoint_id>
				</extensions>
			</trkpt>
			<trkpt lat="47.2786165072" lon="7.3957738535">
				<ele>541.5</ele>
				<time>2021-04-12T12:00:45+02:00</time>
				<extensions>
					<swisstopo:routepoint_id>1114662495</swisstopo:routepoint_id>
				</extensions>
			</trkpt>
			<trkpt lat="47.2785878013" lon="7.3956312676">
				<ele>541.3</ele>
				<time>2021-04-12T12:00:46+02:00</time>
				<extensions>
					<swisstopo:routepoint_id>1632700684</swisstopo:routepoint_id>
				</extensions>
			</trkpt>
			<trkpt lat="47.2785639578" lon="7.3954891111">
				<ele>541.2</ele>
				<time>2021-04-12T12:00:47+02:00</time>
				<extensions>
					<swisstopo:routepoint_id>254354622</swisstopo:routepoint_id>
				</extensions>
			</trkpt>
			<trkpt lat="47.2785457309" lon="7.3953468004">
				<ele>541.0</ele>
				<time>2021-04-12T12:00:48+02:00</time>
				<extensions>
					<swisstopo:routepoint_id>1445674424</swisstopo:routepoint_id>
				</extensions>
			</trkpt>
			<trkpt lat="47.2785339822" lon="7.3952039347">
				<ele>540.8</ele>
				<time>2021-04-12T12:00:49+02:00</time>
				<extensions>
					<swisstopo:routepoint_id>820062010</swisstopo:routepoint_id>
				</extensions>
			</trkpt>
			<trkpt lat="47.2785296113" lon="7.3950595869">
				<ele>540.6</ele>
				<time>2021-04-12T12:00:50+02:00</time>
				<extensions>
					<swisstopo:routepoint_id>232155624</swisstopo:routepoint_id>
				</extensions>
			</trkpt>
			<trkpt lat="47.2785333166" lon="7.3949137124">
				<ele>540.3</ele>
				<time>2021-04-12T12:00:51+02:00</time>
				<extensions>
					<swisstopo:routepoint_id>2009269616</swisstopo:routepoint_id>
				</extensions>
			</trkpt>
			<trkpt lat="47.2785447105" lon="7.3947666906">
				<ele>540.1</ele>
				<time>2021-04-12T12:00:52+02:00</time>
				<extensions>
					<swisstopo:routepoint_id>614087037</swisstopo:routepoint_id>
				</extensions>
			</trkpt>
			<trkpt lat="47.2785628564" lon="7.3946187949">
				<ele>539.9</ele>
				<time>2021-04-12T12:00:53+02:00</time>
				<extensions>
					<swisstopo:routepoint_id>154423377</swisstopo:routepoint_id>
				</extensions>
			</trkpt>
			<trkpt lat="47.2785863953" lon="7.3944702762">
				<ele>539.7</ele>
				<time>2021-04-12T12:00:54+02:00</time>
				<extensions>
					<swisstopo:routepoint_id>1233451663</swisstopo:routepoint_id>
				</extensions>
			</trkpt>
			<trkpt lat="47.2786140804" lon="7.3943207732">
				<ele>539.5</ele>
				<time>2021-04-12T12:00:55+02:00</time>
				<extensions>
					<swisstopo:routepoint_id>962455550</swisstopo:routepoint_id>
				</extensions>
			</trkpt>
			<trkpt lat="47.2786443898" lon="7.3941694548">
				<ele>539.4</ele>
				<time>2021-04-12T12:00:56+02:00</time>
				<extensions>
					<swisstopo:routepoint_id>1143599646</swisstopo:routepoint_id>
				</extensions>
			</trkpt>
			<trkpt lat="47.2786771372" lon="7.3940170350">
				<ele>539.2</ele>
				<time>2021-04-12T12:00:57+02:00</time>
				<extensions>
					<swisstopo:routepoint_id>500609672</swisstopo:routepoint_id>
				</extensions>
			</trkpt>
			<trkpt lat="47.2787119700" lon="7.3938644612">
				<ele>539.0</ele>
				<time>2021-04-12T12:00:58+02:00</time>
				<extensions>
					<swisstopo:routepoint_id>2053312005</swisstopo:routepoint_id>
				</extensions>
			</trkpt>
			<trkpt lat="47.2787477430" lon="7.3937119639">
				<ele>538.9</ele>
				<time>2021-04-12T12:00:59+02:00</time>
				<extensions>
					<swisstopo:routepoint_id>2100144392</swisstopo:routepoint_id>
				</extensions>
			</trkpt>
			<trkpt lat="47.2787840189" lon="7.3935601355">
				<ele>538.7</ele>
				<time>2021-04-12T12:01:00+02:00</time>
				<extensions>
					<swisstopo:routepoint_id>1085574252</swisstopo:routepoint_id>
				</extensions>
			</trkpt>
			<trkpt lat="47.2788202487" lon="7.3934097801">
				<ele>538.5</ele>
				<time>2021-04-12T12:01:01+02:00</time>
				<extensions>
					<swisstopo:routepoint_id>225388452</swisstopo:routepoint_id>
				</extensions>
			</trkpt>
			<trkpt lat="47.2788559337" lon="7.3932617537">
				<ele>538.3</ele>
				<time>2021-04-12T12:01:02+02:00</time>
				<extensions>
					<swisstopo:routepoint_id>2090043103</swisstopo:routepoint_id>
				</extensions>
			</trkpt>
			<trkpt lat="47.2788907276" lon="7.3931165663">
				<ele>538.1</ele>
				<time>2021-04-12T12:01:03+02:00</time>
				<extensions>
					<swisstopo:routepoint_id>964418142</swisstopo:routepoint_id>
				</extensions>
			</trkpt>
			<trkpt lat="47.2789241910" lon="7.3929748831">
				<ele>538.0</ele>
				<time>2021-04-12T12:01:04+02:00</time>
				<extensions>
					<swisstopo:routepoint_id>1916628685</swisstopo:routepoint_id>
				</extensions>
			</trkpt>
			<trkpt lat="47.2789560857" lon="7.3928384877">
				<ele>537.8</ele>
				<time>2021-04-12T12:01:05+02:00</time>
				<extensions>
					<swisstopo:routepoint_id>523603795</swisstopo:routepoint_id>
				</extensions>
			</trkpt>
			<trkpt lat="47.2789858333" lon="7.3927100053">
				<ele>537.6</ele>
				<time>2021-04-12T12:01:06+02:00</time>
				<extensions>
					<swisstopo:routepoint_id>1968480806</swisstopo:routepoint_id>
				</extensions>
			</trkpt>
			<trkpt lat="47.2790138307" lon="7.3925920483">
				<ele>537.5</ele>
				<time>2021-04-12T12:01:07+02:00</time>
				<extensions>
					<swisstopo:routepoint_id>123840760</swisstopo:routepoint_id>
				</extensions>
			</trkpt>
			<trkpt lat="47.2790410281" lon="7.3924868923">
				<ele>537.4</ele>
				<time>2021-04-12T12:01:08+02:00</time>
				<extensions>
					<swisstopo:routepoint_id>479999377</swisstopo:routepoint_id>
				</extensions>
			</trkpt>
			<trkpt lat="47.2790674050" lon="7.3923973300">
				<ele>537.3</ele>
				<time>2021-04-12T12:01:09+02:00</time>
				<extensions>
					<swisstopo:routepoint_id>1400951107</swisstopo:routepoint_id>
				</extensions>
			</trkpt>
			<trkpt lat="47.2790916860" lon="7.3923259973">
				<ele>537.1</ele>
				<time>2021-04-12T12:01:10+02:00</time>
				<extensions>
					<swisstopo:routepoint_id>774549641</swisstopo:routepoint_id>
				</extensions>
			</trkpt>
			<trkpt lat="47.2791124062" lon="7.3922742011">
				<ele>537.0</ele>
				<time>2021-04-12T12:01:11+02:00</time>
				<extensions>
					<swisstopo:routepoint_id>1957431820</swisstopo:routepoint_id>
				</extensions>
			</trkpt>
			<trkpt lat="47.2791286974" lon="7.3922409975">
				<ele>536.9</ele>
				<time>2021-04-12T12:01:12+02:00</time>
				<extensions>
					<swisstopo:routepoint_id>1254610347</swisstopo:routepoint_id>
				</extensions>
			</trkpt>
			<trkpt lat="47.2791410946" lon="7.3922227345">
				<ele>536.9</ele>
				<time>2021-04-12T12:01:13+02:00</time>
				<extensions>
					<swisstopo:routepoint_id>94172136</swisstopo:routepoint_id>
				</extensions>
			</trkpt>
			<trkpt lat="47.2791503276" lon="7.3922169121">
				<ele>536.9</ele>
				<time>2021-04-12T12:01:14+02:00</time>
				<extensions>
					<swisstopo:routepoint_id>55641913</swisstopo:routepoint_id>
				</extensions>
			</trkpt>
			<trkpt lat="47.2791565281" lon="7.3922215229">
				<ele>536.9</ele>
				<time>2021-04-12T12:01:15+02:00</time>
				<extensions>
					<swisstopo:routepoint_id>1018245346</swisstopo:routepoint_id>
				</extensions>
			</trkpt>
			<trkpt lat="47.2791597792" lon="7.3922343293">
				<ele>536.9</ele>
				<time>2021-04-12T12:01:16+02:00</time>
				<extensions>
					<swisstopo:routepoint_id>352347279</swisstopo:routepoint_id>
				</extensions>
			</trkpt>
			<trkpt lat="47.2791607763" lon="7.3922526269">
				<ele>536.9</ele>
				<time>2021-04-12T12:01:17+02:00</time>
				<extensions>
					<swisstopo:routepoint_id>1288303374</swisstopo:routepoint_id>
				</extensions>
			</trkpt>
			<trkpt lat="47.2791605855" lon="7.3922732085">
				<ele>536.9</ele>
				<time>2021-04-12T12:01:18+02:00</time>
				<extensions>
					<swisstopo:routepoint_id>1584677764</swisstopo:routepoint_id>
				</extensions>
			</trkpt>
			<trkpt lat="47.2791606481" lon="7.3922916423">
				<ele>536.9</ele>
				<time>2021-04-12T12:01:19+02:00</time>
				<extensions>
					<swisstopo:routepoint_id>586989454</swisstopo:routepoint_id>
				</extensions>
			</trkpt>
			<trkpt lat="47.2791630223" lon="7.3923032335">
				<ele>536.9</ele>
				<time>2021-04-12T12:01:20+02:00</time>
				<extensions>
					<swisstopo:routepoint_id>2139362707</swisstopo:routepoint_id>
				</extensions>
			</trkpt>
			<trkpt lat="47.2791684259" lon="7.3923051432">
				<ele>536.9</ele>
				<time>2021-04-12T12:01:21+02:00</time>
				<extensions>
					<swisstopo:routepoint_id>950314828</swisstopo:routepoint_id>
				</extensions>
			</trkpt>
			<trkpt lat="47.2791758223" lon="7.3922959144">
				<ele>536.9</ele>
				<time>2021-04-12T12:01:22+02:00</time>
				<extensions>
					<swisstopo:routepoint_id>1105431457</swisstopo:routepoint_id>
				</extensions>
			</trkpt>
			<trkpt lat="47.2791824875" lon="7.3922756038">
				<ele>536.9</ele>
				<time>2021-04-12T12:01:23+02:00</time>
				<extensions>
					<swisstopo:routepoint_id>1105467602</swisstopo:routepoint_id>
				</extensions>
			</trkpt>
			<trkpt lat="47.2791858535" lon="7.3922463913">
				<ele>536.8</ele>
				<time>2021-04-12T12:01:24+02:00</time>
				<extensions>
					<swisstopo:routepoint_id>1712956617</swisstopo:routepoint_id>
				</extensions>
			</trkpt>
			<trkpt lat="47.2791839222" lon="7.3922116526">
				<ele>536.8</ele>
				<time>2021-04-12T12:01:25+02:00</time>
				<extensions>
					<swisstopo:routepoint_id>496090237</swisstopo:routepoint_id>
				</extensions>
			</trkpt>
			<trkpt lat="47.2791756202" lon="7.3921753891">
				<ele>536.9</ele>
				<time>2021-04-12T12:01:26+02:00</time>
				<extensions>
					<swisstopo:routepoint_id>1257095605</swisstopo:routepoint_id>
				</extensions>
			</trkpt>
			<trkpt lat="47.2791613837" lon="7.3921409694">
				<ele>537.0</ele>
				<time>2021-04-12T12:01:27+02:00</time>
				<extensions>
					<swisstopo:routepoint_id>1061714049</swisstopo:routepoint_id>
				</extensions>
			</trkpt>
			<trkpt lat="47.2791424684" lon="7.3921121968">
				<ele>537.2</ele>
				<time>2021-04-12T12:01:28+02:00</time>
				<extensions>
					<swisstopo:routepoint_id>786398620</swisstopo:routepoint_id>
				</extensions>
			</trkpt>
			<trkpt lat="47.2791201279" lon="7.3920910314">
				<ele>537.4</ele>
				<time>2021-04-12T12:01:29+02:00</time>
				<extensions>
					<swisstopo:routepoint_id>1387242702</swisstopo:routepoint_id>
				</extensions>
			</trkpt>
			<trkpt lat="47.2790952744" lon="7.3920772761">
				<ele>537.6</ele>
				<time>2021-04-12T12:01:30+02:00</time>
				<extensions>
					<swisstopo:routepoint_id>158137035</swisstopo:routepoint_id>
				</extensions>
			</trkpt>
			<trkpt lat="47.2790685500" lon="7.3920695474">
				<ele>537.8</ele>
				<time>2021-04-12T12:01:31+02:00</time>
				<extensions>
					<swisstopo:routepoint_id>1371875906</swisstopo:routepoint_id>
				</extensions>
			</trkpt>
			<trkpt lat="47.2790409032" lon="7.3920667065">
				<ele>538.1</ele>
				<time>2021-04-12T12:01:32+02:00</time>
				<extensions>
					<swisstopo:routepoint_id>1733917950</swisstopo:routepoint_id>
				</extensions>
			</trkpt>
			<trkpt lat="47.2790132668" lon="7.3920678487">
				<ele>538.2</ele>
				<time>2021-04-12T12:01:33+02:00</time>
				<extensions>
					<swisstopo:routepoint_id>605895860</swisstopo:routepoint_id>
				</extensions>
			</trkpt>
			<trkpt lat="47.2789859241" lon="7.3920712946">
				<ele>538.2</ele>
				<time>2021-04-12T12:01:34+02:00</time>
				<extensions>
					<swisstopo:routepoint_id>2071748593</swisstopo:routepoint_id>
				</extensions>
			</trkpt>
			<trkpt lat="47.2789594184" lon="7.3920753868">
				<ele>538.2</ele>
				<time>2021-04-12T12:01:35+02:00</time>
				<extensions>
					<swisstopo:routepoint_id>578750093</swisstopo:routepoint_id>
				</extensions>
			</trkpt>
			<trkpt lat="47.2789339822" lon="7.3920802308">
				<ele>538.2</ele>
				<time>2021-04-12T12:01:36+02:00</time>
				<extensions>
					<swisstopo:routepoint_id>1099375788</swisstopo:routepoint_id>
				</extensions>
			</trkpt>
			<trkpt lat="47.2789088720" lon="7.3920856635">
				<ele>538.2</ele>
				<time>2021-04-12T12:01:37+02:00</time>
				<extensions>
					<swisstopo:routepoint_id>259570128</swisstopo:routepoint_id>
				</extensions>
			</trkpt>
			<trkpt lat="47.2788841756" lon="7.3920912808">
				<ele>538.2</ele>
				<time>2021-04-12T12:01:38+02:00</time>
				<extensions>
					<swisstopo:routepoint_id>1055854239</swisstopo:routepoint_id>
				</extensions>
			</trkpt>
			<trkpt lat="47.2788604941" lon="7.3920966655">
				<ele>538.2</ele>
				<time>2021-04-12T12:01:39+02:00</time>
				<extensions>
					<swisstopo:routepoint_id>1084819712</swisstopo:routepoint_id>
				</extensions>
			</trkpt>
			<trkpt lat="47.2788378608" lon="7.3921014094">
				<ele>538.2</ele>
				<time>2021-04-12T12:01:40+02:00</time>
				<extensions>
					<swisstopo:routepoint_id>428736554</swisstopo:routepoint_id>
				</extensions>
			</trkpt>
			<trkpt lat="47.2788170989" lon="7.3921056470">
				<ele>538.2</ele>
				<time>2021-04-12T12:01:41+02:00</time>
				<extensions>
					<swisstopo:routepoint_id>967627393</swisstopo:routepoint_id>
				</extensions>
			</trkpt>
			<trkpt lat="47.2787979615" lon="7.3921090964">
				<ele>538.1</ele>
				<time>2021-04-12T12:01:42+02:00</time>
				<extensions>
					<swisstopo:routepoint_id>19935420</swisstopo:routepoint_id>
				</extensions>
			</trkpt>
			<trkpt lat="47.2787804878" lon="7.3921116407">
				<ele>538.1</ele>
				<time>2021-04-12T12:01:43+02:00</time>
				<extensions>
					<swisstopo:routepoint_id>47155008</swisstopo:routepoint_id>
				</extensions>
			</trkpt>
			<trkpt lat="47.2787645784" lon="7.3921136300">
				<ele>538.1</ele>
				<time>2021-04-12T12:01:44+02:00</time>
				<extensions>
					<swisstopo:routepoint_id>112753713</swisstopo:routepoint_id>
				</extensions>
			</trkpt>
			<trkpt lat="47.2787506351" lon="7.3921148804">
				<ele>538.1</ele>
				<time>2021-04-12T12:01:45+02:00</time>
				<extensions>
					<swisstopo:routepoint_id>971077737</swisstopo:routepoint_id>
				</extensions>
			</trkpt>
			<trkpt lat="47.2787382363" lon="7.3921162351">
				<ele>538.0</ele>
				<time>2021-04-12T12:01:46+02:00</time>
				<extensions>
					<swisstopo:routepoint_id>27808559</swisstopo:routepoint_id>
				</extensions>
			</trkpt>
			<trkpt lat="47.2787260931" lon="7.3921183255">
				<ele>538.0</ele>
				<time>2021-04-12T12:01:47+02:00</time>
				<extensions>
					<swisstopo:routepoint_id>1374499714</swisstopo:routepoint_id>
				</extensions>
			</trkpt>
			<trkpt lat="47.2787130652" lon="7.3921207351">
				<ele>537.9</ele>
				<time>2021-04-12T12:01:48+02:00</time>
				<extensions>
					<swisstopo:routepoint_id>735102419</swisstopo:routepoint_id>
				</extensions>
			</trkpt>
			<trkpt lat="47.2786984190" lon="7.3921221871">
				<ele>537.9</ele>
				<time>2021-04-12T12:01:49+02:00</time>
				<extensions>
					<swisstopo:routepoint_id>392934942</swisstopo:routepoint_id>
				</extensions>
			</trkpt>
			<trkpt lat="47.2786821115" lon="7.3921220720">
				<ele>537.8</ele>
				<time>2021-04-12T12:01:50+02:00</time>
				<extensions>
					<swisstopo:routepoint_id>545355669</swisstopo:routepoint_id>
				</extensions>
			</trkpt>
			<trkpt lat="47.2786647822" lon="7.3921202086">
				<ele>537.8</ele>
				<time>2021-04-12T12:01:51+02:00</time>
				<extensions>
					<swisstopo:routepoint_id>332523487</swisstopo:routepoint_id>
				</extensions>
			</trkpt>
			<trkpt lat="47.2786471894" lon="7.3921167712">
				<ele>537.7</ele>
				<time>2021-04-12T12:01:52+02:00</time>
				<extensions>
					<swisstopo:routepoint_id>969796515</swisstopo:routepoint_id>
				</extensions>
			</trkpt>
			<trkpt lat="47.2786304942" lon="7.3921121495">
				<ele>537.7</ele>
				<time>2021-04-12T12:01:53+02:00</time>
				<extensions>
					<swisstopo:routepoint_id>2116630522</swisstopo:routepoint_id>
				</extensions>
			</trkpt>
			<trkpt lat="47.2786152278" lon="7.3921068645">
				<ele>537.7</ele>
				<time>2021-04-12T12:01:54+02:00</time>
				<extensions>
					<swisstopo:routepoint_id>1142570699</swisstopo:routepoint_id>
				</extensions>
			</trkpt>
			<trkpt lat="47.2786016661" lon="7.3921009573">
				<ele>537.7</ele>
				<time>2021-04-12T12:01:55+02:00</time>
				<extensions>
					<swisstopo:routepoint_id>386966619</swisstopo:routepoint_id>
				</extensions>
			</trkpt>
			<trkpt lat="47.2785906334" lon="7.3920952256">
				<ele>537.7</ele>
				<time>2021-04-12T12:01:56+02:00</time>
				<extensions>
					<swisstopo:routepoint_id>1167482417</swisstopo:routepoint_id>
				</extensions>
			</trkpt>
			<trkpt lat="47.2785819082" lon="7.3920898654">
				<ele>537.8</ele>
				<time>2021-04-12T12:01:57+02:00</time>
				<extensions>
					<swisstopo:routepoint_id>318899880</swisstopo:routepoint_id>
				</extensions>
			</trkpt>
			<trkpt lat="47.2785750337" lon="7.3920851152">
				<ele>537.8</ele>
				<time>2021-04-12T12:01:58+02:00</time>
				<extensions>
					<swisstopo:routepoint_id>1778583895</swisstopo:routepoint_id>
				</extensions>
			</trkpt>
			<trkpt lat="47.2785696466" lon="7.3920805906">
				<ele>537.9</ele>
				<time>2021-04-12T12:01:59+02:00</time>
				<extensions>
					<swisstopo:routepoint_id>1834640672</swisstopo:routepoint_id>
				</extensions>
			</trkpt>
			<trkpt lat="47.2785652847" lon="7.3920764163">
				<ele>538.0</ele>
				<time>2021-04-12T12:02:00+02:00</time>
				<extensions>
					<swisstopo:routepoint_id>1235570678</swisstopo:routepoint_id>
				</extensions>
			</trkpt>
			<trkpt lat="47.2785612034" lon="7.3920725411">
				<ele>538.1</ele>
				<time>2021-04-12T12:02:01+02:00</time>
				<extensions>
					<swisstopo:routepoint_id>69518656</swisstopo:routepoint_id>
				</extensions>
			</trkpt>
			<trkpt lat="47.2785565834" lon="7.3920684215">
				<ele>538.0</ele>
				<time>2021-04-12T12:02:02+02:00</time>
				<extensions>
					<swisstopo:routepoint_id>168947424</swisstopo:routepoint_id>
				</extensions>
			</trkpt>
			<trkpt lat="47.2785504410" lon="7.3920632018">
				<ele>538.0</ele>
				<time>2021-04-12T12:02:03+02:00</time>
				<extensions>
					<swisstopo:routepoint_id>525973834</swisstopo:routepoint_id>
				</extensions>
			</trkpt>
			<trkpt lat="47.2785417091" lon="7.3920568379">
				<ele>537.9</ele>
				<time>2021-04-12T12:02:04+02:00</time>
				<extensions>
					<swisstopo:routepoint_id>999536986</swisstopo:routepoint_id>
				</extensions>
			</trkpt>
			<trkpt lat="47.2785288944" lon="7.3920495913">
				<ele>537.9</ele>
				<time>2021-04-12T12:02:05+02:00</time>
				<extensions>
					<swisstopo:routepoint_id>1601036868</swisstopo:routepoint_id>
				</extensions>
			</trkpt>
			<trkpt lat="47.2785105695" lon="7.3920399211">
				<ele>537.8</ele>
				<time>2021-04-12T12:02:06+02:00</time>
				<extensions>
					<swisstopo:routepoint_id>656543566</swisstopo:routepoint_id>
				</extensions>
			</trkpt>
			<trkpt lat="47.2784856458" lon="7.3920264843">
				<ele>537.9</ele>
				<time>2021-04-12T12:02:07+02:00</time>
				<extensions>
					<swisstopo:routepoint_id>756735476</swisstopo:routepoint_id>
				</extensions>
			</trkpt>
			<trkpt lat="47.2784537577" lon="7.3920095657">
				<ele>538.0</ele>
				<time>2021-04-12T12:02:08+02:00</time>
				<extensions>
					<swisstopo:routepoint_id>1054987598</swisstopo:routepoint_id>
				</extensions>
			</trkpt>
			<trkpt lat="47.2784148172" lon="7.3919892005">
				<ele>538.2</ele>
				<time>2021-04-12T12:02:09+02:00</time>
				<extensions>
					<swisstopo:routepoint_id>1551569954</swisstopo:routepoint_id>
				</extensions>
			</trkpt>
			<trkpt lat="47.2783691375" lon="7.3919655418">
				<ele>538.5</ele>
				<time>2021-04-12T12:02:10+02:00</time>
				<extensions>
					<swisstopo:routepoint_id>342291357</swisstopo:routepoint_id>
				</extensions>
			</trkpt>
			<trkpt lat="47.2783170122" lon="7.3919382603">
				<ele>538.9</ele>
				<time>2021-04-12T12:02:11+02:00</time>
				<extensions>
					<swisstopo:routepoint_id>1929630433</swisstopo:routepoint_id>
				</extensions>
			</trkpt>
			<trkpt lat="47.2782591924" lon="7.3919071052">
				<ele>539.3</ele>
				<time>2021-04-12T12:02:12+02:00</time>
				<extensions>
					<swisstopo:routepoint_id>650437</swisstopo:routepoint_id>
				</extensions>
			</trkpt>
			<trkpt lat="47.2781966227" lon="7.3918720778">
				<ele>539.8</ele>
				<time>2021-04-12T12:02:13+02:00</time>
				<extensions>
					<swisstopo:routepoint_id>194476424</swisstopo:routepoint_id>
				</extensions>
			</trkpt>
			<trkpt lat="47.2781300403" lon="7.3918326597">
				<ele>540.4</ele>
				<time>2021-04-12T12:02:14+02:00</time>
				<extensions>
					<swisstopo:routepoint_id>95147434</swisstopo:routepoint_id>
				</extensions>
			</trkpt>
			<trkpt lat="47.2780605859" lon="7.3917881444">
				<ele>541.1</ele>
				<time>2021-04-12T12:02:15+02:00</time>
				<extensions>
					<swisstopo:routepoint_id>1415089870</swisstopo:routepoint_id>
				</extensions>
			</trkpt>
			<trkpt lat="47.2779895695" lon="7.3917377265">
				<ele>541.9</ele>
				<time>2021-04-12T12:02:16+02:00</time>
				<extensions>
					<swisstopo:routepoint_id>34054565</swisstopo:routepoint_id>
				</extensions>
			</trkpt>
			<trkpt lat="47.2779177522" lon="7.3916805400">
				<ele>542.7</ele>
				<time>2021-04-12T12:02:17+02:00</time>
				<extensions>
					<swisstopo:routepoint_id>1124423853</swisstopo:routepoint_id>
				</extensions>
			</trkpt>
			<trkpt lat="47.2778466620" lon="7.3916170304">
				<ele>543.6</ele>
				<time>2021-04-12T12:02:18+02:00</time>
				<extensions>
					<swisstopo:routepoint_id>335603771</swisstopo:routepoint_id>
				</extensions>
			</trkpt>
			<trkpt lat="47.2777775461" lon="7.3915484119">
				<ele>544.5</ele>
				<time>2021-04-12T12:02:19+02:00</time>
				<extensions>
					<swisstopo:routepoint_id>1200522175</swisstopo:routepoint_id>
				</extensions>
			</trkpt>
			<trkpt lat="47.2777115972" lon="7.3914766423">
				<ele>545.4</ele>
				<time>2021-04-12T12:02:20+02:00</time>
				<extensions>
					<swisstopo:routepoint_id>1567331660</swisstopo:routepoint_id>
				</extensions>
			</trkpt>
			<trkpt lat="47.2776499145" lon="7.3914021641">
				<ele>546.2</ele>
				<time>2021-04-12T12:02:21+02:00</time>
				<extensions>
					<swisstopo:routepoint_id>1108795518</swisstopo:routepoint_id>
				</extensions>
			</trkpt>
			<trkpt lat="47.2775933070" lon="7.3913256599">
				<ele>546.9</ele>
				<time>2021-04-12T12:02:22+02:00</time>
				<extensions>
					<swisstopo:routepoint_id>1810666007</swisstopo:routepoint_id>
				</extensions>
			</trkpt>
			<trkpt lat="47.2775422007" lon="7.3912469215">
				<ele>547.7</ele>
				<time>2021-04-12T12:02:23+02:00</time>
				<extensions>
					<swisstopo:routepoint_id>2020301659</swisstopo:routepoint_id>
				</extensions>
			</trkpt>
			<trkpt lat="47.2774964018" lon="7.3911658523">
				<ele>548.3</ele>
				<time>2021-04-12T12:02:24+02:00</time>
				<extensions>
					<swisstopo:routepoint_id>1346040096</swisstopo:routepoint_id>
				</extensions>
			</trkpt>
			<trkpt lat="47.2774547551" lon="7.3910840410">
				<ele>548.9</ele>
				<time>2021-04-12T12:02:25+02:00</time>
				<extensions>
					<swisstopo:routepoint_id>1303155974</swisstopo:routepoint_id>
				</extensions>
			</trkpt>
			<trkpt lat="47.2774156309" lon="7.3910029735">
				<ele>549.4</ele>
				<time>2021-04-12T12:02:26+02:00</time>
				<extensions>
					<swisstopo:routepoint_id>2104222912</swisstopo:routepoint_id>
				</extensions>
			</trkpt>
			<trkpt lat="47.2773784715" lon="7.3909246041">
				<ele>549.9</ele>
				<time>2021-04-12T12:02:27+02:00</time>
				<extensions>
					<swisstopo:routepoint_id>913783188</swisstopo:routepoint_id>
				</extensions>
			</trkpt>
			<trkpt lat="47.2773421242" lon="7.3908511520">
				<ele>550.4</ele>
				<time>2021-04-12T12:02:28+02:00</time>
				<extensions>
					<swisstopo:routepoint_id>1298481019</swisstopo:routepoint_id>
				</extensions>
			</trkpt>
			<trkpt lat="47.2773048895" lon="7.3907850859">
				<ele>550.7</ele>
				<time>2021-04-12T12:02:29+02:00</time>
				<extensions>
					<swisstopo:routepoint_id>841665519</swisstopo:routepoint_id>
				</extensions>
			</trkpt>
			<trkpt lat="47.2772663489" lon="7.3907277386">
				<ele>551.1</ele>
				<time>2021-04-12T12:02:30+02:00</time>
				<extensions>
					<swisstopo:routepoint_id>397595044</swisstopo:routepoint_id>
				</extensions>
			</trkpt>
			<trkpt lat="47.2772267423" lon="7.3906825166">
				<ele>551.4</ele>
				<time>2021-04-12T12:02:31+02:00</time>
				<extensions>
					<swisstopo:routepoint_id>1558278691</swisstopo:routepoint_id>
				</extensions>
			</trkpt>
			<trkpt lat="47.2771861411" lon="7.3906508456">
				<ele>551.6</ele>
				<time>2021-04-12T12:02:32+02:00</time>
				<extensions>
					<swisstopo:routepoint_id>1426884472</swisstopo:routepoint_id>
				</extensions>
			</trkpt>
			<trkpt lat="47.2771453746" lon="7.3906322760">
				<ele>551.7</ele>
				<time>2021-04-12T12:02:33+02:00</time>
				<extensions>
					<swisstopo:routepoint_id>697434855</swisstopo:routepoint_id>
				</extensions>
			</trkpt>
			<trkpt lat="47.2771051238" lon="7.3906254225">
				<ele>551.7</ele>
				<time>2021-04-12T12:02:34+02:00</time>
				<extensions>
					<swisstopo:routepoint_id>821862659</swisstopo:routepoint_id>
				</extensions>
			</trkpt>
			<trkpt lat="47.2770658435" lon="7.3906295585">
				<ele>551.7</ele>
				<time>2021-04-12T12:02:35+02:00</time>
				<extensions>
					<swisstopo:routepoint_id>430892309</swisstopo:routepoint_id>
				</extensions>
			</trkpt>
			<trkpt lat="47.2770282435" lon="7.3906433059">
				<ele>551.7</ele>
				<time>2021-04-12T12:02:36+02:00</time>
				<extensions>
					<swisstopo:routepoint_id>692179679</swisstopo:routepoint_id>
				</extensions>
			</trkpt>
			<trkpt lat="47.2769933519" lon="7.3906655202">
				<ele>551.6</ele>
				<time>2021-04-12T12:02:37+02:00</time>
				<extensions>
					<swisstopo:routepoint_id>544949154</swisstopo:routepoint_id>
				</extensions>
			</trkpt>
			<trkpt lat="47.2769616317" lon="7.3906953501">
				<ele>551.5</ele>
				<time>2021-04-12T12:02:38+02:00</time>
				<extensions>
					<swisstopo:routepoint_id>2090160470</swisstopo:routepoint_id>
				</extensions>
			</trkpt>
			<trkpt lat="47.2769335478" lon="7.3907305510">
				<ele>551.4</ele>
				<time>2021-04-12T12:02:39+02:00</time>
				<extensions>
					<swisstopo:routepoint_id>789521664</swisstopo:routepoint_id>
				</extensions>
			</trkpt>
			<trkpt lat="47.2769095668" lon="7.3907691198">
				<ele>551.3</ele>
				<time>2021-04-12T12:02:40+02:00</time>
				<extensions>
					<swisstopo:routepoint_id>189152035</swisstopo:routepoint_id>
				</extensions>
			</trkpt>
			<trkpt lat="47.2768900147" lon="7.3908091390">
				<ele>551.1</ele>
				<time>2021-04-12T12:02:41+02:00</time>
				<extensions>
					<swisstopo:routepoint_id>802454685</swisstopo:routepoint_id>
				</extensions>
			</trkpt>
			<trkpt lat="47.2768743966" lon="7.3908490369">
				<ele>550.9</ele>
				<time>2021-04-12T12:02:42+02:00</time>
				<extensions>
					<swisstopo:routepoint_id>658587635</swisstopo:routepoint_id>
				</extensions>
			</trkpt>
			<trkpt lat="47.2768620669" lon="7.3908877168">
				<ele>550.8</ele>
				<time>2021-04-12T12:02:43+02:00</time>
				<extensions>
					<swisstopo:routepoint_id>751664807</swisstopo:routepoint_id>
				</extensions>
			</trkpt>
			<trkpt lat="47.2768525182" lon="7.3909248027">
				<ele>550.6</ele>
				<time>2021-04-12T12:02:44+02:00</time>
				<extensions>
					<swisstopo:routepoint_id>1731599595</swisstopo:routepoint_id>
				</extensions>
			</trkpt>
			<trkpt lat="47.2768452204" lon="7.3909602267">
				<ele>550.5</ele>
				<time>2021-04-12T12:02:45+02:00</time>
				<extensions>
					<swisstopo:routepoint_id>296009021</swisstopo:routepoint_id>
				</extensions>
			</trkpt>
			<trkpt lat="47.2768396226" lon="7.3909941528">
				<ele>550.4</ele>
				<time>2021-04-12T12:02:46+02:00</time>
				<extensions>
					<swisstopo:routepoint_id>1451489495</swisstopo:routepoint_id>
				</extensions>
			</trkpt>
			<trkpt lat="47.2768351657" lon="7.3910264234">
				<ele>550.4</ele>
				<time>2021-04-12T12:02:47+02:00</time>
				<extensions>
					<swisstopo:routepoint_id>1917196192</swisstopo:routepoint_id>
				</extensions>
			</trkpt>
			<trkpt lat="47.2768314971" lon="7.3910571736">
				<ele>550.3</ele>
				<time>2021-04-12T12:02:48+02:00</time>
				<extensions>
					<swisstopo:routepoint_id>1471759356</swisstopo:routepoint_id>
				</extensions>
			</trkpt>
			<trkpt lat="47.2768281767" lon="7.3910865216">
				<ele>550.3</ele>
				<time>2021-04-12T12:02:49+02:00</time>
				<extensions>
					<swisstopo:routepoint_id>1142850146</swisstopo:routepoint_id>
				</extensions>
			</trkpt>
			<trkpt lat="47.2768246540" lon="7.3911149853">
				<ele>550.3</ele>
				<time>2021-04-12T12:02:50+02:00</time>
				<extensions>
					<swisstopo:routepoint_id>788665054</swisstopo:routepoint_id>
				</extensions>
			</trkpt>
			<trkpt lat="47.2768208397" lon="7.3911431916">
				<ele>550.3</ele>
				<time>2021-04-12T12:02:51+02:00</time>
				<extensions>
					<swisstopo:routepoint_id>824493294</swisstopo:routepoint_id>
				</extensions>
			</trkpt>
			<trkpt lat="47.2768162180" lon="7.3911718029">
				<ele>550.3</ele>
				<time>2021-04-12T12:02:52+02:00</time>
				<extensions>
					<swisstopo:routepoint_id>1694301814</swisstopo:routepoint_id>
				</extensions>
			</trkpt>
			<trkpt lat="47.2768102769" lon="7.3912014287">
				<ele>550.4</ele>
				<time>2021-04-12T12:02:53+02:00</time>
				<extensions>
					<swisstopo:routepoint_id>497428678</swisstopo:routepoint_id>
				</extensions>
			</trkpt>
			<trkpt lat="47.2768026309" lon="7.3912320498">
				<ele>550.4</ele>
				<time>2021-04-12T12:02:54+02:00</time>
				<extensions>
					<swisstopo:routepoint_id>129953375</swisstopo:routepoint_id>
				</extensions>
			</trkpt>
			<trkpt lat="47.2767930835" lon="7.3912634787">
				<ele>550.6</ele>
				<time>2021-04-12T12:02:55+02:00</time>
				<extensions>
					<swisstopo:routepoint_id>135504626</swisstopo:routepoint_id>
				</extensions>
			</trkpt>
			<trkpt lat="47.2767818273" lon="7.3912958404">
				<ele>550.9</ele>
				<time>2021-04-12T12:02:56+02:00</time>
				<extensions>
					<swisstopo:routepoint_id>1093583362</swisstopo:routepoint_id>
				</extensions>
			</trkpt>
			<trkpt lat="47.2767690872" lon="7.3913282549">
				<ele>551.2</ele>
				<time>2021-04-12T12:02:57+02:00</time>
				<extensions>
					<swisstopo:routepoint_id>1690514108</swisstopo:routepoint_id>
				</extensions>
			</trkpt>
			<trkpt lat="47.2767556198" lon="7.3913600700">
				<ele>551.5</ele>
				<time>2021-04-12T12:02:58+02:00</time>
				<extensions>
					<swisstopo:routepoint_id>1261963346</swisstopo:routepoint_id>
				</extensions>
			</trkpt>
			<trkpt lat="47.2767428803" lon="7.3913937041">
				<ele>551.8</ele>
				<time>2021-04-12T12:02:59+02:00</time>
				<extensions>
					<swisstopo:routepoint_id>1269458450</swisstopo:routepoint_id>
				</extensions>
			</trkpt>
			<trkpt lat="47.2767303690" lon="7.3914290023">
				<ele>552.0</ele>
				<time>2021-04-12T12:03:00+02:00</time>
				<extensions>
					<swisstopo:routepoint_id>538136205</swisstopo:routepoint_id>
				</extensions>
			</trkpt>
			<trkpt lat="47.2767184250" lon="7.3914652060">
				<ele>551.9</ele>
				<time>2021-04-12T12:03:01+02:00</time>
				<extensions>
					<swisstopo:routepoint_id>1401559918</swisstopo:routepoint_id>
				</extensions>
			</trkpt>
			<trkpt lat="47.2767084835" lon="7.3915011188">
				<ele>551.8</ele>
				<time>2021-04-12T12:03:02+02:00</time>
				<extensions>
					<swisstopo:routepoint_id>269417883</swisstopo:routepoint_id>
				</extensions>
			</trkpt>
			<trkpt lat="47.2767015947" lon="7.3915368177">
				<ele>551.5</ele>
				<time>2021-04-12T12:03:03+02:00</time>
				<extensions>
					<swisstopo:routepoint_id>1210831705</swisstopo:routepoint_id>
				</extensions>
			</trkpt>
			<trkpt lat="47.2766974282" lon="7.3915728735">
				<ele>551.4</ele>
				<time>2021-04-12T12:03:04+02:00</time>
				<extensions>
					<swisstopo:routepoint_id>893426963</swisstopo:routepoint_id>
				</extensions>
			</trkpt>
			<trkpt lat="47.2766973000" lon="7.3916086867">
				<ele>551.2</ele>
				<time>2021-04-12T12:03:05+02:00</time>
				<extensions>
					<swisstopo:routepoint_id>621307317</swisstopo:routepoint_id>
				</extensions>
			</trkpt>
			<trkpt lat="47.2767020042" lon="7.3916442057">
				<ele>551.0</ele>
				<time>2021-04-12T12:03:06+02:00</time>
				<extensions>
					<swisstopo:routepoint_id>1246585105</swisstopo:routepoint_id>
				</extensions>
			</trkpt>
			<trkpt lat="47.2767119292" lon="7.3916781427">
				<ele>550.9</ele>
				<time>2021-04-12T12:03:07+02:00</time>
				<extensions>
					<swisstopo:routepoint_id>505399603</swisstopo:routepoint_id>
				</extensions>
			</trkpt>
			<trkpt lat="47.2767272047" lon="7.3917091595">
				<ele>550.9</ele>
				<time>2021-04-12T12:03:08+02:00</time>
				<extensions>
					<swisstopo:routepoint_id>953303736</swisstopo:routepoint_id>
				</extensions>
			</trkpt>
			<trkpt lat="47.2767472347" lon="7.3917381044">
				<ele>550.9</ele>
				<time>2021-04-12T12:03:09+02:00</time>
				<extensions>
					<swisstopo:routepoint_id>1947884332</swisstopo:routepoint_id>
				</extensions>
			</trkpt>
			<trkpt lat="47.2767718418" lon="7.3917640957">
				<ele>550.8</ele>
				<time>2021-04-12T12:03:10+02:00</time>
				<extensions>
					<swisstopo:routepoint_id>1851253056</swisstopo:routepoint_id>
				</extensions>
			</trkpt>
			<trkpt lat="47.2768001218" lon="7.3917877162">
				<ele>550.8</ele>
				<time>2021-04-12T12:03:11+02:00</time>
				<extensions>
					<swisstopo:routepoint_id>1267034456</swisstopo:routepoint_id>
				</extensions>
			</trkpt>
			<trkpt lat="47.2768310106" lon="7.3918096242">
				<ele>550.9</ele>
				<time>2021-04-12T12:03:12+02:00</time>
				<extensions>
					<swisstopo:routepoint_id>600258340</swisstopo:routepoint_id>
				</extensions>
			</trkpt>
			<trkpt lat="47.2768639234" lon="7.3918295160">
				<ele>550.9</ele>
				<time>2021-04-12T12:03:13+02:00</time>
				<extensions>
					<swisstopo:routepoint_id>1811230421</swisstopo:routepoint_id>
				</extensions>
			</trkpt>
			<trkpt lat="47.2768985245" lon="7.3918479884">
				<ele>551.0</ele>
				<time>2021-04-12T12:03:14+02:00</time>
				<extensions>
					<swisstopo:routepoint_id>768989522</swisstopo:routepoint_id>
				</extensions>
			</trkpt>
			<trkpt lat="47.2769352204" lon="7.3918657836">
				<ele>551.1</ele>
				<time>2021-04-12T12:03:15+02:00</time>
				<extensions>
					<swisstopo:routepoint_id>850308608</swisstopo:routepoint_id>
				</extensions>
			</trkpt>
			<trkpt lat="47.2769750358" lon="7.3918836857">
				<ele>551.3</ele>
				<time>2021-04-12T12:03:16+02:00</time>
				<extensions>
					<swisstopo:routepoint_id>1780587518</swisstopo:routepoint_id>
				</extensions>
			</trkpt>
			<trkpt lat="47.2770185274" lon="7.3919028508">
				<ele>551.5</ele>
				<time>2021-04-12T12:03:17+02:00</time>
				<extensions>
					<swisstopo:routepoint_id>1149794081</swisstopo:routepoint_id>
				</extensions>
			</trkpt>
			<trkpt lat="47.2770660522" lon="7.3919237186">
				<ele>551.8</ele>
				<time>2021-04-12T12:03:18+02:00</time>
				<extensions>
					<swisstopo:routepoint_id>1531263661</swisstopo:routepoint_id>
				</extensions>
			</trkpt>
			<trkpt lat="47.2771178292" lon="7.3919468381">
				<ele>552.1</ele>
				<time>2021-04-12T12:03:19+02:00</time>
				<extensions>
					<swisstopo:routepoint_id>504324779</swisstopo:routepoint_id>
				</extensions>
			</trkpt>
			<trkpt lat="47.2771734048" lon="7.3919718869">
				<ele>552.5</ele>
				<time>2021-04-12T12:03:20+02:00</time>
				<extensions>
					<swisstopo:routepoint_id>68605944</swisstopo:routepoint_id>
				</extensions>
			</trkpt>
			<trkpt lat="47.2772322873" lon="7.3919982896">
				<ele>552.8</ele>
				<time>2021-04-12T12:03:21+02:00</time>
				<extensions>
					<swisstopo:routepoint_id>2008866016</swisstopo:routepoint_id>
				</extensions>
			</trkpt>
			<trkpt lat="47.2772936282" lon="7.3920258456">
				<ele>553.1</ele>
				<time>2021-04-12T12:03:22+02:00</time>
				<extensions>
					<swisstopo:routepoint_id>273232778</swisstopo:routepoint_id>
				</extensions>
			</trkpt>
			<trkpt lat="47.2773567521" lon="7.3920537369">
				<ele>553.4</ele>
				<time>2021-04-12T12:03:23+02:00</time>
				<extensions>
					<swisstopo:routepoint_id>903262560</swisstopo:routepoint_id>
				</extensions>
			</trkpt>
			<trkpt lat="47.2774212760" lon="7.3920821175">
				<ele>553.7</ele>
				<time>2021-04-12T12:03:24+02:00</time>
				<extensions>
					<swisstopo:routepoint_id>571945277</swisstopo:routepoint_id>
				</extensions>
			</trkpt>
			<trkpt lat="47.2774864599" lon="7.3921107033">
				<ele>554.0</ele>
				<time>2021-04-12T12:03:25+02:00</time>
				<extensions>
					<swisstopo:routepoint_id>547466567</swisstopo:routepoint_id>
				</extensions>
			</trkpt>
			<trkpt lat="47.2775518922" lon="7.3921393353">
				<ele>554.1</ele>
				<time>2021-04-12T12:03:26+02:00</time>
				<extensions>
					<swisstopo:routepoint_id>1450647821</swisstopo:routepoint_id>
				</extensions>
			</trkpt>
			<trkpt lat="47.2776173521" lon="7.3921678071">
				<ele>554.3</ele>
				<time>2021-04-12T12:03:27+02:00</time>
				<extensions>
					<swisstopo:routepoint_id>656083156</swisstopo:routepoint_id>
				</extensions>
			</trkpt>
			<trkpt lat="47.2776829579" lon="7.3921958353">
				<ele>554.3</ele>
				<time>2021-04-12T12:03:28+02:00</time>
				<extensions>
					<swisstopo:routepoint_id>1608559194</swisstopo:routepoint_id>
				</extensions>
			</trkpt>
			<trkpt lat="47.2777487693" lon="7.3922231186">
				<ele>554.3</ele>
				<time>2021-04-12T12:03:29+02:00</time>
				<extensions>
					<swisstopo:routepoint_id>382741475</swisstopo:routepoint_id>
				</extensions>
			</trkpt>
			<trkpt lat="47.2778144905" lon="7.3922493045">
				<ele>554.3</ele>
				<time>2021-04-12T12:03:30+02:00</time>
				<extensions>
					<swisstopo:routepoint_id>1022447560</swisstopo:routepoint_id>
				</extensions>
			</trkpt>
			<trkpt lat="47.2778807368" lon="7.3922745534">
				<ele>554.2</ele>
				<time>2021-04-12T12:03:31+02:00</time>
				<extensions>
					<swisstopo:routepoint_id>111997626</swisstopo:routepoint_id>
				</extensions>
			</trkpt>
			<trkpt lat="47.2779484476" lon="7.3922989922">
				<ele>554.0</ele>
				<time>2021-04-12T12:03:32+02:00</time>
				<extensions>
					<swisstopo:routepoint_id>1148425410</swisstopo:routepoint_id>
				</extensions>
			</trkpt>
			<trkpt lat="47.2780188640" lon="7.3923221528">
				<ele>553.8</ele>
				<time>2021-04-12T12:03:33+02:00</time>
				<extensions>
					<swisstopo:routepoint_id>2846634</swisstopo:routepoint_id>
				</extensions>
			</trkpt>
			<trkpt lat="47.2780924920" lon="7.3923440517">
				<ele>553.6</ele>
				<time>2021-04-12T12:03:34+02:00</time>
				<extensions>
					<swisstopo:routepoint_id>598737404</swisstopo:routepoint_id>
				</extensions>
			</trkpt>
			<trkpt lat="47.2781693508" lon="7.3923645972">
				<ele>553.3</ele>
				<time>2021-04-12T12:03:35+02:00</time>
				<extensions>
					<swisstopo:routepoint_id>2018662833</swisstopo:routepoint_id>
				</extensions>
			</trkpt>
			<trkpt lat="47.2782494514" lon="7.3923840558">
				<ele>553.0</ele>
				<time>2021-04-12T12:03:36+02:00</time>
				<extensions>
					<swisstopo:routepoint_id>1719578925</swisstopo:routepoint_id>
				</extensions>
			</trkpt>
			<trkpt lat="47.2783326760" lon="7.3924026070">
				<ele>552.7</ele>
				<time>2021-04-12T12:03:37+02:00</time>
				<extensions>
					<swisstopo:routepoint_id>128071149</swisstopo:routepoint_id>
				</extensions>
			</trkpt>
			<trkpt lat="47.2784190885" lon="7.3924204620">
				<ele>552.4</ele>
				<time>2021-04-12T12:03:38+02:00</time>
				<extensions>
					<swisstopo:routepoint_id>713186949</swisstopo:routepoint_id>
				</extensions>
			</trkpt>
			<trkpt lat="47.2785084575" lon="7.3924382599">
				<ele>552.0</ele>
				<time>2021-04-12T12:03:39+02:00</time>
				<extensions>
					<swisstopo:routepoint_id>1426817936</swisstopo:routepoint_id>
				</extensions>
			</trkpt>
			<trkpt lat="47.2786000943" lon="7.3924559778">
				<ele>551.7</ele>
				<time>2021-04-12T12:03:40+02:00</time>
				<extensions>
					<swisstopo:routepoint_id>1726647950</swisstopo:routepoint_id>
				</extensions>
			</trkpt>
			<trkpt lat="47.2786933237" lon="7.3924733830">
				<ele>551.3</ele>
				<time>2021-04-12T12:03:41+02:00</time>
				<extensions>
					<swisstopo:routepoint_id>825573739</swisstopo:routepoint_id>
				</extensions>
			</trkpt>
			<trkpt lat="47.2787874572" lon="7.3924902387">
				<ele>550.9</ele>
				<time>2021-04-12T12:03:42+02:00</time>
				<extensions>
					<swisstopo:routepoint_id>525988106</swisstopo:routepoint_id>
				</extensions>
			</trkpt>
			<trkpt lat="47.2788815109" lon="7.3925066664">
				<ele>550.5</ele>
				<time>2021-04-12T12:03:43+02:00</time>
				<extensions>
					<swisstopo:routepoint_id>1239406490</swisstopo:routepoint_id>
				</extensions>
			</trkpt>
			<trkpt lat="47.2789750694" lon="7.3925232863">
				<ele>550.1</ele>
				<time>2021-04-12T12:03:44+02:00</time>
				<extensions>
					<swisstopo:routepoint_id>113501530</swisstopo:routepoint_id>
				</extensions>
			</trkpt>
			<trkpt lat="47.2790681940" lon="7.3925405849">
				<ele>549.6</ele>
				<time>2021-04-12T12:03:45+02:00</time>
				<extensions>
					<swisstopo:routepoint_id>654736174</swisstopo:routepoint_id>
				</extensions>
			</trkpt>
			<trkpt lat="47.2791612805" lon="7.3925586547">
				<ele>549.3</ele>
				<time>2021-04-12T12:03:46+02:00</time>
				<extensions>
					<swisstopo:routepoint_id>444669190</swisstopo:routepoint_id>
				</extensions>
			</trkpt>
			<trkpt lat="47.2792543481" lon="7.3925772022">
				<ele>548.9</ele>
				<time>2021-04-12T12:03:47+02:00</time>
				<extensions>
					<swisstopo:routepoint_id>311984770</swisstopo:routepoint_id>
				</extensions>
			</trkpt>
			<trkpt lat="47.2793480762" lon="7.3925960077">
				<ele>548.6</ele>
				<time>2021-04-12T12:03:48+02:00</time>
				<extensions>
					<swisstopo:routepoint_id>1520447063</swisstopo:routepoint_id>
				</extensions>
			</trkpt>
			<trkpt lat="47.2794429060" lon="7.3926149226">
				<ele>548.3</ele>
				<time>2021-04-12T12:03:49+02:00</time>
				<extensions>
					<swisstopo:routepoint_id>1245872188</swisstopo:routepoint_id>
				</extensions>
			</trkpt>
			<trkpt lat="47.2795391120" lon="7.3926334205">
				<ele>548.0</ele>
				<time>2021-04-12T12:03:50+02:00</time>
				<extensions>
					<swisstopo:routepoint_id>1408305466</swisstopo:routepoint_id>
				</extensions>
			</trkpt>
			<trkpt lat="47.2796371368" lon="7.3926515454">
				<ele>547.8</ele>
				<time>2021-04-12T12:03:51+02:00</time>
				<extensions>
					<swisstopo:routepoint_id>1972693475</swisstopo:routepoint_id>
				</extensions>
			</trkpt>
			<trkpt lat="47.2797374783" lon="7.3926693486">
				<ele>547.6</ele>
				<time>2021-04-12T12:03:52+02:00</time>
				<extensions>
					<swisstopo:routepoint_id>59208292</swisstopo:routepoint_id>
				</extensions>
			</trkpt>
			<trkpt lat="47.2798408339" lon="7.3926870160">
				<ele>547.4</ele>
				<time>2021-04-12T12:03:53+02:00</time>
				<extensions>
					<swisstopo:routepoint_id>828835083</swisstopo:routepoint_id>
				</extensions>
			</trkpt>
			<trkpt lat="47.2799476930" lon="7.3927046403">
				<ele>547.3</ele>
				<time>2021-04-12T12:03:54+02:00</time>
				<extensions>
					<swisstopo:routepoint_id>1652305539</swisstopo:routepoint_id>
				</extensions>
			</trkpt>
			<trkpt lat="47.2800590378" lon="7.3927225358">
				<ele>547.2</ele>
				<time>2021-04-12T12:03:55+02:00</time>
				<extensions>
					<swisstopo:routepoint_id>1188154616</swisstopo:routepoint_id>
				</extensions>
			</trkpt>
			<trkpt lat="47.2801760434" lon="7.3927412127">
				<ele>547.1</ele>
				<time>2021-04-12T12:03:56+02:00</time>
				<extensions>
					<swisstopo:routepoint_id>2011681306</swisstopo:routepoint_id>
				</extensions>
			</trkpt>
			<trkpt lat="47.2802990348" lon="7.3927611385">
				<ele>547.1</ele>
				<time>2021-04-12T12:03:57+02:00</time>
				<extensions>
					<swisstopo:routepoint_id>345171574</swisstopo:routepoint_id>
				</extensions>
			</trkpt>
			<trkpt lat="47.2804285282" lon="7.3927824283">
				<ele>547.0</ele>
				<time>2021-04-12T12:03:58+02:00</time>
				<extensions>
					<swisstopo:routepoint_id>945313671</swisstopo:routepoint_id>
				</extensions>
			</trkpt>
			<trkpt lat="47.2805643852" lon="7.3928056550">
				<ele>547.0</ele>
				<time>2021-04-12T12:03:59+02:00</time>
				<extensions>
					<swisstopo:routepoint_id>802847991</swisstopo:routepoint_id>
				</extensions>
			</trkpt>
			<trkpt lat="47.2807070709" lon="7.3928304784">
				<ele>547.1</ele>
				<time>2021-04-12T12:04:00+02:00</time>
				<extensions>
					<swisstopo:routepoint_id>826430636</swisstopo:routepoint_id>
				</extensions>
			</trkpt>
			<trkpt lat="47.2808558013" lon="7.3928566605">
				<ele>547.2</ele>
				<time>2021-04-12T12:04:01+02:00</time>
				<extensions>
					<swisstopo:routepoint_id>2042954103</swisstopo:routepoint_id>
				</extensions>
			</trkpt>
			<trkpt lat="47.2810107438" lon="7.3928848899">
				<ele>547.3</ele>
				<time>2021-04-12T12:04:02+02:00</time>
				<extensions>
					<swisstopo:routepoint_id>1961060885</swisstopo:routepoint_id>
				</extensions>
			</trkpt>
			<trkpt lat="47.2811714782" lon="7.3929152442">
				<ele>547.6</ele>
				<time>2021-04-12T12:04:03+02:00</time>
				<extensions>
					<swisstopo:routepoint_id>2118763686</swisstopo:routepoint_id>
				</extensions>
			</trkpt>
			<trkpt lat="47.3104022732" lon="7.3925340693">
				<ele>501.0</ele>
				<time>2021-04-12T12:06:44+02:00</time>
				<extensions>
					<swisstopo:routepoint_id>487436048</swisstopo:routepoint_id>
				</extensions>
			</trkpt>
			<trkpt lat="47.3106142799" lon="7.3925185798">
				<ele>498.8</ele>
				<time>2021-04-12T12:06:45+02:00</time>
				<extensions>
					<swisstopo:routepoint_id>1835029078</swisstopo:routepoint_id>
				</extensions>
			</trkpt>
			<trkpt lat="47.3108130400" lon="7.3924966163">
				<ele>497.3</ele>
				<time>2021-04-12T12:06:46+02:00</time>
				<extensions>
					<swisstopo:routepoint_id>1321059379</swisstopo:routepoint_id>
				</extensions>
			</trkpt>
			<trkpt lat="47.3109982880" lon="7.3924706977">
				<ele>496.1</ele>
				<time>2021-04-12T12:06:47+02:00</time>
				<extensions>
					<swisstopo:routepoint_id>211556520</swisstopo:routepoint_id>
				</extensions>
			</trkpt>
			<trkpt lat="47.3111737243" lon="7.3924429406">
				<ele>495.2</ele>
				<time>2021-04-12T12:06:48+02:00</time>
				<extensions>
					<swisstopo:routepoint_id>1544995855</swisstopo:routepoint_id>
				</extensions>
			</trkpt>
			<trkpt lat="47.3113350851" lon="7.3924124578">
				<ele>494.5</ele>
				<time>2021-04-12T12:06:49+02:00</time>
				<extensions>
					<swisstopo:routepoint_id>1520559108</swisstopo:routepoint_id>
				</extensions>
			</trkpt>
			<trkpt lat="47.3114895103" lon="7.3923789541">
				<ele>494.0</ele>
				<time>2021-04-12T12:06:50+02:00</time>
				<extensions>
					<swisstopo:routepoint_id>981528856</swisstopo:routepoint_id>
				</extensions>
			</trkpt>
			<trkpt lat="47.3116394521" lon="7.3923427336">
				<ele>493.7</ele>
				<time>2021-04-12T12:06:51+02:00</time>
				<extensions>
					<swisstopo:routepoint_id>1733590185</swisstopo:routepoint_id>
				</extensions>
			</trkpt>
			<trkpt lat="47.3117876057" lon="7.3923039957">
				<ele>493.6</ele>
				<time>2021-04-12T12:06:52+02:00</time>
				<extensions>
					<swisstopo:routepoint_id>1539600446</swisstopo:routepoint_id>
				</extensions>
			</trkpt>
			<trkpt lat="47.3119357913" lon="7.3922644039">
				<ele>493.6</ele>
				<time>2021-04-12T12:06:53+02:00</time>
				<extensions>
					<swisstopo:routepoint_id>1034233219</swisstopo:routepoint_id>
				</extensions>
			</trkpt>
			<trkpt lat="47.3120851100" lon="7.3922240896">
				<ele>493.7</ele>
				<time>2021-04-12T12:06:54+02:00</time>
				<extensions>
					<swisstopo:routepoint_id>625072915</swisstopo:routepoint_id>
				</extensions>
			</trkpt>
			<trkpt lat="47.3122361304" lon="7.3921832577">
				<ele>493.9</ele>
				<time>2021-04-12T12:06:55+02:00</time>
				<extensions>
					<swisstopo:routepoint_id>110481281</swisstopo:routepoint_id>
				</extensions>
			</trkpt>
			<trkpt lat="47.3123913763" lon="7.3921415316">
				<ele>494.2</ele>
				<time>2021-04-12T12:06:56+02:00</time>
				<extensions>
					<swisstopo:routepoint_id>1433018759</swisstopo:routepoint_id>
				</extensions>
			</trkpt>
			<trkpt lat="47.3125497826" lon="7.3921009387">
				<ele>494.5</ele>
				<time>2021-04-12T12:06:57+02:00</time>
				<extensions>
					<swisstopo:routepoint_id>717181408</swisstopo:routepoint_id>
				</extensions>
			</trkpt>
			<trkpt lat="47.3127123911" lon="7.3920630926">
				<ele>496.0</ele>
				<time>2021-04-12T12:06:58+02:00</time>
				<extensions>
					<swisstopo:routepoint_id>1989697292</swisstopo:routepoint_id>
				</extensions>
			</trkpt>
			<trkpt lat="47.3128784988" lon="7.3920234676">
				<ele>497.8</ele>
				<time>2021-04-12T12:06:59+02:00</time>
				<extensions>
					<swisstopo:routepoint_id>227035560</swisstopo:routepoint_id>
				</extensions>
			</trkpt>
			<trkpt lat="47.3130471416" lon="7.3919865136">
				<ele>499.7</ele>
				<time>2021-04-12T12:07:00+02:00</time>
				<extensions>
					<swisstopo:routepoint_id>1855699848</swisstopo:routepoint_id>
				</extensions>
			</trkpt>
			<trkpt lat="47.3146464398" lon="7.3914972088">
				<ele>494.7</ele>
				<time>2021-04-12T12:07:10+02:00</time>
				<extensions>
					<swisstopo:routepoint_id>842339955</swisstopo:routepoint_id>
				</extensions>
			</trkpt>
			<trkpt lat="47.3148120508" lon="7.3914288819">
				<ele>492.6</ele>
				<time>2021-04-12T12:07:11+02:00</time>
				<extensions>
					<swisstopo:routepoint_id>995422661</swisstopo:routepoint_id>
				</extensions>
			</trkpt>
			<trkpt lat="47.3149708070" lon="7.3913666988">
				<ele>489.1</ele>
				<time>2021-04-12T12:07:12+02:00</time>
				<extensions>
					<swisstopo:routepoint_id>1171053297</swisstopo:routepoint_id>
				</extensions>
			</trkpt>
			<trkpt lat="47.3151217643" lon="7.3913023072">
				<ele>486.1</ele>
				<time>2021-04-12T12:07:13+02:00</time>
				<extensions>
					<swisstopo:routepoint_id>205137924</swisstopo:routepoint_id>
				</extensions>
			</trkpt>
			<trkpt lat="47.3152674007" lon="7.3912355340">
				<ele>483.9</ele>
				<time>2021-04-12T12:07:14+02:00</time>
				<extensions>
					<swisstopo:routepoint_id>1041835233</swisstopo:routepoint_id>
				</extensions>
			</trkpt>
			<trkpt lat="47.3154105818" lon="7.3911652519">
				<ele>482.2</ele>
				<time>2021-04-12T12:07:15+02:00</time>
				<extensions>
					<swisstopo:routepoint_id>1690587040</swisstopo:routepoint_id>
				</extensions>
			</trkpt>
			<trkpt lat="47.3155536105" lon="7.3910911647">
				<ele>481.1</ele>
				<time>2021-04-12T12:07:16+02:00</time>
				<extensions>
					<swisstopo:routepoint_id>340247823</swisstopo:routepoint_id>
				</extensions>
			</trkpt>
			<trkpt lat="47.3156962185" lon="7.3910134780">
				<ele>480.3</ele>
				<time>2021-04-12T12:07:17+02:00</time>
				<extensions>
					<swisstopo:routepoint_id>1943692847</swisstopo:routepoint_id>
				</extensions>
			</trkpt>
			<trkpt lat="47.3158390058" lon="7.3909348377">
				<ele>480.0</ele>
				<time>2021-04-12T12:07:18+02:00</time>
				<extensions>
					<swisstopo:routepoint_id>124441365</swisstopo:routepoint_id>
				</extensions>
			</trkpt>
			<trkpt lat="47.3159823831" lon="7.3908568714">
				<ele>479.8</ele>
				<time>2021-04-12T12:07:19+02:00</time>
				<extensions>
					<swisstopo:routepoint_id>1984433024</swisstopo:routepoint_id>
				</extensions>
			</trkpt>
			<trkpt lat="47.3161260800" lon="7.3907783150">
				<ele>479.7</ele>
				<time>2021-04-12T12:07:20+02:00</time>
				<extensions>
					<swisstopo:routepoint_id>1944796458</swisstopo:routepoint_id>
				</extensions>
			</trkpt>
			<trkpt lat="47.3162699803" lon="7.3906999112">
				<ele>479.6</ele>
				<time>2021-04-12T12:07:21+02:00</time>
				<extensions>
					<swisstopo:routepoint_id>1492962266</swisstopo:routepoint_id>
				</extensions>
			</trkpt>
			<trkpt lat="47.3446383592" lon="7.3819913816">
				<ele>437.4</ele>
				<time>2021-04-12T12:10:16+02:00</time>
				<extensions>
					<swisstopo:routepoint_id>1017873114</swisstopo:routepoint_id>
				</extensions>
			</trkpt>
			<trkpt lat="47.3448063212" lon="7.3819533649">
				<ele>437.3</ele>
				<time>2021-04-12T12:10:17+02:00</time>
				<extensions>
					<swisstopo:routepoint_id>538694996</swisstopo:routepoint_id>
				</extensions>
			</trkpt>
			<trkpt lat="47.3449740860" lon="7.3819142586">
				<ele>437.2</ele>
				<time>2021-04-12T12:10:18+02:00</time>
				<extensions>
					<swisstopo:routepoint_id>55742020</swisstopo:routepoint_id>
				</extensions>
			</trkpt>
			<trkpt lat="47.3451378161" lon="7.3818713093">
				<ele>436.9</ele>
				<time>2021-04-12T12:10:19+02:00</time>
				<extensions>
					<swisstopo:routepoint_id>553260048</swisstopo:routepoint_id>
				</extensions>
			</trkpt>
			<trkpt lat="47.3452970846" lon="7.3818249386">
				<ele>436.6</ele>
				<time>2021-04-12T12:10:20+02:00</time>
				<extensions>
					<swisstopo:routepoint_id>37435226</swisstopo:routepoint_id>
				</extensions>
			</trkpt>
			<trkpt lat="47.3454504501" lon="7.3817748683">
				<ele>436.2</ele>
				<time>2021-04-12T12:10:21+02:00</time>
				<extensions>
					<swisstopo:routepoint_id>2108618458</swisstopo:routepoint_id>
				</extensions>
			</trkpt>
			<trkpt lat="47.3455991883" lon="7.3817203054">
				<ele>435.7</ele>
				<time>2021-04-12T12:10:22+02:00</time>
				<extensions>
					<swisstopo:routepoint_id>1775280812</swisstopo:routepoint_id>
				</extensions>
			</trkpt>
			<trkpt lat="47.3457449683" lon="7.3816593818">
				<ele>435.3</ele>
				<time>2021-04-12T12:10:23+02:00</time>
				<extensions>
					<swisstopo:routepoint_id>6815866</swisstopo:routepoint_id>
				</extensions>
			</trkpt>
			<trkpt lat="47.3458900845" lon="7.3815918174">
				<ele>434.8</ele>
				<time>2021-04-12T12:10:24+02:00</time>
				<extensions>
					<swisstopo:routepoint_id>737626571</swisstopo:routepoint_id>
				</extensions>
			</trkpt>
			<trkpt lat="47.3460350480" lon="7.3815181736">
				<ele>434.4</ele>
				<time>2021-04-12T12:10:25+02:00</time>
				<extensions>
					<swisstopo:routepoint_id>2014168313</swisstopo:routepoint_id>
				</extensions>
			</trkpt>
			<trkpt lat="47.3461797221" lon="7.3814387636">
				<ele>433.9</ele>
				<time>2021-04-12T12:10:26+02:00</time>
				<extensions>
					<swisstopo:routepoint_id>1342108930</swisstopo:routepoint_id>
				</extensions>
			</trkpt>
			<trkpt lat="47.3463240470" lon="7.3813543687">
				<ele>433.4</ele>
				<time>2021-04-12T12:10:27+02:00</time>
				<extensions>
					<swisstopo:routepoint_id>1804042069</swisstopo:routepoint_id>
				</extensions>
			</trkpt>
			<trkpt lat="47.3464675237" lon="7.3812663072">
				<ele>433.0</ele>
				<time>2021-04-12T12:10:28+02:00</time>
				<extensions>
					<swisstopo:routepoint_id>213441690</swisstopo:routepoint_id>
				</extensions>
			</trkpt>
			<trkpt lat="47.3466092800" lon="7.3811758034">
				<ele>432.5</ele>
				<time>2021-04-12T12:10:29+02:00</time>
				<extensions>
					<swisstopo:routepoint_id>1016793340</swisstopo:routepoint_id>
				</extensions>
			</trkpt>
			<trkpt lat="47.3467490116" lon="7.3810837911">
				<ele>432.1</ele>
				<time>2021-04-12T12:10:30+02:00</time>
				<extensions>
					<swisstopo:routepoint_id>1718286201</swisstopo:routepoint_id>
				</extensions>
			</trkpt>
			<trkpt lat="47.3468861657" lon="7.3809905619">
				<ele>431.8</ele>
				<time>2021-04-12T12:10:31+02:00</time>
				<extensions>
					<swisstopo:routepoint_id>2023578998</swisstopo:routepoint_id>
				</extensions>
			</trkpt>
			<trkpt lat="47.3470201724" lon="7.3808961947">
				<ele>431.5</ele>
				<time>2021-04-12T12:10:32+02:00</time>
				<extensions>
					<swisstopo:routepoint_id>593701847</swisstopo:routepoint_id>
				</extensions>
			</trkpt>
			<trkpt lat="47.3471505439" lon="7.3808011074">
				<ele>431.2</ele>
				<time>2021-04-12T12:10:33+02:00</time>
				<extensions>
					<swisstopo:routepoint_id>1137918567</swisstopo:routepoint_id>
				</extensions>
			</trkpt>
			<trkpt lat="47.3472769650" lon="7.3807051463">
				<ele>431.0</ele>
				<time>2021-04-12T12:10:34+02:00</time>
				<extensions>
					<swisstopo:routepoint_id>1655479034</swisstopo:routepoint_id>
				</extensions>
			</trkpt>
			<trkpt lat="47.3473984755" lon="7.3806072865">
				<ele>430.8</ele>
				<time>2021-04-12T12:10:35+02:00</time>
				<extensions>
					<swisstopo:routepoint_id>837993906</swisstopo:routepoint_id>
				</extensions>
			</trkpt>
			<trkpt lat="47.3475154355" lon="7.3805073628">
				<ele>430.6</ele>
				<time>2021-04-12T12:10:36+02:00</time>
				<extensions>
					<swisstopo:routepoint_id>965821116</swisstopo:routepoint_id>
				</extensions>
			</trkpt>
			<trkpt lat="47.3476289684" lon="7.3804055040">
				<ele>430.5</ele>
				<time>2021-04-12T12:10:37+02:00</time>
				<extensions>
					<swisstopo:routepoint_id>1874092586</swisstopo:routepoint_id>
				</extensions>
			</trkpt>
			<trkpt lat="47.3477403765" lon="7.3803007224">
				<ele>430.4</ele>
				<time>2021-04-12T12:10:38+02:00</time>
				<extensions>
					<swisstopo:routepoint_id>731442353</swisstopo:routepoint_id>
				</extensions>
			</trkpt>
			<trkpt lat="47.3478511114" lon="7.3801919090">
				<ele>430.3</ele>
				<time>2021-04-12T12:10:39+02:00</time>
				<extensions>
					<swisstopo:routepoint_id>1155231443</swisstopo:routepoint_id>
				</extensions>
			</trkpt>
			<trkpt lat="47.3479618536" lon="7.3800780321">
				<ele>430.3</ele>
				<time>2021-04-12T12:10:40+02:00</time>
				<extensions>
					<swisstopo:routepoint_id>575209974</swisstopo:routepoint_id>
				</extensions>
			</trkpt>
			<trkpt lat="47.3480737329" lon="7.3799590850">
				<ele>430.3</ele>
				<time>2021-04-12T12:10:41+02:00</time>
				<extensions>
					<swisstopo:routepoint_id>1730137871</swisstopo:routepoint_id>
				</extensions>
			</trkpt>
			<trkpt lat="47.3481869873" lon="7.3798340601">
				<ele>430.2</ele>
				<time>2021-04-12T12:10:42+02:00</time>
				<extensions>
					<swisstopo:routepoint_id>1498617517</swisstopo:routepoint_id>
				</extensions>
			</trkpt>
			<trkpt lat="47.3483020016" lon="7.3797021545">
				<ele>430.2</ele>
				<time>2021-04-12T12:10:43+02:00</time>
				<extensions>
					<swisstopo:routepoint_id>1576396203</swisstopo:routepoint_id>
				</extensions>
			</trkpt>
			<trkpt lat="47.3484188187" lon="7.3795627298">
				<ele>430.2</ele>
				<time>2021-04-12T12:10:44+02:00</time>
				<extensions>
					<swisstopo:routepoint_id>985230782</swisstopo:routepoint_id>
				</extensions>
			</trkpt>
			<trkpt lat="47.3485375459" lon="7.3794148215">
				<ele>430.1</ele>
				<time>2021-04-12T12:10:45+02:00</time>
				<extensions>
					<swisstopo:routepoint_id>1674834704</swisstopo:routepoint_id>
				</extensions>
			</trkpt>
			<trkpt lat="47.3486580515" lon="7.3792565921">
				<ele>430.0</ele>
				<time>2021-04-12T12:10:46+02:00</time>
				<extensions>
					<swisstopo:routepoint_id>1878708899</swisstopo:routepoint_id>
				</extensions>
			</trkpt>
			<trkpt lat="47.3487806887" lon="7.3790863332">
				<ele>429.9</ele>
				<time>2021-04-12T12:10:47+02:00</time>
				<extensions>
					<swisstopo:routepoint_id>1008403652</swisstopo:routepoint_id>
				</extensions>
			</trkpt>
			<trkpt lat="47.3489060333" lon="7.3789033163">
				<ele>429.7</ele>
				<time>2021-04-12T12:10:48+02:00</time>
				<extensions>
					<swisstopo:routepoint_id>299237040</swisstopo:routepoint_id>
				</extensions>
			</trkpt>
			<trkpt lat="47.3490343185" lon="7.3787082594">
				<ele>429.5</ele>
				<time>2021-04-12T12:10:49+02:00</time>
				<extensions>
					<swisstopo:routepoint_id>2017713653</swisstopo:routepoint_id>
				</extensions>
			</trkpt>
			<trkpt lat="47.3491651669" lon="7.3785027431">
				<ele>429.2</ele>
				<time>2021-04-12T12:10:50+02:00</time>
				<extensions>
					<swisstopo:routepoint_id>799096194</swisstopo:routepoint_id>
				</extensions>
			</trkpt>
			<trkpt lat="47.3492974836" lon="7.3782886884">
				<ele>429.0</ele>
				<time>2021-04-12T12:10:51+02:00</time>
				<extensions>
					<swisstopo:routepoint_id>47004220</swisstopo:routepoint_id>
				</extensions>
			</trkpt>
			<trkpt lat="47.3494301211" lon="7.3780673819">
				<ele>428.7</ele>
				<time>2021-04-12T12:10:52+02:00</time>
				<extensions>
					<swisstopo:routepoint_id>1873427091</swisstopo:routepoint_id>
				</extensions>
			</trkpt>
			<trkpt lat="47.3495620887" lon="7.3778399682">
				<ele>428.5</ele>
				<time>2021-04-12T12:10:53+02:00</time>
				<extensions>
					<swisstopo:routepoint_id>283886123</swisstopo:routepoint_id>
				</extensions>
			</trkpt>
			<trkpt lat="47.3496924783" lon="7.3776063213">
				<ele>428.3</ele>
				<time>2021-04-12T12:10:54+02:00</time>
				<extensions>
					<swisstopo:routepoint_id>1712889274</swisstopo:routepoint_id>
				</extensions>
			</trkpt>
			<trkpt lat="47.3498205542" lon="7.3773666191">
				<ele>428.1</ele>
				<time>2021-04-12T12:10:55+02:00</time>
				<extensions>
					<swisstopo:routepoint_id>1511740083</swisstopo:routepoint_id>
				</extensions>
			</trkpt>
			<trkpt lat="47.3499454704" lon="7.3771213294">
				<ele>428.0</ele>
				<time>2021-04-12T12:10:56+02:00</time>
				<extensions>
					<swisstopo:routepoint_id>936547324</swisstopo:routepoint_id>
				</extensions>
			</trkpt>
			<trkpt lat="47.3500670837" lon="7.3768709610">
				<ele>427.8</ele>
				<time>2021-04-12T12:10:57+02:00</time>
				<extensions>
					<swisstopo:routepoint_id>1643225605</swisstopo:routepoint_id>
				</extensions>
			</trkpt>
			<trkpt lat="47.3501849688" lon="7.3766160028">
				<ele>427.7</ele>
				<time>2021-04-12T12:10:58+02:00</time>
				<extensions>
					<swisstopo:routepoint_id>1053042815</swisstopo:routepoint_id>
				</extensions>
			</trkpt>
			<trkpt lat="47.3502988036" lon="7.3763570649">
				<ele>427.5</ele>
				<time>2021-04-12T12:10:59+02:00</time>
				<extensions>
					<swisstopo:routepoint_id>1077856778</swisstopo:routepoint_id>
				</extensions>
			</trkpt>
			<trkpt lat="47.3504081581" lon="7.3760942730">
				<ele>427.4</ele>
				<time>2021-04-12T12:11:00+02:00</time>
				<extensions>
					<swisstopo:routepoint_id>1514305401</swisstopo:routepoint_id>
				</extensions>
			</trkpt>
			<trkpt lat="47.3505128415" lon="7.3758281418">
				<ele>427.3</ele>
				<time>2021-04-12T12:11:01+02:00</time>
				<extensions>
					<swisstopo:routepoint_id>1102174010</swisstopo:routepoint_id>
				</extensions>
			</trkpt>
			<trkpt lat="47.3506126395" lon="7.3755591835">
				<ele>427.2</ele>
				<time>2021-04-12T12:11:02+02:00</time>
				<extensions>
					<swisstopo:routepoint_id>44647048</swisstopo:routepoint_id>
				</extensions>
			</trkpt>
			<trkpt lat="47.3507073318" lon="7.3752877108">
				<ele>427.2</ele>
				<time>2021-04-12T12:11:03+02:00</time>
				<extensions>
					<swisstopo:routepoint_id>911142933</swisstopo:routepoint_id>
				</extensions>
			</trkpt>
			<trkpt lat="47.3507968116" lon="7.3750135582">
				<ele>427.1</ele>
				<time>2021-04-12T12:11:04+02:00</time>
				<extensions>
					<swisstopo:routepoint_id>2020871821</swisstopo:routepoint_id>
				</extensions>
			</trkpt>
			<trkpt lat="47.3508814653" lon="7.3747363622">
				<ele>427.0</ele>
				<time>2021-04-12T12:11:05+02:00</time>
				<extensions>
					<swisstopo:routepoint_id>191334595</swisstopo:routepoint_id>
				</extensions>
			</trkpt>
			<trkpt lat="47.3509611872" lon="7.3744553312">
				<ele>427.0</ele>
				<time>2021-04-12T12:11:06+02:00</time>
				<extensions>
					<swisstopo:routepoint_id>977518606</swisstopo:routepoint_id>
				</extensions>
			</trkpt>
			<trkpt lat="47.3510360170" lon="7.3741705267">
				<ele>426.9</ele>
				<time>2021-04-12T12:11:07+02:00</time>
				<extensions>
					<swisstopo:routepoint_id>905311492</swisstopo:routepoint_id>
				</extensions>
			</trkpt>
			<trkpt lat="47.3511058325" lon="7.3738814078">
				<ele>426.9</ele>
				<time>2021-04-12T12:11:08+02:00</time>
				<extensions>
					<swisstopo:routepoint_id>648607049</swisstopo:routepoint_id>
				</extensions>
			</trkpt>
			<trkpt lat="47.3511707531" lon="7.3735883213">
				<ele>426.9</ele>
				<time>2021-04-12T12:11:09+02:00</time>
				<extensions>
					<swisstopo:routepoint_id>511680371</swisstopo:routepoint_id>
				</extensions>
			</trkpt>
			<trkpt lat="47.3512301116" lon="7.3732912442">
				<ele>426.9</ele>
				<time>2021-04-12T12:11:10+02:00</time>
				<extensions>
					<swisstopo:routepoint_id>1287472809</swisstopo:routepoint_id>
				</extensions>
			</trkpt>
			<trkpt lat="47.3512835197" lon="7.3729912236">
				<ele>426.8</ele>
				<time>2021-04-12T12:11:11+02:00</time>
				<extensions>
					<swisstopo:routepoint_id>510273691</swisstopo:routepoint_id>
				</extensions>
			</trkpt>
			<trkpt lat="47.3513304272" lon="7.3726884308">
				<ele>426.8</ele>
				<time>2021-04-12T12:11:12+02:00</time>
				<extensions>
					<swisstopo:routepoint_id>1267722166</swisstopo:routepoint_id>
				</extensions>
			</trkpt>
			<trkpt lat="47.3513713645" lon="7.3723835368">
				<ele>426.8</ele>
				<time>2021-04-12T12:11:13+02:00</time>
				<extensions>
					<swisstopo:routepoint_id>1421182075</swisstopo:routepoint_id>
				</extensions>
			</trkpt>
			<trkpt lat="47.3514065381" lon="7.3720775931">
				<ele>426.7</ele>
				<time>2021-04-12T12:11:14+02:00</time>
				<extensions>
					<swisstopo:routepoint_id>1494012591</swisstopo:routepoint_id>
				</extensions>
			</trkpt>
			<trkpt lat="47.3514363682" lon="7.3717719226">
				<ele>426.6</ele>
				<time>2021-04-12T12:11:15+02:00</time>
				<extensions>
					<swisstopo:routepoint_id>1490816213</swisstopo:routepoint_id>
				</extensions>
			</trkpt>
			<trkpt lat="47.3514612064" lon="7.3714672454">
				<ele>426.6</ele>
				<time>2021-04-12T12:11:16+02:00</time>
				<extensions>
					<swisstopo:routepoint_id>1456382342</swisstopo:routepoint_id>
				</extensions>
			</trkpt>
			<trkpt lat="47.3514813761" lon="7.3711636642">
				<ele>426.5</ele>
				<time>2021-04-12T12:11:17+02:00</time>
				<extensions>
					<swisstopo:routepoint_id>399413488</swisstopo:routepoint_id>
				</extensions>
			</trkpt>
			<trkpt lat="47.3514973866" lon="7.3708603145">
				<ele>426.4</ele>
				<time>2021-04-12T12:11:18+02:00</time>
				<extensions>
					<swisstopo:routepoint_id>2056095941</swisstopo:routepoint_id>
				</extensions>
			</trkpt>
			<trkpt lat="47.3515101912" lon="7.3705581969">
				<ele>426.3</ele>
				<time>2021-04-12T12:11:19+02:00</time>
				<extensions>
					<swisstopo:routepoint_id>1645116510</swisstopo:routepoint_id>
				</extensions>
			</trkpt>
			<trkpt lat="47.3515204171" lon="7.3702570585">
				<ele>426.1</ele>
				<time>2021-04-12T12:11:20+02:00</time>
				<extensions>
					<swisstopo:routepoint_id>621228445</swisstopo:routepoint_id>
				</extensions>
			</trkpt>
			<trkpt lat="47.3515290216" lon="7.3699567347">
				<ele>425.9</ele>
				<time>2021-04-12T12:11:21+02:00</time>
				<extensions>
					<swisstopo:routepoint_id>2068467048</swisstopo:routepoint_id>
				</extensions>
			</trkpt>
			<trkpt lat="47.3515369047" lon="7.3696568053">
				<ele>425.7</ele>
				<time>2021-04-12T12:11:22+02:00</time>
				<extensions>
					<swisstopo:routepoint_id>1260398100</swisstopo:routepoint_id>
				</extensions>
			</trkpt>
			<trkpt lat="47.3515448023" lon="7.3693563607">
				<ele>425.4</ele>
				<time>2021-04-12T12:11:23+02:00</time>
				<extensions>
					<swisstopo:routepoint_id>732172692</swisstopo:routepoint_id>
				</extensions>
			</trkpt>
			<trkpt lat="47.3515530403" lon="7.3690552129">
				<ele>425.1</ele>
				<time>2021-04-12T12:11:24+02:00</time>
				<extensions>
					<swisstopo:routepoint_id>545137134</swisstopo:routepoint_id>
				</extensions>
			</trkpt>
			<trkpt lat="47.3515616797" lon="7.3687528815">
				<ele>424.7</ele>
				<time>2021-04-12T12:11:25+02:00</time>
				<extensions>
					<swisstopo:routepoint_id>954573036</swisstopo:routepoint_id>
				</extensions>
			</trkpt>
			<trkpt lat="47.3515707604" lon="7.3684495175">
				<ele>424.4</ele>
				<time>2021-04-12T12:11:26+02:00</time>
				<extensions>
					<swisstopo:routepoint_id>1806172962</swisstopo:routepoint_id>
				</extensions>
			</trkpt>
			<trkpt lat="47.3515803560" lon="7.3681453418">
				<ele>424.0</ele>
				<time>2021-04-12T12:11:27+02:00</time>
				<extensions>
					<swisstopo:routepoint_id>1667621989</swisstopo:routepoint_id>
				</extensions>
			</trkpt>
			<trkpt lat="47.3515907822" lon="7.3678402543">
				<ele>423.5</ele>
				<time>2021-04-12T12:11:28+02:00</time>
				<extensions>
					<swisstopo:routepoint_id>913692126</swisstopo:routepoint_id>
				</extensions>
			</trkpt>
			<trkpt lat="47.3516018945" lon="7.3675340087">
				<ele>423.1</ele>
				<time>2021-04-12T12:11:29+02:00</time>
				<extensions>
					<swisstopo:routepoint_id>1915485632</swisstopo:routepoint_id>
				</extensions>
			</trkpt>
			<trkpt lat="47.3516135737" lon="7.3672263607">
				<ele>422.6</ele>
				<time>2021-04-12T12:11:30+02:00</time>
				<extensions>
					<swisstopo:routepoint_id>639664847</swisstopo:routepoint_id>
				</extensions>
			</trkpt>
			<trkpt lat="47.3516256101" lon="7.3669171269">
				<ele>422.1</ele>
				<time>2021-04-12T12:11:31+02:00</time>
				<extensions>
					<swisstopo:routepoint_id>543946647</swisstopo:routepoint_id>
				</extensions>
			</trkpt>
			<trkpt lat="47.3516378292" lon="7.3666052664">
				<ele>421.7</ele>
				<time>2021-04-12T12:11:32+02:00</time>
				<extensions>
					<swisstopo:routepoint_id>273410850</swisstopo:routepoint_id>
				</extensions>
			</trkpt>
			<trkpt lat="47.3516503846" lon="7.3662905098">
				<ele>421.2</ele>
				<time>2021-04-12T12:11:33+02:00</time>
				<extensions>
					<swisstopo:routepoint_id>1748635017</swisstopo:routepoint_id>
				</extensions>
			</trkpt>
			<trkpt lat="47.3516635075" lon="7.3659722507">
				<ele>420.9</ele>
				<time>2021-04-12T12:11:34+02:00</time>
				<extensions>
					<swisstopo:routepoint_id>995021524</swisstopo:routepoint_id>
				</extensions>
			</trkpt>
			<trkpt lat="47.3516772969" lon="7.3656512574">
				<ele>420.6</ele>
				<time>2021-04-12T12:11:35+02:00</time>
				<extensions>
					<swisstopo:routepoint_id>871594679</swisstopo:routepoint_id>
				</extensions>
			</trkpt>
			<trkpt lat="47.3516915869" lon="7.3653286470">
				<ele>420.4</ele>
				<time>2021-04-12T12:11:36+02:00</time>
				<extensions>
					<swisstopo:routepoint_id>905813766</swisstopo:routepoint_id>
				</extensions>
			</trkpt>
			<trkpt lat="47.3517066814" lon="7.3650103120">
				<ele>420.2</ele>
				<time>2021-04-12T12:11:37+02:00</time>
				<extensions>
					<swisstopo:routepoint_id>500391579</swisstopo:routepoint_id>
				</extensions>
			</trkpt>
			<trkpt lat="47.3517206388" lon="7.3646958321">
				<ele>420.2</ele>
				<time>2021-04-12T12:11:38+02:00</time>
				<extensions>
					<swisstopo:routepoint_id>535306601</swisstopo:routepoint_id>
				</extensions>
			</trkpt>
			<trkpt lat="47.3517345786" lon="7.3643791999">
				<ele>420.1</ele>
				<time>2021-04-12T12:11:39+02:00</time>
				<extensions>
					<swisstopo:routepoint_id>1089045724</swisstopo:routepoint_id>
				</extensions>
			</trkpt>
			<trkpt lat="47.3517497490" lon="7.3640633988">
				<ele>420.4</ele>
				<time>2021-04-12T12:11:40+02:00</time>
				<extensions>
					<swisstopo:routepoint_id>588359887</swisstopo:routepoint_id>
				</extensions>
			</trkpt>
			<trkpt lat="47.3517646794" lon="7.3637482944">
				<ele>420.7</ele>
				<time>2021-04-12T12:11:41+02:00</time>
				<extensions>
					<swisstopo:routepoint_id>1549910021</swisstopo:routepoint_id>
				</extensions>
			</trkpt>
			<trkpt lat="47.3517801399" lon="7.3634361500">
				<ele>421.2</ele>
				<time>2021-04-12T12:11:42+02:00</time>
				<extensions>
					<swisstopo:routepoint_id>361084837</swisstopo:routepoint_id>
				</extensions>
			</trkpt>
			<trkpt lat="47.3517955015" lon="7.3631275129">
				<ele>421.7</ele>
				<time>2021-04-12T12:11:43+02:00</time>
				<extensions>
					<swisstopo:routepoint_id>2111552684</swisstopo:routepoint_id>
				</extensions>
			</trkpt>
			<trkpt lat="47.3518103690" lon="7.3628228858">
				<ele>422.3</ele>
				<time>2021-04-12T12:11:44+02:00</time>
				<extensions>
					<swisstopo:routepoint_id>1698693313</swisstopo:routepoint_id>
				</extensions>
			</trkpt>
			<trkpt lat="47.3518255218" lon="7.3625228170">
				<ele>422.9</ele>
				<time>2021-04-12T12:11:45+02:00</time>
				<extensions>
					<swisstopo:routepoint_id>1290908373</swisstopo:routepoint_id>
				</extensions>
			</trkpt>
			<trkpt lat="47.3518408243" lon="7.3622263937">
				<ele>423.3</ele>
				<time>2021-04-12T12:11:46+02:00</time>
				<extensions>
					<swisstopo:routepoint_id>269739370</swisstopo:routepoint_id>
				</extensions>
			</trkpt>
			<trkpt lat="47.3518561361" lon="7.3619332535">
				<ele>423.6</ele>
				<time>2021-04-12T12:11:47+02:00</time>
				<extensions>
					<swisstopo:routepoint_id>171612773</swisstopo:routepoint_id>
				</extensions>
			</trkpt>
			<trkpt lat="47.3518715912" lon="7.3616437295">
				<ele>423.8</ele>
				<time>2021-04-12T12:11:48+02:00</time>
				<extensions>
					<swisstopo:routepoint_id>225337890</swisstopo:routepoint_id>
				</extensions>
			</trkpt>
			<trkpt lat="47.3518873764" lon="7.3613574672">
				<ele>423.9</ele>
				<time>2021-04-12T12:11:49+02:00</time>
				<extensions>
					<swisstopo:routepoint_id>1240247569</swisstopo:routepoint_id>
				</extensions>
			</trkpt>
			<trkpt lat="47.3519033315" lon="7.3610748061">
				<ele>424.1</ele>
				<time>2021-04-12T12:11:50+02:00</time>
				<extensions>
					<swisstopo:routepoint_id>1364614401</swisstopo:routepoint_id>
				</extensions>
			</trkpt>
			<trkpt lat="47.3519189538" lon="7.3607960387">
				<ele>424.2</ele>
				<time>2021-04-12T12:11:51+02:00</time>
				<extensions>
					<swisstopo:routepoint_id>2096371294</swisstopo:routepoint_id>
				</extensions>
			</trkpt>
			<trkpt lat="47.3519340235" lon="7.3605213783">
				<ele>424.3</ele>
				<time>2021-04-12T12:11:52+02:00</time>
				<extensions>
					<swisstopo:routepoint_id>2095625576</swisstopo:routepoint_id>
				</extensions>
			</trkpt>
			<trkpt lat="47.3519487856" lon="7.3602506993">
				<ele>424.4</ele>
				<time>2021-04-12T12:11:53+02:00</time>
				<extensions>
					<swisstopo:routepoint_id>299761385</swisstopo:routepoint_id>
				</extensions>
			</trkpt>
			<trkpt lat="47.3519634713" lon="7.3599831759">
				<ele>424.5</ele>
				<time>2021-04-12T12:11:54+02:00</time>
				<extensions>
					<swisstopo:routepoint_id>92961833</swisstopo:routepoint_id>
				</extensions>
			</trkpt>
			<trkpt lat="47.3519781980" lon="7.3597182291">
				<ele>424.6</ele>
				<time>2021-04-12T12:11:55+02:00</time>
				<extensions>
					<swisstopo:routepoint_id>1188915862</swisstopo:routepoint_id>
				</extensions>
			</trkpt>
			<trkpt lat="47.3519928231" lon="7.3594552367">
				<ele>424.7</ele>
				<time>2021-04-12T12:11:56+02:00</time>
				<extensions>
					<swisstopo:routepoint_id>1921040946</swisstopo:routepoint_id>
				</extensions>
			</trkpt>
			<trkpt lat="47.3520070104" lon="7.3591937830">
				<ele>424.8</ele>
				<time>2021-04-12T12:11:57+02:00</time>
				<extensions>
					<swisstopo:routepoint_id>1666030424</swisstopo:routepoint_id>
				</extensions>
			</trkpt>
			<trkpt lat="47.3520210525" lon="7.3589334959">
				<ele>424.9</ele>
				<time>2021-04-12T12:11:58+02:00</time>
				<extensions>
					<swisstopo:routepoint_id>2081546582</swisstopo:routepoint_id>
				</extensions>
			</trkpt>
			<trkpt lat="47.3520349190" lon="7.3586735447">
				<ele>425.0</ele>
				<time>2021-04-12T12:11:59+02:00</time>
				<extensions>
					<swisstopo:routepoint_id>2044794044</swisstopo:routepoint_id>
				</extensions>
			</trkpt>
			<trkpt lat="47.3520485655" lon="7.3584136958">
				<ele>425.1</ele>
				<time>2021-04-12T12:12:00+02:00</time>
				<extensions>
					<swisstopo:routepoint_id>672694567</swisstopo:routepoint_id>
				</extensions>
			</trkpt>
			<trkpt lat="47.3520620370" lon="7.3581538347">
				<ele>425.3</ele>
				<time>2021-04-12T12:12:01+02:00</time>
				<extensions>
					<swisstopo:routepoint_id>1623669761</swisstopo:routepoint_id>
				</extensions>
			</trkpt>
			<trkpt lat="47.3520752335" lon="7.3578935806">
				<ele>425.5</ele>
				<time>2021-04-12T12:12:02+02:00</time>
				<extensions>
					<swisstopo:routepoint_id>942970698</swisstopo:routepoint_id>
				</extensions>
			</trkpt>
			<trkpt lat="47.3520883458" lon="7.3576323355">
				<ele>425.8</ele>
				<time>2021-04-12T12:12:03+02:00</time>
				<extensions>
					<swisstopo:routepoint_id>79206426</swisstopo:routepoint_id>
				</extensions>
			</trkpt>
			<trkpt lat="47.3521011892" lon="7.3573693633">
				<ele>426.2</ele>
				<time>2021-04-12T12:12:04+02:00</time>
				<extensions>
					<swisstopo:routepoint_id>1930024289</swisstopo:routepoint_id>
				</extensions>
			</trkpt>
			<trkpt lat="47.3521142249" lon="7.3571047680">
				<ele>426.6</ele>
				<time>2021-04-12T12:12:05+02:00</time>
				<extensions>
					<swisstopo:routepoint_id>177737288</swisstopo:routepoint_id>
				</extensions>
			</trkpt>
			<trkpt lat="47.3521273703" lon="7.3568384275">
				<ele>427.2</ele>
				<time>2021-04-12T12:12:06+02:00</time>
				<extensions>
					<swisstopo:routepoint_id>80846439</swisstopo:routepoint_id>
				</extensions>
			</trkpt>
			<trkpt lat="47.3521406656" lon="7.3565700506">
				<ele>427.8</ele>
				<time>2021-04-12T12:12:07+02:00</time>
				<extensions>
					<swisstopo:routepoint_id>1576435369</swisstopo:routepoint_id>
				</extensions>
			</trkpt>
			<trkpt lat="47.3521537428" lon="7.3562997070">
				<ele>428.4</ele>
				<time>2021-04-12T12:12:08+02:00</time>
				<extensions>
					<swisstopo:routepoint_id>1643493744</swisstopo:routepoint_id>
				</extensions>
			</trkpt>
			<trkpt lat="47.3521665827" lon="7.3560292684">
				<ele>429.1</ele>
				<time>2021-04-12T12:12:09+02:00</time>
				<extensions>
					<swisstopo:routepoint_id>1264687694</swisstopo:routepoint_id>
				</extensions>
			</trkpt>
			<trkpt lat="47.3521778363" lon="7.3557590124">
				<ele>430.0</ele>
				<time>2021-04-12T12:12:10+02:00</time>
				<extensions>
					<swisstopo:routepoint_id>1960418699</swisstopo:routepoint_id>
				</extensions>
			</trkpt>
			<trkpt lat="47.3521875214" lon="7.3554894019">
				<ele>431.1</ele>
				<time>2021-04-12T12:12:11+02:00</time>
				<extensions>
					<swisstopo:routepoint_id>2062961819</swisstopo:routepoint_id>
				</extensions>
			</trkpt>
			<trkpt lat="47.3521960424" lon="7.3552204343">
				<ele>432.4</ele>
				<time>2021-04-12T12:12:12+02:00</time>
				<extensions>
					<swisstopo:routepoint_id>1075811118</swisstopo:routepoint_id>
				</extensions>
			</trkpt>
			<trkpt lat="47.3513929612" lon="7.3438441270">
				<ele>430.1</ele>
				<time>2021-04-12T12:12:49+02:00</time>
				<extensions>
					<swisstopo:routepoint_id>1492636133</swisstopo:routepoint_id>
				</extensions>
			</trkpt>
			<trkpt lat="47.3513398170" lon="7.3435300095">
				<ele>428.8</ele>
				<time>2021-04-12T12:12:50+02:00</time>
				<extensions>
					<swisstopo:routepoint_id>1979006724</swisstopo:routepoint_id>
				</extensions>
			</trkpt>
			<trkpt lat="47.3512870441" lon="7.3432297925">
				<ele>427.7</ele>
				<time>2021-04-12T12:12:51+02:00</time>
				<extensions>
					<swisstopo:routepoint_id>939285532</swisstopo:routepoint_id>
				</extensions>
			</trkpt>
			<trkpt lat="47.3512346950" lon="7.3429394383">
				<ele>426.9</ele>
				<time>2021-04-12T12:12:52+02:00</time>
				<extensions>
					<swisstopo:routepoint_id>419647227</swisstopo:routepoint_id>
				</extensions>
			</trkpt>
			<trkpt lat="47.3511821355" lon="7.3426570914">
				<ele>426.3</ele>
				<time>2021-04-12T12:12:53+02:00</time>
				<extensions>
					<swisstopo:routepoint_id>674647441</swisstopo:routepoint_id>
				</extensions>
			</trkpt>
			<trkpt lat="47.3511296547" lon="7.3423784696">
				<ele>425.8</ele>
				<time>2021-04-12T12:12:54+02:00</time>
				<extensions>
					<swisstopo:routepoint_id>85884727</swisstopo:routepoint_id>
				</extensions>
			</trkpt>
			<trkpt lat="47.3510774737" lon="7.3421004019">
				<ele>425.6</ele>
				<time>2021-04-12T12:12:55+02:00</time>
				<extensions>
					<swisstopo:routepoint_id>355595905</swisstopo:routepoint_id>
				</extensions>
			</trkpt>
			<trkpt lat="47.3510260153" lon="7.3418199789">
				<ele>425.4</ele>
				<time>2021-04-12T12:12:56+02:00</time>
				<extensions>
					<swisstopo:routepoint_id>53385734</swisstopo:routepoint_id>
				</extensions>
			</trkpt>
			<trkpt lat="47.3509758395" lon="7.3415342906">
				<ele>425.4</ele>
				<time>2021-04-12T12:12:57+02:00</time>
				<extensions>
					<swisstopo:routepoint_id>1753350539</swisstopo:routepoint_id>
				</extensions>
			</trkpt>
			<trkpt lat="47.3509280114" lon="7.3412410488">
				<ele>425.5</ele>
				<time>2021-04-12T12:12:58+02:00</time>
				<extensions>
					<swisstopo:routepoint_id>791904839</swisstopo:routepoint_id>
				</extensions>
			</trkpt>
			<trkpt lat="47.3508837797" lon="7.3409403796">
				<ele>425.7</ele>
				<time>2021-04-12T12:12:59+02:00</time>
				<extensions>
					<swisstopo:routepoint_id>1588468614</swisstopo:routepoint_id>
				</extensions>
			</trkpt>
			<trkpt lat="47.3508448067" lon="7.3406335219">
				<ele>425.9</ele>
				<time>2021-04-12T12:13:00+02:00</time>
				<extensions>
					<swisstopo:routepoint_id>2022779641</swisstopo:routepoint_id>
				</extensions>
			</trkpt>
			<trkpt lat="47.3508124648" lon="7.3403217943">
				<ele>426.2</ele>
				<time>2021-04-12T12:13:01+02:00</time>
				<extensions>
					<swisstopo:routepoint_id>43810630</swisstopo:routepoint_id>
				</extensions>
			</trkpt>
			<trkpt lat="47.3507883794" lon="7.3400064690">
				<ele>426.5</ele>
				<time>2021-04-12T12:13:02+02:00</time>
				<extensions>
					<swisstopo:routepoint_id>1885851136</swisstopo:routepoint_id>
				</extensions>
			</trkpt>
			<trkpt lat="47.3507728740" lon="7.3396886466">
				<ele>426.9</ele>
				<time>2021-04-12T12:13:03+02:00</time>
				<extensions>
					<swisstopo:routepoint_id>788896679</swisstopo:routepoint_id>
				</extensions>
			</trkpt>
			<trkpt lat="47.3507658542" lon="7.3393698944">
				<ele>427.3</ele>
				<time>2021-04-12T12:13:04+02:00</time>
				<extensions>
					<swisstopo:routepoint_id>422447375</swisstopo:routepoint_id>
				</extensions>
			</trkpt>
			<trkpt lat="47.3507685900" lon="7.3390522504">
				<ele>427.8</ele>
				<time>2021-04-12T12:13:05+02:00</time>
				<extensions>
					<swisstopo:routepoint_id>492094643</swisstopo:routepoint_id>
				</extensions>
			</trkpt>
			<trkpt lat="47.3507814981" lon="7.3387373249">
				<ele>428.2</ele>
				<time>2021-04-12T12:13:06+02:00</time>
				<extensions>
					<swisstopo:routepoint_id>675140304</swisstopo:routepoint_id>
				</extensions>
			</trkpt>
			<trkpt lat="47.3508028247" lon="7.3384258005">
				<ele>428.6</ele>
				<time>2021-04-12T12:13:07+02:00</time>
				<extensions>
					<swisstopo:routepoint_id>1926982227</swisstopo:routepoint_id>
				</extensions>
			</trkpt>
			<trkpt lat="47.3508321163" lon="7.3381181165">
				<ele>429.0</ele>
				<time>2021-04-12T12:13:08+02:00</time>
				<extensions>
					<swisstopo:routepoint_id>589408782</swisstopo:routepoint_id>
				</extensions>
			</trkpt>
			<trkpt lat="47.3508697365" lon="7.3378144696">
				<ele>429.5</ele>
				<time>2021-04-12T12:13:09+02:00</time>
				<extensions>
					<swisstopo:routepoint_id>1998819110</swisstopo:routepoint_id>
				</extensions>
			</trkpt>
			<trkpt lat="47.3509155133" lon="7.3375147008">
				<ele>429.9</ele>
				<time>2021-04-12T12:13:10+02:00</time>
				<extensions>
					<swisstopo:routepoint_id>1066091749</swisstopo:routepoint_id>
				</extensions>
			</trkpt>
			<trkpt lat="47.3509689689" lon="7.3372184586">
				<ele>430.4</ele>
				<time>2021-04-12T12:13:11+02:00</time>
				<extensions>
					<swisstopo:routepoint_id>1347958522</swisstopo:routepoint_id>
				</extensions>
			</trkpt>
			<trkpt lat="47.3510291625" lon="7.3369252805">
				<ele>430.8</ele>
				<time>2021-04-12T12:13:12+02:00</time>
				<extensions>
					<swisstopo:routepoint_id>1333887051</swisstopo:routepoint_id>
				</extensions>
			</trkpt>
			<trkpt lat="47.3510953045" lon="7.3366359278">
				<ele>431.3</ele>
				<time>2021-04-12T12:13:13+02:00</time>
				<extensions>
					<swisstopo:routepoint_id>1057875124</swisstopo:routepoint_id>
				</extensions>
			</trkpt>
			<trkpt lat="47.3511670727" lon="7.3363507169">
				<ele>431.7</ele>
				<time>2021-04-12T12:13:14+02:00</time>
				<extensions>
					<swisstopo:routepoint_id>690095555</swisstopo:routepoint_id>
				</extensions>
			</trkpt>
			<trkpt lat="47.3512441617" lon="7.3360691658">
				<ele>432.0</ele>
				<time>2021-04-12T12:13:15+02:00</time>
				<extensions>
					<swisstopo:routepoint_id>2024299085</swisstopo:routepoint_id>
				</extensions>
			</trkpt>
			<trkpt lat="47.3513264578" lon="7.3357909325">
				<ele>432.3</ele>
				<time>2021-04-12T12:13:16+02:00</time>
				<extensions>
					<swisstopo:routepoint_id>1958785821</swisstopo:routepoint_id>
				</extensions>
			</trkpt>
			<trkpt lat="47.3514137630" lon="7.3355158503">
				<ele>432.6</ele>
				<time>2021-04-12T12:13:17+02:00</time>
				<extensions>
					<swisstopo:routepoint_id>388985037</swisstopo:routepoint_id>
				</extensions>
			</trkpt>
			<trkpt lat="47.3515061515" lon="7.3352442146">
				<ele>432.8</ele>
				<time>2021-04-12T12:13:18+02:00</time>
				<extensions>
					<swisstopo:routepoint_id>731295391</swisstopo:routepoint_id>
				</extensions>
			</trkpt>
			<trkpt lat="47.3516038331" lon="7.3349760365">
				<ele>433.0</ele>
				<time>2021-04-12T12:13:19+02:00</time>
				<extensions>
					<swisstopo:routepoint_id>832724756</swisstopo:routepoint_id>
				</extensions>
			</trkpt>
			<trkpt lat="47.3517066572" lon="7.3347116184">
				<ele>433.1</ele>
				<time>2021-04-12T12:13:20+02:00</time>
				<extensions>
					<swisstopo:routepoint_id>454046593</swisstopo:routepoint_id>
				</extensions>
			</trkpt>
			<trkpt lat="47.3518139555" lon="7.3344507570">
				<ele>433.2</ele>
				<time>2021-04-12T12:13:21+02:00</time>
				<extensions>
					<swisstopo:routepoint_id>1151690760</swisstopo:routepoint_id>
				</extensions>
			</trkpt>
			<trkpt lat="47.3519256250" lon="7.3341933269">
				<ele>433.2</ele>
				<time>2021-04-12T12:13:22+02:00</time>
				<extensions>
					<swisstopo:routepoint_id>1196492909</swisstopo:routepoint_id>
				</extensions>
			</trkpt>
			<trkpt lat="47.3520415052" lon="7.3339388083">
				<ele>433.2</ele>
				<time>2021-04-12T12:13:23+02:00</time>
				<extensions>
					<swisstopo:routepoint_id>419451055</swisstopo:routepoint_id>
				</extensions>
			</trkpt>
			<trkpt lat="47.3521616121" lon="7.3336874690">
				<ele>433.1</ele>
				<time>2021-04-12T12:13:24+02:00</time>
				<extensions>
					<swisstopo:routepoint_id>1672551931</swisstopo:routepoint_id>
				</extensions>
			</trkpt>
			<trkpt lat="47.3522858530" lon="7.3334394709">
				<ele>433.1</ele>
				<time>2021-04-12T12:13:25+02:00</time>
				<extensions>
					<swisstopo:routepoint_id>19365087</swisstopo:routepoint_id>
				</extensions>
			</trkpt>
			<trkpt lat="47.3524140399" lon="7.3331954478">
				<ele>433.0</ele>
				<time>2021-04-12T12:13:26+02:00</time>
				<extensions>
					<swisstopo:routepoint_id>1198986512</swisstopo:routepoint_id>
				</extensions>
			</trkpt>
			<trkpt lat="47.3525456591" lon="7.3329560232">
				<ele>433.0</ele>
				<time>2021-04-12T12:13:27+02:00</time>
				<extensions>
					<swisstopo:routepoint_id>1527247383</swisstopo:routepoint_id>
				</extensions>
			</trkpt>
			<trkpt lat="47.3526802511" lon="7.3327217579">
				<ele>432.8</ele>
				<time>2021-04-12T12:13:28+02:00</time>
				<extensions>
					<swisstopo:routepoint_id>1722217137</swisstopo:routepoint_id>
				</extensions>
			</trkpt>
			<trkpt lat="47.3528177809" lon="7.3324930021">
				<ele>432.6</ele>
				<time>2021-04-12T12:13:29+02:00</time>
				<extensions>
					<swisstopo:routepoint_id>1518827293</swisstopo:routepoint_id>
				</extensions>
			</trkpt>
			<trkpt lat="47.3529580709" lon="7.3322700226">
				<ele>432.4</ele>
				<time>2021-04-12T12:13:30+02:00</time>
				<extensions>
					<swisstopo:routepoint_id>1939685209</swisstopo:routepoint_id>
				</extensions>
			</trkpt>
			<trkpt lat="47.3531011949" lon="7.3320529201">
				<ele>432.1</ele>
				<time>2021-04-12T12:13:31+02:00</time>
				<extensions>
					<swisstopo:routepoint_id>1487546203</swisstopo:routepoint_id>
				</extensions>
			</trkpt>
			<trkpt lat="47.3532473090" lon="7.3318418213">
				<ele>431.8</ele>
				<time>2021-04-12T12:13:32+02:00</time>
				<extensions>
					<swisstopo:routepoint_id>184415447</swisstopo:routepoint_id>
				</extensions>
			</trkpt>
			<trkpt lat="47.3533962974" lon="7.3316358370">
				<ele>431.4</ele>
				<time>2021-04-12T12:13:33+02:00</time>
				<extensions>
					<swisstopo:routepoint_id>651515108</swisstopo:routepoint_id>
				</extensions>
			</trkpt>
			<trkpt lat="47.3535480741" lon="7.3314346870">
				<ele>431.0</ele>
				<time>2021-04-12T12:13:34+02:00</time>
				<extensions>
					<swisstopo:routepoint_id>2142787750</swisstopo:routepoint_id>
				</extensions>
			</trkpt>
			<trkpt lat="47.3537022401" lon="7.3312376078">
				<ele>430.5</ele>
				<time>2021-04-12T12:13:35+02:00</time>
				<extensions>
					<swisstopo:routepoint_id>532954060</swisstopo:routepoint_id>
				</extensions>
			</trkpt>
			<trkpt lat="47.3538584566" lon="7.3310439183">
				<ele>430.0</ele>
				<time>2021-04-12T12:13:36+02:00</time>
				<extensions>
					<swisstopo:routepoint_id>204594783</swisstopo:routepoint_id>
				</extensions>
			</trkpt>
			<trkpt lat="47.3540166978" lon="7.3308528779">
				<ele>429.6</ele>
				<time>2021-04-12T12:13:37+02:00</time>
				<extensions>
					<swisstopo:routepoint_id>503199034</swisstopo:routepoint_id>
				</extensions>
			</trkpt>
			<trkpt lat="47.3541773963" lon="7.3306631448">
				<ele>429.1</ele>
				<time>2021-04-12T12:13:38+02:00</time>
				<extensions>
					<swisstopo:routepoint_id>475562552</swisstopo:routepoint_id>
				</extensions>
			</trkpt>
			<trkpt lat="47.3543404589" lon="7.3304733167">
				<ele>428.6</ele>
				<time>2021-04-12T12:13:39+02:00</time>
				<extensions>
					<swisstopo:routepoint_id>1993160977</swisstopo:routepoint_id>
				</extensions>
			</trkpt>
			<trkpt lat="47.3545057197" lon="7.3302827635">
				<ele>428.2</ele>
				<time>2021-04-12T12:13:40+02:00</time>
				<extensions>
					<swisstopo:routepoint_id>459130886</swisstopo:routepoint_id>
				</extensions>
			</trkpt>
			<trkpt lat="47.3546728684" lon="7.3300908693">
				<ele>427.8</ele>
				<time>2021-04-12T12:13:41+02:00</time>
				<extensions>
					<swisstopo:routepoint_id>704057331</swisstopo:routepoint_id>
				</extensions>
			</trkpt>
			<trkpt lat="47.3548412416" lon="7.3298971090">
				<ele>427.4</ele>
				<time>2021-04-12T12:13:42+02:00</time>
				<extensions>
					<swisstopo:routepoint_id>456667147</swisstopo:routepoint_id>
				</extensions>
			</trkpt>
			<trkpt lat="47.3550106300" lon="7.3297007651">
				<ele>427.0</ele>
				<time>2021-04-12T12:13:43+02:00</time>
				<extensions>
					<swisstopo:routepoint_id>98185251</swisstopo:routepoint_id>
				</extensions>
			</trkpt>
			<trkpt lat="47.3551805826" lon="7.3295021972">
				<ele>426.5</ele>
				<time>2021-04-12T12:13:44+02:00</time>
				<extensions>
					<swisstopo:routepoint_id>932072661</swisstopo:routepoint_id>
				</extensions>
			</trkpt>
			<trkpt lat="47.3553512074" lon="7.3293013010">
				<ele>426.1</ele>
				<time>2021-04-12T12:13:45+02:00</time>
				<extensions>
					<swisstopo:routepoint_id>1599492209</swisstopo:routepoint_id>
				</extensions>
			</trkpt>
			<trkpt lat="47.3555222685" lon="7.3290973309">
				<ele>425.8</ele>
				<time>2021-04-12T12:13:46+02:00</time>
				<extensions>
					<swisstopo:routepoint_id>465263517</swisstopo:routepoint_id>
				</extensions>
			</trkpt>
			<trkpt lat="47.3556934971" lon="7.3288900328">
				<ele>425.4</ele>
				<time>2021-04-12T12:13:47+02:00</time>
				<extensions>
					<swisstopo:routepoint_id>695971492</swisstopo:routepoint_id>
				</extensions>
			</trkpt>
			<trkpt lat="47.3558637811" lon="7.3286778152">
				<ele>425.2</ele>
				<time>2021-04-12T12:13:48+02:00</time>
				<extensions>
					<swisstopo:routepoint_id>1996924482</swisstopo:routepoint_id>
				</extensions>
			</trkpt>
			<trkpt lat="47.3560325256" lon="7.3284602647">
				<ele>424.9</ele>
				<time>2021-04-12T12:13:49+02:00</time>
				<extensions>
					<swisstopo:routepoint_id>1435333658</swisstopo:routepoint_id>
				</extensions>
			</trkpt>
			<trkpt lat="47.3561998975" lon="7.3282378484">
				<ele>424.8</ele>
				<time>2021-04-12T12:13:50+02:00</time>
				<extensions>
					<swisstopo:routepoint_id>968983255</swisstopo:routepoint_id>
				</extensions>
			</trkpt>
			<trkpt lat="47.3563656595" lon="7.3280108475">
				<ele>424.8</ele>
				<time>2021-04-12T12:13:51+02:00</time>
				<extensions>
					<swisstopo:routepoint_id>1333071584</swisstopo:routepoint_id>
				</extensions>
			</trkpt>
			<trkpt lat="47.3565290220" lon="7.3277807724">
				<ele>424.8</ele>
				<time>2021-04-12T12:13:52+02:00</time>
				<extensions>
					<swisstopo:routepoint_id>237223137</swisstopo:routepoint_id>
				</extensions>
			</trkpt>
			<trkpt lat="47.3566885722" lon="7.3275474562">
				<ele>424.9</ele>
				<time>2021-04-12T12:13:53+02:00</time>
				<extensions>
					<swisstopo:routepoint_id>1279614727</swisstopo:routepoint_id>
				</extensions>
			</trkpt>
			<trkpt lat="47.3568455185" lon="7.3273065069">
				<ele>425.1</ele>
				<time>2021-04-12T12:13:55+02:00</time>
				<extensions>
					<swisstopo:routepoint_id>1583475631</swisstopo:routepoint_id>
				</extensions>
			</trkpt>
			<trkpt lat="47.3569956539" lon="7.3270650338">
				<ele>425.4</ele>
				<time>2021-04-12T12:13:55+02:00</time>
				<extensions>
					<swisstopo:routepoint_id>1857576593</swisstopo:routepoint_id>
				</extensions>
			</trkpt>
			<trkpt lat="47.3571422170" lon="7.3268190143">
				<ele>425.7</ele>
				<time>2021-04-12T12:13:57+02:00</time>
				<extensions>
					<swisstopo:routepoint_id>172538465</swisstopo:routepoint_id>
				</extensions>
			</trkpt>
			<trkpt lat="47.3572846108" lon="7.3265688187">
				<ele>426.1</ele>
				<time>2021-04-12T12:13:57+02:00</time>
				<extensions>
					<swisstopo:routepoint_id>751057805</swisstopo:routepoint_id>
				</extensions>
			</trkpt>
			<trkpt lat="47.3574228953" lon="7.3263132830">
				<ele>426.5</ele>
				<time>2021-04-12T12:13:59+02:00</time>
				<extensions>
					<swisstopo:routepoint_id>119651569</swisstopo:routepoint_id>
				</extensions>
			</trkpt>
			<trkpt lat="47.3575563687" lon="7.3260536117">
				<ele>426.9</ele>
				<time>2021-04-12T12:13:59+02:00</time>
				<extensions>
					<swisstopo:routepoint_id>939226591</swisstopo:routepoint_id>
				</extensions>
			</trkpt>
			<trkpt lat="47.3576854652" lon="7.3257894353">
				<ele>427.4</ele>
				<time>2021-04-12T12:14:01+02:00</time>
				<extensions>
					<swisstopo:routepoint_id>1576509487</swisstopo:routepoint_id>
				</extensions>
			</trkpt>
			<trkpt lat="47.3578096952" lon="7.3255217100">
				<ele>427.9</ele>
				<time>2021-04-12T12:14:01+02:00</time>
				<extensions>
					<swisstopo:routepoint_id>741711323</swisstopo:routepoint_id>
				</extensions>
			</trkpt>
			<trkpt lat="47.3579291647" lon="7.3252495726">
				<ele>428.4</ele>
				<time>2021-04-12T12:14:02+02:00</time>
				<extensions>
					<swisstopo:routepoint_id>1947118473</swisstopo:routepoint_id>
				</extensions>
			</trkpt>
			<trkpt lat="47.3580439747" lon="7.3249734742">
				<ele>428.9</ele>
				<time>2021-04-12T12:14:03+02:00</time>
				<extensions>
					<swisstopo:routepoint_id>1864362725</swisstopo:routepoint_id>
				</extensions>
			</trkpt>
			<trkpt lat="47.3581539975" lon="7.3246930133">
				<ele>429.4</ele>
				<time>2021-04-12T12:14:04+02:00</time>
				<extensions>
					<swisstopo:routepoint_id>410425698</swisstopo:routepoint_id>
				</extensions>
			</trkpt>
			<trkpt lat="47.3582591209" lon="7.3244085005">
				<ele>430.0</ele>
				<time>2021-04-12T12:14:05+02:00</time>
				<extensions>
					<swisstopo:routepoint_id>307232122</swisstopo:routepoint_id>
				</extensions>
			</trkpt>
			<trkpt lat="47.3583592774" lon="7.3241193615">
				<ele>430.5</ele>
				<time>2021-04-12T12:14:06+02:00</time>
				<extensions>
					<swisstopo:routepoint_id>1099587066</swisstopo:routepoint_id>
				</extensions>
			</trkpt>
			<trkpt lat="47.3584546425" lon="7.3238237881">
				<ele>431.1</ele>
				<time>2021-04-12T12:14:07+02:00</time>
				<extensions>
					<swisstopo:routepoint_id>1663035827</swisstopo:routepoint_id>
				</extensions>
			</trkpt>
			<trkpt lat="47.3585451349" lon="7.3235211051">
				<ele>431.6</ele>
				<time>2021-04-12T12:14:08+02:00</time>
				<extensions>
					<swisstopo:routepoint_id>1143478684</swisstopo:routepoint_id>
				</extensions>
			</trkpt>
			<trkpt lat="47.3586301766" lon="7.3232124500">
				<ele>432.2</ele>
				<time>2021-04-12T12:14:09+02:00</time>
				<extensions>
					<swisstopo:routepoint_id>615084985</swisstopo:routepoint_id>
				</extensions>
			</trkpt>
			<trkpt lat="47.3587094135" lon="7.3228999053">
				<ele>432.7</ele>
				<time>2021-04-12T12:14:10+02:00</time>
				<extensions>
					<swisstopo:routepoint_id>1894549884</swisstopo:routepoint_id>
				</extensions>
			</trkpt>
			<trkpt lat="47.3587825489" lon="7.3225853575">
				<ele>433.2</ele>
				<time>2021-04-12T12:14:11+02:00</time>
				<extensions>
					<swisstopo:routepoint_id>959866319</swisstopo:routepoint_id>
				</extensions>
			</trkpt>
			<trkpt lat="47.3588493407" lon="7.3222705230">
				<ele>433.7</ele>
				<time>2021-04-12T12:14:12+02:00</time>
				<extensions>
					<swisstopo:routepoint_id>576067169</swisstopo:routepoint_id>
				</extensions>
			</trkpt>
			<trkpt lat="47.3589102594" lon="7.3219565661">
				<ele>434.2</ele>
				<time>2021-04-12T12:14:13+02:00</time>
				<extensions>
					<swisstopo:routepoint_id>1104628707</swisstopo:routepoint_id>
				</extensions>
			</trkpt>
			<trkpt lat="47.3589659667" lon="7.3216439369">
				<ele>434.6</ele>
				<time>2021-04-12T12:14:14+02:00</time>
				<extensions>
					<swisstopo:routepoint_id>498550234</swisstopo:routepoint_id>
				</extensions>
			</trkpt>
			<trkpt lat="47.3590164196" lon="7.3213324301">
				<ele>435.1</ele>
				<time>2021-04-12T12:14:15+02:00</time>
				<extensions>
					<swisstopo:routepoint_id>1800075891</swisstopo:routepoint_id>
				</extensions>
			</trkpt>
			<trkpt lat="47.3590619457" lon="7.3210217662">
				<ele>435.5</ele>
				<time>2021-04-12T12:14:16+02:00</time>
				<extensions>
					<swisstopo:routepoint_id>125881101</swisstopo:routepoint_id>
				</extensions>
			</trkpt>
			<trkpt lat="47.3591029002" lon="7.3207117718">
				<ele>435.9</ele>
				<time>2021-04-12T12:14:17+02:00</time>
				<extensions>
					<swisstopo:routepoint_id>412272212</swisstopo:routepoint_id>
				</extensions>
			</trkpt>
			<trkpt lat="47.3591393222" lon="7.3204016163">
				<ele>436.4</ele>
				<time>2021-04-12T12:14:18+02:00</time>
				<extensions>
					<swisstopo:routepoint_id>1276821862</swisstopo:routepoint_id>
				</extensions>
			</trkpt>
			<trkpt lat="47.3591716859" lon="7.3200918755">
				<ele>436.8</ele>
				<time>2021-04-12T12:14:19+02:00</time>
				<extensions>
					<swisstopo:routepoint_id>1888433810</swisstopo:routepoint_id>
				</extensions>
			</trkpt>
			<trkpt lat="47.3592002867" lon="7.3197833554">
				<ele>437.2</ele>
				<time>2021-04-12T12:14:20+02:00</time>
				<extensions>
					<swisstopo:routepoint_id>1246225657</swisstopo:routepoint_id>
				</extensions>
			</trkpt>
			<trkpt lat="47.3592254233" lon="7.3194768387">
				<ele>437.6</ele>
				<time>2021-04-12T12:14:21+02:00</time>
				<extensions>
					<swisstopo:routepoint_id>906608008</swisstopo:routepoint_id>
				</extensions>
			</trkpt>
			<trkpt lat="47.3592473261" lon="7.3191731942">
				<ele>438.0</ele>
				<time>2021-04-12T12:14:22+02:00</time>
				<extensions>
					<swisstopo:routepoint_id>964314991</swisstopo:routepoint_id>
				</extensions>
			</trkpt>
			<trkpt lat="47.3592660199" lon="7.3188730335">
				<ele>438.5</ele>
				<time>2021-04-12T12:14:23+02:00</time>
				<extensions>
					<swisstopo:routepoint_id>182969828</swisstopo:routepoint_id>
				</extensions>
			</trkpt>
			<trkpt lat="47.3592819474" lon="7.3185768978">
				<ele>438.9</ele>
				<time>2021-04-12T12:14:24+02:00</time>
				<extensions>
					<swisstopo:routepoint_id>2124800339</swisstopo:routepoint_id>
				</extensions>
			</trkpt>
			<trkpt lat="47.3592953389" lon="7.3182844874">
				<ele>439.3</ele>
				<time>2021-04-12T12:14:25+02:00</time>
				<extensions>
					<swisstopo:routepoint_id>1013731610</swisstopo:routepoint_id>
				</extensions>
			</trkpt>
			<trkpt lat="47.3593060747" lon="7.3179956290">
				<ele>439.7</ele>
				<time>2021-04-12T12:14:26+02:00</time>
				<extensions>
					<swisstopo:routepoint_id>1799397619</swisstopo:routepoint_id>
				</extensions>
			</trkpt>
			<trkpt lat="47.3593140735" lon="7.3177099644">
				<ele>440.0</ele>
				<time>2021-04-12T12:14:27+02:00</time>
				<extensions>
					<swisstopo:routepoint_id>1611065479</swisstopo:routepoint_id>
				</extensions>
			</trkpt>
			<trkpt lat="47.3593194482" lon="7.3174272027">
				<ele>440.3</ele>
				<time>2021-04-12T12:14:28+02:00</time>
				<extensions>
					<swisstopo:routepoint_id>1703684177</swisstopo:routepoint_id>
				</extensions>
			</trkpt>
			<trkpt lat="47.3593222236" lon="7.3171471373">
				<ele>440.6</ele>
				<time>2021-04-12T12:14:29+02:00</time>
				<extensions>
					<swisstopo:routepoint_id>1420497388</swisstopo:routepoint_id>
				</extensions>
			</trkpt>
			<trkpt lat="47.3593227227" lon="7.3168689077">
				<ele>441.0</ele>
				<time>2021-04-12T12:14:30+02:00</time>
				<extensions>
					<swisstopo:routepoint_id>723896417</swisstopo:routepoint_id>
				</extensions>
			</trkpt>
			<trkpt lat="47.3593210599" lon="7.3165917678">
				<ele>441.3</ele>
				<time>2021-04-12T12:14:31+02:00</time>
				<extensions>
					<swisstopo:routepoint_id>1032220264</swisstopo:routepoint_id>
				</extensions>
			</trkpt>
			<trkpt lat="47.3593170590" lon="7.3163166211">
				<ele>441.5</ele>
				<time>2021-04-12T12:14:32+02:00</time>
				<extensions>
					<swisstopo:routepoint_id>1153076582</swisstopo:routepoint_id>
				</extensions>
			</trkpt>
			<trkpt lat="47.3593109466" lon="7.3160438377">
				<ele>441.8</ele>
				<time>2021-04-12T12:14:33+02:00</time>
				<extensions>
					<swisstopo:routepoint_id>865683146</swisstopo:routepoint_id>
				</extensions>
			</trkpt>
			<trkpt lat="47.3593028370" lon="7.3157734184">
				<ele>442.1</ele>
				<time>2021-04-12T12:14:34+02:00</time>
				<extensions>
					<swisstopo:routepoint_id>334926397</swisstopo:routepoint_id>
				</extensions>
			</trkpt>
			<trkpt lat="47.3592932573" lon="7.3155048419">
				<ele>442.4</ele>
				<time>2021-04-12T12:14:35+02:00</time>
				<extensions>
					<swisstopo:routepoint_id>553315592</swisstopo:routepoint_id>
				</extensions>
			</trkpt>
			<trkpt lat="47.3592822755" lon="7.3152369458">
				<ele>442.7</ele>
				<time>2021-04-12T12:14:36+02:00</time>
				<extensions>
					<swisstopo:routepoint_id>970963234</swisstopo:routepoint_id>
				</extensions>
			</trkpt>
			<trkpt lat="47.3592701250" lon="7.3149692696">
				<ele>443.0</ele>
				<time>2021-04-12T12:14:37+02:00</time>
				<extensions>
					<swisstopo:routepoint_id>250840285</swisstopo:routepoint_id>
				</extensions>
			</trkpt>
			<trkpt lat="47.3592565310" lon="7.3147013124">
				<ele>443.3</ele>
				<time>2021-04-12T12:14:38+02:00</time>
				<extensions>
					<swisstopo:routepoint_id>362270934</swisstopo:routepoint_id>
				</extensions>
			</trkpt>
			<trkpt lat="47.3592417051" lon="7.3144325835">
				<ele>443.6</ele>
				<time>2021-04-12T12:14:39+02:00</time>
				<extensions>
					<swisstopo:routepoint_id>571448493</swisstopo:routepoint_id>
				</extensions>
			</trkpt>
			<trkpt lat="47.3592255838" lon="7.3141627864">
				<ele>443.8</ele>
				<time>2021-04-12T12:14:40+02:00</time>
				<extensions>
					<swisstopo:routepoint_id>787952467</swisstopo:routepoint_id>
				</extensions>
			</trkpt>
			<trkpt lat="47.3592082514" lon="7.3138918168">
				<ele>444.1</ele>
				<time>2021-04-12T12:14:41+02:00</time>
				<extensions>
					<swisstopo:routepoint_id>1732945467</swisstopo:routepoint_id>
				</extensions>
			</trkpt>
			<trkpt lat="47.3591896489" lon="7.3136202050">
				<ele>444.4</ele>
				<time>2021-04-12T12:14:42+02:00</time>
				<extensions>
					<swisstopo:routepoint_id>1441243255</swisstopo:routepoint_id>
				</extensions>
			</trkpt>
			<trkpt lat="47.3591698794" lon="7.3133479535">
				<ele>444.8</ele>
				<time>2021-04-12T12:14:43+02:00</time>
				<extensions>
					<swisstopo:routepoint_id>1507332272</swisstopo:routepoint_id>
				</extensions>
			</trkpt>
			<trkpt lat="47.3591490978" lon="7.3130752214">
				<ele>445.1</ele>
				<time>2021-04-12T12:14:44+02:00</time>
				<extensions>
					<swisstopo:routepoint_id>2016395492</swisstopo:routepoint_id>
				</extensions>
			</trkpt>
			<trkpt lat="47.3591274235" lon="7.3128019254">
				<ele>445.5</ele>
				<time>2021-04-12T12:14:45+02:00</time>
				<extensions>
					<swisstopo:routepoint_id>119600737</swisstopo:routepoint_id>
				</extensions>
			</trkpt>
			<trkpt lat="47.3591042371" lon="7.3125278115">
				<ele>445.9</ele>
				<time>2021-04-12T12:14:46+02:00</time>
				<extensions>
					<swisstopo:routepoint_id>84893167</swisstopo:routepoint_id>
				</extensions>
			</trkpt>
			<trkpt lat="47.3590791900" lon="7.3122527792">
				<ele>446.2</ele>
				<time>2021-04-12T12:14:47+02:00</time>
				<extensions>
					<swisstopo:routepoint_id>870316161</swisstopo:routepoint_id>
				</extensions>
			</trkpt>
			<trkpt lat="47.3590524324" lon="7.3119766421">
				<ele>446.6</ele>
				<time>2021-04-12T12:14:48+02:00</time>
				<extensions>
					<swisstopo:routepoint_id>892598210</swisstopo:routepoint_id>
				</extensions>
			</trkpt>
			<trkpt lat="47.3590243441" lon="7.3116996593">
				<ele>446.9</ele>
				<time>2021-04-12T12:14:49+02:00</time>
				<extensions>
					<swisstopo:routepoint_id>1724841175</swisstopo:routepoint_id>
				</extensions>
			</trkpt>
			<trkpt lat="47.3589952801" lon="7.3114225151">
				<ele>447.2</ele>
				<time>2021-04-12T12:14:50+02:00</time>
				<extensions>
					<swisstopo:routepoint_id>523877372</swisstopo:routepoint_id>
				</extensions>
			</trkpt>
			<trkpt lat="47.3589648487" lon="7.3111454057">
				<ele>447.5</ele>
				<time>2021-04-12T12:14:51+02:00</time>
				<extensions>
					<swisstopo:routepoint_id>124038504</swisstopo:routepoint_id>
				</extensions>
			</trkpt>
			<trkpt lat="47.3589327312" lon="7.3108678700">
				<ele>447.8</ele>
				<time>2021-04-12T12:14:52+02:00</time>
				<extensions>
					<swisstopo:routepoint_id>1655999138</swisstopo:routepoint_id>
				</extensions>
			</trkpt>
			<trkpt lat="47.3588990839" lon="7.3105900232">
				<ele>448.2</ele>
				<time>2021-04-12T12:14:53+02:00</time>
				<extensions>
					<swisstopo:routepoint_id>989447246</swisstopo:routepoint_id>
				</extensions>
			</trkpt>
			<trkpt lat="47.3588641751" lon="7.3103118999">
				<ele>448.5</ele>
				<time>2021-04-12T12:14:54+02:00</time>
				<extensions>
					<swisstopo:routepoint_id>1673984801</swisstopo:routepoint_id>
				</extensions>
			</trkpt>
			<trkpt lat="47.3588280504" lon="7.3100334773">
				<ele>448.9</ele>
				<time>2021-04-12T12:14:55+02:00</time>
				<extensions>
					<swisstopo:routepoint_id>479291060</swisstopo:routepoint_id>
				</extensions>
			</trkpt>
			<trkpt lat="47.3587907481" lon="7.3097546331">
				<ele>449.2</ele>
				<time>2021-04-12T12:14:56+02:00</time>
				<extensions>
					<swisstopo:routepoint_id>233685523</swisstopo:routepoint_id>
				</extensions>
			</trkpt>
			<trkpt lat="47.3587523030" lon="7.3094759488">
				<ele>449.5</ele>
				<time>2021-04-12T12:14:57+02:00</time>
				<extensions>
					<swisstopo:routepoint_id>1952478345</swisstopo:routepoint_id>
				</extensions>
			</trkpt>
			<trkpt lat="47.3587127401" lon="7.3091976716">
				<ele>449.8</ele>
				<time>2021-04-12T12:14:58+02:00</time>
				<extensions>
					<swisstopo:routepoint_id>1753418255</swisstopo:routepoint_id>
				</extensions>
			</trkpt>
			<trkpt lat="47.3586719420" lon="7.3089201387">
				<ele>450.2</ele>
				<time>2021-04-12T12:14:59+02:00</time>
				<extensions>
					<swisstopo:routepoint_id>1930007651</swisstopo:routepoint_id>
				</extensions>
			</trkpt>
			<trkpt lat="47.3586297729" lon="7.3086428755">
				<ele>450.5</ele>
				<time>2021-04-12T12:15:00+02:00</time>
				<extensions>
					<swisstopo:routepoint_id>2045586069</swisstopo:routepoint_id>
				</extensions>
			</trkpt>
			<trkpt lat="47.3585862868" lon="7.3083660404">
				<ele>450.9</ele>
				<time>2021-04-12T12:15:01+02:00</time>
				<extensions>
					<swisstopo:routepoint_id>1099356860</swisstopo:routepoint_id>
				</extensions>
			</trkpt>
			<trkpt lat="47.3585414809" lon="7.3080896194">
				<ele>451.3</ele>
				<time>2021-04-12T12:15:02+02:00</time>
				<extensions>
					<swisstopo:routepoint_id>2088930879</swisstopo:routepoint_id>
				</extensions>
			</trkpt>
			<trkpt lat="47.3584954140" lon="7.3078138957">
				<ele>451.7</ele>
				<time>2021-04-12T12:15:03+02:00</time>
				<extensions>
					<swisstopo:routepoint_id>1598622197</swisstopo:routepoint_id>
				</extensions>
			</trkpt>
			<trkpt lat="47.3584481036" lon="7.3075387588">
				<ele>452.1</ele>
				<time>2021-04-12T12:15:04+02:00</time>
				<extensions>
					<swisstopo:routepoint_id>875357362</swisstopo:routepoint_id>
				</extensions>
			</trkpt>
			<trkpt lat="47.3583995119" lon="7.3072637578">
				<ele>452.5</ele>
				<time>2021-04-12T12:15:05+02:00</time>
				<extensions>
					<swisstopo:routepoint_id>1868201184</swisstopo:routepoint_id>
				</extensions>
			</trkpt>
			<trkpt lat="47.3583494968" lon="7.3069888487">
				<ele>452.9</ele>
				<time>2021-04-12T12:15:06+02:00</time>
				<extensions>
					<swisstopo:routepoint_id>498896701</swisstopo:routepoint_id>
				</extensions>
			</trkpt>
			<trkpt lat="47.3582979643" lon="7.3067141383">
				<ele>453.2</ele>
				<time>2021-04-12T12:15:07+02:00</time>
				<extensions>
					<swisstopo:routepoint_id>1180695819</swisstopo:routepoint_id>
				</extensions>
			</trkpt>
			<trkpt lat="47.3582447836" lon="7.3064399296">
				<ele>453.6</ele>
				<time>2021-04-12T12:15:08+02:00</time>
				<extensions>
					<swisstopo:routepoint_id>1205731653</swisstopo:routepoint_id>
				</extensions>
			</trkpt>
			<trkpt lat="47.3581899580" lon="7.3061665258">
				<ele>454.1</ele>
				<time>2021-04-12T12:15:09+02:00</time>
				<extensions>
					<swisstopo:routepoint_id>1076198879</swisstopo:routepoint_id>
				</extensions>
			</trkpt>
			<trkpt lat="47.3581335035" lon="7.3058940688">
				<ele>454.5</ele>
				<time>2021-04-12T12:15:10+02:00</time>
				<extensions>
					<swisstopo:routepoint_id>1567284319</swisstopo:routepoint_id>
				</extensions>
			</trkpt>
			<trkpt lat="47.3580751652" lon="7.3056226345">
				<ele>454.9</ele>
				<time>2021-04-12T12:15:11+02:00</time>
				<extensions>
					<swisstopo:routepoint_id>313135331</swisstopo:routepoint_id>
				</extensions>
			</trkpt>
			<trkpt lat="47.3580149590" lon="7.3053523949">
				<ele>455.3</ele>
				<time>2021-04-12T12:15:12+02:00</time>
				<extensions>
					<swisstopo:routepoint_id>1530572967</swisstopo:routepoint_id>
				</extensions>
			</trkpt>
			<trkpt lat="47.3579533483" lon="7.3050842157">
				<ele>455.7</ele>
				<time>2021-04-12T12:15:13+02:00</time>
				<extensions>
					<swisstopo:routepoint_id>1780732603</swisstopo:routepoint_id>
				</extensions>
			</trkpt>
			<trkpt lat="47.3578902751" lon="7.3048178346">
				<ele>456.2</ele>
				<time>2021-04-12T12:15:14+02:00</time>
				<extensions>
					<swisstopo:routepoint_id>1440754029</swisstopo:routepoint_id>
				</extensions>
			</trkpt>
			<trkpt lat="47.3578255857" lon="7.3045528043">
				<ele>456.7</ele>
				<time>2021-04-12T12:15:15+02:00</time>
				<extensions>
					<swisstopo:routepoint_id>1874845478</swisstopo:routepoint_id>
				</extensions>
			</trkpt>
			<trkpt lat="47.3577590645" lon="7.3042889557">
				<ele>457.2</ele>
				<time>2021-04-12T12:15:16+02:00</time>
				<extensions>
					<swisstopo:routepoint_id>500396315</swisstopo:routepoint_id>
				</extensions>
			</trkpt>
			<trkpt lat="47.3576911307" lon="7.3040262352">
				<ele>457.8</ele>
				<time>2021-04-12T12:15:17+02:00</time>
				<extensions>
					<swisstopo:routepoint_id>614904553</swisstopo:routepoint_id>
				</extensions>
			</trkpt>
			<trkpt lat="47.3576216351" lon="7.3037645221">
				<ele>458.3</ele>
				<time>2021-04-12T12:15:18+02:00</time>
				<extensions>
					<swisstopo:routepoint_id>1009512907</swisstopo:routepoint_id>
				</extensions>
			</trkpt>
			<trkpt lat="47.3575504810" lon="7.3035041324">
				<ele>458.9</ele>
				<time>2021-04-12T12:15:19+02:00</time>
				<extensions>
					<swisstopo:routepoint_id>1762616649</swisstopo:routepoint_id>
				</extensions>
			</trkpt>
			<trkpt lat="47.3574774627" lon="7.3032444897">
				<ele>459.5</ele>
				<time>2021-04-12T12:15:20+02:00</time>
				<extensions>
					<swisstopo:routepoint_id>1908593025</swisstopo:routepoint_id>
				</extensions>
			</trkpt>
			<trkpt lat="47.3574026640" lon="7.3029853300">
				<ele>460.1</ele>
				<time>2021-04-12T12:15:21+02:00</time>
				<extensions>
					<swisstopo:routepoint_id>759735936</swisstopo:routepoint_id>
				</extensions>
			</trkpt>
			<trkpt lat="47.3573261408" lon="7.3027274935">
				<ele>460.7</ele>
				<time>2021-04-12T12:15:22+02:00</time>
				<extensions>
					<swisstopo:routepoint_id>2091594937</swisstopo:routepoint_id>
				</extensions>
			</trkpt>
			<trkpt lat="47.3572478852" lon="7.3024708281">
				<ele>461.3</ele>
				<time>2021-04-12T12:15:23+02:00</time>
				<extensions>
					<swisstopo:routepoint_id>1276288416</swisstopo:routepoint_id>
				</extensions>
			</trkpt>
			<trkpt lat="47.3571680690" lon="7.3022155865">
				<ele>461.8</ele>
				<time>2021-04-12T12:15:24+02:00</time>
				<extensions>
					<swisstopo:routepoint_id>1512741476</swisstopo:routepoint_id>
				</extensions>
			</trkpt>
			<trkpt lat="47.3570867985" lon="7.3019614276">
				<ele>462.4</ele>
				<time>2021-04-12T12:15:25+02:00</time>
				<extensions>
					<swisstopo:routepoint_id>587090299</swisstopo:routepoint_id>
				</extensions>
			</trkpt>
			<trkpt lat="47.3570042855" lon="7.3017087204">
				<ele>463.0</ele>
				<time>2021-04-12T12:15:26+02:00</time>
				<extensions>
					<swisstopo:routepoint_id>1686780975</swisstopo:routepoint_id>
				</extensions>
			</trkpt>
			<trkpt lat="47.3569204435" lon="7.3014578789">
				<ele>463.6</ele>
				<time>2021-04-12T12:15:27+02:00</time>
				<extensions>
					<swisstopo:routepoint_id>796222778</swisstopo:routepoint_id>
				</extensions>
			</trkpt>
			<trkpt lat="47.3568355573" lon="7.3012092774">
				<ele>464.2</ele>
				<time>2021-04-12T12:15:28+02:00</time>
				<extensions>
					<swisstopo:routepoint_id>1145625389</swisstopo:routepoint_id>
				</extensions>
			</trkpt>
			<trkpt lat="47.3567499337" lon="7.3009637377">
				<ele>464.9</ele>
				<time>2021-04-12T12:15:29+02:00</time>
				<extensions>
					<swisstopo:routepoint_id>187533921</swisstopo:routepoint_id>
				</extensions>
			</trkpt>
			<trkpt lat="47.3566633907" lon="7.3007218113">
				<ele>465.5</ele>
				<time>2021-04-12T12:15:30+02:00</time>
				<extensions>
					<swisstopo:routepoint_id>1524100098</swisstopo:routepoint_id>
				</extensions>
			</trkpt>
			<trkpt lat="47.3565759371" lon="7.3004834524">
				<ele>466.2</ele>
				<time>2021-04-12T12:15:31+02:00</time>
				<extensions>
					<swisstopo:routepoint_id>365405670</swisstopo:routepoint_id>
				</extensions>
			</trkpt>
			<trkpt lat="47.3564876989" lon="7.3002483955">
				<ele>467.0</ele>
				<time>2021-04-12T12:15:32+02:00</time>
				<extensions>
					<swisstopo:routepoint_id>1717348917</swisstopo:routepoint_id>
				</extensions>
			</trkpt>
			<trkpt lat="47.3563988751" lon="7.3000168095">
				<ele>467.7</ele>
				<time>2021-04-12T12:15:33+02:00</time>
				<extensions>
					<swisstopo:routepoint_id>1303032339</swisstopo:routepoint_id>
				</extensions>
			</trkpt>
			<trkpt lat="47.3563095791" lon="7.2997886461">
				<ele>468.5</ele>
				<time>2021-04-12T12:15:34+02:00</time>
				<extensions>
					<swisstopo:routepoint_id>26289467</swisstopo:routepoint_id>
				</extensions>
			</trkpt>
			<trkpt lat="47.3562196966" lon="7.2995637381">
				<ele>469.2</ele>
				<time>2021-04-12T12:15:35+02:00</time>
				<extensions>
					<swisstopo:routepoint_id>1612924234</swisstopo:routepoint_id>
				</extensions>
			</trkpt>
			<trkpt lat="47.3561294933" lon="7.2993425501">
				<ele>470.0</ele>
				<time>2021-04-12T12:15:36+02:00</time>
				<extensions>
					<swisstopo:routepoint_id>731524757</swisstopo:routepoint_id>
				</extensions>
			</trkpt>
			<trkpt lat="47.3560392335" lon="7.2991246564">
				<ele>470.8</ele>
				<time>2021-04-12T12:15:37+02:00</time>
				<extensions>
					<swisstopo:routepoint_id>392711824</swisstopo:routepoint_id>
				</extensions>
			</trkpt>
			<trkpt lat="47.3559502109" lon="7.2989077413">
				<ele>471.6</ele>
				<time>2021-04-12T12:15:38+02:00</time>
				<extensions>
					<swisstopo:routepoint_id>1090378737</swisstopo:routepoint_id>
				</extensions>
			</trkpt>
			<trkpt lat="47.3558629104" lon="7.2986909292">
				<ele>472.6</ele>
				<time>2021-04-12T12:15:39+02:00</time>
				<extensions>
					<swisstopo:routepoint_id>1517472908</swisstopo:routepoint_id>
				</extensions>
			</trkpt>
			<trkpt lat="47.3557770022" lon="7.2984740861">
				<ele>473.6</ele>
				<time>2021-04-12T12:15:40+02:00</time>
				<extensions>
					<swisstopo:routepoint_id>651372984</swisstopo:routepoint_id>
				</extensions>
			</trkpt>
			<trkpt lat="47.3556919556" lon="7.2982565958">
				<ele>474.7</ele>
				<time>2021-04-12T12:15:41+02:00</time>
				<extensions>
					<swisstopo:routepoint_id>1901593329</swisstopo:routepoint_id>
				</extensions>
			</trkpt>
			<trkpt lat="47.3512494191" lon="7.2911089887">
				<ele>510.0</ele>
				<time>2021-04-12T12:16:30+02:00</time>
				<extensions>
					<swisstopo:routepoint_id>1227445849</swisstopo:routepoint_id>
				</extensions>
			</trkpt>
			<trkpt lat="47.3511597377" lon="7.2909897290">
				<ele>507.3</ele>
				<time>2021-04-12T12:16:31+02:00</time>
				<extensions>
					<swisstopo:routepoint_id>954471061</swisstopo:routepoint_id>
				</extensions>
			</trkpt>
			<trkpt lat="47.3510703152" lon="7.2908762760">
				<ele>506.5</ele>
				<time>2021-04-12T12:16:32+02:00</time>
				<extensions>
					<swisstopo:routepoint_id>92279137</swisstopo:routepoint_id>
				</extensions>
			</trkpt>
			<trkpt lat="47.3509847386" lon="7.2907687098">
				<ele>506.3</ele>
				<time>2021-04-12T12:16:33+02:00</time>
				<extensions>
					<swisstopo:routepoint_id>452262425</swisstopo:routepoint_id>
				</extensions>
			</trkpt>
			<trkpt lat="47.3509030729" lon="7.2906604422">
				<ele>506.3</ele>
				<time>2021-04-12T12:16:34+02:00</time>
				<extensions>
					<swisstopo:routepoint_id>1229950242</swisstopo:routepoint_id>
				</extensions>
			</trkpt>
			<trkpt lat="47.3508216712" lon="7.2905509514">
				<ele>506.4</ele>
				<time>2021-04-12T12:16:35+02:00</time>
				<extensions>
					<swisstopo:routepoint_id>96131272</swisstopo:routepoint_id>
				</extensions>
			</trkpt>
			<trkpt lat="47.3507406446" lon="7.2904377269">
				<ele>506.6</ele>
				<time>2021-04-12T12:16:36+02:00</time>
				<extensions>
					<swisstopo:routepoint_id>770585960</swisstopo:routepoint_id>
				</extensions>
			</trkpt>
			<trkpt lat="47.3506596338" lon="7.2903204230">
				<ele>506.8</ele>
				<time>2021-04-12T12:16:37+02:00</time>
				<extensions>
					<swisstopo:routepoint_id>1911838310</swisstopo:routepoint_id>
				</extensions>
			</trkpt>
			<trkpt lat="47.3505783756" lon="7.2901999070">
				<ele>507.0</ele>
				<time>2021-04-12T12:16:38+02:00</time>
				<extensions>
					<swisstopo:routepoint_id>1616149756</swisstopo:routepoint_id>
				</extensions>
			</trkpt>
			<trkpt lat="47.3504963678" lon="7.2900769570">
				<ele>507.2</ele>
				<time>2021-04-12T12:16:39+02:00</time>
				<extensions>
					<swisstopo:routepoint_id>1255781836</swisstopo:routepoint_id>
				</extensions>
			</trkpt>
			<trkpt lat="47.3504139430" lon="7.2899524634">
				<ele>507.5</ele>
				<time>2021-04-12T12:16:40+02:00</time>
				<extensions>
					<swisstopo:routepoint_id>456034936</swisstopo:routepoint_id>
				</extensions>
			</trkpt>
			<trkpt lat="47.3503306237" lon="7.2898267565">
				<ele>507.8</ele>
				<time>2021-04-12T12:16:41+02:00</time>
				<extensions>
					<swisstopo:routepoint_id>210033209</swisstopo:routepoint_id>
				</extensions>
			</trkpt>
			<trkpt lat="47.3502465746" lon="7.2896998131">
				<ele>508.2</ele>
				<time>2021-04-12T12:16:42+02:00</time>
				<extensions>
					<swisstopo:routepoint_id>1712511642</swisstopo:routepoint_id>
				</extensions>
			</trkpt>
			<trkpt lat="47.3501619034" lon="7.2895717906">
				<ele>508.6</ele>
				<time>2021-04-12T12:16:43+02:00</time>
				<extensions>
					<swisstopo:routepoint_id>1607330000</swisstopo:routepoint_id>
				</extensions>
			</trkpt>
			<trkpt lat="47.3500766978" lon="7.2894431278">
				<ele>509.1</ele>
				<time>2021-04-12T12:16:44+02:00</time>
				<extensions>
					<swisstopo:routepoint_id>1198514387</swisstopo:routepoint_id>
				</extensions>
			</trkpt>
			<trkpt lat="47.3499909157" lon="7.2893143382">
				<ele>509.5</ele>
				<time>2021-04-12T12:16:45+02:00</time>
				<extensions>
					<swisstopo:routepoint_id>34693449</swisstopo:routepoint_id>
				</extensions>
			</trkpt>
			<trkpt lat="47.3499046354" lon="7.2891859755">
				<ele>509.9</ele>
				<time>2021-04-12T12:16:46+02:00</time>
				<extensions>
					<swisstopo:routepoint_id>1124729006</swisstopo:routepoint_id>
				</extensions>
			</trkpt>
			<trkpt lat="47.3498182610" lon="7.2890579786">
				<ele>510.4</ele>
				<time>2021-04-12T12:16:47+02:00</time>
				<extensions>
					<swisstopo:routepoint_id>1169342948</swisstopo:routepoint_id>
				</extensions>
			</trkpt>
			<trkpt lat="47.3497316719" lon="7.2889308874">
				<ele>510.8</ele>
				<time>2021-04-12T12:16:48+02:00</time>
				<extensions>
					<swisstopo:routepoint_id>1524073339</swisstopo:routepoint_id>
				</extensions>
			</trkpt>
			<trkpt lat="47.3496450831" lon="7.2888050293">
				<ele>511.2</ele>
				<time>2021-04-12T12:16:49+02:00</time>
				<extensions>
					<swisstopo:routepoint_id>2063150804</swisstopo:routepoint_id>
				</extensions>
			</trkpt>
			<trkpt lat="47.3495584117" lon="7.2886799239">
				<ele>511.6</ele>
				<time>2021-04-12T12:16:50+02:00</time>
				<extensions>
					<swisstopo:routepoint_id>2104598366</swisstopo:routepoint_id>
				</extensions>
			</trkpt>
			<trkpt lat="47.3494716800" lon="7.2885551175">
				<ele>512.0</ele>
				<time>2021-04-12T12:16:51+02:00</time>
				<extensions>
					<swisstopo:routepoint_id>781587625</swisstopo:routepoint_id>
				</extensions>
			</trkpt>
			<trkpt lat="47.3493850190" lon="7.2884302429">
				<ele>512.3</ele>
				<time>2021-04-12T12:16:52+02:00</time>
				<extensions>
					<swisstopo:routepoint_id>2133228323</swisstopo:routepoint_id>
				</extensions>
			</trkpt>
			<trkpt lat="47.3492982828" lon="7.2883049063">
				<ele>512.6</ele>
				<time>2021-04-12T12:16:53+02:00</time>
				<extensions>
					<swisstopo:routepoint_id>928937996</swisstopo:routepoint_id>
				</extensions>
			</trkpt>
			<trkpt lat="47.3492114012" lon="7.2881788515">
				<ele>512.9</ele>
				<time>2021-04-12T12:16:54+02:00</time>
				<extensions>
					<swisstopo:routepoint_id>454785082</swisstopo:routepoint_id>
				</extensions>
			</trkpt>
			<trkpt lat="47.3491242560" lon="7.2880522213">
				<ele>513.2</ele>
				<time>2021-04-12T12:16:55+02:00</time>
				<extensions>
					<swisstopo:routepoint_id>678573501</swisstopo:routepoint_id>
				</extensions>
			</trkpt>
			<trkpt lat="47.3490369162" lon="7.2879251386">
				<ele>513.5</ele>
				<time>2021-04-12T12:16:56+02:00</time>
				<extensions>
					<swisstopo:routepoint_id>1646665737</swisstopo:routepoint_id>
				</extensions>
			</trkpt>
			<trkpt lat="47.3489496900" lon="7.2877973534">
				<ele>513.7</ele>
				<time>2021-04-12T12:16:57+02:00</time>
				<extensions>
					<swisstopo:routepoint_id>889282870</swisstopo:routepoint_id>
				</extensions>
			</trkpt>
			<trkpt lat="47.3488623077" lon="7.2876687924">
				<ele>513.9</ele>
				<time>2021-04-12T12:16:58+02:00</time>
				<extensions>
					<swisstopo:routepoint_id>1838496617</swisstopo:routepoint_id>
				</extensions>
			</trkpt>
			<trkpt lat="47.3487748737" lon="7.2875389967">
				<ele>514.2</ele>
				<time>2021-04-12T12:16:59+02:00</time>
				<extensions>
					<swisstopo:routepoint_id>1617928883</swisstopo:routepoint_id>
				</extensions>
			</trkpt>
			<trkpt lat="47.3486868738" lon="7.2874078679">
				<ele>514.3</ele>
				<time>2021-04-12T12:17:00+02:00</time>
				<extensions>
					<swisstopo:routepoint_id>1092798267</swisstopo:routepoint_id>
				</extensions>
			</trkpt>
			<trkpt lat="47.3485982231" lon="7.2872749454">
				<ele>514.5</ele>
				<time>2021-04-12T12:17:01+02:00</time>
				<extensions>
					<swisstopo:routepoint_id>1380324325</swisstopo:routepoint_id>
				</extensions>
			</trkpt>
			<trkpt lat="47.3485085963" lon="7.2871395420">
				<ele>514.8</ele>
				<time>2021-04-12T12:17:02+02:00</time>
				<extensions>
					<swisstopo:routepoint_id>1992575381</swisstopo:routepoint_id>
				</extensions>
			</trkpt>
			<trkpt lat="47.3484177987" lon="7.2870008960">
				<ele>515.0</ele>
				<time>2021-04-12T12:17:03+02:00</time>
				<extensions>
					<swisstopo:routepoint_id>1354437149</swisstopo:routepoint_id>
				</extensions>
			</trkpt>
			<trkpt lat="47.3483260308" lon="7.2868587715">
				<ele>515.2</ele>
				<time>2021-04-12T12:17:04+02:00</time>
				<extensions>
					<swisstopo:routepoint_id>698505043</swisstopo:routepoint_id>
				</extensions>
			</trkpt>
			<trkpt lat="47.3482333616" lon="7.2867134265">
				<ele>515.3</ele>
				<time>2021-04-12T12:17:05+02:00</time>
				<extensions>
					<swisstopo:routepoint_id>1628643199</swisstopo:routepoint_id>
				</extensions>
			</trkpt>
			<trkpt lat="47.3481397382" lon="7.2865653383">
				<ele>515.5</ele>
				<time>2021-04-12T12:17:06+02:00</time>
				<extensions>
					<swisstopo:routepoint_id>779680931</swisstopo:routepoint_id>
				</extensions>
			</trkpt>
			<trkpt lat="47.3480453430" lon="7.2864145568">
				<ele>515.7</ele>
				<time>2021-04-12T12:17:07+02:00</time>
				<extensions>
					<swisstopo:routepoint_id>152193323</swisstopo:routepoint_id>
				</extensions>
			</trkpt>
			<trkpt lat="47.3479504088" lon="7.2862612944">
				<ele>515.9</ele>
				<time>2021-04-12T12:17:08+02:00</time>
				<extensions>
					<swisstopo:routepoint_id>260156084</swisstopo:routepoint_id>
				</extensions>
			</trkpt>
			<trkpt lat="47.3478550274" lon="7.2861058614">
				<ele>516.0</ele>
				<time>2021-04-12T12:17:09+02:00</time>
				<extensions>
					<swisstopo:routepoint_id>166598496</swisstopo:routepoint_id>
				</extensions>
			</trkpt>
			<trkpt lat="47.3477592373" lon="7.2859483735">
				<ele>516.2</ele>
				<time>2021-04-12T12:17:10+02:00</time>
				<extensions>
					<swisstopo:routepoint_id>1849730231</swisstopo:routepoint_id>
				</extensions>
			</trkpt>
			<trkpt lat="47.3476632944" lon="7.2857889275">
				<ele>516.4</ele>
				<time>2021-04-12T12:17:11+02:00</time>
				<extensions>
					<swisstopo:routepoint_id>1442718445</swisstopo:routepoint_id>
				</extensions>
			</trkpt>
			<trkpt lat="47.3475673271" lon="7.2856274434">
				<ele>516.6</ele>
				<time>2021-04-12T12:17:12+02:00</time>
				<extensions>
					<swisstopo:routepoint_id>531046838</swisstopo:routepoint_id>
				</extensions>
			</trkpt>
			<trkpt lat="47.3474715421" lon="7.2854641606">
				<ele>516.7</ele>
				<time>2021-04-12T12:17:13+02:00</time>
				<extensions>
					<swisstopo:routepoint_id>362169334</swisstopo:routepoint_id>
				</extensions>
			</trkpt>
			<trkpt lat="47.3473757955" lon="7.2852990545">
				<ele>517.0</ele>
				<time>2021-04-12T12:17:14+02:00</time>
				<extensions>
					<swisstopo:routepoint_id>1011340940</swisstopo:routepoint_id>
				</extensions>
			</trkpt>
			<trkpt lat="47.3472803131" lon="7.2851315670">
				<ele>517.2</ele>
				<time>2021-04-12T12:17:15+02:00</time>
				<extensions>
					<swisstopo:routepoint_id>274112575</swisstopo:routepoint_id>
				</extensions>
			</trkpt>
			<trkpt lat="47.3471848466" lon="7.2849611018">
				<ele>517.4</ele>
				<time>2021-04-12T12:17:16+02:00</time>
				<extensions>
					<swisstopo:routepoint_id>657625210</swisstopo:routepoint_id>
				</extensions>
			</trkpt>
			<trkpt lat="47.3470891663" lon="7.2847868923">
				<ele>517.6</ele>
				<time>2021-04-12T12:17:17+02:00</time>
				<extensions>
					<swisstopo:routepoint_id>1756057008</swisstopo:routepoint_id>
				</extensions>
			</trkpt>
			<trkpt lat="47.3469929421" lon="7.2846083557">
				<ele>517.7</ele>
				<time>2021-04-12T12:17:18+02:00</time>
				<extensions>
					<swisstopo:routepoint_id>1182372735</swisstopo:routepoint_id>
				</extensions>
			</trkpt>
			<trkpt lat="47.3468960404" lon="7.2844252260">
				<ele>517.9</ele>
				<time>2021-04-12T12:17:19+02:00</time>
				<extensions>
					<swisstopo:routepoint_id>1472371454</swisstopo:routepoint_id>
				</extensions>
			</trkpt>
			<trkpt lat="47.3467987142" lon="7.2842374031">
				<ele>518.0</ele>
				<time>2021-04-12T12:17:20+02:00</time>
				<extensions>
					<swisstopo:routepoint_id>692962997</swisstopo:routepoint_id>
				</extensions>
			</trkpt>
			<trkpt lat="47.3467012379" lon="7.2840451926">
				<ele>518.2</ele>
				<time>2021-04-12T12:17:21+02:00</time>
				<extensions>
					<swisstopo:routepoint_id>825272898</swisstopo:routepoint_id>
				</extensions>
			</trkpt>
			<trkpt lat="47.3466038295" lon="7.2838488482">
				<ele>518.3</ele>
				<time>2021-04-12T12:17:22+02:00</time>
				<extensions>
					<swisstopo:routepoint_id>1912204360</swisstopo:routepoint_id>
				</extensions>
			</trkpt>
			<trkpt lat="47.3465068336" lon="7.2836490494">
				<ele>518.3</ele>
				<time>2021-04-12T12:17:23+02:00</time>
				<extensions>
					<swisstopo:routepoint_id>1325901165</swisstopo:routepoint_id>
				</extensions>
			</trkpt>
			<trkpt lat="47.3464106313" lon="7.2834449905">
				<ele>518.3</ele>
				<time>2021-04-12T12:17:24+02:00</time>
				<extensions>
					<swisstopo:routepoint_id>2130558883</swisstopo:routepoint_id>
				</extensions>
			</trkpt>
			<trkpt lat="47.3463150606" lon="7.2832366781">
				<ele>518.3</ele>
				<time>2021-04-12T12:17:25+02:00</time>
				<extensions>
					<swisstopo:routepoint_id>1160816503</swisstopo:routepoint_id>
				</extensions>
			</trkpt>
			<trkpt lat="47.3462204274" lon="7.2830245172">
				<ele>518.3</ele>
				<time>2021-04-12T12:17:26+02:00</time>
				<extensions>
					<swisstopo:routepoint_id>2101516573</swisstopo:routepoint_id>
				</extensions>
			</trkpt>
			<trkpt lat="47.3461269876" lon="7.2828088035">
				<ele>518.3</ele>
				<time>2021-04-12T12:17:27+02:00</time>
				<extensions>
					<swisstopo:routepoint_id>525500202</swisstopo:routepoint_id>
				</extensions>
			</trkpt>
			<trkpt lat="47.3460350175" lon="7.2825899569">
				<ele>518.2</ele>
				<time>2021-04-12T12:17:28+02:00</time>
				<extensions>
					<swisstopo:routepoint_id>1629138550</swisstopo:routepoint_id>
				</extensions>
			</trkpt>
			<trkpt lat="47.3459446206" lon="7.2823678540">
				<ele>518.1</ele>
				<time>2021-04-12T12:17:29+02:00</time>
				<extensions>
					<swisstopo:routepoint_id>515110600</swisstopo:routepoint_id>
				</extensions>
			</trkpt>
			<trkpt lat="47.3458562200" lon="7.2821431851">
				<ele>518.0</ele>
				<time>2021-04-12T12:17:30+02:00</time>
				<extensions>
					<swisstopo:routepoint_id>957273143</swisstopo:routepoint_id>
				</extensions>
			</trkpt>
			<trkpt lat="47.3457700006" lon="7.2819158441">
				<ele>517.9</ele>
				<time>2021-04-12T12:17:31+02:00</time>
				<extensions>
					<swisstopo:routepoint_id>2089714724</swisstopo:routepoint_id>
				</extensions>
			</trkpt>
			<trkpt lat="47.3456861071" lon="7.2816866391">
				<ele>517.8</ele>
				<time>2021-04-12T12:17:32+02:00</time>
				<extensions>
					<swisstopo:routepoint_id>1887803230</swisstopo:routepoint_id>
				</extensions>
			</trkpt>
			<trkpt lat="47.3456049033" lon="7.2814563488">
				<ele>517.6</ele>
				<time>2021-04-12T12:17:33+02:00</time>
				<extensions>
					<swisstopo:routepoint_id>1385485832</swisstopo:routepoint_id>
				</extensions>
			</trkpt>
			<trkpt lat="47.3455264322" lon="7.2812253748">
				<ele>517.4</ele>
				<time>2021-04-12T12:17:34+02:00</time>
				<extensions>
					<swisstopo:routepoint_id>695194003</swisstopo:routepoint_id>
				</extensions>
			</trkpt>
			<trkpt lat="47.3454503643" lon="7.2809938164">
				<ele>517.1</ele>
				<time>2021-04-12T12:17:35+02:00</time>
				<extensions>
					<swisstopo:routepoint_id>1814568741</swisstopo:routepoint_id>
				</extensions>
			</trkpt>
			<trkpt lat="47.3453766248" lon="7.2807612887">
				<ele>516.8</ele>
				<time>2021-04-12T12:17:36+02:00</time>
				<extensions>
					<swisstopo:routepoint_id>1041558940</swisstopo:routepoint_id>
				</extensions>
			</trkpt>
			<trkpt lat="47.3453052211" lon="7.2805273306">
				<ele>516.5</ele>
				<time>2021-04-12T12:17:37+02:00</time>
				<extensions>
					<swisstopo:routepoint_id>1341897883</swisstopo:routepoint_id>
				</extensions>
			</trkpt>
			<trkpt lat="47.3452362638" lon="7.2802916506">
				<ele>516.1</ele>
				<time>2021-04-12T12:17:38+02:00</time>
				<extensions>
					<swisstopo:routepoint_id>404458787</swisstopo:routepoint_id>
				</extensions>
			</trkpt>
			<trkpt lat="47.3451698305" lon="7.2800539942">
				<ele>515.6</ele>
				<time>2021-04-12T12:17:39+02:00</time>
				<extensions>
					<swisstopo:routepoint_id>953090354</swisstopo:routepoint_id>
				</extensions>
			</trkpt>
			<trkpt lat="47.3451059135" lon="7.2798145524">
				<ele>515.1</ele>
				<time>2021-04-12T12:17:40+02:00</time>
				<extensions>
					<swisstopo:routepoint_id>509056705</swisstopo:routepoint_id>
				</extensions>
			</trkpt>
			<trkpt lat="47.3450444295" lon="7.2795735140">
				<ele>514.6</ele>
				<time>2021-04-12T12:17:41+02:00</time>
				<extensions>
					<swisstopo:routepoint_id>141191287</swisstopo:routepoint_id>
				</extensions>
			</trkpt>
			<trkpt lat="47.3449853616" lon="7.2793309700">
				<ele>514.1</ele>
				<time>2021-04-12T12:17:42+02:00</time>
				<extensions>
					<swisstopo:routepoint_id>32530674</swisstopo:routepoint_id>
				</extensions>
			</trkpt>
			<trkpt lat="47.3449285799" lon="7.2790873489">
				<ele>513.5</ele>
				<time>2021-04-12T12:17:43+02:00</time>
				<extensions>
					<swisstopo:routepoint_id>1282191580</swisstopo:routepoint_id>
				</extensions>
			</trkpt>
			<trkpt lat="47.3448742916" lon="7.2788423202">
				<ele>512.9</ele>
				<time>2021-04-12T12:17:44+02:00</time>
				<extensions>
					<swisstopo:routepoint_id>1942971062</swisstopo:routepoint_id>
				</extensions>
			</trkpt>
			<trkpt lat="47.3448226270" lon="7.2785956095">
				<ele>512.4</ele>
				<time>2021-04-12T12:17:45+02:00</time>
				<extensions>
					<swisstopo:routepoint_id>878302752</swisstopo:routepoint_id>
				</extensions>
			</trkpt>
			<trkpt lat="47.3447735469" lon="7.2783473707">
				<ele>511.8</ele>
				<time>2021-04-12T12:17:46+02:00</time>
				<extensions>
					<swisstopo:routepoint_id>1979247033</swisstopo:routepoint_id>
				</extensions>
			</trkpt>
			<trkpt lat="47.3447272283" lon="7.2780977534">
				<ele>511.3</ele>
				<time>2021-04-12T12:17:47+02:00</time>
				<extensions>
					<swisstopo:routepoint_id>683191601</swisstopo:routepoint_id>
				</extensions>
			</trkpt>
			<trkpt lat="47.3446837839" lon="7.2778467707">
				<ele>510.9</ele>
				<time>2021-04-12T12:17:48+02:00</time>
				<extensions>
					<swisstopo:routepoint_id>1953661145</swisstopo:routepoint_id>
				</extensions>
			</trkpt>
			<trkpt lat="47.3446433683" lon="7.2775949127">
				<ele>510.4</ele>
				<time>2021-04-12T12:17:49+02:00</time>
				<extensions>
					<swisstopo:routepoint_id>157901385</swisstopo:routepoint_id>
				</extensions>
			</trkpt>
			<trkpt lat="47.3446057314" lon="7.2773428760">
				<ele>509.9</ele>
				<time>2021-04-12T12:17:50+02:00</time>
				<extensions>
					<swisstopo:routepoint_id>1706273650</swisstopo:routepoint_id>
				</extensions>
			</trkpt>
			<trkpt lat="47.3445710327" lon="7.2770920672">
				<ele>509.5</ele>
				<time>2021-04-12T12:17:51+02:00</time>
				<extensions>
					<swisstopo:routepoint_id>1992097159</swisstopo:routepoint_id>
				</extensions>
			</trkpt>
			<trkpt lat="47.3445390579" lon="7.2768434503">
				<ele>509.1</ele>
				<time>2021-04-12T12:17:52+02:00</time>
				<extensions>
					<swisstopo:routepoint_id>1906894583</swisstopo:routepoint_id>
				</extensions>
			</trkpt>
			<trkpt lat="47.3445100966" lon="7.2765970436">
				<ele>508.7</ele>
				<time>2021-04-12T12:17:53+02:00</time>
				<extensions>
					<swisstopo:routepoint_id>131308653</swisstopo:routepoint_id>
				</extensions>
			</trkpt>
			<trkpt lat="47.3444843197" lon="7.2763532486">
				<ele>508.4</ele>
				<time>2021-04-12T12:17:54+02:00</time>
				<extensions>
					<swisstopo:routepoint_id>1438825502</swisstopo:routepoint_id>
				</extensions>
			</trkpt>
			<trkpt lat="47.3444620520" lon="7.2761115342">
				<ele>508.0</ele>
				<time>2021-04-12T12:17:55+02:00</time>
				<extensions>
					<swisstopo:routepoint_id>1674346894</swisstopo:routepoint_id>
				</extensions>
			</trkpt>
			<trkpt lat="47.3444437919" lon="7.2758716434">
				<ele>507.7</ele>
				<time>2021-04-12T12:17:56+02:00</time>
				<extensions>
					<swisstopo:routepoint_id>122537170</swisstopo:routepoint_id>
				</extensions>
			</trkpt>
			<trkpt lat="47.3444289407" lon="7.2756333026">
				<ele>507.3</ele>
				<time>2021-04-12T12:17:57+02:00</time>
				<extensions>
					<swisstopo:routepoint_id>45398717</swisstopo:routepoint_id>
				</extensions>
			</trkpt>
			<trkpt lat="47.3444164528" lon="7.2753966755">
				<ele>506.9</ele>
				<time>2021-04-12T12:17:58+02:00</time>
				<extensions>
					<swisstopo:routepoint_id>659541934</swisstopo:routepoint_id>
				</extensions>
			</trkpt>
			<trkpt lat="47.3444056167" lon="7.2751612926">
				<ele>506.5</ele>
				<time>2021-04-12T12:17:59+02:00</time>
				<extensions>
					<swisstopo:routepoint_id>1758182571</swisstopo:routepoint_id>
				</extensions>
			</trkpt>
			<trkpt lat="47.3443964110" lon="7.2749262354">
				<ele>506.1</ele>
				<time>2021-04-12T12:18:00+02:00</time>
				<extensions>
					<swisstopo:routepoint_id>399488077</swisstopo:routepoint_id>
				</extensions>
			</trkpt>
			<trkpt lat="47.3443886715" lon="7.2746906608">
				<ele>505.7</ele>
				<time>2021-04-12T12:18:01+02:00</time>
				<extensions>
					<swisstopo:routepoint_id>1162229617</swisstopo:routepoint_id>
				</extensions>
			</trkpt>
			<trkpt lat="47.3443824510" lon="7.2744542158">
				<ele>505.3</ele>
				<time>2021-04-12T12:18:02+02:00</time>
				<extensions>
					<swisstopo:routepoint_id>81919807</swisstopo:routepoint_id>
				</extensions>
			</trkpt>
			<trkpt lat="47.3443778656" lon="7.2742167069">
				<ele>504.8</ele>
				<time>2021-04-12T12:18:03+02:00</time>
				<extensions>
					<swisstopo:routepoint_id>289178522</swisstopo:routepoint_id>
				</extensions>
			</trkpt>
			<trkpt lat="47.3443749400" lon="7.2739782022">
				<ele>504.4</ele>
				<time>2021-04-12T12:18:04+02:00</time>
				<extensions>
					<swisstopo:routepoint_id>467926093</swisstopo:routepoint_id>
				</extensions>
			</trkpt>
			<trkpt lat="47.3443734532" lon="7.2737387767">
				<ele>503.9</ele>
				<time>2021-04-12T12:18:05+02:00</time>
				<extensions>
					<swisstopo:routepoint_id>348729737</swisstopo:routepoint_id>
				</extensions>
			</trkpt>
			<trkpt lat="47.3443736475" lon="7.2734986764">
				<ele>503.4</ele>
				<time>2021-04-12T12:18:06+02:00</time>
				<extensions>
					<swisstopo:routepoint_id>617817096</swisstopo:routepoint_id>
				</extensions>
			</trkpt>
			<trkpt lat="47.3443753500" lon="7.2732583039">
				<ele>502.9</ele>
				<time>2021-04-12T12:18:07+02:00</time>
				<extensions>
					<swisstopo:routepoint_id>568499227</swisstopo:routepoint_id>
				</extensions>
			</trkpt>
			<trkpt lat="47.3443787659" lon="7.2730181504">
				<ele>502.3</ele>
				<time>2021-04-12T12:18:08+02:00</time>
				<extensions>
					<swisstopo:routepoint_id>611762686</swisstopo:routepoint_id>
				</extensions>
			</trkpt>
			<trkpt lat="47.3443838499" lon="7.2727783188">
				<ele>501.7</ele>
				<time>2021-04-12T12:18:09+02:00</time>
				<extensions>
					<swisstopo:routepoint_id>1891245413</swisstopo:routepoint_id>
				</extensions>
			</trkpt>
			<trkpt lat="47.3443906286" lon="7.2725389052">
				<ele>501.1</ele>
				<time>2021-04-12T12:18:10+02:00</time>
				<extensions>
					<swisstopo:routepoint_id>1256197044</swisstopo:routepoint_id>
				</extensions>
			</trkpt>
			<trkpt lat="47.3443992719" lon="7.2723006099">
				<ele>500.5</ele>
				<time>2021-04-12T12:18:11+02:00</time>
				<extensions>
					<swisstopo:routepoint_id>991984851</swisstopo:routepoint_id>
				</extensions>
			</trkpt>
			<trkpt lat="47.3444093390" lon="7.2720635368">
				<ele>499.8</ele>
				<time>2021-04-12T12:18:12+02:00</time>
				<extensions>
					<swisstopo:routepoint_id>1373839096</swisstopo:routepoint_id>
				</extensions>
			</trkpt>
			<trkpt lat="47.3444205784" lon="7.2718275121">
				<ele>499.1</ele>
				<time>2021-04-12T12:18:13+02:00</time>
				<extensions>
					<swisstopo:routepoint_id>369513928</swisstopo:routepoint_id>
				</extensions>
			</trkpt>
			<trkpt lat="47.3444330736" lon="7.2715925200">
				<ele>498.4</ele>
				<time>2021-04-12T12:18:14+02:00</time>
				<extensions>
					<swisstopo:routepoint_id>2045364419</swisstopo:routepoint_id>
				</extensions>
			</trkpt>
			<trkpt lat="47.3444468040" lon="7.2713583237">
				<ele>497.7</ele>
				<time>2021-04-12T12:18:15+02:00</time>
				<extensions>
					<swisstopo:routepoint_id>1669052604</swisstopo:routepoint_id>
				</extensions>
			</trkpt>
			<trkpt lat="47.3444618254" lon="7.2711250928">
				<ele>496.9</ele>
				<time>2021-04-12T12:18:16+02:00</time>
				<extensions>
					<swisstopo:routepoint_id>1335718314</swisstopo:routepoint_id>
				</extensions>
			</trkpt>
			<trkpt lat="47.3444781953" lon="7.2708925339">
				<ele>496.1</ele>
				<time>2021-04-12T12:18:17+02:00</time>
				<extensions>
					<swisstopo:routepoint_id>1771141307</swisstopo:routepoint_id>
				</extensions>
			</trkpt>
			<trkpt lat="47.3444961803" lon="7.2706613129">
				<ele>495.3</ele>
				<time>2021-04-12T12:18:18+02:00</time>
				<extensions>
					<swisstopo:routepoint_id>1301115682</swisstopo:routepoint_id>
				</extensions>
			</trkpt>
			<trkpt lat="47.3445157067" lon="7.2704309847">
				<ele>494.4</ele>
				<time>2021-04-12T12:18:19+02:00</time>
				<extensions>
					<swisstopo:routepoint_id>25289973</swisstopo:routepoint_id>
				</extensions>
			</trkpt>
			<trkpt lat="47.3445367443" lon="7.2702015117">
				<ele>493.4</ele>
				<time>2021-04-12T12:18:20+02:00</time>
				<extensions>
					<swisstopo:routepoint_id>1994297752</swisstopo:routepoint_id>
				</extensions>
			</trkpt>
			<trkpt lat="47.3445588906" lon="7.2699729839">
				<ele>492.5</ele>
				<time>2021-04-12T12:18:21+02:00</time>
				<extensions>
					<swisstopo:routepoint_id>237555488</swisstopo:routepoint_id>
				</extensions>
			</trkpt>
			<trkpt lat="47.3445816530" lon="7.2697448209">
				<ele>491.6</ele>
				<time>2021-04-12T12:18:22+02:00</time>
				<extensions>
					<swisstopo:routepoint_id>422987043</swisstopo:routepoint_id>
				</extensions>
			</trkpt>
			<trkpt lat="47.3446048947" lon="7.2695169350">
				<ele>490.7</ele>
				<time>2021-04-12T12:18:23+02:00</time>
				<extensions>
					<swisstopo:routepoint_id>972360131</swisstopo:routepoint_id>
				</extensions>
			</trkpt>
			<trkpt lat="47.3446284618" lon="7.2692892350">
				<ele>489.8</ele>
				<time>2021-04-12T12:18:24+02:00</time>
				<extensions>
					<swisstopo:routepoint_id>106168047</swisstopo:routepoint_id>
				</extensions>
			</trkpt>
			<trkpt lat="47.3446522366" lon="7.2690616115">
				<ele>488.9</ele>
				<time>2021-04-12T12:18:25+02:00</time>
				<extensions>
					<swisstopo:routepoint_id>1954938919</swisstopo:routepoint_id>
				</extensions>
			</trkpt>
			<trkpt lat="47.3446763294" lon="7.2688340959">
				<ele>488.0</ele>
				<time>2021-04-12T12:18:26+02:00</time>
				<extensions>
					<swisstopo:routepoint_id>158612533</swisstopo:routepoint_id>
				</extensions>
			</trkpt>
			<trkpt lat="47.3447009990" lon="7.2686069017">
				<ele>487.1</ele>
				<time>2021-04-12T12:18:27+02:00</time>
				<extensions>
					<swisstopo:routepoint_id>773636204</swisstopo:routepoint_id>
				</extensions>
			</trkpt>
			<trkpt lat="47.3447263223" lon="7.2683798786">
				<ele>486.3</ele>
				<time>2021-04-12T12:18:28+02:00</time>
				<extensions>
					<swisstopo:routepoint_id>1637681690</swisstopo:routepoint_id>
				</extensions>
			</trkpt>
			<trkpt lat="47.3447521556" lon="7.2681530651">
				<ele>485.4</ele>
				<time>2021-04-12T12:18:29+02:00</time>
				<extensions>
					<swisstopo:routepoint_id>218260231</swisstopo:routepoint_id>
				</extensions>
			</trkpt>
			<trkpt lat="47.3447785700" lon="7.2679265589">
				<ele>484.6</ele>
				<time>2021-04-12T12:18:30+02:00</time>
				<extensions>
					<swisstopo:routepoint_id>397633341</swisstopo:routepoint_id>
				</extensions>
			</trkpt>
			<trkpt lat="47.3448056501" lon="7.2677002124">
				<ele>483.7</ele>
				<time>2021-04-12T12:18:31+02:00</time>
				<extensions>
					<swisstopo:routepoint_id>54452723</swisstopo:routepoint_id>
				</extensions>
			</trkpt>
			<trkpt lat="47.3448334858" lon="7.2674742081">
				<ele>482.9</ele>
				<time>2021-04-12T12:18:32+02:00</time>
				<extensions>
					<swisstopo:routepoint_id>358881839</swisstopo:routepoint_id>
				</extensions>
			</trkpt>
			<trkpt lat="47.3448619971" lon="7.2672484096">
				<ele>482.0</ele>
				<time>2021-04-12T12:18:33+02:00</time>
				<extensions>
					<swisstopo:routepoint_id>1592987297</swisstopo:routepoint_id>
				</extensions>
			</trkpt>
			<trkpt lat="47.3448913291" lon="7.2670225881">
				<ele>481.2</ele>
				<time>2021-04-12T12:18:34+02:00</time>
				<extensions>
					<swisstopo:routepoint_id>658873530</swisstopo:routepoint_id>
				</extensions>
			</trkpt>
			<trkpt lat="47.3449211602" lon="7.2667964134">
				<ele>480.3</ele>
				<time>2021-04-12T12:18:35+02:00</time>
				<extensions>
					<swisstopo:routepoint_id>1261734778</swisstopo:routepoint_id>
				</extensions>
			</trkpt>
			<trkpt lat="47.3449513848" lon="7.2665693970">
				<ele>479.5</ele>
				<time>2021-04-12T12:18:36+02:00</time>
				<extensions>
					<swisstopo:routepoint_id>1722883368</swisstopo:routepoint_id>
				</extensions>
			</trkpt>
			<trkpt lat="47.3449820651" lon="7.2663408054">
				<ele>478.7</ele>
				<time>2021-04-12T12:18:37+02:00</time>
				<extensions>
					<swisstopo:routepoint_id>1978753475</swisstopo:routepoint_id>
				</extensions>
			</trkpt>
			<trkpt lat="47.3450133682" lon="7.2661102997">
				<ele>477.9</ele>
				<time>2021-04-12T12:18:38+02:00</time>
				<extensions>
					<swisstopo:routepoint_id>977896883</swisstopo:routepoint_id>
				</extensions>
			</trkpt>
			<trkpt lat="47.3450452068" lon="7.2658780633">
				<ele>477.1</ele>
				<time>2021-04-12T12:18:39+02:00</time>
				<extensions>
					<swisstopo:routepoint_id>820562090</swisstopo:routepoint_id>
				</extensions>
			</trkpt>
			<trkpt lat="47.3450774857" lon="7.2656444723">
				<ele>476.4</ele>
				<time>2021-04-12T12:18:40+02:00</time>
				<extensions>
					<swisstopo:routepoint_id>47065596</swisstopo:routepoint_id>
				</extensions>
			</trkpt>
			<trkpt lat="47.3451097413" lon="7.2654101187">
				<ele>475.7</ele>
				<time>2021-04-12T12:18:41+02:00</time>
				<extensions>
					<swisstopo:routepoint_id>757489876</swisstopo:routepoint_id>
				</extensions>
			</trkpt>
			<trkpt lat="47.3451418601" lon="7.2651751659">
				<ele>475.2</ele>
				<time>2021-04-12T12:18:42+02:00</time>
				<extensions>
					<swisstopo:routepoint_id>849286516</swisstopo:routepoint_id>
				</extensions>
			</trkpt>
			<trkpt lat="47.3451737739" lon="7.2649404126">
				<ele>474.6</ele>
				<time>2021-04-12T12:18:43+02:00</time>
				<extensions>
					<swisstopo:routepoint_id>1782156450</swisstopo:routepoint_id>
				</extensions>
			</trkpt>
			<trkpt lat="47.3452053645" lon="7.2647062234">
				<ele>474.2</ele>
				<time>2021-04-12T12:18:44+02:00</time>
				<extensions>
					<swisstopo:routepoint_id>1749030441</swisstopo:routepoint_id>
				</extensions>
			</trkpt>
			<trkpt lat="47.3452365972" lon="7.2644729484">
				<ele>473.7</ele>
				<time>2021-04-12T12:18:45+02:00</time>
				<extensions>
					<swisstopo:routepoint_id>1198461751</swisstopo:routepoint_id>
				</extensions>
			</trkpt>
			<trkpt lat="47.3452675886" lon="7.2642411305">
				<ele>473.3</ele>
				<time>2021-04-12T12:18:46+02:00</time>
				<extensions>
					<swisstopo:routepoint_id>1297523844</swisstopo:routepoint_id>
				</extensions>
			</trkpt>
			<trkpt lat="47.3452982046" lon="7.2640111150">
				<ele>472.8</ele>
				<time>2021-04-12T12:18:47+02:00</time>
				<extensions>
					<swisstopo:routepoint_id>1934294470</swisstopo:routepoint_id>
				</extensions>
			</trkpt>
			<trkpt lat="47.3453282864" lon="7.2637830646">
				<ele>472.4</ele>
				<time>2021-04-12T12:18:48+02:00</time>
				<extensions>
					<swisstopo:routepoint_id>1079709004</swisstopo:routepoint_id>
				</extensions>
			</trkpt>
			<trkpt lat="47.3453578334" lon="7.2635572422">
				<ele>472.1</ele>
				<time>2021-04-12T12:18:49+02:00</time>
				<extensions>
					<swisstopo:routepoint_id>432413078</swisstopo:routepoint_id>
				</extensions>
			</trkpt>
			<trkpt lat="47.3453867469" lon="7.2633341112">
				<ele>471.8</ele>
				<time>2021-04-12T12:18:50+02:00</time>
				<extensions>
					<swisstopo:routepoint_id>481940498</swisstopo:routepoint_id>
				</extensions>
			</trkpt>
			<trkpt lat="47.3454148904" lon="7.2631138156">
				<ele>471.5</ele>
				<time>2021-04-12T12:18:51+02:00</time>
				<extensions>
					<swisstopo:routepoint_id>1813117049</swisstopo:routepoint_id>
				</extensions>
			</trkpt>
			<trkpt lat="47.3454421994" lon="7.2628963255">
				<ele>471.3</ele>
				<time>2021-04-12T12:18:52+02:00</time>
				<extensions>
					<swisstopo:routepoint_id>265291613</swisstopo:routepoint_id>
				</extensions>
			</trkpt>
			<trkpt lat="47.3454685854" lon="7.2626810596">
				<ele>471.1</ele>
				<time>2021-04-12T12:18:53+02:00</time>
				<extensions>
					<swisstopo:routepoint_id>580088519</swisstopo:routepoint_id>
				</extensions>
			</trkpt>
			<trkpt lat="47.3454940375" lon="7.2624678857">
				<ele>470.9</ele>
				<time>2021-04-12T12:18:54+02:00</time>
				<extensions>
					<swisstopo:routepoint_id>2119465100</swisstopo:routepoint_id>
				</extensions>
			</trkpt>
			<trkpt lat="47.3455184995" lon="7.2622563527">
				<ele>470.8</ele>
				<time>2021-04-12T12:18:55+02:00</time>
				<extensions>
					<swisstopo:routepoint_id>1538682911</swisstopo:routepoint_id>
				</extensions>
			</trkpt>
			<trkpt lat="47.3455423293" lon="7.2620450042">
				<ele>470.7</ele>
				<time>2021-04-12T12:18:56+02:00</time>
				<extensions>
					<swisstopo:routepoint_id>645608003</swisstopo:routepoint_id>
				</extensions>
			</trkpt>
			<trkpt lat="47.3455657251" lon="7.2618327036">
				<ele>470.6</ele>
				<time>2021-04-12T12:18:57+02:00</time>
				<extensions>
					<swisstopo:routepoint_id>1646321777</swisstopo:routepoint_id>
				</extensions>
			</trkpt>
			<trkpt lat="47.3455888482" lon="7.2616182533">
				<ele>470.6</ele>
				<time>2021-04-12T12:18:58+02:00</time>
				<extensions>
					<swisstopo:routepoint_id>1550798091</swisstopo:routepoint_id>
				</extensions>
			</trkpt>
			<trkpt lat="47.3456115219" lon="7.2614000646">
				<ele>470.5</ele>
				<time>2021-04-12T12:18:59+02:00</time>
				<extensions>
					<swisstopo:routepoint_id>254491798</swisstopo:routepoint_id>
				</extensions>
			</trkpt>
			<trkpt lat="47.3456338834" lon="7.2611773896">
				<ele>470.5</ele>
				<time>2021-04-12T12:19:00+02:00</time>
				<extensions>
					<swisstopo:routepoint_id>1603707809</swisstopo:routepoint_id>
				</extensions>
			</trkpt>
			<trkpt lat="47.3456559260" lon="7.2609496171">
				<ele>470.5</ele>
				<time>2021-04-12T12:19:01+02:00</time>
				<extensions>
					<swisstopo:routepoint_id>449892366</swisstopo:routepoint_id>
				</extensions>
			</trkpt>
			<trkpt lat="47.3456773704" lon="7.2607168388">
				<ele>470.6</ele>
				<time>2021-04-12T12:19:02+02:00</time>
				<extensions>
					<swisstopo:routepoint_id>51074275</swisstopo:routepoint_id>
				</extensions>
			</trkpt>
			<trkpt lat="47.3456981707" lon="7.2604797234">
				<ele>470.7</ele>
				<time>2021-04-12T12:19:03+02:00</time>
				<extensions>
					<swisstopo:routepoint_id>1559364772</swisstopo:routepoint_id>
				</extensions>
			</trkpt>
			<trkpt lat="47.3457181661" lon="7.2602383495">
				<ele>470.8</ele>
				<time>2021-04-12T12:19:04+02:00</time>
				<extensions>
					<swisstopo:routepoint_id>353295016</swisstopo:routepoint_id>
				</extensions>
			</trkpt>
			<trkpt lat="47.3457371292" lon="7.2599928871">
				<ele>470.9</ele>
				<time>2021-04-12T12:19:05+02:00</time>
				<extensions>
					<swisstopo:routepoint_id>37049957</swisstopo:routepoint_id>
				</extensions>
			</trkpt>
			<trkpt lat="47.3457552581" lon="7.2597441978">
				<ele>471.1</ele>
				<time>2021-04-12T12:19:06+02:00</time>
				<extensions>
					<swisstopo:routepoint_id>2075853316</swisstopo:routepoint_id>
				</extensions>
			</trkpt>
			<trkpt lat="47.3457725811" lon="7.2594928351">
				<ele>471.3</ele>
				<time>2021-04-12T12:19:07+02:00</time>
				<extensions>
					<swisstopo:routepoint_id>847352850</swisstopo:routepoint_id>
				</extensions>
			</trkpt>
			<trkpt lat="47.3457885826" lon="7.2592397843">
				<ele>471.5</ele>
				<time>2021-04-12T12:19:08+02:00</time>
				<extensions>
					<swisstopo:routepoint_id>1495286693</swisstopo:routepoint_id>
				</extensions>
			</trkpt>
			<trkpt lat="47.3458031873" lon="7.2589852164">
				<ele>471.7</ele>
				<time>2021-04-12T12:19:09+02:00</time>
				<extensions>
					<swisstopo:routepoint_id>1429812057</swisstopo:routepoint_id>
				</extensions>
			</trkpt>
			<trkpt lat="47.3458167444" lon="7.2587301217">
				<ele>472.0</ele>
				<time>2021-04-12T12:19:10+02:00</time>
				<extensions>
					<swisstopo:routepoint_id>509232069</swisstopo:routepoint_id>
				</extensions>
			</trkpt>
			<trkpt lat="47.3458294466" lon="7.2584748665">
				<ele>472.4</ele>
				<time>2021-04-12T12:19:11+02:00</time>
				<extensions>
					<swisstopo:routepoint_id>941050388</swisstopo:routepoint_id>
				</extensions>
			</trkpt>
			<trkpt lat="47.3458411862" lon="7.2582193421">
				<ele>472.8</ele>
				<time>2021-04-12T12:19:12+02:00</time>
				<extensions>
					<swisstopo:routepoint_id>16810961</swisstopo:routepoint_id>
				</extensions>
			</trkpt>
			<trkpt lat="47.3458518670" lon="7.2579632748">
				<ele>473.2</ele>
				<time>2021-04-12T12:19:13+02:00</time>
				<extensions>
					<swisstopo:routepoint_id>1221463770</swisstopo:routepoint_id>
				</extensions>
			</trkpt>
			<trkpt lat="47.3458614464" lon="7.2577063947">
				<ele>473.6</ele>
				<time>2021-04-12T12:19:14+02:00</time>
				<extensions>
					<swisstopo:routepoint_id>1345400717</swisstopo:routepoint_id>
				</extensions>
			</trkpt>
			<trkpt lat="47.3458698569" lon="7.2574485985">
				<ele>474.1</ele>
				<time>2021-04-12T12:19:15+02:00</time>
				<extensions>
					<swisstopo:routepoint_id>1294531356</swisstopo:routepoint_id>
				</extensions>
			</trkpt>
			<trkpt lat="47.3458772724" lon="7.2571899127">
				<ele>474.6</ele>
				<time>2021-04-12T12:19:16+02:00</time>
				<extensions>
					<swisstopo:routepoint_id>1031672535</swisstopo:routepoint_id>
				</extensions>
			</trkpt>
			<trkpt lat="47.3458836127" lon="7.2569303618">
				<ele>475.1</ele>
				<time>2021-04-12T12:19:17+02:00</time>
				<extensions>
					<swisstopo:routepoint_id>537329867</swisstopo:routepoint_id>
				</extensions>
			</trkpt>
			<trkpt lat="47.3458888146" lon="7.2566704206">
				<ele>475.6</ele>
				<time>2021-04-12T12:19:18+02:00</time>
				<extensions>
					<swisstopo:routepoint_id>734339034</swisstopo:routepoint_id>
				</extensions>
			</trkpt>
			<trkpt lat="47.3458928009" lon="7.2564101683">
				<ele>476.1</ele>
				<time>2021-04-12T12:19:19+02:00</time>
				<extensions>
					<swisstopo:routepoint_id>447625129</swisstopo:routepoint_id>
				</extensions>
			</trkpt>
			<trkpt lat="47.3458955739" lon="7.2561494666">
				<ele>476.6</ele>
				<time>2021-04-12T12:19:20+02:00</time>
				<extensions>
					<swisstopo:routepoint_id>600327662</swisstopo:routepoint_id>
				</extensions>
			</trkpt>
			<trkpt lat="47.3458972461" lon="7.2558882682">
				<ele>477.1</ele>
				<time>2021-04-12T12:19:21+02:00</time>
				<extensions>
					<swisstopo:routepoint_id>828841628</swisstopo:routepoint_id>
				</extensions>
			</trkpt>
			<trkpt lat="47.3458978925" lon="7.2556263794">
				<ele>477.6</ele>
				<time>2021-04-12T12:19:22+02:00</time>
				<extensions>
					<swisstopo:routepoint_id>1762307354</swisstopo:routepoint_id>
				</extensions>
			</trkpt>
			<trkpt lat="47.3458976705" lon="7.2553642484">
				<ele>478.0</ele>
				<time>2021-04-12T12:19:23+02:00</time>
				<extensions>
					<swisstopo:routepoint_id>1005239254</swisstopo:routepoint_id>
				</extensions>
			</trkpt>
			<trkpt lat="47.3458962577" lon="7.2551019666">
				<ele>478.5</ele>
				<time>2021-04-12T12:19:24+02:00</time>
				<extensions>
					<swisstopo:routepoint_id>802291029</swisstopo:routepoint_id>
				</extensions>
			</trkpt>
			<trkpt lat="47.3458936569" lon="7.2548393618">
				<ele>478.9</ele>
				<time>2021-04-12T12:19:25+02:00</time>
				<extensions>
					<swisstopo:routepoint_id>55504890</swisstopo:routepoint_id>
				</extensions>
			</trkpt>
			<trkpt lat="47.3458901586" lon="7.2545761635">
				<ele>479.4</ele>
				<time>2021-04-12T12:19:26+02:00</time>
				<extensions>
					<swisstopo:routepoint_id>862783432</swisstopo:routepoint_id>
				</extensions>
			</trkpt>
			<trkpt lat="47.3458854949" lon="7.2543124250">
				<ele>479.8</ele>
				<time>2021-04-12T12:19:27+02:00</time>
				<extensions>
					<swisstopo:routepoint_id>991557080</swisstopo:routepoint_id>
				</extensions>
			</trkpt>
			<trkpt lat="47.3458793487" lon="7.2540484912">
				<ele>480.2</ele>
				<time>2021-04-12T12:19:28+02:00</time>
				<extensions>
					<swisstopo:routepoint_id>626742840</swisstopo:routepoint_id>
				</extensions>
			</trkpt>
			<trkpt lat="47.3458716827" lon="7.2537842487">
				<ele>480.6</ele>
				<time>2021-04-12T12:19:29+02:00</time>
				<extensions>
					<swisstopo:routepoint_id>259623345</swisstopo:routepoint_id>
				</extensions>
			</trkpt>
			<trkpt lat="47.3458624296" lon="7.2535198830">
				<ele>481.0</ele>
				<time>2021-04-12T12:19:30+02:00</time>
				<extensions>
					<swisstopo:routepoint_id>1950272358</swisstopo:routepoint_id>
				</extensions>
			</trkpt>
			<trkpt lat="47.3458515920" lon="7.2532552588">
				<ele>481.3</ele>
				<time>2021-04-12T12:19:31+02:00</time>
				<extensions>
					<swisstopo:routepoint_id>1184616745</swisstopo:routepoint_id>
				</extensions>
			</trkpt>
			<trkpt lat="47.3458393813" lon="7.2529901977">
				<ele>481.6</ele>
				<time>2021-04-12T12:19:32+02:00</time>
				<extensions>
					<swisstopo:routepoint_id>532741878</swisstopo:routepoint_id>
				</extensions>
			</trkpt>
			<trkpt lat="47.3458257222" lon="7.2527243057">
				<ele>481.9</ele>
				<time>2021-04-12T12:19:33+02:00</time>
				<extensions>
					<swisstopo:routepoint_id>933419203</swisstopo:routepoint_id>
				</extensions>
			</trkpt>
			<trkpt lat="47.3458104138" lon="7.2524577836">
				<ele>482.2</ele>
				<time>2021-04-12T12:19:34+02:00</time>
				<extensions>
					<swisstopo:routepoint_id>608503486</swisstopo:routepoint_id>
				</extensions>
			</trkpt>
			<trkpt lat="47.3457937072" lon="7.2521903656">
				<ele>482.4</ele>
				<time>2021-04-12T12:19:35+02:00</time>
				<extensions>
					<swisstopo:routepoint_id>800962188</swisstopo:routepoint_id>
				</extensions>
			</trkpt>
			<trkpt lat="47.3457759021" lon="7.2519220048">
				<ele>482.7</ele>
				<time>2021-04-12T12:19:36+02:00</time>
				<extensions>
					<swisstopo:routepoint_id>1343994320</swisstopo:routepoint_id>
				</extensions>
			</trkpt>
			<trkpt lat="47.3457571043" lon="7.2516525933">
				<ele>482.9</ele>
				<time>2021-04-12T12:19:37+02:00</time>
				<extensions>
					<swisstopo:routepoint_id>1279537094</swisstopo:routepoint_id>
				</extensions>
			</trkpt>
			<trkpt lat="47.3457373402" lon="7.2513824654">
				<ele>483.0</ele>
				<time>2021-04-12T12:19:38+02:00</time>
				<extensions>
					<swisstopo:routepoint_id>278697800</swisstopo:routepoint_id>
				</extensions>
			</trkpt>
			<trkpt lat="47.3457161123" lon="7.2511116448">
				<ele>483.2</ele>
				<time>2021-04-12T12:19:39+02:00</time>
				<extensions>
					<swisstopo:routepoint_id>412090493</swisstopo:routepoint_id>
				</extensions>
			</trkpt>
			<trkpt lat="47.3456938113" lon="7.2508409373">
				<ele>483.3</ele>
				<time>2021-04-12T12:19:40+02:00</time>
				<extensions>
					<swisstopo:routepoint_id>370154276</swisstopo:routepoint_id>
				</extensions>
			</trkpt>
			<trkpt lat="47.3456702486" lon="7.2505704848">
				<ele>483.3</ele>
				<time>2021-04-12T12:19:41+02:00</time>
				<extensions>
					<swisstopo:routepoint_id>2070275020</swisstopo:routepoint_id>
				</extensions>
			</trkpt>
			<trkpt lat="47.3456455634" lon="7.2502997549">
				<ele>483.4</ele>
				<time>2021-04-12T12:19:42+02:00</time>
				<extensions>
					<swisstopo:routepoint_id>1582212446</swisstopo:routepoint_id>
				</extensions>
			</trkpt>
			<trkpt lat="47.3456195111" lon="7.2500275292">
				<ele>483.5</ele>
				<time>2021-04-12T12:19:43+02:00</time>
				<extensions>
					<swisstopo:routepoint_id>2102062768</swisstopo:routepoint_id>
				</extensions>
			</trkpt>
			<trkpt lat="47.3455919686" lon="7.2497530244">
				<ele>483.5</ele>
				<time>2021-04-12T12:19:44+02:00</time>
				<extensions>
					<swisstopo:routepoint_id>1115464979</swisstopo:routepoint_id>
				</extensions>
			</trkpt>
			<trkpt lat="47.3455626341" lon="7.2494763574">
				<ele>483.5</ele>
				<time>2021-04-12T12:19:45+02:00</time>
				<extensions>
					<swisstopo:routepoint_id>87663743</swisstopo:routepoint_id>
				</extensions>
			</trkpt>
			<trkpt lat="47.3455316624" lon="7.2491978456">
				<ele>483.5</ele>
				<time>2021-04-12T12:19:46+02:00</time>
				<extensions>
					<swisstopo:routepoint_id>190746759</swisstopo:routepoint_id>
				</extensions>
			</trkpt>
			<trkpt lat="47.3454990558" lon="7.2489178701">
				<ele>483.4</ele>
				<time>2021-04-12T12:19:47+02:00</time>
				<extensions>
					<swisstopo:routepoint_id>1835177189</swisstopo:routepoint_id>
				</extensions>
			</trkpt>
			<trkpt lat="47.3454647602" lon="7.2486365354">
				<ele>483.4</ele>
				<time>2021-04-12T12:19:48+02:00</time>
				<extensions>
					<swisstopo:routepoint_id>1662877309</swisstopo:routepoint_id>
				</extensions>
			</trkpt>
			<trkpt lat="47.3454288569" lon="7.2483535913">
				<ele>483.3</ele>
				<time>2021-04-12T12:19:49+02:00</time>
				<extensions>
					<swisstopo:routepoint_id>626750305</swisstopo:routepoint_id>
				</extensions>
			</trkpt>
			<trkpt lat="47.3453912854" lon="7.2480688864">
				<ele>483.2</ele>
				<time>2021-04-12T12:19:50+02:00</time>
				<extensions>
					<swisstopo:routepoint_id>385087600</swisstopo:routepoint_id>
				</extensions>
			</trkpt>
			<trkpt lat="47.3453520480" lon="7.2477822426">
				<ele>483.2</ele>
				<time>2021-04-12T12:19:51+02:00</time>
				<extensions>
					<swisstopo:routepoint_id>1799064789</swisstopo:routepoint_id>
				</extensions>
			</trkpt>
			<trkpt lat="47.3453111685" lon="7.2474929280">
				<ele>483.0</ele>
				<time>2021-04-12T12:19:52+02:00</time>
				<extensions>
					<swisstopo:routepoint_id>312158963</swisstopo:routepoint_id>
				</extensions>
			</trkpt>
			<trkpt lat="47.3452683927" lon="7.2472005279">
				<ele>482.9</ele>
				<time>2021-04-12T12:19:53+02:00</time>
				<extensions>
					<swisstopo:routepoint_id>153141520</swisstopo:routepoint_id>
				</extensions>
			</trkpt>
			<trkpt lat="47.3452235376" lon="7.2469048013">
				<ele>482.7</ele>
				<time>2021-04-12T12:19:54+02:00</time>
				<extensions>
					<swisstopo:routepoint_id>1164117534</swisstopo:routepoint_id>
				</extensions>
			</trkpt>
			<trkpt lat="47.3451768919" lon="7.2466054651">
				<ele>482.5</ele>
				<time>2021-04-12T12:19:55+02:00</time>
				<extensions>
					<swisstopo:routepoint_id>1747369768</swisstopo:routepoint_id>
				</extensions>
			</trkpt>
			<trkpt lat="47.3451280739" lon="7.2463028184">
				<ele>482.3</ele>
				<time>2021-04-12T12:19:56+02:00</time>
				<extensions>
					<swisstopo:routepoint_id>1204818051</swisstopo:routepoint_id>
				</extensions>
			</trkpt>
			<trkpt lat="47.3450768319" lon="7.2459980368">
				<ele>482.0</ele>
				<time>2021-04-12T12:19:57+02:00</time>
				<extensions>
					<swisstopo:routepoint_id>753675594</swisstopo:routepoint_id>
				</extensions>
			</trkpt>
			<trkpt lat="47.3450230326" lon="7.2456923187">
				<ele>481.8</ele>
				<time>2021-04-12T12:19:58+02:00</time>
				<extensions>
					<swisstopo:routepoint_id>1167158352</swisstopo:routepoint_id>
				</extensions>
			</trkpt>
			<trkpt lat="47.3449669811" lon="7.2453861798">
				<ele>481.5</ele>
				<time>2021-04-12T12:19:59+02:00</time>
				<extensions>
					<swisstopo:routepoint_id>1314790366</swisstopo:routepoint_id>
				</extensions>
			</trkpt>
			<trkpt lat="47.3449088975" lon="7.2450800657">
				<ele>481.3</ele>
				<time>2021-04-12T12:20:00+02:00</time>
				<extensions>
					<swisstopo:routepoint_id>74953732</swisstopo:routepoint_id>
				</extensions>
			</trkpt>
			<trkpt lat="47.3448491441" lon="7.2447739604">
				<ele>481.0</ele>
				<time>2021-04-12T12:20:01+02:00</time>
				<extensions>
					<swisstopo:routepoint_id>1321956582</swisstopo:routepoint_id>
				</extensions>
			</trkpt>
			<trkpt lat="47.3447880346" lon="7.2444678991">
				<ele>480.7</ele>
				<time>2021-04-12T12:20:02+02:00</time>
				<extensions>
					<swisstopo:routepoint_id>258461812</swisstopo:routepoint_id>
				</extensions>
			</trkpt>
			<trkpt lat="47.3447257644" lon="7.2441616695">
				<ele>480.4</ele>
				<time>2021-04-12T12:20:03+02:00</time>
				<extensions>
					<swisstopo:routepoint_id>1755740050</swisstopo:routepoint_id>
				</extensions>
			</trkpt>
			<trkpt lat="47.3446625330" lon="7.2438551436">
				<ele>480.1</ele>
				<time>2021-04-12T12:20:04+02:00</time>
				<extensions>
					<swisstopo:routepoint_id>150226923</swisstopo:routepoint_id>
				</extensions>
			</trkpt>
			<trkpt lat="47.3445980579" lon="7.2435487298">
				<ele>479.9</ele>
				<time>2021-04-12T12:20:05+02:00</time>
				<extensions>
					<swisstopo:routepoint_id>1570609636</swisstopo:routepoint_id>
				</extensions>
			</trkpt>
			<trkpt lat="47.3445324883" lon="7.2432425660">
				<ele>479.6</ele>
				<time>2021-04-12T12:20:06+02:00</time>
				<extensions>
					<swisstopo:routepoint_id>367163328</swisstopo:routepoint_id>
				</extensions>
			</trkpt>
			<trkpt lat="47.3444659772" lon="7.2429361388">
				<ele>479.3</ele>
				<time>2021-04-12T12:20:07+02:00</time>
				<extensions>
					<swisstopo:routepoint_id>1193535865</swisstopo:routepoint_id>
				</extensions>
			</trkpt>
			<trkpt lat="47.3443984706" lon="7.2426293331">
				<ele>479.1</ele>
				<time>2021-04-12T12:20:08+02:00</time>
				<extensions>
					<swisstopo:routepoint_id>112536428</swisstopo:routepoint_id>
				</extensions>
			</trkpt>
			<trkpt lat="47.3443297597" lon="7.2423222003">
				<ele>478.9</ele>
				<time>2021-04-12T12:20:09+02:00</time>
				<extensions>
					<swisstopo:routepoint_id>1614136036</swisstopo:routepoint_id>
				</extensions>
			</trkpt>
			<trkpt lat="47.3442603414" lon="7.2420137218">
				<ele>478.7</ele>
				<time>2021-04-12T12:20:10+02:00</time>
				<extensions>
					<swisstopo:routepoint_id>1770928148</swisstopo:routepoint_id>
				</extensions>
			</trkpt>
			<trkpt lat="47.3441899194" lon="7.2417032298">
				<ele>478.5</ele>
				<time>2021-04-12T12:20:11+02:00</time>
				<extensions>
					<swisstopo:routepoint_id>2013519663</swisstopo:routepoint_id>
				</extensions>
			</trkpt>
			<trkpt lat="47.3441184929" lon="7.2413913461">
				<ele>478.4</ele>
				<time>2021-04-12T12:20:12+02:00</time>
				<extensions>
					<swisstopo:routepoint_id>1177666615</swisstopo:routepoint_id>
				</extensions>
			</trkpt>
			<trkpt lat="47.3440465142" lon="7.2410786085">
				<ele>478.5</ele>
				<time>2021-04-12T12:20:13+02:00</time>
				<extensions>
					<swisstopo:routepoint_id>1833507553</swisstopo:routepoint_id>
				</extensions>
			</trkpt>
			<trkpt lat="47.3439745668" lon="7.2407655869">
				<ele>478.6</ele>
				<time>2021-04-12T12:20:14+02:00</time>
				<extensions>
					<swisstopo:routepoint_id>1518592468</swisstopo:routepoint_id>
				</extensions>
			</trkpt>
			<trkpt lat="47.3439033205" lon="7.2404536780">
				<ele>478.8</ele>
				<time>2021-04-12T12:20:15+02:00</time>
				<extensions>
					<swisstopo:routepoint_id>140465081</swisstopo:routepoint_id>
				</extensions>
			</trkpt>
			<trkpt lat="47.3438330652" lon="7.2401446187">
				<ele>479.1</ele>
				<time>2021-04-12T12:20:16+02:00</time>
				<extensions>
					<swisstopo:routepoint_id>712088314</swisstopo:routepoint_id>
				</extensions>
			</trkpt>
			<trkpt lat="47.3437641763" lon="7.2398399727">
				<ele>479.5</ele>
				<time>2021-04-12T12:20:17+02:00</time>
				<extensions>
					<swisstopo:routepoint_id>141928667</swisstopo:routepoint_id>
				</extensions>
			</trkpt>
			<trkpt lat="47.3436970875" lon="7.2395406775">
				<ele>479.9</ele>
				<time>2021-04-12T12:20:18+02:00</time>
				<extensions>
					<swisstopo:routepoint_id>1688258099</swisstopo:routepoint_id>
				</extensions>
			</trkpt>
			<trkpt lat="47.3436314835" lon="7.2392465852">
				<ele>480.4</ele>
				<time>2021-04-12T12:20:19+02:00</time>
				<extensions>
					<swisstopo:routepoint_id>1999925729</swisstopo:routepoint_id>
				</extensions>
			</trkpt>
			<trkpt lat="47.3435670864" lon="7.2389574378">
				<ele>480.9</ele>
				<time>2021-04-12T12:20:20+02:00</time>
				<extensions>
					<swisstopo:routepoint_id>337684459</swisstopo:routepoint_id>
				</extensions>
			</trkpt>
			<trkpt lat="47.3435033792" lon="7.2386715762">
				<ele>481.5</ele>
				<time>2021-04-12T12:20:21+02:00</time>
				<extensions>
					<swisstopo:routepoint_id>1810907039</swisstopo:routepoint_id>
				</extensions>
			</trkpt>
			<trkpt lat="47.3434401146" lon="7.2383879813">
				<ele>482.0</ele>
				<time>2021-04-12T12:20:22+02:00</time>
				<extensions>
					<swisstopo:routepoint_id>1776359189</swisstopo:routepoint_id>
				</extensions>
			</trkpt>
			<trkpt lat="47.3433771414" lon="7.2381051869">
				<ele>482.6</ele>
				<time>2021-04-12T12:20:23+02:00</time>
				<extensions>
					<swisstopo:routepoint_id>951228929</swisstopo:routepoint_id>
				</extensions>
			</trkpt>
			<trkpt lat="47.3433144320" lon="7.2378225387">
				<ele>483.1</ele>
				<time>2021-04-12T12:20:24+02:00</time>
				<extensions>
					<swisstopo:routepoint_id>1436341435</swisstopo:routepoint_id>
				</extensions>
			</trkpt>
			<trkpt lat="47.3432516447" lon="7.2375399539">
				<ele>483.6</ele>
				<time>2021-04-12T12:20:25+02:00</time>
				<extensions>
					<swisstopo:routepoint_id>726822118</swisstopo:routepoint_id>
				</extensions>
			</trkpt>
			<trkpt lat="47.3431889419" lon="7.2372574623">
				<ele>484.1</ele>
				<time>2021-04-12T12:20:26+02:00</time>
				<extensions>
					<swisstopo:routepoint_id>812353090</swisstopo:routepoint_id>
				</extensions>
			</trkpt>
			<trkpt lat="47.3431263223" lon="7.2369754886">
				<ele>484.6</ele>
				<time>2021-04-12T12:20:27+02:00</time>
				<extensions>
					<swisstopo:routepoint_id>1664839651</swisstopo:routepoint_id>
				</extensions>
			</trkpt>
			<trkpt lat="47.3430639137" lon="7.2366939769">
				<ele>485.0</ele>
				<time>2021-04-12T12:20:28+02:00</time>
				<extensions>
					<swisstopo:routepoint_id>1395577594</swisstopo:routepoint_id>
				</extensions>
			</trkpt>
			<trkpt lat="47.3430017169" lon="7.2364129854">
				<ele>485.5</ele>
				<time>2021-04-12T12:20:29+02:00</time>
				<extensions>
					<swisstopo:routepoint_id>656229824</swisstopo:routepoint_id>
				</extensions>
			</trkpt>
			<trkpt lat="47.3429397595" lon="7.2361320011">
				<ele>485.9</ele>
				<time>2021-04-12T12:20:30+02:00</time>
				<extensions>
					<swisstopo:routepoint_id>1926124623</swisstopo:routepoint_id>
				</extensions>
			</trkpt>
			<trkpt lat="47.3428783913" lon="7.2358502717">
				<ele>486.2</ele>
				<time>2021-04-12T12:20:31+02:00</time>
				<extensions>
					<swisstopo:routepoint_id>1208043883</swisstopo:routepoint_id>
				</extensions>
			</trkpt>
			<trkpt lat="47.3428174382" lon="7.2355673572">
				<ele>486.5</ele>
				<time>2021-04-12T12:20:32+02:00</time>
				<extensions>
					<swisstopo:routepoint_id>1283142843</swisstopo:routepoint_id>
				</extensions>
			</trkpt>
			<trkpt lat="47.3427567724" lon="7.2352825605">
				<ele>486.8</ele>
				<time>2021-04-12T12:20:33+02:00</time>
				<extensions>
					<swisstopo:routepoint_id>750979127</swisstopo:routepoint_id>
				</extensions>
			</trkpt>
			<trkpt lat="47.3426961697" lon="7.2349954249">
				<ele>487.1</ele>
				<time>2021-04-12T12:20:34+02:00</time>
				<extensions>
					<swisstopo:routepoint_id>944794070</swisstopo:routepoint_id>
				</extensions>
			</trkpt>
			<trkpt lat="47.3426347465" lon="7.2347048810">
				<ele>487.3</ele>
				<time>2021-04-12T12:20:35+02:00</time>
				<extensions>
					<swisstopo:routepoint_id>659848572</swisstopo:routepoint_id>
				</extensions>
			</trkpt>
			<trkpt lat="47.3425718488" lon="7.2344085940">
				<ele>487.5</ele>
				<time>2021-04-12T12:20:36+02:00</time>
				<extensions>
					<swisstopo:routepoint_id>469396496</swisstopo:routepoint_id>
				</extensions>
			</trkpt>
			<trkpt lat="47.3425071877" lon="7.2341043521">
				<ele>487.7</ele>
				<time>2021-04-12T12:20:37+02:00</time>
				<extensions>
					<swisstopo:routepoint_id>1439472841</swisstopo:routepoint_id>
				</extensions>
			</trkpt>
			<trkpt lat="47.3424409777" lon="7.2337902083">
				<ele>487.8</ele>
				<time>2021-04-12T12:20:38+02:00</time>
				<extensions>
					<swisstopo:routepoint_id>1816755232</swisstopo:routepoint_id>
				</extensions>
			</trkpt>
			<trkpt lat="47.3423741393" lon="7.2334649356">
				<ele>487.9</ele>
				<time>2021-04-12T12:20:39+02:00</time>
				<extensions>
					<swisstopo:routepoint_id>1282691178</swisstopo:routepoint_id>
				</extensions>
			</trkpt>
			<trkpt lat="47.3423077326" lon="7.2331285483">
				<ele>488.0</ele>
				<time>2021-04-12T12:20:40+02:00</time>
				<extensions>
					<swisstopo:routepoint_id>1749780060</swisstopo:routepoint_id>
				</extensions>
			</trkpt>
			<trkpt lat="47.3422423362" lon="7.2327814697">
				<ele>488.0</ele>
				<time>2021-04-12T12:20:41+02:00</time>
				<extensions>
					<swisstopo:routepoint_id>912406402</swisstopo:routepoint_id>
				</extensions>
			</trkpt>
			<trkpt lat="47.3421783713" lon="7.2324248228">
				<ele>487.9</ele>
				<time>2021-04-12T12:20:42+02:00</time>
				<extensions>
					<swisstopo:routepoint_id>1781158834</swisstopo:routepoint_id>
				</extensions>
			</trkpt>
			<trkpt lat="47.3421162468" lon="7.2320604870">
				<ele>487.9</ele>
				<time>2021-04-12T12:20:43+02:00</time>
				<extensions>
					<swisstopo:routepoint_id>14483858</swisstopo:routepoint_id>
				</extensions>
			</trkpt>
			<trkpt lat="47.3420565424" lon="7.2316903965">
				<ele>487.8</ele>
				<time>2021-04-12T12:20:44+02:00</time>
				<extensions>
					<swisstopo:routepoint_id>764549295</swisstopo:routepoint_id>
				</extensions>
			</trkpt>
			<trkpt lat="47.3419993652" lon="7.2313171217">
				<ele>487.7</ele>
				<time>2021-04-12T12:20:45+02:00</time>
				<extensions>
					<swisstopo:routepoint_id>1385341064</swisstopo:routepoint_id>
				</extensions>
			</trkpt>
			<trkpt lat="47.3419447087" lon="7.2309416693">
				<ele>487.5</ele>
				<time>2021-04-12T12:20:46+02:00</time>
				<extensions>
					<swisstopo:routepoint_id>409561874</swisstopo:routepoint_id>
				</extensions>
			</trkpt>
			<trkpt lat="47.3418926706" lon="7.2305659100">
				<ele>487.4</ele>
				<time>2021-04-12T12:20:47+02:00</time>
				<extensions>
					<swisstopo:routepoint_id>821327683</swisstopo:routepoint_id>
				</extensions>
			</trkpt>
			<trkpt lat="47.3418430876" lon="7.2301912114">
				<ele>487.2</ele>
				<time>2021-04-12T12:20:48+02:00</time>
				<extensions>
					<swisstopo:routepoint_id>29485265</swisstopo:routepoint_id>
				</extensions>
			</trkpt>
			<trkpt lat="47.3417961300" lon="7.2298180270">
				<ele>487.1</ele>
				<time>2021-04-12T12:20:49+02:00</time>
				<extensions>
					<swisstopo:routepoint_id>1637610045</swisstopo:routepoint_id>
				</extensions>
			</trkpt>
			<trkpt lat="47.3417520456" lon="7.2294477703">
				<ele>486.9</ele>
				<time>2021-04-12T12:20:50+02:00</time>
				<extensions>
					<swisstopo:routepoint_id>1161606363</swisstopo:routepoint_id>
				</extensions>
			</trkpt>
			<trkpt lat="47.3417111205" lon="7.2290805543">
				<ele>486.8</ele>
				<time>2021-04-12T12:20:51+02:00</time>
				<extensions>
					<swisstopo:routepoint_id>344308064</swisstopo:routepoint_id>
				</extensions>
			</trkpt>
			<trkpt lat="47.3416731662" lon="7.2287170474">
				<ele>486.8</ele>
				<time>2021-04-12T12:20:52+02:00</time>
				<extensions>
					<swisstopo:routepoint_id>1464686630</swisstopo:routepoint_id>
				</extensions>
			</trkpt>
			<trkpt lat="47.3416380400" lon="7.2283578024">
				<ele>486.9</ele>
				<time>2021-04-12T12:20:53+02:00</time>
				<extensions>
					<swisstopo:routepoint_id>383144849</swisstopo:routepoint_id>
				</extensions>
			</trkpt>
			<trkpt lat="47.3416053172" lon="7.2280030738">
				<ele>487.1</ele>
				<time>2021-04-12T12:20:54+02:00</time>
				<extensions>
					<swisstopo:routepoint_id>1359503437</swisstopo:routepoint_id>
				</extensions>
			</trkpt>
			<trkpt lat="47.3415750946" lon="7.2276529808">
				<ele>487.3</ele>
				<time>2021-04-12T12:20:55+02:00</time>
				<extensions>
					<swisstopo:routepoint_id>2095745226</swisstopo:routepoint_id>
				</extensions>
			</trkpt>
			<trkpt lat="47.3415476708" lon="7.2273074993">
				<ele>487.5</ele>
				<time>2021-04-12T12:20:56+02:00</time>
				<extensions>
					<swisstopo:routepoint_id>163235288</swisstopo:routepoint_id>
				</extensions>
			</trkpt>
			<trkpt lat="47.3415232429" lon="7.2269668139">
				<ele>487.9</ele>
				<time>2021-04-12T12:20:57+02:00</time>
				<extensions>
					<swisstopo:routepoint_id>1158868197</swisstopo:routepoint_id>
				</extensions>
			</trkpt>
			<trkpt lat="47.3415013403" lon="7.2266328725">
				<ele>488.2</ele>
				<time>2021-04-12T12:20:58+02:00</time>
				<extensions>
					<swisstopo:routepoint_id>1568592336</swisstopo:routepoint_id>
				</extensions>
			</trkpt>
			<trkpt lat="47.3414814804" lon="7.2263056785">
				<ele>488.7</ele>
				<time>2021-04-12T12:20:59+02:00</time>
				<extensions>
					<swisstopo:routepoint_id>822140580</swisstopo:routepoint_id>
				</extensions>
			</trkpt>
			<trkpt lat="47.3414615816" lon="7.2259817191">
				<ele>489.2</ele>
				<time>2021-04-12T12:21:00+02:00</time>
				<extensions>
					<swisstopo:routepoint_id>806943262</swisstopo:routepoint_id>
				</extensions>
			</trkpt>
			<trkpt lat="47.3414420278" lon="7.2256710193">
				<ele>489.7</ele>
				<time>2021-04-12T12:21:01+02:00</time>
				<extensions>
					<swisstopo:routepoint_id>936173629</swisstopo:routepoint_id>
				</extensions>
			</trkpt>
			<trkpt lat="47.3414225638" lon="7.2253683783">
				<ele>490.2</ele>
				<time>2021-04-12T12:21:02+02:00</time>
				<extensions>
					<swisstopo:routepoint_id>1804984681</swisstopo:routepoint_id>
				</extensions>
			</trkpt>
			<trkpt lat="47.3414033375" lon="7.2250733567">
				<ele>490.6</ele>
				<time>2021-04-12T12:21:03+02:00</time>
				<extensions>
					<swisstopo:routepoint_id>1023536045</swisstopo:routepoint_id>
				</extensions>
			</trkpt>
			<trkpt lat="47.3413844152" lon="7.2247850634">
				<ele>490.9</ele>
				<time>2021-04-12T12:21:04+02:00</time>
				<extensions>
					<swisstopo:routepoint_id>1226295845</swisstopo:routepoint_id>
				</extensions>
			</trkpt>
			<trkpt lat="47.3413657909" lon="7.2245028339">
				<ele>491.3</ele>
				<time>2021-04-12T12:21:05+02:00</time>
				<extensions>
					<swisstopo:routepoint_id>953706656</swisstopo:routepoint_id>
				</extensions>
			</trkpt>
			<trkpt lat="47.3413475621" lon="7.2242254860">
				<ele>491.5</ele>
				<time>2021-04-12T12:21:06+02:00</time>
				<extensions>
					<swisstopo:routepoint_id>129826184</swisstopo:routepoint_id>
				</extensions>
			</trkpt>
			<trkpt lat="47.3413296060" lon="7.2239518203">
				<ele>491.8</ele>
				<time>2021-04-12T12:21:07+02:00</time>
				<extensions>
					<swisstopo:routepoint_id>145289136</swisstopo:routepoint_id>
				</extensions>
			</trkpt>
			<trkpt lat="47.3413113181" lon="7.2236794699">
				<ele>492.0</ele>
				<time>2021-04-12T12:21:08+02:00</time>
				<extensions>
					<swisstopo:routepoint_id>185602113</swisstopo:routepoint_id>
				</extensions>
			</trkpt>
			<trkpt lat="47.3412922887" lon="7.2234060302">
				<ele>492.3</ele>
				<time>2021-04-12T12:21:09+02:00</time>
				<extensions>
					<swisstopo:routepoint_id>1268457747</swisstopo:routepoint_id>
				</extensions>
			</trkpt>
			<trkpt lat="47.3412722942" lon="7.2231295634">
				<ele>492.5</ele>
				<time>2021-04-12T12:21:10+02:00</time>
				<extensions>
					<swisstopo:routepoint_id>899190060</swisstopo:routepoint_id>
				</extensions>
			</trkpt>
			<trkpt lat="47.3412514833" lon="7.2228484404">
				<ele>492.7</ele>
				<time>2021-04-12T12:21:11+02:00</time>
				<extensions>
					<swisstopo:routepoint_id>844914481</swisstopo:routepoint_id>
				</extensions>
			</trkpt>
			<trkpt lat="47.3412300777" lon="7.2225620482">
				<ele>493.0</ele>
				<time>2021-04-12T12:21:12+02:00</time>
				<extensions>
					<swisstopo:routepoint_id>1315808203</swisstopo:routepoint_id>
				</extensions>
			</trkpt>
			<trkpt lat="47.3412082230" lon="7.2222701553">
				<ele>493.2</ele>
				<time>2021-04-12T12:21:13+02:00</time>
				<extensions>
					<swisstopo:routepoint_id>1871015</swisstopo:routepoint_id>
				</extensions>
			</trkpt>
			<trkpt lat="47.3411857679" lon="7.2219729674">
				<ele>493.5</ele>
				<time>2021-04-12T12:21:14+02:00</time>
				<extensions>
					<swisstopo:routepoint_id>1381378047</swisstopo:routepoint_id>
				</extensions>
			</trkpt>
			<trkpt lat="47.3411629410" lon="7.2216712570">
				<ele>493.8</ele>
				<time>2021-04-12T12:21:15+02:00</time>
				<extensions>
					<swisstopo:routepoint_id>375128212</swisstopo:routepoint_id>
				</extensions>
			</trkpt>
			<trkpt lat="47.3411398092" lon="7.2213663711">
				<ele>494.0</ele>
				<time>2021-04-12T12:21:16+02:00</time>
				<extensions>
					<swisstopo:routepoint_id>1915355139</swisstopo:routepoint_id>
				</extensions>
			</trkpt>
			<trkpt lat="47.3411166069" lon="7.2210596345">
				<ele>494.4</ele>
				<time>2021-04-12T12:21:17+02:00</time>
				<extensions>
					<swisstopo:routepoint_id>593952643</swisstopo:routepoint_id>
				</extensions>
			</trkpt>
			<trkpt lat="47.3410936581" lon="7.2207514351">
				<ele>494.8</ele>
				<time>2021-04-12T12:21:18+02:00</time>
				<extensions>
					<swisstopo:routepoint_id>1058079645</swisstopo:routepoint_id>
				</extensions>
			</trkpt>
			<trkpt lat="47.3410711201" lon="7.2204427390">
				<ele>495.2</ele>
				<time>2021-04-12T12:21:19+02:00</time>
				<extensions>
					<swisstopo:routepoint_id>1979996355</swisstopo:routepoint_id>
				</extensions>
			</trkpt>
			<trkpt lat="47.3410491140" lon="7.2201350198">
				<ele>495.6</ele>
				<time>2021-04-12T12:21:20+02:00</time>
				<extensions>
					<swisstopo:routepoint_id>392144573</swisstopo:routepoint_id>
				</extensions>
			</trkpt>
			<trkpt lat="47.3410280635" lon="7.2198290529">
				<ele>496.0</ele>
				<time>2021-04-12T12:21:21+02:00</time>
				<extensions>
					<swisstopo:routepoint_id>146525768</swisstopo:routepoint_id>
				</extensions>
			</trkpt>
			<trkpt lat="47.3410087660" lon="7.2195253865">
				<ele>496.4</ele>
				<time>2021-04-12T12:21:22+02:00</time>
				<extensions>
					<swisstopo:routepoint_id>1642323314</swisstopo:routepoint_id>
				</extensions>
			</trkpt>
			<trkpt lat="47.3409919255" lon="7.2192241567">
				<ele>496.7</ele>
				<time>2021-04-12T12:21:23+02:00</time>
				<extensions>
					<swisstopo:routepoint_id>920623507</swisstopo:routepoint_id>
				</extensions>
			</trkpt>
			<trkpt lat="47.3409782507" lon="7.2189256578">
				<ele>497.1</ele>
				<time>2021-04-12T12:21:24+02:00</time>
				<extensions>
					<swisstopo:routepoint_id>299605514</swisstopo:routepoint_id>
				</extensions>
			</trkpt>
			<trkpt lat="47.3409678715" lon="7.2186296316">
				<ele>497.4</ele>
				<time>2021-04-12T12:21:25+02:00</time>
				<extensions>
					<swisstopo:routepoint_id>1768205230</swisstopo:routepoint_id>
				</extensions>
			</trkpt>
			<trkpt lat="47.3409608521" lon="7.2183359967">
				<ele>497.7</ele>
				<time>2021-04-12T12:21:27+02:00</time>
				<extensions>
					<swisstopo:routepoint_id>1346593424</swisstopo:routepoint_id>
				</extensions>
			</trkpt>
			<trkpt lat="47.3409569839" lon="7.2180451633">
				<ele>498.1</ele>
				<time>2021-04-12T12:21:28+02:00</time>
				<extensions>
					<swisstopo:routepoint_id>2013005082</swisstopo:routepoint_id>
				</extensions>
			</trkpt>
			<trkpt lat="47.3409560214" lon="7.2177563908">
				<ele>498.4</ele>
				<time>2021-04-12T12:21:29+02:00</time>
				<extensions>
					<swisstopo:routepoint_id>1119038336</swisstopo:routepoint_id>
				</extensions>
			</trkpt>
			<trkpt lat="47.3409580113" lon="7.2174693124">
				<ele>498.7</ele>
				<time>2021-04-12T12:21:30+02:00</time>
				<extensions>
					<swisstopo:routepoint_id>15532726</swisstopo:routepoint_id>
				</extensions>
			</trkpt>
			<trkpt lat="47.3409635346" lon="7.2171837467">
				<ele>499.0</ele>
				<time>2021-04-12T12:21:31+02:00</time>
				<extensions>
					<swisstopo:routepoint_id>1213004595</swisstopo:routepoint_id>
				</extensions>
			</trkpt>
			<trkpt lat="47.3409727585" lon="7.2168998703">
				<ele>499.3</ele>
				<time>2021-04-12T12:21:32+02:00</time>
				<extensions>
					<swisstopo:routepoint_id>905967194</swisstopo:routepoint_id>
				</extensions>
			</trkpt>
			<trkpt lat="47.3409857176" lon="7.2166183813">
				<ele>499.6</ele>
				<time>2021-04-12T12:21:32+02:00</time>
				<extensions>
					<swisstopo:routepoint_id>931572328</swisstopo:routepoint_id>
				</extensions>
			</trkpt>
			<trkpt lat="47.3410026187" lon="7.2163395046">
				<ele>499.8</ele>
				<time>2021-04-12T12:21:33+02:00</time>
				<extensions>
					<swisstopo:routepoint_id>1780330066</swisstopo:routepoint_id>
				</extensions>
			</trkpt>
			<trkpt lat="47.3410233814" lon="7.2160636137">
				<ele>500.1</ele>
				<time>2021-04-12T12:21:34+02:00</time>
				<extensions>
					<swisstopo:routepoint_id>1117765611</swisstopo:routepoint_id>
				</extensions>
			</trkpt>
			<trkpt lat="47.3410478151" lon="7.2157902731">
				<ele>500.3</ele>
				<time>2021-04-12T12:21:35+02:00</time>
				<extensions>
					<swisstopo:routepoint_id>99680121</swisstopo:routepoint_id>
				</extensions>
			</trkpt>
			<trkpt lat="47.3410757163" lon="7.2155187603">
				<ele>500.4</ele>
				<time>2021-04-12T12:21:36+02:00</time>
				<extensions>
					<swisstopo:routepoint_id>286548987</swisstopo:routepoint_id>
				</extensions>
			</trkpt>
			<trkpt lat="47.3411071348" lon="7.2152486993">
				<ele>500.6</ele>
				<time>2021-04-12T12:21:37+02:00</time>
				<extensions>
					<swisstopo:routepoint_id>1370487935</swisstopo:routepoint_id>
				</extensions>
			</trkpt>
			<trkpt lat="47.3411418631" lon="7.2149797418">
				<ele>500.7</ele>
				<time>2021-04-12T12:21:38+02:00</time>
				<extensions>
					<swisstopo:routepoint_id>2028609470</swisstopo:routepoint_id>
				</extensions>
			</trkpt>
			<trkpt lat="47.3411799932" lon="7.2147116027">
				<ele>500.9</ele>
				<time>2021-04-12T12:21:39+02:00</time>
				<extensions>
					<swisstopo:routepoint_id>1388982518</swisstopo:routepoint_id>
				</extensions>
			</trkpt>
			<trkpt lat="47.3412216238" lon="7.2144439697">
				<ele>501.0</ele>
				<time>2021-04-12T12:21:40+02:00</time>
				<extensions>
					<swisstopo:routepoint_id>1481937136</swisstopo:routepoint_id>
				</extensions>
			</trkpt>
			<trkpt lat="47.3412664931" lon="7.2141769454">
				<ele>501.1</ele>
				<time>2021-04-12T12:21:41+02:00</time>
				<extensions>
					<swisstopo:routepoint_id>402106846</swisstopo:routepoint_id>
				</extensions>
			</trkpt>
			<trkpt lat="47.3413146308" lon="7.2139107215">
				<ele>501.2</ele>
				<time>2021-04-12T12:21:42+02:00</time>
				<extensions>
					<swisstopo:routepoint_id>78723613</swisstopo:routepoint_id>
				</extensions>
			</trkpt>
			<trkpt lat="47.3413658945" lon="7.2136448088">
				<ele>501.3</ele>
				<time>2021-04-12T12:21:43+02:00</time>
				<extensions>
					<swisstopo:routepoint_id>257837139</swisstopo:routepoint_id>
				</extensions>
			</trkpt>
			<trkpt lat="47.3414204869" lon="7.2133787088">
				<ele>501.5</ele>
				<time>2021-04-12T12:21:44+02:00</time>
				<extensions>
					<swisstopo:routepoint_id>1994279174</swisstopo:routepoint_id>
				</extensions>
			</trkpt>
			<trkpt lat="47.3414783090" lon="7.2131128396">
				<ele>501.6</ele>
				<time>2021-04-12T12:21:45+02:00</time>
				<extensions>
					<swisstopo:routepoint_id>2072798689</swisstopo:routepoint_id>
				</extensions>
			</trkpt>
			<trkpt lat="47.3415393468" lon="7.2128474903">
				<ele>501.7</ele>
				<time>2021-04-12T12:21:46+02:00</time>
				<extensions>
					<swisstopo:routepoint_id>1047844389</swisstopo:routepoint_id>
				</extensions>
			</trkpt>
			<trkpt lat="47.3416037312" lon="7.2125829993">
				<ele>501.8</ele>
				<time>2021-04-12T12:21:47+02:00</time>
				<extensions>
					<swisstopo:routepoint_id>1754740523</swisstopo:routepoint_id>
				</extensions>
			</trkpt>
			<trkpt lat="47.3416715193" lon="7.2123194168">
				<ele>501.9</ele>
				<time>2021-04-12T12:21:48+02:00</time>
				<extensions>
					<swisstopo:routepoint_id>531045810</swisstopo:routepoint_id>
				</extensions>
			</trkpt>
			<trkpt lat="47.3417425795" lon="7.2120567669">
				<ele>502.0</ele>
				<time>2021-04-12T12:21:49+02:00</time>
				<extensions>
					<swisstopo:routepoint_id>344891738</swisstopo:routepoint_id>
				</extensions>
			</trkpt>
			<trkpt lat="47.3418170478" lon="7.2117949859">
				<ele>502.1</ele>
				<time>2021-04-12T12:21:50+02:00</time>
				<extensions>
					<swisstopo:routepoint_id>537077313</swisstopo:routepoint_id>
				</extensions>
			</trkpt>
			<trkpt lat="47.3418952053" lon="7.2115339312">
				<ele>502.2</ele>
				<time>2021-04-12T12:21:51+02:00</time>
				<extensions>
					<swisstopo:routepoint_id>784631250</swisstopo:routepoint_id>
				</extensions>
			</trkpt>
			<trkpt lat="47.3419768151" lon="7.2112733926">
				<ele>502.2</ele>
				<time>2021-04-12T12:21:52+02:00</time>
				<extensions>
					<swisstopo:routepoint_id>1747826170</swisstopo:routepoint_id>
				</extensions>
			</trkpt>
			<trkpt lat="47.3420615424" lon="7.2110137055">
				<ele>502.3</ele>
				<time>2021-04-12T12:21:53+02:00</time>
				<extensions>
					<swisstopo:routepoint_id>285631877</swisstopo:routepoint_id>
				</extensions>
			</trkpt>
			<trkpt lat="47.3421501563" lon="7.2107555210">
				<ele>502.3</ele>
				<time>2021-04-12T12:21:54+02:00</time>
				<extensions>
					<swisstopo:routepoint_id>989005694</swisstopo:routepoint_id>
				</extensions>
			</trkpt>
			<trkpt lat="47.3422430118" lon="7.2104987995">
				<ele>502.4</ele>
				<time>2021-04-12T12:21:55+02:00</time>
				<extensions>
					<swisstopo:routepoint_id>695271278</swisstopo:routepoint_id>
				</extensions>
			</trkpt>
			<trkpt lat="47.3423397843" lon="7.2102436481">
				<ele>502.4</ele>
				<time>2021-04-12T12:21:56+02:00</time>
				<extensions>
					<swisstopo:routepoint_id>965846019</swisstopo:routepoint_id>
				</extensions>
			</trkpt>
			<trkpt lat="47.3424400164" lon="7.2099896998">
				<ele>502.5</ele>
				<time>2021-04-12T12:21:57+02:00</time>
				<extensions>
					<swisstopo:routepoint_id>145153660</swisstopo:routepoint_id>
				</extensions>
			</trkpt>
			<trkpt lat="47.3425430787" lon="7.2097375568">
				<ele>502.6</ele>
				<time>2021-04-12T12:21:58+02:00</time>
				<extensions>
					<swisstopo:routepoint_id>56140628</swisstopo:routepoint_id>
				</extensions>
			</trkpt>
			<trkpt lat="47.3426482214" lon="7.2094873490">
				<ele>502.7</ele>
				<time>2021-04-12T12:21:59+02:00</time>
				<extensions>
					<swisstopo:routepoint_id>810213763</swisstopo:routepoint_id>
				</extensions>
			</trkpt>
			<trkpt lat="47.3427553600" lon="7.2092396447">
				<ele>502.8</ele>
				<time>2021-04-12T12:22:00+02:00</time>
				<extensions>
					<swisstopo:routepoint_id>68909114</swisstopo:routepoint_id>
				</extensions>
			</trkpt>
			<trkpt lat="47.3428645676" lon="7.2089947407">
				<ele>502.8</ele>
				<time>2021-04-12T12:22:01+02:00</time>
				<extensions>
					<swisstopo:routepoint_id>661793265</swisstopo:routepoint_id>
				</extensions>
			</trkpt>
			<trkpt lat="47.3429758714" lon="7.2087528815">
				<ele>502.9</ele>
				<time>2021-04-12T12:22:02+02:00</time>
				<extensions>
					<swisstopo:routepoint_id>941597042</swisstopo:routepoint_id>
				</extensions>
			</trkpt>
			<trkpt lat="47.3430899574" lon="7.2085141280">
				<ele>503.0</ele>
				<time>2021-04-12T12:22:03+02:00</time>
				<extensions>
					<swisstopo:routepoint_id>614490151</swisstopo:routepoint_id>
				</extensions>
			</trkpt>
			<trkpt lat="47.3432073647" lon="7.2082782757">
				<ele>503.0</ele>
				<time>2021-04-12T12:22:04+02:00</time>
				<extensions>
					<swisstopo:routepoint_id>487109434</swisstopo:routepoint_id>
				</extensions>
			</trkpt>
			<trkpt lat="47.3433273482" lon="7.2080443929">
				<ele>503.1</ele>
				<time>2021-04-12T12:22:05+02:00</time>
				<extensions>
					<swisstopo:routepoint_id>640594874</swisstopo:routepoint_id>
				</extensions>
			</trkpt>
			<trkpt lat="47.3434503191" lon="7.2078126004">
				<ele>503.2</ele>
				<time>2021-04-12T12:22:06+02:00</time>
				<extensions>
					<swisstopo:routepoint_id>1142524907</swisstopo:routepoint_id>
				</extensions>
			</trkpt>
			<trkpt lat="47.3435772906" lon="7.2075830027">
				<ele>503.4</ele>
				<time>2021-04-12T12:22:07+02:00</time>
				<extensions>
					<swisstopo:routepoint_id>1764824122</swisstopo:routepoint_id>
				</extensions>
			</trkpt>
			<trkpt lat="47.3437076767" lon="7.2073540182">
				<ele>503.6</ele>
				<time>2021-04-12T12:22:08+02:00</time>
				<extensions>
					<swisstopo:routepoint_id>354886090</swisstopo:routepoint_id>
				</extensions>
			</trkpt>
			<trkpt lat="47.3438403512" lon="7.2071256110">
				<ele>503.9</ele>
				<time>2021-04-12T12:22:09+02:00</time>
				<extensions>
					<swisstopo:routepoint_id>1008426911</swisstopo:routepoint_id>
				</extensions>
			</trkpt>
			<trkpt lat="47.3694359812" lon="7.1787213153">
				<ele>490.6</ele>
				<time>2021-04-12T12:24:53+02:00</time>
				<extensions>
					<swisstopo:routepoint_id>690151053</swisstopo:routepoint_id>
				</extensions>
			</trkpt>
			<trkpt lat="47.3695830121" lon="7.1785305603">
				<ele>489.5</ele>
				<time>2021-04-12T12:24:54+02:00</time>
				<extensions>
					<swisstopo:routepoint_id>809570324</swisstopo:routepoint_id>
				</extensions>
			</trkpt>
			<trkpt lat="47.3697089567" lon="7.1783386246">
				<ele>489.2</ele>
				<time>2021-04-12T12:24:55+02:00</time>
				<extensions>
					<swisstopo:routepoint_id>2139531723</swisstopo:routepoint_id>
				</extensions>
			</trkpt>
			<trkpt lat="47.3698187623" lon="7.1781431719">
				<ele>489.0</ele>
				<time>2021-04-12T12:24:56+02:00</time>
				<extensions>
					<swisstopo:routepoint_id>1643483093</swisstopo:routepoint_id>
				</extensions>
			</trkpt>
			<trkpt lat="47.3699125573" lon="7.1779392627">
				<ele>489.0</ele>
				<time>2021-04-12T12:24:57+02:00</time>
				<extensions>
					<swisstopo:routepoint_id>1085676337</swisstopo:routepoint_id>
				</extensions>
			</trkpt>
			<trkpt lat="47.3699905638" lon="7.1777207040">
				<ele>489.0</ele>
				<time>2021-04-12T12:24:58+02:00</time>
				<extensions>
					<swisstopo:routepoint_id>1941131047</swisstopo:routepoint_id>
				</extensions>
			</trkpt>
			<trkpt lat="47.3700525636" lon="7.1774851626">
				<ele>489.1</ele>
				<time>2021-04-12T12:24:59+02:00</time>
				<extensions>
					<swisstopo:routepoint_id>17941705</swisstopo:routepoint_id>
				</extensions>
			</trkpt>
			<trkpt lat="47.3701021291" lon="7.1772347938">
				<ele>489.1</ele>
				<time>2021-04-12T12:25:00+02:00</time>
				<extensions>
					<swisstopo:routepoint_id>898525355</swisstopo:routepoint_id>
				</extensions>
			</trkpt>
			<trkpt lat="47.3701447629" lon="7.1769727781">
				<ele>489.1</ele>
				<time>2021-04-12T12:25:01+02:00</time>
				<extensions>
					<swisstopo:routepoint_id>410635781</swisstopo:routepoint_id>
				</extensions>
			</trkpt>
			<trkpt lat="47.3701840758" lon="7.1767026656">
				<ele>489.1</ele>
				<time>2021-04-12T12:25:02+02:00</time>
				<extensions>
					<swisstopo:routepoint_id>1690613456</swisstopo:routepoint_id>
				</extensions>
			</trkpt>
			<trkpt lat="47.3702237551" lon="7.1764284501">
				<ele>489.0</ele>
				<time>2021-04-12T12:25:03+02:00</time>
				<extensions>
					<swisstopo:routepoint_id>784221535</swisstopo:routepoint_id>
				</extensions>
			</trkpt>
			<trkpt lat="47.3702689052" lon="7.1761538390">
				<ele>489.0</ele>
				<time>2021-04-12T12:25:04+02:00</time>
				<extensions>
					<swisstopo:routepoint_id>1304197106</swisstopo:routepoint_id>
				</extensions>
			</trkpt>
			<trkpt lat="47.3703233801" lon="7.1758817997">
				<ele>488.9</ele>
				<time>2021-04-12T12:25:05+02:00</time>
				<extensions>
					<swisstopo:routepoint_id>275175613</swisstopo:routepoint_id>
				</extensions>
			</trkpt>
			<trkpt lat="47.3703850312" lon="7.1756140627">
				<ele>488.9</ele>
				<time>2021-04-12T12:25:06+02:00</time>
				<extensions>
					<swisstopo:routepoint_id>1344235700</swisstopo:routepoint_id>
				</extensions>
			</trkpt>
			<trkpt lat="47.3704517107" lon="7.1753527621">
				<ele>489.0</ele>
				<time>2021-04-12T12:25:07+02:00</time>
				<extensions>
					<swisstopo:routepoint_id>1041443460</swisstopo:routepoint_id>
				</extensions>
			</trkpt>
			<trkpt lat="47.3705224156" lon="7.1750989227">
				<ele>489.3</ele>
				<time>2021-04-12T12:25:08+02:00</time>
				<extensions>
					<swisstopo:routepoint_id>1548509170</swisstopo:routepoint_id>
				</extensions>
			</trkpt>
			<trkpt lat="47.3705971562" lon="7.1748514431">
				<ele>489.6</ele>
				<time>2021-04-12T12:25:09+02:00</time>
				<extensions>
					<swisstopo:routepoint_id>439302197</swisstopo:routepoint_id>
				</extensions>
			</trkpt>
			<trkpt lat="47.3706774459" lon="7.1746090670">
				<ele>490.3</ele>
				<time>2021-04-12T12:25:10+02:00</time>
				<extensions>
					<swisstopo:routepoint_id>303246593</swisstopo:routepoint_id>
				</extensions>
			</trkpt>
			<trkpt lat="47.3707624214" lon="7.1743702517">
				<ele>491.2</ele>
				<time>2021-04-12T12:25:11+02:00</time>
				<extensions>
					<swisstopo:routepoint_id>686794220</swisstopo:routepoint_id>
				</extensions>
			</trkpt>
			<trkpt lat="47.4028229736" lon="7.1486558090">
				<ele>520.6</ele>
				<time>2021-04-12T12:28:34+02:00</time>
				<extensions>
					<swisstopo:routepoint_id>225852915</swisstopo:routepoint_id>
				</extensions>
			</trkpt>
			<trkpt lat="47.4030138075" lon="7.1485732426">
				<ele>518.8</ele>
				<time>2021-04-12T12:28:35+02:00</time>
				<extensions>
					<swisstopo:routepoint_id>1306338156</swisstopo:routepoint_id>
				</extensions>
			</trkpt>
			<trkpt lat="47.4031926730" lon="7.1484925792">
				<ele>517.9</ele>
				<time>2021-04-12T12:28:36+02:00</time>
				<extensions>
					<swisstopo:routepoint_id>1900064611</swisstopo:routepoint_id>
				</extensions>
			</trkpt>
			<trkpt lat="47.4033632373" lon="7.1484131588">
				<ele>517.2</ele>
				<time>2021-04-12T12:28:37+02:00</time>
				<extensions>
					<swisstopo:routepoint_id>1304086187</swisstopo:routepoint_id>
				</extensions>
			</trkpt>
			<trkpt lat="47.4035235226" lon="7.1483259096">
				<ele>516.7</ele>
				<time>2021-04-12T12:28:38+02:00</time>
				<extensions>
					<swisstopo:routepoint_id>558443627</swisstopo:routepoint_id>
				</extensions>
			</trkpt>
			<trkpt lat="47.4036756124" lon="7.1482252902">
				<ele>516.1</ele>
				<time>2021-04-12T12:28:40+02:00</time>
				<extensions>
					<swisstopo:routepoint_id>1258501599</swisstopo:routepoint_id>
				</extensions>
			</trkpt>
			<trkpt lat="47.4038150940" lon="7.1481106258">
				<ele>515.6</ele>
				<time>2021-04-12T12:28:41+02:00</time>
				<extensions>
					<swisstopo:routepoint_id>1069935090</swisstopo:routepoint_id>
				</extensions>
			</trkpt>
			<trkpt lat="47.4039468629" lon="7.1479792714">
				<ele>515.0</ele>
				<time>2021-04-12T12:28:41+02:00</time>
				<extensions>
					<swisstopo:routepoint_id>1518481299</swisstopo:routepoint_id>
				</extensions>
			</trkpt>
			<trkpt lat="47.4040736843" lon="7.1478300664">
				<ele>514.4</ele>
				<time>2021-04-12T12:28:42+02:00</time>
				<extensions>
					<swisstopo:routepoint_id>419531345</swisstopo:routepoint_id>
				</extensions>
			</trkpt>
			<trkpt lat="47.4041974848" lon="7.1476685690">
				<ele>513.9</ele>
				<time>2021-04-12T12:28:43+02:00</time>
				<extensions>
					<swisstopo:routepoint_id>874502314</swisstopo:routepoint_id>
				</extensions>
			</trkpt>
			<trkpt lat="47.4043198782" lon="7.1474993199">
				<ele>513.4</ele>
				<time>2021-04-12T12:28:44+02:00</time>
				<extensions>
					<swisstopo:routepoint_id>382311330</swisstopo:routepoint_id>
				</extensions>
			</trkpt>
			<trkpt lat="47.4044416417" lon="7.1473249863">
				<ele>512.9</ele>
				<time>2021-04-12T12:28:45+02:00</time>
				<extensions>
					<swisstopo:routepoint_id>235451486</swisstopo:routepoint_id>
				</extensions>
			</trkpt>
			<trkpt lat="47.4045625360" lon="7.1471479844">
				<ele>512.4</ele>
				<time>2021-04-12T12:28:46+02:00</time>
				<extensions>
					<swisstopo:routepoint_id>1568247428</swisstopo:routepoint_id>
				</extensions>
			</trkpt>
			<trkpt lat="47.4046824740" lon="7.1469703699">
				<ele>512.0</ele>
				<time>2021-04-12T12:28:47+02:00</time>
				<extensions>
					<swisstopo:routepoint_id>1467722765</swisstopo:routepoint_id>
				</extensions>
			</trkpt>
			<trkpt lat="47.4048013956" lon="7.1467930238">
				<ele>511.7</ele>
				<time>2021-04-12T12:28:48+02:00</time>
				<extensions>
					<swisstopo:routepoint_id>2019341913</swisstopo:routepoint_id>
				</extensions>
			</trkpt>
			<trkpt lat="47.4049191744" lon="7.1466166776">
				<ele>511.3</ele>
				<time>2021-04-12T12:28:49+02:00</time>
				<extensions>
					<swisstopo:routepoint_id>247974603</swisstopo:routepoint_id>
				</extensions>
			</trkpt>
			<trkpt lat="47.4050348418" lon="7.1464415417">
				<ele>511.0</ele>
				<time>2021-04-12T12:28:50+02:00</time>
				<extensions>
					<swisstopo:routepoint_id>1590877441</swisstopo:routepoint_id>
				</extensions>
			</trkpt>
			<trkpt lat="47.4051479388" lon="7.1462680099">
				<ele>510.8</ele>
				<time>2021-04-12T12:28:51+02:00</time>
				<extensions>
					<swisstopo:routepoint_id>1705745737</swisstopo:routepoint_id>
				</extensions>
			</trkpt>
			<trkpt lat="47.4052574281" lon="7.1460958334">
				<ele>510.5</ele>
				<time>2021-04-12T12:28:52+02:00</time>
				<extensions>
					<swisstopo:routepoint_id>1709397956</swisstopo:routepoint_id>
				</extensions>
			</trkpt>
			<trkpt lat="47.4053627526" lon="7.1459255875">
				<ele>510.3</ele>
				<time>2021-04-12T12:28:53+02:00</time>
				<extensions>
					<swisstopo:routepoint_id>815216926</swisstopo:routepoint_id>
				</extensions>
			</trkpt>
			<trkpt lat="47.4054640397" lon="7.1457578981">
				<ele>510.1</ele>
				<time>2021-04-12T12:28:54+02:00</time>
				<extensions>
					<swisstopo:routepoint_id>405207422</swisstopo:routepoint_id>
				</extensions>
			</trkpt>
			<trkpt lat="47.4055616371" lon="7.1455934405">
				<ele>509.9</ele>
				<time>2021-04-12T12:28:55+02:00</time>
				<extensions>
					<swisstopo:routepoint_id>650496917</swisstopo:routepoint_id>
				</extensions>
			</trkpt>
			<trkpt lat="47.4056553499" lon="7.1454329515">
				<ele>509.7</ele>
				<time>2021-04-12T12:28:56+02:00</time>
				<extensions>
					<swisstopo:routepoint_id>62437142</swisstopo:routepoint_id>
				</extensions>
			</trkpt>
			<trkpt lat="47.4057459274" lon="7.1452767154">
				<ele>509.5</ele>
				<time>2021-04-12T12:28:57+02:00</time>
				<extensions>
					<swisstopo:routepoint_id>1409025858</swisstopo:routepoint_id>
				</extensions>
			</trkpt>
			<trkpt lat="47.4058341844" lon="7.1451245982">
				<ele>509.3</ele>
				<time>2021-04-12T12:28:58+02:00</time>
				<extensions>
					<swisstopo:routepoint_id>1195419937</swisstopo:routepoint_id>
				</extensions>
			</trkpt>
			<trkpt lat="47.4059206275" lon="7.1449769854">
				<ele>509.2</ele>
				<time>2021-04-12T12:28:59+02:00</time>
				<extensions>
					<swisstopo:routepoint_id>1713363474</swisstopo:routepoint_id>
				</extensions>
			</trkpt>
			<trkpt lat="47.4060055471" lon="7.1448341430">
				<ele>509.0</ele>
				<time>2021-04-12T12:29:00+02:00</time>
				<extensions>
					<swisstopo:routepoint_id>891684895</swisstopo:routepoint_id>
				</extensions>
			</trkpt>
			<trkpt lat="47.4060898315" lon="7.1446976078">
				<ele>508.8</ele>
				<time>2021-04-12T12:29:01+02:00</time>
				<extensions>
					<swisstopo:routepoint_id>1407141499</swisstopo:routepoint_id>
				</extensions>
			</trkpt>
			<trkpt lat="47.4061744323" lon="7.1445701381">
				<ele>508.5</ele>
				<time>2021-04-12T12:29:02+02:00</time>
				<extensions>
					<swisstopo:routepoint_id>1737252929</swisstopo:routepoint_id>
				</extensions>
			</trkpt>
			<trkpt lat="47.4062596819" lon="7.1444565138">
				<ele>508.0</ele>
				<time>2021-04-12T12:29:03+02:00</time>
				<extensions>
					<swisstopo:routepoint_id>822313091</swisstopo:routepoint_id>
				</extensions>
			</trkpt>
			<trkpt lat="47.4063468501" lon="7.1443607852">
				<ele>507.7</ele>
				<time>2021-04-12T12:29:04+02:00</time>
				<extensions>
					<swisstopo:routepoint_id>1558851992</swisstopo:routepoint_id>
				</extensions>
			</trkpt>
			<trkpt lat="47.4064366844" lon="7.1442877841">
				<ele>507.6</ele>
				<time>2021-04-12T12:29:05+02:00</time>
				<extensions>
					<swisstopo:routepoint_id>324936144</swisstopo:routepoint_id>
				</extensions>
			</trkpt>
			<trkpt lat="47.4065282587" lon="7.1442415220">
				<ele>507.5</ele>
				<time>2021-04-12T12:29:06+02:00</time>
				<extensions>
					<swisstopo:routepoint_id>150857887</swisstopo:routepoint_id>
				</extensions>
			</trkpt>
			<trkpt lat="47.4066207436" lon="7.1442252314">
				<ele>507.4</ele>
				<time>2021-04-12T12:29:07+02:00</time>
				<extensions>
					<swisstopo:routepoint_id>1437803349</swisstopo:routepoint_id>
				</extensions>
			</trkpt>
			<trkpt lat="47.4067120340" lon="7.1442400227">
				<ele>507.5</ele>
				<time>2021-04-12T12:29:08+02:00</time>
				<extensions>
					<swisstopo:routepoint_id>1674890599</swisstopo:routepoint_id>
				</extensions>
			</trkpt>
			<trkpt lat="47.4067997767" lon="7.1442859832">
				<ele>507.6</ele>
				<time>2021-04-12T12:29:09+02:00</time>
				<extensions>
					<swisstopo:routepoint_id>670652517</swisstopo:routepoint_id>
				</extensions>
			</trkpt>
			<trkpt lat="47.4068804796" lon="7.1443621926">
				<ele>507.7</ele>
				<time>2021-04-12T12:29:10+02:00</time>
				<extensions>
					<swisstopo:routepoint_id>1662673763</swisstopo:routepoint_id>
				</extensions>
			</trkpt>
			<trkpt lat="47.4069512620" lon="7.1444664791">
				<ele>507.9</ele>
				<time>2021-04-12T12:29:11+02:00</time>
				<extensions>
					<swisstopo:routepoint_id>1500719977</swisstopo:routepoint_id>
				</extensions>
			</trkpt>
			<trkpt lat="47.4070089051" lon="7.1445956122">
				<ele>508.2</ele>
				<time>2021-04-12T12:29:12+02:00</time>
				<extensions>
					<swisstopo:routepoint_id>405219424</swisstopo:routepoint_id>
				</extensions>
			</trkpt>
			<trkpt lat="47.4070508877" lon="7.1447440620">
				<ele>508.5</ele>
				<time>2021-04-12T12:29:13+02:00</time>
				<extensions>
					<swisstopo:routepoint_id>852214531</swisstopo:routepoint_id>
				</extensions>
			</trkpt>
			<trkpt lat="47.4070743627" lon="7.1449055903">
				<ele>508.9</ele>
				<time>2021-04-12T12:29:14+02:00</time>
				<extensions>
					<swisstopo:routepoint_id>1601180674</swisstopo:routepoint_id>
				</extensions>
			</trkpt>
			<trkpt lat="47.4070769812" lon="7.1450736727">
				<ele>509.3</ele>
				<time>2021-04-12T12:29:15+02:00</time>
				<extensions>
					<swisstopo:routepoint_id>926007361</swisstopo:routepoint_id>
				</extensions>
			</trkpt>
			<trkpt lat="47.4070585323" lon="7.1452414938">
				<ele>509.8</ele>
				<time>2021-04-12T12:29:16+02:00</time>
				<extensions>
					<swisstopo:routepoint_id>591726518</swisstopo:routepoint_id>
				</extensions>
			</trkpt>
			<trkpt lat="47.4070189581" lon="7.1454019682">
				<ele>510.3</ele>
				<time>2021-04-12T12:29:17+02:00</time>
				<extensions>
					<swisstopo:routepoint_id>150818769</swisstopo:routepoint_id>
				</extensions>
			</trkpt>
			<trkpt lat="47.4069608879" lon="7.1455501447">
				<ele>510.7</ele>
				<time>2021-04-12T12:29:18+02:00</time>
				<extensions>
					<swisstopo:routepoint_id>780347123</swisstopo:routepoint_id>
				</extensions>
			</trkpt>
			<trkpt lat="47.4068870304" lon="7.1456806122">
				<ele>511.1</ele>
				<time>2021-04-12T12:29:19+02:00</time>
				<extensions>
					<swisstopo:routepoint_id>611464032</swisstopo:routepoint_id>
				</extensions>
			</trkpt>
			<trkpt lat="47.4068008196" lon="7.1457897087">
				<ele>511.6</ele>
				<time>2021-04-12T12:29:20+02:00</time>
				<extensions>
					<swisstopo:routepoint_id>1166734929</swisstopo:routepoint_id>
				</extensions>
			</trkpt>
			<trkpt lat="47.4067067533" lon="7.1458765747">
				<ele>512.0</ele>
				<time>2021-04-12T12:29:21+02:00</time>
				<extensions>
					<swisstopo:routepoint_id>640770946</swisstopo:routepoint_id>
				</extensions>
			</trkpt>
			<trkpt lat="47.4066097620" lon="7.1459420761">
				<ele>512.3</ele>
				<time>2021-04-12T12:29:22+02:00</time>
				<extensions>
					<swisstopo:routepoint_id>1954283364</swisstopo:routepoint_id>
				</extensions>
			</trkpt>
			<trkpt lat="47.4065145841" lon="7.1459889768">
				<ele>512.7</ele>
				<time>2021-04-12T12:29:23+02:00</time>
				<extensions>
					<swisstopo:routepoint_id>2025601530</swisstopo:routepoint_id>
				</extensions>
			</trkpt>
			<trkpt lat="47.4064252573" lon="7.1460198151">
				<ele>513.0</ele>
				<time>2021-04-12T12:29:24+02:00</time>
				<extensions>
					<swisstopo:routepoint_id>226658819</swisstopo:routepoint_id>
				</extensions>
			</trkpt>
			<trkpt lat="47.4063453892" lon="7.1460375357">
				<ele>513.2</ele>
				<time>2021-04-12T12:29:25+02:00</time>
				<extensions>
					<swisstopo:routepoint_id>1966264802</swisstopo:routepoint_id>
				</extensions>
			</trkpt>
			<trkpt lat="47.4062773476" lon="7.1460448745">
				<ele>513.4</ele>
				<time>2021-04-12T12:29:26+02:00</time>
				<extensions>
					<swisstopo:routepoint_id>1534167178</swisstopo:routepoint_id>
				</extensions>
			</trkpt>
			<trkpt lat="47.4062216755" lon="7.1460443505">
				<ele>513.6</ele>
				<time>2021-04-12T12:29:27+02:00</time>
				<extensions>
					<swisstopo:routepoint_id>2059094764</swisstopo:routepoint_id>
				</extensions>
			</trkpt>
			<trkpt lat="47.4061765960" lon="7.1460388170">
				<ele>513.6</ele>
				<time>2021-04-12T12:29:28+02:00</time>
				<extensions>
					<swisstopo:routepoint_id>506727143</swisstopo:routepoint_id>
				</extensions>
			</trkpt>
			<trkpt lat="47.4061384923" lon="7.1460340098">
				<ele>513.7</ele>
				<time>2021-04-12T12:29:29+02:00</time>
				<extensions>
					<swisstopo:routepoint_id>1790432046</swisstopo:routepoint_id>
				</extensions>
			</trkpt>
			<trkpt lat="47.4061056162" lon="7.1460379628">
				<ele>513.8</ele>
				<time>2021-04-12T12:29:30+02:00</time>
				<extensions>
					<swisstopo:routepoint_id>1250535358</swisstopo:routepoint_id>
				</extensions>
			</trkpt>
			<trkpt lat="47.4060794307" lon="7.1460575179">
				<ele>513.8</ele>
				<time>2021-04-12T12:29:31+02:00</time>
				<extensions>
					<swisstopo:routepoint_id>325308717</swisstopo:routepoint_id>
				</extensions>
			</trkpt>
			<trkpt lat="47.4060623236" lon="7.1460957993">
				<ele>513.6</ele>
				<time>2021-04-12T12:29:32+02:00</time>
				<extensions>
					<swisstopo:routepoint_id>2117725004</swisstopo:routepoint_id>
				</extensions>
			</trkpt>
			<trkpt lat="47.4060546245" lon="7.1461514857">
				<ele>513.4</ele>
				<time>2021-04-12T12:29:33+02:00</time>
				<extensions>
					<swisstopo:routepoint_id>210176850</swisstopo:routepoint_id>
				</extensions>
			</trkpt>
			<trkpt lat="47.4060550286" lon="7.1462214825">
				<ele>513.2</ele>
				<time>2021-04-12T12:29:34+02:00</time>
				<extensions>
					<swisstopo:routepoint_id>1979202282</swisstopo:routepoint_id>
				</extensions>
			</trkpt>
			<trkpt lat="47.4060616653" lon="7.1463030147">
				<ele>512.9</ele>
				<time>2021-04-12T12:29:35+02:00</time>
				<extensions>
					<swisstopo:routepoint_id>2078545191</swisstopo:routepoint_id>
				</extensions>
			</trkpt>
			<trkpt lat="47.4060732919" lon="7.1463944561">
				<ele>512.6</ele>
				<time>2021-04-12T12:29:36+02:00</time>
				<extensions>
					<swisstopo:routepoint_id>992539388</swisstopo:routepoint_id>
				</extensions>
			</trkpt>
			<trkpt lat="47.4060889608" lon="7.1464961706">
				<ele>512.2</ele>
				<time>2021-04-12T12:29:37+02:00</time>
				<extensions>
					<swisstopo:routepoint_id>2104007867</swisstopo:routepoint_id>
				</extensions>
			</trkpt>
			<trkpt lat="47.4061075303" lon="7.1466080915">
				<ele>511.7</ele>
				<time>2021-04-12T12:29:38+02:00</time>
				<extensions>
					<swisstopo:routepoint_id>1594489167</swisstopo:routepoint_id>
				</extensions>
			</trkpt>
			<trkpt lat="47.4061282926" lon="7.1467297637">
				<ele>511.3</ele>
				<time>2021-04-12T12:29:39+02:00</time>
				<extensions>
					<swisstopo:routepoint_id>130998856</swisstopo:routepoint_id>
				</extensions>
			</trkpt>
			<trkpt lat="47.4061502267" lon="7.1468605456">
				<ele>510.8</ele>
				<time>2021-04-12T12:29:40+02:00</time>
				<extensions>
					<swisstopo:routepoint_id>527034617</swisstopo:routepoint_id>
				</extensions>
			</trkpt>
			<trkpt lat="47.4061724815" lon="7.1469996112">
				<ele>510.3</ele>
				<time>2021-04-12T12:29:41+02:00</time>
				<extensions>
					<swisstopo:routepoint_id>1648247691</swisstopo:routepoint_id>
				</extensions>
			</trkpt>
			<trkpt lat="47.4061944240" lon="7.1471456562">
				<ele>509.8</ele>
				<time>2021-04-12T12:29:42+02:00</time>
				<extensions>
					<swisstopo:routepoint_id>1707379984</swisstopo:routepoint_id>
				</extensions>
			</trkpt>
			<trkpt lat="47.4062152775" lon="7.1472977833">
				<ele>509.3</ele>
				<time>2021-04-12T12:29:43+02:00</time>
				<extensions>
					<swisstopo:routepoint_id>1258899874</swisstopo:routepoint_id>
				</extensions>
			</trkpt>
			<trkpt lat="47.4062346193" lon="7.1474549220">
				<ele>508.8</ele>
				<time>2021-04-12T12:29:44+02:00</time>
				<extensions>
					<swisstopo:routepoint_id>1321292074</swisstopo:routepoint_id>
				</extensions>
			</trkpt>
			<trkpt lat="47.4062520091" lon="7.1476157896">
				<ele>508.2</ele>
				<time>2021-04-12T12:29:45+02:00</time>
				<extensions>
					<swisstopo:routepoint_id>1974977738</swisstopo:routepoint_id>
				</extensions>
			</trkpt>
			<trkpt lat="47.4062672194" lon="7.1477797124">
				<ele>507.7</ele>
				<time>2021-04-12T12:29:46+02:00</time>
				<extensions>
					<swisstopo:routepoint_id>1943594534</swisstopo:routepoint_id>
				</extensions>
			</trkpt>
			<trkpt lat="47.4062801113" lon="7.1479457996">
				<ele>507.1</ele>
				<time>2021-04-12T12:29:47+02:00</time>
				<extensions>
					<swisstopo:routepoint_id>619578421</swisstopo:routepoint_id>
				</extensions>
			</trkpt>
			<trkpt lat="47.4062907526" lon="7.1481135017">
				<ele>506.5</ele>
				<time>2021-04-12T12:29:48+02:00</time>
				<extensions>
					<swisstopo:routepoint_id>106317444</swisstopo:routepoint_id>
				</extensions>
			</trkpt>
			<trkpt lat="47.4062989373" lon="7.1482825547">
				<ele>505.9</ele>
				<time>2021-04-12T12:29:49+02:00</time>
				<extensions>
					<swisstopo:routepoint_id>170887004</swisstopo:routepoint_id>
				</extensions>
			</trkpt>
			<trkpt lat="47.4063047182" lon="7.1484527620">
				<ele>505.2</ele>
				<time>2021-04-12T12:29:50+02:00</time>
				<extensions>
					<swisstopo:routepoint_id>912240189</swisstopo:routepoint_id>
				</extensions>
			</trkpt>
			<trkpt lat="47.4063082700" lon="7.1486245147">
				<ele>504.6</ele>
				<time>2021-04-12T12:29:51+02:00</time>
				<extensions>
					<swisstopo:routepoint_id>1135100590</swisstopo:routepoint_id>
				</extensions>
			</trkpt>
			<trkpt lat="47.4063099600" lon="7.1487984159">
				<ele>503.9</ele>
				<time>2021-04-12T12:29:52+02:00</time>
				<extensions>
					<swisstopo:routepoint_id>1538379829</swisstopo:routepoint_id>
				</extensions>
			</trkpt>
			<trkpt lat="47.4063104065" lon="7.1489747631">
				<ele>503.1</ele>
				<time>2021-04-12T12:29:53+02:00</time>
				<extensions>
					<swisstopo:routepoint_id>1994159770</swisstopo:routepoint_id>
				</extensions>
			</trkpt>
			<trkpt lat="47.4063101377" lon="7.1491534250">
				<ele>502.3</ele>
				<time>2021-04-12T12:29:54+02:00</time>
				<extensions>
					<swisstopo:routepoint_id>65975661</swisstopo:routepoint_id>
				</extensions>
			</trkpt>
			<trkpt lat="47.4063093130" lon="7.1493346740">
				<ele>501.5</ele>
				<time>2021-04-12T12:29:55+02:00</time>
				<extensions>
					<swisstopo:routepoint_id>751372575</swisstopo:routepoint_id>
				</extensions>
			</trkpt>
			<trkpt lat="47.4063075827" lon="7.1495184772">
				<ele>500.7</ele>
				<time>2021-04-12T12:29:56+02:00</time>
				<extensions>
					<swisstopo:routepoint_id>1115023665</swisstopo:routepoint_id>
				</extensions>
			</trkpt>
			<trkpt lat="47.4063044996" lon="7.1497045526">
				<ele>499.8</ele>
				<time>2021-04-12T12:29:57+02:00</time>
				<extensions>
					<swisstopo:routepoint_id>1260433933</swisstopo:routepoint_id>
				</extensions>
			</trkpt>
			<trkpt lat="47.4063006030" lon="7.1498928677">
				<ele>499.0</ele>
				<time>2021-04-12T12:29:58+02:00</time>
				<extensions>
					<swisstopo:routepoint_id>1334417923</swisstopo:routepoint_id>
				</extensions>
			</trkpt>
			<trkpt lat="47.4062967073" lon="7.1500829110">
				<ele>498.2</ele>
				<time>2021-04-12T12:29:59+02:00</time>
				<extensions>
					<swisstopo:routepoint_id>1390306240</swisstopo:routepoint_id>
				</extensions>
			</trkpt>
			<trkpt lat="47.4062935158" lon="7.1502744512">
				<ele>497.4</ele>
				<time>2021-04-12T12:30:00+02:00</time>
				<extensions>
					<swisstopo:routepoint_id>107412673</swisstopo:routepoint_id>
				</extensions>
			</trkpt>
			<trkpt lat="47.4062916695" lon="7.1504668509">
				<ele>496.6</ele>
				<time>2021-04-12T12:30:01+02:00</time>
				<extensions>
					<swisstopo:routepoint_id>1398531631</swisstopo:routepoint_id>
				</extensions>
			</trkpt>
			<trkpt lat="47.4062914363" lon="7.1506593093">
				<ele>495.9</ele>
				<time>2021-04-12T12:30:02+02:00</time>
				<extensions>
					<swisstopo:routepoint_id>912605802</swisstopo:routepoint_id>
				</extensions>
			</trkpt>
			<trkpt lat="47.4062933299" lon="7.1508517160">
				<ele>495.3</ele>
				<time>2021-04-12T12:30:03+02:00</time>
				<extensions>
					<swisstopo:routepoint_id>837507340</swisstopo:routepoint_id>
				</extensions>
			</trkpt>
			<trkpt lat="47.4062974710" lon="7.1510442585">
				<ele>494.7</ele>
				<time>2021-04-12T12:30:04+02:00</time>
				<extensions>
					<swisstopo:routepoint_id>1378040942</swisstopo:routepoint_id>
				</extensions>
			</trkpt>
			<trkpt lat="47.4063035944" lon="7.1512373269">
				<ele>494.2</ele>
				<time>2021-04-12T12:30:05+02:00</time>
				<extensions>
					<swisstopo:routepoint_id>122979299</swisstopo:routepoint_id>
				</extensions>
			</trkpt>
			<trkpt lat="47.4063118937" lon="7.1514312906">
				<ele>493.8</ele>
				<time>2021-04-12T12:30:06+02:00</time>
				<extensions>
					<swisstopo:routepoint_id>1033809879</swisstopo:routepoint_id>
				</extensions>
			</trkpt>
			<trkpt lat="47.4063220174" lon="7.1516263871">
				<ele>493.5</ele>
				<time>2021-04-12T12:30:07+02:00</time>
				<extensions>
					<swisstopo:routepoint_id>2099932123</swisstopo:routepoint_id>
				</extensions>
			</trkpt>
			<trkpt lat="47.4063336721" lon="7.1518219223">
				<ele>493.3</ele>
				<time>2021-04-12T12:30:08+02:00</time>
				<extensions>
					<swisstopo:routepoint_id>1812936463</swisstopo:routepoint_id>
				</extensions>
			</trkpt>
			<trkpt lat="47.4063464571" lon="7.1520173945">
				<ele>493.1</ele>
				<time>2021-04-12T12:30:09+02:00</time>
				<extensions>
					<swisstopo:routepoint_id>1525150005</swisstopo:routepoint_id>
				</extensions>
			</trkpt>
			<trkpt lat="47.4063602123" lon="7.1522120954">
				<ele>493.0</ele>
				<time>2021-04-12T12:30:10+02:00</time>
				<extensions>
					<swisstopo:routepoint_id>831323443</swisstopo:routepoint_id>
				</extensions>
			</trkpt>
			<trkpt lat="47.4063745533" lon="7.1524059153">
				<ele>492.9</ele>
				<time>2021-04-12T12:30:11+02:00</time>
				<extensions>
					<swisstopo:routepoint_id>524499119</swisstopo:routepoint_id>
				</extensions>
			</trkpt>
			<trkpt lat="47.4063894332" lon="7.1525986400">
				<ele>492.9</ele>
				<time>2021-04-12T12:30:12+02:00</time>
				<extensions>
					<swisstopo:routepoint_id>1983805745</swisstopo:routepoint_id>
				</extensions>
			</trkpt>
			<trkpt lat="47.4064047044" lon="7.1527902601">
				<ele>493.0</ele>
				<time>2021-04-12T12:30:13+02:00</time>
				<extensions>
					<swisstopo:routepoint_id>2139536540</swisstopo:routepoint_id>
				</extensions>
			</trkpt>
			<trkpt lat="47.4064199822" lon="7.1529806023">
				<ele>493.0</ele>
				<time>2021-04-12T12:30:14+02:00</time>
				<extensions>
					<swisstopo:routepoint_id>1724442412</swisstopo:routepoint_id>
				</extensions>
			</trkpt>
			<trkpt lat="47.4064350330" lon="7.1531694656">
				<ele>493.1</ele>
				<time>2021-04-12T12:30:15+02:00</time>
				<extensions>
					<swisstopo:routepoint_id>264318572</swisstopo:routepoint_id>
				</extensions>
			</trkpt>
			<trkpt lat="47.4064498006" lon="7.1533563681">
				<ele>493.3</ele>
				<time>2021-04-12T12:30:16+02:00</time>
				<extensions>
					<swisstopo:routepoint_id>1406057608</swisstopo:routepoint_id>
				</extensions>
			</trkpt>
			<trkpt lat="47.4064641349" lon="7.1535407171">
				<ele>493.4</ele>
				<time>2021-04-12T12:30:17+02:00</time>
				<extensions>
					<swisstopo:routepoint_id>700166068</swisstopo:routepoint_id>
				</extensions>
			</trkpt>
			<trkpt lat="47.4064778292" lon="7.1537223721">
				<ele>493.6</ele>
				<time>2021-04-12T12:30:18+02:00</time>
				<extensions>
					<swisstopo:routepoint_id>1628202963</swisstopo:routepoint_id>
				</extensions>
			</trkpt>
			<trkpt lat="47.4064911162" lon="7.1539012209">
				<ele>493.9</ele>
				<time>2021-04-12T12:30:19+02:00</time>
				<extensions>
					<swisstopo:routepoint_id>1970569067</swisstopo:routepoint_id>
				</extensions>
			</trkpt>
			<trkpt lat="47.4065042067" lon="7.1540779615">
				<ele>494.2</ele>
				<time>2021-04-12T12:30:20+02:00</time>
				<extensions>
					<swisstopo:routepoint_id>861505035</swisstopo:routepoint_id>
				</extensions>
			</trkpt>
			<trkpt lat="47.4065171927" lon="7.1542533831">
				<ele>494.5</ele>
				<time>2021-04-12T12:30:21+02:00</time>
				<extensions>
					<swisstopo:routepoint_id>980375171</swisstopo:routepoint_id>
				</extensions>
			</trkpt>
			<trkpt lat="47.4065299679" lon="7.1544284372">
				<ele>494.9</ele>
				<time>2021-04-12T12:30:22+02:00</time>
				<extensions>
					<swisstopo:routepoint_id>1670959213</swisstopo:routepoint_id>
				</extensions>
			</trkpt>
			<trkpt lat="47.4065425595" lon="7.1546031723">
				<ele>495.3</ele>
				<time>2021-04-12T12:30:23+02:00</time>
				<extensions>
					<swisstopo:routepoint_id>1167841072</swisstopo:routepoint_id>
				</extensions>
			</trkpt>
			<trkpt lat="47.4065551434" lon="7.1547780280">
				<ele>495.8</ele>
				<time>2021-04-12T12:30:24+02:00</time>
				<extensions>
					<swisstopo:routepoint_id>2051847171</swisstopo:routepoint_id>
				</extensions>
			</trkpt>
			<trkpt lat="47.4065679170" lon="7.1549529372">
				<ele>496.3</ele>
				<time>2021-04-12T12:30:25+02:00</time>
				<extensions>
					<swisstopo:routepoint_id>1102999471</swisstopo:routepoint_id>
				</extensions>
			</trkpt>
			<trkpt lat="47.4065807644" lon="7.1551275370">
				<ele>496.8</ele>
				<time>2021-04-12T12:30:26+02:00</time>
				<extensions>
					<swisstopo:routepoint_id>1033268193</swisstopo:routepoint_id>
				</extensions>
			</trkpt>
			<trkpt lat="47.4065933380" lon="7.1553010103">
				<ele>497.4</ele>
				<time>2021-04-12T12:30:27+02:00</time>
				<extensions>
					<swisstopo:routepoint_id>1585750109</swisstopo:routepoint_id>
				</extensions>
			</trkpt>
			<trkpt lat="47.4066057192" lon="7.1554729242">
				<ele>497.9</ele>
				<time>2021-04-12T12:30:28+02:00</time>
				<extensions>
					<swisstopo:routepoint_id>1430022693</swisstopo:routepoint_id>
				</extensions>
			</trkpt>
			<trkpt lat="47.4066188982" lon="7.1556424236">
				<ele>498.5</ele>
				<time>2021-04-12T12:30:29+02:00</time>
				<extensions>
					<swisstopo:routepoint_id>1901907674</swisstopo:routepoint_id>
				</extensions>
			</trkpt>
			<trkpt lat="47.4066353522" lon="7.1558076157">
				<ele>499.0</ele>
				<time>2021-04-12T12:30:30+02:00</time>
				<extensions>
					<swisstopo:routepoint_id>68191323</swisstopo:routepoint_id>
				</extensions>
			</trkpt>
			<trkpt lat="47.4066586944" lon="7.1559672311">
				<ele>499.5</ele>
				<time>2021-04-12T12:30:31+02:00</time>
				<extensions>
					<swisstopo:routepoint_id>1482781810</swisstopo:routepoint_id>
				</extensions>
			</trkpt>
			<trkpt lat="47.4066912212" lon="7.1561195496">
				<ele>500.0</ele>
				<time>2021-04-12T12:30:32+02:00</time>
				<extensions>
					<swisstopo:routepoint_id>1713640882</swisstopo:routepoint_id>
				</extensions>
			</trkpt>
			<trkpt lat="47.4067339383" lon="7.1562622305">
				<ele>500.5</ele>
				<time>2021-04-12T12:30:33+02:00</time>
				<extensions>
					<swisstopo:routepoint_id>1259113857</swisstopo:routepoint_id>
				</extensions>
			</trkpt>
			<trkpt lat="47.4067870435" lon="7.1563941620">
				<ele>500.8</ele>
				<time>2021-04-12T12:30:34+02:00</time>
				<extensions>
					<swisstopo:routepoint_id>622737061</swisstopo:routepoint_id>
				</extensions>
			</trkpt>
			<trkpt lat="47.4068499145" lon="7.1565155211">
				<ele>501.1</ele>
				<time>2021-04-12T12:30:35+02:00</time>
				<extensions>
					<swisstopo:routepoint_id>1653972396</swisstopo:routepoint_id>
				</extensions>
			</trkpt>
			<trkpt lat="47.4069207517" lon="7.1566273459">
				<ele>501.4</ele>
				<time>2021-04-12T12:30:36+02:00</time>
				<extensions>
					<swisstopo:routepoint_id>1285732804</swisstopo:routepoint_id>
				</extensions>
			</trkpt>
			<trkpt lat="47.4069978836" lon="7.1567306212">
				<ele>501.7</ele>
				<time>2021-04-12T12:30:37+02:00</time>
				<extensions>
					<swisstopo:routepoint_id>1330780714</swisstopo:routepoint_id>
				</extensions>
			</trkpt>
			<trkpt lat="47.4070798481" lon="7.1568265941">
				<ele>501.9</ele>
				<time>2021-04-12T12:30:38+02:00</time>
				<extensions>
					<swisstopo:routepoint_id>389276693</swisstopo:routepoint_id>
				</extensions>
			</trkpt>
			<trkpt lat="47.4071657029" lon="7.1569167854">
				<ele>502.1</ele>
				<time>2021-04-12T12:30:39+02:00</time>
				<extensions>
					<swisstopo:routepoint_id>1338190489</swisstopo:routepoint_id>
				</extensions>
			</trkpt>
			<trkpt lat="47.4072544060" lon="7.1570017512">
				<ele>502.3</ele>
				<time>2021-04-12T12:30:40+02:00</time>
				<extensions>
					<swisstopo:routepoint_id>371313592</swisstopo:routepoint_id>
				</extensions>
			</trkpt>
			<trkpt lat="47.4073450153" lon="7.1570830805">
				<ele>502.5</ele>
				<time>2021-04-12T12:30:41+02:00</time>
				<extensions>
					<swisstopo:routepoint_id>80062562</swisstopo:routepoint_id>
				</extensions>
			</trkpt>
			<trkpt lat="47.4074364943" lon="7.1571620716">
				<ele>502.7</ele>
				<time>2021-04-12T12:30:42+02:00</time>
				<extensions>
					<swisstopo:routepoint_id>1286716512</swisstopo:routepoint_id>
				</extensions>
			</trkpt>
			<trkpt lat="47.4075279862" lon="7.1572395912">
				<ele>502.8</ele>
				<time>2021-04-12T12:30:43+02:00</time>
				<extensions>
					<swisstopo:routepoint_id>684091894</swisstopo:routepoint_id>
				</extensions>
			</trkpt>
			<trkpt lat="47.4076187649" lon="7.1573162251">
				<ele>502.9</ele>
				<time>2021-04-12T12:30:44+02:00</time>
				<extensions>
					<swisstopo:routepoint_id>2052500067</swisstopo:routepoint_id>
				</extensions>
			</trkpt>
			<trkpt lat="47.4077080857" lon="7.1573925467">
				<ele>503.0</ele>
				<time>2021-04-12T12:30:45+02:00</time>
				<extensions>
					<swisstopo:routepoint_id>1338804308</swisstopo:routepoint_id>
				</extensions>
			</trkpt>
			<trkpt lat="47.4077957749" lon="7.1574687989">
				<ele>503.1</ele>
				<time>2021-04-12T12:30:46+02:00</time>
				<extensions>
					<swisstopo:routepoint_id>2097834937</swisstopo:routepoint_id>
				</extensions>
			</trkpt>
			<trkpt lat="47.4078818977" lon="7.1575452024">
				<ele>503.1</ele>
				<time>2021-04-12T12:30:47+02:00</time>
				<extensions>
					<swisstopo:routepoint_id>925269713</swisstopo:routepoint_id>
				</extensions>
			</trkpt>
			<trkpt lat="47.4079664431" lon="7.1576222196">
				<ele>503.1</ele>
				<time>2021-04-12T12:30:48+02:00</time>
				<extensions>
					<swisstopo:routepoint_id>1078978464</swisstopo:routepoint_id>
				</extensions>
			</trkpt>
			<trkpt lat="47.4080496862" lon="7.1577001966">
				<ele>503.1</ele>
				<time>2021-04-12T12:30:49+02:00</time>
				<extensions>
					<swisstopo:routepoint_id>1039129180</swisstopo:routepoint_id>
				</extensions>
			</trkpt>
			<trkpt lat="47.4081316304" lon="7.1577799369">
				<ele>503.2</ele>
				<time>2021-04-12T12:30:50+02:00</time>
				<extensions>
					<swisstopo:routepoint_id>1307110856</swisstopo:routepoint_id>
				</extensions>
			</trkpt>
			<trkpt lat="47.4082120093" lon="7.1578615802">
				<ele>503.2</ele>
				<time>2021-04-12T12:30:51+02:00</time>
				<extensions>
					<swisstopo:routepoint_id>2001931629</swisstopo:routepoint_id>
				</extensions>
			</trkpt>
			<trkpt lat="47.4082905862" lon="7.1579452814">
				<ele>503.2</ele>
				<time>2021-04-12T12:30:52+02:00</time>
				<extensions>
					<swisstopo:routepoint_id>1838591054</swisstopo:routepoint_id>
				</extensions>
			</trkpt>
			<trkpt lat="47.4083669643" lon="7.1580306861">
				<ele>503.3</ele>
				<time>2021-04-12T12:30:53+02:00</time>
				<extensions>
					<swisstopo:routepoint_id>1057647895</swisstopo:routepoint_id>
				</extensions>
			</trkpt>
			<trkpt lat="47.4084402120" lon="7.1581181844">
				<ele>503.3</ele>
				<time>2021-04-12T12:30:54+02:00</time>
				<extensions>
					<swisstopo:routepoint_id>1166025046</swisstopo:routepoint_id>
				</extensions>
			</trkpt>
			<trkpt lat="47.4085092313" lon="7.1582086728">
				<ele>503.4</ele>
				<time>2021-04-12T12:30:55+02:00</time>
				<extensions>
					<swisstopo:routepoint_id>1594669247</swisstopo:routepoint_id>
				</extensions>
			</trkpt>
			<trkpt lat="47.4085727868" lon="7.1583032104">
				<ele>503.5</ele>
				<time>2021-04-12T12:30:56+02:00</time>
				<extensions>
					<swisstopo:routepoint_id>1010119769</swisstopo:routepoint_id>
				</extensions>
			</trkpt>
			<trkpt lat="47.4086294594" lon="7.1584027871">
				<ele>503.6</ele>
				<time>2021-04-12T12:30:57+02:00</time>
				<extensions>
					<swisstopo:routepoint_id>1224728048</swisstopo:routepoint_id>
				</extensions>
			</trkpt>
			<trkpt lat="47.4086776722" lon="7.1585080165">
				<ele>503.7</ele>
				<time>2021-04-12T12:30:58+02:00</time>
				<extensions>
					<swisstopo:routepoint_id>373546241</swisstopo:routepoint_id>
				</extensions>
			</trkpt>
			<trkpt lat="47.4087161570" lon="7.1586189706">
				<ele>503.8</ele>
				<time>2021-04-12T12:30:59+02:00</time>
				<extensions>
					<swisstopo:routepoint_id>1096972306</swisstopo:routepoint_id>
				</extensions>
			</trkpt>
			<trkpt lat="47.4087439958" lon="7.1587350221">
				<ele>504.0</ele>
				<time>2021-04-12T12:31:00+02:00</time>
				<extensions>
					<swisstopo:routepoint_id>666437447</swisstopo:routepoint_id>
				</extensions>
			</trkpt>
			<trkpt lat="47.4087603811" lon="7.1588544746">
				<ele>504.2</ele>
				<time>2021-04-12T12:31:01+02:00</time>
				<extensions>
					<swisstopo:routepoint_id>1686952624</swisstopo:routepoint_id>
				</extensions>
			</trkpt>
			<trkpt lat="47.4087648339" lon="7.1589765308">
				<ele>504.4</ele>
				<time>2021-04-12T12:31:02+02:00</time>
				<extensions>
					<swisstopo:routepoint_id>1533643874</swisstopo:routepoint_id>
				</extensions>
			</trkpt>
			<trkpt lat="47.4087569479" lon="7.1591005519">
				<ele>504.6</ele>
				<time>2021-04-12T12:31:03+02:00</time>
				<extensions>
					<swisstopo:routepoint_id>1853859024</swisstopo:routepoint_id>
				</extensions>
			</trkpt>
			<trkpt lat="47.4087370035" lon="7.1592255210">
				<ele>504.8</ele>
				<time>2021-04-12T12:31:04+02:00</time>
				<extensions>
					<swisstopo:routepoint_id>2115865692</swisstopo:routepoint_id>
				</extensions>
			</trkpt>
			<trkpt lat="47.4087063839" lon="7.1593513480">
				<ele>505.0</ele>
				<time>2021-04-12T12:31:05+02:00</time>
				<extensions>
					<swisstopo:routepoint_id>1172974771</swisstopo:routepoint_id>
				</extensions>
			</trkpt>
			<trkpt lat="47.4086660388" lon="7.1594772607">
				<ele>505.3</ele>
				<time>2021-04-12T12:31:06+02:00</time>
				<extensions>
					<swisstopo:routepoint_id>287096737</swisstopo:routepoint_id>
				</extensions>
			</trkpt>
			<trkpt lat="47.4086179336" lon="7.1596030821">
				<ele>505.5</ele>
				<time>2021-04-12T12:31:07+02:00</time>
				<extensions>
					<swisstopo:routepoint_id>1986587597</swisstopo:routepoint_id>
				</extensions>
			</trkpt>
			<trkpt lat="47.4085637607" lon="7.1597284567">
				<ele>505.7</ele>
				<time>2021-04-12T12:31:08+02:00</time>
				<extensions>
					<swisstopo:routepoint_id>1649482870</swisstopo:routepoint_id>
				</extensions>
			</trkpt>
			<trkpt lat="47.4085043203" lon="7.1598521401">
				<ele>505.9</ele>
				<time>2021-04-12T12:31:09+02:00</time>
				<extensions>
					<swisstopo:routepoint_id>992196967</swisstopo:routepoint_id>
				</extensions>
			</trkpt>
			<trkpt lat="47.4084402118" lon="7.1599728015">
				<ele>506.1</ele>
				<time>2021-04-12T12:31:10+02:00</time>
				<extensions>
					<swisstopo:routepoint_id>643905414</swisstopo:routepoint_id>
				</extensions>
			</trkpt>
			<trkpt lat="47.4083722299" lon="7.1600900435">
				<ele>506.3</ele>
				<time>2021-04-12T12:31:11+02:00</time>
				<extensions>
					<swisstopo:routepoint_id>948195865</swisstopo:routepoint_id>
				</extensions>
			</trkpt>
			<trkpt lat="47.4083019134" lon="7.1602037964">
				<ele>506.6</ele>
				<time>2021-04-12T12:31:12+02:00</time>
				<extensions>
					<swisstopo:routepoint_id>1999242315</swisstopo:routepoint_id>
				</extensions>
			</trkpt>
			<trkpt lat="47.4082304585" lon="7.1603143652">
				<ele>506.8</ele>
				<time>2021-04-12T12:31:13+02:00</time>
				<extensions>
					<swisstopo:routepoint_id>1736447243</swisstopo:routepoint_id>
				</extensions>
			</trkpt>
			<trkpt lat="47.4081589889" lon="7.1604214660">
				<ele>507.0</ele>
				<time>2021-04-12T12:31:14+02:00</time>
				<extensions>
					<swisstopo:routepoint_id>166050371</swisstopo:routepoint_id>
				</extensions>
			</trkpt>
			<trkpt lat="47.4080873952" lon="7.1605251558">
				<ele>507.3</ele>
				<time>2021-04-12T12:31:15+02:00</time>
				<extensions>
					<swisstopo:routepoint_id>1227327944</swisstopo:routepoint_id>
				</extensions>
			</trkpt>
			<trkpt lat="47.4080157152" lon="7.1606258270">
				<ele>507.6</ele>
				<time>2021-04-12T12:31:16+02:00</time>
				<extensions>
					<swisstopo:routepoint_id>1120325373</swisstopo:routepoint_id>
				</extensions>
			</trkpt>
			<trkpt lat="47.4079440108" lon="7.1607233090">
				<ele>507.9</ele>
				<time>2021-04-12T12:31:17+02:00</time>
				<extensions>
					<swisstopo:routepoint_id>171927115</swisstopo:routepoint_id>
				</extensions>
			</trkpt>
			<trkpt lat="47.4078721720" lon="7.1608171899">
				<ele>508.2</ele>
				<time>2021-04-12T12:31:18+02:00</time>
				<extensions>
					<swisstopo:routepoint_id>1213516590</swisstopo:routepoint_id>
				</extensions>
			</trkpt>
			<trkpt lat="47.4077999631" lon="7.1609071328">
				<ele>508.5</ele>
				<time>2021-04-12T12:31:19+02:00</time>
				<extensions>
					<swisstopo:routepoint_id>921132571</swisstopo:routepoint_id>
				</extensions>
			</trkpt>
			<trkpt lat="47.4077272182" lon="7.1609931702">
				<ele>508.8</ele>
				<time>2021-04-12T12:31:20+02:00</time>
				<extensions>
					<swisstopo:routepoint_id>265509574</swisstopo:routepoint_id>
				</extensions>
			</trkpt>
			<trkpt lat="47.4076528183" lon="7.1610735714">
				<ele>509.1</ele>
				<time>2021-04-12T12:31:21+02:00</time>
				<extensions>
					<swisstopo:routepoint_id>2095875399</swisstopo:routepoint_id>
				</extensions>
			</trkpt>
			<trkpt lat="47.4075764995" lon="7.1611487976">
				<ele>509.4</ele>
				<time>2021-04-12T12:31:22+02:00</time>
				<extensions>
					<swisstopo:routepoint_id>203569252</swisstopo:routepoint_id>
				</extensions>
			</trkpt>
			<trkpt lat="47.4074990048" lon="7.1612210691">
				<ele>509.6</ele>
				<time>2021-04-12T12:31:23+02:00</time>
				<extensions>
					<swisstopo:routepoint_id>446968693</swisstopo:routepoint_id>
				</extensions>
			</trkpt>
			<trkpt lat="47.4074209708" lon="7.1612919565">
				<ele>509.8</ele>
				<time>2021-04-12T12:31:24+02:00</time>
				<extensions>
					<swisstopo:routepoint_id>305026045</swisstopo:routepoint_id>
				</extensions>
			</trkpt>
			<trkpt lat="47.4073435687" lon="7.1613629808">
				<ele>510.1</ele>
				<time>2021-04-12T12:31:25+02:00</time>
				<extensions>
					<swisstopo:routepoint_id>529272926</swisstopo:routepoint_id>
				</extensions>
			</trkpt>
			<trkpt lat="47.4072678011" lon="7.1614351670">
				<ele>510.4</ele>
				<time>2021-04-12T12:31:26+02:00</time>
				<extensions>
					<swisstopo:routepoint_id>612801408</swisstopo:routepoint_id>
				</extensions>
			</trkpt>
			<trkpt lat="47.4071948816" lon="7.1615096247">
				<ele>510.7</ele>
				<time>2021-04-12T12:31:27+02:00</time>
				<extensions>
					<swisstopo:routepoint_id>21693244</swisstopo:routepoint_id>
				</extensions>
			</trkpt>
			<trkpt lat="47.4071264183" lon="7.1615870147">
				<ele>511.0</ele>
				<time>2021-04-12T12:31:28+02:00</time>
				<extensions>
					<swisstopo:routepoint_id>1673615565</swisstopo:routepoint_id>
				</extensions>
			</trkpt>
			<trkpt lat="47.4070626806" lon="7.1616668850">
				<ele>511.3</ele>
				<time>2021-04-12T12:31:29+02:00</time>
				<extensions>
					<swisstopo:routepoint_id>715992549</swisstopo:routepoint_id>
				</extensions>
			</trkpt>
			<trkpt lat="47.4070031020" lon="7.1617484068">
				<ele>511.6</ele>
				<time>2021-04-12T12:31:30+02:00</time>
				<extensions>
					<swisstopo:routepoint_id>1335896902</swisstopo:routepoint_id>
				</extensions>
			</trkpt>
			<trkpt lat="47.4069460189" lon="7.1618304372">
				<ele>511.9</ele>
				<time>2021-04-12T12:31:31+02:00</time>
				<extensions>
					<swisstopo:routepoint_id>477702529</swisstopo:routepoint_id>
				</extensions>
			</trkpt>
			<trkpt lat="47.4068902181" lon="7.1619120169">
				<ele>512.2</ele>
				<time>2021-04-12T12:31:32+02:00</time>
				<extensions>
					<swisstopo:routepoint_id>1452532417</swisstopo:routepoint_id>
				</extensions>
			</trkpt>
			<trkpt lat="47.4068349174" lon="7.1619928674">
				<ele>512.5</ele>
				<time>2021-04-12T12:31:33+02:00</time>
				<extensions>
					<swisstopo:routepoint_id>118233423</swisstopo:routepoint_id>
				</extensions>
			</trkpt>
			<trkpt lat="47.4067794328" lon="7.1620728588">
				<ele>512.8</ele>
				<time>2021-04-12T12:31:34+02:00</time>
				<extensions>
					<swisstopo:routepoint_id>726766886</swisstopo:routepoint_id>
				</extensions>
			</trkpt>
			<trkpt lat="47.4067233770" lon="7.1621522409">
				<ele>513.1</ele>
				<time>2021-04-12T12:31:35+02:00</time>
				<extensions>
					<swisstopo:routepoint_id>2031552513</swisstopo:routepoint_id>
				</extensions>
			</trkpt>
			<trkpt lat="47.4066661808" lon="7.1622313358">
				<ele>513.4</ele>
				<time>2021-04-12T12:31:36+02:00</time>
				<extensions>
					<swisstopo:routepoint_id>1460582338</swisstopo:routepoint_id>
				</extensions>
			</trkpt>
			<trkpt lat="47.4066077887" lon="7.1623105203">
				<ele>513.7</ele>
				<time>2021-04-12T12:31:37+02:00</time>
				<extensions>
					<swisstopo:routepoint_id>121785909</swisstopo:routepoint_id>
				</extensions>
			</trkpt>
			<trkpt lat="47.4065479199" lon="7.1623895074">
				<ele>514.0</ele>
				<time>2021-04-12T12:31:38+02:00</time>
				<extensions>
					<swisstopo:routepoint_id>303856972</swisstopo:routepoint_id>
				</extensions>
			</trkpt>
			<trkpt lat="47.4064863138" lon="7.1624678325">
				<ele>514.3</ele>
				<time>2021-04-12T12:31:39+02:00</time>
				<extensions>
					<swisstopo:routepoint_id>208015838</swisstopo:routepoint_id>
				</extensions>
			</trkpt>
			<trkpt lat="47.4064227651" lon="7.1625452926">
				<ele>514.6</ele>
				<time>2021-04-12T12:31:40+02:00</time>
				<extensions>
					<swisstopo:routepoint_id>18811950</swisstopo:routepoint_id>
				</extensions>
			</trkpt>
			<trkpt lat="47.4063571530" lon="7.1626216892">
				<ele>514.8</ele>
				<time>2021-04-12T12:31:41+02:00</time>
				<extensions>
					<swisstopo:routepoint_id>492347541</swisstopo:routepoint_id>
				</extensions>
			</trkpt>
			<trkpt lat="47.4062892642" lon="7.1626966424">
				<ele>515.1</ele>
				<time>2021-04-12T12:31:42+02:00</time>
				<extensions>
					<swisstopo:routepoint_id>630629696</swisstopo:routepoint_id>
				</extensions>
			</trkpt>
			<trkpt lat="47.4062195178" lon="7.1627701724">
				<ele>515.4</ele>
				<time>2021-04-12T12:31:43+02:00</time>
				<extensions>
					<swisstopo:routepoint_id>1161502727</swisstopo:routepoint_id>
				</extensions>
			</trkpt>
			<trkpt lat="47.4061486335" lon="7.1628433164">
				<ele>515.6</ele>
				<time>2021-04-12T12:31:44+02:00</time>
				<extensions>
					<swisstopo:routepoint_id>749981459</swisstopo:routepoint_id>
				</extensions>
			</trkpt>
			<trkpt lat="47.4060771540" lon="7.1629163296">
				<ele>515.8</ele>
				<time>2021-04-12T12:31:45+02:00</time>
				<extensions>
					<swisstopo:routepoint_id>1356857170</swisstopo:routepoint_id>
				</extensions>
			</trkpt>
			<trkpt lat="47.4060064621" lon="7.1629904182">
				<ele>516.0</ele>
				<time>2021-04-12T12:31:46+02:00</time>
				<extensions>
					<swisstopo:routepoint_id>569608697</swisstopo:routepoint_id>
				</extensions>
			</trkpt>
			<trkpt lat="47.4059388638" lon="7.1630694446">
				<ele>516.3</ele>
				<time>2021-04-12T12:31:47+02:00</time>
				<extensions>
					<swisstopo:routepoint_id>2078755800</swisstopo:routepoint_id>
				</extensions>
			</trkpt>
			<trkpt lat="47.4058768065" lon="7.1631557004">
				<ele>516.6</ele>
				<time>2021-04-12T12:31:48+02:00</time>
				<extensions>
					<swisstopo:routepoint_id>237277557</swisstopo:routepoint_id>
				</extensions>
			</trkpt>
			<trkpt lat="47.4058217122" lon="7.1632501300">
				<ele>517.0</ele>
				<time>2021-04-12T12:31:49+02:00</time>
				<extensions>
					<swisstopo:routepoint_id>46768020</swisstopo:routepoint_id>
				</extensions>
			</trkpt>
			<trkpt lat="47.4057722643" lon="7.1633510368">
				<ele>517.3</ele>
				<time>2021-04-12T12:31:50+02:00</time>
				<extensions>
					<swisstopo:routepoint_id>51097338</swisstopo:routepoint_id>
				</extensions>
			</trkpt>
			<trkpt lat="47.4057252458" lon="7.1634555050">
				<ele>517.6</ele>
				<time>2021-04-12T12:31:51+02:00</time>
				<extensions>
					<swisstopo:routepoint_id>1946984613</swisstopo:routepoint_id>
				</extensions>
			</trkpt>
			<trkpt lat="47.4056785652" lon="7.1635614437">
				<ele>517.9</ele>
				<time>2021-04-12T12:31:52+02:00</time>
				<extensions>
					<swisstopo:routepoint_id>1762061352</swisstopo:routepoint_id>
				</extensions>
			</trkpt>
			<trkpt lat="47.4056322084" lon="7.1636688466">
				<ele>518.1</ele>
				<time>2021-04-12T12:31:53+02:00</time>
				<extensions>
					<swisstopo:routepoint_id>1165650934</swisstopo:routepoint_id>
				</extensions>
			</trkpt>
			<trkpt lat="47.4055885229" lon="7.1637794541">
				<ele>518.4</ele>
				<time>2021-04-12T12:31:54+02:00</time>
				<extensions>
					<swisstopo:routepoint_id>1749419804</swisstopo:routepoint_id>
				</extensions>
			</trkpt>
			<trkpt lat="47.4055499533" lon="7.1638941524">
				<ele>518.6</ele>
				<time>2021-04-12T12:31:55+02:00</time>
				<extensions>
					<swisstopo:routepoint_id>1300034751</swisstopo:routepoint_id>
				</extensions>
			</trkpt>
			<trkpt lat="47.4055182532" lon="7.1640135203">
				<ele>518.7</ele>
				<time>2021-04-12T12:31:56+02:00</time>
				<extensions>
					<swisstopo:routepoint_id>1185435479</swisstopo:routepoint_id>
				</extensions>
			</trkpt>
			<trkpt lat="47.4054959713" lon="7.1641378303">
				<ele>518.9</ele>
				<time>2021-04-12T12:31:57+02:00</time>
				<extensions>
					<swisstopo:routepoint_id>1408302334</swisstopo:routepoint_id>
				</extensions>
			</trkpt>
			<trkpt lat="47.4054843954" lon="7.1642666035">
				<ele>519.1</ele>
				<time>2021-04-12T12:31:58+02:00</time>
				<extensions>
					<swisstopo:routepoint_id>1920053951</swisstopo:routepoint_id>
				</extensions>
			</trkpt>
			<trkpt lat="47.4054831395" lon="7.1643978549">
				<ele>519.3</ele>
				<time>2021-04-12T12:31:59+02:00</time>
				<extensions>
					<swisstopo:routepoint_id>109990988</swisstopo:routepoint_id>
				</extensions>
			</trkpt>
			<trkpt lat="47.4054909051" lon="7.1645309428">
				<ele>519.6</ele>
				<time>2021-04-12T12:32:00+02:00</time>
				<extensions>
					<swisstopo:routepoint_id>1782598896</swisstopo:routepoint_id>
				</extensions>
			</trkpt>
			<trkpt lat="47.4055064448" lon="7.1646644272">
				<ele>519.9</ele>
				<time>2021-04-12T12:32:01+02:00</time>
				<extensions>
					<swisstopo:routepoint_id>595285775</swisstopo:routepoint_id>
				</extensions>
			</trkpt>
			<trkpt lat="47.4055278183" lon="7.1647977900">
				<ele>520.1</ele>
				<time>2021-04-12T12:32:02+02:00</time>
				<extensions>
					<swisstopo:routepoint_id>1989192699</swisstopo:routepoint_id>
				</extensions>
			</trkpt>
			<trkpt lat="47.4055525565" lon="7.1649309058">
				<ele>520.4</ele>
				<time>2021-04-12T12:32:03+02:00</time>
				<extensions>
					<swisstopo:routepoint_id>336275597</swisstopo:routepoint_id>
				</extensions>
			</trkpt>
			<trkpt lat="47.4055775268" lon="7.1650640218">
				<ele>520.7</ele>
				<time>2021-04-12T12:32:04+02:00</time>
				<extensions>
					<swisstopo:routepoint_id>1754483522</swisstopo:routepoint_id>
				</extensions>
			</trkpt>
			<trkpt lat="47.4055999777" lon="7.1651966183">
				<ele>520.9</ele>
				<time>2021-04-12T12:32:05+02:00</time>
				<extensions>
					<swisstopo:routepoint_id>506597297</swisstopo:routepoint_id>
				</extensions>
			</trkpt>
			<trkpt lat="47.4056172774" lon="7.1653280301">
				<ele>521.0</ele>
				<time>2021-04-12T12:32:06+02:00</time>
				<extensions>
					<swisstopo:routepoint_id>1755593971</swisstopo:routepoint_id>
				</extensions>
			</trkpt>
			<trkpt lat="47.4056275048" lon="7.1654571201">
				<ele>521.2</ele>
				<time>2021-04-12T12:32:07+02:00</time>
				<extensions>
					<swisstopo:routepoint_id>1990044464</swisstopo:routepoint_id>
				</extensions>
			</trkpt>
			<trkpt lat="47.4056288222" lon="7.1655832575">
				<ele>521.3</ele>
				<time>2021-04-12T12:32:08+02:00</time>
				<extensions>
					<swisstopo:routepoint_id>1766988070</swisstopo:routepoint_id>
				</extensions>
			</trkpt>
			<trkpt lat="47.4056197771" lon="7.1657057191">
				<ele>521.5</ele>
				<time>2021-04-12T12:32:09+02:00</time>
				<extensions>
					<swisstopo:routepoint_id>217138127</swisstopo:routepoint_id>
				</extensions>
			</trkpt>
			<trkpt lat="47.4055990734" lon="7.1658218774">
				<ele>521.7</ele>
				<time>2021-04-12T12:32:10+02:00</time>
				<extensions>
					<swisstopo:routepoint_id>865784236</swisstopo:routepoint_id>
				</extensions>
			</trkpt>
			<trkpt lat="47.4055659936" lon="7.1659293585">
				<ele>521.9</ele>
				<time>2021-04-12T12:32:11+02:00</time>
				<extensions>
					<swisstopo:routepoint_id>2033946027</swisstopo:routepoint_id>
				</extensions>
			</trkpt>
			<trkpt lat="47.4055203297" lon="7.1660261895">
				<ele>522.1</ele>
				<time>2021-04-12T12:32:12+02:00</time>
				<extensions>
					<swisstopo:routepoint_id>886182843</swisstopo:routepoint_id>
				</extensions>
			</trkpt>
			<trkpt lat="47.4054630039" lon="7.1661127707">
				<ele>522.4</ele>
				<time>2021-04-12T12:32:13+02:00</time>
				<extensions>
					<swisstopo:routepoint_id>1275950356</swisstopo:routepoint_id>
				</extensions>
			</trkpt>
			<trkpt lat="47.4053962239" lon="7.1661904145">
				<ele>522.8</ele>
				<time>2021-04-12T12:32:14+02:00</time>
				<extensions>
					<swisstopo:routepoint_id>125934350</swisstopo:routepoint_id>
				</extensions>
			</trkpt>
			<trkpt lat="47.4053223567" lon="7.1662611092">
				<ele>523.2</ele>
				<time>2021-04-12T12:32:15+02:00</time>
				<extensions>
					<swisstopo:routepoint_id>1307228155</swisstopo:routepoint_id>
				</extensions>
			</trkpt>
			<trkpt lat="47.4052434793" lon="7.1663259736">
				<ele>523.7</ele>
				<time>2021-04-12T12:32:16+02:00</time>
				<extensions>
					<swisstopo:routepoint_id>1825892275</swisstopo:routepoint_id>
				</extensions>
			</trkpt>
			<trkpt lat="47.4051614514" lon="7.1663872057">
				<ele>524.2</ele>
				<time>2021-04-12T12:32:17+02:00</time>
				<extensions>
					<swisstopo:routepoint_id>230150295</swisstopo:routepoint_id>
				</extensions>
			</trkpt>
			<trkpt lat="47.4050778213" lon="7.1664476297">
				<ele>524.8</ele>
				<time>2021-04-12T12:32:18+02:00</time>
				<extensions>
					<swisstopo:routepoint_id>517959818</swisstopo:routepoint_id>
				</extensions>
			</trkpt>
			<trkpt lat="47.4049943597" lon="7.1665099981">
				<ele>525.3</ele>
				<time>2021-04-12T12:32:19+02:00</time>
				<extensions>
					<swisstopo:routepoint_id>1599439835</swisstopo:routepoint_id>
				</extensions>
			</trkpt>
			<trkpt lat="47.4049121599" lon="7.1665766389">
				<ele>525.8</ele>
				<time>2021-04-12T12:32:20+02:00</time>
				<extensions>
					<swisstopo:routepoint_id>1732497346</swisstopo:routepoint_id>
				</extensions>
			</trkpt>
			<trkpt lat="47.4048324023" lon="7.1666493512">
				<ele>526.2</ele>
				<time>2021-04-12T12:32:21+02:00</time>
				<extensions>
					<swisstopo:routepoint_id>352124549</swisstopo:routepoint_id>
				</extensions>
			</trkpt>
			<trkpt lat="47.4047557771" lon="7.1667281591">
				<ele>526.7</ele>
				<time>2021-04-12T12:32:22+02:00</time>
				<extensions>
					<swisstopo:routepoint_id>1839847558</swisstopo:routepoint_id>
				</extensions>
			</trkpt>
			<trkpt lat="47.4046820776" lon="7.1668112928">
				<ele>527.1</ele>
				<time>2021-04-12T12:32:23+02:00</time>
				<extensions>
					<swisstopo:routepoint_id>700874153</swisstopo:routepoint_id>
				</extensions>
			</trkpt>
			<trkpt lat="47.4046103178" lon="7.1668961911">
				<ele>527.4</ele>
				<time>2021-04-12T12:32:24+02:00</time>
				<extensions>
					<swisstopo:routepoint_id>644085676</swisstopo:routepoint_id>
				</extensions>
			</trkpt>
			<trkpt lat="47.4045392984" lon="7.1669801944">
				<ele>527.6</ele>
				<time>2021-04-12T12:32:25+02:00</time>
				<extensions>
					<swisstopo:routepoint_id>1830375652</swisstopo:routepoint_id>
				</extensions>
			</trkpt>
			<trkpt lat="47.4044678142" lon="7.1670602057">
				<ele>527.8</ele>
				<time>2021-04-12T12:32:26+02:00</time>
				<extensions>
					<swisstopo:routepoint_id>420339889</swisstopo:routepoint_id>
				</extensions>
			</trkpt>
			<trkpt lat="47.4043949720" lon="7.1671352757">
				<ele>528.0</ele>
				<time>2021-04-12T12:32:27+02:00</time>
				<extensions>
					<swisstopo:routepoint_id>1578799440</swisstopo:routepoint_id>
				</extensions>
			</trkpt>
			<trkpt lat="47.4043204194" lon="7.1672053369">
				<ele>528.1</ele>
				<time>2021-04-12T12:32:28+02:00</time>
				<extensions>
					<swisstopo:routepoint_id>574245748</swisstopo:routepoint_id>
				</extensions>
			</trkpt>
			<trkpt lat="47.4042444702" lon="7.1672713703">
				<ele>528.2</ele>
				<time>2021-04-12T12:32:29+02:00</time>
				<extensions>
					<swisstopo:routepoint_id>556777018</swisstopo:routepoint_id>
				</extensions>
			</trkpt>
			<trkpt lat="47.4041677630" lon="7.1673352410">
				<ele>528.3</ele>
				<time>2021-04-12T12:32:30+02:00</time>
				<extensions>
					<swisstopo:routepoint_id>1165091547</swisstopo:routepoint_id>
				</extensions>
			</trkpt>
			<trkpt lat="47.4040908374" lon="7.1673991271">
				<ele>528.5</ele>
				<time>2021-04-12T12:32:31+02:00</time>
				<extensions>
					<swisstopo:routepoint_id>937737083</swisstopo:routepoint_id>
				</extensions>
			</trkpt>
			<trkpt lat="47.4040142601" lon="7.1674647932">
				<ele>528.6</ele>
				<time>2021-04-12T12:32:32+02:00</time>
				<extensions>
					<swisstopo:routepoint_id>164668648</swisstopo:routepoint_id>
				</extensions>
			</trkpt>
			<trkpt lat="47.4039389730" lon="7.1675329253">
				<ele>528.8</ele>
				<time>2021-04-12T12:32:33+02:00</time>
				<extensions>
					<swisstopo:routepoint_id>1627029600</swisstopo:routepoint_id>
				</extensions>
			</trkpt>
			<trkpt lat="47.4038646945" lon="7.1676026374">
				<ele>529.0</ele>
				<time>2021-04-12T12:32:34+02:00</time>
				<extensions>
					<swisstopo:routepoint_id>1577209949</swisstopo:routepoint_id>
				</extensions>
			</trkpt>
			<trkpt lat="47.4037906963" lon="7.1676721211">
				<ele>529.2</ele>
				<time>2021-04-12T12:32:35+02:00</time>
				<extensions>
					<swisstopo:routepoint_id>1776957922</swisstopo:routepoint_id>
				</extensions>
			</trkpt>
			<trkpt lat="47.4037164618" lon="7.1677393943">
				<ele>529.5</ele>
				<time>2021-04-12T12:32:36+02:00</time>
				<extensions>
					<swisstopo:routepoint_id>276716225</swisstopo:routepoint_id>
				</extensions>
			</trkpt>
			<trkpt lat="47.4036415355" lon="7.1678032790">
				<ele>529.8</ele>
				<time>2021-04-12T12:32:37+02:00</time>
				<extensions>
					<swisstopo:routepoint_id>1467497820</swisstopo:routepoint_id>
				</extensions>
			</trkpt>
			<trkpt lat="47.4035658154" lon="7.1678629794">
				<ele>530.2</ele>
				<time>2021-04-12T12:32:38+02:00</time>
				<extensions>
					<swisstopo:routepoint_id>386174945</swisstopo:routepoint_id>
				</extensions>
			</trkpt>
			<trkpt lat="47.4034891308" lon="7.1679180421">
				<ele>530.5</ele>
				<time>2021-04-12T12:32:39+02:00</time>
				<extensions>
					<swisstopo:routepoint_id>746719381</swisstopo:routepoint_id>
				</extensions>
			</trkpt>
			<trkpt lat="47.4034114084" lon="7.1679685915">
				<ele>530.9</ele>
				<time>2021-04-12T12:32:40+02:00</time>
				<extensions>
					<swisstopo:routepoint_id>218203399</swisstopo:routepoint_id>
				</extensions>
			</trkpt>
			<trkpt lat="47.4033328293" lon="7.1680153297">
				<ele>531.2</ele>
				<time>2021-04-12T12:32:41+02:00</time>
				<extensions>
					<swisstopo:routepoint_id>1589941564</swisstopo:routepoint_id>
				</extensions>
			</trkpt>
			<trkpt lat="47.4032537535" lon="7.1680599674">
				<ele>531.5</ele>
				<time>2021-04-12T12:32:42+02:00</time>
				<extensions>
					<swisstopo:routepoint_id>1008846527</swisstopo:routepoint_id>
				</extensions>
			</trkpt>
			<trkpt lat="47.4031745730" lon="7.1681040150">
				<ele>531.8</ele>
				<time>2021-04-12T12:32:43+02:00</time>
				<extensions>
					<swisstopo:routepoint_id>1300186224</swisstopo:routepoint_id>
				</extensions>
			</trkpt>
			<trkpt lat="47.4030957816" lon="7.1681486969">
				<ele>532.1</ele>
				<time>2021-04-12T12:32:44+02:00</time>
				<extensions>
					<swisstopo:routepoint_id>1583758543</swisstopo:routepoint_id>
				</extensions>
			</trkpt>
			<trkpt lat="47.4030181017" lon="7.1681954695">
				<ele>532.4</ele>
				<time>2021-04-12T12:32:45+02:00</time>
				<extensions>
					<swisstopo:routepoint_id>170027636</swisstopo:routepoint_id>
				</extensions>
			</trkpt>
			<trkpt lat="47.4029422934" lon="7.1682455027">
				<ele>532.6</ele>
				<time>2021-04-12T12:32:46+02:00</time>
				<extensions>
					<swisstopo:routepoint_id>1501227742</swisstopo:routepoint_id>
				</extensions>
			</trkpt>
			<trkpt lat="47.4028689688" lon="7.1683003720">
				<ele>532.9</ele>
				<time>2021-04-12T12:32:47+02:00</time>
				<extensions>
					<swisstopo:routepoint_id>349291191</swisstopo:routepoint_id>
				</extensions>
			</trkpt>
			<trkpt lat="47.4027979831" lon="7.1683604742">
				<ele>533.1</ele>
				<time>2021-04-12T12:32:48+02:00</time>
				<extensions>
					<swisstopo:routepoint_id>1464239886</swisstopo:routepoint_id>
				</extensions>
			</trkpt>
			<trkpt lat="47.4027290175" lon="7.1684252124">
				<ele>533.4</ele>
				<time>2021-04-12T12:32:49+02:00</time>
				<extensions>
					<swisstopo:routepoint_id>1464653029</swisstopo:routepoint_id>
				</extensions>
			</trkpt>
			<trkpt lat="47.4026616524" lon="7.1684937293">
				<ele>533.6</ele>
				<time>2021-04-12T12:32:50+02:00</time>
				<extensions>
					<swisstopo:routepoint_id>1965896489</swisstopo:routepoint_id>
				</extensions>
			</trkpt>
			<trkpt lat="47.4025947950" lon="7.1685641645">
				<ele>533.9</ele>
				<time>2021-04-12T12:32:51+02:00</time>
				<extensions>
					<swisstopo:routepoint_id>1786381528</swisstopo:routepoint_id>
				</extensions>
			</trkpt>
			<trkpt lat="47.4025274672" lon="7.1686349622">
				<ele>534.3</ele>
				<time>2021-04-12T12:32:52+02:00</time>
				<extensions>
					<swisstopo:routepoint_id>1892956036</swisstopo:routepoint_id>
				</extensions>
			</trkpt>
			<trkpt lat="47.4024595685" lon="7.1687058232">
				<ele>534.6</ele>
				<time>2021-04-12T12:32:53+02:00</time>
				<extensions>
					<swisstopo:routepoint_id>2089350394</swisstopo:routepoint_id>
				</extensions>
			</trkpt>
			<trkpt lat="47.4023911577" lon="7.1687774272">
				<ele>535.0</ele>
				<time>2021-04-12T12:32:54+02:00</time>
				<extensions>
					<swisstopo:routepoint_id>59476214</swisstopo:routepoint_id>
				</extensions>
			</trkpt>
			<trkpt lat="47.4023223260" lon="7.1688492044">
				<ele>535.4</ele>
				<time>2021-04-12T12:32:55+02:00</time>
				<extensions>
					<swisstopo:routepoint_id>1036832843</swisstopo:routepoint_id>
				</extensions>
			</trkpt>
			<trkpt lat="47.4022535143" lon="7.1689210468">
				<ele>535.8</ele>
				<time>2021-04-12T12:32:56+02:00</time>
				<extensions>
					<swisstopo:routepoint_id>1367280543</swisstopo:routepoint_id>
				</extensions>
			</trkpt>
			<trkpt lat="47.4021845372" lon="7.1689912786">
				<ele>536.3</ele>
				<time>2021-04-12T12:32:57+02:00</time>
				<extensions>
					<swisstopo:routepoint_id>1809063301</swisstopo:routepoint_id>
				</extensions>
			</trkpt>
			<trkpt lat="47.4021155639" lon="7.1690598085">
				<ele>536.7</ele>
				<time>2021-04-12T12:32:58+02:00</time>
				<extensions>
					<swisstopo:routepoint_id>853425681</swisstopo:routepoint_id>
				</extensions>
			</trkpt>
			<trkpt lat="47.4020462475" lon="7.1691255988">
				<ele>537.1</ele>
				<time>2021-04-12T12:32:59+02:00</time>
				<extensions>
					<swisstopo:routepoint_id>482142254</swisstopo:routepoint_id>
				</extensions>
			</trkpt>
			<trkpt lat="47.4019763642" lon="7.1691873432">
				<ele>537.6</ele>
				<time>2021-04-12T12:33:00+02:00</time>
				<extensions>
					<swisstopo:routepoint_id>909062847</swisstopo:routepoint_id>
				</extensions>
			</trkpt>
			<trkpt lat="47.4019059554" lon="7.1692451097">
				<ele>538.0</ele>
				<time>2021-04-12T12:33:01+02:00</time>
				<extensions>
					<swisstopo:routepoint_id>1420604771</swisstopo:routepoint_id>
				</extensions>
			</trkpt>
			<trkpt lat="47.4018349451" lon="7.1692993259">
				<ele>538.3</ele>
				<time>2021-04-12T12:33:02+02:00</time>
				<extensions>
					<swisstopo:routepoint_id>381198851</swisstopo:routepoint_id>
				</extensions>
			</trkpt>
			<trkpt lat="47.4017631749" lon="7.1693499531">
				<ele>538.7</ele>
				<time>2021-04-12T12:33:03+02:00</time>
				<extensions>
					<swisstopo:routepoint_id>865369756</swisstopo:routepoint_id>
				</extensions>
			</trkpt>
			<trkpt lat="47.4016906820" lon="7.1693972101">
				<ele>539.1</ele>
				<time>2021-04-12T12:33:04+02:00</time>
				<extensions>
					<swisstopo:routepoint_id>1510231608</swisstopo:routepoint_id>
				</extensions>
			</trkpt>
			<trkpt lat="47.4016176727" lon="7.1694424075">
				<ele>539.4</ele>
				<time>2021-04-12T12:33:05+02:00</time>
				<extensions>
					<swisstopo:routepoint_id>1353411763</swisstopo:routepoint_id>
				</extensions>
			</trkpt>
			<trkpt lat="47.4015442147" lon="7.1694870250">
				<ele>539.6</ele>
				<time>2021-04-12T12:33:06+02:00</time>
				<extensions>
					<swisstopo:routepoint_id>644711717</swisstopo:routepoint_id>
				</extensions>
			</trkpt>
			<trkpt lat="47.4014708356" lon="7.1695319805">
				<ele>539.8</ele>
				<time>2021-04-12T12:33:07+02:00</time>
				<extensions>
					<swisstopo:routepoint_id>1614828504</swisstopo:routepoint_id>
				</extensions>
			</trkpt>
			<trkpt lat="47.4013970740" lon="7.1695772467">
				<ele>540.0</ele>
				<time>2021-04-12T12:33:08+02:00</time>
				<extensions>
					<swisstopo:routepoint_id>524335942</swisstopo:routepoint_id>
				</extensions>
			</trkpt>
			<trkpt lat="47.4013231267" lon="7.1696225210">
				<ele>540.2</ele>
				<time>2021-04-12T12:33:09+02:00</time>
				<extensions>
					<swisstopo:routepoint_id>1388773553</swisstopo:routepoint_id>
				</extensions>
			</trkpt>
			<trkpt lat="47.4012485176" lon="7.1696681809">
				<ele>540.4</ele>
				<time>2021-04-12T12:33:10+02:00</time>
				<extensions>
					<swisstopo:routepoint_id>117346028</swisstopo:routepoint_id>
				</extensions>
			</trkpt>
			<trkpt lat="47.4011734994" lon="7.1697143624">
				<ele>540.6</ele>
				<time>2021-04-12T12:33:11+02:00</time>
				<extensions>
					<swisstopo:routepoint_id>844704650</swisstopo:routepoint_id>
				</extensions>
			</trkpt>
			<trkpt lat="47.4010982696" lon="7.1697613542">
				<ele>540.8</ele>
				<time>2021-04-12T12:33:12+02:00</time>
				<extensions>
					<swisstopo:routepoint_id>2084145880</swisstopo:routepoint_id>
				</extensions>
			</trkpt>
			<trkpt lat="47.4010229244" lon="7.1698094781">
				<ele>541.1</ele>
				<time>2021-04-12T12:33:13+02:00</time>
				<extensions>
					<swisstopo:routepoint_id>634038943</swisstopo:routepoint_id>
				</extensions>
			</trkpt>
			<trkpt lat="47.4009473545" lon="7.1698591103">
				<ele>541.3</ele>
				<time>2021-04-12T12:33:14+02:00</time>
				<extensions>
					<swisstopo:routepoint_id>478658587</swisstopo:routepoint_id>
				</extensions>
			</trkpt>
			<trkpt lat="47.4008713759" lon="7.1699103628">
				<ele>541.5</ele>
				<time>2021-04-12T12:33:15+02:00</time>
				<extensions>
					<swisstopo:routepoint_id>341130047</swisstopo:routepoint_id>
				</extensions>
			</trkpt>
			<trkpt lat="47.4007948993" lon="7.1699634785">
				<ele>541.7</ele>
				<time>2021-04-12T12:33:16+02:00</time>
				<extensions>
					<swisstopo:routepoint_id>1738846086</swisstopo:routepoint_id>
				</extensions>
			</trkpt>
			<trkpt lat="47.4007178158" lon="7.1700183604">
				<ele>541.9</ele>
				<time>2021-04-12T12:33:17+02:00</time>
				<extensions>
					<swisstopo:routepoint_id>1828699026</swisstopo:routepoint_id>
				</extensions>
			</trkpt>
			<trkpt lat="47.4006402834" lon="7.1700742111">
				<ele>542.1</ele>
				<time>2021-04-12T12:33:18+02:00</time>
				<extensions>
					<swisstopo:routepoint_id>158574118</swisstopo:routepoint_id>
				</extensions>
			</trkpt>
			<trkpt lat="47.4005626769" lon="7.1701310630">
				<ele>542.4</ele>
				<time>2021-04-12T12:33:19+02:00</time>
				<extensions>
					<swisstopo:routepoint_id>127995299</swisstopo:routepoint_id>
				</extensions>
			</trkpt>
			<trkpt lat="47.4004850051" lon="7.1701882225">
				<ele>542.7</ele>
				<time>2021-04-12T12:33:20+02:00</time>
				<extensions>
					<swisstopo:routepoint_id>1585859646</swisstopo:routepoint_id>
				</extensions>
			</trkpt>
			<trkpt lat="47.4004072280" lon="7.1702456210">
				<ele>542.9</ele>
				<time>2021-04-12T12:33:21+02:00</time>
				<extensions>
					<swisstopo:routepoint_id>1123527405</swisstopo:routepoint_id>
				</extensions>
			</trkpt>
			<trkpt lat="47.4003292435" lon="7.1703031155">
				<ele>543.3</ele>
				<time>2021-04-12T12:33:22+02:00</time>
				<extensions>
					<swisstopo:routepoint_id>301387764</swisstopo:routepoint_id>
				</extensions>
			</trkpt>
			<trkpt lat="47.4002503445" lon="7.1703598717">
				<ele>543.6</ele>
				<time>2021-04-12T12:33:23+02:00</time>
				<extensions>
					<swisstopo:routepoint_id>1657709922</swisstopo:routepoint_id>
				</extensions>
			</trkpt>
			<trkpt lat="47.4001702531" lon="7.1704155462">
				<ele>544.0</ele>
				<time>2021-04-12T12:33:24+02:00</time>
				<extensions>
					<swisstopo:routepoint_id>1825306523</swisstopo:routepoint_id>
				</extensions>
			</trkpt>
			<trkpt lat="47.4000888011" lon="7.1704704773">
				<ele>544.4</ele>
				<time>2021-04-12T12:33:25+02:00</time>
				<extensions>
					<swisstopo:routepoint_id>1122834666</swisstopo:routepoint_id>
				</extensions>
			</trkpt>
			<trkpt lat="47.4000058065" lon="7.1705251525">
				<ele>544.8</ele>
				<time>2021-04-12T12:33:26+02:00</time>
				<extensions>
					<swisstopo:routepoint_id>1543425273</swisstopo:routepoint_id>
				</extensions>
			</trkpt>
			<trkpt lat="47.3999211691" lon="7.1705809074">
				<ele>545.2</ele>
				<time>2021-04-12T12:33:27+02:00</time>
				<extensions>
					<swisstopo:routepoint_id>893591198</swisstopo:routepoint_id>
				</extensions>
			</trkpt>
			<trkpt lat="47.3998350529" lon="7.1706394210">
				<ele>545.7</ele>
				<time>2021-04-12T12:33:28+02:00</time>
				<extensions>
					<swisstopo:routepoint_id>1234121315</swisstopo:routepoint_id>
				</extensions>
			</trkpt>
			<trkpt lat="47.3997481161" lon="7.1707016119">
				<ele>546.1</ele>
				<time>2021-04-12T12:33:29+02:00</time>
				<extensions>
					<swisstopo:routepoint_id>1479878479</swisstopo:routepoint_id>
				</extensions>
			</trkpt>
			<trkpt lat="47.3996604820" lon="7.1707681460">
				<ele>546.5</ele>
				<time>2021-04-12T12:33:30+02:00</time>
				<extensions>
					<swisstopo:routepoint_id>161996999</swisstopo:routepoint_id>
				</extensions>
			</trkpt>
			<trkpt lat="47.3995727747" lon="7.1708400659">
				<ele>546.9</ele>
				<time>2021-04-12T12:33:31+02:00</time>
				<extensions>
					<swisstopo:routepoint_id>1821781444</swisstopo:routepoint_id>
				</extensions>
			</trkpt>
			<trkpt lat="47.3994861627" lon="7.1709182727">
				<ele>547.3</ele>
				<time>2021-04-12T12:33:32+02:00</time>
				<extensions>
					<swisstopo:routepoint_id>2006374029</swisstopo:routepoint_id>
				</extensions>
			</trkpt>
			<trkpt lat="47.3994016658" lon="7.1710031075">
				<ele>547.7</ele>
				<time>2021-04-12T12:33:33+02:00</time>
				<extensions>
					<swisstopo:routepoint_id>1340080209</swisstopo:routepoint_id>
				</extensions>
			</trkpt>
			<trkpt lat="47.3993202481" lon="7.1710950198">
				<ele>548.1</ele>
				<time>2021-04-12T12:33:34+02:00</time>
				<extensions>
					<swisstopo:routepoint_id>2067066574</swisstopo:routepoint_id>
				</extensions>
			</trkpt>
			<trkpt lat="47.3992426601" lon="7.1711943803">
				<ele>548.6</ele>
				<time>2021-04-12T12:33:35+02:00</time>
				<extensions>
					<swisstopo:routepoint_id>1344951699</swisstopo:routepoint_id>
				</extensions>
			</trkpt>
			<trkpt lat="47.3991695942" lon="7.1713017464">
				<ele>549.1</ele>
				<time>2021-04-12T12:33:36+02:00</time>
				<extensions>
					<swisstopo:routepoint_id>190336771</swisstopo:routepoint_id>
				</extensions>
			</trkpt>
			<trkpt lat="47.3991013767" lon="7.1714180005">
				<ele>549.5</ele>
				<time>2021-04-12T12:33:37+02:00</time>
				<extensions>
					<swisstopo:routepoint_id>1386959814</swisstopo:routepoint_id>
				</extensions>
			</trkpt>
			<trkpt lat="47.3990382980" lon="7.1715431430">
				<ele>550.0</ele>
				<time>2021-04-12T12:33:38+02:00</time>
				<extensions>
					<swisstopo:routepoint_id>1846089360</swisstopo:routepoint_id>
				</extensions>
			</trkpt>
			<trkpt lat="47.3989803609" lon="7.1716778194">
				<ele>550.6</ele>
				<time>2021-04-12T12:33:39+02:00</time>
				<extensions>
					<swisstopo:routepoint_id>380141664</swisstopo:routepoint_id>
				</extensions>
			</trkpt>
			<trkpt lat="47.3989270993" lon="7.1718233012">
				<ele>551.2</ele>
				<time>2021-04-12T12:33:40+02:00</time>
				<extensions>
					<swisstopo:routepoint_id>277097023</swisstopo:routepoint_id>
				</extensions>
			</trkpt>
			<trkpt lat="47.3988778291" lon="7.1719793997">
				<ele>551.8</ele>
				<time>2021-04-12T12:33:41+02:00</time>
				<extensions>
					<swisstopo:routepoint_id>1425118865</swisstopo:routepoint_id>
				</extensions>
			</trkpt>
			<trkpt lat="47.3988323056" lon="7.1721455152">
				<ele>552.6</ele>
				<time>2021-04-12T12:33:42+02:00</time>
				<extensions>
					<swisstopo:routepoint_id>1087649064</swisstopo:routepoint_id>
				</extensions>
			</trkpt>
			<trkpt lat="47.3987905730" lon="7.1723210048">
				<ele>553.3</ele>
				<time>2021-04-12T12:33:43+02:00</time>
				<extensions>
					<swisstopo:routepoint_id>737015384</swisstopo:routepoint_id>
				</extensions>
			</trkpt>
			<trkpt lat="47.3987523871" lon="7.1725057937">
				<ele>554.1</ele>
				<time>2021-04-12T12:33:44+02:00</time>
				<extensions>
					<swisstopo:routepoint_id>331882992</swisstopo:routepoint_id>
				</extensions>
			</trkpt>
			<trkpt lat="47.3987173705" lon="7.1727001186">
				<ele>555.0</ele>
				<time>2021-04-12T12:33:45+02:00</time>
				<extensions>
					<swisstopo:routepoint_id>942415285</swisstopo:routepoint_id>
				</extensions>
			</trkpt>
			<trkpt lat="47.3986854468" lon="7.1729038705">
				<ele>556.0</ele>
				<time>2021-04-12T12:33:46+02:00</time>
				<extensions>
					<swisstopo:routepoint_id>1481798370</swisstopo:routepoint_id>
				</extensions>
			</trkpt>
			<trkpt lat="47.3986569379" lon="7.1731158307">
				<ele>557.0</ele>
				<time>2021-04-12T12:33:47+02:00</time>
				<extensions>
					<swisstopo:routepoint_id>217350331</swisstopo:routepoint_id>
				</extensions>
			</trkpt>
			<trkpt lat="47.3986331761" lon="7.1733343834">
				<ele>558.1</ele>
				<time>2021-04-12T12:33:48+02:00</time>
				<extensions>
					<swisstopo:routepoint_id>137329570</swisstopo:routepoint_id>
				</extensions>
			</trkpt>
			<trkpt lat="47.3986160282" lon="7.1735575926">
				<ele>559.1</ele>
				<time>2021-04-12T12:33:49+02:00</time>
				<extensions>
					<swisstopo:routepoint_id>1700646112</swisstopo:routepoint_id>
				</extensions>
			</trkpt>
			<trkpt lat="47.3986080308" lon="7.1737835160">
				<ele>560.2</ele>
				<time>2021-04-12T12:33:50+02:00</time>
				<extensions>
					<swisstopo:routepoint_id>1899346461</swisstopo:routepoint_id>
				</extensions>
			</trkpt>
			<trkpt lat="47.3986120884" lon="7.1740095155">
				<ele>561.3</ele>
				<time>2021-04-12T12:33:51+02:00</time>
				<extensions>
					<swisstopo:routepoint_id>2119041019</swisstopo:routepoint_id>
				</extensions>
			</trkpt>
			<trkpt lat="47.3986299820" lon="7.1742337166">
				<ele>562.3</ele>
				<time>2021-04-12T12:33:52+02:00</time>
				<extensions>
					<swisstopo:routepoint_id>853604485</swisstopo:routepoint_id>
				</extensions>
			</trkpt>
			<trkpt lat="47.3986609033" lon="7.1744558569">
				<ele>563.2</ele>
				<time>2021-04-12T12:33:53+02:00</time>
				<extensions>
					<swisstopo:routepoint_id>1339817435</swisstopo:routepoint_id>
				</extensions>
			</trkpt>
			<trkpt lat="47.3987023774" lon="7.1746764497">
				<ele>564.2</ele>
				<time>2021-04-12T12:33:54+02:00</time>
				<extensions>
					<swisstopo:routepoint_id>1945591250</swisstopo:routepoint_id>
				</extensions>
			</trkpt>
			<trkpt lat="47.3987510998" lon="7.1748953513">
				<ele>565.2</ele>
				<time>2021-04-12T12:33:55+02:00</time>
				<extensions>
					<swisstopo:routepoint_id>1966129528</swisstopo:routepoint_id>
				</extensions>
			</trkpt>
			<trkpt lat="47.3988035086" lon="7.1751111699">
				<ele>566.3</ele>
				<time>2021-04-12T12:33:56+02:00</time>
				<extensions>
					<swisstopo:routepoint_id>1408100707</swisstopo:routepoint_id>
				</extensions>
			</trkpt>
			<trkpt lat="47.3988549070" lon="7.1753235427">
				<ele>567.4</ele>
				<time>2021-04-12T12:33:57+02:00</time>
				<extensions>
					<swisstopo:routepoint_id>678792609</swisstopo:routepoint_id>
				</extensions>
			</trkpt>
			<trkpt lat="47.3989001268" lon="7.1755326920">
				<ele>568.6</ele>
				<time>2021-04-12T12:33:58+02:00</time>
				<extensions>
					<swisstopo:routepoint_id>1034246599</swisstopo:routepoint_id>
				</extensions>
			</trkpt>
			<trkpt lat="47.3989341272" lon="7.1757386317">
				<ele>569.8</ele>
				<time>2021-04-12T12:33:59+02:00</time>
				<extensions>
					<swisstopo:routepoint_id>849950575</swisstopo:routepoint_id>
				</extensions>
			</trkpt>
			<trkpt lat="47.3989533370" lon="7.1759411840">
				<ele>570.9</ele>
				<time>2021-04-12T12:34:00+02:00</time>
				<extensions>
					<swisstopo:routepoint_id>58094181</swisstopo:routepoint_id>
				</extensions>
			</trkpt>
			<trkpt lat="47.3989564571" lon="7.1761401233">
				<ele>572.0</ele>
				<time>2021-04-12T12:34:01+02:00</time>
				<extensions>
					<swisstopo:routepoint_id>1431324329</swisstopo:routepoint_id>
				</extensions>
			</trkpt>
			<trkpt lat="47.3989441493" lon="7.1763349161">
				<ele>572.9</ele>
				<time>2021-04-12T12:34:02+02:00</time>
				<extensions>
					<swisstopo:routepoint_id>156183809</swisstopo:routepoint_id>
				</extensions>
			</trkpt>
			<trkpt lat="47.3989202320" lon="7.1765236013">
				<ele>573.6</ele>
				<time>2021-04-12T12:34:03+02:00</time>
				<extensions>
					<swisstopo:routepoint_id>756261229</swisstopo:routepoint_id>
				</extensions>
			</trkpt>
			<trkpt lat="47.3988881723" lon="7.1767029980">
				<ele>574.3</ele>
				<time>2021-04-12T12:34:04+02:00</time>
				<extensions>
					<swisstopo:routepoint_id>1674252857</swisstopo:routepoint_id>
				</extensions>
			</trkpt>
			<trkpt lat="47.3988503564" lon="7.1768716585">
				<ele>574.9</ele>
				<time>2021-04-12T12:34:05+02:00</time>
				<extensions>
					<swisstopo:routepoint_id>689540958</swisstopo:routepoint_id>
				</extensions>
			</trkpt>
			<trkpt lat="47.3988091934" lon="7.1770300037">
				<ele>575.4</ele>
				<time>2021-04-12T12:34:06+02:00</time>
				<extensions>
					<swisstopo:routepoint_id>1293121894</swisstopo:routepoint_id>
				</extensions>
			</trkpt>
			<trkpt lat="47.3987674231" lon="7.1771804430">
				<ele>575.9</ele>
				<time>2021-04-12T12:34:07+02:00</time>
				<extensions>
					<swisstopo:routepoint_id>965164818</swisstopo:routepoint_id>
				</extensions>
			</trkpt>
			<trkpt lat="47.3987278743" lon="7.1773268598">
				<ele>576.3</ele>
				<time>2021-04-12T12:34:08+02:00</time>
				<extensions>
					<swisstopo:routepoint_id>1581110335</swisstopo:routepoint_id>
				</extensions>
			</trkpt>
			<trkpt lat="47.3986928090" lon="7.1774727716">
				<ele>576.5</ele>
				<time>2021-04-12T12:34:09+02:00</time>
				<extensions>
					<swisstopo:routepoint_id>758752367</swisstopo:routepoint_id>
				</extensions>
			</trkpt>
			<trkpt lat="47.3986634272" lon="7.1776215097">
				<ele>576.6</ele>
				<time>2021-04-12T12:34:10+02:00</time>
				<extensions>
					<swisstopo:routepoint_id>593136283</swisstopo:routepoint_id>
				</extensions>
			</trkpt>
			<trkpt lat="47.3986401509" lon="7.1777755838">
				<ele>576.6</ele>
				<time>2021-04-12T12:34:11+02:00</time>
				<extensions>
					<swisstopo:routepoint_id>222419007</swisstopo:routepoint_id>
				</extensions>
			</trkpt>
			<trkpt lat="47.3986232548" lon="7.1779356974">
				<ele>576.6</ele>
				<time>2021-04-12T12:34:12+02:00</time>
				<extensions>
					<swisstopo:routepoint_id>1574704869</swisstopo:routepoint_id>
				</extensions>
			</trkpt>
			<trkpt lat="47.3986128684" lon="7.1781020638">
				<ele>576.7</ele>
				<time>2021-04-12T12:34:13+02:00</time>
				<extensions>
					<swisstopo:routepoint_id>476267655</swisstopo:routepoint_id>
				</extensions>
			</trkpt>
			<trkpt lat="47.3986086506" lon="7.1782749927">
				<ele>576.9</ele>
				<time>2021-04-12T12:34:14+02:00</time>
				<extensions>
					<swisstopo:routepoint_id>958925216</swisstopo:routepoint_id>
				</extensions>
			</trkpt>
			<trkpt lat="47.3986100106" lon="7.1784548697">
				<ele>577.3</ele>
				<time>2021-04-12T12:34:15+02:00</time>
				<extensions>
					<swisstopo:routepoint_id>1938818224</swisstopo:routepoint_id>
				</extensions>
			</trkpt>
			<trkpt lat="47.3986157381" lon="7.1786413541">
				<ele>577.8</ele>
				<time>2021-04-12T12:34:16+02:00</time>
				<extensions>
					<swisstopo:routepoint_id>1948514837</swisstopo:routepoint_id>
				</extensions>
			</trkpt>
			<trkpt lat="47.3986247225" lon="7.1788344214">
				<ele>578.4</ele>
				<time>2021-04-12T12:34:17+02:00</time>
				<extensions>
					<swisstopo:routepoint_id>1710732356</swisstopo:routepoint_id>
				</extensions>
			</trkpt>
			<trkpt lat="47.3986364241" lon="7.1790343128">
				<ele>579.1</ele>
				<time>2021-04-12T12:34:18+02:00</time>
				<extensions>
					<swisstopo:routepoint_id>1767641256</swisstopo:routepoint_id>
				</extensions>
			</trkpt>
			<trkpt lat="47.3986501433" lon="7.1792400315">
				<ele>580.1</ele>
				<time>2021-04-12T12:34:19+02:00</time>
				<extensions>
					<swisstopo:routepoint_id>457816994</swisstopo:routepoint_id>
				</extensions>
			</trkpt>
			<trkpt lat="47.3986650740" lon="7.1794509346">
				<ele>581.3</ele>
				<time>2021-04-12T12:34:20+02:00</time>
				<extensions>
					<swisstopo:routepoint_id>96310957</swisstopo:routepoint_id>
				</extensions>
			</trkpt>
			<trkpt lat="47.3986806599" lon="7.1796641228">
				<ele>582.7</ele>
				<time>2021-04-12T12:34:21+02:00</time>
				<extensions>
					<swisstopo:routepoint_id>1643068108</swisstopo:routepoint_id>
				</extensions>
			</trkpt>
			<trkpt lat="47.3986967549" lon="7.1798780038">
				<ele>584.1</ele>
				<time>2021-04-12T12:34:22+02:00</time>
				<extensions>
					<swisstopo:routepoint_id>553474383</swisstopo:routepoint_id>
				</extensions>
			</trkpt>
			<trkpt lat="47.3987137608" lon="7.1800909482">
				<ele>585.6</ele>
				<time>2021-04-12T12:34:23+02:00</time>
				<extensions>
					<swisstopo:routepoint_id>1492279924</swisstopo:routepoint_id>
				</extensions>
			</trkpt>
			<trkpt lat="47.3987320432" lon="7.1803025041">
				<ele>587.0</ele>
				<time>2021-04-12T12:34:24+02:00</time>
				<extensions>
					<swisstopo:routepoint_id>287169355</swisstopo:routepoint_id>
				</extensions>
			</trkpt>
			<trkpt lat="47.3987522058" lon="7.1805124822">
				<ele>588.4</ele>
				<time>2021-04-12T12:34:25+02:00</time>
				<extensions>
					<swisstopo:routepoint_id>1059594676</swisstopo:routepoint_id>
				</extensions>
			</trkpt>
			<trkpt lat="47.3987744384" lon="7.1807204454">
				<ele>589.6</ele>
				<time>2021-04-12T12:34:26+02:00</time>
				<extensions>
					<swisstopo:routepoint_id>1673318608</swisstopo:routepoint_id>
				</extensions>
			</trkpt>
			<trkpt lat="47.3987992111" lon="7.1809263929">
				<ele>590.8</ele>
				<time>2021-04-12T12:34:27+02:00</time>
				<extensions>
					<swisstopo:routepoint_id>20003544</swisstopo:routepoint_id>
				</extensions>
			</trkpt>
			<trkpt lat="47.3988267236" lon="7.1811305891">
				<ele>591.9</ele>
				<time>2021-04-12T12:34:28+02:00</time>
				<extensions>
					<swisstopo:routepoint_id>1192115076</swisstopo:routepoint_id>
				</extensions>
			</trkpt>
			<trkpt lat="47.3988568192" lon="7.1813324206">
				<ele>593.0</ele>
				<time>2021-04-12T12:34:29+02:00</time>
				<extensions>
					<swisstopo:routepoint_id>2003139469</swisstopo:routepoint_id>
				</extensions>
			</trkpt>
			<trkpt lat="47.3988896777" lon="7.1815315361">
				<ele>594.2</ele>
				<time>2021-04-12T12:34:30+02:00</time>
				<extensions>
					<swisstopo:routepoint_id>663921464</swisstopo:routepoint_id>
				</extensions>
			</trkpt>
			<trkpt lat="47.3989248958" lon="7.1817271130">
				<ele>595.4</ele>
				<time>2021-04-12T12:34:31+02:00</time>
				<extensions>
					<swisstopo:routepoint_id>203015636</swisstopo:routepoint_id>
				</extensions>
			</trkpt>
			<trkpt lat="47.3989613403" lon="7.1819183103">
				<ele>596.7</ele>
				<time>2021-04-12T12:34:32+02:00</time>
				<extensions>
					<swisstopo:routepoint_id>1879762816</swisstopo:routepoint_id>
				</extensions>
			</trkpt>
			<trkpt lat="47.3989982620" lon="7.1821036245">
				<ele>597.9</ele>
				<time>2021-04-12T12:34:33+02:00</time>
				<extensions>
					<swisstopo:routepoint_id>1541717495</swisstopo:routepoint_id>
				</extensions>
			</trkpt>
			<trkpt lat="47.3990348131" lon="7.1822808375">
				<ele>599.0</ele>
				<time>2021-04-12T12:34:34+02:00</time>
				<extensions>
					<swisstopo:routepoint_id>108253763</swisstopo:routepoint_id>
				</extensions>
			</trkpt>
			<trkpt lat="47.3990700072" lon="7.1824491147">
				<ele>599.9</ele>
				<time>2021-04-12T12:34:35+02:00</time>
				<extensions>
					<swisstopo:routepoint_id>502345732</swisstopo:routepoint_id>
				</extensions>
			</trkpt>
			<trkpt lat="47.3991027608" lon="7.1826087957">
				<ele>600.6</ele>
				<time>2021-04-12T12:34:36+02:00</time>
				<extensions>
					<swisstopo:routepoint_id>1166501367</swisstopo:routepoint_id>
				</extensions>
			</trkpt>
			<trkpt lat="47.3991313186" lon="7.1827588200">
				<ele>601.2</ele>
				<time>2021-04-12T12:34:37+02:00</time>
				<extensions>
					<swisstopo:routepoint_id>1010261706</swisstopo:routepoint_id>
				</extensions>
			</trkpt>
			<trkpt lat="47.3991543774" lon="7.1828986634">
				<ele>601.7</ele>
				<time>2021-04-12T12:34:38+02:00</time>
				<extensions>
					<swisstopo:routepoint_id>1462779560</swisstopo:routepoint_id>
				</extensions>
			</trkpt>
			<trkpt lat="47.3991714978" lon="7.1830286387">
				<ele>602.0</ele>
				<time>2021-04-12T12:34:39+02:00</time>
				<extensions>
					<swisstopo:routepoint_id>543274064</swisstopo:routepoint_id>
				</extensions>
			</trkpt>
			<trkpt lat="47.3991824539" lon="7.1831507176">
				<ele>602.2</ele>
				<time>2021-04-12T12:34:40+02:00</time>
				<extensions>
					<swisstopo:routepoint_id>1854210251</swisstopo:routepoint_id>
				</extensions>
			</trkpt>
			<trkpt lat="47.3991882432" lon="7.1832672677">
				<ele>602.4</ele>
				<time>2021-04-12T12:34:41+02:00</time>
				<extensions>
					<swisstopo:routepoint_id>1576486940</swisstopo:routepoint_id>
				</extensions>
			</trkpt>
			<trkpt lat="47.3991897631" lon="7.1833804228">
				<ele>602.5</ele>
				<time>2021-04-12T12:34:42+02:00</time>
				<extensions>
					<swisstopo:routepoint_id>362763894</swisstopo:routepoint_id>
				</extensions>
			</trkpt>
			<trkpt lat="47.3991883304" lon="7.1834917223">
				<ele>602.7</ele>
				<time>2021-04-12T12:34:43+02:00</time>
				<extensions>
					<swisstopo:routepoint_id>266692625</swisstopo:routepoint_id>
				</extensions>
			</trkpt>
			<trkpt lat="47.3991850400" lon="7.1836030066">
				<ele>602.9</ele>
				<time>2021-04-12T12:34:44+02:00</time>
				<extensions>
					<swisstopo:routepoint_id>504577086</swisstopo:routepoint_id>
				</extensions>
			</trkpt>
			<trkpt lat="47.3991810097" lon="7.1837161390">
				<ele>603.2</ele>
				<time>2021-04-12T12:34:45+02:00</time>
				<extensions>
					<swisstopo:routepoint_id>14162399</swisstopo:routepoint_id>
				</extensions>
			</trkpt>
			<trkpt lat="47.3991770432" lon="7.1838323670">
				<ele>603.5</ele>
				<time>2021-04-12T12:34:46+02:00</time>
				<extensions>
					<swisstopo:routepoint_id>1804238823</swisstopo:routepoint_id>
				</extensions>
			</trkpt>
			<trkpt lat="47.3991742253" lon="7.1839524047">
				<ele>603.8</ele>
				<time>2021-04-12T12:34:47+02:00</time>
				<extensions>
					<swisstopo:routepoint_id>1372802521</swisstopo:routepoint_id>
				</extensions>
			</trkpt>
			<trkpt lat="47.3991727722" lon="7.1840767688">
				<ele>604.2</ele>
				<time>2021-04-12T12:34:48+02:00</time>
				<extensions>
					<swisstopo:routepoint_id>127667079</swisstopo:routepoint_id>
				</extensions>
			</trkpt>
			<trkpt lat="47.3991729242" lon="7.1842048687">
				<ele>604.7</ele>
				<time>2021-04-12T12:34:49+02:00</time>
				<extensions>
					<swisstopo:routepoint_id>364433400</swisstopo:routepoint_id>
				</extensions>
			</trkpt>
			<trkpt lat="47.3991744924" lon="7.1843364652">
				<ele>605.2</ele>
				<time>2021-04-12T12:34:50+02:00</time>
				<extensions>
					<swisstopo:routepoint_id>408792556</swisstopo:routepoint_id>
				</extensions>
			</trkpt>
			<trkpt lat="47.3991772484" lon="7.1844705659">
				<ele>605.8</ele>
				<time>2021-04-12T12:34:51+02:00</time>
				<extensions>
					<swisstopo:routepoint_id>776301939</swisstopo:routepoint_id>
				</extensions>
			</trkpt>
			<trkpt lat="47.3991809201" lon="7.1846053807">
				<ele>606.5</ele>
				<time>2021-04-12T12:34:52+02:00</time>
				<extensions>
					<swisstopo:routepoint_id>1343533248</swisstopo:routepoint_id>
				</extensions>
			</trkpt>
			<trkpt lat="47.3991850231" lon="7.1847389872">
				<ele>607.2</ele>
				<time>2021-04-12T12:34:53+02:00</time>
				<extensions>
					<swisstopo:routepoint_id>2120234578</swisstopo:routepoint_id>
				</extensions>
			</trkpt>
			<trkpt lat="47.3991897738" lon="7.1848706497">
				<ele>607.9</ele>
				<time>2021-04-12T12:34:54+02:00</time>
				<extensions>
					<swisstopo:routepoint_id>1586397775</swisstopo:routepoint_id>
				</extensions>
			</trkpt>
			<trkpt lat="47.3991957028" lon="7.1849999200">
				<ele>608.6</ele>
				<time>2021-04-12T12:34:55+02:00</time>
				<extensions>
					<swisstopo:routepoint_id>1577926920</swisstopo:routepoint_id>
				</extensions>
			</trkpt>
			<trkpt lat="47.3992028910" lon="7.1851256036">
				<ele>609.2</ele>
				<time>2021-04-12T12:34:56+02:00</time>
				<extensions>
					<swisstopo:routepoint_id>942187637</swisstopo:routepoint_id>
				</extensions>
			</trkpt>
			<trkpt lat="47.3992108963" lon="7.1852458029">
				<ele>609.8</ele>
				<time>2021-04-12T12:34:57+02:00</time>
				<extensions>
					<swisstopo:routepoint_id>1950685728</swisstopo:routepoint_id>
				</extensions>
			</trkpt>
			<trkpt lat="47.3992192707" lon="7.1853599029">
				<ele>610.4</ele>
				<time>2021-04-12T12:34:58+02:00</time>
				<extensions>
					<swisstopo:routepoint_id>1689675394</swisstopo:routepoint_id>
				</extensions>
			</trkpt>
			<trkpt lat="47.3992277593" lon="7.1854664645">
				<ele>611.1</ele>
				<time>2021-04-12T12:34:59+02:00</time>
				<extensions>
					<swisstopo:routepoint_id>50599030</swisstopo:routepoint_id>
				</extensions>
			</trkpt>
			<trkpt lat="47.3992363646" lon="7.1855640293">
				<ele>611.7</ele>
				<time>2021-04-12T12:35:00+02:00</time>
				<extensions>
					<swisstopo:routepoint_id>14372998</swisstopo:routepoint_id>
				</extensions>
			</trkpt>
			<trkpt lat="47.3992457849" lon="7.1856519868">
				<ele>612.3</ele>
				<time>2021-04-12T12:35:01+02:00</time>
				<extensions>
					<swisstopo:routepoint_id>1048808922</swisstopo:routepoint_id>
				</extensions>
			</trkpt>
			<trkpt lat="47.3992560118" lon="7.1857308141">
				<ele>612.8</ele>
				<time>2021-04-12T12:35:02+02:00</time>
				<extensions>
					<swisstopo:routepoint_id>785777478</swisstopo:routepoint_id>
				</extensions>
			</trkpt>
			<trkpt lat="47.3992659604" lon="7.1857998635">
				<ele>613.3</ele>
				<time>2021-04-12T12:35:03+02:00</time>
				<extensions>
					<swisstopo:routepoint_id>1685127343</swisstopo:routepoint_id>
				</extensions>
			</trkpt>
			<trkpt lat="47.3992747644" lon="7.1858585178">
				<ele>613.7</ele>
				<time>2021-04-12T12:35:04+02:00</time>
				<extensions>
					<swisstopo:routepoint_id>920917165</swisstopo:routepoint_id>
				</extensions>
			</trkpt>
			<trkpt lat="47.3992821362" lon="7.1859047750">
				<ele>614.1</ele>
				<time>2021-04-12T12:35:05+02:00</time>
				<extensions>
					<swisstopo:routepoint_id>940148226</swisstopo:routepoint_id>
				</extensions>
			</trkpt>
			<trkpt lat="47.3992881774" lon="7.1859377228">
				<ele>614.3</ele>
				<time>2021-04-12T12:35:06+02:00</time>
				<extensions>
					<swisstopo:routepoint_id>2034043403</swisstopo:routepoint_id>
				</extensions>
			</trkpt>
			<trkpt lat="47.3992930825" lon="7.1859575207">
				<ele>614.5</ele>
				<time>2021-04-12T12:35:07+02:00</time>
				<extensions>
					<swisstopo:routepoint_id>375297628</swisstopo:routepoint_id>
				</extensions>
			</trkpt>
			<trkpt lat="47.3992968099" lon="7.1859663089">
				<ele>614.6</ele>
				<time>2021-04-12T12:35:08+02:00</time>
				<extensions>
					<swisstopo:routepoint_id>467762557</swisstopo:routepoint_id>
				</extensions>
			</trkpt>
			<trkpt lat="47.3992996922" lon="7.1859668335">
				<ele>614.6</ele>
				<time>2021-04-12T12:35:09+02:00</time>
				<extensions>
					<swisstopo:routepoint_id>1895147479</swisstopo:routepoint_id>
				</extensions>
			</trkpt>
			<trkpt lat="47.3993017136" lon="7.1859614553">
				<ele>614.6</ele>
				<time>2021-04-12T12:35:10+02:00</time>
				<extensions>
					<swisstopo:routepoint_id>266227249</swisstopo:routepoint_id>
				</extensions>
			</trkpt>
			<trkpt lat="47.3993023637" lon="7.1859509394">
				<ele>614.5</ele>
				<time>2021-04-12T12:35:11+02:00</time>
				<extensions>
					<swisstopo:routepoint_id>1272937242</swisstopo:routepoint_id>
				</extensions>
			</trkpt>
			<trkpt lat="47.3993018088" lon="7.1859367839">
				<ele>614.4</ele>
				<time>2021-04-12T12:35:12+02:00</time>
				<extensions>
					<swisstopo:routepoint_id>1024134880</swisstopo:routepoint_id>
				</extensions>
			</trkpt>
			<trkpt lat="47.3993006202" lon="7.1859216655">
				<ele>614.3</ele>
				<time>2021-04-12T12:35:13+02:00</time>
				<extensions>
					<swisstopo:routepoint_id>553497455</swisstopo:routepoint_id>
				</extensions>
			</trkpt>
			<trkpt lat="47.3992989360" lon="7.1859064230">
				<ele>614.2</ele>
				<time>2021-04-12T12:35:14+02:00</time>
				<extensions>
					<swisstopo:routepoint_id>1880051028</swisstopo:routepoint_id>
				</extensions>
			</trkpt>
			<trkpt lat="47.3992971047" lon="7.1858915952">
				<ele>614.1</ele>
				<time>2021-04-12T12:35:15+02:00</time>
				<extensions>
					<swisstopo:routepoint_id>2090729285</swisstopo:routepoint_id>
				</extensions>
			</trkpt>
			<trkpt lat="47.3992952916" lon="7.1858777658">
				<ele>613.9</ele>
				<time>2021-04-12T12:35:16+02:00</time>
				<extensions>
					<swisstopo:routepoint_id>1759660781</swisstopo:routepoint_id>
				</extensions>
			</trkpt>
			<trkpt lat="47.3992936131" lon="7.1858655443">
				<ele>613.8</ele>
				<time>2021-04-12T12:35:17+02:00</time>
				<extensions>
					<swisstopo:routepoint_id>1621443430</swisstopo:routepoint_id>
				</extensions>
			</trkpt>
			<trkpt lat="47.3992922868" lon="7.1858573888">
				<ele>613.8</ele>
				<time>2021-04-12T12:35:18+02:00</time>
				<extensions>
					<swisstopo:routepoint_id>32247580</swisstopo:routepoint_id>
				</extensions>
			</trkpt>
			<trkpt lat="47.3992915997" lon="7.1858572811">
				<ele>613.8</ele>
				<time>2021-04-12T12:35:19+02:00</time>
				<extensions>
					<swisstopo:routepoint_id>819198016</swisstopo:routepoint_id>
				</extensions>
			</trkpt>
			<trkpt lat="47.3992916421" lon="7.1858689610">
				<ele>613.9</ele>
				<time>2021-04-12T12:35:20+02:00</time>
				<extensions>
					<swisstopo:routepoint_id>743393995</swisstopo:routepoint_id>
				</extensions>
			</trkpt>
			<trkpt lat="47.3992917735" lon="7.1858948674">
				<ele>614.1</ele>
				<time>2021-04-12T12:35:21+02:00</time>
				<extensions>
					<swisstopo:routepoint_id>163015719</swisstopo:routepoint_id>
				</extensions>
			</trkpt>
			<trkpt lat="47.3992911719" lon="7.1859356468">
				<ele>614.4</ele>
				<time>2021-04-12T12:35:22+02:00</time>
				<extensions>
					<swisstopo:routepoint_id>1763539308</swisstopo:routepoint_id>
				</extensions>
			</trkpt>
			<trkpt lat="47.3992886485" lon="7.1859900705">
				<ele>614.8</ele>
				<time>2021-04-12T12:35:23+02:00</time>
				<extensions>
					<swisstopo:routepoint_id>235853662</swisstopo:routepoint_id>
				</extensions>
			</trkpt>
			<trkpt lat="47.3992840380" lon="7.1860564224">
				<ele>615.2</ele>
				<time>2021-04-12T12:35:24+02:00</time>
				<extensions>
					<swisstopo:routepoint_id>1885168519</swisstopo:routepoint_id>
				</extensions>
			</trkpt>
			<trkpt lat="47.3992787478" lon="7.1861328646">
				<ele>615.7</ele>
				<time>2021-04-12T12:35:25+02:00</time>
				<extensions>
					<swisstopo:routepoint_id>53570995</swisstopo:routepoint_id>
				</extensions>
			</trkpt>
			<trkpt lat="47.3992745444" lon="7.1862177136">
				<ele>616.3</ele>
				<time>2021-04-12T12:35:26+02:00</time>
				<extensions>
					<swisstopo:routepoint_id>572064872</swisstopo:routepoint_id>
				</extensions>
			</trkpt>
			<trkpt lat="47.3992724292" lon="7.1863093780">
				<ele>616.9</ele>
				<time>2021-04-12T12:35:27+02:00</time>
				<extensions>
					<swisstopo:routepoint_id>410016085</swisstopo:routepoint_id>
				</extensions>
			</trkpt>
			<trkpt lat="47.3992711971" lon="7.1864050127">
				<ele>617.5</ele>
				<time>2021-04-12T12:35:28+02:00</time>
				<extensions>
					<swisstopo:routepoint_id>2012801019</swisstopo:routepoint_id>
				</extensions>
			</trkpt>
			<trkpt lat="47.3992684988" lon="7.1865009711">
				<ele>618.0</ele>
				<time>2021-04-12T12:35:29+02:00</time>
				<extensions>
					<swisstopo:routepoint_id>1984318789</swisstopo:routepoint_id>
				</extensions>
			</trkpt>
			<trkpt lat="47.3992622094" lon="7.1865925641">
				<ele>618.6</ele>
				<time>2021-04-12T12:35:30+02:00</time>
				<extensions>
					<swisstopo:routepoint_id>24848813</swisstopo:routepoint_id>
				</extensions>
			</trkpt>
			<trkpt lat="47.3992526893" lon="7.1866766151">
				<ele>619.1</ele>
				<time>2021-04-12T12:35:31+02:00</time>
				<extensions>
					<swisstopo:routepoint_id>1022172573</swisstopo:routepoint_id>
				</extensions>
			</trkpt>
			<trkpt lat="47.3992428100" lon="7.1867526081">
				<ele>619.5</ele>
				<time>2021-04-12T12:35:32+02:00</time>
				<extensions>
					<swisstopo:routepoint_id>1932742058</swisstopo:routepoint_id>
				</extensions>
			</trkpt>
			<trkpt lat="47.3992364577" lon="7.1868201214">
				<ele>619.9</ele>
				<time>2021-04-12T12:35:33+02:00</time>
				<extensions>
					<swisstopo:routepoint_id>758124284</swisstopo:routepoint_id>
				</extensions>
			</trkpt>
			<trkpt lat="47.3992369791" lon="7.1868753548">
				<ele>620.1</ele>
				<time>2021-04-12T12:35:34+02:00</time>
				<extensions>
					<swisstopo:routepoint_id>774363537</swisstopo:routepoint_id>
				</extensions>
			</trkpt>
			<trkpt lat="47.3992455548" lon="7.1869145060">
				<ele>620.2</ele>
				<time>2021-04-12T12:35:35+02:00</time>
				<extensions>
					<swisstopo:routepoint_id>977065539</swisstopo:routepoint_id>
				</extensions>
			</trkpt>
			<trkpt lat="47.3992603502" lon="7.1869312399">
				<ele>620.1</ele>
				<time>2021-04-12T12:35:36+02:00</time>
				<extensions>
					<swisstopo:routepoint_id>1880549011</swisstopo:routepoint_id>
				</extensions>
			</trkpt>
			<trkpt lat="47.3992770305" lon="7.1869238403">
				<ele>619.9</ele>
				<time>2021-04-12T12:35:37+02:00</time>
				<extensions>
					<swisstopo:routepoint_id>1870394978</swisstopo:routepoint_id>
				</extensions>
			</trkpt>
			<trkpt lat="47.3992926508" lon="7.1868927981">
				<ele>619.6</ele>
				<time>2021-04-12T12:35:38+02:00</time>
				<extensions>
					<swisstopo:routepoint_id>862770460</swisstopo:routepoint_id>
				</extensions>
			</trkpt>
			<trkpt lat="47.3993056688" lon="7.1868407964">
				<ele>619.2</ele>
				<time>2021-04-12T12:35:39+02:00</time>
				<extensions>
					<swisstopo:routepoint_id>773536676</swisstopo:routepoint_id>
				</extensions>
			</trkpt>
			<trkpt lat="47.3993152459" lon="7.1867703955">
				<ele>618.6</ele>
				<time>2021-04-12T12:35:40+02:00</time>
				<extensions>
					<swisstopo:routepoint_id>2112398241</swisstopo:routepoint_id>
				</extensions>
			</trkpt>
			<trkpt lat="47.3993214790" lon="7.1866844545">
				<ele>618.0</ele>
				<time>2021-04-12T12:35:41+02:00</time>
				<extensions>
					<swisstopo:routepoint_id>877584283</swisstopo:routepoint_id>
				</extensions>
			</trkpt>
			<trkpt lat="47.3993247987" lon="7.1865860315">
				<ele>617.4</ele>
				<time>2021-04-12T12:35:42+02:00</time>
				<extensions>
					<swisstopo:routepoint_id>641356785</swisstopo:routepoint_id>
				</extensions>
			</trkpt>
			<trkpt lat="47.3993255192" lon="7.1864789221">
				<ele>616.7</ele>
				<time>2021-04-12T12:35:43+02:00</time>
				<extensions>
					<swisstopo:routepoint_id>1063061202</swisstopo:routepoint_id>
				</extensions>
			</trkpt>
			<trkpt lat="47.3993239873" lon="7.1863682460">
				<ele>616.0</ele>
				<time>2021-04-12T12:35:44+02:00</time>
				<extensions>
					<swisstopo:routepoint_id>1953162621</swisstopo:routepoint_id>
				</extensions>
			</trkpt>
			<trkpt lat="47.3993208531" lon="7.1862592736">
				<ele>615.3</ele>
				<time>2021-04-12T12:35:46+02:00</time>
				<extensions>
					<swisstopo:routepoint_id>369143105</swisstopo:routepoint_id>
				</extensions>
			</trkpt>
			<trkpt lat="47.3993168430" lon="7.1861600804">
				<ele>614.7</ele>
				<time>2021-04-12T12:35:47+02:00</time>
				<extensions>
					<swisstopo:routepoint_id>107909552</swisstopo:routepoint_id>
				</extensions>
			</trkpt>
			<trkpt lat="47.3993123704" lon="7.1860752913">
				<ele>614.2</ele>
				<time>2021-04-12T12:35:48+02:00</time>
				<extensions>
					<swisstopo:routepoint_id>1159642396</swisstopo:routepoint_id>
				</extensions>
			</trkpt>
			<trkpt lat="47.3993077506" lon="7.1860073322">
				<ele>613.8</ele>
				<time>2021-04-12T12:35:49+02:00</time>
				<extensions>
					<swisstopo:routepoint_id>1695653047</swisstopo:routepoint_id>
				</extensions>
			</trkpt>
			<trkpt lat="47.3993033545" lon="7.1859553955">
				<ele>613.5</ele>
				<time>2021-04-12T12:35:50+02:00</time>
				<extensions>
					<swisstopo:routepoint_id>1732765239</swisstopo:routepoint_id>
				</extensions>
			</trkpt>
			<trkpt lat="47.3992994317" lon="7.1859175861">
				<ele>613.3</ele>
				<time>2021-04-12T12:35:51+02:00</time>
				<extensions>
					<swisstopo:routepoint_id>559634906</swisstopo:routepoint_id>
				</extensions>
			</trkpt>
			<trkpt lat="47.3992960139" lon="7.1858921316">
				<ele>613.2</ele>
				<time>2021-04-12T12:35:52+02:00</time>
				<extensions>
					<swisstopo:routepoint_id>1952974929</swisstopo:routepoint_id>
				</extensions>
			</trkpt>
			<trkpt lat="47.3992929264" lon="7.1858769921">
				<ele>613.2</ele>
				<time>2021-04-12T12:35:53+02:00</time>
				<extensions>
					<swisstopo:routepoint_id>1509570955</swisstopo:routepoint_id>
				</extensions>
			</trkpt>
			<trkpt lat="47.3992899742" lon="7.1858700374">
				<ele>613.2</ele>
				<time>2021-04-12T12:35:54+02:00</time>
				<extensions>
					<swisstopo:routepoint_id>987235027</swisstopo:routepoint_id>
				</extensions>
			</trkpt>
			<trkpt lat="47.3992873727" lon="7.1858694678">
				<ele>613.2</ele>
				<time>2021-04-12T12:35:55+02:00</time>
				<extensions>
					<swisstopo:routepoint_id>1000442067</swisstopo:routepoint_id>
				</extensions>
			</trkpt>
			<trkpt lat="47.3992852472" lon="7.1858738587">
				<ele>613.3</ele>
				<time>2021-04-12T12:35:56+02:00</time>
				<extensions>
					<swisstopo:routepoint_id>1780347706</swisstopo:routepoint_id>
				</extensions>
			</trkpt>
			<trkpt lat="47.3992835507" lon="7.1858816098">
				<ele>613.4</ele>
				<time>2021-04-12T12:35:57+02:00</time>
				<extensions>
					<swisstopo:routepoint_id>1414241091</swisstopo:routepoint_id>
				</extensions>
			</trkpt>
			<trkpt lat="47.3992822034" lon="7.1858913989">
				<ele>613.5</ele>
				<time>2021-04-12T12:35:58+02:00</time>
				<extensions>
					<swisstopo:routepoint_id>801011441</swisstopo:routepoint_id>
				</extensions>
			</trkpt>
			<trkpt lat="47.3992813162" lon="7.1859020308">
				<ele>613.5</ele>
				<time>2021-04-12T12:35:59+02:00</time>
				<extensions>
					<swisstopo:routepoint_id>24305844</swisstopo:routepoint_id>
				</extensions>
			</trkpt>
			<trkpt lat="47.3992808212" lon="7.1859126424">
				<ele>613.6</ele>
				<time>2021-04-12T12:36:00+02:00</time>
				<extensions>
					<swisstopo:routepoint_id>486427178</swisstopo:routepoint_id>
				</extensions>
			</trkpt>
			<trkpt lat="47.3992807795" lon="7.1859225352">
				<ele>613.7</ele>
				<time>2021-04-12T12:36:01+02:00</time>
				<extensions>
					<swisstopo:routepoint_id>2058820164</swisstopo:routepoint_id>
				</extensions>
			</trkpt>
			<trkpt lat="47.3992810018" lon="7.1859314761">
				<ele>613.8</ele>
				<time>2021-04-12T12:36:02+02:00</time>
				<extensions>
					<swisstopo:routepoint_id>186492237</swisstopo:routepoint_id>
				</extensions>
			</trkpt>
			<trkpt lat="47.3992813444" lon="7.1859392260">
				<ele>613.9</ele>
				<time>2021-04-12T12:36:03+02:00</time>
				<extensions>
					<swisstopo:routepoint_id>1196386286</swisstopo:routepoint_id>
				</extensions>
			</trkpt>
			<trkpt lat="47.3992818652" lon="7.1859457929">
				<ele>613.9</ele>
				<time>2021-04-12T12:36:04+02:00</time>
				<extensions>
					<swisstopo:routepoint_id>774921941</swisstopo:routepoint_id>
				</extensions>
			</trkpt>
			<trkpt lat="47.3992825729" lon="7.1859513748">
				<ele>614.0</ele>
				<time>2021-04-12T12:36:05+02:00</time>
				<extensions>
					<swisstopo:routepoint_id>1772226979</swisstopo:routepoint_id>
				</extensions>
			</trkpt>
			<trkpt lat="47.3992831773" lon="7.1859561903">
				<ele>614.0</ele>
				<time>2021-04-12T12:36:06+02:00</time>
				<extensions>
					<swisstopo:routepoint_id>220652163</swisstopo:routepoint_id>
				</extensions>
			</trkpt>
			<trkpt lat="47.3992835985" lon="7.1859603922">
				<ele>614.0</ele>
				<time>2021-04-12T12:36:07+02:00</time>
				<extensions>
					<swisstopo:routepoint_id>1944128819</swisstopo:routepoint_id>
				</extensions>
			</trkpt>
			<trkpt lat="47.3992836960" lon="7.1859640946">
				<ele>614.1</ele>
				<time>2021-04-12T12:36:08+02:00</time>
				<extensions>
					<swisstopo:routepoint_id>1009371828</swisstopo:routepoint_id>
				</extensions>
			</trkpt>
			<trkpt lat="47.3992835330" lon="7.1859674038">
				<ele>614.1</ele>
				<time>2021-04-12T12:36:09+02:00</time>
				<extensions>
					<swisstopo:routepoint_id>1538985543</swisstopo:routepoint_id>
				</extensions>
			</trkpt>
			<trkpt lat="47.3992831512" lon="7.1859701210">
				<ele>614.1</ele>
				<time>2021-04-12T12:36:10+02:00</time>
				<extensions>
					<swisstopo:routepoint_id>1436976733</swisstopo:routepoint_id>
				</extensions>
			</trkpt>
			<trkpt lat="47.3992825914" lon="7.1859722014">
				<ele>614.1</ele>
				<time>2021-04-12T12:36:11+02:00</time>
				<extensions>
					<swisstopo:routepoint_id>666857369</swisstopo:routepoint_id>
				</extensions>
			</trkpt>
			<trkpt lat="47.3992819780" lon="7.1859737118">
				<ele>614.1</ele>
				<time>2021-04-12T12:36:12+02:00</time>
				<extensions>
					<swisstopo:routepoint_id>154647090</swisstopo:routepoint_id>
				</extensions>
			</trkpt>
			<trkpt lat="47.3992815101" lon="7.1859747175">
				<ele>614.1</ele>
				<time>2021-04-12T12:36:13+02:00</time>
				<extensions>
					<swisstopo:routepoint_id>698428760</swisstopo:routepoint_id>
				</extensions>
			</trkpt>
			<trkpt lat="47.3992812771" lon="7.1859752853">
				<ele>614.1</ele>
				<time>2021-04-12T12:36:13+02:00</time>
				<extensions>
					<swisstopo:routepoint_id>346554818</swisstopo:routepoint_id>
				</extensions>
			</trkpt>
			<trkpt lat="47.3992811792" lon="7.1859754457">
				<ele>614.2</ele>
				<time>2021-04-12T12:36:14+02:00</time>
				<extensions>
					<swisstopo:routepoint_id>571175462</swisstopo:routepoint_id>
				</extensions>
			</trkpt>
			<trkpt lat="47.3992811942" lon="7.1859753608">
				<ele>614.2</ele>
				<time>2021-04-12T12:36:15+02:00</time>
				<extensions>
					<swisstopo:routepoint_id>494087744</swisstopo:routepoint_id>
				</extensions>
			</trkpt>
			<trkpt lat="47.3992811613" lon="7.1859751168">
				<ele>614.2</ele>
				<time>2021-04-12T12:36:16+02:00</time>
				<extensions>
					<swisstopo:routepoint_id>1960934106</swisstopo:routepoint_id>
				</extensions>
			</trkpt>
			<trkpt lat="47.3992810018" lon="7.1859748481">
				<ele>614.2</ele>
				<time>2021-04-12T12:36:17+02:00</time>
				<extensions>
					<swisstopo:routepoint_id>2135472680</swisstopo:routepoint_id>
				</extensions>
			</trkpt>
			<trkpt lat="47.3992806085" lon="7.1859746077">
				<ele>614.1</ele>
				<time>2021-04-12T12:36:18+02:00</time>
				<extensions>
					<swisstopo:routepoint_id>2142624096</swisstopo:routepoint_id>
				</extensions>
			</trkpt>
			<trkpt lat="47.3992800155" lon="7.1859744801">
				<ele>614.1</ele>
				<time>2021-04-12T12:36:19+02:00</time>
				<extensions>
					<swisstopo:routepoint_id>2077388576</swisstopo:routepoint_id>
				</extensions>
			</trkpt>
			<trkpt lat="47.3992793024" lon="7.1859744906">
				<ele>614.1</ele>
				<time>2021-04-12T12:36:20+02:00</time>
				<extensions>
					<swisstopo:routepoint_id>880663906</swisstopo:routepoint_id>
				</extensions>
			</trkpt>
			<trkpt lat="47.3992784077" lon="7.1859745339">
				<ele>614.1</ele>
				<time>2021-04-12T12:36:21+02:00</time>
				<extensions>
					<swisstopo:routepoint_id>860973018</swisstopo:routepoint_id>
				</extensions>
			</trkpt>
			<trkpt lat="47.3992774466" lon="7.1859746911">
				<ele>614.1</ele>
				<time>2021-04-12T12:36:22+02:00</time>
				<extensions>
					<swisstopo:routepoint_id>628700040</swisstopo:routepoint_id>
				</extensions>
			</trkpt>
			<trkpt lat="47.3992765273" lon="7.1859749303">
				<ele>614.1</ele>
				<time>2021-04-12T12:36:23+02:00</time>
				<extensions>
					<swisstopo:routepoint_id>942029040</swisstopo:routepoint_id>
				</extensions>
			</trkpt>
			<trkpt lat="47.3992756412" lon="7.1859752378">
				<ele>614.1</ele>
				<time>2021-04-12T12:36:24+02:00</time>
				<extensions>
					<swisstopo:routepoint_id>1432629596</swisstopo:routepoint_id>
				</extensions>
			</trkpt>
			<trkpt lat="47.3992748990" lon="7.1859755350">
				<ele>614.1</ele>
				<time>2021-04-12T12:36:25+02:00</time>
				<extensions>
					<swisstopo:routepoint_id>618969808</swisstopo:routepoint_id>
				</extensions>
			</trkpt>
			<trkpt lat="47.3992743495" lon="7.1859758054">
				<ele>614.1</ele>
				<time>2021-04-12T12:36:26+02:00</time>
				<extensions>
					<swisstopo:routepoint_id>614776988</swisstopo:routepoint_id>
				</extensions>
			</trkpt>
			<trkpt lat="47.3992739915" lon="7.1859761413">
				<ele>614.1</ele>
				<time>2021-04-12T12:36:27+02:00</time>
				<extensions>
					<swisstopo:routepoint_id>1013011599</swisstopo:routepoint_id>
				</extensions>
			</trkpt>
			<trkpt lat="47.3992739376" lon="7.1859765490">
				<ele>614.1</ele>
				<time>2021-04-12T12:36:28+02:00</time>
				<extensions>
					<swisstopo:routepoint_id>435590977</swisstopo:routepoint_id>
				</extensions>
			</trkpt>
			<trkpt lat="47.3992742060" lon="7.1859769796">
				<ele>614.1</ele>
				<time>2021-04-12T12:36:29+02:00</time>
				<extensions>
					<swisstopo:routepoint_id>205797816</swisstopo:routepoint_id>
				</extensions>
			</trkpt>
			<trkpt lat="47.3992747285" lon="7.1859774685">
				<ele>614.1</ele>
				<time>2021-04-12T12:36:30+02:00</time>
				<extensions>
					<swisstopo:routepoint_id>1395221842</swisstopo:routepoint_id>
				</extensions>
			</trkpt>
			<trkpt lat="47.3992754613" lon="7.1859780970">
				<ele>614.1</ele>
				<time>2021-04-12T12:36:31+02:00</time>
				<extensions>
					<swisstopo:routepoint_id>1119556901</swisstopo:routepoint_id>
				</extensions>
			</trkpt>
			<trkpt lat="47.3992763526" lon="7.1859788359">
				<ele>614.1</ele>
				<time>2021-04-12T12:36:32+02:00</time>
				<extensions>
					<swisstopo:routepoint_id>141120093</swisstopo:routepoint_id>
				</extensions>
			</trkpt>
			<trkpt lat="47.3992773625" lon="7.1859796638">
				<ele>614.1</ele>
				<time>2021-04-12T12:36:33+02:00</time>
				<extensions>
					<swisstopo:routepoint_id>983456763</swisstopo:routepoint_id>
				</extensions>
			</trkpt>
			<trkpt lat="47.3992783403" lon="7.1859805157">
				<ele>614.1</ele>
				<time>2021-04-12T12:36:34+02:00</time>
				<extensions>
					<swisstopo:routepoint_id>1923668429</swisstopo:routepoint_id>
				</extensions>
			</trkpt>
			<trkpt lat="47.3992794138" lon="7.1859813541">
				<ele>614.1</ele>
				<time>2021-04-12T12:36:35+02:00</time>
				<extensions>
					<swisstopo:routepoint_id>728980618</swisstopo:routepoint_id>
				</extensions>
			</trkpt>
			<trkpt lat="47.3992806384" lon="7.1859821888">
				<ele>614.1</ele>
				<time>2021-04-12T12:36:36+02:00</time>
				<extensions>
					<swisstopo:routepoint_id>583040591</swisstopo:routepoint_id>
				</extensions>
			</trkpt>
			<trkpt lat="47.3992819849" lon="7.1859829503">
				<ele>614.1</ele>
				<time>2021-04-12T12:36:37+02:00</time>
				<extensions>
					<swisstopo:routepoint_id>195331676</swisstopo:routepoint_id>
				</extensions>
			</trkpt>
			<trkpt lat="47.3992833491" lon="7.1859836626">
				<ele>614.1</ele>
				<time>2021-04-12T12:36:38+02:00</time>
				<extensions>
					<swisstopo:routepoint_id>1584465916</swisstopo:routepoint_id>
				</extensions>
			</trkpt>
			<trkpt lat="47.3992847349" lon="7.1859842619">
				<ele>614.1</ele>
				<time>2021-04-12T12:36:39+02:00</time>
				<extensions>
					<swisstopo:routepoint_id>1321427412</swisstopo:routepoint_id>
				</extensions>
			</trkpt>
			<trkpt lat="47.3992860277" lon="7.1859847663">
				<ele>614.1</ele>
				<time>2021-04-12T12:36:40+02:00</time>
				<extensions>
					<swisstopo:routepoint_id>2102119857</swisstopo:routepoint_id>
				</extensions>
			</trkpt>
			<trkpt lat="47.3992872127" lon="7.1859852676">
				<ele>614.1</ele>
				<time>2021-04-12T12:36:41+02:00</time>
				<extensions>
					<swisstopo:routepoint_id>2074959802</swisstopo:routepoint_id>
				</extensions>
			</trkpt>
			<trkpt lat="47.3992882437" lon="7.1859857509">
				<ele>614.0</ele>
				<time>2021-04-12T12:36:42+02:00</time>
				<extensions>
					<swisstopo:routepoint_id>862448581</swisstopo:routepoint_id>
				</extensions>
			</trkpt>
			<trkpt lat="47.3992891013" lon="7.1859861830">
				<ele>614.0</ele>
				<time>2021-04-12T12:36:43+02:00</time>
				<extensions>
					<swisstopo:routepoint_id>1806167264</swisstopo:routepoint_id>
				</extensions>
			</trkpt>
			<trkpt lat="47.3992898220" lon="7.1859865845">
				<ele>614.0</ele>
				<time>2021-04-12T12:36:44+02:00</time>
				<extensions>
					<swisstopo:routepoint_id>1571855703</swisstopo:routepoint_id>
				</extensions>
			</trkpt>
			<trkpt lat="47.3992904037" lon="7.1859869572">
				<ele>614.0</ele>
				<time>2021-04-12T12:36:45+02:00</time>
				<extensions>
					<swisstopo:routepoint_id>1982458574</swisstopo:routepoint_id>
				</extensions>
			</trkpt>
			<trkpt lat="47.3992909023" lon="7.1859873130">
				<ele>614.0</ele>
				<time>2021-04-12T12:36:46+02:00</time>
				<extensions>
					<swisstopo:routepoint_id>972470013</swisstopo:routepoint_id>
				</extensions>
			</trkpt>
			<trkpt lat="47.3992913974" lon="7.1859876481">
				<ele>614.0</ele>
				<time>2021-04-12T12:36:47+02:00</time>
				<extensions>
					<swisstopo:routepoint_id>1952954821</swisstopo:routepoint_id>
				</extensions>
			</trkpt>
			<trkpt lat="47.3992919660" lon="7.1859879541">
				<ele>614.0</ele>
				<time>2021-04-12T12:36:48+02:00</time>
				<extensions>
					<swisstopo:routepoint_id>1171615799</swisstopo:routepoint_id>
				</extensions>
			</trkpt>
			<trkpt lat="47.3992925352" lon="7.1859882202">
				<ele>614.0</ele>
				<time>2021-04-12T12:36:49+02:00</time>
				<extensions>
					<swisstopo:routepoint_id>1069174450</swisstopo:routepoint_id>
				</extensions>
			</trkpt>
			<trkpt lat="47.3992930938" lon="7.1859884428">
				<ele>614.0</ele>
				<time>2021-04-12T12:36:50+02:00</time>
				<extensions>
					<swisstopo:routepoint_id>1619306701</swisstopo:routepoint_id>
				</extensions>
			</trkpt>
			<trkpt lat="47.3992935901" lon="7.1859886486">
				<ele>614.0</ele>
				<time>2021-04-12T12:36:51+02:00</time>
				<extensions>
					<swisstopo:routepoint_id>627465276</swisstopo:routepoint_id>
				</extensions>
			</trkpt>
			<trkpt lat="47.3992940403" lon="7.1859888338">
				<ele>614.0</ele>
				<time>2021-04-12T12:36:52+02:00</time>
				<extensions>
					<swisstopo:routepoint_id>1664186962</swisstopo:routepoint_id>
				</extensions>
			</trkpt>
			<trkpt lat="47.3992944299" lon="7.1859890164">
				<ele>614.1</ele>
				<time>2021-04-12T12:36:53+02:00</time>
				<extensions>
					<swisstopo:routepoint_id>1163251806</swisstopo:routepoint_id>
				</extensions>
			</trkpt>
			<trkpt lat="47.3992947339" lon="7.1859891829">
				<ele>614.1</ele>
				<time>2021-04-12T12:36:54+02:00</time>
				<extensions>
					<swisstopo:routepoint_id>81981154</swisstopo:routepoint_id>
				</extensions>
			</trkpt>
			<trkpt lat="47.3992949950" lon="7.1859893231">
				<ele>614.1</ele>
				<time>2021-04-12T12:36:55+02:00</time>
				<extensions>
					<swisstopo:routepoint_id>1320237551</swisstopo:routepoint_id>
				</extensions>
			</trkpt>
			<trkpt lat="47.3992952698" lon="7.1859895017">
				<ele>614.1</ele>
				<time>2021-04-12T12:36:56+02:00</time>
				<extensions>
					<swisstopo:routepoint_id>1431478853</swisstopo:routepoint_id>
				</extensions>
			</trkpt>
			<trkpt lat="47.3992953593" lon="7.1859897154">
				<ele>614.1</ele>
				<time>2021-04-12T12:36:57+02:00</time>
				<extensions>
					<swisstopo:routepoint_id>605785030</swisstopo:routepoint_id>
				</extensions>
			</trkpt>
			<trkpt lat="47.3992952181" lon="7.1859899752">
				<ele>614.1</ele>
				<time>2021-04-12T12:36:58+02:00</time>
				<extensions>
					<swisstopo:routepoint_id>209028783</swisstopo:routepoint_id>
				</extensions>
			</trkpt>
			<trkpt lat="47.3992950562" lon="7.1859902870">
				<ele>614.1</ele>
				<time>2021-04-12T12:36:59+02:00</time>
				<extensions>
					<swisstopo:routepoint_id>2010993036</swisstopo:routepoint_id>
				</extensions>
			</trkpt>
			<trkpt lat="47.3992948423" lon="7.1859905615">
				<ele>614.1</ele>
				<time>2021-04-12T12:37:00+02:00</time>
				<extensions>
					<swisstopo:routepoint_id>1662319566</swisstopo:routepoint_id>
				</extensions>
			</trkpt>
			<trkpt lat="47.3992945504" lon="7.1859907268">
				<ele>614.1</ele>
				<time>2021-04-12T12:37:01+02:00</time>
				<extensions>
					<swisstopo:routepoint_id>1990181939</swisstopo:routepoint_id>
				</extensions>
			</trkpt>
			<trkpt lat="47.3992941846" lon="7.1859907207">
				<ele>614.1</ele>
				<time>2021-04-12T12:37:02+02:00</time>
				<extensions>
					<swisstopo:routepoint_id>1930046748</swisstopo:routepoint_id>
				</extensions>
			</trkpt>
			<trkpt lat="47.3992937623" lon="7.1859905585">
				<ele>614.1</ele>
				<time>2021-04-12T12:37:03+02:00</time>
				<extensions>
					<swisstopo:routepoint_id>555205701</swisstopo:routepoint_id>
				</extensions>
			</trkpt>
			<trkpt lat="47.3992932792" lon="7.1859902809">
				<ele>614.1</ele>
				<time>2021-04-12T12:37:04+02:00</time>
				<extensions>
					<swisstopo:routepoint_id>525770492</swisstopo:routepoint_id>
				</extensions>
			</trkpt>
			<trkpt lat="47.3992928048" lon="7.1859899457">
				<ele>614.0</ele>
				<time>2021-04-12T12:37:05+02:00</time>
				<extensions>
					<swisstopo:routepoint_id>1876935286</swisstopo:routepoint_id>
				</extensions>
			</trkpt>
			<trkpt lat="47.3992923110" lon="7.1859894999">
				<ele>614.0</ele>
				<time>2021-04-12T12:37:06+02:00</time>
				<extensions>
					<swisstopo:routepoint_id>1264061019</swisstopo:routepoint_id>
				</extensions>
			</trkpt>
			<trkpt lat="47.3992918134" lon="7.1859889632">
				<ele>614.0</ele>
				<time>2021-04-12T12:37:07+02:00</time>
				<extensions>
					<swisstopo:routepoint_id>17826562</swisstopo:routepoint_id>
				</extensions>
			</trkpt>
			<trkpt lat="47.3992913471" lon="7.1859884088">
				<ele>614.0</ele>
				<time>2021-04-12T12:37:08+02:00</time>
				<extensions>
					<swisstopo:routepoint_id>1110800601</swisstopo:routepoint_id>
				</extensions>
			</trkpt>
			<trkpt lat="47.3992909624" lon="7.1859878938">
				<ele>614.1</ele>
				<time>2021-04-12T12:37:09+02:00</time>
				<extensions>
					<swisstopo:routepoint_id>1150357636</swisstopo:routepoint_id>
				</extensions>
			</trkpt>
			<trkpt lat="47.3992906853" lon="7.1859874924">
				<ele>614.1</ele>
				<time>2021-04-12T12:37:10+02:00</time>
				<extensions>
					<swisstopo:routepoint_id>265514311</swisstopo:routepoint_id>
				</extensions>
			</trkpt>
			<trkpt lat="47.3992905368" lon="7.1859872102">
				<ele>614.1</ele>
				<time>2021-04-12T12:37:11+02:00</time>
				<extensions>
					<swisstopo:routepoint_id>28006511</swisstopo:routepoint_id>
				</extensions>
			</trkpt>
			<trkpt lat="47.3992904616" lon="7.1859870063">
				<ele>614.1</ele>
				<time>2021-04-12T12:37:12+02:00</time>
				<extensions>
					<swisstopo:routepoint_id>406511684</swisstopo:routepoint_id>
				</extensions>
			</trkpt>
			<trkpt lat="47.3992904495" lon="7.1859868387">
				<ele>614.1</ele>
				<time>2021-04-12T12:37:13+02:00</time>
				<extensions>
					<swisstopo:routepoint_id>1096391881</swisstopo:routepoint_id>
				</extensions>
			</trkpt>
			<trkpt lat="47.3992904609" lon="7.1859867316">
				<ele>614.1</ele>
				<time>2021-04-12T12:37:14+02:00</time>
				<extensions>
					<swisstopo:routepoint_id>1648652707</swisstopo:routepoint_id>
				</extensions>
			</trkpt>
			<trkpt lat="47.3992905323" lon="7.1859866912">
				<ele>614.1</ele>
				<time>2021-04-12T12:37:15+02:00</time>
				<extensions>
					<swisstopo:routepoint_id>2072032955</swisstopo:routepoint_id>
				</extensions>
			</trkpt>
			<trkpt lat="47.3992907174" lon="7.1859866880">
				<ele>614.1</ele>
				<time>2021-04-12T12:37:16+02:00</time>
				<extensions>
					<swisstopo:routepoint_id>1063054933</swisstopo:routepoint_id>
				</extensions>
			</trkpt>
			<trkpt lat="47.3992909864" lon="7.1859867310">
				<ele>614.1</ele>
				<time>2021-04-12T12:37:17+02:00</time>
				<extensions>
					<swisstopo:routepoint_id>1847799538</swisstopo:routepoint_id>
				</extensions>
			</trkpt>
			<trkpt lat="47.3992913170" lon="7.1859867827">
				<ele>614.1</ele>
				<time>2021-04-12T12:37:18+02:00</time>
				<extensions>
					<swisstopo:routepoint_id>1205815899</swisstopo:routepoint_id>
				</extensions>
			</trkpt>
			<trkpt lat="47.3992916501" lon="7.1859867677">
				<ele>614.1</ele>
				<time>2021-04-12T12:37:19+02:00</time>
				<extensions>
					<swisstopo:routepoint_id>344637754</swisstopo:routepoint_id>
				</extensions>
			</trkpt>
			<trkpt lat="47.3992919486" lon="7.1859866445">
				<ele>614.1</ele>
				<time>2021-04-12T12:37:20+02:00</time>
				<extensions>
					<swisstopo:routepoint_id>563335519</swisstopo:routepoint_id>
				</extensions>
			</trkpt>
			<trkpt lat="47.3992921692" lon="7.1859864333">
				<ele>614.1</ele>
				<time>2021-04-12T12:37:21+02:00</time>
				<extensions>
					<swisstopo:routepoint_id>1872151857</swisstopo:routepoint_id>
				</extensions>
			</trkpt>
			<trkpt lat="47.3992922785" lon="7.1859861668">
				<ele>614.1</ele>
				<time>2021-04-12T12:37:22+02:00</time>
				<extensions>
					<swisstopo:routepoint_id>325864755</swisstopo:routepoint_id>
				</extensions>
			</trkpt>
			<trkpt lat="47.3992922899" lon="7.1859858690">
				<ele>614.1</ele>
				<time>2021-04-12T12:37:23+02:00</time>
				<extensions>
					<swisstopo:routepoint_id>725637435</swisstopo:routepoint_id>
				</extensions>
			</trkpt>
			<trkpt lat="47.3992922860" lon="7.1859855710">
				<ele>614.1</ele>
				<time>2021-04-12T12:37:24+02:00</time>
				<extensions>
					<swisstopo:routepoint_id>228738732</swisstopo:routepoint_id>
				</extensions>
			</trkpt>
			<trkpt lat="47.3992922788" lon="7.1859852909">
				<ele>614.1</ele>
				<time>2021-04-12T12:37:25+02:00</time>
				<extensions>
					<swisstopo:routepoint_id>416140594</swisstopo:routepoint_id>
				</extensions>
			</trkpt>
			<trkpt lat="47.3992923538" lon="7.1859850652">
				<ele>614.1</ele>
				<time>2021-04-12T12:37:26+02:00</time>
				<extensions>
					<swisstopo:routepoint_id>1868208726</swisstopo:routepoint_id>
				</extensions>
			</trkpt>
			<trkpt lat="47.3992924856" lon="7.1859848778">
				<ele>614.1</ele>
				<time>2021-04-12T12:37:27+02:00</time>
				<extensions>
					<swisstopo:routepoint_id>625655095</swisstopo:routepoint_id>
				</extensions>
			</trkpt>
			<trkpt lat="47.3992926015" lon="7.1859847263">
				<ele>614.1</ele>
				<time>2021-04-12T12:37:28+02:00</time>
				<extensions>
					<swisstopo:routepoint_id>1305245953</swisstopo:routepoint_id>
				</extensions>
			</trkpt>
			<trkpt lat="47.3992926482" lon="7.1859845995">
				<ele>614.1</ele>
				<time>2021-04-12T12:37:29+02:00</time>
				<extensions>
					<swisstopo:routepoint_id>723277966</swisstopo:routepoint_id>
				</extensions>
			</trkpt>
			<trkpt lat="47.3992925951" lon="7.1859844704">
				<ele>614.1</ele>
				<time>2021-04-12T12:37:30+02:00</time>
				<extensions>
					<swisstopo:routepoint_id>1375332542</swisstopo:routepoint_id>
				</extensions>
			</trkpt>
			<trkpt lat="47.3992924202" lon="7.1859843311">
				<ele>614.1</ele>
				<time>2021-04-12T12:37:31+02:00</time>
				<extensions>
					<swisstopo:routepoint_id>1847540733</swisstopo:routepoint_id>
				</extensions>
			</trkpt>
			<trkpt lat="47.3992921557" lon="7.1859841978">
				<ele>614.1</ele>
				<time>2021-04-12T12:37:32+02:00</time>
				<extensions>
					<swisstopo:routepoint_id>1151047558</swisstopo:routepoint_id>
				</extensions>
			</trkpt>
			<trkpt lat="47.3992918202" lon="7.1859840502">
				<ele>614.2</ele>
				<time>2021-04-12T12:37:33+02:00</time>
				<extensions>
					<swisstopo:routepoint_id>1123615130</swisstopo:routepoint_id>
				</extensions>
			</trkpt>
			<trkpt lat="47.3992914780" lon="7.1859839016">
				<ele>614.2</ele>
				<time>2021-04-12T12:37:34+02:00</time>
				<extensions>
					<swisstopo:routepoint_id>1775781839</swisstopo:routepoint_id>
				</extensions>
			</trkpt>
			<trkpt lat="47.3992911502" lon="7.1859837217">
				<ele>614.2</ele>
				<time>2021-04-12T12:37:35+02:00</time>
				<extensions>
					<swisstopo:routepoint_id>1985125714</swisstopo:routepoint_id>
				</extensions>
			</trkpt>
			<trkpt lat="47.3992908953" lon="7.1859835209">
				<ele>614.2</ele>
				<time>2021-04-12T12:37:36+02:00</time>
				<extensions>
					<swisstopo:routepoint_id>701935406</swisstopo:routepoint_id>
				</extensions>
			</trkpt>
			<trkpt lat="47.3992908064" lon="7.1859833342">
				<ele>614.2</ele>
				<time>2021-04-12T12:37:37+02:00</time>
				<extensions>
					<swisstopo:routepoint_id>1300695671</swisstopo:routepoint_id>
				</extensions>
			</trkpt>
			<trkpt lat="47.3992908413" lon="7.1859831161">
				<ele>614.2</ele>
				<time>2021-04-12T12:37:38+02:00</time>
				<extensions>
					<swisstopo:routepoint_id>1556099684</swisstopo:routepoint_id>
				</extensions>
			</trkpt>
			<trkpt lat="47.3992909696" lon="7.1859829281">
				<ele>614.2</ele>
				<time>2021-04-12T12:37:39+02:00</time>
				<extensions>
					<swisstopo:routepoint_id>1311535822</swisstopo:routepoint_id>
				</extensions>
			</trkpt>
			<trkpt lat="47.3992911841" lon="7.1859828201">
				<ele>614.2</ele>
				<time>2021-04-12T12:37:40+02:00</time>
				<extensions>
					<swisstopo:routepoint_id>1210407546</swisstopo:routepoint_id>
				</extensions>
			</trkpt>
			<trkpt lat="47.3992914521" lon="7.1859827413">
				<ele>614.2</ele>
				<time>2021-04-12T12:37:41+02:00</time>
				<extensions>
					<swisstopo:routepoint_id>207037591</swisstopo:routepoint_id>
				</extensions>
			</trkpt>
			<trkpt lat="47.3992917122" lon="7.1859826182">
				<ele>614.1</ele>
				<time>2021-04-12T12:37:42+02:00</time>
				<extensions>
					<swisstopo:routepoint_id>757283797</swisstopo:routepoint_id>
				</extensions>
			</trkpt>
			<trkpt lat="47.3992919602" lon="7.1859824279">
				<ele>614.1</ele>
				<time>2021-04-12T12:37:43+02:00</time>
				<extensions>
					<swisstopo:routepoint_id>1680684057</swisstopo:routepoint_id>
				</extensions>
			</trkpt>
			<trkpt lat="47.3992922018" lon="7.1859821427">
				<ele>614.1</ele>
				<time>2021-04-12T12:37:44+02:00</time>
				<extensions>
					<swisstopo:routepoint_id>1404537008</swisstopo:routepoint_id>
				</extensions>
			</trkpt>
			<trkpt lat="47.3992924808" lon="7.1859817847">
				<ele>614.0</ele>
				<time>2021-04-12T12:37:45+02:00</time>
				<extensions>
					<swisstopo:routepoint_id>913245632</swisstopo:routepoint_id>
				</extensions>
			</trkpt>
			<trkpt lat="47.3992928760" lon="7.1859813748">
				<ele>614.0</ele>
				<time>2021-04-12T12:37:46+02:00</time>
				<extensions>
					<swisstopo:routepoint_id>853711915</swisstopo:routepoint_id>
				</extensions>
			</trkpt>
			<trkpt lat="47.3992933926" lon="7.1859809640">
				<ele>614.0</ele>
				<time>2021-04-12T12:37:47+02:00</time>
				<extensions>
					<swisstopo:routepoint_id>997909798</swisstopo:routepoint_id>
				</extensions>
			</trkpt>
			<trkpt lat="47.3992940213" lon="7.1859805691">
				<ele>614.0</ele>
				<time>2021-04-12T12:37:48+02:00</time>
				<extensions>
					<swisstopo:routepoint_id>22691916</swisstopo:routepoint_id>
				</extensions>
			</trkpt>
			<trkpt lat="47.3992947428" lon="7.1859801899">
				<ele>614.0</ele>
				<time>2021-04-12T12:37:49+02:00</time>
				<extensions>
					<swisstopo:routepoint_id>1278426693</swisstopo:routepoint_id>
				</extensions>
			</trkpt>
			<trkpt lat="47.3992955389" lon="7.1859798147">
				<ele>613.9</ele>
				<time>2021-04-12T12:37:50+02:00</time>
				<extensions>
					<swisstopo:routepoint_id>943541016</swisstopo:routepoint_id>
				</extensions>
			</trkpt>
			<trkpt lat="47.3992963704" lon="7.1859794757">
				<ele>613.9</ele>
				<time>2021-04-12T12:37:51+02:00</time>
				<extensions>
					<swisstopo:routepoint_id>1074606464</swisstopo:routepoint_id>
				</extensions>
			</trkpt>
			<trkpt lat="47.3992972269" lon="7.1859791782">
				<ele>613.9</ele>
				<time>2021-04-12T12:37:52+02:00</time>
				<extensions>
					<swisstopo:routepoint_id>573369178</swisstopo:routepoint_id>
				</extensions>
			</trkpt>
			<trkpt lat="47.3992981169" lon="7.1859789257">
				<ele>613.9</ele>
				<time>2021-04-12T12:37:53+02:00</time>
				<extensions>
					<swisstopo:routepoint_id>856650557</swisstopo:routepoint_id>
				</extensions>
			</trkpt>
			<trkpt lat="47.3992990336" lon="7.1859786923">
				<ele>613.9</ele>
				<time>2021-04-12T12:37:54+02:00</time>
				<extensions>
					<swisstopo:routepoint_id>995542011</swisstopo:routepoint_id>
				</extensions>
			</trkpt>
			<trkpt lat="47.3992998885" lon="7.1859784388">
				<ele>613.9</ele>
				<time>2021-04-12T12:37:55+02:00</time>
				<extensions>
					<swisstopo:routepoint_id>1029485100</swisstopo:routepoint_id>
				</extensions>
			</trkpt>
			<trkpt lat="47.3993006625" lon="7.1859781612">
				<ele>613.9</ele>
				<time>2021-04-12T12:37:56+02:00</time>
				<extensions>
					<swisstopo:routepoint_id>280331821</swisstopo:routepoint_id>
				</extensions>
			</trkpt>
			<trkpt lat="47.3993012979" lon="7.1859778597">
				<ele>613.9</ele>
				<time>2021-04-12T12:37:57+02:00</time>
				<extensions>
					<swisstopo:routepoint_id>2105277676</swisstopo:routepoint_id>
				</extensions>
			</trkpt>
			<trkpt lat="47.3993018036" lon="7.1859775414">
				<ele>613.9</ele>
				<time>2021-04-12T12:37:58+02:00</time>
				<extensions>
					<swisstopo:routepoint_id>1461332560</swisstopo:routepoint_id>
				</extensions>
			</trkpt>
			<trkpt lat="47.3993021610" lon="7.1859772312">
				<ele>613.9</ele>
				<time>2021-04-12T12:37:59+02:00</time>
				<extensions>
					<swisstopo:routepoint_id>1993348828</swisstopo:routepoint_id>
				</extensions>
			</trkpt>
			<trkpt lat="47.3993023754" lon="7.1859769624">
				<ele>614.0</ele>
				<time>2021-04-12T12:38:00+02:00</time>
				<extensions>
					<swisstopo:routepoint_id>1468858996</swisstopo:routepoint_id>
				</extensions>
			</trkpt>
			<trkpt lat="47.3993024938" lon="7.1859767292">
				<ele>614.0</ele>
				<time>2021-04-12T12:38:01+02:00</time>
				<extensions>
					<swisstopo:routepoint_id>1788623507</swisstopo:routepoint_id>
				</extensions>
			</trkpt>
			<trkpt lat="47.3993025713" lon="7.1859765466">
				<ele>614.0</ele>
				<time>2021-04-12T12:38:02+02:00</time>
				<extensions>
					<swisstopo:routepoint_id>919191443</swisstopo:routepoint_id>
				</extensions>
			</trkpt>
			<trkpt lat="47.3993026370" lon="7.1859763760">
				<ele>614.0</ele>
				<time>2021-04-12T12:38:03+02:00</time>
				<extensions>
					<swisstopo:routepoint_id>2000709630</swisstopo:routepoint_id>
				</extensions>
			</trkpt>
			<trkpt lat="47.3993027230" lon="7.1859761982">
				<ele>614.0</ele>
				<time>2021-04-12T12:38:04+02:00</time>
				<extensions>
					<swisstopo:routepoint_id>627806684</swisstopo:routepoint_id>
				</extensions>
			</trkpt>
			<trkpt lat="47.3993028568" lon="7.1859760024">
				<ele>614.0</ele>
				<time>2021-04-12T12:38:05+02:00</time>
				<extensions>
					<swisstopo:routepoint_id>959780277</swisstopo:routepoint_id>
				</extensions>
			</trkpt>
			<trkpt lat="47.3993030447" lon="7.1859757653">
				<ele>614.0</ele>
				<time>2021-04-12T12:38:06+02:00</time>
				<extensions>
					<swisstopo:routepoint_id>1277442922</swisstopo:routepoint_id>
				</extensions>
			</trkpt>
			<trkpt lat="47.3993032503" lon="7.1859755013">
				<ele>614.1</ele>
				<time>2021-04-12T12:38:07+02:00</time>
				<extensions>
					<swisstopo:routepoint_id>1589170995</swisstopo:routepoint_id>
				</extensions>
			</trkpt>
			<trkpt lat="47.3993034791" lon="7.1859752347">
				<ele>614.1</ele>
				<time>2021-04-12T12:38:08+02:00</time>
				<extensions>
					<swisstopo:routepoint_id>942795226</swisstopo:routepoint_id>
				</extensions>
			</trkpt>
			<trkpt lat="47.3993037015" lon="7.1859749684">
				<ele>614.1</ele>
				<time>2021-04-12T12:38:09+02:00</time>
				<extensions>
					<swisstopo:routepoint_id>1425015816</swisstopo:routepoint_id>
				</extensions>
			</trkpt>
			<trkpt lat="47.3993039100" lon="7.1859747086">
				<ele>614.1</ele>
				<time>2021-04-12T12:38:10+02:00</time>
				<extensions>
					<swisstopo:routepoint_id>1503188168</swisstopo:routepoint_id>
				</extensions>
			</trkpt>
			<trkpt lat="47.3993040841" lon="7.1859744087">
				<ele>614.1</ele>
				<time>2021-04-12T12:38:11+02:00</time>
				<extensions>
					<swisstopo:routepoint_id>1085916268</swisstopo:routepoint_id>
				</extensions>
			</trkpt>
			<trkpt lat="47.3993042202" lon="7.1859740572">
				<ele>614.1</ele>
				<time>2021-04-12T12:38:12+02:00</time>
				<extensions>
					<swisstopo:routepoint_id>1678684070</swisstopo:routepoint_id>
				</extensions>
			</trkpt>
			<trkpt lat="47.3993042986" lon="7.1859736654">
				<ele>614.1</ele>
				<time>2021-04-12T12:38:13+02:00</time>
				<extensions>
					<swisstopo:routepoint_id>3010204</swisstopo:routepoint_id>
				</extensions>
			</trkpt>
			<trkpt lat="47.3993043376" lon="7.1859732359">
				<ele>614.1</ele>
				<time>2021-04-12T12:38:14+02:00</time>
				<extensions>
					<swisstopo:routepoint_id>1200374747</swisstopo:routepoint_id>
				</extensions>
			</trkpt>
			<trkpt lat="47.3993043673" lon="7.1859727867">
				<ele>614.2</ele>
				<time>2021-04-12T12:38:15+02:00</time>
				<extensions>
					<swisstopo:routepoint_id>1236992911</swisstopo:routepoint_id>
				</extensions>
			</trkpt>
			<trkpt lat="47.3993044019" lon="7.1859723281">
				<ele>614.2</ele>
				<time>2021-04-12T12:38:16+02:00</time>
				<extensions>
					<swisstopo:routepoint_id>350668570</swisstopo:routepoint_id>
				</extensions>
			</trkpt>
			<trkpt lat="47.3993044446" lon="7.1859718463">
				<ele>614.2</ele>
				<time>2021-04-12T12:38:17+02:00</time>
				<extensions>
					<swisstopo:routepoint_id>991528622</swisstopo:routepoint_id>
				</extensions>
			</trkpt>
			<trkpt lat="47.3993044455" lon="7.1859713787">
				<ele>614.2</ele>
				<time>2021-04-12T12:38:18+02:00</time>
				<extensions>
					<swisstopo:routepoint_id>148449234</swisstopo:routepoint_id>
				</extensions>
			</trkpt>
			<trkpt lat="47.3993043984" lon="7.1859709362">
				<ele>614.2</ele>
				<time>2021-04-12T12:38:19+02:00</time>
				<extensions>
					<swisstopo:routepoint_id>1757761671</swisstopo:routepoint_id>
				</extensions>
			</trkpt>
			<trkpt lat="47.3993043050" lon="7.1859705269">
				<ele>614.2</ele>
				<time>2021-04-12T12:38:20+02:00</time>
				<extensions>
					<swisstopo:routepoint_id>1915356365</swisstopo:routepoint_id>
				</extensions>
			</trkpt>
			<trkpt lat="47.3993042006" lon="7.1859701639">
				<ele>614.2</ele>
				<time>2021-04-12T12:38:21+02:00</time>
				<extensions>
					<swisstopo:routepoint_id>614558025</swisstopo:routepoint_id>
				</extensions>
			</trkpt>
			<trkpt lat="47.3993040567" lon="7.1859698658">
				<ele>614.2</ele>
				<time>2021-04-12T12:38:22+02:00</time>
				<extensions>
					<swisstopo:routepoint_id>1627867752</swisstopo:routepoint_id>
				</extensions>
			</trkpt>
			<trkpt lat="47.3993038625" lon="7.1859696348">
				<ele>614.2</ele>
				<time>2021-04-12T12:38:23+02:00</time>
				<extensions>
					<swisstopo:routepoint_id>631645084</swisstopo:routepoint_id>
				</extensions>
			</trkpt>
			<trkpt lat="47.3993036312" lon="7.1859694563">
				<ele>614.2</ele>
				<time>2021-04-12T12:38:24+02:00</time>
				<extensions>
					<swisstopo:routepoint_id>1047259667</swisstopo:routepoint_id>
				</extensions>
			</trkpt>
			<trkpt lat="47.3993033701" lon="7.1859693410">
				<ele>614.2</ele>
				<time>2021-04-12T12:38:25+02:00</time>
				<extensions>
					<swisstopo:routepoint_id>517252457</swisstopo:routepoint_id>
				</extensions>
			</trkpt>
			<trkpt lat="47.3993030719" lon="7.1859692697">
				<ele>614.2</ele>
				<time>2021-04-12T12:38:26+02:00</time>
				<extensions>
					<swisstopo:routepoint_id>448241743</swisstopo:routepoint_id>
				</extensions>
			</trkpt>
			<trkpt lat="47.3993027122" lon="7.1859692148">
				<ele>614.2</ele>
				<time>2021-04-12T12:38:27+02:00</time>
				<extensions>
					<swisstopo:routepoint_id>226340925</swisstopo:routepoint_id>
				</extensions>
			</trkpt>
			<trkpt lat="47.3993022916" lon="7.1859691650">
				<ele>614.2</ele>
				<time>2021-04-12T12:38:28+02:00</time>
				<extensions>
					<swisstopo:routepoint_id>918387638</swisstopo:routepoint_id>
				</extensions>
			</trkpt>
			<trkpt lat="47.3993018637" lon="7.1859690999">
				<ele>614.2</ele>
				<time>2021-04-12T12:38:29+02:00</time>
				<extensions>
					<swisstopo:routepoint_id>1376060877</swisstopo:routepoint_id>
				</extensions>
			</trkpt>
			<trkpt lat="47.3993014718" lon="7.1859690312">
				<ele>614.1</ele>
				<time>2021-04-12T12:38:30+02:00</time>
				<extensions>
					<swisstopo:routepoint_id>1203765196</swisstopo:routepoint_id>
				</extensions>
			</trkpt>
			<trkpt lat="47.3993011759" lon="7.1859689706">
				<ele>614.2</ele>
				<time>2021-04-12T12:38:31+02:00</time>
				<extensions>
					<swisstopo:routepoint_id>238210785</swisstopo:routepoint_id>
				</extensions>
			</trkpt>
			<trkpt lat="47.3993009872" lon="7.1859689337">
				<ele>614.2</ele>
				<time>2021-04-12T12:38:32+02:00</time>
				<extensions>
					<swisstopo:routepoint_id>699145487</swisstopo:routepoint_id>
				</extensions>
			</trkpt>
			<trkpt lat="47.3993008858" lon="7.1859689455">
				<ele>614.2</ele>
				<time>2021-04-12T12:38:33+02:00</time>
				<extensions>
					<swisstopo:routepoint_id>1655167272</swisstopo:routepoint_id>
				</extensions>
			</trkpt>
			<trkpt lat="47.3993008610" lon="7.1859689442">
				<ele>614.2</ele>
				<time>2021-04-12T12:38:34+02:00</time>
				<extensions>
					<swisstopo:routepoint_id>2040660913</swisstopo:routepoint_id>
				</extensions>
			</trkpt>
			<trkpt lat="47.3993008995" lon="7.1859689115">
				<ele>614.1</ele>
				<time>2021-04-12T12:38:35+02:00</time>
				<extensions>
					<swisstopo:routepoint_id>2074122201</swisstopo:routepoint_id>
				</extensions>
			</trkpt>
			<trkpt lat="47.3993009443" lon="7.1859688883">
				<ele>614.1</ele>
				<time>2021-04-12T12:38:36+02:00</time>
				<extensions>
					<swisstopo:routepoint_id>1817274103</swisstopo:routepoint_id>
				</extensions>
			</trkpt>
			<trkpt lat="47.3993009634" lon="7.1859688862">
				<ele>614.1</ele>
				<time>2021-04-12T12:38:37+02:00</time>
				<extensions>
					<swisstopo:routepoint_id>1413421487</swisstopo:routepoint_id>
				</extensions>
			</trkpt>
			<trkpt lat="47.3993009081" lon="7.1859688735">
				<ele>614.1</ele>
				<time>2021-04-12T12:38:38+02:00</time>
				<extensions>
					<swisstopo:routepoint_id>2058312542</swisstopo:routepoint_id>
				</extensions>
			</trkpt>
			<trkpt lat="47.3993007470" lon="7.1859688072">
				<ele>614.1</ele>
				<time>2021-04-12T12:38:39+02:00</time>
				<extensions>
					<swisstopo:routepoint_id>244823871</swisstopo:routepoint_id>
				</extensions>
			</trkpt>
			<trkpt lat="47.3993004697" lon="7.1859686972">
				<ele>614.2</ele>
				<time>2021-04-12T12:38:40+02:00</time>
				<extensions>
					<swisstopo:routepoint_id>176132245</swisstopo:routepoint_id>
				</extensions>
			</trkpt>
			<trkpt lat="47.3993001068" lon="7.1859685472">
				<ele>614.2</ele>
				<time>2021-04-12T12:38:41+02:00</time>
				<extensions>
					<swisstopo:routepoint_id>1022176149</swisstopo:routepoint_id>
				</extensions>
			</trkpt>
			<trkpt lat="47.3992996940" lon="7.1859683792">
				<ele>614.2</ele>
				<time>2021-04-12T12:38:42+02:00</time>
				<extensions>
					<swisstopo:routepoint_id>1992843890</swisstopo:routepoint_id>
				</extensions>
			</trkpt>
			<trkpt lat="47.3992993105" lon="7.1859682363">
				<ele>614.2</ele>
				<time>2021-04-12T12:38:43+02:00</time>
				<extensions>
					<swisstopo:routepoint_id>1572300618</swisstopo:routepoint_id>
				</extensions>
			</trkpt>
			<trkpt lat="47.3992989591" lon="7.1859681670">
				<ele>614.2</ele>
				<time>2021-04-12T12:38:44+02:00</time>
				<extensions>
					<swisstopo:routepoint_id>870210391</swisstopo:routepoint_id>
				</extensions>
			</trkpt>
			<trkpt lat="47.3992986565" lon="7.1859681494">
				<ele>614.2</ele>
				<time>2021-04-12T12:38:45+02:00</time>
				<extensions>
					<swisstopo:routepoint_id>1262405467</swisstopo:routepoint_id>
				</extensions>
			</trkpt>
			<trkpt lat="47.3992984508" lon="7.1859681811">
				<ele>614.2</ele>
				<time>2021-04-12T12:38:46+02:00</time>
				<extensions>
					<swisstopo:routepoint_id>110251509</swisstopo:routepoint_id>
				</extensions>
			</trkpt>
			<trkpt lat="47.3992984146" lon="7.1859682121">
				<ele>614.2</ele>
				<time>2021-04-12T12:38:47+02:00</time>
				<extensions>
					<swisstopo:routepoint_id>1866208049</swisstopo:routepoint_id>
				</extensions>
			</trkpt>
			<trkpt lat="47.3992985471" lon="7.1859682473">
				<ele>614.2</ele>
				<time>2021-04-12T12:38:48+02:00</time>
				<extensions>
					<swisstopo:routepoint_id>1360015108</swisstopo:routepoint_id>
				</extensions>
			</trkpt>
			<trkpt lat="47.3992988242" lon="7.1859683054">
				<ele>614.2</ele>
				<time>2021-04-12T12:38:49+02:00</time>
				<extensions>
					<swisstopo:routepoint_id>2105465135</swisstopo:routepoint_id>
				</extensions>
			</trkpt>
			<trkpt lat="47.3992991526" lon="7.1859683908">
				<ele>614.2</ele>
				<time>2021-04-12T12:38:50+02:00</time>
				<extensions>
					<swisstopo:routepoint_id>316988679</swisstopo:routepoint_id>
				</extensions>
			</trkpt>
			<trkpt lat="47.3992994554" lon="7.1859684630">
				<ele>614.2</ele>
				<time>2021-04-12T12:38:51+02:00</time>
				<extensions>
					<swisstopo:routepoint_id>1869283393</swisstopo:routepoint_id>
				</extensions>
			</trkpt>
			<trkpt lat="47.3992996989" lon="7.1859685563">
				<ele>614.2</ele>
				<time>2021-04-12T12:38:52+02:00</time>
				<extensions>
					<swisstopo:routepoint_id>1507714188</swisstopo:routepoint_id>
				</extensions>
			</trkpt>
			<trkpt lat="47.3992998805" lon="7.1859686738">
				<ele>614.2</ele>
				<time>2021-04-12T12:38:53+02:00</time>
				<extensions>
					<swisstopo:routepoint_id>1992806763</swisstopo:routepoint_id>
				</extensions>
			</trkpt>
			<trkpt lat="47.3993000112" lon="7.1859687956">
				<ele>614.2</ele>
				<time>2021-04-12T12:38:54+02:00</time>
				<extensions>
					<swisstopo:routepoint_id>948307129</swisstopo:routepoint_id>
				</extensions>
			</trkpt>
			<trkpt lat="47.3993000901" lon="7.1859689252">
				<ele>614.2</ele>
				<time>2021-04-12T12:38:55+02:00</time>
				<extensions>
					<swisstopo:routepoint_id>1721772716</swisstopo:routepoint_id>
				</extensions>
			</trkpt>
			<trkpt lat="47.3993001160" lon="7.1859690613">
				<ele>614.2</ele>
				<time>2021-04-12T12:38:56+02:00</time>
				<extensions>
					<swisstopo:routepoint_id>491894487</swisstopo:routepoint_id>
				</extensions>
			</trkpt>
			<trkpt lat="47.3993001122" lon="7.1859692085">
				<ele>614.2</ele>
				<time>2021-04-12T12:38:57+02:00</time>
				<extensions>
					<swisstopo:routepoint_id>1606085706</swisstopo:routepoint_id>
				</extensions>
			</trkpt>
			<trkpt lat="47.3993001141" lon="7.1859693756">
				<ele>614.2</ele>
				<time>2021-04-12T12:38:58+02:00</time>
				<extensions>
					<swisstopo:routepoint_id>1760501599</swisstopo:routepoint_id>
				</extensions>
			</trkpt>
			<trkpt lat="47.3993001332" lon="7.1859695546">
				<ele>614.2</ele>
				<time>2021-04-12T12:38:59+02:00</time>
				<extensions>
					<swisstopo:routepoint_id>720686027</swisstopo:routepoint_id>
				</extensions>
			</trkpt>
			<trkpt lat="47.3993001545" lon="7.1859697508">
				<ele>614.2</ele>
				<time>2021-04-12T12:39:00+02:00</time>
				<extensions>
					<swisstopo:routepoint_id>762286709</swisstopo:routepoint_id>
				</extensions>
			</trkpt>
			<trkpt lat="47.3993001730" lon="7.1859699466">
				<ele>614.2</ele>
				<time>2021-04-12T12:39:01+02:00</time>
				<extensions>
					<swisstopo:routepoint_id>2012763808</swisstopo:routepoint_id>
				</extensions>
			</trkpt>
			<trkpt lat="47.3993002029" lon="7.1859701156">
				<ele>614.2</ele>
				<time>2021-04-12T12:39:02+02:00</time>
				<extensions>
					<swisstopo:routepoint_id>1358913512</swisstopo:routepoint_id>
				</extensions>
			</trkpt>
			<trkpt lat="47.3993002547" lon="7.1859702340">
				<ele>614.2</ele>
				<time>2021-04-12T12:39:03+02:00</time>
				<extensions>
					<swisstopo:routepoint_id>770810339</swisstopo:routepoint_id>
				</extensions>
			</trkpt>
			<trkpt lat="47.3993003330" lon="7.1859703089">
				<ele>614.2</ele>
				<time>2021-04-12T12:39:04+02:00</time>
				<extensions>
					<swisstopo:routepoint_id>1388008869</swisstopo:routepoint_id>
				</extensions>
			</trkpt>
			<trkpt lat="47.3993004647" lon="7.1859703480">
				<ele>614.2</ele>
				<time>2021-04-12T12:39:05+02:00</time>
				<extensions>
					<swisstopo:routepoint_id>150203922</swisstopo:routepoint_id>
				</extensions>
			</trkpt>
			<trkpt lat="47.3993006264" lon="7.1859703581">
				<ele>614.2</ele>
				<time>2021-04-12T12:39:06+02:00</time>
				<extensions>
					<swisstopo:routepoint_id>1184031829</swisstopo:routepoint_id>
				</extensions>
			</trkpt>
			<trkpt lat="47.3993007907" lon="7.1859703563">
				<ele>614.2</ele>
				<time>2021-04-12T12:39:07+02:00</time>
				<extensions>
					<swisstopo:routepoint_id>1439476901</swisstopo:routepoint_id>
				</extensions>
			</trkpt>
			<trkpt lat="47.3993009783" lon="7.1859703499">
				<ele>614.2</ele>
				<time>2021-04-12T12:39:08+02:00</time>
				<extensions>
					<swisstopo:routepoint_id>1884991652</swisstopo:routepoint_id>
				</extensions>
			</trkpt>
			<trkpt lat="47.3993012085" lon="7.1859703564">
				<ele>614.2</ele>
				<time>2021-04-12T12:39:09+02:00</time>
				<extensions>
					<swisstopo:routepoint_id>1375934620</swisstopo:routepoint_id>
				</extensions>
			</trkpt>
			<trkpt lat="47.3993014631" lon="7.1859703925">
				<ele>614.2</ele>
				<time>2021-04-12T12:39:10+02:00</time>
				<extensions>
					<swisstopo:routepoint_id>1229247444</swisstopo:routepoint_id>
				</extensions>
			</trkpt>
			<trkpt lat="47.3993017193" lon="7.1859704515">
				<ele>614.1</ele>
				<time>2021-04-12T12:39:11+02:00</time>
				<extensions>
					<swisstopo:routepoint_id>1169107168</swisstopo:routepoint_id>
				</extensions>
			</trkpt>
			<trkpt lat="47.3993019591" lon="7.1859705149">
				<ele>614.1</ele>
				<time>2021-04-12T12:39:12+02:00</time>
				<extensions>
					<swisstopo:routepoint_id>1856286173</swisstopo:routepoint_id>
				</extensions>
			</trkpt>
			<trkpt lat="47.3993021845" lon="7.1859705800">
				<ele>614.1</ele>
				<time>2021-04-12T12:39:13+02:00</time>
				<extensions>
					<swisstopo:routepoint_id>2106769642</swisstopo:routepoint_id>
				</extensions>
			</trkpt>
			<trkpt lat="47.3993024180" lon="7.1859706406">
				<ele>614.1</ele>
				<time>2021-04-12T12:39:14+02:00</time>
				<extensions>
					<swisstopo:routepoint_id>767001358</swisstopo:routepoint_id>
				</extensions>
			</trkpt>
			<trkpt lat="47.3993026437" lon="7.1859706910">
				<ele>614.1</ele>
				<time>2021-04-12T12:39:15+02:00</time>
				<extensions>
					<swisstopo:routepoint_id>1794974612</swisstopo:routepoint_id>
				</extensions>
			</trkpt>
			<trkpt lat="47.3993028610" lon="7.1859707358">
				<ele>614.1</ele>
				<time>2021-04-12T12:39:16+02:00</time>
				<extensions>
					<swisstopo:routepoint_id>288030828</swisstopo:routepoint_id>
				</extensions>
			</trkpt>
			<trkpt lat="47.3993030693" lon="7.1859707861">
				<ele>614.1</ele>
				<time>2021-04-12T12:39:17+02:00</time>
				<extensions>
					<swisstopo:routepoint_id>505985858</swisstopo:routepoint_id>
				</extensions>
			</trkpt>
			<trkpt lat="47.3993032305" lon="7.1859708538">
				<ele>614.1</ele>
				<time>2021-04-12T12:39:18+02:00</time>
				<extensions>
					<swisstopo:routepoint_id>69073286</swisstopo:routepoint_id>
				</extensions>
			</trkpt>
			<trkpt lat="47.3993033248" lon="7.1859709642">
				<ele>614.1</ele>
				<time>2021-04-12T12:39:19+02:00</time>
				<extensions>
					<swisstopo:routepoint_id>1273548422</swisstopo:routepoint_id>
				</extensions>
			</trkpt>
			<trkpt lat="47.3993033501" lon="7.1859711207">
				<ele>614.1</ele>
				<time>2021-04-12T12:39:20+02:00</time>
				<extensions>
					<swisstopo:routepoint_id>558818905</swisstopo:routepoint_id>
				</extensions>
			</trkpt>
			<trkpt lat="47.3993033105" lon="7.1859713276">
				<ele>614.1</ele>
				<time>2021-04-12T12:39:21+02:00</time>
				<extensions>
					<swisstopo:routepoint_id>1123348004</swisstopo:routepoint_id>
				</extensions>
			</trkpt>
			<trkpt lat="47.3993032122" lon="7.1859715941">
				<ele>614.1</ele>
				<time>2021-04-12T12:39:22+02:00</time>
				<extensions>
					<swisstopo:routepoint_id>1581162451</swisstopo:routepoint_id>
				</extensions>
			</trkpt>
			<trkpt lat="47.3993030593" lon="7.1859719052">
				<ele>614.1</ele>
				<time>2021-04-12T12:39:23+02:00</time>
				<extensions>
					<swisstopo:routepoint_id>1634665979</swisstopo:routepoint_id>
				</extensions>
			</trkpt>
			<trkpt lat="47.3993028956" lon="7.1859722412">
				<ele>614.1</ele>
				<time>2021-04-12T12:39:24+02:00</time>
				<extensions>
					<swisstopo:routepoint_id>1072812982</swisstopo:routepoint_id>
				</extensions>
			</trkpt>
			<trkpt lat="47.3993027466" lon="7.1859725755">
				<ele>614.1</ele>
				<time>2021-04-12T12:39:25+02:00</time>
				<extensions>
					<swisstopo:routepoint_id>495088262</swisstopo:routepoint_id>
				</extensions>
			</trkpt>
			<trkpt lat="47.3993026170" lon="7.1859729004">
				<ele>614.1</ele>
				<time>2021-04-12T12:39:26+02:00</time>
				<extensions>
					<swisstopo:routepoint_id>1596770956</swisstopo:routepoint_id>
				</extensions>
			</trkpt>
			<trkpt lat="47.3993025349" lon="7.1859732145">
				<ele>614.1</ele>
				<time>2021-04-12T12:39:27+02:00</time>
				<extensions>
					<swisstopo:routepoint_id>1973804580</swisstopo:routepoint_id>
				</extensions>
			</trkpt>
			<trkpt lat="47.3993025075" lon="7.1859735239">
				<ele>614.1</ele>
				<time>2021-04-12T12:39:28+02:00</time>
				<extensions>
					<swisstopo:routepoint_id>1553680851</swisstopo:routepoint_id>
				</extensions>
			</trkpt>
			<trkpt lat="47.3993025172" lon="7.1859738182">
				<ele>614.1</ele>
				<time>2021-04-12T12:39:29+02:00</time>
				<extensions>
					<swisstopo:routepoint_id>1460398884</swisstopo:routepoint_id>
				</extensions>
			</trkpt>
			<trkpt lat="47.3993025410" lon="7.1859740939">
				<ele>614.1</ele>
				<time>2021-04-12T12:39:30+02:00</time>
				<extensions>
					<swisstopo:routepoint_id>1333441825</swisstopo:routepoint_id>
				</extensions>
			</trkpt>
			<trkpt lat="47.3993025750" lon="7.1859743385">
				<ele>614.1</ele>
				<time>2021-04-12T12:39:31+02:00</time>
				<extensions>
					<swisstopo:routepoint_id>17412683</swisstopo:routepoint_id>
				</extensions>
			</trkpt>
			<trkpt lat="47.3993026017" lon="7.1859745312">
				<ele>614.1</ele>
				<time>2021-04-12T12:39:32+02:00</time>
				<extensions>
					<swisstopo:routepoint_id>597187189</swisstopo:routepoint_id>
				</extensions>
			</trkpt>
			<trkpt lat="47.3993026069" lon="7.1859746761">
				<ele>614.1</ele>
				<time>2021-04-12T12:39:33+02:00</time>
				<extensions>
					<swisstopo:routepoint_id>1734003092</swisstopo:routepoint_id>
				</extensions>
			</trkpt>
			<trkpt lat="47.3993025798" lon="7.1859747697">
				<ele>614.0</ele>
				<time>2021-04-12T12:39:34+02:00</time>
				<extensions>
					<swisstopo:routepoint_id>2036877454</swisstopo:routepoint_id>
				</extensions>
			</trkpt>
			<trkpt lat="47.3993025069" lon="7.1859748068">
				<ele>614.0</ele>
				<time>2021-04-12T12:39:35+02:00</time>
				<extensions>
					<swisstopo:routepoint_id>762552551</swisstopo:routepoint_id>
				</extensions>
			</trkpt>
			<trkpt lat="47.3993023790" lon="7.1859748256">
				<ele>614.0</ele>
				<time>2021-04-12T12:39:36+02:00</time>
				<extensions>
					<swisstopo:routepoint_id>38319361</swisstopo:routepoint_id>
				</extensions>
			</trkpt>
			<trkpt lat="47.3993021964" lon="7.1859748486">
				<ele>614.0</ele>
				<time>2021-04-12T12:39:37+02:00</time>
				<extensions>
					<swisstopo:routepoint_id>1935889874</swisstopo:routepoint_id>
				</extensions>
			</trkpt>
			<trkpt lat="47.3993019823" lon="7.1859749130">
				<ele>614.0</ele>
				<time>2021-04-12T12:39:38+02:00</time>
				<extensions>
					<swisstopo:routepoint_id>2123860268</swisstopo:routepoint_id>
				</extensions>
			</trkpt>
			<trkpt lat="47.3993017715" lon="7.1859750271">
				<ele>614.0</ele>
				<time>2021-04-12T12:39:39+02:00</time>
				<extensions>
					<swisstopo:routepoint_id>246343842</swisstopo:routepoint_id>
				</extensions>
			</trkpt>
			<trkpt lat="47.3993015636" lon="7.1859751677">
				<ele>614.0</ele>
				<time>2021-04-12T12:39:40+02:00</time>
				<extensions>
					<swisstopo:routepoint_id>2099964725</swisstopo:routepoint_id>
				</extensions>
			</trkpt>
			<trkpt lat="47.3993013541" lon="7.1859753071">
				<ele>614.0</ele>
				<time>2021-04-12T12:39:41+02:00</time>
				<extensions>
					<swisstopo:routepoint_id>213394630</swisstopo:routepoint_id>
				</extensions>
			</trkpt>
			<trkpt lat="47.3993011326" lon="7.1859754291">
				<ele>614.0</ele>
				<time>2021-04-12T12:39:42+02:00</time>
				<extensions>
					<swisstopo:routepoint_id>225855920</swisstopo:routepoint_id>
				</extensions>
			</trkpt>
			<trkpt lat="47.3993009081" lon="7.1859755296">
				<ele>614.0</ele>
				<time>2021-04-12T12:39:43+02:00</time>
				<extensions>
					<swisstopo:routepoint_id>1356843191</swisstopo:routepoint_id>
				</extensions>
			</trkpt>
			<trkpt lat="47.3993007069" lon="7.1859755968">
				<ele>614.0</ele>
				<time>2021-04-12T12:39:44+02:00</time>
				<extensions>
					<swisstopo:routepoint_id>334663644</swisstopo:routepoint_id>
				</extensions>
			</trkpt>
			<trkpt lat="47.3993005350" lon="7.1859756230">
				<ele>614.0</ele>
				<time>2021-04-12T12:39:45+02:00</time>
				<extensions>
					<swisstopo:routepoint_id>432193215</swisstopo:routepoint_id>
				</extensions>
			</trkpt>
			<trkpt lat="47.3993004048" lon="7.1859756300">
				<ele>614.0</ele>
				<time>2021-04-12T12:39:46+02:00</time>
				<extensions>
					<swisstopo:routepoint_id>1081670351</swisstopo:routepoint_id>
				</extensions>
			</trkpt>
			<trkpt lat="47.3993003018" lon="7.1859756454">
				<ele>614.0</ele>
				<time>2021-04-12T12:39:47+02:00</time>
				<extensions>
					<swisstopo:routepoint_id>1184517402</swisstopo:routepoint_id>
				</extensions>
			</trkpt>
			<trkpt lat="47.3993001985" lon="7.1859756993">
				<ele>614.0</ele>
				<time>2021-04-12T12:39:48+02:00</time>
				<extensions>
					<swisstopo:routepoint_id>1010567724</swisstopo:routepoint_id>
				</extensions>
			</trkpt>
			<trkpt lat="47.3993001051" lon="7.1859758130">
				<ele>614.0</ele>
				<time>2021-04-12T12:39:49+02:00</time>
				<extensions>
					<swisstopo:routepoint_id>163573145</swisstopo:routepoint_id>
				</extensions>
			</trkpt>
			<trkpt lat="47.3993000069" lon="7.1859759875">
				<ele>614.0</ele>
				<time>2021-04-12T12:39:50+02:00</time>
				<extensions>
					<swisstopo:routepoint_id>394779855</swisstopo:routepoint_id>
				</extensions>
			</trkpt>
			<trkpt lat="47.3992998772" lon="7.1859762019">
				<ele>614.0</ele>
				<time>2021-04-12T12:39:51+02:00</time>
				<extensions>
					<swisstopo:routepoint_id>1488037402</swisstopo:routepoint_id>
				</extensions>
			</trkpt>
			<trkpt lat="47.3992997200" lon="7.1859764442">
				<ele>614.0</ele>
				<time>2021-04-12T12:39:52+02:00</time>
				<extensions>
					<swisstopo:routepoint_id>1997546099</swisstopo:routepoint_id>
				</extensions>
			</trkpt>
			<trkpt lat="47.3992995457" lon="7.1859767160">
				<ele>614.0</ele>
				<time>2021-04-12T12:39:53+02:00</time>
				<extensions>
					<swisstopo:routepoint_id>1145432342</swisstopo:routepoint_id>
				</extensions>
			</trkpt>
			<trkpt lat="47.3992993753" lon="7.1859770109">
				<ele>614.0</ele>
				<time>2021-04-12T12:39:54+02:00</time>
				<extensions>
					<swisstopo:routepoint_id>1237960286</swisstopo:routepoint_id>
				</extensions>
			</trkpt>
			<trkpt lat="47.3992992312" lon="7.1859773121">
				<ele>614.0</ele>
				<time>2021-04-12T12:39:55+02:00</time>
				<extensions>
					<swisstopo:routepoint_id>1576954666</swisstopo:routepoint_id>
				</extensions>
			</trkpt>
			<trkpt lat="47.3992991040" lon="7.1859776137">
				<ele>614.0</ele>
				<time>2021-04-12T12:39:56+02:00</time>
				<extensions>
					<swisstopo:routepoint_id>1781383835</swisstopo:routepoint_id>
				</extensions>
			</trkpt>
			<trkpt lat="47.3992989943" lon="7.1859779141">
				<ele>614.0</ele>
				<time>2021-04-12T12:39:57+02:00</time>
				<extensions>
					<swisstopo:routepoint_id>1648592018</swisstopo:routepoint_id>
				</extensions>
			</trkpt>
			<trkpt lat="47.3992989139" lon="7.1859782134">
				<ele>614.0</ele>
				<time>2021-04-12T12:39:58+02:00</time>
				<extensions>
					<swisstopo:routepoint_id>1052032932</swisstopo:routepoint_id>
				</extensions>
			</trkpt>
			<trkpt lat="47.3992988542" lon="7.1859785162">
				<ele>614.0</ele>
				<time>2021-04-12T12:39:59+02:00</time>
				<extensions>
					<swisstopo:routepoint_id>1284622373</swisstopo:routepoint_id>
				</extensions>
			</trkpt>
			<trkpt lat="47.3992988064" lon="7.1859788204">
				<ele>614.0</ele>
				<time>2021-04-12T12:40:00+02:00</time>
				<extensions>
					<swisstopo:routepoint_id>1995119720</swisstopo:routepoint_id>
				</extensions>
			</trkpt>
			<trkpt lat="47.3992987673" lon="7.1859791140">
				<ele>614.0</ele>
				<time>2021-04-12T12:40:01+02:00</time>
				<extensions>
					<swisstopo:routepoint_id>1167469782</swisstopo:routepoint_id>
				</extensions>
			</trkpt>
			<trkpt lat="47.3992987462" lon="7.1859793858">
				<ele>614.0</ele>
				<time>2021-04-12T12:40:02+02:00</time>
				<extensions>
					<swisstopo:routepoint_id>106543435</swisstopo:routepoint_id>
				</extensions>
			</trkpt>
			<trkpt lat="47.3992987281" lon="7.1859796421">
				<ele>614.0</ele>
				<time>2021-04-12T12:40:03+02:00</time>
				<extensions>
					<swisstopo:routepoint_id>1821634094</swisstopo:routepoint_id>
				</extensions>
			</trkpt>
			<trkpt lat="47.3992987064" lon="7.1859798842">
				<ele>614.0</ele>
				<time>2021-04-12T12:40:04+02:00</time>
				<extensions>
					<swisstopo:routepoint_id>1677346226</swisstopo:routepoint_id>
				</extensions>
			</trkpt>
			<trkpt lat="47.3992987065" lon="7.1859801375">
				<ele>614.0</ele>
				<time>2021-04-12T12:40:05+02:00</time>
				<extensions>
					<swisstopo:routepoint_id>1140186213</swisstopo:routepoint_id>
				</extensions>
			</trkpt>
			<trkpt lat="47.3992987261" lon="7.1859804063">
				<ele>614.0</ele>
				<time>2021-04-12T12:40:06+02:00</time>
				<extensions>
					<swisstopo:routepoint_id>1113099710</swisstopo:routepoint_id>
				</extensions>
			</trkpt>
			<trkpt lat="47.3992987861" lon="7.1859806830">
				<ele>614.0</ele>
				<time>2021-04-12T12:40:07+02:00</time>
				<extensions>
					<swisstopo:routepoint_id>1136776953</swisstopo:routepoint_id>
				</extensions>
			</trkpt>
			<trkpt lat="47.3992989019" lon="7.1859809704">
				<ele>614.0</ele>
				<time>2021-04-12T12:40:08+02:00</time>
				<extensions>
					<swisstopo:routepoint_id>1795725359</swisstopo:routepoint_id>
				</extensions>
			</trkpt>
			<trkpt lat="47.3992990743" lon="7.1859812510">
				<ele>614.0</ele>
				<time>2021-04-12T12:40:09+02:00</time>
				<extensions>
					<swisstopo:routepoint_id>20933775</swisstopo:routepoint_id>
				</extensions>
			</trkpt>
			<trkpt lat="47.3992992671" lon="7.1859815020">
				<ele>614.0</ele>
				<time>2021-04-12T12:40:10+02:00</time>
				<extensions>
					<swisstopo:routepoint_id>1794121964</swisstopo:routepoint_id>
				</extensions>
			</trkpt>
			<trkpt lat="47.3992994568" lon="7.1859817110">
				<ele>614.0</ele>
				<time>2021-04-12T12:40:11+02:00</time>
				<extensions>
					<swisstopo:routepoint_id>989961421</swisstopo:routepoint_id>
				</extensions>
			</trkpt>
			<trkpt lat="47.3992995894" lon="7.1859818839">
				<ele>614.0</ele>
				<time>2021-04-12T12:40:12+02:00</time>
				<extensions>
					<swisstopo:routepoint_id>1725789438</swisstopo:routepoint_id>
				</extensions>
			</trkpt>
			<trkpt lat="47.3992996588" lon="7.1859820200">
				<ele>614.0</ele>
				<time>2021-04-12T12:40:13+02:00</time>
				<extensions>
					<swisstopo:routepoint_id>1428948084</swisstopo:routepoint_id>
				</extensions>
			</trkpt>
			<trkpt lat="47.3992996789" lon="7.1859821204">
				<ele>614.1</ele>
				<time>2021-04-12T12:40:14+02:00</time>
				<extensions>
					<swisstopo:routepoint_id>1020823387</swisstopo:routepoint_id>
				</extensions>
			</trkpt>
			<trkpt lat="47.3992996823" lon="7.1859821719">
				<ele>614.1</ele>
				<time>2021-04-12T12:40:15+02:00</time>
				<extensions>
					<swisstopo:routepoint_id>731809426</swisstopo:routepoint_id>
				</extensions>
			</trkpt>
			<trkpt lat="47.3992996799" lon="7.1859821670">
				<ele>614.1</ele>
				<time>2021-04-12T12:40:16+02:00</time>
				<extensions>
					<swisstopo:routepoint_id>882176413</swisstopo:routepoint_id>
				</extensions>
			</trkpt>
			<trkpt lat="47.3992996682" lon="7.1859821292">
				<ele>614.1</ele>
				<time>2021-04-12T12:40:17+02:00</time>
				<extensions>
					<swisstopo:routepoint_id>511874403</swisstopo:routepoint_id>
				</extensions>
			</trkpt>
			<trkpt lat="47.3992996713" lon="7.1859820844">
				<ele>614.1</ele>
				<time>2021-04-12T12:40:18+02:00</time>
				<extensions>
					<swisstopo:routepoint_id>253601339</swisstopo:routepoint_id>
				</extensions>
			</trkpt>
			<trkpt lat="47.3992997015" lon="7.1859820515">
				<ele>614.2</ele>
				<time>2021-04-12T12:40:19+02:00</time>
				<extensions>
					<swisstopo:routepoint_id>1670148925</swisstopo:routepoint_id>
				</extensions>
			</trkpt>
			<trkpt lat="47.3992997531" lon="7.1859820317">
				<ele>614.2</ele>
				<time>2021-04-12T12:40:20+02:00</time>
				<extensions>
					<swisstopo:routepoint_id>434232538</swisstopo:routepoint_id>
				</extensions>
			</trkpt>
			<trkpt lat="47.3992998300" lon="7.1859820170">
				<ele>614.2</ele>
				<time>2021-04-12T12:40:21+02:00</time>
				<extensions>
					<swisstopo:routepoint_id>996833660</swisstopo:routepoint_id>
				</extensions>
			</trkpt>
			<trkpt lat="47.3992999593" lon="7.1859819829">
				<ele>614.2</ele>
				<time>2021-04-12T12:40:22+02:00</time>
				<extensions>
					<swisstopo:routepoint_id>1263393373</swisstopo:routepoint_id>
				</extensions>
			</trkpt>
			<trkpt lat="47.3993001305" lon="7.1859819418">
				<ele>614.2</ele>
				<time>2021-04-12T12:40:23+02:00</time>
				<extensions>
					<swisstopo:routepoint_id>1681602122</swisstopo:routepoint_id>
				</extensions>
			</trkpt>
			<trkpt lat="47.3993003357" lon="7.1859819117">
				<ele>614.2</ele>
				<time>2021-04-12T12:40:24+02:00</time>
				<extensions>
					<swisstopo:routepoint_id>1802069934</swisstopo:routepoint_id>
				</extensions>
			</trkpt>
			<trkpt lat="47.3993005744" lon="7.1859818996">
				<ele>614.2</ele>
				<time>2021-04-12T12:40:25+02:00</time>
				<extensions>
					<swisstopo:routepoint_id>1427507097</swisstopo:routepoint_id>
				</extensions>
			</trkpt>
			<trkpt lat="47.3993008350" lon="7.1859819027">
				<ele>614.2</ele>
				<time>2021-04-12T12:40:26+02:00</time>
				<extensions>
					<swisstopo:routepoint_id>424474995</swisstopo:routepoint_id>
				</extensions>
			</trkpt>
			<trkpt lat="47.3993011127" lon="7.1859819200">
				<ele>614.1</ele>
				<time>2021-04-12T12:40:27+02:00</time>
				<extensions>
					<swisstopo:routepoint_id>210565631</swisstopo:routepoint_id>
				</extensions>
			</trkpt>
			<trkpt lat="47.3993013751" lon="7.1859819498">
				<ele>614.1</ele>
				<time>2021-04-12T12:40:28+02:00</time>
				<extensions>
					<swisstopo:routepoint_id>2070993608</swisstopo:routepoint_id>
				</extensions>
			</trkpt>
			<trkpt lat="47.3993016121" lon="7.1859819866">
				<ele>614.1</ele>
				<time>2021-04-12T12:40:29+02:00</time>
				<extensions>
					<swisstopo:routepoint_id>774619080</swisstopo:routepoint_id>
				</extensions>
			</trkpt>
			<trkpt lat="47.3993018157" lon="7.1859820057">
				<ele>614.1</ele>
				<time>2021-04-12T12:40:30+02:00</time>
				<extensions>
					<swisstopo:routepoint_id>977009446</swisstopo:routepoint_id>
				</extensions>
			</trkpt>
			<trkpt lat="47.3993019782" lon="7.1859820028">
				<ele>614.1</ele>
				<time>2021-04-12T12:40:31+02:00</time>
				<extensions>
					<swisstopo:routepoint_id>937793960</swisstopo:routepoint_id>
				</extensions>
			</trkpt>
			<trkpt lat="47.3993021043" lon="7.1859819882">
				<ele>614.1</ele>
				<time>2021-04-12T12:40:32+02:00</time>
				<extensions>
					<swisstopo:routepoint_id>1120600387</swisstopo:routepoint_id>
				</extensions>
			</trkpt>
			<trkpt lat="47.3993021767" lon="7.1859819554">
				<ele>614.1</ele>
				<time>2021-04-12T12:40:33+02:00</time>
				<extensions>
					<swisstopo:routepoint_id>499120119</swisstopo:routepoint_id>
				</extensions>
			</trkpt>
			<trkpt lat="47.3993022132" lon="7.1859818961">
				<ele>614.1</ele>
				<time>2021-04-12T12:40:34+02:00</time>
				<extensions>
					<swisstopo:routepoint_id>640714851</swisstopo:routepoint_id>
				</extensions>
			</trkpt>
			<trkpt lat="47.3993022374" lon="7.1859818196">
				<ele>614.1</ele>
				<time>2021-04-12T12:40:35+02:00</time>
				<extensions>
					<swisstopo:routepoint_id>1011494699</swisstopo:routepoint_id>
				</extensions>
			</trkpt>
			<trkpt lat="47.3993022442" lon="7.1859817395">
				<ele>614.1</ele>
				<time>2021-04-12T12:40:36+02:00</time>
				<extensions>
					<swisstopo:routepoint_id>710856441</swisstopo:routepoint_id>
				</extensions>
			</trkpt>
			<trkpt lat="47.3993022183" lon="7.1859816480">
				<ele>614.0</ele>
				<time>2021-04-12T12:40:37+02:00</time>
				<extensions>
					<swisstopo:routepoint_id>912675626</swisstopo:routepoint_id>
				</extensions>
			</trkpt>
			<trkpt lat="47.3993021597" lon="7.1859815412">
				<ele>614.0</ele>
				<time>2021-04-12T12:40:38+02:00</time>
				<extensions>
					<swisstopo:routepoint_id>2011039308</swisstopo:routepoint_id>
				</extensions>
			</trkpt>
			<trkpt lat="47.3993020653" lon="7.1859814376">
				<ele>614.0</ele>
				<time>2021-04-12T12:40:39+02:00</time>
				<extensions>
					<swisstopo:routepoint_id>292529423</swisstopo:routepoint_id>
				</extensions>
			</trkpt>
			<trkpt lat="47.3993019545" lon="7.1859813413">
				<ele>614.0</ele>
				<time>2021-04-12T12:40:40+02:00</time>
				<extensions>
					<swisstopo:routepoint_id>951944378</swisstopo:routepoint_id>
				</extensions>
			</trkpt>
			<trkpt lat="47.3993018457" lon="7.1859812502">
				<ele>614.0</ele>
				<time>2021-04-12T12:40:41+02:00</time>
				<extensions>
					<swisstopo:routepoint_id>575990896</swisstopo:routepoint_id>
				</extensions>
			</trkpt>
			<trkpt lat="47.3993017429" lon="7.1859811530">
				<ele>614.0</ele>
				<time>2021-04-12T12:40:42+02:00</time>
				<extensions>
					<swisstopo:routepoint_id>1970192043</swisstopo:routepoint_id>
				</extensions>
			</trkpt>
			<trkpt lat="47.3993016439" lon="7.1859810578">
				<ele>614.0</ele>
				<time>2021-04-12T12:40:43+02:00</time>
				<extensions>
					<swisstopo:routepoint_id>967313608</swisstopo:routepoint_id>
				</extensions>
			</trkpt>
			<trkpt lat="47.3993015412" lon="7.1859809587">
				<ele>614.0</ele>
				<time>2021-04-12T12:40:44+02:00</time>
				<extensions>
					<swisstopo:routepoint_id>1188601866</swisstopo:routepoint_id>
				</extensions>
			</trkpt>
			<trkpt lat="47.3993014131" lon="7.1859808483">
				<ele>614.0</ele>
				<time>2021-04-12T12:40:45+02:00</time>
				<extensions>
					<swisstopo:routepoint_id>938677468</swisstopo:routepoint_id>
				</extensions>
			</trkpt>
			<trkpt lat="47.3993012623" lon="7.1859807249">
				<ele>614.0</ele>
				<time>2021-04-12T12:40:46+02:00</time>
				<extensions>
					<swisstopo:routepoint_id>937333814</swisstopo:routepoint_id>
				</extensions>
			</trkpt>
			<trkpt lat="47.3993011133" lon="7.1859805827">
				<ele>614.0</ele>
				<time>2021-04-12T12:40:47+02:00</time>
				<extensions>
					<swisstopo:routepoint_id>1976861153</swisstopo:routepoint_id>
				</extensions>
			</trkpt>
			<trkpt lat="47.3993009716" lon="7.1859804287">
				<ele>614.0</ele>
				<time>2021-04-12T12:40:48+02:00</time>
				<extensions>
					<swisstopo:routepoint_id>1385895734</swisstopo:routepoint_id>
				</extensions>
			</trkpt>
			<trkpt lat="47.3993008518" lon="7.1859802757">
				<ele>614.0</ele>
				<time>2021-04-12T12:40:49+02:00</time>
				<extensions>
					<swisstopo:routepoint_id>1141965976</swisstopo:routepoint_id>
				</extensions>
			</trkpt>
			<trkpt lat="47.3993007691" lon="7.1859801177">
				<ele>614.0</ele>
				<time>2021-04-12T12:40:50+02:00</time>
				<extensions>
					<swisstopo:routepoint_id>960805393</swisstopo:routepoint_id>
				</extensions>
			</trkpt>
			<trkpt lat="47.3993007290" lon="7.1859799708">
				<ele>614.0</ele>
				<time>2021-04-12T12:40:51+02:00</time>
				<extensions>
					<swisstopo:routepoint_id>1326698358</swisstopo:routepoint_id>
				</extensions>
			</trkpt>
			<trkpt lat="47.3993007223" lon="7.1859798458">
				<ele>614.0</ele>
				<time>2021-04-12T12:40:52+02:00</time>
				<extensions>
					<swisstopo:routepoint_id>496596105</swisstopo:routepoint_id>
				</extensions>
			</trkpt>
			<trkpt lat="47.3993007241" lon="7.1859797356">
				<ele>614.0</ele>
				<time>2021-04-12T12:40:53+02:00</time>
				<extensions>
					<swisstopo:routepoint_id>1169284493</swisstopo:routepoint_id>
				</extensions>
			</trkpt>
			<trkpt lat="47.3993007187" lon="7.1859796344">
				<ele>614.0</ele>
				<time>2021-04-12T12:40:54+02:00</time>
				<extensions>
					<swisstopo:routepoint_id>541620154</swisstopo:routepoint_id>
				</extensions>
			</trkpt>
			<trkpt lat="47.3993007186" lon="7.1859795427">
				<ele>614.0</ele>
				<time>2021-04-12T12:40:55+02:00</time>
				<extensions>
					<swisstopo:routepoint_id>1974232292</swisstopo:routepoint_id>
				</extensions>
			</trkpt>
			<trkpt lat="47.3993007448" lon="7.1859794797">
				<ele>614.0</ele>
				<time>2021-04-12T12:40:56+02:00</time>
				<extensions>
					<swisstopo:routepoint_id>152301847</swisstopo:routepoint_id>
				</extensions>
			</trkpt>
			<trkpt lat="47.3993008019" lon="7.1859794475">
				<ele>614.0</ele>
				<time>2021-04-12T12:40:57+02:00</time>
				<extensions>
					<swisstopo:routepoint_id>2084118952</swisstopo:routepoint_id>
				</extensions>
			</trkpt>
			<trkpt lat="47.3993008769" lon="7.1859794494">
				<ele>614.0</ele>
				<time>2021-04-12T12:40:58+02:00</time>
				<extensions>
					<swisstopo:routepoint_id>181460047</swisstopo:routepoint_id>
				</extensions>
			</trkpt>
			<trkpt lat="47.3993009753" lon="7.1859794874">
				<ele>614.0</ele>
				<time>2021-04-12T12:40:59+02:00</time>
				<extensions>
					<swisstopo:routepoint_id>372231189</swisstopo:routepoint_id>
				</extensions>
			</trkpt>
			<trkpt lat="47.3993011062" lon="7.1859795710">
				<ele>614.0</ele>
				<time>2021-04-12T12:41:00+02:00</time>
				<extensions>
					<swisstopo:routepoint_id>469729812</swisstopo:routepoint_id>
				</extensions>
			</trkpt>
			<trkpt lat="47.3993012433" lon="7.1859796962">
				<ele>614.0</ele>
				<time>2021-04-12T12:41:01+02:00</time>
				<extensions>
					<swisstopo:routepoint_id>599063912</swisstopo:routepoint_id>
				</extensions>
			</trkpt>
			<trkpt lat="47.3993013546" lon="7.1859798525">
				<ele>614.0</ele>
				<time>2021-04-12T12:41:02+02:00</time>
				<extensions>
					<swisstopo:routepoint_id>1063831848</swisstopo:routepoint_id>
				</extensions>
			</trkpt>
			<trkpt lat="47.3993014502" lon="7.1859800160">
				<ele>614.0</ele>
				<time>2021-04-12T12:41:03+02:00</time>
				<extensions>
					<swisstopo:routepoint_id>2020508061</swisstopo:routepoint_id>
				</extensions>
			</trkpt>
			<trkpt lat="47.3993015187" lon="7.1859801603">
				<ele>614.0</ele>
				<time>2021-04-12T12:41:04+02:00</time>
				<extensions>
					<swisstopo:routepoint_id>520071216</swisstopo:routepoint_id>
				</extensions>
			</trkpt>
			<trkpt lat="47.3993015501" lon="7.1859802790">
				<ele>614.0</ele>
				<time>2021-04-12T12:41:05+02:00</time>
				<extensions>
					<swisstopo:routepoint_id>578484022</swisstopo:routepoint_id>
				</extensions>
			</trkpt>
			<trkpt lat="47.3993015143" lon="7.1859803691">
				<ele>614.0</ele>
				<time>2021-04-12T12:41:06+02:00</time>
				<extensions>
					<swisstopo:routepoint_id>922487785</swisstopo:routepoint_id>
				</extensions>
			</trkpt>
			<trkpt lat="47.3993014019" lon="7.1859804286">
				<ele>614.0</ele>
				<time>2021-04-12T12:41:07+02:00</time>
				<extensions>
					<swisstopo:routepoint_id>1567754802</swisstopo:routepoint_id>
				</extensions>
			</trkpt>
			<trkpt lat="47.3993012332" lon="7.1859804606">
				<ele>614.0</ele>
				<time>2021-04-12T12:41:08+02:00</time>
				<extensions>
					<swisstopo:routepoint_id>1778092171</swisstopo:routepoint_id>
				</extensions>
			</trkpt>
			<trkpt lat="47.3993010151" lon="7.1859804632">
				<ele>614.0</ele>
				<time>2021-04-12T12:41:09+02:00</time>
				<extensions>
					<swisstopo:routepoint_id>12686345</swisstopo:routepoint_id>
				</extensions>
			</trkpt>
			<trkpt lat="47.3993007714" lon="7.1859804401">
				<ele>614.0</ele>
				<time>2021-04-12T12:41:10+02:00</time>
				<extensions>
					<swisstopo:routepoint_id>618519362</swisstopo:routepoint_id>
				</extensions>
			</trkpt>
			<trkpt lat="47.3993005091" lon="7.1859803878">
				<ele>614.0</ele>
				<time>2021-04-12T12:41:11+02:00</time>
				<extensions>
					<swisstopo:routepoint_id>1634065654</swisstopo:routepoint_id>
				</extensions>
			</trkpt>
			<trkpt lat="47.3993002321" lon="7.1859803294">
				<ele>614.0</ele>
				<time>2021-04-12T12:41:12+02:00</time>
				<extensions>
					<swisstopo:routepoint_id>1720568942</swisstopo:routepoint_id>
				</extensions>
			</trkpt>
			<trkpt lat="47.3992999629" lon="7.1859802768">
				<ele>614.0</ele>
				<time>2021-04-12T12:41:13+02:00</time>
				<extensions>
					<swisstopo:routepoint_id>1734901339</swisstopo:routepoint_id>
				</extensions>
			</trkpt>
			<trkpt lat="47.3992997054" lon="7.1859802451">
				<ele>614.0</ele>
				<time>2021-04-12T12:41:14+02:00</time>
				<extensions>
					<swisstopo:routepoint_id>2101329254</swisstopo:routepoint_id>
				</extensions>
			</trkpt>
			<trkpt lat="47.3992994542" lon="7.1859802462">
				<ele>614.0</ele>
				<time>2021-04-12T12:41:15+02:00</time>
				<extensions>
					<swisstopo:routepoint_id>1672197063</swisstopo:routepoint_id>
				</extensions>
			</trkpt>
			<trkpt lat="47.3992992178" lon="7.1859802758">
				<ele>614.0</ele>
				<time>2021-04-12T12:41:16+02:00</time>
				<extensions>
					<swisstopo:routepoint_id>497549552</swisstopo:routepoint_id>
				</extensions>
			</trkpt>
			<trkpt lat="47.3992989948" lon="7.1859803280">
				<ele>614.0</ele>
				<time>2021-04-12T12:41:17+02:00</time>
				<extensions>
					<swisstopo:routepoint_id>13999046</swisstopo:routepoint_id>
				</extensions>
			</trkpt>
			<trkpt lat="47.3992987923" lon="7.1859803949">
				<ele>614.0</ele>
				<time>2021-04-12T12:41:18+02:00</time>
				<extensions>
					<swisstopo:routepoint_id>1206248599</swisstopo:routepoint_id>
				</extensions>
			</trkpt>
			<trkpt lat="47.3992986340" lon="7.1859804806">
				<ele>614.0</ele>
				<time>2021-04-12T12:41:19+02:00</time>
				<extensions>
					<swisstopo:routepoint_id>1174575713</swisstopo:routepoint_id>
				</extensions>
			</trkpt>
			<trkpt lat="47.3992985090" lon="7.1859805866">
				<ele>614.0</ele>
				<time>2021-04-12T12:41:20+02:00</time>
				<extensions>
					<swisstopo:routepoint_id>1424325167</swisstopo:routepoint_id>
				</extensions>
			</trkpt>
			<trkpt lat="47.3992984292" lon="7.1859807093">
				<ele>614.0</ele>
				<time>2021-04-12T12:41:21+02:00</time>
				<extensions>
					<swisstopo:routepoint_id>632868660</swisstopo:routepoint_id>
				</extensions>
			</trkpt>
			<trkpt lat="47.3992983890" lon="7.1859808467">
				<ele>614.0</ele>
				<time>2021-04-12T12:41:22+02:00</time>
				<extensions>
					<swisstopo:routepoint_id>137065029</swisstopo:routepoint_id>
				</extensions>
			</trkpt>
			<trkpt lat="47.3992983834" lon="7.1859809904">
				<ele>614.0</ele>
				<time>2021-04-12T12:41:23+02:00</time>
				<extensions>
					<swisstopo:routepoint_id>1549472819</swisstopo:routepoint_id>
				</extensions>
			</trkpt>
			<trkpt lat="47.3992984005" lon="7.1859811467">
				<ele>614.0</ele>
				<time>2021-04-12T12:41:24+02:00</time>
				<extensions>
					<swisstopo:routepoint_id>1602965411</swisstopo:routepoint_id>
				</extensions>
			</trkpt>
			<trkpt lat="47.3992984075" lon="7.1859813405">
				<ele>614.0</ele>
				<time>2021-04-12T12:41:25+02:00</time>
				<extensions>
					<swisstopo:routepoint_id>857311062</swisstopo:routepoint_id>
				</extensions>
			</trkpt>
			<trkpt lat="47.3992983976" lon="7.1859815399">
				<ele>614.1</ele>
				<time>2021-04-12T12:41:26+02:00</time>
				<extensions>
					<swisstopo:routepoint_id>1359231311</swisstopo:routepoint_id>
				</extensions>
			</trkpt>
			<trkpt lat="47.3992983557" lon="7.1859817181">
				<ele>614.1</ele>
				<time>2021-04-12T12:41:27+02:00</time>
				<extensions>
					<swisstopo:routepoint_id>1817090838</swisstopo:routepoint_id>
				</extensions>
			</trkpt>
			<trkpt lat="47.3992982731" lon="7.1859818529">
				<ele>614.1</ele>
				<time>2021-04-12T12:41:28+02:00</time>
				<extensions>
					<swisstopo:routepoint_id>480770279</swisstopo:routepoint_id>
				</extensions>
			</trkpt>
			<trkpt lat="47.3992981538" lon="7.1859819282">
				<ele>614.1</ele>
				<time>2021-04-12T12:41:29+02:00</time>
				<extensions>
					<swisstopo:routepoint_id>1472599139</swisstopo:routepoint_id>
				</extensions>
			</trkpt>
			<trkpt lat="47.3992980242" lon="7.1859819554">
				<ele>614.1</ele>
				<time>2021-04-12T12:41:30+02:00</time>
				<extensions>
					<swisstopo:routepoint_id>224697498</swisstopo:routepoint_id>
				</extensions>
			</trkpt>
			<trkpt lat="47.3992979096" lon="7.1859819482">
				<ele>614.1</ele>
				<time>2021-04-12T12:41:31+02:00</time>
				<extensions>
					<swisstopo:routepoint_id>1214597460</swisstopo:routepoint_id>
				</extensions>
			</trkpt>
			<trkpt lat="47.3992978251" lon="7.1859819042">
				<ele>614.1</ele>
				<time>2021-04-12T12:41:32+02:00</time>
				<extensions>
					<swisstopo:routepoint_id>1907445485</swisstopo:routepoint_id>
				</extensions>
			</trkpt>
			<trkpt lat="47.3992977524" lon="7.1859818290">
				<ele>614.1</ele>
				<time>2021-04-12T12:41:33+02:00</time>
				<extensions>
					<swisstopo:routepoint_id>800383979</swisstopo:routepoint_id>
				</extensions>
			</trkpt>
			<trkpt lat="47.3992976643" lon="7.1859817360">
				<ele>614.1</ele>
				<time>2021-04-12T12:41:34+02:00</time>
				<extensions>
					<swisstopo:routepoint_id>215970245</swisstopo:routepoint_id>
				</extensions>
			</trkpt>
			<trkpt lat="47.3992975733" lon="7.1859816394">
				<ele>614.1</ele>
				<time>2021-04-12T12:41:35+02:00</time>
				<extensions>
					<swisstopo:routepoint_id>564544285</swisstopo:routepoint_id>
				</extensions>
			</trkpt>
			<trkpt lat="47.3992974702" lon="7.1859815420">
				<ele>614.1</ele>
				<time>2021-04-12T12:41:36+02:00</time>
				<extensions>
					<swisstopo:routepoint_id>713045549</swisstopo:routepoint_id>
				</extensions>
			</trkpt>
			<trkpt lat="47.3992973413" lon="7.1859814329">
				<ele>614.1</ele>
				<time>2021-04-12T12:41:37+02:00</time>
				<extensions>
					<swisstopo:routepoint_id>1197791783</swisstopo:routepoint_id>
				</extensions>
			</trkpt>
			<trkpt lat="47.3992971810" lon="7.1859813201">
				<ele>614.1</ele>
				<time>2021-04-12T12:41:38+02:00</time>
				<extensions>
					<swisstopo:routepoint_id>774789903</swisstopo:routepoint_id>
				</extensions>
			</trkpt>
			<trkpt lat="47.3992969941" lon="7.1859812218">
				<ele>614.1</ele>
				<time>2021-04-12T12:41:39+02:00</time>
				<extensions>
					<swisstopo:routepoint_id>1700547960</swisstopo:routepoint_id>
				</extensions>
			</trkpt>
			<trkpt lat="47.3992967939" lon="7.1859811445">
				<ele>614.1</ele>
				<time>2021-04-12T12:41:40+02:00</time>
				<extensions>
					<swisstopo:routepoint_id>249705797</swisstopo:routepoint_id>
				</extensions>
			</trkpt>
			<trkpt lat="47.3992966110" lon="7.1859810763">
				<ele>614.1</ele>
				<time>2021-04-12T12:41:41+02:00</time>
				<extensions>
					<swisstopo:routepoint_id>622283941</swisstopo:routepoint_id>
				</extensions>
			</trkpt>
			<trkpt lat="47.3992964737" lon="7.1859810130">
				<ele>614.1</ele>
				<time>2021-04-12T12:41:42+02:00</time>
				<extensions>
					<swisstopo:routepoint_id>480835497</swisstopo:routepoint_id>
				</extensions>
			</trkpt>
			<trkpt lat="47.3992963950" lon="7.1859809412">
				<ele>614.1</ele>
				<time>2021-04-12T12:41:43+02:00</time>
				<extensions>
					<swisstopo:routepoint_id>421234418</swisstopo:routepoint_id>
				</extensions>
			</trkpt>
			<trkpt lat="47.3992963860" lon="7.1859808890">
				<ele>614.1</ele>
				<time>2021-04-12T12:41:44+02:00</time>
				<extensions>
					<swisstopo:routepoint_id>1580762814</swisstopo:routepoint_id>
				</extensions>
			</trkpt>
			<trkpt lat="47.3992964005" lon="7.1859808620">
				<ele>614.1</ele>
				<time>2021-04-12T12:41:45+02:00</time>
				<extensions>
					<swisstopo:routepoint_id>1360417861</swisstopo:routepoint_id>
				</extensions>
			</trkpt>
			<trkpt lat="47.3992964194" lon="7.1859808615">
				<ele>614.1</ele>
				<time>2021-04-12T12:41:46+02:00</time>
				<extensions>
					<swisstopo:routepoint_id>284600218</swisstopo:routepoint_id>
				</extensions>
			</trkpt>
			<trkpt lat="47.3992964443" lon="7.1859808703">
				<ele>614.1</ele>
				<time>2021-04-12T12:41:47+02:00</time>
				<extensions>
					<swisstopo:routepoint_id>829782057</swisstopo:routepoint_id>
				</extensions>
			</trkpt>
			<trkpt lat="47.3992964576" lon="7.1859808639">
				<ele>614.1</ele>
				<time>2021-04-12T12:41:48+02:00</time>
				<extensions>
					<swisstopo:routepoint_id>388228381</swisstopo:routepoint_id>
				</extensions>
			</trkpt>
			<trkpt lat="47.3992964537" lon="7.1859808371">
				<ele>614.1</ele>
				<time>2021-04-12T12:41:49+02:00</time>
				<extensions>
					<swisstopo:routepoint_id>899079881</swisstopo:routepoint_id>
				</extensions>
			</trkpt>
			<trkpt lat="47.3992964336" lon="7.1859807914">
				<ele>614.1</ele>
				<time>2021-04-12T12:41:50+02:00</time>
				<extensions>
					<swisstopo:routepoint_id>1140619675</swisstopo:routepoint_id>
				</extensions>
			</trkpt>
			<trkpt lat="47.3992963986" lon="7.1859807265">
				<ele>614.1</ele>
				<time>2021-04-12T12:41:51+02:00</time>
				<extensions>
					<swisstopo:routepoint_id>1955844603</swisstopo:routepoint_id>
				</extensions>
			</trkpt>
			<trkpt lat="47.3992963524" lon="7.1859806403">
				<ele>614.1</ele>
				<time>2021-04-12T12:41:52+02:00</time>
				<extensions>
					<swisstopo:routepoint_id>348057992</swisstopo:routepoint_id>
				</extensions>
			</trkpt>
			<trkpt lat="47.3992963046" lon="7.1859805331">
				<ele>614.1</ele>
				<time>2021-04-12T12:41:53+02:00</time>
				<extensions>
					<swisstopo:routepoint_id>65217116</swisstopo:routepoint_id>
				</extensions>
			</trkpt>
			<trkpt lat="47.3992962769" lon="7.1859804133">
				<ele>614.1</ele>
				<time>2021-04-12T12:41:54+02:00</time>
				<extensions>
					<swisstopo:routepoint_id>887408642</swisstopo:routepoint_id>
				</extensions>
			</trkpt>
			<trkpt lat="47.3992962662" lon="7.1859802811">
				<ele>614.2</ele>
				<time>2021-04-12T12:41:55+02:00</time>
				<extensions>
					<swisstopo:routepoint_id>403117679</swisstopo:routepoint_id>
				</extensions>
			</trkpt>
			<trkpt lat="47.3992962717" lon="7.1859801424">
				<ele>614.2</ele>
				<time>2021-04-12T12:41:56+02:00</time>
				<extensions>
					<swisstopo:routepoint_id>2035408315</swisstopo:routepoint_id>
				</extensions>
			</trkpt>
			<trkpt lat="47.3992962918" lon="7.1859799842">
				<ele>614.2</ele>
				<time>2021-04-12T12:41:57+02:00</time>
				<extensions>
					<swisstopo:routepoint_id>1840537142</swisstopo:routepoint_id>
				</extensions>
			</trkpt>
			<trkpt lat="47.3992963157" lon="7.1859798206">
				<ele>614.2</ele>
				<time>2021-04-12T12:41:58+02:00</time>
				<extensions>
					<swisstopo:routepoint_id>1553294206</swisstopo:routepoint_id>
				</extensions>
			</trkpt>
			<trkpt lat="47.3992963452" lon="7.1859796597">
				<ele>614.2</ele>
				<time>2021-04-12T12:41:59+02:00</time>
				<extensions>
					<swisstopo:routepoint_id>1404507310</swisstopo:routepoint_id>
				</extensions>
			</trkpt>
			<trkpt lat="47.3992963734" lon="7.1859795181">
				<ele>614.2</ele>
				<time>2021-04-12T12:42:00+02:00</time>
				<extensions>
					<swisstopo:routepoint_id>414111346</swisstopo:routepoint_id>
				</extensions>
			</trkpt>
			<trkpt lat="47.3992964107" lon="7.1859793995">
				<ele>614.2</ele>
				<time>2021-04-12T12:42:01+02:00</time>
				<extensions>
					<swisstopo:routepoint_id>2122375942</swisstopo:routepoint_id>
				</extensions>
			</trkpt>
			<trkpt lat="47.3992964635" lon="7.1859792895">
				<ele>614.2</ele>
				<time>2021-04-12T12:42:02+02:00</time>
				<extensions>
					<swisstopo:routepoint_id>1069080524</swisstopo:routepoint_id>
				</extensions>
			</trkpt>
			<trkpt lat="47.3992965241" lon="7.1859792006">
				<ele>614.2</ele>
				<time>2021-04-12T12:42:03+02:00</time>
				<extensions>
					<swisstopo:routepoint_id>40692419</swisstopo:routepoint_id>
				</extensions>
			</trkpt>
			<trkpt lat="47.3992965974" lon="7.1859791243">
				<ele>614.2</ele>
				<time>2021-04-12T12:42:04+02:00</time>
				<extensions>
					<swisstopo:routepoint_id>1017686387</swisstopo:routepoint_id>
				</extensions>
			</trkpt>
			<trkpt lat="47.3992966806" lon="7.1859790386">
				<ele>614.2</ele>
				<time>2021-04-12T12:42:05+02:00</time>
				<extensions>
					<swisstopo:routepoint_id>1695341601</swisstopo:routepoint_id>
				</extensions>
			</trkpt>
			<trkpt lat="47.3992967813" lon="7.1859789309">
				<ele>614.2</ele>
				<time>2021-04-12T12:42:06+02:00</time>
				<extensions>
					<swisstopo:routepoint_id>793259611</swisstopo:routepoint_id>
				</extensions>
			</trkpt>
			<trkpt lat="47.3992968782" lon="7.1859788149">
				<ele>614.2</ele>
				<time>2021-04-12T12:42:07+02:00</time>
				<extensions>
					<swisstopo:routepoint_id>735801501</swisstopo:routepoint_id>
				</extensions>
			</trkpt>
			<trkpt lat="47.3992969707" lon="7.1859787058">
				<ele>614.2</ele>
				<time>2021-04-12T12:42:08+02:00</time>
				<extensions>
					<swisstopo:routepoint_id>1404987881</swisstopo:routepoint_id>
				</extensions>
			</trkpt>
			<trkpt lat="47.3992970422" lon="7.1859786026">
				<ele>614.2</ele>
				<time>2021-04-12T12:42:09+02:00</time>
				<extensions>
					<swisstopo:routepoint_id>2048617202</swisstopo:routepoint_id>
				</extensions>
			</trkpt>
			<trkpt lat="47.3992970886" lon="7.1859785164">
				<ele>614.2</ele>
				<time>2021-04-12T12:42:10+02:00</time>
				<extensions>
					<swisstopo:routepoint_id>504001663</swisstopo:routepoint_id>
				</extensions>
			</trkpt>
			<trkpt lat="47.3992971168" lon="7.1859784495">
				<ele>614.2</ele>
				<time>2021-04-12T12:42:11+02:00</time>
				<extensions>
					<swisstopo:routepoint_id>1080446273</swisstopo:routepoint_id>
				</extensions>
			</trkpt>
			<trkpt lat="47.3992971420" lon="7.1859783954">
				<ele>614.2</ele>
				<time>2021-04-12T12:42:12+02:00</time>
				<extensions>
					<swisstopo:routepoint_id>2086274926</swisstopo:routepoint_id>
				</extensions>
			</trkpt>
			<trkpt lat="47.3992971715" lon="7.1859783479">
				<ele>614.2</ele>
				<time>2021-04-12T12:42:13+02:00</time>
				<extensions>
					<swisstopo:routepoint_id>2057176713</swisstopo:routepoint_id>
				</extensions>
			</trkpt>
			<trkpt lat="47.3992971935" lon="7.1859782920">
				<ele>614.3</ele>
				<time>2021-04-12T12:42:14+02:00</time>
				<extensions>
					<swisstopo:routepoint_id>482298691</swisstopo:routepoint_id>
				</extensions>
			</trkpt>
			<trkpt lat="47.3992972332" lon="7.1859782318">
				<ele>614.3</ele>
				<time>2021-04-12T12:42:15+02:00</time>
				<extensions>
					<swisstopo:routepoint_id>1390815859</swisstopo:routepoint_id>
				</extensions>
			</trkpt>
			<trkpt lat="47.3992973043" lon="7.1859781631">
				<ele>614.3</ele>
				<time>2021-04-12T12:42:16+02:00</time>
				<extensions>
					<swisstopo:routepoint_id>82644618</swisstopo:routepoint_id>
				</extensions>
			</trkpt>
			<trkpt lat="47.3992973980" lon="7.1859780926">
				<ele>614.3</ele>
				<time>2021-04-12T12:42:17+02:00</time>
				<extensions>
					<swisstopo:routepoint_id>1733658764</swisstopo:routepoint_id>
				</extensions>
			</trkpt>
			<trkpt lat="47.3992975151" lon="7.1859780307">
				<ele>614.3</ele>
				<time>2021-04-12T12:42:18+02:00</time>
				<extensions>
					<swisstopo:routepoint_id>544724052</swisstopo:routepoint_id>
				</extensions>
			</trkpt>
			<trkpt lat="47.3992975856" lon="7.1859779825">
				<ele>614.3</ele>
				<time>2021-04-12T12:42:19+02:00</time>
				<extensions>
					<swisstopo:routepoint_id>454354803</swisstopo:routepoint_id>
				</extensions>
			</trkpt>
			<trkpt lat="47.3992976394" lon="7.1859779801">
				<ele>614.3</ele>
				<time>2021-04-12T12:42:20+02:00</time>
				<extensions>
					<swisstopo:routepoint_id>2036808936</swisstopo:routepoint_id>
				</extensions>
			</trkpt>
			<trkpt lat="47.3992976612" lon="7.1859779859">
				<ele>614.3</ele>
				<time>2021-04-12T12:42:21+02:00</time>
				<extensions>
					<swisstopo:routepoint_id>1758454172</swisstopo:routepoint_id>
				</extensions>
			</trkpt>
			<trkpt lat="47.3992976338" lon="7.1859779663">
				<ele>614.3</ele>
				<time>2021-04-12T12:42:22+02:00</time>
				<extensions>
					<swisstopo:routepoint_id>669318790</swisstopo:routepoint_id>
				</extensions>
			</trkpt>
			<trkpt lat="47.3992976138" lon="7.1859779378">
				<ele>614.3</ele>
				<time>2021-04-12T12:42:23+02:00</time>
				<extensions>
					<swisstopo:routepoint_id>721560544</swisstopo:routepoint_id>
				</extensions>
			</trkpt>
			<trkpt lat="47.3992975995" lon="7.1859779082">
				<ele>614.3</ele>
				<time>2021-04-12T12:42:24+02:00</time>
				<extensions>
					<swisstopo:routepoint_id>427908399</swisstopo:routepoint_id>
				</extensions>
			</trkpt>
			<trkpt lat="47.3992975721" lon="7.1859778854">
				<ele>614.3</ele>
				<time>2021-04-12T12:42:25+02:00</time>
				<extensions>
					<swisstopo:routepoint_id>2081211837</swisstopo:routepoint_id>
				</extensions>
			</trkpt>
			<trkpt lat="47.3992973174" lon="7.1859778393">
				<ele>614.3</ele>
				<time>2021-04-12T12:42:26+02:00</time>
				<extensions>
					<swisstopo:routepoint_id>713702123</swisstopo:routepoint_id>
				</extensions>
			</trkpt>
			<trkpt lat="47.3992968969" lon="7.1859777716">
				<ele>614.3</ele>
				<time>2021-04-12T12:42:27+02:00</time>
				<extensions>
					<swisstopo:routepoint_id>1495412766</swisstopo:routepoint_id>
				</extensions>
			</trkpt>
			<trkpt lat="47.3992965198" lon="7.1859777004">
				<ele>614.3</ele>
				<time>2021-04-12T12:42:28+02:00</time>
				<extensions>
					<swisstopo:routepoint_id>1401237321</swisstopo:routepoint_id>
				</extensions>
			</trkpt>
			<trkpt lat="47.3992962231" lon="7.1859776255">
				<ele>614.3</ele>
				<time>2021-04-12T12:42:29+02:00</time>
				<extensions>
					<swisstopo:routepoint_id>1289981045</swisstopo:routepoint_id>
				</extensions>
			</trkpt>
			<trkpt lat="47.3992959623" lon="7.1859775196">
				<ele>614.3</ele>
				<time>2021-04-12T12:42:30+02:00</time>
				<extensions>
					<swisstopo:routepoint_id>1864006850</swisstopo:routepoint_id>
				</extensions>
			</trkpt>
		</trkseg>
	</trk>
</gpx>
